<?xml version='1.0' encoding='UTF-8'?><gpx version="1.1" creator="JPX - https://github.com/jenetics/jpx" xmlns="http://www.topografix.com/GPX/1/1"><trk><trkseg><trkpt lat="43.6192033" lon="11.4743748"><ele>125.0</ele><time>2026-05-01T05:38:56.492Z</time></trkpt><trkpt lat="43.6191895" lon="11.4742481"><ele>125.0</ele><time>2026-05-01T05:41:41.477Z</time></trkpt><trkpt lat="43.6191513" lon="11.4741666"><ele>125.0</ele><time>2026-05-01T05:41:44.498Z</time></trkpt><trkpt lat="43.6194803" lon="11.4742047"><ele>125.0</ele><time>2026-05-01T05:41:45.457Z</time></trkpt><trkpt lat="43.6196012" lon="11.4743011"><ele>125.0</ele><time>2026-05-01T05:41:46.457Z</time></trkpt><trkpt lat="43.6196489" lon="11.4743677"><ele>125.0</ele><time>2026-05-01T05:41:47.457Z</time></trkpt><trkpt lat="43.6197026" lon="11.4744787"><ele>125.0</ele><time>2026-05-01T05:41:49.456Z</time></trkpt><trkpt lat="43.6196655" lon="11.47458"><ele>125.0</ele><time>2026-05-01T05:41:51.457Z</time></trkpt><trkpt lat="43.6196079" lon="11.4746295"><ele>124.99999999999999</ele><time>2026-05-01T05:41:52.457Z</time></trkpt><trkpt lat="43.6195472" lon="11.4746868"><ele>125.0</ele><time>2026-05-01T05:41:53.457Z</time></trkpt><trkpt lat="43.6194872" lon="11.4747547"><ele>125.0</ele><time>2026-05-01T05:41:54.457Z</time></trkpt><trkpt lat="43.6193784" lon="11.4747669"><ele>125.0</ele><time>2026-05-01T05:41:56.457Z</time></trkpt><trkpt lat="43.6193245" lon="11.4746953"><ele>124.99999999999999</ele><time>2026-05-01T05:41:57.457Z</time></trkpt><trkpt lat="43.6192686" lon="11.4745833"><ele>125.0</ele><time>2026-05-01T05:41:58.457Z</time></trkpt><trkpt lat="43.6192111" lon="11.47449"><ele>125.0</ele><time>2026-05-01T05:41:59.457Z</time></trkpt><trkpt lat="43.6191392" lon="11.4743955"><ele>125.0</ele><time>2026-05-01T05:42:00.457Z</time></trkpt><trkpt lat="43.6190579" lon="11.4743286"><ele>125.0</ele><time>2026-05-01T05:42:01.457Z</time></trkpt><trkpt lat="43.6189678" lon="11.4743303"><ele>125.0</ele><time>2026-05-01T05:42:02.456Z</time></trkpt><trkpt lat="43.6188788" lon="11.4743633"><ele>125.0</ele><time>2026-05-01T05:42:03.457Z</time></trkpt><trkpt lat="43.6187974" lon="11.4744151"><ele>125.0</ele><time>2026-05-01T05:42:04.457Z</time></trkpt><trkpt lat="43.6187325" lon="11.4745022"><ele>125.0</ele><time>2026-05-01T05:42:05.457Z</time></trkpt><trkpt lat="43.618684" lon="11.4746273"><ele>125.0</ele><time>2026-05-01T05:42:06.456Z</time></trkpt><trkpt lat="43.6186446" lon="11.4747466"><ele>125.0</ele><time>2026-05-01T05:42:07.457Z</time></trkpt><trkpt lat="43.6186283" lon="11.4748496"><ele>125.0</ele><time>2026-05-01T05:42:08.456Z</time></trkpt><trkpt lat="43.6185541" lon="11.4749518"><ele>125.0</ele><time>2026-05-01T05:42:10.457Z</time></trkpt><trkpt lat="43.6184472" lon="11.474853"><ele>125.0</ele><time>2026-05-01T05:42:12.456Z</time></trkpt><trkpt lat="43.6183495" lon="11.4748168"><ele>125.0</ele><time>2026-05-01T05:42:13.457Z</time></trkpt><trkpt lat="43.6182599" lon="11.4748516"><ele>125.0</ele><time>2026-05-01T05:42:14.457Z</time></trkpt><trkpt lat="43.6181636" lon="11.4749269"><ele>125.0</ele><time>2026-05-01T05:42:15.457Z</time></trkpt><trkpt lat="43.6180696" lon="11.4750347"><ele>125.0</ele><time>2026-05-01T05:42:16.457Z</time></trkpt><trkpt lat="43.6179652" lon="11.4751554"><ele>125.0</ele><time>2026-05-01T05:42:17.457Z</time></trkpt><trkpt lat="43.617856" lon="11.4752895"><ele>125.0</ele><time>2026-05-01T05:42:18.457Z</time></trkpt><trkpt lat="43.6177375" lon="11.475438"><ele>125.0</ele><time>2026-05-01T05:42:19.457Z</time></trkpt><trkpt lat="43.6176178" lon="11.4755845"><ele>125.33333333333333</ele><time>2026-05-01T05:42:20.457Z</time></trkpt><trkpt lat="43.6174928" lon="11.475736"><ele>125.66666666666666</ele><time>2026-05-01T05:42:21.456Z</time></trkpt><trkpt lat="43.617375" lon="11.4758946"><ele>126.0</ele><time>2026-05-01T05:42:22.457Z</time></trkpt><trkpt lat="43.6172586" lon="11.4760395"><ele>126.0</ele><time>2026-05-01T05:42:23.456Z</time></trkpt><trkpt lat="43.6171536" lon="11.4761709"><ele>126.0</ele><time>2026-05-01T05:42:24.457Z</time></trkpt><trkpt lat="43.6170589" lon="11.4762965"><ele>126.0</ele><time>2026-05-01T05:42:25.456Z</time></trkpt><trkpt lat="43.6169677" lon="11.4764244"><ele>126.0</ele><time>2026-05-01T05:42:26.457Z</time></trkpt><trkpt lat="43.6168696" lon="11.4765537"><ele>125.5</ele><time>2026-05-01T05:42:27.457Z</time></trkpt><trkpt lat="43.6167624" lon="11.4766778"><ele>125.0</ele><time>2026-05-01T05:42:28.457Z</time></trkpt><trkpt lat="43.6166543" lon="11.476811"><ele>124.5</ele><time>2026-05-01T05:42:29.457Z</time></trkpt><trkpt lat="43.6165536" lon="11.4769484"><ele>124.0</ele><time>2026-05-01T05:42:30.456Z</time></trkpt><trkpt lat="43.6164618" lon="11.4770719"><ele>124.0</ele><time>2026-05-01T05:42:31.457Z</time></trkpt><trkpt lat="43.6163692" lon="11.47718"><ele>124.0</ele><time>2026-05-01T05:42:32.456Z</time></trkpt><trkpt lat="43.616281" lon="11.4772885"><ele>124.0</ele><time>2026-05-01T05:42:33.457Z</time></trkpt><trkpt lat="43.6162009" lon="11.4773916"><ele>124.0</ele><time>2026-05-01T05:42:34.456Z</time></trkpt><trkpt lat="43.6161275" lon="11.4774876"><ele>123.83333333333334</ele><time>2026-05-01T05:42:35.457Z</time></trkpt><trkpt lat="43.616067" lon="11.4775812"><ele>123.66666666666667</ele><time>2026-05-01T05:42:36.457Z</time></trkpt><trkpt lat="43.6160295" lon="11.4776631"><ele>123.5</ele><time>2026-05-01T05:42:37.456Z</time></trkpt><trkpt lat="43.6160029" lon="11.4778055"><ele>123.33333333333334</ele><time>2026-05-01T05:42:39.457Z</time></trkpt><trkpt lat="43.6159674" lon="11.4778832"><ele>123.16666666666667</ele><time>2026-05-01T05:42:41.457Z</time></trkpt><trkpt lat="43.6159068" lon="11.4779287"><ele>123.0</ele><time>2026-05-01T05:42:45.457Z</time></trkpt><trkpt lat="43.6158444" lon="11.4780353"><ele>123.0</ele><time>2026-05-01T05:45:16.457Z</time></trkpt><trkpt lat="43.6157811" lon="11.4780814"><ele>123.00000000000001</ele><time>2026-05-01T05:45:18.457Z</time></trkpt><trkpt lat="43.6156644" lon="11.4781262"><ele>123.00000000000001</ele><time>2026-05-01T05:45:20.457Z</time></trkpt><trkpt lat="43.6155914" lon="11.4781599"><ele>123.0</ele><time>2026-05-01T05:45:21.456Z</time></trkpt><trkpt lat="43.6155069" lon="11.4782354"><ele>123.0</ele><time>2026-05-01T05:45:22.457Z</time></trkpt><trkpt lat="43.6154188" lon="11.4783429"><ele>123.0</ele><time>2026-05-01T05:45:23.457Z</time></trkpt><trkpt lat="43.6153247" lon="11.4784771"><ele>123.0</ele><time>2026-05-01T05:45:24.457Z</time></trkpt><trkpt lat="43.615218" lon="11.4785996"><ele>123.0</ele><time>2026-05-01T05:45:25.457Z</time></trkpt><trkpt lat="43.6150962" lon="11.4787264"><ele>123.0</ele><time>2026-05-01T05:45:26.456Z</time></trkpt><trkpt lat="43.6149648" lon="11.4788711"><ele>123.33333333333334</ele><time>2026-05-01T05:45:27.457Z</time></trkpt><trkpt lat="43.614827" lon="11.479003"><ele>123.66666666666667</ele><time>2026-05-01T05:45:28.457Z</time></trkpt><trkpt lat="43.6146887" lon="11.4791339"><ele>124.0</ele><time>2026-05-01T05:45:29.457Z</time></trkpt><trkpt lat="43.6145448" lon="11.4792593"><ele>124.33333333333334</ele><time>2026-05-01T05:45:30.457Z</time></trkpt><trkpt lat="43.614392" lon="11.4794053"><ele>124.66666666666666</ele><time>2026-05-01T05:45:31.456Z</time></trkpt><trkpt lat="43.6142397" lon="11.4795559"><ele>125.0</ele><time>2026-05-01T05:45:32.457Z</time></trkpt><trkpt lat="43.6140804" lon="11.479697"><ele>125.0</ele><time>2026-05-01T05:45:33.457Z</time></trkpt><trkpt lat="43.6139176" lon="11.4798541"><ele>125.0</ele><time>2026-05-01T05:45:34.457Z</time></trkpt><trkpt lat="43.6137587" lon="11.4800055"><ele>125.0</ele><time>2026-05-01T05:45:35.456Z</time></trkpt><trkpt lat="43.6135988" lon="11.4801788"><ele>125.0</ele><time>2026-05-01T05:45:36.457Z</time></trkpt><trkpt lat="43.6134335" lon="11.4803546"><ele>125.0</ele><time>2026-05-01T05:45:37.457Z</time></trkpt><trkpt lat="43.6132628" lon="11.4805319"><ele>125.0</ele><time>2026-05-01T05:45:38.456Z</time></trkpt><trkpt lat="43.6130837" lon="11.4807146"><ele>125.0</ele><time>2026-05-01T05:45:39.457Z</time></trkpt><trkpt lat="43.6129025" lon="11.4808991"><ele>125.0</ele><time>2026-05-01T05:45:40.457Z</time></trkpt><trkpt lat="43.6127212" lon="11.4810857"><ele>124.0</ele><time>2026-05-01T05:45:41.457Z</time></trkpt><trkpt lat="43.6125375" lon="11.481273"><ele>123.0</ele><time>2026-05-01T05:45:42.457Z</time></trkpt><trkpt lat="43.6123468" lon="11.4814591"><ele>123.0</ele><time>2026-05-01T05:45:43.457Z</time></trkpt><trkpt lat="43.6121587" lon="11.481649"><ele>123.0</ele><time>2026-05-01T05:45:44.457Z</time></trkpt><trkpt lat="43.6119684" lon="11.4818429"><ele>124.0</ele><time>2026-05-01T05:45:45.457Z</time></trkpt><trkpt lat="43.6117764" lon="11.4820388"><ele>125.0</ele><time>2026-05-01T05:45:46.457Z</time></trkpt><trkpt lat="43.6115847" lon="11.4822298"><ele>125.0</ele><time>2026-05-01T05:45:47.457Z</time></trkpt><trkpt lat="43.611393" lon="11.4824211"><ele>125.0</ele><time>2026-05-01T05:45:48.456Z</time></trkpt><trkpt lat="43.6111958" lon="11.4826126"><ele>124.0</ele><time>2026-05-01T05:45:49.457Z</time></trkpt><trkpt lat="43.6109999" lon="11.4828079"><ele>123.0</ele><time>2026-05-01T05:45:50.457Z</time></trkpt><trkpt lat="43.6108055" lon="11.4829962"><ele>125.0</ele><time>2026-05-01T05:45:51.456Z</time></trkpt><trkpt lat="43.6106075" lon="11.4831909"><ele>127.0</ele><time>2026-05-01T05:45:52.457Z</time></trkpt><trkpt lat="43.6104073" lon="11.4833909"><ele>127.0</ele><time>2026-05-01T05:45:53.456Z</time></trkpt><trkpt lat="43.6102107" lon="11.4835893"><ele>127.0</ele><time>2026-05-01T05:45:54.457Z</time></trkpt><trkpt lat="43.6100062" lon="11.4837952"><ele>126.5</ele><time>2026-05-01T05:45:55.457Z</time></trkpt><trkpt lat="43.6097959" lon="11.4839995"><ele>126.0</ele><time>2026-05-01T05:45:56.457Z</time></trkpt><trkpt lat="43.6095854" lon="11.4842125"><ele>126.0</ele><time>2026-05-01T05:45:57.457Z</time></trkpt><trkpt lat="43.6093708" lon="11.4844262"><ele>126.0</ele><time>2026-05-01T05:45:58.457Z</time></trkpt><trkpt lat="43.6091612" lon="11.4846323"><ele>126.0</ele><time>2026-05-01T05:45:59.457Z</time></trkpt><trkpt lat="43.608944" lon="11.4848456"><ele>126.0</ele><time>2026-05-01T05:46:00.457Z</time></trkpt><trkpt lat="43.6087275" lon="11.4850594"><ele>126.0</ele><time>2026-05-01T05:46:01.457Z</time></trkpt><trkpt lat="43.6085073" lon="11.4852748"><ele>126.0</ele><time>2026-05-01T05:46:02.457Z</time></trkpt><trkpt lat="43.6082911" lon="11.485488"><ele>126.0</ele><time>2026-05-01T05:46:03.457Z</time></trkpt><trkpt lat="43.6080734" lon="11.4857039"><ele>126.0</ele><time>2026-05-01T05:46:04.457Z</time></trkpt><trkpt lat="43.607857" lon="11.4859171"><ele>128.5</ele><time>2026-05-01T05:46:05.457Z</time></trkpt><trkpt lat="43.6076385" lon="11.4861253"><ele>131.0</ele><time>2026-05-01T05:46:06.457Z</time></trkpt><trkpt lat="43.6074231" lon="11.4863437"><ele>131.0</ele><time>2026-05-01T05:46:07.457Z</time></trkpt><trkpt lat="43.607207" lon="11.4865432"><ele>131.0</ele><time>2026-05-01T05:46:08.456Z</time></trkpt><trkpt lat="43.6069832" lon="11.486723"><ele>134.0</ele><time>2026-05-01T05:46:09.457Z</time></trkpt><trkpt lat="43.6067367" lon="11.4868569"><ele>137.0</ele><time>2026-05-01T05:46:10.457Z</time></trkpt><trkpt lat="43.6064946" lon="11.4869766"><ele>136.5</ele><time>2026-05-01T05:46:11.457Z</time></trkpt><trkpt lat="43.6062599" lon="11.4870981"><ele>136.0</ele><time>2026-05-01T05:46:12.457Z</time></trkpt><trkpt lat="43.6060257" lon="11.4872175"><ele>136.0</ele><time>2026-05-01T05:46:13.457Z</time></trkpt><trkpt lat="43.6057854" lon="11.4873425"><ele>136.0</ele><time>2026-05-01T05:46:14.457Z</time></trkpt><trkpt lat="43.605563" lon="11.4874578"><ele>136.0</ele><time>2026-05-01T05:46:15.457Z</time></trkpt><trkpt lat="43.6053552" lon="11.4875805"><ele>136.0</ele><time>2026-05-01T05:46:16.457Z</time></trkpt><trkpt lat="43.6051553" lon="11.4877109"><ele>136.0</ele><time>2026-05-01T05:46:17.457Z</time></trkpt><trkpt lat="43.6049736" lon="11.4878586"><ele>133.66666666666669</ele><time>2026-05-01T05:46:18.457Z</time></trkpt><trkpt lat="43.6048256" lon="11.488006"><ele>131.33333333333334</ele><time>2026-05-01T05:46:19.456Z</time></trkpt><trkpt lat="43.6046993" lon="11.4881351"><ele>129.0</ele><time>2026-05-01T05:46:20.456Z</time></trkpt><trkpt lat="43.6045951" lon="11.4882578"><ele>129.0</ele><time>2026-05-01T05:46:21.457Z</time></trkpt><trkpt lat="43.6045067" lon="11.4883347"><ele>129.0</ele><time>2026-05-01T05:46:22.456Z</time></trkpt><trkpt lat="43.6044136" lon="11.4884115"><ele>129.0</ele><time>2026-05-01T05:46:23.457Z</time></trkpt><trkpt lat="43.6043094" lon="11.4885024"><ele>129.0</ele><time>2026-05-01T05:46:24.457Z</time></trkpt><trkpt lat="43.6041918" lon="11.4886112"><ele>129.0</ele><time>2026-05-01T05:46:25.457Z</time></trkpt><trkpt lat="43.6040579" lon="11.4887383"><ele>129.0</ele><time>2026-05-01T05:46:26.457Z</time></trkpt><trkpt lat="43.6039154" lon="11.4888701"><ele>129.0</ele><time>2026-05-01T05:46:27.457Z</time></trkpt><trkpt lat="43.6037771" lon="11.4890125"><ele>132.0</ele><time>2026-05-01T05:46:28.457Z</time></trkpt><trkpt lat="43.6036337" lon="11.4891427"><ele>135.0</ele><time>2026-05-01T05:46:29.456Z</time></trkpt><trkpt lat="43.6034732" lon="11.4892568"><ele>138.0</ele><time>2026-05-01T05:46:30.457Z</time></trkpt><trkpt lat="43.6032938" lon="11.4893364"><ele>138.0</ele><time>2026-05-01T05:46:31.457Z</time></trkpt><trkpt lat="43.6030988" lon="11.4893344"><ele>138.0</ele><time>2026-05-01T05:46:32.457Z</time></trkpt><trkpt lat="43.6028938" lon="11.4893329"><ele>138.0</ele><time>2026-05-01T05:46:33.456Z</time></trkpt><trkpt lat="43.6026875" lon="11.4893378"><ele>137.66666666666666</ele><time>2026-05-01T05:46:34.456Z</time></trkpt><trkpt lat="43.6024806" lon="11.4893309"><ele>137.33333333333331</ele><time>2026-05-01T05:46:35.457Z</time></trkpt><trkpt lat="43.6022707" lon="11.4893081"><ele>137.0</ele><time>2026-05-01T05:46:36.457Z</time></trkpt><trkpt lat="43.6020654" lon="11.489276"><ele>136.33333333333331</ele><time>2026-05-01T05:46:37.457Z</time></trkpt><trkpt lat="43.6018733" lon="11.48926"><ele>135.66666666666666</ele><time>2026-05-01T05:46:38.457Z</time></trkpt><trkpt lat="43.601689" lon="11.4892698"><ele>135.0</ele><time>2026-05-01T05:46:39.457Z</time></trkpt><trkpt lat="43.6015061" lon="11.4893655"><ele>135.0</ele><time>2026-05-01T05:46:40.456Z</time></trkpt><trkpt lat="43.6013419" lon="11.4894987"><ele>135.0</ele><time>2026-05-01T05:46:41.457Z</time></trkpt><trkpt lat="43.6011751" lon="11.4896959"><ele>135.0</ele><time>2026-05-01T05:46:42.457Z</time></trkpt><trkpt lat="43.6010183" lon="11.4899187"><ele>131.5</ele><time>2026-05-01T05:46:43.457Z</time></trkpt><trkpt lat="43.6008597" lon="11.4901434"><ele>128.0</ele><time>2026-05-01T05:46:44.456Z</time></trkpt><trkpt lat="43.6006986" lon="11.4903755"><ele>127.0</ele><time>2026-05-01T05:46:45.457Z</time></trkpt><trkpt lat="43.6005343" lon="11.4906153"><ele>126.0</ele><time>2026-05-01T05:46:46.456Z</time></trkpt><trkpt lat="43.6003684" lon="11.4908552"><ele>127.0</ele><time>2026-05-01T05:46:47.457Z</time></trkpt><trkpt lat="43.600185" lon="11.4910826"><ele>128.0</ele><time>2026-05-01T05:46:48.456Z</time></trkpt><trkpt lat="43.5999833" lon="11.4912855"><ele>128.0</ele><time>2026-05-01T05:46:49.457Z</time></trkpt><trkpt lat="43.5997752" lon="11.4914721"><ele>128.0</ele><time>2026-05-01T05:46:50.457Z</time></trkpt><trkpt lat="43.5995581" lon="11.4916402"><ele>128.5</ele><time>2026-05-01T05:46:51.457Z</time></trkpt><trkpt lat="43.5993402" lon="11.491814"><ele>129.0</ele><time>2026-05-01T05:46:52.457Z</time></trkpt><trkpt lat="43.5991218" lon="11.4919904"><ele>126.5</ele><time>2026-05-01T05:46:53.457Z</time></trkpt><trkpt lat="43.5989064" lon="11.4921884"><ele>124.0</ele><time>2026-05-01T05:46:54.457Z</time></trkpt><trkpt lat="43.5986877" lon="11.4924041"><ele>126.5</ele><time>2026-05-01T05:46:55.457Z</time></trkpt><trkpt lat="43.5984727" lon="11.4926442"><ele>129.0</ele><time>2026-05-01T05:46:56.457Z</time></trkpt><trkpt lat="43.598254" lon="11.492907"><ele>128.5</ele><time>2026-05-01T05:46:57.457Z</time></trkpt><trkpt lat="43.598032" lon="11.4931614"><ele>128.0</ele><time>2026-05-01T05:46:58.457Z</time></trkpt><trkpt lat="43.5978132" lon="11.493383"><ele>128.0</ele><time>2026-05-01T05:46:59.457Z</time></trkpt><trkpt lat="43.5976012" lon="11.4935763"><ele>128.0</ele><time>2026-05-01T05:47:00.457Z</time></trkpt><trkpt lat="43.5973996" lon="11.4937643"><ele>128.0</ele><time>2026-05-01T05:47:01.457Z</time></trkpt><trkpt lat="43.5971983" lon="11.4939555"><ele>128.0</ele><time>2026-05-01T05:47:02.457Z</time></trkpt><trkpt lat="43.5970165" lon="11.4941584"><ele>129.0</ele><time>2026-05-01T05:47:03.456Z</time></trkpt><trkpt lat="43.5968687" lon="11.4944212"><ele>130.0</ele><time>2026-05-01T05:47:04.457Z</time></trkpt><trkpt lat="43.5967412" lon="11.4947182"><ele>130.0</ele><time>2026-05-01T05:47:05.457Z</time></trkpt><trkpt lat="43.5966183" lon="11.495033"><ele>130.0</ele><time>2026-05-01T05:47:06.457Z</time></trkpt><trkpt lat="43.5964841" lon="11.4953367"><ele>129.5</ele><time>2026-05-01T05:47:07.457Z</time></trkpt><trkpt lat="43.5963533" lon="11.4956485"><ele>129.0</ele><time>2026-05-01T05:47:08.456Z</time></trkpt><trkpt lat="43.5962111" lon="11.4959467"><ele>130.5</ele><time>2026-05-01T05:47:09.457Z</time></trkpt><trkpt lat="43.5960616" lon="11.496242"><ele>132.0</ele><time>2026-05-01T05:47:10.457Z</time></trkpt><trkpt lat="43.5958964" lon="11.4965222"><ele>132.0</ele><time>2026-05-01T05:47:11.457Z</time></trkpt><trkpt lat="43.5956992" lon="11.4967579"><ele>132.0</ele><time>2026-05-01T05:47:12.456Z</time></trkpt><trkpt lat="43.5954887" lon="11.4969776"><ele>132.0</ele><time>2026-05-01T05:47:13.456Z</time></trkpt><trkpt lat="43.5952844" lon="11.4971882"><ele>132.0</ele><time>2026-05-01T05:47:14.457Z</time></trkpt><trkpt lat="43.5951014" lon="11.4974289"><ele>132.0</ele><time>2026-05-01T05:47:15.457Z</time></trkpt><trkpt lat="43.5949526" lon="11.4977166"><ele>132.0</ele><time>2026-05-01T05:47:16.456Z</time></trkpt><trkpt lat="43.5948221" lon="11.4980282"><ele>131.0</ele><time>2026-05-01T05:47:17.457Z</time></trkpt><trkpt lat="43.5946931" lon="11.4983661"><ele>130.0</ele><time>2026-05-01T05:47:18.457Z</time></trkpt><trkpt lat="43.5945602" lon="11.4987048"><ele>130.0</ele><time>2026-05-01T05:47:19.457Z</time></trkpt><trkpt lat="43.5944167" lon="11.4990377"><ele>130.0</ele><time>2026-05-01T05:47:20.457Z</time></trkpt><trkpt lat="43.5942737" lon="11.499347"><ele>129.0</ele><time>2026-05-01T05:47:21.457Z</time></trkpt><trkpt lat="43.5941229" lon="11.4996398"><ele>128.0</ele><time>2026-05-01T05:47:22.457Z</time></trkpt><trkpt lat="43.5939679" lon="11.4999324"><ele>128.0</ele><time>2026-05-01T05:47:23.457Z</time></trkpt><trkpt lat="43.5937935" lon="11.5002037"><ele>128.0</ele><time>2026-05-01T05:47:24.457Z</time></trkpt><trkpt lat="43.5935955" lon="11.5004431"><ele>128.0</ele><time>2026-05-01T05:47:25.457Z</time></trkpt><trkpt lat="43.5933842" lon="11.5006653"><ele>128.0</ele><time>2026-05-01T05:47:26.457Z</time></trkpt><trkpt lat="43.5931801" lon="11.5008623"><ele>128.0</ele><time>2026-05-01T05:47:27.457Z</time></trkpt><trkpt lat="43.5929757" lon="11.5010445"><ele>128.0</ele><time>2026-05-01T05:47:28.457Z</time></trkpt><trkpt lat="43.5927832" lon="11.5012261"><ele>129.0</ele><time>2026-05-01T05:47:29.457Z</time></trkpt><trkpt lat="43.5926039" lon="11.5014007"><ele>130.0</ele><time>2026-05-01T05:47:30.456Z</time></trkpt><trkpt lat="43.5924284" lon="11.5015653"><ele>131.0</ele><time>2026-05-01T05:47:31.457Z</time></trkpt><trkpt lat="43.5922576" lon="11.5017224"><ele>131.0</ele><time>2026-05-01T05:47:32.457Z</time></trkpt><trkpt lat="43.5920997" lon="11.5018726"><ele>131.0</ele><time>2026-05-01T05:47:33.456Z</time></trkpt><trkpt lat="43.5919402" lon="11.5019861"><ele>131.0</ele><time>2026-05-01T05:47:34.457Z</time></trkpt><trkpt lat="43.5917789" lon="11.5020626"><ele>129.66666666666666</ele><time>2026-05-01T05:47:35.457Z</time></trkpt><trkpt lat="43.5916049" lon="11.5020887"><ele>128.33333333333334</ele><time>2026-05-01T05:47:36.456Z</time></trkpt><trkpt lat="43.5914252" lon="11.5021146"><ele>127.0</ele><time>2026-05-01T05:47:37.457Z</time></trkpt><trkpt lat="43.5912233" lon="11.5021327"><ele>127.0</ele><time>2026-05-01T05:47:38.456Z</time></trkpt><trkpt lat="43.5910083" lon="11.5021427"><ele>127.0</ele><time>2026-05-01T05:47:39.457Z</time></trkpt><trkpt lat="43.590771" lon="11.5021474"><ele>127.0</ele><time>2026-05-01T05:47:40.456Z</time></trkpt><trkpt lat="43.5905174" lon="11.5021469"><ele>127.0</ele><time>2026-05-01T05:47:41.457Z</time></trkpt><trkpt lat="43.5902643" lon="11.50215"><ele>127.5</ele><time>2026-05-01T05:47:42.457Z</time></trkpt><trkpt lat="43.5900014" lon="11.5021468"><ele>128.0</ele><time>2026-05-01T05:47:43.457Z</time></trkpt><trkpt lat="43.5897422" lon="11.5021419"><ele>128.5</ele><time>2026-05-01T05:47:44.456Z</time></trkpt><trkpt lat="43.5894778" lon="11.5021458"><ele>129.0</ele><time>2026-05-01T05:47:45.457Z</time></trkpt><trkpt lat="43.5892147" lon="11.5021448"><ele>129.0</ele><time>2026-05-01T05:47:46.457Z</time></trkpt><trkpt lat="43.5889546" lon="11.502154"><ele>129.0</ele><time>2026-05-01T05:47:47.457Z</time></trkpt><trkpt lat="43.5886976" lon="11.5021675"><ele>130.0</ele><time>2026-05-01T05:47:48.457Z</time></trkpt><trkpt lat="43.5884635" lon="11.5022506"><ele>131.0</ele><time>2026-05-01T05:47:49.457Z</time></trkpt><trkpt lat="43.5882483" lon="11.5024058"><ele>131.0</ele><time>2026-05-01T05:47:50.457Z</time></trkpt><trkpt lat="43.5880438" lon="11.5026216"><ele>131.0</ele><time>2026-05-01T05:47:51.457Z</time></trkpt><trkpt lat="43.5878344" lon="11.5028509"><ele>130.5</ele><time>2026-05-01T05:47:52.456Z</time></trkpt><trkpt lat="43.5876266" lon="11.5030627"><ele>130.0</ele><time>2026-05-01T05:47:53.456Z</time></trkpt><trkpt lat="43.5874272" lon="11.5032775"><ele>130.0</ele><time>2026-05-01T05:47:54.457Z</time></trkpt><trkpt lat="43.58723" lon="11.5034889"><ele>130.0</ele><time>2026-05-01T05:47:55.457Z</time></trkpt><trkpt lat="43.5870409" lon="11.5036872"><ele>129.5</ele><time>2026-05-01T05:47:56.457Z</time></trkpt><trkpt lat="43.5868588" lon="11.5038736"><ele>129.0</ele><time>2026-05-01T05:47:57.457Z</time></trkpt><trkpt lat="43.5866588" lon="11.5040345"><ele>129.0</ele><time>2026-05-01T05:47:58.457Z</time></trkpt><trkpt lat="43.5864333" lon="11.504134"><ele>129.0</ele><time>2026-05-01T05:47:59.456Z</time></trkpt><trkpt lat="43.5861996" lon="11.5042149"><ele>129.5</ele><time>2026-05-01T05:48:00.457Z</time></trkpt><trkpt lat="43.5859678" lon="11.5043081"><ele>130.0</ele><time>2026-05-01T05:48:01.457Z</time></trkpt><trkpt lat="43.5857426" lon="11.5044469"><ele>130.0</ele><time>2026-05-01T05:48:02.457Z</time></trkpt><trkpt lat="43.5855232" lon="11.5046072"><ele>130.0</ele><time>2026-05-01T05:48:03.457Z</time></trkpt><trkpt lat="43.5853138" lon="11.5047926"><ele>130.0</ele><time>2026-05-01T05:48:04.457Z</time></trkpt><trkpt lat="43.5851077" lon="11.5050067"><ele>130.0</ele><time>2026-05-01T05:48:05.457Z</time></trkpt><trkpt lat="43.5849288" lon="11.505251"><ele>129.0</ele><time>2026-05-01T05:48:06.457Z</time></trkpt><trkpt lat="43.584758" lon="11.5055168"><ele>128.0</ele><time>2026-05-01T05:48:07.457Z</time></trkpt><trkpt lat="43.5846049" lon="11.5058037"><ele>130.0</ele><time>2026-05-01T05:48:08.457Z</time></trkpt><trkpt lat="43.5844549" lon="11.5060918"><ele>132.0</ele><time>2026-05-01T05:48:09.457Z</time></trkpt><trkpt lat="43.5843112" lon="11.5063872"><ele>132.0</ele><time>2026-05-01T05:48:10.456Z</time></trkpt><trkpt lat="43.5841645" lon="11.506684"><ele>132.0</ele><time>2026-05-01T05:48:11.457Z</time></trkpt><trkpt lat="43.5840181" lon="11.5069823"><ele>130.0</ele><time>2026-05-01T05:48:12.457Z</time></trkpt><trkpt lat="43.5838673" lon="11.5072791"><ele>128.0</ele><time>2026-05-01T05:48:13.456Z</time></trkpt><trkpt lat="43.5837229" lon="11.5075767"><ele>129.0</ele><time>2026-05-01T05:48:14.456Z</time></trkpt><trkpt lat="43.5835849" lon="11.5078869"><ele>130.0</ele><time>2026-05-01T05:48:15.457Z</time></trkpt><trkpt lat="43.5834732" lon="11.5082127"><ele>130.0</ele><time>2026-05-01T05:48:16.457Z</time></trkpt><trkpt lat="43.5833732" lon="11.5085564"><ele>130.0</ele><time>2026-05-01T05:48:17.457Z</time></trkpt><trkpt lat="43.5832919" lon="11.508907"><ele>130.0</ele><time>2026-05-01T05:48:18.457Z</time></trkpt><trkpt lat="43.5832318" lon="11.5092724"><ele>130.0</ele><time>2026-05-01T05:48:19.457Z</time></trkpt><trkpt lat="43.5831913" lon="11.5096477"><ele>130.5</ele><time>2026-05-01T05:48:20.457Z</time></trkpt><trkpt lat="43.5831603" lon="11.5100285"><ele>131.0</ele><time>2026-05-01T05:48:21.457Z</time></trkpt><trkpt lat="43.5831255" lon="11.5104179"><ele>130.0</ele><time>2026-05-01T05:48:22.457Z</time></trkpt><trkpt lat="43.5831005" lon="11.5108053"><ele>129.0</ele><time>2026-05-01T05:48:23.457Z</time></trkpt><trkpt lat="43.5830744" lon="11.5111945"><ele>128.5</ele><time>2026-05-01T05:48:24.456Z</time></trkpt><trkpt lat="43.5830493" lon="11.5115898"><ele>128.0</ele><time>2026-05-01T05:48:25.457Z</time></trkpt><trkpt lat="43.5830193" lon="11.5119793"><ele>128.0</ele><time>2026-05-01T05:48:26.457Z</time></trkpt><trkpt lat="43.5829929" lon="11.5123661"><ele>128.0</ele><time>2026-05-01T05:48:27.457Z</time></trkpt><trkpt lat="43.582962" lon="11.5127705"><ele>127.5</ele><time>2026-05-01T05:48:28.457Z</time></trkpt><trkpt lat="43.5829303" lon="11.5131687"><ele>127.0</ele><time>2026-05-01T05:48:29.457Z</time></trkpt><trkpt lat="43.5829007" lon="11.5135651"><ele>127.5</ele><time>2026-05-01T05:48:30.457Z</time></trkpt><trkpt lat="43.582877" lon="11.5139683"><ele>128.0</ele><time>2026-05-01T05:48:31.457Z</time></trkpt><trkpt lat="43.5828497" lon="11.5143666"><ele>128.0</ele><time>2026-05-01T05:48:32.457Z</time></trkpt><trkpt lat="43.5828205" lon="11.5147648"><ele>128.0</ele><time>2026-05-01T05:48:33.457Z</time></trkpt><trkpt lat="43.5827896" lon="11.5151573"><ele>128.5</ele><time>2026-05-01T05:48:34.457Z</time></trkpt><trkpt lat="43.5827606" lon="11.5155511"><ele>129.0</ele><time>2026-05-01T05:48:35.456Z</time></trkpt><trkpt lat="43.5827283" lon="11.5159386"><ele>128.5</ele><time>2026-05-01T05:48:36.456Z</time></trkpt><trkpt lat="43.5826949" lon="11.5163194"><ele>128.0</ele><time>2026-05-01T05:48:37.456Z</time></trkpt><trkpt lat="43.582655" lon="11.5167024"><ele>128.5</ele><time>2026-05-01T05:48:38.457Z</time></trkpt><trkpt lat="43.5825993" lon="11.5170764"><ele>129.0</ele><time>2026-05-01T05:48:39.457Z</time></trkpt><trkpt lat="43.5825255" lon="11.5174453"><ele>129.0</ele><time>2026-05-01T05:48:40.456Z</time></trkpt><trkpt lat="43.5824242" lon="11.5178157"><ele>129.0</ele><time>2026-05-01T05:48:41.456Z</time></trkpt><trkpt lat="43.5822947" lon="11.5181626"><ele>129.0</ele><time>2026-05-01T05:48:42.457Z</time></trkpt><trkpt lat="43.5821456" lon="11.5184919"><ele>129.0</ele><time>2026-05-01T05:48:43.457Z</time></trkpt><trkpt lat="43.5819735" lon="11.5188028"><ele>128.5</ele><time>2026-05-01T05:48:44.457Z</time></trkpt><trkpt lat="43.5817898" lon="11.5190914"><ele>128.0</ele><time>2026-05-01T05:48:45.457Z</time></trkpt><trkpt lat="43.5815904" lon="11.5193652"><ele>128.5</ele><time>2026-05-01T05:48:46.457Z</time></trkpt><trkpt lat="43.5813762" lon="11.5196212"><ele>129.0</ele><time>2026-05-01T05:48:47.457Z</time></trkpt><trkpt lat="43.5811525" lon="11.5198585"><ele>129.5</ele><time>2026-05-01T05:48:48.457Z</time></trkpt><trkpt lat="43.5809372" lon="11.5201027"><ele>130.0</ele><time>2026-05-01T05:48:49.457Z</time></trkpt><trkpt lat="43.5807176" lon="11.5203392"><ele>130.0</ele><time>2026-05-01T05:48:50.457Z</time></trkpt><trkpt lat="43.5805003" lon="11.5205752"><ele>130.0</ele><time>2026-05-01T05:48:51.457Z</time></trkpt><trkpt lat="43.5802821" lon="11.5208111"><ele>130.0</ele><time>2026-05-01T05:48:52.457Z</time></trkpt><trkpt lat="43.5800715" lon="11.5210443"><ele>130.0</ele><time>2026-05-01T05:48:53.457Z</time></trkpt><trkpt lat="43.5798545" lon="11.5212798"><ele>130.0</ele><time>2026-05-01T05:48:54.457Z</time></trkpt><trkpt lat="43.5796379" lon="11.5215205"><ele>130.0</ele><time>2026-05-01T05:48:55.457Z</time></trkpt><trkpt lat="43.5794217" lon="11.521761"><ele>129.5</ele><time>2026-05-01T05:48:56.457Z</time></trkpt><trkpt lat="43.5792123" lon="11.521997"><ele>129.0</ele><time>2026-05-01T05:48:57.457Z</time></trkpt><trkpt lat="43.5790158" lon="11.5222155"><ele>129.0</ele><time>2026-05-01T05:48:58.457Z</time></trkpt><trkpt lat="43.5788439" lon="11.522417"><ele>129.0</ele><time>2026-05-01T05:48:59.457Z</time></trkpt><trkpt lat="43.5786847" lon="11.5225811"><ele>129.0</ele><time>2026-05-01T05:49:00.457Z</time></trkpt><trkpt lat="43.5785471" lon="11.5227335"><ele>129.25</ele><time>2026-05-01T05:49:01.456Z</time></trkpt><trkpt lat="43.578413" lon="11.522866"><ele>129.5</ele><time>2026-05-01T05:49:02.457Z</time></trkpt><trkpt lat="43.5782809" lon="11.5229806"><ele>129.75</ele><time>2026-05-01T05:49:03.456Z</time></trkpt><trkpt lat="43.5781773" lon="11.5230651"><ele>130.0</ele><time>2026-05-01T05:49:04.457Z</time></trkpt><trkpt lat="43.5780617" lon="11.5230718"><ele>130.0</ele><time>2026-05-01T05:49:05.457Z</time></trkpt><trkpt lat="43.5779321" lon="11.5230339"><ele>130.0</ele><time>2026-05-01T05:49:06.457Z</time></trkpt><trkpt lat="43.577832" lon="11.5229861"><ele>130.0</ele><time>2026-05-01T05:49:07.457Z</time></trkpt><trkpt lat="43.5777246" lon="11.5230186"><ele>130.0</ele><time>2026-05-01T05:49:08.457Z</time></trkpt><trkpt lat="43.5776264" lon="11.5231652"><ele>130.0</ele><time>2026-05-01T05:49:09.457Z</time></trkpt><trkpt lat="43.577583" lon="11.523305"><ele>130.0</ele><time>2026-05-01T05:49:10.457Z</time></trkpt><trkpt lat="43.5775854" lon="11.523445"><ele>130.0</ele><time>2026-05-01T05:49:11.457Z</time></trkpt><trkpt lat="43.5775909" lon="11.5236057"><ele>130.0</ele><time>2026-05-01T05:49:12.457Z</time></trkpt><trkpt lat="43.5775448" lon="11.523774"><ele>130.0</ele><time>2026-05-01T05:49:13.457Z</time></trkpt><trkpt lat="43.577448" lon="11.5239222"><ele>130.0</ele><time>2026-05-01T05:49:14.457Z</time></trkpt><trkpt lat="43.5773167" lon="11.5240664"><ele>130.0</ele><time>2026-05-01T05:49:15.457Z</time></trkpt><trkpt lat="43.5771719" lon="11.5242092"><ele>130.0</ele><time>2026-05-01T05:49:16.457Z</time></trkpt><trkpt lat="43.5770199" lon="11.5243642"><ele>130.0</ele><time>2026-05-01T05:49:17.457Z</time></trkpt><trkpt lat="43.57686" lon="11.5245336"><ele>130.0</ele><time>2026-05-01T05:49:18.457Z</time></trkpt><trkpt lat="43.5766968" lon="11.5247036"><ele>131.0</ele><time>2026-05-01T05:49:19.457Z</time></trkpt><trkpt lat="43.5765444" lon="11.5248823"><ele>132.0</ele><time>2026-05-01T05:49:20.456Z</time></trkpt><trkpt lat="43.5763762" lon="11.5250603"><ele>133.0</ele><time>2026-05-01T05:49:21.457Z</time></trkpt><trkpt lat="43.5762049" lon="11.525255"><ele>133.0</ele><time>2026-05-01T05:49:22.456Z</time></trkpt><trkpt lat="43.5760333" lon="11.5254495"><ele>133.0</ele><time>2026-05-01T05:49:23.457Z</time></trkpt><trkpt lat="43.5758549" lon="11.5256505"><ele>133.0</ele><time>2026-05-01T05:49:24.457Z</time></trkpt><trkpt lat="43.5756795" lon="11.5258401"><ele>133.0</ele><time>2026-05-01T05:49:25.456Z</time></trkpt><trkpt lat="43.5755119" lon="11.5260242"><ele>133.0</ele><time>2026-05-01T05:49:26.457Z</time></trkpt><trkpt lat="43.5753423" lon="11.5262127"><ele>132.66666666666669</ele><time>2026-05-01T05:49:27.457Z</time></trkpt><trkpt lat="43.5751751" lon="11.5264074"><ele>132.33333333333334</ele><time>2026-05-01T05:49:28.457Z</time></trkpt><trkpt lat="43.5749975" lon="11.5265995"><ele>132.0</ele><time>2026-05-01T05:49:29.456Z</time></trkpt><trkpt lat="43.5748175" lon="11.5268123"><ele>132.0</ele><time>2026-05-01T05:49:30.456Z</time></trkpt><trkpt lat="43.5746325" lon="11.5270201"><ele>132.0</ele><time>2026-05-01T05:49:31.456Z</time></trkpt><trkpt lat="43.5744483" lon="11.527221"><ele>132.0</ele><time>2026-05-01T05:49:32.457Z</time></trkpt><trkpt lat="43.5742616" lon="11.5274182"><ele>132.0</ele><time>2026-05-01T05:49:33.457Z</time></trkpt><trkpt lat="43.5740778" lon="11.5276102"><ele>132.0</ele><time>2026-05-01T05:49:34.456Z</time></trkpt><trkpt lat="43.5738964" lon="11.5278024"><ele>132.0</ele><time>2026-05-01T05:49:35.456Z</time></trkpt><trkpt lat="43.5737166" lon="11.5279914"><ele>131.5</ele><time>2026-05-01T05:49:36.456Z</time></trkpt><trkpt lat="43.5735401" lon="11.5281847"><ele>131.0</ele><time>2026-05-01T05:49:37.457Z</time></trkpt><trkpt lat="43.573362" lon="11.5283768"><ele>131.0</ele><time>2026-05-01T05:49:38.457Z</time></trkpt><trkpt lat="43.5731837" lon="11.5285789"><ele>131.0</ele><time>2026-05-01T05:49:39.456Z</time></trkpt><trkpt lat="43.5730028" lon="11.5287903"><ele>132.5</ele><time>2026-05-01T05:49:40.456Z</time></trkpt><trkpt lat="43.5728221" lon="11.5290069"><ele>134.0</ele><time>2026-05-01T05:49:41.456Z</time></trkpt><trkpt lat="43.5726463" lon="11.5292058"><ele>134.0</ele><time>2026-05-01T05:49:42.457Z</time></trkpt><trkpt lat="43.5724708" lon="11.5293858"><ele>134.0</ele><time>2026-05-01T05:49:43.456Z</time></trkpt><trkpt lat="43.5723054" lon="11.5295552"><ele>134.0</ele><time>2026-05-01T05:49:44.457Z</time></trkpt><trkpt lat="43.5721522" lon="11.529723"><ele>134.0</ele><time>2026-05-01T05:49:45.457Z</time></trkpt><trkpt lat="43.5720035" lon="11.5298888"><ele>134.0</ele><time>2026-05-01T05:49:46.457Z</time></trkpt><trkpt lat="43.5718663" lon="11.5300307"><ele>134.0</ele><time>2026-05-01T05:49:47.457Z</time></trkpt><trkpt lat="43.5717556" lon="11.5301424"><ele>134.0</ele><time>2026-05-01T05:49:48.457Z</time></trkpt><trkpt lat="43.5716627" lon="11.5302423"><ele>134.0</ele><time>2026-05-01T05:49:49.457Z</time></trkpt><trkpt lat="43.571588" lon="11.5303394"><ele>134.0</ele><time>2026-05-01T05:49:50.457Z</time></trkpt><trkpt lat="43.5715095" lon="11.5304296"><ele>134.0</ele><time>2026-05-01T05:49:51.456Z</time></trkpt><trkpt lat="43.5714305" lon="11.5304903"><ele>134.0</ele><time>2026-05-01T05:49:52.457Z</time></trkpt><trkpt lat="43.571346" lon="11.530518"><ele>134.16666666666666</ele><time>2026-05-01T05:49:53.456Z</time></trkpt><trkpt lat="43.5712673" lon="11.5305192"><ele>134.33333333333331</ele><time>2026-05-01T05:49:54.457Z</time></trkpt><trkpt lat="43.5711886" lon="11.5305441"><ele>134.5</ele><time>2026-05-01T05:49:55.457Z</time></trkpt><trkpt lat="43.5711508" lon="11.5307125"><ele>134.66666666666666</ele><time>2026-05-01T05:49:57.457Z</time></trkpt><trkpt lat="43.5711816" lon="11.5308051"><ele>134.83333333333334</ele><time>2026-05-01T05:49:58.457Z</time></trkpt><trkpt lat="43.5712397" lon="11.5308689"><ele>135.0</ele><time>2026-05-01T05:49:59.457Z</time></trkpt><trkpt lat="43.5713182" lon="11.5309288"><ele>133.5</ele><time>2026-05-01T05:50:00.457Z</time></trkpt><trkpt lat="43.5713958" lon="11.5309961"><ele>132.0</ele><time>2026-05-01T05:50:01.457Z</time></trkpt><trkpt lat="43.5714703" lon="11.5311035"><ele>130.5</ele><time>2026-05-01T05:50:02.457Z</time></trkpt><trkpt lat="43.5715459" lon="11.531232"><ele>129.0</ele><time>2026-05-01T05:50:03.457Z</time></trkpt><trkpt lat="43.571622" lon="11.5313873"><ele>129.0</ele><time>2026-05-01T05:50:04.457Z</time></trkpt><trkpt lat="43.5717166" lon="11.5315672"><ele>129.0</ele><time>2026-05-01T05:50:05.457Z</time></trkpt><trkpt lat="43.5718123" lon="11.5317857"><ele>129.0</ele><time>2026-05-01T05:50:06.457Z</time></trkpt><trkpt lat="43.5719146" lon="11.5319896"><ele>130.0</ele><time>2026-05-01T05:50:07.457Z</time></trkpt><trkpt lat="43.5720019" lon="11.5321637"><ele>131.0</ele><time>2026-05-01T05:50:08.457Z</time></trkpt><trkpt lat="43.5720824" lon="11.5323323"><ele>132.0</ele><time>2026-05-01T05:50:09.456Z</time></trkpt><trkpt lat="43.5721503" lon="11.5324684"><ele>133.0</ele><time>2026-05-01T05:50:10.457Z</time></trkpt><trkpt lat="43.5721981" lon="11.5326133"><ele>133.0</ele><time>2026-05-01T05:50:11.457Z</time></trkpt><trkpt lat="43.5722343" lon="11.5327586"><ele>133.0</ele><time>2026-05-01T05:50:12.457Z</time></trkpt><trkpt lat="43.5722637" lon="11.5328913"><ele>133.0</ele><time>2026-05-01T05:50:13.457Z</time></trkpt><trkpt lat="43.5723154" lon="11.5330063"><ele>133.0</ele><time>2026-05-01T05:50:14.457Z</time></trkpt><trkpt lat="43.5723946" lon="11.5330824"><ele>133.0</ele><time>2026-05-01T05:50:15.457Z</time></trkpt><trkpt lat="43.5724906" lon="11.5330864"><ele>133.0</ele><time>2026-05-01T05:50:16.457Z</time></trkpt><trkpt lat="43.5725834" lon="11.5330279"><ele>133.0</ele><time>2026-05-01T05:50:17.456Z</time></trkpt><trkpt lat="43.5726694" lon="11.5329223"><ele>133.0</ele><time>2026-05-01T05:50:18.457Z</time></trkpt><trkpt lat="43.5727618" lon="11.5328139"><ele>133.0</ele><time>2026-05-01T05:50:19.456Z</time></trkpt><trkpt lat="43.5728882" lon="11.532761"><ele>132.33333333333334</ele><time>2026-05-01T05:50:20.457Z</time></trkpt><trkpt lat="43.5730637" lon="11.5328376"><ele>131.66666666666666</ele><time>2026-05-01T05:50:21.457Z</time></trkpt><trkpt lat="43.5732471" lon="11.5329216"><ele>131.0</ele><time>2026-05-01T05:50:22.457Z</time></trkpt><trkpt lat="43.5734309" lon="11.5330322"><ele>130.66666666666666</ele><time>2026-05-01T05:50:23.457Z</time></trkpt><trkpt lat="43.5736111" lon="11.5331768"><ele>130.33333333333334</ele><time>2026-05-01T05:50:24.457Z</time></trkpt><trkpt lat="43.5737905" lon="11.5333351"><ele>130.0</ele><time>2026-05-01T05:50:25.457Z</time></trkpt><trkpt lat="43.57397" lon="11.5334952"><ele>131.0</ele><time>2026-05-01T05:50:26.457Z</time></trkpt><trkpt lat="43.57415" lon="11.5336543"><ele>132.0</ele><time>2026-05-01T05:50:27.457Z</time></trkpt><trkpt lat="43.574327" lon="11.533807"><ele>133.0</ele><time>2026-05-01T05:50:28.457Z</time></trkpt><trkpt lat="43.5744983" lon="11.5339511"><ele>133.0</ele><time>2026-05-01T05:50:29.457Z</time></trkpt><trkpt lat="43.5746557" lon="11.5340844"><ele>133.0</ele><time>2026-05-01T05:50:30.457Z</time></trkpt><trkpt lat="43.5748033" lon="11.5342257"><ele>133.0</ele><time>2026-05-01T05:50:31.457Z</time></trkpt><trkpt lat="43.5749562" lon="11.5343627"><ele>133.0</ele><time>2026-05-01T05:50:32.457Z</time></trkpt><trkpt lat="43.5751141" lon="11.5345006"><ele>133.0</ele><time>2026-05-01T05:50:33.457Z</time></trkpt><trkpt lat="43.5752649" lon="11.5346368"><ele>133.0</ele><time>2026-05-01T05:50:34.456Z</time></trkpt><trkpt lat="43.5754153" lon="11.5347698"><ele>133.0</ele><time>2026-05-01T05:50:35.457Z</time></trkpt><trkpt lat="43.5755587" lon="11.534892"><ele>133.0</ele><time>2026-05-01T05:50:36.457Z</time></trkpt><trkpt lat="43.5756958" lon="11.5350111"><ele>133.0</ele><time>2026-05-01T05:50:37.457Z</time></trkpt><trkpt lat="43.575827" lon="11.5351225"><ele>133.0</ele><time>2026-05-01T05:50:38.457Z</time></trkpt><trkpt lat="43.5759521" lon="11.5352221"><ele>133.0</ele><time>2026-05-01T05:50:39.456Z</time></trkpt><trkpt lat="43.5760296" lon="11.5352965"><ele>133.0</ele><time>2026-05-01T05:50:40.456Z</time></trkpt><trkpt lat="43.5760998" lon="11.5353958"><ele>133.0</ele><time>2026-05-01T05:50:41.457Z</time></trkpt><trkpt lat="43.5761601" lon="11.5355082"><ele>133.0</ele><time>2026-05-01T05:50:42.457Z</time></trkpt><trkpt lat="43.5761817" lon="11.5356333"><ele>133.33333333333334</ele><time>2026-05-01T05:50:43.457Z</time></trkpt><trkpt lat="43.5761923" lon="11.5357641"><ele>133.66666666666669</ele><time>2026-05-01T05:50:44.457Z</time></trkpt><trkpt lat="43.5761913" lon="11.5358752"><ele>134.0</ele><time>2026-05-01T05:50:45.457Z</time></trkpt><trkpt lat="43.576177" lon="11.5359657"><ele>134.33333333333334</ele><time>2026-05-01T05:50:46.456Z</time></trkpt><trkpt lat="43.5761348" lon="11.5360483"><ele>134.66666666666666</ele><time>2026-05-01T05:50:47.456Z</time></trkpt><trkpt lat="43.5760969" lon="11.5361277"><ele>135.0</ele><time>2026-05-01T05:50:48.457Z</time></trkpt><trkpt lat="43.5760482" lon="11.5361993"><ele>135.66666666666666</ele><time>2026-05-01T05:50:49.457Z</time></trkpt><trkpt lat="43.5759973" lon="11.5362632"><ele>136.33333333333334</ele><time>2026-05-01T05:50:50.457Z</time></trkpt><trkpt lat="43.5759429" lon="11.5363307"><ele>137.0</ele><time>2026-05-01T05:50:51.456Z</time></trkpt><trkpt lat="43.5758875" lon="11.5363996"><ele>137.66666666666669</ele><time>2026-05-01T05:50:52.457Z</time></trkpt><trkpt lat="43.575828" lon="11.5364754"><ele>138.33333333333334</ele><time>2026-05-01T05:50:53.457Z</time></trkpt><trkpt lat="43.575774" lon="11.5365526"><ele>139.0</ele><time>2026-05-01T05:50:54.457Z</time></trkpt><trkpt lat="43.5757155" lon="11.5366261"><ele>139.0</ele><time>2026-05-01T05:50:55.457Z</time></trkpt><trkpt lat="43.5756575" lon="11.5367022"><ele>139.0</ele><time>2026-05-01T05:50:56.457Z</time></trkpt><trkpt lat="43.5755994" lon="11.5367904"><ele>139.0</ele><time>2026-05-01T05:50:57.457Z</time></trkpt><trkpt lat="43.575531" lon="11.5368944"><ele>139.0</ele><time>2026-05-01T05:50:58.457Z</time></trkpt><trkpt lat="43.5754398" lon="11.5370134"><ele>139.0</ele><time>2026-05-01T05:50:59.457Z</time></trkpt><trkpt lat="43.5753332" lon="11.5371503"><ele>139.0</ele><time>2026-05-01T05:51:00.457Z</time></trkpt><trkpt lat="43.5752064" lon="11.5373045"><ele>139.0</ele><time>2026-05-01T05:51:01.457Z</time></trkpt><trkpt lat="43.5750703" lon="11.5374633"><ele>139.0</ele><time>2026-05-01T05:51:02.457Z</time></trkpt><trkpt lat="43.5749213" lon="11.5376437"><ele>139.0</ele><time>2026-05-01T05:51:03.457Z</time></trkpt><trkpt lat="43.5747705" lon="11.5378374"><ele>139.0</ele><time>2026-05-01T05:51:04.457Z</time></trkpt><trkpt lat="43.5746024" lon="11.5380305"><ele>139.0</ele><time>2026-05-01T05:51:05.457Z</time></trkpt><trkpt lat="43.574428" lon="11.5382294"><ele>137.5</ele><time>2026-05-01T05:51:06.457Z</time></trkpt><trkpt lat="43.574261" lon="11.5384281"><ele>136.0</ele><time>2026-05-01T05:51:07.457Z</time></trkpt><trkpt lat="43.5740717" lon="11.538644"><ele>136.0</ele><time>2026-05-01T05:51:08.457Z</time></trkpt><trkpt lat="43.5738808" lon="11.5388722"><ele>136.0</ele><time>2026-05-01T05:51:09.457Z</time></trkpt><trkpt lat="43.5736912" lon="11.5391105"><ele>135.5</ele><time>2026-05-01T05:51:10.457Z</time></trkpt><trkpt lat="43.5735029" lon="11.5393459"><ele>135.0</ele><time>2026-05-01T05:51:11.457Z</time></trkpt><trkpt lat="43.5733128" lon="11.5395724"><ele>135.0</ele><time>2026-05-01T05:51:12.457Z</time></trkpt><trkpt lat="43.5731321" lon="11.5398051"><ele>135.0</ele><time>2026-05-01T05:51:13.457Z</time></trkpt><trkpt lat="43.5729594" lon="11.5400399"><ele>135.0</ele><time>2026-05-01T05:51:14.457Z</time></trkpt><trkpt lat="43.5728068" lon="11.5402853"><ele>135.0</ele><time>2026-05-01T05:51:15.457Z</time></trkpt><trkpt lat="43.5726537" lon="11.5405308"><ele>135.0</ele><time>2026-05-01T05:51:16.457Z</time></trkpt><trkpt lat="43.5724992" lon="11.5407754"><ele>135.0</ele><time>2026-05-01T05:51:17.456Z</time></trkpt><trkpt lat="43.572337" lon="11.5410125"><ele>136.0</ele><time>2026-05-01T05:51:18.457Z</time></trkpt><trkpt lat="43.572162" lon="11.5412314"><ele>137.0</ele><time>2026-05-01T05:51:19.457Z</time></trkpt><trkpt lat="43.5719744" lon="11.5414377"><ele>137.0</ele><time>2026-05-01T05:51:20.456Z</time></trkpt><trkpt lat="43.5717799" lon="11.5416259"><ele>137.0</ele><time>2026-05-01T05:51:21.457Z</time></trkpt><trkpt lat="43.5715784" lon="11.5418096"><ele>137.0</ele><time>2026-05-01T05:51:22.457Z</time></trkpt><trkpt lat="43.571374" lon="11.541996"><ele>137.0</ele><time>2026-05-01T05:51:23.457Z</time></trkpt><trkpt lat="43.5711774" lon="11.5421868"><ele>137.5</ele><time>2026-05-01T05:51:24.457Z</time></trkpt><trkpt lat="43.5709928" lon="11.5423765"><ele>138.0</ele><time>2026-05-01T05:51:25.457Z</time></trkpt><trkpt lat="43.570817" lon="11.5425592"><ele>138.0</ele><time>2026-05-01T05:51:26.456Z</time></trkpt><trkpt lat="43.5706502" lon="11.5427293"><ele>138.0</ele><time>2026-05-01T05:51:27.457Z</time></trkpt><trkpt lat="43.5704858" lon="11.5428876"><ele>138.0</ele><time>2026-05-01T05:51:28.457Z</time></trkpt><trkpt lat="43.5703152" lon="11.5430237"><ele>137.33333333333334</ele><time>2026-05-01T05:51:29.457Z</time></trkpt><trkpt lat="43.5701286" lon="11.5431021"><ele>136.66666666666669</ele><time>2026-05-01T05:51:30.457Z</time></trkpt><trkpt lat="43.5699161" lon="11.5431328"><ele>136.0</ele><time>2026-05-01T05:51:31.457Z</time></trkpt><trkpt lat="43.5697028" lon="11.5430967"><ele>136.66666666666669</ele><time>2026-05-01T05:51:32.457Z</time></trkpt><trkpt lat="43.5694874" lon="11.5430211"><ele>137.33333333333334</ele><time>2026-05-01T05:51:33.457Z</time></trkpt><trkpt lat="43.5692731" lon="11.542966"><ele>138.0</ele><time>2026-05-01T05:51:34.457Z</time></trkpt><trkpt lat="43.5690464" lon="11.542961"><ele>138.0</ele><time>2026-05-01T05:51:35.457Z</time></trkpt><trkpt lat="43.5688173" lon="11.542977"><ele>138.0</ele><time>2026-05-01T05:51:36.457Z</time></trkpt><trkpt lat="43.5685952" lon="11.5430311"><ele>138.0</ele><time>2026-05-01T05:51:37.457Z</time></trkpt><trkpt lat="43.5683678" lon="11.5430919"><ele>138.0</ele><time>2026-05-01T05:51:38.457Z</time></trkpt><trkpt lat="43.5681315" lon="11.5431683"><ele>138.0</ele><time>2026-05-01T05:51:39.456Z</time></trkpt><trkpt lat="43.5678978" lon="11.5432313"><ele>138.0</ele><time>2026-05-01T05:51:40.457Z</time></trkpt><trkpt lat="43.5676509" lon="11.5432728"><ele>139.5</ele><time>2026-05-01T05:51:41.457Z</time></trkpt><trkpt lat="43.5674029" lon="11.543296"><ele>141.0</ele><time>2026-05-01T05:51:42.457Z</time></trkpt><trkpt lat="43.5671525" lon="11.5432976"><ele>143.0</ele><time>2026-05-01T05:51:43.457Z</time></trkpt><trkpt lat="43.5669019" lon="11.5432915"><ele>145.0</ele><time>2026-05-01T05:51:44.457Z</time></trkpt><trkpt lat="43.5666472" lon="11.5432634"><ele>145.0</ele><time>2026-05-01T05:51:45.457Z</time></trkpt><trkpt lat="43.5663942" lon="11.5432321"><ele>145.0</ele><time>2026-05-01T05:51:46.457Z</time></trkpt><trkpt lat="43.5661432" lon="11.5432038"><ele>144.0</ele><time>2026-05-01T05:51:47.456Z</time></trkpt><trkpt lat="43.5658916" lon="11.5431613"><ele>143.0</ele><time>2026-05-01T05:51:48.457Z</time></trkpt><trkpt lat="43.5656416" lon="11.5431305"><ele>143.0</ele><time>2026-05-01T05:51:49.457Z</time></trkpt><trkpt lat="43.5653982" lon="11.543101"><ele>143.0</ele><time>2026-05-01T05:51:50.457Z</time></trkpt><trkpt lat="43.5651575" lon="11.54308"><ele>140.5</ele><time>2026-05-01T05:51:51.457Z</time></trkpt><trkpt lat="43.5649241" lon="11.5430604"><ele>138.0</ele><time>2026-05-01T05:51:52.457Z</time></trkpt><trkpt lat="43.5647064" lon="11.5430379"><ele>137.66666666666666</ele><time>2026-05-01T05:51:53.457Z</time></trkpt><trkpt lat="43.5644985" lon="11.5430307"><ele>137.33333333333331</ele><time>2026-05-01T05:51:54.457Z</time></trkpt><trkpt lat="43.5643048" lon="11.5430208"><ele>137.0</ele><time>2026-05-01T05:51:55.457Z</time></trkpt><trkpt lat="43.5641114" lon="11.5430156"><ele>137.0</ele><time>2026-05-01T05:51:56.456Z</time></trkpt><trkpt lat="43.5639221" lon="11.5430168"><ele>137.0</ele><time>2026-05-01T05:51:57.457Z</time></trkpt><trkpt lat="43.5637375" lon="11.5430107"><ele>137.0</ele><time>2026-05-01T05:51:58.457Z</time></trkpt><trkpt lat="43.5635538" lon="11.5429945"><ele>137.0</ele><time>2026-05-01T05:51:59.457Z</time></trkpt><trkpt lat="43.5633682" lon="11.5429839"><ele>137.0</ele><time>2026-05-01T05:52:00.457Z</time></trkpt><trkpt lat="43.5631771" lon="11.5429798"><ele>137.0</ele><time>2026-05-01T05:52:01.456Z</time></trkpt><trkpt lat="43.5629783" lon="11.5429583"><ele>136.66666666666666</ele><time>2026-05-01T05:52:02.457Z</time></trkpt><trkpt lat="43.5627712" lon="11.5429137"><ele>136.33333333333334</ele><time>2026-05-01T05:52:03.457Z</time></trkpt><trkpt lat="43.5625613" lon="11.5428668"><ele>136.0</ele><time>2026-05-01T05:52:04.457Z</time></trkpt><trkpt lat="43.5623458" lon="11.542823"><ele>135.5</ele><time>2026-05-01T05:52:05.457Z</time></trkpt><trkpt lat="43.562125" lon="11.5427804"><ele>135.0</ele><time>2026-05-01T05:52:06.457Z</time></trkpt><trkpt lat="43.5618975" lon="11.5427484"><ele>135.0</ele><time>2026-05-01T05:52:07.457Z</time></trkpt><trkpt lat="43.5616715" lon="11.5427134"><ele>135.0</ele><time>2026-05-01T05:52:08.456Z</time></trkpt><trkpt lat="43.5614394" lon="11.542679"><ele>135.0</ele><time>2026-05-01T05:52:09.457Z</time></trkpt><trkpt lat="43.5612099" lon="11.5426552"><ele>135.0</ele><time>2026-05-01T05:52:10.457Z</time></trkpt><trkpt lat="43.5609816" lon="11.542632"><ele>134.5</ele><time>2026-05-01T05:52:11.457Z</time></trkpt><trkpt lat="43.5607502" lon="11.5426147"><ele>134.0</ele><time>2026-05-01T05:52:12.457Z</time></trkpt><trkpt lat="43.5605154" lon="11.5425977"><ele>134.5</ele><time>2026-05-01T05:52:13.456Z</time></trkpt><trkpt lat="43.5602766" lon="11.5425843"><ele>135.0</ele><time>2026-05-01T05:52:14.457Z</time></trkpt><trkpt lat="43.5600384" lon="11.5425687"><ele>135.0</ele><time>2026-05-01T05:52:15.456Z</time></trkpt><trkpt lat="43.5597999" lon="11.5425602"><ele>135.0</ele><time>2026-05-01T05:52:16.457Z</time></trkpt><trkpt lat="43.559558" lon="11.5425733"><ele>136.0</ele><time>2026-05-01T05:52:17.456Z</time></trkpt><trkpt lat="43.5593128" lon="11.5426054"><ele>137.0</ele><time>2026-05-01T05:52:18.456Z</time></trkpt><trkpt lat="43.5590643" lon="11.542668"><ele>137.0</ele><time>2026-05-01T05:52:19.456Z</time></trkpt><trkpt lat="43.5588299" lon="11.542772"><ele>137.0</ele><time>2026-05-01T05:52:20.456Z</time></trkpt><trkpt lat="43.5585921" lon="11.542912"><ele>137.0</ele><time>2026-05-01T05:52:21.457Z</time></trkpt><trkpt lat="43.5583698" lon="11.5430789"><ele>137.0</ele><time>2026-05-01T05:52:22.457Z</time></trkpt><trkpt lat="43.5581627" lon="11.5432726"><ele>137.0</ele><time>2026-05-01T05:52:23.457Z</time></trkpt><trkpt lat="43.5579678" lon="11.5434841"><ele>137.0</ele><time>2026-05-01T05:52:24.457Z</time></trkpt><trkpt lat="43.557786" lon="11.543715"><ele>138.5</ele><time>2026-05-01T05:52:25.457Z</time></trkpt><trkpt lat="43.5576045" lon="11.5439582"><ele>140.0</ele><time>2026-05-01T05:52:26.456Z</time></trkpt><trkpt lat="43.5574231" lon="11.5441943"><ele>140.0</ele><time>2026-05-01T05:52:27.457Z</time></trkpt><trkpt lat="43.5572406" lon="11.5444271"><ele>140.0</ele><time>2026-05-01T05:52:28.457Z</time></trkpt><trkpt lat="43.5570549" lon="11.5446634"><ele>140.5</ele><time>2026-05-01T05:52:29.456Z</time></trkpt><trkpt lat="43.5568751" lon="11.5449053"><ele>141.0</ele><time>2026-05-01T05:52:30.457Z</time></trkpt><trkpt lat="43.5566978" lon="11.5451519"><ele>143.5</ele><time>2026-05-01T05:52:31.457Z</time></trkpt><trkpt lat="43.5565209" lon="11.5454043"><ele>146.0</ele><time>2026-05-01T05:52:32.457Z</time></trkpt><trkpt lat="43.5563556" lon="11.5456717"><ele>144.5</ele><time>2026-05-01T05:52:33.457Z</time></trkpt><trkpt lat="43.556196" lon="11.5459479"><ele>143.0</ele><time>2026-05-01T05:52:34.457Z</time></trkpt><trkpt lat="43.5560406" lon="11.5462336"><ele>143.0</ele><time>2026-05-01T05:52:35.457Z</time></trkpt><trkpt lat="43.555877" lon="11.5465185"><ele>143.0</ele><time>2026-05-01T05:52:36.457Z</time></trkpt><trkpt lat="43.5557162" lon="11.5468035"><ele>143.0</ele><time>2026-05-01T05:52:37.456Z</time></trkpt><trkpt lat="43.5555576" lon="11.5470913"><ele>143.0</ele><time>2026-05-01T05:52:38.457Z</time></trkpt><trkpt lat="43.5554041" lon="11.5473709"><ele>140.0</ele><time>2026-05-01T05:52:39.457Z</time></trkpt><trkpt lat="43.5552489" lon="11.5476494"><ele>137.0</ele><time>2026-05-01T05:52:40.457Z</time></trkpt><trkpt lat="43.5550966" lon="11.5479231"><ele>137.0</ele><time>2026-05-01T05:52:41.457Z</time></trkpt><trkpt lat="43.5549477" lon="11.5481932"><ele>137.0</ele><time>2026-05-01T05:52:42.457Z</time></trkpt><trkpt lat="43.5547983" lon="11.5484614"><ele>137.5</ele><time>2026-05-01T05:52:43.456Z</time></trkpt><trkpt lat="43.5546473" lon="11.5487304"><ele>138.0</ele><time>2026-05-01T05:52:44.456Z</time></trkpt><trkpt lat="43.5544966" lon="11.5490034"><ele>137.0</ele><time>2026-05-01T05:52:45.457Z</time></trkpt><trkpt lat="43.5543463" lon="11.5492765"><ele>136.0</ele><time>2026-05-01T05:52:46.457Z</time></trkpt><trkpt lat="43.5541965" lon="11.5495503"><ele>136.0</ele><time>2026-05-01T05:52:47.457Z</time></trkpt><trkpt lat="43.554044" lon="11.5498186"><ele>136.0</ele><time>2026-05-01T05:52:48.457Z</time></trkpt><trkpt lat="43.5538928" lon="11.5500948"><ele>136.0</ele><time>2026-05-01T05:52:49.456Z</time></trkpt><trkpt lat="43.5537408" lon="11.5503673"><ele>136.0</ele><time>2026-05-01T05:52:50.457Z</time></trkpt><trkpt lat="43.5535899" lon="11.5506422"><ele>136.0</ele><time>2026-05-01T05:52:51.456Z</time></trkpt><trkpt lat="43.5534349" lon="11.5509055"><ele>136.0</ele><time>2026-05-01T05:52:52.457Z</time></trkpt><trkpt lat="43.5532736" lon="11.5511667"><ele>137.0</ele><time>2026-05-01T05:52:53.457Z</time></trkpt><trkpt lat="43.5531141" lon="11.5514249"><ele>138.0</ele><time>2026-05-01T05:52:54.457Z</time></trkpt><trkpt lat="43.5529526" lon="11.5516733"><ele>137.5</ele><time>2026-05-01T05:52:55.458Z</time></trkpt><trkpt lat="43.5527899" lon="11.5519166"><ele>137.0</ele><time>2026-05-01T05:52:56.458Z</time></trkpt><trkpt lat="43.5526281" lon="11.5521616"><ele>137.0</ele><time>2026-05-01T05:52:57.458Z</time></trkpt><trkpt lat="43.5524631" lon="11.5523944"><ele>137.0</ele><time>2026-05-01T05:52:58.458Z</time></trkpt><trkpt lat="43.5522999" lon="11.5526153"><ele>137.0</ele><time>2026-05-01T05:52:59.458Z</time></trkpt><trkpt lat="43.5521519" lon="11.5528106"><ele>137.0</ele><time>2026-05-01T05:53:00.458Z</time></trkpt><trkpt lat="43.5520351" lon="11.5529927"><ele>137.0</ele><time>2026-05-01T05:53:01.457Z</time></trkpt><trkpt lat="43.551927" lon="11.5531729"><ele>137.33333333333331</ele><time>2026-05-01T05:53:02.458Z</time></trkpt><trkpt lat="43.5518261" lon="11.5533649"><ele>137.66666666666666</ele><time>2026-05-01T05:53:03.458Z</time></trkpt><trkpt lat="43.5517238" lon="11.553566"><ele>138.0</ele><time>2026-05-01T05:53:04.458Z</time></trkpt><trkpt lat="43.5516278" lon="11.5537928"><ele>138.66666666666666</ele><time>2026-05-01T05:53:05.458Z</time></trkpt><trkpt lat="43.5515462" lon="11.5540385"><ele>139.33333333333331</ele><time>2026-05-01T05:53:06.458Z</time></trkpt><trkpt lat="43.5514724" lon="11.5542761"><ele>140.0</ele><time>2026-05-01T05:53:07.458Z</time></trkpt><trkpt lat="43.551413" lon="11.5544967"><ele>140.0</ele><time>2026-05-01T05:53:08.458Z</time></trkpt><trkpt lat="43.5513615" lon="11.5547193"><ele>140.0</ele><time>2026-05-01T05:53:09.457Z</time></trkpt><trkpt lat="43.5513097" lon="11.5549271"><ele>140.0</ele><time>2026-05-01T05:53:10.458Z</time></trkpt><trkpt lat="43.5512599" lon="11.5551149"><ele>140.0</ele><time>2026-05-01T05:53:11.458Z</time></trkpt><trkpt lat="43.5512173" lon="11.5552884"><ele>140.0</ele><time>2026-05-01T05:53:12.458Z</time></trkpt><trkpt lat="43.5511846" lon="11.5554297"><ele>140.0</ele><time>2026-05-01T05:53:13.458Z</time></trkpt><trkpt lat="43.551154" lon="11.5555392"><ele>140.0</ele><time>2026-05-01T05:53:14.458Z</time></trkpt><trkpt lat="43.5511272" lon="11.5556427"><ele>140.0</ele><time>2026-05-01T05:53:15.457Z</time></trkpt><trkpt lat="43.5511126" lon="11.5557365"><ele>139.0</ele><time>2026-05-01T05:53:17.458Z</time></trkpt><trkpt lat="43.5516673" lon="11.5556913"><ele>137.0</ele><time>2026-05-01T05:54:08.389Z</time></trkpt><trkpt lat="43.5498308" lon="11.5567899"><ele>145.0</ele><time>2026-05-01T05:54:26.451Z</time></trkpt><trkpt lat="43.552647" lon="11.5576873"><ele>137.0</ele><time>2026-05-01T05:54:43.861Z</time></trkpt><trkpt lat="43.5500875" lon="11.5560879"><ele>137.0</ele><time>2026-05-01T05:55:02.457Z</time></trkpt><trkpt lat="43.549829" lon="11.5567891"><ele>141.0</ele><time>2026-05-01T05:59:12.965Z</time></trkpt><trkpt lat="43.5519895" lon="11.5588956"><ele>137.0</ele><time>2026-05-01T05:59:21.671Z</time></trkpt><trkpt lat="43.5498279" lon="11.556788"><ele>139.0</ele><time>2026-05-01T05:59:30.373Z</time></trkpt><trkpt lat="43.5515" lon="11.5555429"><ele>137.0</ele><time>2026-05-01T06:00:30.994Z</time></trkpt><trkpt lat="43.5498279" lon="11.5567884"><ele>139.0</ele><time>2026-05-01T06:00:56.965Z</time></trkpt><trkpt lat="43.5515" lon="11.5555429"><ele>137.0</ele><time>2026-05-01T06:01:59.879Z</time></trkpt><trkpt lat="43.550055" lon="11.556092"><ele>137.0</ele><time>2026-05-01T06:02:17.459Z</time></trkpt><trkpt lat="43.5499581" lon="11.5561239"><ele>137.0</ele><time>2026-05-01T06:03:04.456Z</time></trkpt><trkpt lat="43.5498969" lon="11.5562705"><ele>137.0</ele><time>2026-05-01T06:03:06.457Z</time></trkpt><trkpt lat="43.5498601" lon="11.55635"><ele>137.0</ele><time>2026-05-01T06:03:07.456Z</time></trkpt><trkpt lat="43.5498266" lon="11.556438"><ele>137.0</ele><time>2026-05-01T06:03:08.457Z</time></trkpt><trkpt lat="43.5497909" lon="11.5565135"><ele>137.0</ele><time>2026-05-01T06:03:09.458Z</time></trkpt><trkpt lat="43.5497295" lon="11.5566326"><ele>137.0</ele><time>2026-05-01T06:03:11.457Z</time></trkpt><trkpt lat="43.5496834" lon="11.5567122"><ele>137.0</ele><time>2026-05-01T06:04:51.458Z</time></trkpt><trkpt lat="43.5496269" lon="11.5568245"><ele>137.0</ele><time>2026-05-01T06:04:53.458Z</time></trkpt><trkpt lat="43.5495731" lon="11.5569248"><ele>137.0</ele><time>2026-05-01T06:04:54.458Z</time></trkpt><trkpt lat="43.5494765" lon="11.5571519"><ele>137.16666666666666</ele><time>2026-05-01T06:04:56.458Z</time></trkpt><trkpt lat="43.5494564" lon="11.5572702"><ele>137.33333333333331</ele><time>2026-05-01T06:04:57.458Z</time></trkpt><trkpt lat="43.5494701" lon="11.5573887"><ele>137.5</ele><time>2026-05-01T06:04:58.458Z</time></trkpt><trkpt lat="43.5494909" lon="11.5575097"><ele>137.66666666666666</ele><time>2026-05-01T06:04:59.458Z</time></trkpt><trkpt lat="43.5495092" lon="11.557635"><ele>137.83333333333334</ele><time>2026-05-01T06:05:00.458Z</time></trkpt><trkpt lat="43.5495086" lon="11.5577535"><ele>138.0</ele><time>2026-05-01T06:05:01.458Z</time></trkpt><trkpt lat="43.5494886" lon="11.5578668"><ele>138.20000000000002</ele><time>2026-05-01T06:05:02.457Z</time></trkpt><trkpt lat="43.5494542" lon="11.557975"><ele>138.4</ele><time>2026-05-01T06:05:03.457Z</time></trkpt><trkpt lat="43.5493914" lon="11.5580911"><ele>138.60000000000002</ele><time>2026-05-01T06:05:04.457Z</time></trkpt><trkpt lat="43.54932" lon="11.5581905"><ele>138.8</ele><time>2026-05-01T06:05:05.457Z</time></trkpt><trkpt lat="43.5492339" lon="11.5582788"><ele>139.0</ele><time>2026-05-01T06:05:06.458Z</time></trkpt><trkpt lat="43.5491337" lon="11.5583401"><ele>139.0</ele><time>2026-05-01T06:05:07.457Z</time></trkpt><trkpt lat="43.5490346" lon="11.5583716"><ele>139.0</ele><time>2026-05-01T06:05:08.458Z</time></trkpt><trkpt lat="43.5489259" lon="11.5583824"><ele>139.0</ele><time>2026-05-01T06:05:09.458Z</time></trkpt><trkpt lat="43.5488232" lon="11.5583971"><ele>139.0</ele><time>2026-05-01T06:05:10.457Z</time></trkpt><trkpt lat="43.5487228" lon="11.5584172"><ele>139.0</ele><time>2026-05-01T06:05:11.457Z</time></trkpt><trkpt lat="43.5486118" lon="11.5584391"><ele>139.5</ele><time>2026-05-01T06:05:12.458Z</time></trkpt><trkpt lat="43.548488" lon="11.558454"><ele>140.0</ele><time>2026-05-01T06:05:13.458Z</time></trkpt><trkpt lat="43.5483588" lon="11.5584667"><ele>140.5</ele><time>2026-05-01T06:05:14.458Z</time></trkpt><trkpt lat="43.5482175" lon="11.5584759"><ele>141.0</ele><time>2026-05-01T06:05:15.458Z</time></trkpt><trkpt lat="43.5480724" lon="11.5584911"><ele>141.0</ele><time>2026-05-01T06:05:16.458Z</time></trkpt><trkpt lat="43.5479234" lon="11.5585052"><ele>141.0</ele><time>2026-05-01T06:05:17.458Z</time></trkpt><trkpt lat="43.5477727" lon="11.5585238"><ele>141.0</ele><time>2026-05-01T06:05:18.458Z</time></trkpt><trkpt lat="43.5476243" lon="11.5585604"><ele>140.33333333333334</ele><time>2026-05-01T06:05:19.458Z</time></trkpt><trkpt lat="43.5474994" lon="11.558666"><ele>139.66666666666669</ele><time>2026-05-01T06:05:20.457Z</time></trkpt><trkpt lat="43.5474008" lon="11.5588319"><ele>139.0</ele><time>2026-05-01T06:05:21.458Z</time></trkpt><trkpt lat="43.5472952" lon="11.5590343"><ele>139.0</ele><time>2026-05-01T06:05:22.457Z</time></trkpt><trkpt lat="43.5471739" lon="11.559245"><ele>139.0</ele><time>2026-05-01T06:05:23.458Z</time></trkpt><trkpt lat="43.5470546" lon="11.5594677"><ele>139.0</ele><time>2026-05-01T06:05:24.458Z</time></trkpt><trkpt lat="43.5469193" lon="11.5597002"><ele>138.5</ele><time>2026-05-01T06:05:25.458Z</time></trkpt><trkpt lat="43.5467739" lon="11.5599445"><ele>138.0</ele><time>2026-05-01T06:05:26.457Z</time></trkpt><trkpt lat="43.5466075" lon="11.5601947"><ele>138.0</ele><time>2026-05-01T06:05:27.458Z</time></trkpt><trkpt lat="43.5464453" lon="11.5604561"><ele>138.0</ele><time>2026-05-01T06:05:28.457Z</time></trkpt><trkpt lat="43.5462798" lon="11.5607153"><ele>137.5</ele><time>2026-05-01T06:05:29.458Z</time></trkpt><trkpt lat="43.5461131" lon="11.5609837"><ele>137.0</ele><time>2026-05-01T06:05:30.458Z</time></trkpt><trkpt lat="43.545937" lon="11.5612525"><ele>137.0</ele><time>2026-05-01T06:05:31.458Z</time></trkpt><trkpt lat="43.5457509" lon="11.5615336"><ele>137.0</ele><time>2026-05-01T06:05:32.457Z</time></trkpt><trkpt lat="43.5455593" lon="11.5618169"><ele>138.0</ele><time>2026-05-01T06:05:33.458Z</time></trkpt><trkpt lat="43.5453677" lon="11.5621042"><ele>139.0</ele><time>2026-05-01T06:05:34.458Z</time></trkpt><trkpt lat="43.5451805" lon="11.5624045"><ele>139.0</ele><time>2026-05-01T06:05:35.458Z</time></trkpt><trkpt lat="43.5449848" lon="11.5626935"><ele>139.0</ele><time>2026-05-01T06:05:36.457Z</time></trkpt><trkpt lat="43.5447888" lon="11.5629807"><ele>139.0</ele><time>2026-05-01T06:05:37.457Z</time></trkpt><trkpt lat="43.544588" lon="11.5632616"><ele>139.0</ele><time>2026-05-01T06:05:38.458Z</time></trkpt><trkpt lat="43.5443872" lon="11.5635478"><ele>139.5</ele><time>2026-05-01T06:05:39.457Z</time></trkpt><trkpt lat="43.5441908" lon="11.5638345"><ele>140.0</ele><time>2026-05-01T06:05:40.457Z</time></trkpt><trkpt lat="43.5439898" lon="11.5641272"><ele>140.0</ele><time>2026-05-01T06:05:41.457Z</time></trkpt><trkpt lat="43.5437953" lon="11.5644272"><ele>140.0</ele><time>2026-05-01T06:05:42.458Z</time></trkpt><trkpt lat="43.5435962" lon="11.5647291"><ele>139.0</ele><time>2026-05-01T06:05:43.458Z</time></trkpt><trkpt lat="43.5433985" lon="11.5650249"><ele>138.0</ele><time>2026-05-01T06:05:44.458Z</time></trkpt><trkpt lat="43.5431927" lon="11.5653194"><ele>137.5</ele><time>2026-05-01T06:05:45.457Z</time></trkpt><trkpt lat="43.5429889" lon="11.5656154"><ele>137.0</ele><time>2026-05-01T06:05:46.458Z</time></trkpt><trkpt lat="43.5427848" lon="11.5659167"><ele>137.5</ele><time>2026-05-01T06:05:47.458Z</time></trkpt><trkpt lat="43.5425808" lon="11.5662158"><ele>138.0</ele><time>2026-05-01T06:05:48.458Z</time></trkpt><trkpt lat="43.5423734" lon="11.5665148"><ele>138.0</ele><time>2026-05-01T06:05:49.458Z</time></trkpt><trkpt lat="43.5421716" lon="11.5668152"><ele>138.0</ele><time>2026-05-01T06:05:50.458Z</time></trkpt><trkpt lat="43.5419687" lon="11.5671079"><ele>139.5</ele><time>2026-05-01T06:05:51.458Z</time></trkpt><trkpt lat="43.5417616" lon="11.567398"><ele>141.0</ele><time>2026-05-01T06:05:52.458Z</time></trkpt><trkpt lat="43.5415571" lon="11.5676928"><ele>140.5</ele><time>2026-05-01T06:05:53.458Z</time></trkpt><trkpt lat="43.5413479" lon="11.5679811"><ele>140.0</ele><time>2026-05-01T06:05:54.458Z</time></trkpt><trkpt lat="43.5411489" lon="11.5682765"><ele>140.5</ele><time>2026-05-01T06:05:55.457Z</time></trkpt><trkpt lat="43.5409504" lon="11.5685681"><ele>141.0</ele><time>2026-05-01T06:05:56.458Z</time></trkpt><trkpt lat="43.5407499" lon="11.5688634"><ele>141.0</ele><time>2026-05-01T06:05:57.458Z</time></trkpt><trkpt lat="43.5405506" lon="11.5691576"><ele>141.0</ele><time>2026-05-01T06:05:58.458Z</time></trkpt><trkpt lat="43.5403433" lon="11.5694482"><ele>140.5</ele><time>2026-05-01T06:05:59.458Z</time></trkpt><trkpt lat="43.5401407" lon="11.5697408"><ele>140.0</ele><time>2026-05-01T06:06:00.458Z</time></trkpt><trkpt lat="43.5399385" lon="11.5700382"><ele>140.0</ele><time>2026-05-01T06:06:01.458Z</time></trkpt><trkpt lat="43.5397368" lon="11.5703392"><ele>140.0</ele><time>2026-05-01T06:06:02.457Z</time></trkpt><trkpt lat="43.5395383" lon="11.5706416"><ele>139.5</ele><time>2026-05-01T06:06:03.457Z</time></trkpt><trkpt lat="43.5393377" lon="11.5709494"><ele>139.0</ele><time>2026-05-01T06:06:04.458Z</time></trkpt><trkpt lat="43.5391406" lon="11.5712575"><ele>139.0</ele><time>2026-05-01T06:06:05.458Z</time></trkpt><trkpt lat="43.5389435" lon="11.5715723"><ele>139.0</ele><time>2026-05-01T06:06:06.458Z</time></trkpt><trkpt lat="43.5387511" lon="11.5718848"><ele>140.5</ele><time>2026-05-01T06:06:07.458Z</time></trkpt><trkpt lat="43.5385569" lon="11.5721985"><ele>142.0</ele><time>2026-05-01T06:06:08.458Z</time></trkpt><trkpt lat="43.5383639" lon="11.5725174"><ele>142.0</ele><time>2026-05-01T06:06:09.458Z</time></trkpt><trkpt lat="43.538175" lon="11.5728441"><ele>142.0</ele><time>2026-05-01T06:06:10.458Z</time></trkpt><trkpt lat="43.5379891" lon="11.5731746"><ele>141.5</ele><time>2026-05-01T06:06:11.458Z</time></trkpt><trkpt lat="43.537809" lon="11.5735095"><ele>141.0</ele><time>2026-05-01T06:06:12.458Z</time></trkpt><trkpt lat="43.5376255" lon="11.5738403"><ele>142.0</ele><time>2026-05-01T06:06:13.458Z</time></trkpt><trkpt lat="43.5374427" lon="11.5741643"><ele>143.0</ele><time>2026-05-01T06:06:14.458Z</time></trkpt><trkpt lat="43.5372559" lon="11.5744932"><ele>143.0</ele><time>2026-05-01T06:06:15.458Z</time></trkpt><trkpt lat="43.5370729" lon="11.5748234"><ele>143.0</ele><time>2026-05-01T06:06:16.458Z</time></trkpt><trkpt lat="43.5368875" lon="11.575154"><ele>142.0</ele><time>2026-05-01T06:06:17.458Z</time></trkpt><trkpt lat="43.5367007" lon="11.5754857"><ele>141.0</ele><time>2026-05-01T06:06:18.457Z</time></trkpt><trkpt lat="43.5365109" lon="11.5758191"><ele>141.0</ele><time>2026-05-01T06:06:19.458Z</time></trkpt><trkpt lat="43.5363194" lon="11.5761534"><ele>141.0</ele><time>2026-05-01T06:06:20.457Z</time></trkpt><trkpt lat="43.5361312" lon="11.5764955"><ele>141.0</ele><time>2026-05-01T06:06:21.458Z</time></trkpt><trkpt lat="43.5359455" lon="11.5768437"><ele>141.0</ele><time>2026-05-01T06:06:22.458Z</time></trkpt><trkpt lat="43.5357572" lon="11.577183"><ele>141.0</ele><time>2026-05-01T06:06:23.458Z</time></trkpt><trkpt lat="43.5355699" lon="11.5775155"><ele>141.0</ele><time>2026-05-01T06:06:24.458Z</time></trkpt><trkpt lat="43.5353815" lon="11.5778544"><ele>140.5</ele><time>2026-05-01T06:06:25.458Z</time></trkpt><trkpt lat="43.5351978" lon="11.5781975"><ele>140.0</ele><time>2026-05-01T06:06:26.457Z</time></trkpt><trkpt lat="43.5350086" lon="11.5785324"><ele>140.5</ele><time>2026-05-01T06:06:27.458Z</time></trkpt><trkpt lat="43.5348229" lon="11.578861"><ele>141.0</ele><time>2026-05-01T06:06:28.458Z</time></trkpt><trkpt lat="43.5346369" lon="11.5792013"><ele>142.5</ele><time>2026-05-01T06:06:29.458Z</time></trkpt><trkpt lat="43.5344505" lon="11.5795446"><ele>144.0</ele><time>2026-05-01T06:06:30.457Z</time></trkpt><trkpt lat="43.5342651" lon="11.579883"><ele>144.0</ele><time>2026-05-01T06:06:31.458Z</time></trkpt><trkpt lat="43.5340782" lon="11.5802209"><ele>144.0</ele><time>2026-05-01T06:06:32.457Z</time></trkpt><trkpt lat="43.533891" lon="11.5805547"><ele>142.5</ele><time>2026-05-01T06:06:33.458Z</time></trkpt><trkpt lat="43.5337054" lon="11.5808927"><ele>141.0</ele><time>2026-05-01T06:06:34.458Z</time></trkpt><trkpt lat="43.5335199" lon="11.5812216"><ele>141.0</ele><time>2026-05-01T06:06:35.458Z</time></trkpt><trkpt lat="43.5333316" lon="11.5815461"><ele>141.0</ele><time>2026-05-01T06:06:36.457Z</time></trkpt><trkpt lat="43.5331512" lon="11.5818807"><ele>141.0</ele><time>2026-05-01T06:06:37.457Z</time></trkpt><trkpt lat="43.5329778" lon="11.582219"><ele>141.0</ele><time>2026-05-01T06:06:38.458Z</time></trkpt><trkpt lat="43.5327963" lon="11.5825519"><ele>142.0</ele><time>2026-05-01T06:06:39.458Z</time></trkpt><trkpt lat="43.532609" lon="11.5828902"><ele>143.0</ele><time>2026-05-01T06:06:40.457Z</time></trkpt><trkpt lat="43.5324231" lon="11.5832319"><ele>143.0</ele><time>2026-05-01T06:06:41.458Z</time></trkpt><trkpt lat="43.5322262" lon="11.5835731"><ele>143.0</ele><time>2026-05-01T06:06:42.458Z</time></trkpt><trkpt lat="43.532032" lon="11.5839219"><ele>143.5</ele><time>2026-05-01T06:06:43.458Z</time></trkpt><trkpt lat="43.5318355" lon="11.5842716"><ele>144.0</ele><time>2026-05-01T06:06:44.458Z</time></trkpt><trkpt lat="43.5316396" lon="11.5846211"><ele>144.0</ele><time>2026-05-01T06:06:45.458Z</time></trkpt><trkpt lat="43.5314399" lon="11.5849787"><ele>144.0</ele><time>2026-05-01T06:06:46.458Z</time></trkpt><trkpt lat="43.5312434" lon="11.585335"><ele>143.5</ele><time>2026-05-01T06:06:47.458Z</time></trkpt><trkpt lat="43.5310488" lon="11.5856869"><ele>143.0</ele><time>2026-05-01T06:06:48.457Z</time></trkpt><trkpt lat="43.5308562" lon="11.5860432"><ele>143.0</ele><time>2026-05-01T06:06:49.458Z</time></trkpt><trkpt lat="43.5306603" lon="11.5864044"><ele>143.0</ele><time>2026-05-01T06:06:50.458Z</time></trkpt><trkpt lat="43.5304641" lon="11.5867546"><ele>144.0</ele><time>2026-05-01T06:06:51.457Z</time></trkpt><trkpt lat="43.5302677" lon="11.5871009"><ele>145.0</ele><time>2026-05-01T06:06:52.457Z</time></trkpt><trkpt lat="43.5300683" lon="11.5874527"><ele>145.0</ele><time>2026-05-01T06:06:53.458Z</time></trkpt><trkpt lat="43.5298726" lon="11.5878008"><ele>145.0</ele><time>2026-05-01T06:06:54.458Z</time></trkpt><trkpt lat="43.5296796" lon="11.5881468"><ele>145.5</ele><time>2026-05-01T06:06:55.458Z</time></trkpt><trkpt lat="43.5294866" lon="11.5884961"><ele>146.0</ele><time>2026-05-01T06:06:56.458Z</time></trkpt><trkpt lat="43.5292949" lon="11.5888351"><ele>146.0</ele><time>2026-05-01T06:06:57.458Z</time></trkpt><trkpt lat="43.5291035" lon="11.5891759"><ele>146.0</ele><time>2026-05-01T06:06:58.457Z</time></trkpt><trkpt lat="43.5289125" lon="11.5895138"><ele>143.5</ele><time>2026-05-01T06:06:59.458Z</time></trkpt><trkpt lat="43.5287226" lon="11.5898497"><ele>141.0</ele><time>2026-05-01T06:07:00.458Z</time></trkpt><trkpt lat="43.5285391" lon="11.5901894"><ele>142.0</ele><time>2026-05-01T06:07:01.458Z</time></trkpt><trkpt lat="43.5283508" lon="11.5905284"><ele>143.0</ele><time>2026-05-01T06:07:02.457Z</time></trkpt><trkpt lat="43.5281596" lon="11.5908683"><ele>143.5</ele><time>2026-05-01T06:07:03.458Z</time></trkpt><trkpt lat="43.5279659" lon="11.5912077"><ele>144.0</ele><time>2026-05-01T06:07:04.458Z</time></trkpt><trkpt lat="43.5277778" lon="11.591547"><ele>144.0</ele><time>2026-05-01T06:07:05.458Z</time></trkpt><trkpt lat="43.5275901" lon="11.591893"><ele>144.0</ele><time>2026-05-01T06:07:06.457Z</time></trkpt><trkpt lat="43.5274037" lon="11.5922314"><ele>144.5</ele><time>2026-05-01T06:07:07.458Z</time></trkpt><trkpt lat="43.5272136" lon="11.5925616"><ele>145.0</ele><time>2026-05-01T06:07:08.458Z</time></trkpt><trkpt lat="43.527027" lon="11.5928976"><ele>145.0</ele><time>2026-05-01T06:07:09.457Z</time></trkpt><trkpt lat="43.5268393" lon="11.5932373"><ele>145.0</ele><time>2026-05-01T06:07:10.458Z</time></trkpt><trkpt lat="43.5266484" lon="11.5935791"><ele>145.5</ele><time>2026-05-01T06:07:11.457Z</time></trkpt><trkpt lat="43.5264608" lon="11.5939253"><ele>146.0</ele><time>2026-05-01T06:07:12.458Z</time></trkpt><trkpt lat="43.5262751" lon="11.5942635"><ele>145.5</ele><time>2026-05-01T06:07:13.458Z</time></trkpt><trkpt lat="43.526083" lon="11.5946069"><ele>145.0</ele><time>2026-05-01T06:07:14.457Z</time></trkpt><trkpt lat="43.5258911" lon="11.594953"><ele>145.0</ele><time>2026-05-01T06:07:15.458Z</time></trkpt><trkpt lat="43.5256966" lon="11.5953082"><ele>145.0</ele><time>2026-05-01T06:07:16.458Z</time></trkpt><trkpt lat="43.5254978" lon="11.595658"><ele>145.0</ele><time>2026-05-01T06:07:17.458Z</time></trkpt><trkpt lat="43.525296" lon="11.5960183"><ele>145.0</ele><time>2026-05-01T06:07:18.457Z</time></trkpt><trkpt lat="43.5250987" lon="11.5963785"><ele>145.0</ele><time>2026-05-01T06:07:19.458Z</time></trkpt><trkpt lat="43.5249028" lon="11.5967375"><ele>145.0</ele><time>2026-05-01T06:07:20.458Z</time></trkpt><trkpt lat="43.5247044" lon="11.5970881"><ele>144.0</ele><time>2026-05-01T06:07:21.458Z</time></trkpt><trkpt lat="43.5245012" lon="11.5974432"><ele>143.0</ele><time>2026-05-01T06:07:22.458Z</time></trkpt><trkpt lat="43.5243035" lon="11.597799"><ele>145.0</ele><time>2026-05-01T06:07:23.458Z</time></trkpt><trkpt lat="43.5241023" lon="11.598157"><ele>147.0</ele><time>2026-05-01T06:07:24.458Z</time></trkpt><trkpt lat="43.5238989" lon="11.5985113"><ele>145.5</ele><time>2026-05-01T06:07:25.457Z</time></trkpt><trkpt lat="43.5236963" lon="11.5988686"><ele>144.0</ele><time>2026-05-01T06:07:26.458Z</time></trkpt><trkpt lat="43.5234911" lon="11.5992191"><ele>145.5</ele><time>2026-05-01T06:07:27.458Z</time></trkpt><trkpt lat="43.5232817" lon="11.5995689"><ele>147.0</ele><time>2026-05-01T06:07:28.458Z</time></trkpt><trkpt lat="43.5230772" lon="11.5999194"><ele>146.0</ele><time>2026-05-01T06:07:29.458Z</time></trkpt><trkpt lat="43.5228718" lon="11.6002668"><ele>145.0</ele><time>2026-05-01T06:07:30.458Z</time></trkpt><trkpt lat="43.5226699" lon="11.600611"><ele>145.0</ele><time>2026-05-01T06:07:31.458Z</time></trkpt><trkpt lat="43.5224654" lon="11.6009534"><ele>145.0</ele><time>2026-05-01T06:07:32.458Z</time></trkpt><trkpt lat="43.5222621" lon="11.6012934"><ele>144.0</ele><time>2026-05-01T06:07:33.458Z</time></trkpt><trkpt lat="43.522063" lon="11.6016315"><ele>143.0</ele><time>2026-05-01T06:07:34.458Z</time></trkpt><trkpt lat="43.5218588" lon="11.6019691"><ele>144.0</ele><time>2026-05-01T06:07:35.457Z</time></trkpt><trkpt lat="43.521656" lon="11.6023056"><ele>145.0</ele><time>2026-05-01T06:07:36.458Z</time></trkpt><trkpt lat="43.5214547" lon="11.6026376"><ele>146.0</ele><time>2026-05-01T06:07:37.457Z</time></trkpt><trkpt lat="43.5212548" lon="11.6029698"><ele>147.0</ele><time>2026-05-01T06:07:38.458Z</time></trkpt><trkpt lat="43.5210534" lon="11.6033004"><ele>147.5</ele><time>2026-05-01T06:07:39.458Z</time></trkpt><trkpt lat="43.5208509" lon="11.6036311"><ele>148.0</ele><time>2026-05-01T06:07:40.458Z</time></trkpt><trkpt lat="43.5206541" lon="11.6039616"><ele>148.0</ele><time>2026-05-01T06:07:41.458Z</time></trkpt><trkpt lat="43.5204583" lon="11.6042909"><ele>148.0</ele><time>2026-05-01T06:07:42.458Z</time></trkpt><trkpt lat="43.5202693" lon="11.6046046"><ele>147.5</ele><time>2026-05-01T06:07:43.458Z</time></trkpt><trkpt lat="43.5200765" lon="11.6049288"><ele>147.0</ele><time>2026-05-01T06:07:44.457Z</time></trkpt><trkpt lat="43.5198867" lon="11.6052468"><ele>147.0</ele><time>2026-05-01T06:07:45.458Z</time></trkpt><trkpt lat="43.5196989" lon="11.6055732"><ele>147.0</ele><time>2026-05-01T06:07:46.458Z</time></trkpt><trkpt lat="43.5195132" lon="11.6058907"><ele>148.0</ele><time>2026-05-01T06:07:47.457Z</time></trkpt><trkpt lat="43.5193232" lon="11.6062078"><ele>149.0</ele><time>2026-05-01T06:07:48.458Z</time></trkpt><trkpt lat="43.5191333" lon="11.6065226"><ele>149.0</ele><time>2026-05-01T06:07:49.458Z</time></trkpt><trkpt lat="43.5189398" lon="11.6068391"><ele>149.0</ele><time>2026-05-01T06:07:50.458Z</time></trkpt><trkpt lat="43.5187506" lon="11.6071529"><ele>148.0</ele><time>2026-05-01T06:07:51.458Z</time></trkpt><trkpt lat="43.5185647" lon="11.6074699"><ele>147.0</ele><time>2026-05-01T06:07:52.457Z</time></trkpt><trkpt lat="43.5183799" lon="11.6077849"><ele>148.5</ele><time>2026-05-01T06:07:53.458Z</time></trkpt><trkpt lat="43.5181925" lon="11.6080946"><ele>150.0</ele><time>2026-05-01T06:07:54.457Z</time></trkpt><trkpt lat="43.5180048" lon="11.6084052"><ele>150.5</ele><time>2026-05-01T06:07:55.457Z</time></trkpt><trkpt lat="43.5178166" lon="11.6087166"><ele>151.0</ele><time>2026-05-01T06:07:56.458Z</time></trkpt><trkpt lat="43.5176288" lon="11.6090298"><ele>151.0</ele><time>2026-05-01T06:07:57.458Z</time></trkpt><trkpt lat="43.5174428" lon="11.6093389"><ele>151.0</ele><time>2026-05-01T06:07:58.458Z</time></trkpt><trkpt lat="43.517254" lon="11.6096612"><ele>148.0</ele><time>2026-05-01T06:07:59.458Z</time></trkpt><trkpt lat="43.5170668" lon="11.6099849"><ele>145.0</ele><time>2026-05-01T06:08:00.458Z</time></trkpt><trkpt lat="43.516881" lon="11.6103119"><ele>148.0</ele><time>2026-05-01T06:08:01.458Z</time></trkpt><trkpt lat="43.5167046" lon="11.6106471"><ele>151.0</ele><time>2026-05-01T06:08:02.458Z</time></trkpt><trkpt lat="43.5165361" lon="11.6109901"><ele>152.0</ele><time>2026-05-01T06:08:03.457Z</time></trkpt><trkpt lat="43.5163717" lon="11.6113452"><ele>153.0</ele><time>2026-05-01T06:08:04.458Z</time></trkpt><trkpt lat="43.5162161" lon="11.6117051"><ele>150.5</ele><time>2026-05-01T06:08:05.457Z</time></trkpt><trkpt lat="43.5160708" lon="11.6120688"><ele>148.0</ele><time>2026-05-01T06:08:06.458Z</time></trkpt><trkpt lat="43.5159292" lon="11.6124407"><ele>148.0</ele><time>2026-05-01T06:08:07.458Z</time></trkpt><trkpt lat="43.5157912" lon="11.6128139"><ele>148.0</ele><time>2026-05-01T06:08:08.458Z</time></trkpt><trkpt lat="43.5156592" lon="11.6131948"><ele>149.0</ele><time>2026-05-01T06:08:09.457Z</time></trkpt><trkpt lat="43.5155353" lon="11.6135661"><ele>150.0</ele><time>2026-05-01T06:08:10.458Z</time></trkpt><trkpt lat="43.5154246" lon="11.6139444"><ele>148.5</ele><time>2026-05-01T06:08:11.458Z</time></trkpt><trkpt lat="43.5153192" lon="11.6143238"><ele>147.0</ele><time>2026-05-01T06:08:12.457Z</time></trkpt><trkpt lat="43.5152199" lon="11.614708"><ele>147.0</ele><time>2026-05-01T06:08:13.458Z</time></trkpt><trkpt lat="43.5151279" lon="11.6150924"><ele>147.0</ele><time>2026-05-01T06:08:14.457Z</time></trkpt><trkpt lat="43.5150453" lon="11.6154786"><ele>147.0</ele><time>2026-05-01T06:08:15.457Z</time></trkpt><trkpt lat="43.5149726" lon="11.6158749"><ele>147.0</ele><time>2026-05-01T06:08:16.458Z</time></trkpt><trkpt lat="43.5148972" lon="11.6162649"><ele>148.5</ele><time>2026-05-01T06:08:17.458Z</time></trkpt><trkpt lat="43.5148343" lon="11.6166639"><ele>150.0</ele><time>2026-05-01T06:08:18.458Z</time></trkpt><trkpt lat="43.5147761" lon="11.6170647"><ele>152.0</ele><time>2026-05-01T06:08:19.458Z</time></trkpt><trkpt lat="43.5147237" lon="11.6174651"><ele>154.0</ele><time>2026-05-01T06:08:20.458Z</time></trkpt><trkpt lat="43.5146847" lon="11.6178689"><ele>154.0</ele><time>2026-05-01T06:08:21.458Z</time></trkpt><trkpt lat="43.5146537" lon="11.6182774"><ele>154.0</ele><time>2026-05-01T06:08:22.458Z</time></trkpt><trkpt lat="43.5146227" lon="11.6186814"><ele>154.0</ele><time>2026-05-01T06:08:23.458Z</time></trkpt><trkpt lat="43.514602" lon="11.6190862"><ele>154.0</ele><time>2026-05-01T06:08:24.457Z</time></trkpt><trkpt lat="43.514587" lon="11.6194911"><ele>154.0</ele><time>2026-05-01T06:08:25.458Z</time></trkpt><trkpt lat="43.5145752" lon="11.6198957"><ele>154.0</ele><time>2026-05-01T06:08:26.458Z</time></trkpt><trkpt lat="43.5145584" lon="11.6202976"><ele>150.0</ele><time>2026-05-01T06:08:27.458Z</time></trkpt><trkpt lat="43.5145376" lon="11.6206988"><ele>146.0</ele><time>2026-05-01T06:08:28.458Z</time></trkpt><trkpt lat="43.5145255" lon="11.6211055"><ele>145.5</ele><time>2026-05-01T06:08:29.458Z</time></trkpt><trkpt lat="43.5145102" lon="11.6215052"><ele>145.0</ele><time>2026-05-01T06:08:30.458Z</time></trkpt><trkpt lat="43.5144937" lon="11.621903"><ele>145.0</ele><time>2026-05-01T06:08:31.457Z</time></trkpt><trkpt lat="43.5144731" lon="11.622307"><ele>145.0</ele><time>2026-05-01T06:08:32.457Z</time></trkpt><trkpt lat="43.5144493" lon="11.6227147"><ele>145.5</ele><time>2026-05-01T06:08:33.457Z</time></trkpt><trkpt lat="43.5144319" lon="11.6231274"><ele>146.0</ele><time>2026-05-01T06:08:34.457Z</time></trkpt><trkpt lat="43.5144188" lon="11.6235374"><ele>145.5</ele><time>2026-05-01T06:08:35.458Z</time></trkpt><trkpt lat="43.514403" lon="11.6239454"><ele>145.0</ele><time>2026-05-01T06:08:36.458Z</time></trkpt><trkpt lat="43.5143884" lon="11.6243522"><ele>145.5</ele><time>2026-05-01T06:08:37.458Z</time></trkpt><trkpt lat="43.5143765" lon="11.6247561"><ele>146.0</ele><time>2026-05-01T06:08:38.458Z</time></trkpt><trkpt lat="43.5143655" lon="11.6251472"><ele>146.0</ele><time>2026-05-01T06:08:39.458Z</time></trkpt><trkpt lat="43.5143516" lon="11.6255481"><ele>146.0</ele><time>2026-05-01T06:08:40.458Z</time></trkpt><trkpt lat="43.5143388" lon="11.6259494"><ele>148.5</ele><time>2026-05-01T06:08:41.458Z</time></trkpt><trkpt lat="43.5143233" lon="11.6263517"><ele>151.0</ele><time>2026-05-01T06:08:42.458Z</time></trkpt><trkpt lat="43.5143052" lon="11.6267552"><ele>155.5</ele><time>2026-05-01T06:08:43.458Z</time></trkpt><trkpt lat="43.5142849" lon="11.6271577"><ele>160.0</ele><time>2026-05-01T06:08:44.458Z</time></trkpt><trkpt lat="43.5142655" lon="11.6275556"><ele>164.0</ele><time>2026-05-01T06:08:45.458Z</time></trkpt><trkpt lat="43.5142522" lon="11.6279533"><ele>168.0</ele><time>2026-05-01T06:08:46.458Z</time></trkpt><trkpt lat="43.514263" lon="11.6283543"><ele>171.5</ele><time>2026-05-01T06:08:47.458Z</time></trkpt><trkpt lat="43.5143" lon="11.6287425"><ele>175.0</ele><time>2026-05-01T06:08:48.458Z</time></trkpt><trkpt lat="43.5143616" lon="11.6291356"><ele>176.5</ele><time>2026-05-01T06:08:49.457Z</time></trkpt><trkpt lat="43.51444" lon="11.6295107"><ele>178.0</ele><time>2026-05-01T06:08:50.458Z</time></trkpt><trkpt lat="43.5145361" lon="11.6298946"><ele>184.5</ele><time>2026-05-01T06:08:51.458Z</time></trkpt><trkpt lat="43.5146411" lon="11.630278"><ele>191.0</ele><time>2026-05-01T06:08:52.457Z</time></trkpt><trkpt lat="43.5147489" lon="11.6306625"><ele>191.0</ele><time>2026-05-01T06:08:53.457Z</time></trkpt><trkpt lat="43.5148491" lon="11.6310492"><ele>191.0</ele><time>2026-05-01T06:08:54.458Z</time></trkpt><trkpt lat="43.514941" lon="11.6314405"><ele>187.5</ele><time>2026-05-01T06:08:55.458Z</time></trkpt><trkpt lat="43.5150159" lon="11.631841"><ele>184.0</ele><time>2026-05-01T06:08:56.458Z</time></trkpt><trkpt lat="43.5150673" lon="11.6322497"><ele>178.5</ele><time>2026-05-01T06:08:57.458Z</time></trkpt><trkpt lat="43.5151017" lon="11.6326564"><ele>173.0</ele><time>2026-05-01T06:08:58.458Z</time></trkpt><trkpt lat="43.5151179" lon="11.6330639"><ele>174.5</ele><time>2026-05-01T06:08:59.458Z</time></trkpt><trkpt lat="43.5151134" lon="11.6334742"><ele>176.0</ele><time>2026-05-01T06:09:00.457Z</time></trkpt><trkpt lat="43.5150894" lon="11.6338783"><ele>176.0</ele><time>2026-05-01T06:09:01.458Z</time></trkpt><trkpt lat="43.5150443" lon="11.6342844"><ele>176.0</ele><time>2026-05-01T06:09:02.458Z</time></trkpt><trkpt lat="43.5149833" lon="11.6346865"><ele>182.5</ele><time>2026-05-01T06:09:03.458Z</time></trkpt><trkpt lat="43.5149019" lon="11.635082"><ele>189.0</ele><time>2026-05-01T06:09:04.457Z</time></trkpt><trkpt lat="43.5148003" lon="11.6354762"><ele>191.0</ele><time>2026-05-01T06:09:05.458Z</time></trkpt><trkpt lat="43.51468" lon="11.6358626"><ele>193.0</ele><time>2026-05-01T06:09:06.458Z</time></trkpt><trkpt lat="43.5145431" lon="11.6362408"><ele>193.0</ele><time>2026-05-01T06:09:07.458Z</time></trkpt><trkpt lat="43.514395" lon="11.6366077"><ele>193.0</ele><time>2026-05-01T06:09:08.457Z</time></trkpt><trkpt lat="43.5142472" lon="11.6369783"><ele>198.0</ele><time>2026-05-01T06:09:09.458Z</time></trkpt><trkpt lat="43.5140956" lon="11.6373453"><ele>203.0</ele><time>2026-05-01T06:09:10.458Z</time></trkpt><trkpt lat="43.5139434" lon="11.6377152"><ele>207.0</ele><time>2026-05-01T06:09:11.457Z</time></trkpt><trkpt lat="43.5137923" lon="11.6380864"><ele>211.0</ele><time>2026-05-01T06:09:12.458Z</time></trkpt><trkpt lat="43.5136455" lon="11.6384568"><ele>213.5</ele><time>2026-05-01T06:09:13.458Z</time></trkpt><trkpt lat="43.5135061" lon="11.6388306"><ele>216.0</ele><time>2026-05-01T06:09:14.458Z</time></trkpt><trkpt lat="43.5133841" lon="11.6392086"><ele>218.5</ele><time>2026-05-01T06:09:15.458Z</time></trkpt><trkpt lat="43.5132763" lon="11.6395997"><ele>221.0</ele><time>2026-05-01T06:09:16.458Z</time></trkpt><trkpt lat="43.5131949" lon="11.640001"><ele>222.0</ele><time>2026-05-01T06:09:17.458Z</time></trkpt><trkpt lat="43.5131358" lon="11.6404102"><ele>223.0</ele><time>2026-05-01T06:09:18.458Z</time></trkpt><trkpt lat="43.5130777" lon="11.6408284"><ele>226.0</ele><time>2026-05-01T06:09:19.458Z</time></trkpt><trkpt lat="43.5130197" lon="11.6412473"><ele>229.0</ele><time>2026-05-01T06:09:20.458Z</time></trkpt><trkpt lat="43.5129547" lon="11.6416606"><ele>230.5</ele><time>2026-05-01T06:09:21.458Z</time></trkpt><trkpt lat="43.5128792" lon="11.6420704"><ele>232.0</ele><time>2026-05-01T06:09:22.457Z</time></trkpt><trkpt lat="43.5127811" lon="11.6424694"><ele>231.5</ele><time>2026-05-01T06:09:23.458Z</time></trkpt><trkpt lat="43.512664" lon="11.642859"><ele>231.0</ele><time>2026-05-01T06:09:24.458Z</time></trkpt><trkpt lat="43.5125246" lon="11.6432347"><ele>231.0</ele><time>2026-05-01T06:09:25.458Z</time></trkpt><trkpt lat="43.5123604" lon="11.64359"><ele>231.0</ele><time>2026-05-01T06:09:26.457Z</time></trkpt><trkpt lat="43.5121754" lon="11.6439267"><ele>233.0</ele><time>2026-05-01T06:09:27.457Z</time></trkpt><trkpt lat="43.5119686" lon="11.6442408"><ele>235.0</ele><time>2026-05-01T06:09:28.458Z</time></trkpt><trkpt lat="43.5117377" lon="11.6445253"><ele>236.5</ele><time>2026-05-01T06:09:29.458Z</time></trkpt><trkpt lat="43.5114879" lon="11.6447834"><ele>238.0</ele><time>2026-05-01T06:09:30.457Z</time></trkpt><trkpt lat="43.5112225" lon="11.645015"><ele>238.0</ele><time>2026-05-01T06:09:31.458Z</time></trkpt><trkpt lat="43.5109459" lon="11.6452293"><ele>238.0</ele><time>2026-05-01T06:09:32.458Z</time></trkpt><trkpt lat="43.5106585" lon="11.6454258"><ele>237.5</ele><time>2026-05-01T06:09:33.458Z</time></trkpt><trkpt lat="43.5103723" lon="11.6456222"><ele>237.0</ele><time>2026-05-01T06:09:34.457Z</time></trkpt><trkpt lat="43.5100814" lon="11.6458235"><ele>237.0</ele><time>2026-05-01T06:09:35.458Z</time></trkpt><trkpt lat="43.5097962" lon="11.6460288"><ele>237.0</ele><time>2026-05-01T06:09:36.458Z</time></trkpt><trkpt lat="43.5095156" lon="11.6462271"><ele>228.0</ele><time>2026-05-01T06:09:37.457Z</time></trkpt><trkpt lat="43.5092341" lon="11.6464192"><ele>219.0</ele><time>2026-05-01T06:09:38.457Z</time></trkpt><trkpt lat="43.5089602" lon="11.6466195"><ele>210.0</ele><time>2026-05-01T06:09:39.458Z</time></trkpt><trkpt lat="43.5086822" lon="11.6468056"><ele>201.0</ele><time>2026-05-01T06:09:40.457Z</time></trkpt><trkpt lat="43.5084096" lon="11.6469929"><ele>193.0</ele><time>2026-05-01T06:09:41.458Z</time></trkpt><trkpt lat="43.5081383" lon="11.6471753"><ele>185.0</ele><time>2026-05-01T06:09:42.458Z</time></trkpt><trkpt lat="43.5078728" lon="11.6473562"><ele>185.0</ele><time>2026-05-01T06:09:43.458Z</time></trkpt><trkpt lat="43.5076078" lon="11.6475388"><ele>185.0</ele><time>2026-05-01T06:09:44.458Z</time></trkpt><trkpt lat="43.5073415" lon="11.6477183"><ele>187.5</ele><time>2026-05-01T06:09:45.458Z</time></trkpt><trkpt lat="43.5070812" lon="11.6478998"><ele>190.0</ele><time>2026-05-01T06:09:46.457Z</time></trkpt><trkpt lat="43.5068179" lon="11.6480831"><ele>199.5</ele><time>2026-05-01T06:09:47.457Z</time></trkpt><trkpt lat="43.5065505" lon="11.6482681"><ele>209.0</ele><time>2026-05-01T06:09:48.458Z</time></trkpt><trkpt lat="43.5062848" lon="11.6484587"><ele>216.5</ele><time>2026-05-01T06:09:49.458Z</time></trkpt><trkpt lat="43.506016" lon="11.6486493"><ele>224.0</ele><time>2026-05-01T06:09:50.458Z</time></trkpt><trkpt lat="43.5057471" lon="11.6488371"><ele>224.0</ele><time>2026-05-01T06:09:51.458Z</time></trkpt><trkpt lat="43.5054758" lon="11.6490275"><ele>224.0</ele><time>2026-05-01T06:09:52.457Z</time></trkpt><trkpt lat="43.505208" lon="11.6492293"><ele>226.5</ele><time>2026-05-01T06:09:53.458Z</time></trkpt><trkpt lat="43.5049465" lon="11.649441"><ele>229.0</ele><time>2026-05-01T06:09:54.457Z</time></trkpt><trkpt lat="43.5046886" lon="11.6496653"><ele>232.0</ele><time>2026-05-01T06:09:55.458Z</time></trkpt><trkpt lat="43.5044436" lon="11.6499121"><ele>235.0</ele><time>2026-05-01T06:09:56.458Z</time></trkpt><trkpt lat="43.504209" lon="11.6501703"><ele>233.5</ele><time>2026-05-01T06:09:57.458Z</time></trkpt><trkpt lat="43.5039781" lon="11.6504417"><ele>232.0</ele><time>2026-05-01T06:09:58.458Z</time></trkpt><trkpt lat="43.5037516" lon="11.6507287"><ele>234.5</ele><time>2026-05-01T06:09:59.458Z</time></trkpt><trkpt lat="43.5035386" lon="11.6510278"><ele>237.0</ele><time>2026-05-01T06:10:00.458Z</time></trkpt><trkpt lat="43.5033328" lon="11.6513382"><ele>237.0</ele><time>2026-05-01T06:10:01.458Z</time></trkpt><trkpt lat="43.5031387" lon="11.6516595"><ele>237.0</ele><time>2026-05-01T06:10:02.457Z</time></trkpt><trkpt lat="43.5029574" lon="11.6519889"><ele>239.0</ele><time>2026-05-01T06:10:03.458Z</time></trkpt><trkpt lat="43.502774" lon="11.652317"><ele>241.0</ele><time>2026-05-01T06:10:04.458Z</time></trkpt><trkpt lat="43.5025913" lon="11.6526453"><ele>241.5</ele><time>2026-05-01T06:10:05.458Z</time></trkpt><trkpt lat="43.5024063" lon="11.6529757"><ele>242.0</ele><time>2026-05-01T06:10:06.458Z</time></trkpt><trkpt lat="43.5022216" lon="11.6533073"><ele>237.0</ele><time>2026-05-01T06:10:07.458Z</time></trkpt><trkpt lat="43.5020362" lon="11.6536394"><ele>232.0</ele><time>2026-05-01T06:10:08.458Z</time></trkpt><trkpt lat="43.501852" lon="11.653971"><ele>232.0</ele><time>2026-05-01T06:10:09.458Z</time></trkpt><trkpt lat="43.5016735" lon="11.6543071"><ele>232.0</ele><time>2026-05-01T06:10:10.458Z</time></trkpt><trkpt lat="43.50149" lon="11.6546417"><ele>229.0</ele><time>2026-05-01T06:10:11.458Z</time></trkpt><trkpt lat="43.5013085" lon="11.6549758"><ele>226.0</ele><time>2026-05-01T06:10:12.458Z</time></trkpt><trkpt lat="43.5011267" lon="11.6553125"><ele>234.0</ele><time>2026-05-01T06:10:13.457Z</time></trkpt><trkpt lat="43.5009478" lon="11.6556547"><ele>242.0</ele><time>2026-05-01T06:10:14.458Z</time></trkpt><trkpt lat="43.5007709" lon="11.6560005"><ele>239.5</ele><time>2026-05-01T06:10:15.458Z</time></trkpt><trkpt lat="43.5005985" lon="11.6563513"><ele>237.0</ele><time>2026-05-01T06:10:16.458Z</time></trkpt><trkpt lat="43.5004334" lon="11.6567072"><ele>242.5</ele><time>2026-05-01T06:10:17.457Z</time></trkpt><trkpt lat="43.5002666" lon="11.6570612"><ele>248.0</ele><time>2026-05-01T06:10:18.458Z</time></trkpt><trkpt lat="43.500109" lon="11.6574224"><ele>246.5</ele><time>2026-05-01T06:10:19.458Z</time></trkpt><trkpt lat="43.4999596" lon="11.6577874"><ele>245.0</ele><time>2026-05-01T06:10:20.458Z</time></trkpt><trkpt lat="43.4998093" lon="11.6581482"><ele>245.0</ele><time>2026-05-01T06:10:21.458Z</time></trkpt><trkpt lat="43.4996655" lon="11.6585129"><ele>245.0</ele><time>2026-05-01T06:10:22.458Z</time></trkpt><trkpt lat="43.4995305" lon="11.6588845"><ele>245.0</ele><time>2026-05-01T06:10:23.457Z</time></trkpt><trkpt lat="43.4994032" lon="11.6592651"><ele>245.0</ele><time>2026-05-01T06:10:24.458Z</time></trkpt><trkpt lat="43.4992727" lon="11.6596506"><ele>245.0</ele><time>2026-05-01T06:10:25.458Z</time></trkpt><trkpt lat="43.4991368" lon="11.6600375"><ele>245.0</ele><time>2026-05-01T06:10:26.458Z</time></trkpt><trkpt lat="43.4989984" lon="11.6604228"><ele>245.0</ele><time>2026-05-01T06:10:27.457Z</time></trkpt><trkpt lat="43.4988612" lon="11.6608096"><ele>245.0</ele><time>2026-05-01T06:10:28.458Z</time></trkpt><trkpt lat="43.4987257" lon="11.6611986"><ele>244.0</ele><time>2026-05-01T06:10:29.458Z</time></trkpt><trkpt lat="43.4985901" lon="11.661586"><ele>243.0</ele><time>2026-05-01T06:10:30.458Z</time></trkpt><trkpt lat="43.4984492" lon="11.6619667"><ele>240.5</ele><time>2026-05-01T06:10:31.458Z</time></trkpt><trkpt lat="43.4983043" lon="11.6623467"><ele>238.0</ele><time>2026-05-01T06:10:32.458Z</time></trkpt><trkpt lat="43.4981508" lon="11.6627209"><ele>240.0</ele><time>2026-05-01T06:10:33.458Z</time></trkpt><trkpt lat="43.4979874" lon="11.6630876"><ele>242.0</ele><time>2026-05-01T06:10:34.457Z</time></trkpt><trkpt lat="43.4978182" lon="11.6634502"><ele>243.5</ele><time>2026-05-01T06:10:35.458Z</time></trkpt><trkpt lat="43.4976371" lon="11.6638009"><ele>245.0</ele><time>2026-05-01T06:10:36.458Z</time></trkpt><trkpt lat="43.4974488" lon="11.6641468"><ele>245.0</ele><time>2026-05-01T06:10:37.458Z</time></trkpt><trkpt lat="43.4972549" lon="11.6644843"><ele>245.0</ele><time>2026-05-01T06:10:38.458Z</time></trkpt><trkpt lat="43.4970469" lon="11.6648087"><ele>245.0</ele><time>2026-05-01T06:10:39.458Z</time></trkpt><trkpt lat="43.4968324" lon="11.6651179"><ele>245.0</ele><time>2026-05-01T06:10:40.458Z</time></trkpt><trkpt lat="43.4966084" lon="11.6654197"><ele>243.5</ele><time>2026-05-01T06:10:41.458Z</time></trkpt><trkpt lat="43.4963786" lon="11.6657114"><ele>242.0</ele><time>2026-05-01T06:10:42.458Z</time></trkpt><trkpt lat="43.4961422" lon="11.6659923"><ele>237.5</ele><time>2026-05-01T06:10:43.458Z</time></trkpt><trkpt lat="43.4958973" lon="11.6662619"><ele>233.0</ele><time>2026-05-01T06:10:44.458Z</time></trkpt><trkpt lat="43.4956462" lon="11.6665228"><ele>233.0</ele><time>2026-05-01T06:10:45.458Z</time></trkpt><trkpt lat="43.4953906" lon="11.6667763"><ele>233.0</ele><time>2026-05-01T06:10:46.457Z</time></trkpt><trkpt lat="43.4951324" lon="11.6670258"><ele>233.0</ele><time>2026-05-01T06:10:47.458Z</time></trkpt><trkpt lat="43.4948738" lon="11.6672776"><ele>233.0</ele><time>2026-05-01T06:10:48.458Z</time></trkpt><trkpt lat="43.4946146" lon="11.6675274"><ele>234.0</ele><time>2026-05-01T06:10:49.458Z</time></trkpt><trkpt lat="43.4943525" lon="11.6677717"><ele>235.0</ele><time>2026-05-01T06:10:50.458Z</time></trkpt><trkpt lat="43.4941" lon="11.6680363"><ele>235.0</ele><time>2026-05-01T06:10:51.458Z</time></trkpt><trkpt lat="43.4938533" lon="11.668312"><ele>235.0</ele><time>2026-05-01T06:10:52.458Z</time></trkpt><trkpt lat="43.4936193" lon="11.6686027"><ele>237.0</ele><time>2026-05-01T06:10:53.458Z</time></trkpt><trkpt lat="43.4933928" lon="11.6689078"><ele>239.0</ele><time>2026-05-01T06:10:54.457Z</time></trkpt><trkpt lat="43.4931739" lon="11.6692273"><ele>241.0</ele><time>2026-05-01T06:10:55.457Z</time></trkpt><trkpt lat="43.492966" lon="11.6695599"><ele>243.0</ele><time>2026-05-01T06:10:56.458Z</time></trkpt><trkpt lat="43.4927703" lon="11.6698951"><ele>244.0</ele><time>2026-05-01T06:10:57.458Z</time></trkpt><trkpt lat="43.4925806" lon="11.6702341"><ele>245.0</ele><time>2026-05-01T06:10:58.458Z</time></trkpt><trkpt lat="43.4924003" lon="11.6705824"><ele>245.0</ele><time>2026-05-01T06:10:59.458Z</time></trkpt><trkpt lat="43.492233" lon="11.670936"><ele>245.0</ele><time>2026-05-01T06:11:00.457Z</time></trkpt><trkpt lat="43.4920764" lon="11.6712962"><ele>244.0</ele><time>2026-05-01T06:11:01.458Z</time></trkpt><trkpt lat="43.4919339" lon="11.6716654"><ele>243.0</ele><time>2026-05-01T06:11:02.458Z</time></trkpt><trkpt lat="43.4917997" lon="11.6720376"><ele>243.0</ele><time>2026-05-01T06:11:03.458Z</time></trkpt><trkpt lat="43.4916765" lon="11.6724099"><ele>243.0</ele><time>2026-05-01T06:11:04.458Z</time></trkpt><trkpt lat="43.4915668" lon="11.6727871"><ele>244.5</ele><time>2026-05-01T06:11:05.458Z</time></trkpt><trkpt lat="43.4914674" lon="11.6731708"><ele>246.0</ele><time>2026-05-01T06:11:06.458Z</time></trkpt><trkpt lat="43.4913757" lon="11.6735609"><ele>246.0</ele><time>2026-05-01T06:11:07.458Z</time></trkpt><trkpt lat="43.4912904" lon="11.6739517"><ele>246.0</ele><time>2026-05-01T06:11:08.458Z</time></trkpt><trkpt lat="43.4912079" lon="11.6743449"><ele>245.0</ele><time>2026-05-01T06:11:09.458Z</time></trkpt><trkpt lat="43.4911285" lon="11.6747385"><ele>244.0</ele><time>2026-05-01T06:11:10.458Z</time></trkpt><trkpt lat="43.4910473" lon="11.6751177"><ele>240.5</ele><time>2026-05-01T06:11:11.458Z</time></trkpt><trkpt lat="43.4909706" lon="11.6755033"><ele>237.0</ele><time>2026-05-01T06:11:12.458Z</time></trkpt><trkpt lat="43.4908919" lon="11.6758883"><ele>231.0</ele><time>2026-05-01T06:11:13.458Z</time></trkpt><trkpt lat="43.4908135" lon="11.6762754"><ele>225.0</ele><time>2026-05-01T06:11:14.458Z</time></trkpt><trkpt lat="43.4907325" lon="11.6766583"><ele>227.5</ele><time>2026-05-01T06:11:15.457Z</time></trkpt><trkpt lat="43.4906536" lon="11.6770443"><ele>230.0</ele><time>2026-05-01T06:11:16.457Z</time></trkpt><trkpt lat="43.4905741" lon="11.6774286"><ele>231.5</ele><time>2026-05-01T06:11:17.457Z</time></trkpt><trkpt lat="43.4904952" lon="11.6778138"><ele>233.0</ele><time>2026-05-01T06:11:18.458Z</time></trkpt><trkpt lat="43.4904157" lon="11.6781983"><ele>233.0</ele><time>2026-05-01T06:11:19.457Z</time></trkpt><trkpt lat="43.4903375" lon="11.6785836"><ele>233.0</ele><time>2026-05-01T06:11:20.458Z</time></trkpt><trkpt lat="43.4902601" lon="11.678969"><ele>234.0</ele><time>2026-05-01T06:11:21.457Z</time></trkpt><trkpt lat="43.4901791" lon="11.6793558"><ele>235.0</ele><time>2026-05-01T06:11:22.458Z</time></trkpt><trkpt lat="43.4901026" lon="11.6797408"><ele>237.5</ele><time>2026-05-01T06:11:23.458Z</time></trkpt><trkpt lat="43.4900268" lon="11.6801259"><ele>240.0</ele><time>2026-05-01T06:11:24.458Z</time></trkpt><trkpt lat="43.48995" lon="11.6805087"><ele>242.5</ele><time>2026-05-01T06:11:25.458Z</time></trkpt><trkpt lat="43.4898735" lon="11.6808913"><ele>245.0</ele><time>2026-05-01T06:11:26.458Z</time></trkpt><trkpt lat="43.4897929" lon="11.6812721"><ele>249.0</ele><time>2026-05-01T06:11:27.458Z</time></trkpt><trkpt lat="43.4897143" lon="11.6816533"><ele>253.0</ele><time>2026-05-01T06:11:28.458Z</time></trkpt><trkpt lat="43.4896375" lon="11.6820366"><ele>251.0</ele><time>2026-05-01T06:11:29.457Z</time></trkpt><trkpt lat="43.4895577" lon="11.6824169"><ele>249.0</ele><time>2026-05-01T06:11:30.458Z</time></trkpt><trkpt lat="43.4894802" lon="11.6828023"><ele>249.0</ele><time>2026-05-01T06:11:31.458Z</time></trkpt><trkpt lat="43.4894006" lon="11.6831869"><ele>249.0</ele><time>2026-05-01T06:11:32.458Z</time></trkpt><trkpt lat="43.4893202" lon="11.6835704"><ele>248.5</ele><time>2026-05-01T06:11:33.458Z</time></trkpt><trkpt lat="43.4892421" lon="11.6839558"><ele>248.0</ele><time>2026-05-01T06:11:34.458Z</time></trkpt><trkpt lat="43.4891624" lon="11.684342"><ele>247.0</ele><time>2026-05-01T06:11:35.458Z</time></trkpt><trkpt lat="43.4890884" lon="11.6847316"><ele>246.0</ele><time>2026-05-01T06:11:36.458Z</time></trkpt><trkpt lat="43.4890072" lon="11.6851165"><ele>246.5</ele><time>2026-05-01T06:11:37.458Z</time></trkpt><trkpt lat="43.4889312" lon="11.6855027"><ele>247.0</ele><time>2026-05-01T06:11:38.458Z</time></trkpt><trkpt lat="43.4888499" lon="11.6858832"><ele>248.0</ele><time>2026-05-01T06:11:39.457Z</time></trkpt><trkpt lat="43.4887713" lon="11.6862631"><ele>249.0</ele><time>2026-05-01T06:11:40.457Z</time></trkpt><trkpt lat="43.4886925" lon="11.6866413"><ele>249.5</ele><time>2026-05-01T06:11:41.458Z</time></trkpt><trkpt lat="43.4886153" lon="11.6870175"><ele>250.0</ele><time>2026-05-01T06:11:42.458Z</time></trkpt><trkpt lat="43.4885387" lon="11.6873942"><ele>250.5</ele><time>2026-05-01T06:11:43.458Z</time></trkpt><trkpt lat="43.4884594" lon="11.6877669"><ele>251.0</ele><time>2026-05-01T06:11:44.458Z</time></trkpt><trkpt lat="43.4883822" lon="11.6881436"><ele>251.0</ele><time>2026-05-01T06:11:45.457Z</time></trkpt><trkpt lat="43.4883047" lon="11.688521"><ele>251.0</ele><time>2026-05-01T06:11:46.458Z</time></trkpt><trkpt lat="43.4882275" lon="11.688894"><ele>250.5</ele><time>2026-05-01T06:11:47.458Z</time></trkpt><trkpt lat="43.4881512" lon="11.6892704"><ele>250.0</ele><time>2026-05-01T06:11:48.458Z</time></trkpt><trkpt lat="43.4880786" lon="11.6896474"><ele>248.5</ele><time>2026-05-01T06:11:49.458Z</time></trkpt><trkpt lat="43.4880027" lon="11.6900247"><ele>247.0</ele><time>2026-05-01T06:11:50.457Z</time></trkpt><trkpt lat="43.4879266" lon="11.6904029"><ele>247.0</ele><time>2026-05-01T06:11:51.458Z</time></trkpt><trkpt lat="43.4878473" lon="11.6907743"><ele>247.0</ele><time>2026-05-01T06:11:52.458Z</time></trkpt><trkpt lat="43.4877729" lon="11.6911495"><ele>248.5</ele><time>2026-05-01T06:11:53.458Z</time></trkpt><trkpt lat="43.4876979" lon="11.6915314"><ele>250.0</ele><time>2026-05-01T06:11:54.458Z</time></trkpt><trkpt lat="43.4876258" lon="11.6919158"><ele>250.5</ele><time>2026-05-01T06:11:55.457Z</time></trkpt><trkpt lat="43.4875506" lon="11.6923037"><ele>251.0</ele><time>2026-05-01T06:11:56.458Z</time></trkpt><trkpt lat="43.4874714" lon="11.6926911"><ele>250.5</ele><time>2026-05-01T06:11:57.458Z</time></trkpt><trkpt lat="43.4873903" lon="11.6930844"><ele>250.0</ele><time>2026-05-01T06:11:58.458Z</time></trkpt><trkpt lat="43.4873044" lon="11.6934777"><ele>249.5</ele><time>2026-05-01T06:11:59.458Z</time></trkpt><trkpt lat="43.4872146" lon="11.6938721"><ele>249.0</ele><time>2026-05-01T06:12:00.458Z</time></trkpt><trkpt lat="43.4871248" lon="11.6942694"><ele>248.0</ele><time>2026-05-01T06:12:01.458Z</time></trkpt><trkpt lat="43.4870354" lon="11.6946626"><ele>247.0</ele><time>2026-05-01T06:12:02.458Z</time></trkpt><trkpt lat="43.4869455" lon="11.6950564"><ele>245.5</ele><time>2026-05-01T06:12:03.458Z</time></trkpt><trkpt lat="43.4868644" lon="11.695455"><ele>244.0</ele><time>2026-05-01T06:12:04.458Z</time></trkpt><trkpt lat="43.4867856" lon="11.6958551"><ele>244.5</ele><time>2026-05-01T06:12:05.457Z</time></trkpt><trkpt lat="43.4867056" lon="11.6962564"><ele>245.0</ele><time>2026-05-01T06:12:06.457Z</time></trkpt><trkpt lat="43.4866247" lon="11.6966525"><ele>247.5</ele><time>2026-05-01T06:12:07.457Z</time></trkpt><trkpt lat="43.4865461" lon="11.697051"><ele>250.0</ele><time>2026-05-01T06:12:08.458Z</time></trkpt><trkpt lat="43.4864648" lon="11.6974484"><ele>248.0</ele><time>2026-05-01T06:12:09.458Z</time></trkpt><trkpt lat="43.4863854" lon="11.6978491"><ele>246.0</ele><time>2026-05-01T06:12:10.458Z</time></trkpt><trkpt lat="43.4863" lon="11.6982491"><ele>245.0</ele><time>2026-05-01T06:12:11.458Z</time></trkpt><trkpt lat="43.4862127" lon="11.6986499"><ele>244.0</ele><time>2026-05-01T06:12:12.458Z</time></trkpt><trkpt lat="43.4861287" lon="11.6990533"><ele>243.0</ele><time>2026-05-01T06:12:13.458Z</time></trkpt><trkpt lat="43.4860408" lon="11.6994522"><ele>242.0</ele><time>2026-05-01T06:12:14.458Z</time></trkpt><trkpt lat="43.4859565" lon="11.6998525"><ele>244.0</ele><time>2026-05-01T06:12:15.457Z</time></trkpt><trkpt lat="43.4858633" lon="11.7002517"><ele>246.0</ele><time>2026-05-01T06:12:16.458Z</time></trkpt><trkpt lat="43.4857717" lon="11.7006477"><ele>246.0</ele><time>2026-05-01T06:12:17.457Z</time></trkpt><trkpt lat="43.4856807" lon="11.7010397"><ele>246.0</ele><time>2026-05-01T06:12:18.458Z</time></trkpt><trkpt lat="43.4855881" lon="11.7014299"><ele>246.0</ele><time>2026-05-01T06:12:19.458Z</time></trkpt><trkpt lat="43.4854998" lon="11.7018212"><ele>246.0</ele><time>2026-05-01T06:12:20.458Z</time></trkpt><trkpt lat="43.4854131" lon="11.7022113"><ele>244.5</ele><time>2026-05-01T06:12:21.458Z</time></trkpt><trkpt lat="43.4853246" lon="11.702601"><ele>243.0</ele><time>2026-05-01T06:12:22.458Z</time></trkpt><trkpt lat="43.4852363" lon="11.7029906"><ele>243.0</ele><time>2026-05-01T06:12:23.458Z</time></trkpt><trkpt lat="43.4851501" lon="11.7033797"><ele>243.0</ele><time>2026-05-01T06:12:24.458Z</time></trkpt><trkpt lat="43.4850619" lon="11.7037677"><ele>246.5</ele><time>2026-05-01T06:12:25.457Z</time></trkpt><trkpt lat="43.4849736" lon="11.7041531"><ele>250.0</ele><time>2026-05-01T06:12:26.458Z</time></trkpt><trkpt lat="43.4848897" lon="11.7045424"><ele>250.5</ele><time>2026-05-01T06:12:27.458Z</time></trkpt><trkpt lat="43.4848031" lon="11.7049306"><ele>251.0</ele><time>2026-05-01T06:12:28.458Z</time></trkpt><trkpt lat="43.4847148" lon="11.7053164"><ele>251.0</ele><time>2026-05-01T06:12:29.458Z</time></trkpt><trkpt lat="43.484624" lon="11.7056986"><ele>251.0</ele><time>2026-05-01T06:12:30.458Z</time></trkpt><trkpt lat="43.4845346" lon="11.7060847"><ele>253.0</ele><time>2026-05-01T06:12:31.458Z</time></trkpt><trkpt lat="43.4844474" lon="11.7064718"><ele>255.0</ele><time>2026-05-01T06:12:32.458Z</time></trkpt><trkpt lat="43.4843607" lon="11.7068586"><ele>252.5</ele><time>2026-05-01T06:12:33.458Z</time></trkpt><trkpt lat="43.4842731" lon="11.7072455"><ele>250.0</ele><time>2026-05-01T06:12:34.457Z</time></trkpt><trkpt lat="43.4841877" lon="11.7076311"><ele>246.5</ele><time>2026-05-01T06:12:35.458Z</time></trkpt><trkpt lat="43.4840999" lon="11.708019"><ele>243.0</ele><time>2026-05-01T06:12:36.458Z</time></trkpt><trkpt lat="43.4840149" lon="11.7084044"><ele>241.0</ele><time>2026-05-01T06:12:37.458Z</time></trkpt><trkpt lat="43.4839355" lon="11.7087913"><ele>239.0</ele><time>2026-05-01T06:12:38.458Z</time></trkpt><trkpt lat="43.4838675" lon="11.7091807"><ele>243.0</ele><time>2026-05-01T06:12:39.458Z</time></trkpt><trkpt lat="43.483814" lon="11.7095723"><ele>247.0</ele><time>2026-05-01T06:12:40.458Z</time></trkpt><trkpt lat="43.4837742" lon="11.7099735"><ele>249.5</ele><time>2026-05-01T06:12:41.458Z</time></trkpt><trkpt lat="43.4837387" lon="11.710375"><ele>252.0</ele><time>2026-05-01T06:12:42.458Z</time></trkpt><trkpt lat="43.4837078" lon="11.7107782"><ele>250.5</ele><time>2026-05-01T06:12:43.458Z</time></trkpt><trkpt lat="43.483684" lon="11.7111907"><ele>249.0</ele><time>2026-05-01T06:12:44.458Z</time></trkpt><trkpt lat="43.4836718" lon="11.7116026"><ele>250.5</ele><time>2026-05-01T06:12:45.458Z</time></trkpt><trkpt lat="43.4836713" lon="11.7120163"><ele>252.0</ele><time>2026-05-01T06:12:46.458Z</time></trkpt><trkpt lat="43.4836799" lon="11.7124322"><ele>249.0</ele><time>2026-05-01T06:12:47.458Z</time></trkpt><trkpt lat="43.4836982" lon="11.7128459"><ele>246.0</ele><time>2026-05-01T06:12:48.458Z</time></trkpt><trkpt lat="43.4837211" lon="11.7132652"><ele>241.0</ele><time>2026-05-01T06:12:49.458Z</time></trkpt><trkpt lat="43.4837472" lon="11.71368"><ele>236.0</ele><time>2026-05-01T06:12:50.457Z</time></trkpt><trkpt lat="43.4837752" lon="11.71409"><ele>238.5</ele><time>2026-05-01T06:12:51.458Z</time></trkpt><trkpt lat="43.4838035" lon="11.7145019"><ele>241.0</ele><time>2026-05-01T06:12:52.458Z</time></trkpt><trkpt lat="43.4838328" lon="11.7149089"><ele>246.0</ele><time>2026-05-01T06:12:53.458Z</time></trkpt><trkpt lat="43.4838624" lon="11.7153206"><ele>251.0</ele><time>2026-05-01T06:12:54.458Z</time></trkpt><trkpt lat="43.4838881" lon="11.7157343"><ele>253.0</ele><time>2026-05-01T06:12:55.458Z</time></trkpt><trkpt lat="43.4839193" lon="11.7161444"><ele>255.0</ele><time>2026-05-01T06:12:56.458Z</time></trkpt><trkpt lat="43.4839482" lon="11.7165561"><ele>255.5</ele><time>2026-05-01T06:12:57.457Z</time></trkpt><trkpt lat="43.4839816" lon="11.7169644"><ele>256.0</ele><time>2026-05-01T06:12:58.458Z</time></trkpt><trkpt lat="43.4840068" lon="11.7173739"><ele>257.5</ele><time>2026-05-01T06:12:59.458Z</time></trkpt><trkpt lat="43.4840335" lon="11.7177834"><ele>259.0</ele><time>2026-05-01T06:13:00.458Z</time></trkpt><trkpt lat="43.4840469" lon="11.7181952"><ele>257.0</ele><time>2026-05-01T06:13:01.458Z</time></trkpt><trkpt lat="43.4840448" lon="11.7186087"><ele>255.0</ele><time>2026-05-01T06:13:02.458Z</time></trkpt><trkpt lat="43.4840182" lon="11.7190201"><ele>253.0</ele><time>2026-05-01T06:13:03.457Z</time></trkpt><trkpt lat="43.4839704" lon="11.7194271"><ele>251.0</ele><time>2026-05-01T06:13:04.458Z</time></trkpt><trkpt lat="43.4838988" lon="11.7198272"><ele>251.0</ele><time>2026-05-01T06:13:05.458Z</time></trkpt><trkpt lat="43.4838062" lon="11.7202204"><ele>251.0</ele><time>2026-05-01T06:13:06.458Z</time></trkpt><trkpt lat="43.4836954" lon="11.720604"><ele>252.0</ele><time>2026-05-01T06:13:07.458Z</time></trkpt><trkpt lat="43.483583" lon="11.7209693"><ele>253.0</ele><time>2026-05-01T06:13:08.458Z</time></trkpt><trkpt lat="43.4834527" lon="11.721334"><ele>254.0</ele><time>2026-05-01T06:13:09.458Z</time></trkpt><trkpt lat="43.4833056" lon="11.7216998"><ele>255.0</ele><time>2026-05-01T06:13:10.458Z</time></trkpt><trkpt lat="43.4831588" lon="11.7220573"><ele>256.0</ele><time>2026-05-01T06:13:11.458Z</time></trkpt><trkpt lat="43.4830099" lon="11.7224217"><ele>257.0</ele><time>2026-05-01T06:13:12.458Z</time></trkpt><trkpt lat="43.48286" lon="11.7227792"><ele>259.0</ele><time>2026-05-01T06:13:13.458Z</time></trkpt><trkpt lat="43.4827126" lon="11.7231379"><ele>261.0</ele><time>2026-05-01T06:13:14.458Z</time></trkpt><trkpt lat="43.4825617" lon="11.723495"><ele>262.0</ele><time>2026-05-01T06:13:15.458Z</time></trkpt><trkpt lat="43.4824131" lon="11.7238531"><ele>263.0</ele><time>2026-05-01T06:13:16.457Z</time></trkpt><trkpt lat="43.4822653" lon="11.7242144"><ele>261.5</ele><time>2026-05-01T06:13:17.458Z</time></trkpt><trkpt lat="43.4821242" lon="11.7245751"><ele>260.0</ele><time>2026-05-01T06:13:18.458Z</time></trkpt><trkpt lat="43.4819845" lon="11.7249347"><ele>259.5</ele><time>2026-05-01T06:13:19.458Z</time></trkpt><trkpt lat="43.4818443" lon="11.7252962"><ele>259.0</ele><time>2026-05-01T06:13:20.458Z</time></trkpt><trkpt lat="43.481705" lon="11.7256573"><ele>259.0</ele><time>2026-05-01T06:13:21.458Z</time></trkpt><trkpt lat="43.4815676" lon="11.7260187"><ele>259.0</ele><time>2026-05-01T06:13:22.458Z</time></trkpt><trkpt lat="43.4814325" lon="11.7263806"><ele>259.0</ele><time>2026-05-01T06:13:23.458Z</time></trkpt><trkpt lat="43.4812951" lon="11.7267416"><ele>259.0</ele><time>2026-05-01T06:13:24.458Z</time></trkpt><trkpt lat="43.4811591" lon="11.7271067"><ele>263.5</ele><time>2026-05-01T06:13:25.458Z</time></trkpt><trkpt lat="43.4810206" lon="11.7274714"><ele>268.0</ele><time>2026-05-01T06:13:26.458Z</time></trkpt><trkpt lat="43.4808814" lon="11.727834"><ele>268.0</ele><time>2026-05-01T06:13:27.457Z</time></trkpt><trkpt lat="43.480744" lon="11.728197"><ele>268.0</ele><time>2026-05-01T06:13:28.458Z</time></trkpt><trkpt lat="43.480607" lon="11.7285634"><ele>268.5</ele><time>2026-05-01T06:13:29.457Z</time></trkpt><trkpt lat="43.4804682" lon="11.7289267"><ele>269.0</ele><time>2026-05-01T06:13:30.458Z</time></trkpt><trkpt lat="43.4803305" lon="11.729293"><ele>278.0</ele><time>2026-05-01T06:13:31.458Z</time></trkpt><trkpt lat="43.4801915" lon="11.7296578"><ele>287.0</ele><time>2026-05-01T06:13:32.457Z</time></trkpt><trkpt lat="43.4800537" lon="11.7300214"><ele>282.0</ele><time>2026-05-01T06:13:33.458Z</time></trkpt><trkpt lat="43.4799149" lon="11.7303832"><ele>277.0</ele><time>2026-05-01T06:13:34.458Z</time></trkpt><trkpt lat="43.4797797" lon="11.7307436"><ele>277.0</ele><time>2026-05-01T06:13:35.458Z</time></trkpt><trkpt lat="43.4796431" lon="11.7311056"><ele>277.0</ele><time>2026-05-01T06:13:36.457Z</time></trkpt><trkpt lat="43.4795053" lon="11.731467"><ele>277.0</ele><time>2026-05-01T06:13:37.458Z</time></trkpt><trkpt lat="43.4793659" lon="11.7318266"><ele>277.0</ele><time>2026-05-01T06:13:38.458Z</time></trkpt><trkpt lat="43.4792276" lon="11.7321864"><ele>277.0</ele><time>2026-05-01T06:13:39.458Z</time></trkpt><trkpt lat="43.4790915" lon="11.732544"><ele>277.0</ele><time>2026-05-01T06:13:40.458Z</time></trkpt><trkpt lat="43.4789583" lon="11.7329112"><ele>275.5</ele><time>2026-05-01T06:13:41.458Z</time></trkpt><trkpt lat="43.4788232" lon="11.7332736"><ele>274.0</ele><time>2026-05-01T06:13:42.458Z</time></trkpt><trkpt lat="43.4786882" lon="11.7336382"><ele>273.5</ele><time>2026-05-01T06:13:43.457Z</time></trkpt><trkpt lat="43.47855" lon="11.7339973"><ele>273.0</ele><time>2026-05-01T06:13:44.457Z</time></trkpt><trkpt lat="43.478405" lon="11.7343515"><ele>272.5</ele><time>2026-05-01T06:13:45.458Z</time></trkpt><trkpt lat="43.4782512" lon="11.7346993"><ele>272.0</ele><time>2026-05-01T06:13:46.457Z</time></trkpt><trkpt lat="43.4780864" lon="11.7350402"><ele>276.0</ele><time>2026-05-01T06:13:47.457Z</time></trkpt><trkpt lat="43.4779118" lon="11.7353744"><ele>280.0</ele><time>2026-05-01T06:13:48.458Z</time></trkpt><trkpt lat="43.4777344" lon="11.735703"><ele>280.0</ele><time>2026-05-01T06:13:49.457Z</time></trkpt><trkpt lat="43.4775456" lon="11.7360195"><ele>280.0</ele><time>2026-05-01T06:13:50.458Z</time></trkpt><trkpt lat="43.4773472" lon="11.7363253"><ele>280.0</ele><time>2026-05-01T06:13:51.457Z</time></trkpt><trkpt lat="43.4771435" lon="11.7366237"><ele>280.0</ele><time>2026-05-01T06:13:52.458Z</time></trkpt><trkpt lat="43.4769306" lon="11.7369116"><ele>281.0</ele><time>2026-05-01T06:13:53.458Z</time></trkpt><trkpt lat="43.4767137" lon="11.7371891"><ele>282.0</ele><time>2026-05-01T06:13:54.458Z</time></trkpt><trkpt lat="43.4764888" lon="11.7374629"><ele>283.5</ele><time>2026-05-01T06:13:55.458Z</time></trkpt><trkpt lat="43.4762565" lon="11.7377199"><ele>285.0</ele><time>2026-05-01T06:13:56.458Z</time></trkpt><trkpt lat="43.4760187" lon="11.7379713"><ele>285.0</ele><time>2026-05-01T06:13:57.458Z</time></trkpt><trkpt lat="43.4757731" lon="11.7382087"><ele>285.0</ele><time>2026-05-01T06:13:58.458Z</time></trkpt><trkpt lat="43.4755234" lon="11.738435"><ele>283.0</ele><time>2026-05-01T06:13:59.457Z</time></trkpt><trkpt lat="43.475268" lon="11.7386513"><ele>281.0</ele><time>2026-05-01T06:14:00.457Z</time></trkpt><trkpt lat="43.4750084" lon="11.7388541"><ele>281.0</ele><time>2026-05-01T06:14:01.457Z</time></trkpt><trkpt lat="43.4747418" lon="11.7390444"><ele>281.0</ele><time>2026-05-01T06:14:02.458Z</time></trkpt><trkpt lat="43.4744741" lon="11.7392272"><ele>279.0</ele><time>2026-05-01T06:14:03.457Z</time></trkpt><trkpt lat="43.474205" lon="11.7394018"><ele>277.0</ele><time>2026-05-01T06:14:04.457Z</time></trkpt><trkpt lat="43.4739338" lon="11.7395704"><ele>282.0</ele><time>2026-05-01T06:14:05.458Z</time></trkpt><trkpt lat="43.4736625" lon="11.7397358"><ele>287.0</ele><time>2026-05-01T06:14:06.458Z</time></trkpt><trkpt lat="43.4733903" lon="11.7398955"><ele>287.0</ele><time>2026-05-01T06:14:07.458Z</time></trkpt><trkpt lat="43.473116" lon="11.7400593"><ele>287.0</ele><time>2026-05-01T06:14:08.458Z</time></trkpt><trkpt lat="43.4728436" lon="11.7402274"><ele>285.5</ele><time>2026-05-01T06:14:09.458Z</time></trkpt><trkpt lat="43.4725727" lon="11.7404041"><ele>284.0</ele><time>2026-05-01T06:14:10.458Z</time></trkpt><trkpt lat="43.472308" lon="11.7405904"><ele>282.5</ele><time>2026-05-01T06:14:11.457Z</time></trkpt><trkpt lat="43.4720445" lon="11.7407805"><ele>281.0</ele><time>2026-05-01T06:14:12.458Z</time></trkpt><trkpt lat="43.4717815" lon="11.7409758"><ele>281.5</ele><time>2026-05-01T06:14:13.458Z</time></trkpt><trkpt lat="43.4715241" lon="11.7411772"><ele>282.0</ele><time>2026-05-01T06:14:14.457Z</time></trkpt><trkpt lat="43.4712707" lon="11.7413905"><ele>282.0</ele><time>2026-05-01T06:14:15.457Z</time></trkpt><trkpt lat="43.4710178" lon="11.7416088"><ele>282.0</ele><time>2026-05-01T06:14:16.458Z</time></trkpt><trkpt lat="43.4707669" lon="11.7418352"><ele>281.5</ele><time>2026-05-01T06:14:17.458Z</time></trkpt><trkpt lat="43.4705218" lon="11.7420672"><ele>281.0</ele><time>2026-05-01T06:14:18.458Z</time></trkpt><trkpt lat="43.4702746" lon="11.7423024"><ele>282.5</ele><time>2026-05-01T06:14:19.458Z</time></trkpt><trkpt lat="43.4700297" lon="11.7425423"><ele>284.0</ele><time>2026-05-01T06:14:20.458Z</time></trkpt><trkpt lat="43.4697894" lon="11.7427911"><ele>288.0</ele><time>2026-05-01T06:14:21.458Z</time></trkpt><trkpt lat="43.4695516" lon="11.7430453"><ele>292.0</ele><time>2026-05-01T06:14:22.458Z</time></trkpt><trkpt lat="43.4693152" lon="11.7433033"><ele>287.5</ele><time>2026-05-01T06:14:23.458Z</time></trkpt><trkpt lat="43.4690766" lon="11.7435605"><ele>283.0</ele><time>2026-05-01T06:14:24.458Z</time></trkpt><trkpt lat="43.4688354" lon="11.7438086"><ele>287.0</ele><time>2026-05-01T06:14:25.457Z</time></trkpt><trkpt lat="43.4685983" lon="11.7440625"><ele>291.0</ele><time>2026-05-01T06:14:26.458Z</time></trkpt><trkpt lat="43.4683612" lon="11.7443134"><ele>291.0</ele><time>2026-05-01T06:14:27.457Z</time></trkpt><trkpt lat="43.4681262" lon="11.744562"><ele>291.0</ele><time>2026-05-01T06:14:28.458Z</time></trkpt><trkpt lat="43.4678917" lon="11.744812"><ele>291.0</ele><time>2026-05-01T06:14:29.458Z</time></trkpt><trkpt lat="43.4676565" lon="11.7450588"><ele>291.0</ele><time>2026-05-01T06:14:30.457Z</time></trkpt><trkpt lat="43.4674238" lon="11.745304"><ele>287.5</ele><time>2026-05-01T06:14:31.457Z</time></trkpt><trkpt lat="43.4671882" lon="11.7455515"><ele>284.0</ele><time>2026-05-01T06:14:32.458Z</time></trkpt><trkpt lat="43.4669553" lon="11.7458006"><ele>286.5</ele><time>2026-05-01T06:14:33.458Z</time></trkpt><trkpt lat="43.466723" lon="11.7460479"><ele>289.0</ele><time>2026-05-01T06:14:34.458Z</time></trkpt><trkpt lat="43.4664879" lon="11.7462962"><ele>289.5</ele><time>2026-05-01T06:14:35.458Z</time></trkpt><trkpt lat="43.4662562" lon="11.7465455"><ele>290.0</ele><time>2026-05-01T06:14:36.458Z</time></trkpt><trkpt lat="43.4660266" lon="11.7467945"><ele>288.5</ele><time>2026-05-01T06:14:37.458Z</time></trkpt><trkpt lat="43.4657971" lon="11.7470411"><ele>287.0</ele><time>2026-05-01T06:14:38.458Z</time></trkpt><trkpt lat="43.4655657" lon="11.7472866"><ele>290.0</ele><time>2026-05-01T06:14:39.458Z</time></trkpt><trkpt lat="43.465339" lon="11.7475285"><ele>293.0</ele><time>2026-05-01T06:14:40.458Z</time></trkpt><trkpt lat="43.4651149" lon="11.7477739"><ele>293.0</ele><time>2026-05-01T06:14:41.458Z</time></trkpt><trkpt lat="43.4648891" lon="11.7480127"><ele>293.0</ele><time>2026-05-01T06:14:42.458Z</time></trkpt><trkpt lat="43.4646679" lon="11.7482466"><ele>294.5</ele><time>2026-05-01T06:14:43.458Z</time></trkpt><trkpt lat="43.4644488" lon="11.7484746"><ele>296.0</ele><time>2026-05-01T06:14:44.457Z</time></trkpt><trkpt lat="43.4642262" lon="11.7487018"><ele>296.0</ele><time>2026-05-01T06:14:45.458Z</time></trkpt><trkpt lat="43.4640074" lon="11.7489325"><ele>296.0</ele><time>2026-05-01T06:14:46.458Z</time></trkpt><trkpt lat="43.4637916" lon="11.7491516"><ele>299.0</ele><time>2026-05-01T06:14:47.457Z</time></trkpt><trkpt lat="43.4635927" lon="11.7493632"><ele>302.0</ele><time>2026-05-01T06:14:48.458Z</time></trkpt><trkpt lat="43.4634041" lon="11.7495557"><ele>302.0</ele><time>2026-05-01T06:14:49.458Z</time></trkpt><trkpt lat="43.4632287" lon="11.7497335"><ele>302.0</ele><time>2026-05-01T06:14:50.458Z</time></trkpt><trkpt lat="43.4630703" lon="11.7499156"><ele>302.0</ele><time>2026-05-01T06:14:51.457Z</time></trkpt><trkpt lat="43.4629012" lon="11.7500866"><ele>306.6666666666667</ele><time>2026-05-01T06:14:52.458Z</time></trkpt><trkpt lat="43.4627305" lon="11.7502577"><ele>311.3333333333333</ele><time>2026-05-01T06:14:53.457Z</time></trkpt><trkpt lat="43.4625533" lon="11.7504254"><ele>316.0</ele><time>2026-05-01T06:14:54.458Z</time></trkpt><trkpt lat="43.4623626" lon="11.7505795"><ele>316.0</ele><time>2026-05-01T06:14:55.458Z</time></trkpt><trkpt lat="43.4621729" lon="11.7507349"><ele>316.0</ele><time>2026-05-01T06:14:56.458Z</time></trkpt><trkpt lat="43.4619765" lon="11.7508765"><ele>316.0</ele><time>2026-05-01T06:14:57.457Z</time></trkpt><trkpt lat="43.4617902" lon="11.7510095"><ele>318.66666666666663</ele><time>2026-05-01T06:14:58.458Z</time></trkpt><trkpt lat="43.4616184" lon="11.7511301"><ele>321.3333333333333</ele><time>2026-05-01T06:14:59.458Z</time></trkpt><trkpt lat="43.4614609" lon="11.7512298"><ele>324.0</ele><time>2026-05-01T06:15:00.458Z</time></trkpt><trkpt lat="43.4613209" lon="11.7512979"><ele>322.8333333333333</ele><time>2026-05-01T06:15:01.458Z</time></trkpt><trkpt lat="43.4612036" lon="11.7513222"><ele>321.6666666666667</ele><time>2026-05-01T06:15:02.458Z</time></trkpt><trkpt lat="43.4611138" lon="11.7513243"><ele>320.5</ele><time>2026-05-01T06:15:03.458Z</time></trkpt><trkpt lat="43.4610374" lon="11.7513245"><ele>319.33333333333337</ele><time>2026-05-01T06:15:04.457Z</time></trkpt><trkpt lat="43.4609452" lon="11.75134"><ele>318.1666666666667</ele><time>2026-05-01T06:15:06.458Z</time></trkpt><trkpt lat="43.4608927" lon="11.7513899"><ele>317.0</ele><time>2026-05-01T06:15:09.458Z</time></trkpt><trkpt lat="43.460828" lon="11.7513555"><ele>317.0</ele><time>2026-05-01T06:15:23.458Z</time></trkpt><trkpt lat="43.4607812" lon="11.7514145"><ele>317.0</ele><time>2026-05-01T06:15:25.458Z</time></trkpt><trkpt lat="43.4607749" lon="11.7515768"><ele>317.0</ele><time>2026-05-01T06:15:27.458Z</time></trkpt><trkpt lat="43.4607656" lon="11.7516696"><ele>317.0</ele><time>2026-05-01T06:15:28.458Z</time></trkpt><trkpt lat="43.4607377" lon="11.7517728"><ele>317.0</ele><time>2026-05-01T06:15:29.458Z</time></trkpt><trkpt lat="43.4606969" lon="11.7518732"><ele>317.0</ele><time>2026-05-01T06:15:30.457Z</time></trkpt><trkpt lat="43.4606334" lon="11.7519811"><ele>318.0</ele><time>2026-05-01T06:15:31.458Z</time></trkpt><trkpt lat="43.4605496" lon="11.7520686"><ele>319.0</ele><time>2026-05-01T06:15:32.458Z</time></trkpt><trkpt lat="43.4604414" lon="11.7521638"><ele>320.0</ele><time>2026-05-01T06:15:33.458Z</time></trkpt><trkpt lat="43.4603268" lon="11.7522807"><ele>321.0</ele><time>2026-05-01T06:15:34.458Z</time></trkpt><trkpt lat="43.4602109" lon="11.7523964"><ele>321.0</ele><time>2026-05-01T06:15:35.458Z</time></trkpt><trkpt lat="43.4600804" lon="11.7524999"><ele>321.0</ele><time>2026-05-01T06:15:36.458Z</time></trkpt><trkpt lat="43.4599348" lon="11.7526098"><ele>321.0</ele><time>2026-05-01T06:15:37.457Z</time></trkpt><trkpt lat="43.4597821" lon="11.7527171"><ele>322.3333333333333</ele><time>2026-05-01T06:15:38.458Z</time></trkpt><trkpt lat="43.4596165" lon="11.7527971"><ele>323.66666666666663</ele><time>2026-05-01T06:15:39.458Z</time></trkpt><trkpt lat="43.4594346" lon="11.7528851"><ele>325.0</ele><time>2026-05-01T06:15:40.458Z</time></trkpt><trkpt lat="43.4592435" lon="11.7529667"><ele>325.0</ele><time>2026-05-01T06:15:41.458Z</time></trkpt><trkpt lat="43.4590472" lon="11.7530427"><ele>325.0</ele><time>2026-05-01T06:15:42.458Z</time></trkpt><trkpt lat="43.4588432" lon="11.7531291"><ele>325.0</ele><time>2026-05-01T06:15:43.458Z</time></trkpt><trkpt lat="43.4586348" lon="11.7532099"><ele>326.5</ele><time>2026-05-01T06:15:44.458Z</time></trkpt><trkpt lat="43.4584242" lon="11.7532897"><ele>328.0</ele><time>2026-05-01T06:15:45.458Z</time></trkpt><trkpt lat="43.4581971" lon="11.7533645"><ele>328.0</ele><time>2026-05-01T06:15:46.458Z</time></trkpt><trkpt lat="43.4579622" lon="11.7534288"><ele>328.0</ele><time>2026-05-01T06:15:47.458Z</time></trkpt><trkpt lat="43.4577239" lon="11.7534949"><ele>337.0</ele><time>2026-05-01T06:15:48.457Z</time></trkpt><trkpt lat="43.4574806" lon="11.7535632"><ele>346.0</ele><time>2026-05-01T06:15:49.458Z</time></trkpt><trkpt lat="43.4572336" lon="11.7536366"><ele>346.5</ele><time>2026-05-01T06:15:50.458Z</time></trkpt><trkpt lat="43.4569883" lon="11.7537216"><ele>347.0</ele><time>2026-05-01T06:15:51.458Z</time></trkpt><trkpt lat="43.4554341" lon="11.7541338"><ele>347.0</ele><time>2026-05-01T06:15:57.458Z</time></trkpt><trkpt lat="43.4551677" lon="11.7542601"><ele>347.0</ele><time>2026-05-01T06:15:58.458Z</time></trkpt><trkpt lat="43.4548811" lon="11.754317"><ele>340.0</ele><time>2026-05-01T06:15:59.457Z</time></trkpt><trkpt lat="43.4545951" lon="11.7544095"><ele>333.0</ele><time>2026-05-01T06:16:00.458Z</time></trkpt><trkpt lat="43.4543235" lon="11.7544868"><ele>333.0</ele><time>2026-05-01T06:16:01.457Z</time></trkpt><trkpt lat="43.4540581" lon="11.7545674"><ele>333.0</ele><time>2026-05-01T06:16:02.458Z</time></trkpt><trkpt lat="43.4537855" lon="11.7546385"><ele>329.5</ele><time>2026-05-01T06:16:03.458Z</time></trkpt><trkpt lat="43.4535173" lon="11.7547179"><ele>326.0</ele><time>2026-05-01T06:16:04.458Z</time></trkpt><trkpt lat="43.4532474" lon="11.7547827"><ele>326.0</ele><time>2026-05-01T06:16:05.458Z</time></trkpt><trkpt lat="43.4529824" lon="11.7548621"><ele>326.0</ele><time>2026-05-01T06:16:06.458Z</time></trkpt><trkpt lat="43.4527199" lon="11.7549437"><ele>324.0</ele><time>2026-05-01T06:16:07.458Z</time></trkpt><trkpt lat="43.4524526" lon="11.7550237"><ele>322.0</ele><time>2026-05-01T06:16:08.458Z</time></trkpt><trkpt lat="43.4521874" lon="11.7551082"><ele>322.5</ele><time>2026-05-01T06:16:09.458Z</time></trkpt><trkpt lat="43.4519181" lon="11.7551839"><ele>323.0</ele><time>2026-05-01T06:16:10.457Z</time></trkpt><trkpt lat="43.4516567" lon="11.7552594"><ele>323.0</ele><time>2026-05-01T06:16:11.458Z</time></trkpt><trkpt lat="43.451396" lon="11.7553426"><ele>323.0</ele><time>2026-05-01T06:16:12.458Z</time></trkpt><trkpt lat="43.4511462" lon="11.7554197"><ele>319.5</ele><time>2026-05-01T06:16:13.458Z</time></trkpt><trkpt lat="43.450896" lon="11.7555212"><ele>316.0</ele><time>2026-05-01T06:16:14.457Z</time></trkpt><trkpt lat="43.4506512" lon="11.7556449"><ele>311.5</ele><time>2026-05-01T06:16:15.458Z</time></trkpt><trkpt lat="43.450414" lon="11.7558039"><ele>307.0</ele><time>2026-05-01T06:16:16.458Z</time></trkpt><trkpt lat="43.450185" lon="11.7559919"><ele>314.5</ele><time>2026-05-01T06:16:17.458Z</time></trkpt><trkpt lat="43.4499561" lon="11.7561975"><ele>322.0</ele><time>2026-05-01T06:16:18.458Z</time></trkpt><trkpt lat="43.4497472" lon="11.7564214"><ele>316.5</ele><time>2026-05-01T06:16:19.458Z</time></trkpt><trkpt lat="43.4495371" lon="11.7566674"><ele>311.0</ele><time>2026-05-01T06:16:20.458Z</time></trkpt><trkpt lat="43.44934" lon="11.7569405"><ele>311.0</ele><time>2026-05-01T06:16:21.458Z</time></trkpt><trkpt lat="43.4491573" lon="11.7572248"><ele>311.0</ele><time>2026-05-01T06:16:22.458Z</time></trkpt><trkpt lat="43.4489915" lon="11.7575454"><ele>313.5</ele><time>2026-05-01T06:16:23.458Z</time></trkpt><trkpt lat="43.4488417" lon="11.757871"><ele>316.0</ele><time>2026-05-01T06:16:24.458Z</time></trkpt><trkpt lat="43.4487086" lon="11.7582079"><ele>305.5</ele><time>2026-05-01T06:16:25.458Z</time></trkpt><trkpt lat="43.4486064" lon="11.7585808"><ele>295.0</ele><time>2026-05-01T06:16:26.457Z</time></trkpt><trkpt lat="43.4485199" lon="11.7589481"><ele>295.0</ele><time>2026-05-01T06:16:27.458Z</time></trkpt><trkpt lat="43.4484611" lon="11.7593415"><ele>295.0</ele><time>2026-05-01T06:16:28.458Z</time></trkpt><trkpt lat="43.4484013" lon="11.759724"><ele>295.0</ele><time>2026-05-01T06:16:29.457Z</time></trkpt><trkpt lat="43.4483266" lon="11.7601032"><ele>295.0</ele><time>2026-05-01T06:16:30.458Z</time></trkpt><trkpt lat="43.448249" lon="11.7604844"><ele>293.5</ele><time>2026-05-01T06:16:31.457Z</time></trkpt><trkpt lat="43.448176" lon="11.7608716"><ele>292.0</ele><time>2026-05-01T06:16:32.457Z</time></trkpt><trkpt lat="43.4480988" lon="11.7612458"><ele>292.0</ele><time>2026-05-01T06:16:33.458Z</time></trkpt><trkpt lat="43.448029" lon="11.7616253"><ele>292.0</ele><time>2026-05-01T06:16:34.458Z</time></trkpt><trkpt lat="43.447956" lon="11.7620091"><ele>290.0</ele><time>2026-05-01T06:16:35.458Z</time></trkpt><trkpt lat="43.4478875" lon="11.7623871"><ele>288.0</ele><time>2026-05-01T06:16:36.458Z</time></trkpt><trkpt lat="43.4478117" lon="11.7627693"><ele>285.5</ele><time>2026-05-01T06:16:37.458Z</time></trkpt><trkpt lat="43.4477392" lon="11.7631497"><ele>283.0</ele><time>2026-05-01T06:16:38.458Z</time></trkpt><trkpt lat="43.4476624" lon="11.7635272"><ele>282.0</ele><time>2026-05-01T06:16:39.458Z</time></trkpt><trkpt lat="43.4475737" lon="11.7639056"><ele>281.0</ele><time>2026-05-01T06:16:40.458Z</time></trkpt><trkpt lat="43.4474762" lon="11.7642627"><ele>282.0</ele><time>2026-05-01T06:16:41.457Z</time></trkpt><trkpt lat="43.4473652" lon="11.7646172"><ele>283.0</ele><time>2026-05-01T06:16:42.458Z</time></trkpt><trkpt lat="43.4472464" lon="11.7649707"><ele>280.0</ele><time>2026-05-01T06:16:43.457Z</time></trkpt><trkpt lat="43.4471229" lon="11.7653158"><ele>277.0</ele><time>2026-05-01T06:16:44.458Z</time></trkpt><trkpt lat="43.4469937" lon="11.7656646"><ele>277.0</ele><time>2026-05-01T06:16:45.458Z</time></trkpt><trkpt lat="43.4468565" lon="11.7660071"><ele>277.0</ele><time>2026-05-01T06:16:46.458Z</time></trkpt><trkpt lat="43.4467124" lon="11.7663378"><ele>278.5</ele><time>2026-05-01T06:16:47.458Z</time></trkpt><trkpt lat="43.446557" lon="11.7666691"><ele>280.0</ele><time>2026-05-01T06:16:48.457Z</time></trkpt><trkpt lat="43.446395" lon="11.7669858"><ele>276.5</ele><time>2026-05-01T06:16:49.458Z</time></trkpt><trkpt lat="43.446228" lon="11.7672981"><ele>273.0</ele><time>2026-05-01T06:16:50.458Z</time></trkpt><trkpt lat="43.4460549" lon="11.7675925"><ele>274.5</ele><time>2026-05-01T06:16:51.458Z</time></trkpt><trkpt lat="43.4458732" lon="11.7678844"><ele>276.0</ele><time>2026-05-01T06:16:52.458Z</time></trkpt><trkpt lat="43.4456954" lon="11.7681655"><ele>276.0</ele><time>2026-05-01T06:16:53.458Z</time></trkpt><trkpt lat="43.4455127" lon="11.7684397"><ele>276.0</ele><time>2026-05-01T06:16:54.458Z</time></trkpt><trkpt lat="43.4453252" lon="11.768708"><ele>274.0</ele><time>2026-05-01T06:16:55.458Z</time></trkpt><trkpt lat="43.4451364" lon="11.7689814"><ele>272.0</ele><time>2026-05-01T06:16:56.458Z</time></trkpt><trkpt lat="43.4449519" lon="11.7692531"><ele>271.0</ele><time>2026-05-01T06:16:57.457Z</time></trkpt><trkpt lat="43.4447683" lon="11.7695185"><ele>270.0</ele><time>2026-05-01T06:16:58.458Z</time></trkpt><trkpt lat="43.4445832" lon="11.769789"><ele>271.0</ele><time>2026-05-01T06:16:59.458Z</time></trkpt><trkpt lat="43.444395" lon="11.7700544"><ele>272.0</ele><time>2026-05-01T06:17:00.458Z</time></trkpt><trkpt lat="43.4442088" lon="11.7703234"><ele>272.0</ele><time>2026-05-01T06:17:01.458Z</time></trkpt><trkpt lat="43.4440164" lon="11.7705949"><ele>272.0</ele><time>2026-05-01T06:17:02.457Z</time></trkpt><trkpt lat="43.4438202" lon="11.7708666"><ele>271.0</ele><time>2026-05-01T06:17:03.458Z</time></trkpt><trkpt lat="43.4436218" lon="11.7711339"><ele>270.0</ele><time>2026-05-01T06:17:04.457Z</time></trkpt><trkpt lat="43.4434246" lon="11.7714006"><ele>270.0</ele><time>2026-05-01T06:17:05.458Z</time></trkpt><trkpt lat="43.4432206" lon="11.7716523"><ele>270.0</ele><time>2026-05-01T06:17:06.458Z</time></trkpt><trkpt lat="43.4430162" lon="11.7719226"><ele>270.0</ele><time>2026-05-01T06:17:07.458Z</time></trkpt><trkpt lat="43.4428044" lon="11.7721862"><ele>270.0</ele><time>2026-05-01T06:17:08.458Z</time></trkpt><trkpt lat="43.4425946" lon="11.7724346"><ele>270.0</ele><time>2026-05-01T06:17:09.458Z</time></trkpt><trkpt lat="43.4423741" lon="11.7726628"><ele>270.0</ele><time>2026-05-01T06:17:10.458Z</time></trkpt><trkpt lat="43.4421537" lon="11.7728805"><ele>269.0</ele><time>2026-05-01T06:17:11.458Z</time></trkpt><trkpt lat="43.4419243" lon="11.7730919"><ele>268.0</ele><time>2026-05-01T06:17:12.458Z</time></trkpt><trkpt lat="43.441691" lon="11.7733016"><ele>268.0</ele><time>2026-05-01T06:17:13.458Z</time></trkpt><trkpt lat="43.4414558" lon="11.7734964"><ele>268.0</ele><time>2026-05-01T06:17:14.458Z</time></trkpt><trkpt lat="43.4412201" lon="11.7736729"><ele>268.5</ele><time>2026-05-01T06:17:15.458Z</time></trkpt><trkpt lat="43.4409814" lon="11.7738517"><ele>269.0</ele><time>2026-05-01T06:17:16.458Z</time></trkpt><trkpt lat="43.4407421" lon="11.7740124"><ele>269.0</ele><time>2026-05-01T06:17:17.457Z</time></trkpt><trkpt lat="43.4404979" lon="11.7741587"><ele>269.0</ele><time>2026-05-01T06:17:18.457Z</time></trkpt><trkpt lat="43.4402523" lon="11.7743025"><ele>268.0</ele><time>2026-05-01T06:17:19.458Z</time></trkpt><trkpt lat="43.4400008" lon="11.7744348"><ele>267.0</ele><time>2026-05-01T06:17:20.458Z</time></trkpt><trkpt lat="43.4397527" lon="11.7745562"><ele>267.5</ele><time>2026-05-01T06:17:21.458Z</time></trkpt><trkpt lat="43.4394936" lon="11.7746748"><ele>268.0</ele><time>2026-05-01T06:17:22.458Z</time></trkpt><trkpt lat="43.4392349" lon="11.7747799"><ele>268.0</ele><time>2026-05-01T06:17:23.459Z</time></trkpt><trkpt lat="43.4389748" lon="11.7748974"><ele>268.0</ele><time>2026-05-01T06:17:24.458Z</time></trkpt><trkpt lat="43.4387168" lon="11.7750051"><ele>267.0</ele><time>2026-05-01T06:17:25.458Z</time></trkpt><trkpt lat="43.4384614" lon="11.7751153"><ele>266.0</ele><time>2026-05-01T06:17:26.459Z</time></trkpt><trkpt lat="43.4382006" lon="11.7752208"><ele>265.5</ele><time>2026-05-01T06:17:27.459Z</time></trkpt><trkpt lat="43.4379392" lon="11.7753311"><ele>265.0</ele><time>2026-05-01T06:17:28.458Z</time></trkpt><trkpt lat="43.4376925" lon="11.7754418"><ele>265.0</ele><time>2026-05-01T06:17:29.459Z</time></trkpt><trkpt lat="43.4374301" lon="11.775547"><ele>265.0</ele><time>2026-05-01T06:17:30.459Z</time></trkpt><trkpt lat="43.4371737" lon="11.7756535"><ele>265.5</ele><time>2026-05-01T06:17:31.459Z</time></trkpt><trkpt lat="43.4369142" lon="11.7757612"><ele>266.0</ele><time>2026-05-01T06:17:32.459Z</time></trkpt><trkpt lat="43.4366589" lon="11.7758706"><ele>266.0</ele><time>2026-05-01T06:17:33.459Z</time></trkpt><trkpt lat="43.436399" lon="11.7759806"><ele>266.0</ele><time>2026-05-01T06:17:34.459Z</time></trkpt><trkpt lat="43.4361406" lon="11.7760977"><ele>265.0</ele><time>2026-05-01T06:17:35.458Z</time></trkpt><trkpt lat="43.4358781" lon="11.7762077"><ele>264.0</ele><time>2026-05-01T06:17:36.458Z</time></trkpt><trkpt lat="43.4356151" lon="11.7763078"><ele>263.5</ele><time>2026-05-01T06:17:37.459Z</time></trkpt><trkpt lat="43.4353513" lon="11.7764149"><ele>263.0</ele><time>2026-05-01T06:17:38.459Z</time></trkpt><trkpt lat="43.435091" lon="11.7765198"><ele>263.0</ele><time>2026-05-01T06:17:39.458Z</time></trkpt><trkpt lat="43.4348311" lon="11.776633"><ele>263.0</ele><time>2026-05-01T06:17:40.459Z</time></trkpt><trkpt lat="43.4345706" lon="11.7767419"><ele>263.0</ele><time>2026-05-01T06:17:41.459Z</time></trkpt><trkpt lat="43.4343106" lon="11.7768391"><ele>263.0</ele><time>2026-05-01T06:17:42.459Z</time></trkpt><trkpt lat="43.4340513" lon="11.7769422"><ele>263.0</ele><time>2026-05-01T06:17:43.459Z</time></trkpt><trkpt lat="43.4337902" lon="11.7770524"><ele>263.0</ele><time>2026-05-01T06:17:44.458Z</time></trkpt><trkpt lat="43.4335243" lon="11.7771645"><ele>263.0</ele><time>2026-05-01T06:17:45.459Z</time></trkpt><trkpt lat="43.4332579" lon="11.7772766"><ele>263.0</ele><time>2026-05-01T06:17:46.458Z</time></trkpt><trkpt lat="43.4329914" lon="11.7773764"><ele>263.0</ele><time>2026-05-01T06:17:47.459Z</time></trkpt><trkpt lat="43.4327253" lon="11.7774839"><ele>263.0</ele><time>2026-05-01T06:17:48.458Z</time></trkpt><trkpt lat="43.4324587" lon="11.7775971"><ele>262.5</ele><time>2026-05-01T06:17:49.459Z</time></trkpt><trkpt lat="43.4321928" lon="11.7777121"><ele>262.0</ele><time>2026-05-01T06:17:50.459Z</time></trkpt><trkpt lat="43.4319296" lon="11.7778212"><ele>261.5</ele><time>2026-05-01T06:17:51.458Z</time></trkpt><trkpt lat="43.4316566" lon="11.7779322"><ele>261.0</ele><time>2026-05-01T06:17:52.459Z</time></trkpt><trkpt lat="43.4313813" lon="11.7780398"><ele>260.5</ele><time>2026-05-01T06:17:53.459Z</time></trkpt><trkpt lat="43.4311036" lon="11.7781388"><ele>260.0</ele><time>2026-05-01T06:17:54.459Z</time></trkpt><trkpt lat="43.4308262" lon="11.7782244"><ele>260.0</ele><time>2026-05-01T06:17:55.459Z</time></trkpt><trkpt lat="43.430544" lon="11.7783009"><ele>260.0</ele><time>2026-05-01T06:17:56.458Z</time></trkpt><trkpt lat="43.4302617" lon="11.7783517"><ele>259.5</ele><time>2026-05-01T06:17:57.459Z</time></trkpt><trkpt lat="43.4299821" lon="11.7784049"><ele>259.0</ele><time>2026-05-01T06:17:58.458Z</time></trkpt><trkpt lat="43.4296963" lon="11.7784403"><ele>260.0</ele><time>2026-05-01T06:17:59.458Z</time></trkpt><trkpt lat="43.429412" lon="11.7784672"><ele>261.0</ele><time>2026-05-01T06:18:00.459Z</time></trkpt><trkpt lat="43.4291276" lon="11.778473"><ele>261.0</ele><time>2026-05-01T06:18:01.459Z</time></trkpt><trkpt lat="43.428844" lon="11.7784762"><ele>261.0</ele><time>2026-05-01T06:18:02.459Z</time></trkpt><trkpt lat="43.4285603" lon="11.7784638"><ele>260.5</ele><time>2026-05-01T06:18:03.459Z</time></trkpt><trkpt lat="43.4282806" lon="11.7784351"><ele>260.0</ele><time>2026-05-01T06:18:04.459Z</time></trkpt><trkpt lat="43.4279992" lon="11.7783916"><ele>260.5</ele><time>2026-05-01T06:18:05.458Z</time></trkpt><trkpt lat="43.427719" lon="11.7783426"><ele>261.0</ele><time>2026-05-01T06:18:06.459Z</time></trkpt><trkpt lat="43.4274416" lon="11.7782845"><ele>261.0</ele><time>2026-05-01T06:18:07.459Z</time></trkpt><trkpt lat="43.4271659" lon="11.7782146"><ele>261.0</ele><time>2026-05-01T06:18:08.459Z</time></trkpt><trkpt lat="43.4268917" lon="11.7781258"><ele>261.0</ele><time>2026-05-01T06:18:09.458Z</time></trkpt><trkpt lat="43.4266181" lon="11.7780293"><ele>261.0</ele><time>2026-05-01T06:18:10.458Z</time></trkpt><trkpt lat="43.4263475" lon="11.7779223"><ele>259.5</ele><time>2026-05-01T06:18:11.459Z</time></trkpt><trkpt lat="43.4260759" lon="11.7777903"><ele>258.0</ele><time>2026-05-01T06:18:12.459Z</time></trkpt><trkpt lat="43.4258125" lon="11.7776514"><ele>258.0</ele><time>2026-05-01T06:18:13.459Z</time></trkpt><trkpt lat="43.4255528" lon="11.7775125"><ele>258.0</ele><time>2026-05-01T06:18:14.459Z</time></trkpt><trkpt lat="43.4252903" lon="11.7773631"><ele>258.0</ele><time>2026-05-01T06:18:15.459Z</time></trkpt><trkpt lat="43.4250321" lon="11.7771893"><ele>258.0</ele><time>2026-05-01T06:18:16.459Z</time></trkpt><trkpt lat="43.4247807" lon="11.7770184"><ele>258.0</ele><time>2026-05-01T06:18:17.459Z</time></trkpt><trkpt lat="43.4245372" lon="11.7768217"><ele>258.0</ele><time>2026-05-01T06:18:18.459Z</time></trkpt><trkpt lat="43.4242979" lon="11.7766268"><ele>258.0</ele><time>2026-05-01T06:18:19.459Z</time></trkpt><trkpt lat="43.424061" lon="11.7764196"><ele>258.0</ele><time>2026-05-01T06:18:20.459Z</time></trkpt><trkpt lat="43.4238217" lon="11.7762186"><ele>259.5</ele><time>2026-05-01T06:18:21.459Z</time></trkpt><trkpt lat="43.4235792" lon="11.7760114"><ele>261.0</ele><time>2026-05-01T06:18:22.458Z</time></trkpt><trkpt lat="43.4233408" lon="11.7757962"><ele>261.0</ele><time>2026-05-01T06:18:23.459Z</time></trkpt><trkpt lat="43.4230972" lon="11.7755861"><ele>261.0</ele><time>2026-05-01T06:18:24.459Z</time></trkpt><trkpt lat="43.4228574" lon="11.7753774"><ele>261.0</ele><time>2026-05-01T06:18:25.458Z</time></trkpt><trkpt lat="43.4226122" lon="11.7751598"><ele>261.0</ele><time>2026-05-01T06:18:26.458Z</time></trkpt><trkpt lat="43.4223704" lon="11.7749472"><ele>260.5</ele><time>2026-05-01T06:18:27.459Z</time></trkpt><trkpt lat="43.4221292" lon="11.7747393"><ele>260.0</ele><time>2026-05-01T06:18:28.458Z</time></trkpt><trkpt lat="43.4218862" lon="11.7745299"><ele>261.0</ele><time>2026-05-01T06:18:29.459Z</time></trkpt><trkpt lat="43.4216446" lon="11.7743235"><ele>262.0</ele><time>2026-05-01T06:18:30.459Z</time></trkpt><trkpt lat="43.4214026" lon="11.7741177"><ele>262.0</ele><time>2026-05-01T06:18:31.459Z</time></trkpt><trkpt lat="43.4211657" lon="11.7739069"><ele>262.0</ele><time>2026-05-01T06:18:32.459Z</time></trkpt><trkpt lat="43.42093" lon="11.7736987"><ele>262.0</ele><time>2026-05-01T06:18:33.459Z</time></trkpt><trkpt lat="43.4206968" lon="11.7734956"><ele>262.0</ele><time>2026-05-01T06:18:34.459Z</time></trkpt><trkpt lat="43.4204653" lon="11.7732952"><ele>262.0</ele><time>2026-05-01T06:18:35.458Z</time></trkpt><trkpt lat="43.4202359" lon="11.773095"><ele>262.0</ele><time>2026-05-01T06:18:36.459Z</time></trkpt><trkpt lat="43.4200064" lon="11.7729026"><ele>262.0</ele><time>2026-05-01T06:18:37.459Z</time></trkpt><trkpt lat="43.4197764" lon="11.7727106"><ele>262.0</ele><time>2026-05-01T06:18:38.459Z</time></trkpt><trkpt lat="43.4195529" lon="11.7725178"><ele>264.5</ele><time>2026-05-01T06:18:39.459Z</time></trkpt><trkpt lat="43.4193332" lon="11.772318"><ele>267.0</ele><time>2026-05-01T06:18:40.459Z</time></trkpt><trkpt lat="43.4191111" lon="11.7721324"><ele>267.0</ele><time>2026-05-01T06:18:41.459Z</time></trkpt><trkpt lat="43.418897" lon="11.7719462"><ele>267.0</ele><time>2026-05-01T06:18:42.459Z</time></trkpt><trkpt lat="43.4186773" lon="11.7717559"><ele>269.0</ele><time>2026-05-01T06:18:43.459Z</time></trkpt><trkpt lat="43.4184591" lon="11.7715593"><ele>271.0</ele><time>2026-05-01T06:18:44.458Z</time></trkpt><trkpt lat="43.4182304" lon="11.7713592"><ele>271.0</ele><time>2026-05-01T06:18:45.459Z</time></trkpt><trkpt lat="43.4180054" lon="11.7711619"><ele>271.0</ele><time>2026-05-01T06:18:46.459Z</time></trkpt><trkpt lat="43.4177768" lon="11.7709648"><ele>270.5</ele><time>2026-05-01T06:18:47.458Z</time></trkpt><trkpt lat="43.4175442" lon="11.7707681"><ele>270.0</ele><time>2026-05-01T06:18:48.459Z</time></trkpt><trkpt lat="43.4173096" lon="11.7705617"><ele>269.5</ele><time>2026-05-01T06:18:49.458Z</time></trkpt><trkpt lat="43.4170716" lon="11.7703605"><ele>269.0</ele><time>2026-05-01T06:18:50.459Z</time></trkpt><trkpt lat="43.4168322" lon="11.7701553"><ele>269.0</ele><time>2026-05-01T06:18:51.458Z</time></trkpt><trkpt lat="43.416596" lon="11.7699446"><ele>269.0</ele><time>2026-05-01T06:18:52.459Z</time></trkpt><trkpt lat="43.4163637" lon="11.7697458"><ele>267.0</ele><time>2026-05-01T06:18:53.458Z</time></trkpt><trkpt lat="43.4161235" lon="11.7695377"><ele>265.0</ele><time>2026-05-01T06:18:54.458Z</time></trkpt><trkpt lat="43.4158833" lon="11.7693273"><ele>265.0</ele><time>2026-05-01T06:18:55.459Z</time></trkpt><trkpt lat="43.4156426" lon="11.7691258"><ele>265.0</ele><time>2026-05-01T06:18:56.459Z</time></trkpt><trkpt lat="43.4154015" lon="11.7689166"><ele>264.5</ele><time>2026-05-01T06:18:57.459Z</time></trkpt><trkpt lat="43.4151593" lon="11.7687141"><ele>264.0</ele><time>2026-05-01T06:18:58.459Z</time></trkpt><trkpt lat="43.4149185" lon="11.7685065"><ele>263.5</ele><time>2026-05-01T06:18:59.459Z</time></trkpt><trkpt lat="43.4146788" lon="11.7682955"><ele>263.0</ele><time>2026-05-01T06:19:00.459Z</time></trkpt><trkpt lat="43.4144442" lon="11.768093"><ele>263.0</ele><time>2026-05-01T06:19:01.458Z</time></trkpt><trkpt lat="43.4142002" lon="11.7678861"><ele>263.0</ele><time>2026-05-01T06:19:02.459Z</time></trkpt><trkpt lat="43.4139542" lon="11.7676845"><ele>264.0</ele><time>2026-05-01T06:19:03.459Z</time></trkpt><trkpt lat="43.4137082" lon="11.7674856"><ele>265.0</ele><time>2026-05-01T06:19:04.458Z</time></trkpt><trkpt lat="43.4134591" lon="11.7672976"><ele>265.0</ele><time>2026-05-01T06:19:05.458Z</time></trkpt><trkpt lat="43.4132077" lon="11.7671088"><ele>265.0</ele><time>2026-05-01T06:19:06.459Z</time></trkpt><trkpt lat="43.4129559" lon="11.7669194"><ele>266.5</ele><time>2026-05-01T06:19:07.458Z</time></trkpt><trkpt lat="43.4127025" lon="11.7667338"><ele>268.0</ele><time>2026-05-01T06:19:08.459Z</time></trkpt><trkpt lat="43.4124533" lon="11.7665615"><ele>268.0</ele><time>2026-05-01T06:19:09.459Z</time></trkpt><trkpt lat="43.4121939" lon="11.7663824"><ele>268.0</ele><time>2026-05-01T06:19:10.459Z</time></trkpt><trkpt lat="43.4119401" lon="11.7662124"><ele>270.5</ele><time>2026-05-01T06:19:11.459Z</time></trkpt><trkpt lat="43.4116837" lon="11.766042"><ele>273.0</ele><time>2026-05-01T06:19:12.459Z</time></trkpt><trkpt lat="43.4114181" lon="11.7658721"><ele>276.0</ele><time>2026-05-01T06:19:13.458Z</time></trkpt><trkpt lat="43.4111539" lon="11.7657064"><ele>279.0</ele><time>2026-05-01T06:19:14.459Z</time></trkpt><trkpt lat="43.4108853" lon="11.7655439"><ele>279.0</ele><time>2026-05-01T06:19:15.459Z</time></trkpt><trkpt lat="43.4106124" lon="11.7653889"><ele>279.0</ele><time>2026-05-01T06:19:16.459Z</time></trkpt><trkpt lat="43.4103405" lon="11.7652345"><ele>278.0</ele><time>2026-05-01T06:19:17.459Z</time></trkpt><trkpt lat="43.4100728" lon="11.7650829"><ele>277.0</ele><time>2026-05-01T06:19:18.459Z</time></trkpt><trkpt lat="43.4098112" lon="11.7649356"><ele>276.5</ele><time>2026-05-01T06:19:19.459Z</time></trkpt><trkpt lat="43.4095482" lon="11.7647871"><ele>276.0</ele><time>2026-05-01T06:19:20.459Z</time></trkpt><trkpt lat="43.4092834" lon="11.7646484"><ele>276.0</ele><time>2026-05-01T06:19:21.459Z</time></trkpt><trkpt lat="43.4090238" lon="11.7645117"><ele>276.0</ele><time>2026-05-01T06:19:22.459Z</time></trkpt><trkpt lat="43.4087668" lon="11.7643685"><ele>275.0</ele><time>2026-05-01T06:19:23.459Z</time></trkpt><trkpt lat="43.4085109" lon="11.7642303"><ele>274.0</ele><time>2026-05-01T06:19:24.459Z</time></trkpt><trkpt lat="43.4082509" lon="11.7640969"><ele>274.0</ele><time>2026-05-01T06:19:25.459Z</time></trkpt><trkpt lat="43.4079948" lon="11.7639548"><ele>274.0</ele><time>2026-05-01T06:19:26.458Z</time></trkpt><trkpt lat="43.4077382" lon="11.7638131"><ele>274.5</ele><time>2026-05-01T06:19:27.459Z</time></trkpt><trkpt lat="43.407481" lon="11.7636761"><ele>275.0</ele><time>2026-05-01T06:19:28.458Z</time></trkpt><trkpt lat="43.4072236" lon="11.7635339"><ele>276.0</ele><time>2026-05-01T06:19:29.459Z</time></trkpt><trkpt lat="43.4069661" lon="11.7633905"><ele>277.0</ele><time>2026-05-01T06:19:30.459Z</time></trkpt><trkpt lat="43.4067056" lon="11.7632522"><ele>277.0</ele><time>2026-05-01T06:19:31.458Z</time></trkpt><trkpt lat="43.4064443" lon="11.7631143"><ele>277.0</ele><time>2026-05-01T06:19:32.458Z</time></trkpt><trkpt lat="43.4061889" lon="11.7629716"><ele>277.0</ele><time>2026-05-01T06:19:33.459Z</time></trkpt><trkpt lat="43.4059409" lon="11.7628352"><ele>277.0</ele><time>2026-05-01T06:19:34.459Z</time></trkpt><trkpt lat="43.4056929" lon="11.7626983"><ele>277.5</ele><time>2026-05-01T06:19:35.458Z</time></trkpt><trkpt lat="43.4054404" lon="11.7625556"><ele>278.0</ele><time>2026-05-01T06:19:36.458Z</time></trkpt><trkpt lat="43.4051889" lon="11.762422"><ele>278.0</ele><time>2026-05-01T06:19:37.459Z</time></trkpt><trkpt lat="43.4049313" lon="11.7622836"><ele>278.0</ele><time>2026-05-01T06:19:38.458Z</time></trkpt><trkpt lat="43.4046758" lon="11.7621526"><ele>278.5</ele><time>2026-05-01T06:19:39.459Z</time></trkpt><trkpt lat="43.4044142" lon="11.7620086"><ele>279.0</ele><time>2026-05-01T06:19:40.458Z</time></trkpt><trkpt lat="43.4041563" lon="11.7618634"><ele>279.0</ele><time>2026-05-01T06:19:41.459Z</time></trkpt><trkpt lat="43.4038946" lon="11.7617248"><ele>279.0</ele><time>2026-05-01T06:19:42.459Z</time></trkpt><trkpt lat="43.4036313" lon="11.7615882"><ele>278.5</ele><time>2026-05-01T06:19:43.459Z</time></trkpt><trkpt lat="43.4033679" lon="11.761446"><ele>278.0</ele><time>2026-05-01T06:19:44.459Z</time></trkpt><trkpt lat="43.4031075" lon="11.7612979"><ele>279.5</ele><time>2026-05-01T06:19:45.459Z</time></trkpt><trkpt lat="43.4028475" lon="11.7611536"><ele>281.0</ele><time>2026-05-01T06:19:46.459Z</time></trkpt><trkpt lat="43.4025898" lon="11.7610096"><ele>281.0</ele><time>2026-05-01T06:19:47.459Z</time></trkpt><trkpt lat="43.4023301" lon="11.7608681"><ele>281.0</ele><time>2026-05-01T06:19:48.459Z</time></trkpt><trkpt lat="43.4020674" lon="11.7607247"><ele>283.0</ele><time>2026-05-01T06:19:49.459Z</time></trkpt><trkpt lat="43.4018058" lon="11.7605843"><ele>285.0</ele><time>2026-05-01T06:19:50.459Z</time></trkpt><trkpt lat="43.4015401" lon="11.7604416"><ele>285.0</ele><time>2026-05-01T06:19:51.459Z</time></trkpt><trkpt lat="43.4012871" lon="11.7602968"><ele>285.0</ele><time>2026-05-01T06:19:52.459Z</time></trkpt><trkpt lat="43.4010297" lon="11.760167"><ele>283.5</ele><time>2026-05-01T06:19:53.459Z</time></trkpt><trkpt lat="43.4007751" lon="11.7600261"><ele>282.0</ele><time>2026-05-01T06:19:54.459Z</time></trkpt><trkpt lat="43.4005218" lon="11.75988"><ele>279.0</ele><time>2026-05-01T06:19:55.458Z</time></trkpt><trkpt lat="43.4002666" lon="11.7597402"><ele>276.0</ele><time>2026-05-01T06:19:56.459Z</time></trkpt><trkpt lat="43.400006" lon="11.7595988"><ele>276.0</ele><time>2026-05-01T06:19:57.459Z</time></trkpt><trkpt lat="43.3997506" lon="11.7594621"><ele>276.0</ele><time>2026-05-01T06:19:58.459Z</time></trkpt><trkpt lat="43.3994929" lon="11.7593211"><ele>274.5</ele><time>2026-05-01T06:19:59.458Z</time></trkpt><trkpt lat="43.3992326" lon="11.7591847"><ele>273.0</ele><time>2026-05-01T06:20:00.458Z</time></trkpt><trkpt lat="43.3989789" lon="11.7590473"><ele>273.5</ele><time>2026-05-01T06:20:01.458Z</time></trkpt><trkpt lat="43.3987265" lon="11.7589083"><ele>274.0</ele><time>2026-05-01T06:20:02.459Z</time></trkpt><trkpt lat="43.3984736" lon="11.758774"><ele>274.0</ele><time>2026-05-01T06:20:03.459Z</time></trkpt><trkpt lat="43.3982126" lon="11.7586377"><ele>274.0</ele><time>2026-05-01T06:20:04.458Z</time></trkpt><trkpt lat="43.3979653" lon="11.7585014"><ele>276.5</ele><time>2026-05-01T06:20:05.458Z</time></trkpt><trkpt lat="43.3977117" lon="11.7583623"><ele>279.0</ele><time>2026-05-01T06:20:06.459Z</time></trkpt><trkpt lat="43.3974589" lon="11.7582296"><ele>279.0</ele><time>2026-05-01T06:20:07.459Z</time></trkpt><trkpt lat="43.397211" lon="11.7580973"><ele>279.0</ele><time>2026-05-01T06:20:08.459Z</time></trkpt><trkpt lat="43.3969703" lon="11.7579758"><ele>280.5</ele><time>2026-05-01T06:20:09.459Z</time></trkpt><trkpt lat="43.3967152" lon="11.7578499"><ele>282.0</ele><time>2026-05-01T06:20:10.459Z</time></trkpt><trkpt lat="43.3964531" lon="11.757733"><ele>281.0</ele><time>2026-05-01T06:20:11.458Z</time></trkpt><trkpt lat="43.3961896" lon="11.7576219"><ele>280.0</ele><time>2026-05-01T06:20:12.459Z</time></trkpt><trkpt lat="43.3959093" lon="11.7575159"><ele>280.0</ele><time>2026-05-01T06:20:13.459Z</time></trkpt><trkpt lat="43.3956156" lon="11.7574188"><ele>280.0</ele><time>2026-05-01T06:20:14.458Z</time></trkpt><trkpt lat="43.3953281" lon="11.7573208"><ele>281.0</ele><time>2026-05-01T06:20:15.459Z</time></trkpt><trkpt lat="43.3950364" lon="11.7572211"><ele>282.0</ele><time>2026-05-01T06:20:16.459Z</time></trkpt><trkpt lat="43.3947424" lon="11.7571187"><ele>283.0</ele><time>2026-05-01T06:20:17.459Z</time></trkpt><trkpt lat="43.3944499" lon="11.7570243"><ele>284.0</ele><time>2026-05-01T06:20:18.459Z</time></trkpt><trkpt lat="43.3941602" lon="11.756938"><ele>284.5</ele><time>2026-05-01T06:20:19.458Z</time></trkpt><trkpt lat="43.3938644" lon="11.756865"><ele>285.0</ele><time>2026-05-01T06:20:20.459Z</time></trkpt><trkpt lat="43.3935697" lon="11.7567946"><ele>285.0</ele><time>2026-05-01T06:20:21.459Z</time></trkpt><trkpt lat="43.3932849" lon="11.7567353"><ele>285.0</ele><time>2026-05-01T06:20:22.459Z</time></trkpt><trkpt lat="43.392994" lon="11.7566916"><ele>284.5</ele><time>2026-05-01T06:20:23.459Z</time></trkpt><trkpt lat="43.3927142" lon="11.7566603"><ele>284.0</ele><time>2026-05-01T06:20:24.459Z</time></trkpt><trkpt lat="43.3924294" lon="11.7566212"><ele>284.5</ele><time>2026-05-01T06:20:25.459Z</time></trkpt><trkpt lat="43.3921464" lon="11.756602"><ele>285.0</ele><time>2026-05-01T06:20:26.458Z</time></trkpt><trkpt lat="43.3918591" lon="11.7565716"><ele>285.0</ele><time>2026-05-01T06:20:27.459Z</time></trkpt><trkpt lat="43.3915767" lon="11.7565486"><ele>285.0</ele><time>2026-05-01T06:20:28.459Z</time></trkpt><trkpt lat="43.3913" lon="11.7565314"><ele>285.0</ele><time>2026-05-01T06:20:29.458Z</time></trkpt><trkpt lat="43.3910184" lon="11.7565296"><ele>285.0</ele><time>2026-05-01T06:20:30.458Z</time></trkpt><trkpt lat="43.3907411" lon="11.7565277"><ele>284.5</ele><time>2026-05-01T06:20:31.458Z</time></trkpt><trkpt lat="43.3904635" lon="11.7565289"><ele>284.0</ele><time>2026-05-01T06:20:32.459Z</time></trkpt><trkpt lat="43.3901804" lon="11.7565319"><ele>284.0</ele><time>2026-05-01T06:20:33.459Z</time></trkpt><trkpt lat="43.3899008" lon="11.7565367"><ele>284.0</ele><time>2026-05-01T06:20:34.459Z</time></trkpt><trkpt lat="43.3896246" lon="11.756543"><ele>284.5</ele><time>2026-05-01T06:20:35.459Z</time></trkpt><trkpt lat="43.3893458" lon="11.7565434"><ele>285.0</ele><time>2026-05-01T06:20:36.459Z</time></trkpt><trkpt lat="43.3890643" lon="11.7565375"><ele>285.0</ele><time>2026-05-01T06:20:37.459Z</time></trkpt><trkpt lat="43.3887838" lon="11.7565402"><ele>285.0</ele><time>2026-05-01T06:20:38.458Z</time></trkpt><trkpt lat="43.3885077" lon="11.7565394"><ele>285.0</ele><time>2026-05-01T06:20:39.458Z</time></trkpt><trkpt lat="43.3882293" lon="11.756539"><ele>285.0</ele><time>2026-05-01T06:20:40.458Z</time></trkpt><trkpt lat="43.3879448" lon="11.7565459"><ele>285.5</ele><time>2026-05-01T06:20:41.458Z</time></trkpt><trkpt lat="43.3876653" lon="11.756549"><ele>286.0</ele><time>2026-05-01T06:20:42.459Z</time></trkpt><trkpt lat="43.3873841" lon="11.756553"><ele>286.0</ele><time>2026-05-01T06:20:43.458Z</time></trkpt><trkpt lat="43.3871033" lon="11.7565571"><ele>286.0</ele><time>2026-05-01T06:20:44.459Z</time></trkpt><trkpt lat="43.3868242" lon="11.7565643"><ele>286.0</ele><time>2026-05-01T06:20:45.459Z</time></trkpt><trkpt lat="43.3865438" lon="11.7565683"><ele>286.0</ele><time>2026-05-01T06:20:46.459Z</time></trkpt><trkpt lat="43.3862594" lon="11.7565693"><ele>286.0</ele><time>2026-05-01T06:20:47.459Z</time></trkpt><trkpt lat="43.3859735" lon="11.7565654"><ele>286.0</ele><time>2026-05-01T06:20:48.459Z</time></trkpt><trkpt lat="43.3856897" lon="11.7565626"><ele>284.5</ele><time>2026-05-01T06:20:49.459Z</time></trkpt><trkpt lat="43.3854082" lon="11.7565593"><ele>283.0</ele><time>2026-05-01T06:20:50.459Z</time></trkpt><trkpt lat="43.3851269" lon="11.7565578"><ele>283.0</ele><time>2026-05-01T06:20:51.459Z</time></trkpt><trkpt lat="43.3848448" lon="11.7565632"><ele>283.0</ele><time>2026-05-01T06:20:52.459Z</time></trkpt><trkpt lat="43.3845649" lon="11.7565689"><ele>281.5</ele><time>2026-05-01T06:20:53.459Z</time></trkpt><trkpt lat="43.3842879" lon="11.7565712"><ele>280.0</ele><time>2026-05-01T06:20:54.459Z</time></trkpt><trkpt lat="43.384017" lon="11.7565805"><ele>279.0</ele><time>2026-05-01T06:20:55.459Z</time></trkpt><trkpt lat="43.383749" lon="11.7565794"><ele>278.0</ele><time>2026-05-01T06:20:56.459Z</time></trkpt><trkpt lat="43.3834832" lon="11.756581"><ele>278.0</ele><time>2026-05-01T06:20:57.459Z</time></trkpt><trkpt lat="43.3832168" lon="11.7565789"><ele>278.0</ele><time>2026-05-01T06:20:58.459Z</time></trkpt><trkpt lat="43.3829534" lon="11.7565812"><ele>278.5</ele><time>2026-05-01T06:20:59.459Z</time></trkpt><trkpt lat="43.3826842" lon="11.756585"><ele>279.0</ele><time>2026-05-01T06:21:00.458Z</time></trkpt><trkpt lat="43.382418" lon="11.7565884"><ele>278.5</ele><time>2026-05-01T06:21:01.459Z</time></trkpt><trkpt lat="43.3821451" lon="11.7565902"><ele>278.0</ele><time>2026-05-01T06:21:02.458Z</time></trkpt><trkpt lat="43.3818717" lon="11.756593"><ele>278.0</ele><time>2026-05-01T06:21:03.459Z</time></trkpt><trkpt lat="43.3816002" lon="11.7565923"><ele>278.0</ele><time>2026-05-01T06:21:04.458Z</time></trkpt><trkpt lat="43.3813311" lon="11.7565919"><ele>277.5</ele><time>2026-05-01T06:21:05.459Z</time></trkpt><trkpt lat="43.3810609" lon="11.7565927"><ele>277.0</ele><time>2026-05-01T06:21:06.459Z</time></trkpt><trkpt lat="43.3807926" lon="11.7565958"><ele>277.0</ele><time>2026-05-01T06:21:07.459Z</time></trkpt><trkpt lat="43.3805229" lon="11.7565958"><ele>277.0</ele><time>2026-05-01T06:21:08.459Z</time></trkpt><trkpt lat="43.3802541" lon="11.7566001"><ele>275.0</ele><time>2026-05-01T06:21:09.458Z</time></trkpt><trkpt lat="43.3799856" lon="11.7566071"><ele>273.0</ele><time>2026-05-01T06:21:10.458Z</time></trkpt><trkpt lat="43.3797141" lon="11.7566125"><ele>272.0</ele><time>2026-05-01T06:21:11.459Z</time></trkpt><trkpt lat="43.37943" lon="11.7566243"><ele>271.0</ele><time>2026-05-01T06:21:12.459Z</time></trkpt><trkpt lat="43.3791457" lon="11.7566314"><ele>271.0</ele><time>2026-05-01T06:21:13.459Z</time></trkpt><trkpt lat="43.378859" lon="11.7566406"><ele>271.0</ele><time>2026-05-01T06:21:14.459Z</time></trkpt><trkpt lat="43.3785718" lon="11.7566515"><ele>270.0</ele><time>2026-05-01T06:21:15.459Z</time></trkpt><trkpt lat="43.3782806" lon="11.7566552"><ele>269.0</ele><time>2026-05-01T06:21:16.458Z</time></trkpt><trkpt lat="43.3779901" lon="11.7566614"><ele>269.0</ele><time>2026-05-01T06:21:17.459Z</time></trkpt><trkpt lat="43.3777018" lon="11.7566581"><ele>269.0</ele><time>2026-05-01T06:21:18.459Z</time></trkpt><trkpt lat="43.3774143" lon="11.7566514"><ele>269.0</ele><time>2026-05-01T06:21:19.459Z</time></trkpt><trkpt lat="43.3771268" lon="11.7566534"><ele>269.0</ele><time>2026-05-01T06:21:20.458Z</time></trkpt><trkpt lat="43.3768408" lon="11.7566526"><ele>269.0</ele><time>2026-05-01T06:21:21.459Z</time></trkpt><trkpt lat="43.3765544" lon="11.7566591"><ele>269.0</ele><time>2026-05-01T06:21:22.458Z</time></trkpt><trkpt lat="43.3762639" lon="11.7566668"><ele>268.0</ele><time>2026-05-01T06:21:23.458Z</time></trkpt><trkpt lat="43.3759767" lon="11.7566751"><ele>267.0</ele><time>2026-05-01T06:21:24.459Z</time></trkpt><trkpt lat="43.3756843" lon="11.7566807"><ele>267.0</ele><time>2026-05-01T06:21:25.459Z</time></trkpt><trkpt lat="43.375392" lon="11.7566755"><ele>267.0</ele><time>2026-05-01T06:21:26.459Z</time></trkpt><trkpt lat="43.3751027" lon="11.7566801"><ele>267.0</ele><time>2026-05-01T06:21:27.459Z</time></trkpt><trkpt lat="43.3748139" lon="11.7566863"><ele>267.0</ele><time>2026-05-01T06:21:28.458Z</time></trkpt><trkpt lat="43.3745246" lon="11.7566868"><ele>267.5</ele><time>2026-05-01T06:21:29.459Z</time></trkpt><trkpt lat="43.3742419" lon="11.7567016"><ele>268.0</ele><time>2026-05-01T06:21:30.459Z</time></trkpt><trkpt lat="43.3739587" lon="11.7567183"><ele>268.5</ele><time>2026-05-01T06:21:31.459Z</time></trkpt><trkpt lat="43.3736731" lon="11.7567412"><ele>269.0</ele><time>2026-05-01T06:21:32.459Z</time></trkpt><trkpt lat="43.3733888" lon="11.7567835"><ele>269.0</ele><time>2026-05-01T06:21:33.458Z</time></trkpt><trkpt lat="43.3731043" lon="11.7568219"><ele>269.0</ele><time>2026-05-01T06:21:34.459Z</time></trkpt><trkpt lat="43.3728238" lon="11.7568709"><ele>268.5</ele><time>2026-05-01T06:21:35.459Z</time></trkpt><trkpt lat="43.3725426" lon="11.7569259"><ele>268.0</ele><time>2026-05-01T06:21:36.459Z</time></trkpt><trkpt lat="43.3722656" lon="11.7569933"><ele>269.5</ele><time>2026-05-01T06:21:37.459Z</time></trkpt><trkpt lat="43.3719908" lon="11.7570756"><ele>271.0</ele><time>2026-05-01T06:21:38.459Z</time></trkpt><trkpt lat="43.3717168" lon="11.7571607"><ele>271.0</ele><time>2026-05-01T06:21:39.459Z</time></trkpt><trkpt lat="43.3714365" lon="11.7572524"><ele>271.0</ele><time>2026-05-01T06:21:40.459Z</time></trkpt><trkpt lat="43.3711609" lon="11.7573486"><ele>275.0</ele><time>2026-05-01T06:21:41.459Z</time></trkpt><trkpt lat="43.3708933" lon="11.7574607"><ele>279.0</ele><time>2026-05-01T06:21:42.459Z</time></trkpt><trkpt lat="43.3706265" lon="11.7575772"><ele>279.0</ele><time>2026-05-01T06:21:43.459Z</time></trkpt><trkpt lat="43.3703614" lon="11.7577013"><ele>279.0</ele><time>2026-05-01T06:21:44.459Z</time></trkpt><trkpt lat="43.3700989" lon="11.7578355"><ele>279.0</ele><time>2026-05-01T06:21:45.459Z</time></trkpt><trkpt lat="43.3698345" lon="11.7579674"><ele>279.0</ele><time>2026-05-01T06:21:46.458Z</time></trkpt><trkpt lat="43.3695707" lon="11.7580971"><ele>279.0</ele><time>2026-05-01T06:21:47.459Z</time></trkpt><trkpt lat="43.3693072" lon="11.7582313"><ele>279.0</ele><time>2026-05-01T06:21:48.458Z</time></trkpt><trkpt lat="43.3690497" lon="11.7583712"><ele>277.5</ele><time>2026-05-01T06:21:49.459Z</time></trkpt><trkpt lat="43.3687938" lon="11.7584989"><ele>276.0</ele><time>2026-05-01T06:21:50.458Z</time></trkpt><trkpt lat="43.3685333" lon="11.7586337"><ele>274.0</ele><time>2026-05-01T06:21:51.459Z</time></trkpt><trkpt lat="43.3682753" lon="11.7587735"><ele>272.0</ele><time>2026-05-01T06:21:52.459Z</time></trkpt><trkpt lat="43.3680146" lon="11.7589098"><ele>271.5</ele><time>2026-05-01T06:21:53.459Z</time></trkpt><trkpt lat="43.3677551" lon="11.7590473"><ele>271.0</ele><time>2026-05-01T06:21:54.458Z</time></trkpt><trkpt lat="43.3674954" lon="11.7591749"><ele>271.0</ele><time>2026-05-01T06:21:55.459Z</time></trkpt><trkpt lat="43.3672365" lon="11.7593103"><ele>271.0</ele><time>2026-05-01T06:21:56.458Z</time></trkpt><trkpt lat="43.3669764" lon="11.7594513"><ele>270.0</ele><time>2026-05-01T06:21:57.459Z</time></trkpt><trkpt lat="43.3667143" lon="11.7595881"><ele>269.0</ele><time>2026-05-01T06:21:58.458Z</time></trkpt><trkpt lat="43.3664612" lon="11.7597236"><ele>269.5</ele><time>2026-05-01T06:21:59.458Z</time></trkpt><trkpt lat="43.3662033" lon="11.7598574"><ele>270.0</ele><time>2026-05-01T06:22:00.459Z</time></trkpt><trkpt lat="43.3659462" lon="11.759998"><ele>270.0</ele><time>2026-05-01T06:22:01.458Z</time></trkpt><trkpt lat="43.3656889" lon="11.7601383"><ele>270.0</ele><time>2026-05-01T06:22:02.459Z</time></trkpt><trkpt lat="43.3654298" lon="11.7602743"><ele>269.0</ele><time>2026-05-01T06:22:03.458Z</time></trkpt><trkpt lat="43.3651721" lon="11.7604124"><ele>268.0</ele><time>2026-05-01T06:22:04.458Z</time></trkpt><trkpt lat="43.3649113" lon="11.7605452"><ele>269.5</ele><time>2026-05-01T06:22:05.458Z</time></trkpt><trkpt lat="43.3646523" lon="11.7606781"><ele>271.0</ele><time>2026-05-01T06:22:06.459Z</time></trkpt><trkpt lat="43.3643965" lon="11.760816"><ele>271.0</ele><time>2026-05-01T06:22:07.459Z</time></trkpt><trkpt lat="43.364135" lon="11.7609587"><ele>271.0</ele><time>2026-05-01T06:22:08.459Z</time></trkpt><trkpt lat="43.363867" lon="11.7610905"><ele>270.5</ele><time>2026-05-01T06:22:09.459Z</time></trkpt><trkpt lat="43.3636061" lon="11.7612259"><ele>270.0</ele><time>2026-05-01T06:22:10.459Z</time></trkpt><trkpt lat="43.3633411" lon="11.7613588"><ele>270.0</ele><time>2026-05-01T06:22:11.458Z</time></trkpt><trkpt lat="43.3630752" lon="11.7614926"><ele>270.0</ele><time>2026-05-01T06:22:12.459Z</time></trkpt><trkpt lat="43.3628089" lon="11.7616346"><ele>269.5</ele><time>2026-05-01T06:22:13.458Z</time></trkpt><trkpt lat="43.3625451" lon="11.7617724"><ele>269.0</ele><time>2026-05-01T06:22:14.459Z</time></trkpt><trkpt lat="43.3622801" lon="11.7619106"><ele>269.5</ele><time>2026-05-01T06:22:15.459Z</time></trkpt><trkpt lat="43.3620129" lon="11.7620445"><ele>270.0</ele><time>2026-05-01T06:22:16.459Z</time></trkpt><trkpt lat="43.361752" lon="11.7621824"><ele>270.0</ele><time>2026-05-01T06:22:17.458Z</time></trkpt><trkpt lat="43.3614931" lon="11.7623178"><ele>270.0</ele><time>2026-05-01T06:22:18.459Z</time></trkpt><trkpt lat="43.3612365" lon="11.7624525"><ele>271.5</ele><time>2026-05-01T06:22:19.459Z</time></trkpt><trkpt lat="43.3609757" lon="11.7625931"><ele>273.0</ele><time>2026-05-01T06:22:20.459Z</time></trkpt><trkpt lat="43.3607131" lon="11.762733"><ele>271.0</ele><time>2026-05-01T06:22:21.459Z</time></trkpt><trkpt lat="43.3604505" lon="11.7628664"><ele>269.0</ele><time>2026-05-01T06:22:22.458Z</time></trkpt><trkpt lat="43.3601874" lon="11.763"><ele>269.0</ele><time>2026-05-01T06:22:23.459Z</time></trkpt><trkpt lat="43.3599177" lon="11.7631387"><ele>269.0</ele><time>2026-05-01T06:22:24.458Z</time></trkpt><trkpt lat="43.3596472" lon="11.7632763"><ele>270.0</ele><time>2026-05-01T06:22:25.458Z</time></trkpt><trkpt lat="43.3593828" lon="11.7634191"><ele>271.0</ele><time>2026-05-01T06:22:26.458Z</time></trkpt><trkpt lat="43.3591148" lon="11.7635579"><ele>270.0</ele><time>2026-05-01T06:22:27.459Z</time></trkpt><trkpt lat="43.358846" lon="11.7636963"><ele>269.0</ele><time>2026-05-01T06:22:28.459Z</time></trkpt><trkpt lat="43.3585738" lon="11.7638311"><ele>269.0</ele><time>2026-05-01T06:22:29.458Z</time></trkpt><trkpt lat="43.3583004" lon="11.7639634"><ele>269.0</ele><time>2026-05-01T06:22:30.459Z</time></trkpt><trkpt lat="43.3580166" lon="11.7640716"><ele>268.0</ele><time>2026-05-01T06:22:31.459Z</time></trkpt><trkpt lat="43.3577368" lon="11.7641749"><ele>267.0</ele><time>2026-05-01T06:22:32.459Z</time></trkpt><trkpt lat="43.3574569" lon="11.764269"><ele>266.0</ele><time>2026-05-01T06:22:33.459Z</time></trkpt><trkpt lat="43.3571714" lon="11.7643386"><ele>265.0</ele><time>2026-05-01T06:22:34.458Z</time></trkpt><trkpt lat="43.3568906" lon="11.7644027"><ele>263.5</ele><time>2026-05-01T06:22:35.458Z</time></trkpt><trkpt lat="43.3566073" lon="11.7644496"><ele>262.0</ele><time>2026-05-01T06:22:36.458Z</time></trkpt><trkpt lat="43.3563186" lon="11.7644975"><ele>261.0</ele><time>2026-05-01T06:22:37.459Z</time></trkpt><trkpt lat="43.3560305" lon="11.764534"><ele>260.0</ele><time>2026-05-01T06:22:38.459Z</time></trkpt><trkpt lat="43.3557402" lon="11.7645518"><ele>260.0</ele><time>2026-05-01T06:22:39.459Z</time></trkpt><trkpt lat="43.3554539" lon="11.7645649"><ele>260.0</ele><time>2026-05-01T06:22:40.459Z</time></trkpt><trkpt lat="43.3551639" lon="11.7645692"><ele>260.0</ele><time>2026-05-01T06:22:41.459Z</time></trkpt><trkpt lat="43.3548746" lon="11.7645625"><ele>260.0</ele><time>2026-05-01T06:22:42.459Z</time></trkpt><trkpt lat="43.3545871" lon="11.7645422"><ele>260.5</ele><time>2026-05-01T06:22:43.459Z</time></trkpt><trkpt lat="43.3542974" lon="11.764517"><ele>261.0</ele><time>2026-05-01T06:22:44.459Z</time></trkpt><trkpt lat="43.3540086" lon="11.7644905"><ele>260.5</ele><time>2026-05-01T06:22:45.459Z</time></trkpt><trkpt lat="43.3537246" lon="11.7644665"><ele>260.0</ele><time>2026-05-01T06:22:46.458Z</time></trkpt><trkpt lat="43.3534398" lon="11.7644432"><ele>260.0</ele><time>2026-05-01T06:22:47.458Z</time></trkpt><trkpt lat="43.3531523" lon="11.764416"><ele>260.0</ele><time>2026-05-01T06:22:48.459Z</time></trkpt><trkpt lat="43.3528657" lon="11.7643894"><ele>260.5</ele><time>2026-05-01T06:22:49.459Z</time></trkpt><trkpt lat="43.3525813" lon="11.7643678"><ele>261.0</ele><time>2026-05-01T06:22:50.459Z</time></trkpt><trkpt lat="43.3522921" lon="11.7643394"><ele>263.5</ele><time>2026-05-01T06:22:51.459Z</time></trkpt><trkpt lat="43.3520054" lon="11.764317"><ele>266.0</ele><time>2026-05-01T06:22:52.459Z</time></trkpt><trkpt lat="43.3517218" lon="11.7642937"><ele>266.0</ele><time>2026-05-01T06:22:53.459Z</time></trkpt><trkpt lat="43.3514412" lon="11.7642651"><ele>266.0</ele><time>2026-05-01T06:22:54.458Z</time></trkpt><trkpt lat="43.3511593" lon="11.7642342"><ele>265.0</ele><time>2026-05-01T06:22:55.458Z</time></trkpt><trkpt lat="43.3508747" lon="11.7642075"><ele>264.0</ele><time>2026-05-01T06:22:56.459Z</time></trkpt><trkpt lat="43.3505964" lon="11.7641832"><ele>263.5</ele><time>2026-05-01T06:22:57.459Z</time></trkpt><trkpt lat="43.3503145" lon="11.76416"><ele>263.0</ele><time>2026-05-01T06:22:58.459Z</time></trkpt><trkpt lat="43.3500314" lon="11.7641306"><ele>263.0</ele><time>2026-05-01T06:22:59.459Z</time></trkpt><trkpt lat="43.3497522" lon="11.7640969"><ele>263.0</ele><time>2026-05-01T06:23:00.459Z</time></trkpt><trkpt lat="43.3494725" lon="11.7640729"><ele>263.0</ele><time>2026-05-01T06:23:01.459Z</time></trkpt><trkpt lat="43.3491887" lon="11.7640509"><ele>263.0</ele><time>2026-05-01T06:23:02.459Z</time></trkpt><trkpt lat="43.348901" lon="11.7640203"><ele>262.0</ele><time>2026-05-01T06:23:03.459Z</time></trkpt><trkpt lat="43.3486162" lon="11.7639937"><ele>261.0</ele><time>2026-05-01T06:23:04.459Z</time></trkpt><trkpt lat="43.3483285" lon="11.7639651"><ele>260.5</ele><time>2026-05-01T06:23:05.459Z</time></trkpt><trkpt lat="43.3480432" lon="11.7639386"><ele>260.0</ele><time>2026-05-01T06:23:06.459Z</time></trkpt><trkpt lat="43.3477565" lon="11.7639119"><ele>260.0</ele><time>2026-05-01T06:23:07.459Z</time></trkpt><trkpt lat="43.3474711" lon="11.7638906"><ele>260.0</ele><time>2026-05-01T06:23:08.459Z</time></trkpt><trkpt lat="43.347185" lon="11.7638657"><ele>260.0</ele><time>2026-05-01T06:23:09.458Z</time></trkpt><trkpt lat="43.3468988" lon="11.7638431"><ele>260.0</ele><time>2026-05-01T06:23:10.458Z</time></trkpt><trkpt lat="43.3466105" lon="11.7638202"><ele>260.5</ele><time>2026-05-01T06:23:11.459Z</time></trkpt><trkpt lat="43.3463256" lon="11.7637926"><ele>261.0</ele><time>2026-05-01T06:23:12.459Z</time></trkpt><trkpt lat="43.3460357" lon="11.7637623"><ele>261.0</ele><time>2026-05-01T06:23:13.459Z</time></trkpt><trkpt lat="43.3457469" lon="11.7637336"><ele>261.0</ele><time>2026-05-01T06:23:14.459Z</time></trkpt><trkpt lat="43.3454609" lon="11.7637047"><ele>260.0</ele><time>2026-05-01T06:23:15.458Z</time></trkpt><trkpt lat="43.345175" lon="11.7636807"><ele>259.0</ele><time>2026-05-01T06:23:16.459Z</time></trkpt><trkpt lat="43.344888" lon="11.7636582"><ele>260.0</ele><time>2026-05-01T06:23:17.458Z</time></trkpt><trkpt lat="43.3446005" lon="11.7636324"><ele>261.0</ele><time>2026-05-01T06:23:18.459Z</time></trkpt><trkpt lat="43.3443141" lon="11.7636051"><ele>261.0</ele><time>2026-05-01T06:23:19.458Z</time></trkpt><trkpt lat="43.3440267" lon="11.763575"><ele>261.0</ele><time>2026-05-01T06:23:20.459Z</time></trkpt><trkpt lat="43.3437454" lon="11.7635502"><ele>260.5</ele><time>2026-05-01T06:23:21.458Z</time></trkpt><trkpt lat="43.3434603" lon="11.7635214"><ele>260.0</ele><time>2026-05-01T06:23:22.459Z</time></trkpt><trkpt lat="43.3431756" lon="11.7634958"><ele>260.0</ele><time>2026-05-01T06:23:23.459Z</time></trkpt><trkpt lat="43.3428939" lon="11.7634771"><ele>260.0</ele><time>2026-05-01T06:23:24.459Z</time></trkpt><trkpt lat="43.3426092" lon="11.7634538"><ele>260.0</ele><time>2026-05-01T06:23:25.459Z</time></trkpt><trkpt lat="43.3423223" lon="11.7634271"><ele>260.0</ele><time>2026-05-01T06:23:26.459Z</time></trkpt><trkpt lat="43.3420368" lon="11.7634006"><ele>261.0</ele><time>2026-05-01T06:23:27.458Z</time></trkpt><trkpt lat="43.3417465" lon="11.7633776"><ele>262.0</ele><time>2026-05-01T06:23:28.458Z</time></trkpt><trkpt lat="43.3414609" lon="11.7633553"><ele>261.5</ele><time>2026-05-01T06:23:29.459Z</time></trkpt><trkpt lat="43.3411739" lon="11.7633295"><ele>261.0</ele><time>2026-05-01T06:23:30.458Z</time></trkpt><trkpt lat="43.3408829" lon="11.7633021"><ele>261.0</ele><time>2026-05-01T06:23:31.458Z</time></trkpt><trkpt lat="43.3405944" lon="11.7632733"><ele>261.0</ele><time>2026-05-01T06:23:32.458Z</time></trkpt><trkpt lat="43.3403035" lon="11.7632445"><ele>261.5</ele><time>2026-05-01T06:23:33.458Z</time></trkpt><trkpt lat="43.3400193" lon="11.7632174"><ele>262.0</ele><time>2026-05-01T06:23:34.458Z</time></trkpt><trkpt lat="43.3397365" lon="11.7631915"><ele>263.0</ele><time>2026-05-01T06:23:35.459Z</time></trkpt><trkpt lat="43.3394509" lon="11.7631641"><ele>264.0</ele><time>2026-05-01T06:23:36.459Z</time></trkpt><trkpt lat="43.3391659" lon="11.7631349"><ele>264.5</ele><time>2026-05-01T06:23:37.459Z</time></trkpt><trkpt lat="43.3388803" lon="11.7631138"><ele>265.0</ele><time>2026-05-01T06:23:38.459Z</time></trkpt><trkpt lat="43.3385994" lon="11.7630945"><ele>265.0</ele><time>2026-05-01T06:23:39.459Z</time></trkpt><trkpt lat="43.3383147" lon="11.763067"><ele>265.0</ele><time>2026-05-01T06:23:40.459Z</time></trkpt><trkpt lat="43.3380311" lon="11.763043"><ele>266.5</ele><time>2026-05-01T06:23:41.458Z</time></trkpt><trkpt lat="43.3377472" lon="11.7630159"><ele>268.0</ele><time>2026-05-01T06:23:42.459Z</time></trkpt><trkpt lat="43.3374638" lon="11.762985"><ele>268.5</ele><time>2026-05-01T06:23:43.459Z</time></trkpt><trkpt lat="43.3371783" lon="11.762954"><ele>269.0</ele><time>2026-05-01T06:23:44.459Z</time></trkpt><trkpt lat="43.3368912" lon="11.7629292"><ele>269.0</ele><time>2026-05-01T06:23:45.459Z</time></trkpt><trkpt lat="43.336607" lon="11.7629042"><ele>269.0</ele><time>2026-05-01T06:23:46.459Z</time></trkpt><trkpt lat="43.3363242" lon="11.762883"><ele>269.5</ele><time>2026-05-01T06:23:47.458Z</time></trkpt><trkpt lat="43.3360413" lon="11.7628565"><ele>270.0</ele><time>2026-05-01T06:23:48.459Z</time></trkpt><trkpt lat="43.335759" lon="11.7628258"><ele>271.5</ele><time>2026-05-01T06:23:49.459Z</time></trkpt><trkpt lat="43.3354788" lon="11.7627987"><ele>273.0</ele><time>2026-05-01T06:23:50.459Z</time></trkpt><trkpt lat="43.3352043" lon="11.7627715"><ele>273.0</ele><time>2026-05-01T06:23:51.459Z</time></trkpt><trkpt lat="43.3349237" lon="11.7627478"><ele>273.0</ele><time>2026-05-01T06:23:52.459Z</time></trkpt><trkpt lat="43.3346488" lon="11.7627191"><ele>277.0</ele><time>2026-05-01T06:23:53.458Z</time></trkpt><trkpt lat="43.3343687" lon="11.7626926"><ele>281.0</ele><time>2026-05-01T06:23:54.459Z</time></trkpt><trkpt lat="43.3340898" lon="11.7626691"><ele>281.0</ele><time>2026-05-01T06:23:55.459Z</time></trkpt><trkpt lat="43.3338099" lon="11.7626478"><ele>281.0</ele><time>2026-05-01T06:23:56.458Z</time></trkpt><trkpt lat="43.3335258" lon="11.7626228"><ele>281.0</ele><time>2026-05-01T06:23:57.458Z</time></trkpt><trkpt lat="43.3332401" lon="11.7625953"><ele>281.0</ele><time>2026-05-01T06:23:58.458Z</time></trkpt><trkpt lat="43.3329542" lon="11.7625746"><ele>280.0</ele><time>2026-05-01T06:23:59.459Z</time></trkpt><trkpt lat="43.3326665" lon="11.7625528"><ele>279.0</ele><time>2026-05-01T06:24:00.458Z</time></trkpt><trkpt lat="43.3323819" lon="11.7625281"><ele>275.5</ele><time>2026-05-01T06:24:01.459Z</time></trkpt><trkpt lat="43.3320958" lon="11.7625052"><ele>272.0</ele><time>2026-05-01T06:24:02.458Z</time></trkpt><trkpt lat="43.3318136" lon="11.7624817"><ele>272.0</ele><time>2026-05-01T06:24:03.459Z</time></trkpt><trkpt lat="43.3315229" lon="11.7624515"><ele>272.0</ele><time>2026-05-01T06:24:04.459Z</time></trkpt><trkpt lat="43.3312396" lon="11.7624225"><ele>270.5</ele><time>2026-05-01T06:24:05.459Z</time></trkpt><trkpt lat="43.3309589" lon="11.7623908"><ele>269.0</ele><time>2026-05-01T06:24:06.459Z</time></trkpt><trkpt lat="43.3306807" lon="11.7623601"><ele>267.0</ele><time>2026-05-01T06:24:07.459Z</time></trkpt><trkpt lat="43.3303984" lon="11.762331"><ele>265.0</ele><time>2026-05-01T06:24:08.459Z</time></trkpt><trkpt lat="43.3301127" lon="11.7623044"><ele>265.0</ele><time>2026-05-01T06:24:09.459Z</time></trkpt><trkpt lat="43.3298247" lon="11.7622847"><ele>265.0</ele><time>2026-05-01T06:24:10.459Z</time></trkpt><trkpt lat="43.3295373" lon="11.7622575"><ele>262.5</ele><time>2026-05-01T06:24:11.459Z</time></trkpt><trkpt lat="43.3292538" lon="11.7622288"><ele>260.0</ele><time>2026-05-01T06:24:12.458Z</time></trkpt><trkpt lat="43.3289662" lon="11.7622037"><ele>260.0</ele><time>2026-05-01T06:24:13.459Z</time></trkpt><trkpt lat="43.3286776" lon="11.7621796"><ele>260.0</ele><time>2026-05-01T06:24:14.459Z</time></trkpt><trkpt lat="43.3283908" lon="11.7621591"><ele>260.0</ele><time>2026-05-01T06:24:15.458Z</time></trkpt><trkpt lat="43.3281039" lon="11.762134"><ele>260.0</ele><time>2026-05-01T06:24:16.459Z</time></trkpt><trkpt lat="43.3278182" lon="11.7621016"><ele>261.0</ele><time>2026-05-01T06:24:17.459Z</time></trkpt><trkpt lat="43.3275309" lon="11.7620749"><ele>262.0</ele><time>2026-05-01T06:24:18.458Z</time></trkpt><trkpt lat="43.3272466" lon="11.7620547"><ele>263.0</ele><time>2026-05-01T06:24:19.459Z</time></trkpt><trkpt lat="43.3269603" lon="11.7620291"><ele>264.0</ele><time>2026-05-01T06:24:20.459Z</time></trkpt><trkpt lat="43.3266744" lon="11.7620018"><ele>263.0</ele><time>2026-05-01T06:24:21.458Z</time></trkpt><trkpt lat="43.3263924" lon="11.7619721"><ele>262.0</ele><time>2026-05-01T06:24:22.459Z</time></trkpt><trkpt lat="43.3261054" lon="11.7619465"><ele>262.0</ele><time>2026-05-01T06:24:23.459Z</time></trkpt><trkpt lat="43.3258255" lon="11.7619219"><ele>262.0</ele><time>2026-05-01T06:24:24.459Z</time></trkpt><trkpt lat="43.3255428" lon="11.7618954"><ele>261.5</ele><time>2026-05-01T06:24:25.458Z</time></trkpt><trkpt lat="43.3252617" lon="11.7618709"><ele>261.0</ele><time>2026-05-01T06:24:26.459Z</time></trkpt><trkpt lat="43.3249791" lon="11.7618442"><ele>260.5</ele><time>2026-05-01T06:24:27.459Z</time></trkpt><trkpt lat="43.3246964" lon="11.7618175"><ele>260.0</ele><time>2026-05-01T06:24:28.459Z</time></trkpt><trkpt lat="43.3244143" lon="11.7617896"><ele>260.0</ele><time>2026-05-01T06:24:29.459Z</time></trkpt><trkpt lat="43.3241304" lon="11.7617636"><ele>260.0</ele><time>2026-05-01T06:24:30.459Z</time></trkpt><trkpt lat="43.3238432" lon="11.7617374"><ele>259.0</ele><time>2026-05-01T06:24:31.459Z</time></trkpt><trkpt lat="43.3235577" lon="11.7617122"><ele>258.0</ele><time>2026-05-01T06:24:32.459Z</time></trkpt><trkpt lat="43.3232768" lon="11.7616843"><ele>258.5</ele><time>2026-05-01T06:24:33.458Z</time></trkpt><trkpt lat="43.32299" lon="11.7616555"><ele>259.0</ele><time>2026-05-01T06:24:34.459Z</time></trkpt><trkpt lat="43.3227062" lon="11.7616267"><ele>259.0</ele><time>2026-05-01T06:24:35.459Z</time></trkpt><trkpt lat="43.3224213" lon="11.7616051"><ele>259.0</ele><time>2026-05-01T06:24:36.459Z</time></trkpt><trkpt lat="43.3221333" lon="11.761578"><ele>260.0</ele><time>2026-05-01T06:24:37.459Z</time></trkpt><trkpt lat="43.3218475" lon="11.7615519"><ele>261.0</ele><time>2026-05-01T06:24:38.458Z</time></trkpt><trkpt lat="43.3215616" lon="11.7615175"><ele>259.5</ele><time>2026-05-01T06:24:39.458Z</time></trkpt><trkpt lat="43.3212799" lon="11.7614992"><ele>258.0</ele><time>2026-05-01T06:24:40.459Z</time></trkpt><trkpt lat="43.320996" lon="11.7614748"><ele>258.0</ele><time>2026-05-01T06:24:41.458Z</time></trkpt><trkpt lat="43.32071" lon="11.7614494"><ele>258.0</ele><time>2026-05-01T06:24:42.459Z</time></trkpt><trkpt lat="43.3204261" lon="11.7614276"><ele>259.0</ele><time>2026-05-01T06:24:43.459Z</time></trkpt><trkpt lat="43.320142" lon="11.7614012"><ele>260.0</ele><time>2026-05-01T06:24:44.459Z</time></trkpt><trkpt lat="43.3198538" lon="11.7613785"><ele>259.5</ele><time>2026-05-01T06:24:45.459Z</time></trkpt><trkpt lat="43.3195666" lon="11.7613485"><ele>259.0</ele><time>2026-05-01T06:24:46.459Z</time></trkpt><trkpt lat="43.3192815" lon="11.7613175"><ele>259.0</ele><time>2026-05-01T06:24:47.458Z</time></trkpt><trkpt lat="43.3189974" lon="11.7612927"><ele>259.0</ele><time>2026-05-01T06:24:48.459Z</time></trkpt><trkpt lat="43.3187105" lon="11.7612714"><ele>258.5</ele><time>2026-05-01T06:24:49.459Z</time></trkpt><trkpt lat="43.3184225" lon="11.7612555"><ele>258.0</ele><time>2026-05-01T06:24:50.459Z</time></trkpt><trkpt lat="43.3181427" lon="11.7612414"><ele>258.0</ele><time>2026-05-01T06:24:51.459Z</time></trkpt><trkpt lat="43.3178527" lon="11.7612405"><ele>258.0</ele><time>2026-05-01T06:24:52.459Z</time></trkpt><trkpt lat="43.3175628" lon="11.7612399"><ele>258.0</ele><time>2026-05-01T06:24:53.459Z</time></trkpt><trkpt lat="43.3172755" lon="11.7612396"><ele>258.0</ele><time>2026-05-01T06:24:54.458Z</time></trkpt><trkpt lat="43.316991" lon="11.7612349"><ele>258.0</ele><time>2026-05-01T06:24:55.459Z</time></trkpt><trkpt lat="43.3167071" lon="11.7612406"><ele>258.0</ele><time>2026-05-01T06:24:56.459Z</time></trkpt><trkpt lat="43.316435" lon="11.7612414"><ele>258.0</ele><time>2026-05-01T06:24:57.459Z</time></trkpt><trkpt lat="43.3161494" lon="11.7612473"><ele>258.0</ele><time>2026-05-01T06:24:58.459Z</time></trkpt><trkpt lat="43.3158698" lon="11.7612569"><ele>258.0</ele><time>2026-05-01T06:24:59.458Z</time></trkpt><trkpt lat="43.3155952" lon="11.761266"><ele>258.0</ele><time>2026-05-01T06:25:00.458Z</time></trkpt><trkpt lat="43.3153206" lon="11.7612849"><ele>258.0</ele><time>2026-05-01T06:25:01.459Z</time></trkpt><trkpt lat="43.3150462" lon="11.7612962"><ele>258.0</ele><time>2026-05-01T06:25:02.459Z</time></trkpt><trkpt lat="43.3147701" lon="11.761321"><ele>258.0</ele><time>2026-05-01T06:25:03.459Z</time></trkpt><trkpt lat="43.3144906" lon="11.7613514"><ele>258.0</ele><time>2026-05-01T06:25:04.459Z</time></trkpt><trkpt lat="43.3142095" lon="11.7613849"><ele>258.0</ele><time>2026-05-01T06:25:05.459Z</time></trkpt><trkpt lat="43.3139299" lon="11.7614081"><ele>258.0</ele><time>2026-05-01T06:25:06.458Z</time></trkpt><trkpt lat="43.3136524" lon="11.7614323"><ele>257.5</ele><time>2026-05-01T06:25:07.458Z</time></trkpt><trkpt lat="43.3133789" lon="11.7614517"><ele>257.0</ele><time>2026-05-01T06:25:08.458Z</time></trkpt><trkpt lat="43.3131069" lon="11.7614768"><ele>257.0</ele><time>2026-05-01T06:25:09.459Z</time></trkpt><trkpt lat="43.3128363" lon="11.7615035"><ele>257.0</ele><time>2026-05-01T06:25:10.459Z</time></trkpt><trkpt lat="43.3125612" lon="11.7615311"><ele>257.0</ele><time>2026-05-01T06:25:11.458Z</time></trkpt><trkpt lat="43.3122849" lon="11.7615617"><ele>257.0</ele><time>2026-05-01T06:25:12.459Z</time></trkpt><trkpt lat="43.3120118" lon="11.7615901"><ele>258.0</ele><time>2026-05-01T06:25:13.459Z</time></trkpt><trkpt lat="43.3117416" lon="11.7616172"><ele>259.0</ele><time>2026-05-01T06:25:14.459Z</time></trkpt><trkpt lat="43.311466" lon="11.7616435"><ele>258.5</ele><time>2026-05-01T06:25:15.459Z</time></trkpt><trkpt lat="43.3111919" lon="11.7616686"><ele>258.0</ele><time>2026-05-01T06:25:16.459Z</time></trkpt><trkpt lat="43.3109141" lon="11.7616972"><ele>258.0</ele><time>2026-05-01T06:25:17.459Z</time></trkpt><trkpt lat="43.3106405" lon="11.7617232"><ele>258.0</ele><time>2026-05-01T06:25:18.458Z</time></trkpt><trkpt lat="43.3103733" lon="11.7617475"><ele>258.0</ele><time>2026-05-01T06:25:19.459Z</time></trkpt><trkpt lat="43.3101043" lon="11.7617728"><ele>258.0</ele><time>2026-05-01T06:25:20.458Z</time></trkpt><trkpt lat="43.3098358" lon="11.7617988"><ele>258.0</ele><time>2026-05-01T06:25:21.458Z</time></trkpt><trkpt lat="43.3095663" lon="11.7618278"><ele>258.0</ele><time>2026-05-01T06:25:22.459Z</time></trkpt><trkpt lat="43.3092993" lon="11.7618545"><ele>258.5</ele><time>2026-05-01T06:25:23.459Z</time></trkpt><trkpt lat="43.3090297" lon="11.7618848"><ele>259.0</ele><time>2026-05-01T06:25:24.459Z</time></trkpt><trkpt lat="43.3087644" lon="11.7619045"><ele>258.0</ele><time>2026-05-01T06:25:25.459Z</time></trkpt><trkpt lat="43.3084959" lon="11.761932"><ele>257.0</ele><time>2026-05-01T06:25:26.459Z</time></trkpt><trkpt lat="43.3082294" lon="11.7619562"><ele>257.5</ele><time>2026-05-01T06:25:27.458Z</time></trkpt><trkpt lat="43.3079644" lon="11.7619836"><ele>258.0</ele><time>2026-05-01T06:25:28.458Z</time></trkpt><trkpt lat="43.3076963" lon="11.7620138"><ele>258.0</ele><time>2026-05-01T06:25:29.458Z</time></trkpt><trkpt lat="43.3074353" lon="11.7620351"><ele>258.0</ele><time>2026-05-01T06:25:30.458Z</time></trkpt><trkpt lat="43.3071697" lon="11.7620664"><ele>257.5</ele><time>2026-05-01T06:25:31.459Z</time></trkpt><trkpt lat="43.3069036" lon="11.7620904"><ele>257.0</ele><time>2026-05-01T06:25:32.458Z</time></trkpt><trkpt lat="43.3066301" lon="11.7621156"><ele>257.5</ele><time>2026-05-01T06:25:33.458Z</time></trkpt><trkpt lat="43.3063601" lon="11.7621438"><ele>258.0</ele><time>2026-05-01T06:25:34.459Z</time></trkpt><trkpt lat="43.3060855" lon="11.7621619"><ele>258.0</ele><time>2026-05-01T06:25:35.458Z</time></trkpt><trkpt lat="43.3058076" lon="11.7621956"><ele>258.0</ele><time>2026-05-01T06:25:36.459Z</time></trkpt><trkpt lat="43.3055267" lon="11.7622216"><ele>258.0</ele><time>2026-05-01T06:25:37.459Z</time></trkpt><trkpt lat="43.3052484" lon="11.7622474"><ele>258.0</ele><time>2026-05-01T06:25:38.458Z</time></trkpt><trkpt lat="43.3049645" lon="11.7622737"><ele>258.0</ele><time>2026-05-01T06:25:39.459Z</time></trkpt><trkpt lat="43.3046827" lon="11.7623016"><ele>258.0</ele><time>2026-05-01T06:25:40.459Z</time></trkpt><trkpt lat="43.3044013" lon="11.7623289"><ele>258.0</ele><time>2026-05-01T06:25:41.459Z</time></trkpt><trkpt lat="43.304116" lon="11.7623567"><ele>258.0</ele><time>2026-05-01T06:25:42.459Z</time></trkpt><trkpt lat="43.3038302" lon="11.7623845"><ele>258.5</ele><time>2026-05-01T06:25:43.459Z</time></trkpt><trkpt lat="43.3035436" lon="11.7624162"><ele>259.0</ele><time>2026-05-01T06:25:44.459Z</time></trkpt><trkpt lat="43.3032606" lon="11.7624406"><ele>258.0</ele><time>2026-05-01T06:25:45.459Z</time></trkpt><trkpt lat="43.3029712" lon="11.7624664"><ele>257.0</ele><time>2026-05-01T06:25:46.459Z</time></trkpt><trkpt lat="43.3026831" lon="11.7625018"><ele>257.0</ele><time>2026-05-01T06:25:47.459Z</time></trkpt><trkpt lat="43.3023989" lon="11.7625344"><ele>257.0</ele><time>2026-05-01T06:25:48.458Z</time></trkpt><trkpt lat="43.3021151" lon="11.7625611"><ele>257.5</ele><time>2026-05-01T06:25:49.459Z</time></trkpt><trkpt lat="43.3018297" lon="11.7625907"><ele>258.0</ele><time>2026-05-01T06:25:50.459Z</time></trkpt><trkpt lat="43.3015473" lon="11.7626221"><ele>258.5</ele><time>2026-05-01T06:25:51.459Z</time></trkpt><trkpt lat="43.3012608" lon="11.7626523"><ele>259.0</ele><time>2026-05-01T06:25:52.459Z</time></trkpt><trkpt lat="43.3009783" lon="11.7626828"><ele>259.0</ele><time>2026-05-01T06:25:53.459Z</time></trkpt><trkpt lat="43.3006953" lon="11.7627057"><ele>259.0</ele><time>2026-05-01T06:25:54.459Z</time></trkpt><trkpt lat="43.3004126" lon="11.7627296"><ele>259.0</ele><time>2026-05-01T06:25:55.458Z</time></trkpt><trkpt lat="43.3001273" lon="11.7627558"><ele>259.0</ele><time>2026-05-01T06:25:56.459Z</time></trkpt><trkpt lat="43.2998451" lon="11.7627852"><ele>259.0</ele><time>2026-05-01T06:25:57.459Z</time></trkpt><trkpt lat="43.2995618" lon="11.7628124"><ele>259.0</ele><time>2026-05-01T06:25:58.459Z</time></trkpt><trkpt lat="43.2992789" lon="11.762848"><ele>259.0</ele><time>2026-05-01T06:25:59.459Z</time></trkpt><trkpt lat="43.2989958" lon="11.7628775"><ele>259.0</ele><time>2026-05-01T06:26:00.459Z</time></trkpt><trkpt lat="43.298712" lon="11.7629061"><ele>259.0</ele><time>2026-05-01T06:26:01.459Z</time></trkpt><trkpt lat="43.2984319" lon="11.7629332"><ele>259.0</ele><time>2026-05-01T06:26:02.459Z</time></trkpt><trkpt lat="43.2981504" lon="11.7629577"><ele>259.0</ele><time>2026-05-01T06:26:03.459Z</time></trkpt><trkpt lat="43.2978706" lon="11.7629854"><ele>259.0</ele><time>2026-05-01T06:26:04.459Z</time></trkpt><trkpt lat="43.2975915" lon="11.7630047"><ele>259.0</ele><time>2026-05-01T06:26:05.458Z</time></trkpt><trkpt lat="43.2973117" lon="11.7630272"><ele>259.0</ele><time>2026-05-01T06:26:06.459Z</time></trkpt><trkpt lat="43.2970304" lon="11.7630491"><ele>258.0</ele><time>2026-05-01T06:26:07.459Z</time></trkpt><trkpt lat="43.2967447" lon="11.7630777"><ele>257.0</ele><time>2026-05-01T06:26:08.459Z</time></trkpt><trkpt lat="43.2964597" lon="11.7631073"><ele>257.5</ele><time>2026-05-01T06:26:09.459Z</time></trkpt><trkpt lat="43.2961781" lon="11.7631316"><ele>258.0</ele><time>2026-05-01T06:26:10.459Z</time></trkpt><trkpt lat="43.295896" lon="11.7631576"><ele>258.0</ele><time>2026-05-01T06:26:11.458Z</time></trkpt><trkpt lat="43.2956128" lon="11.7631808"><ele>258.0</ele><time>2026-05-01T06:26:12.458Z</time></trkpt><trkpt lat="43.2953303" lon="11.7632098"><ele>257.0</ele><time>2026-05-01T06:26:13.459Z</time></trkpt><trkpt lat="43.2950481" lon="11.7632445"><ele>256.0</ele><time>2026-05-01T06:26:14.459Z</time></trkpt><trkpt lat="43.2947629" lon="11.7632734"><ele>256.5</ele><time>2026-05-01T06:26:15.458Z</time></trkpt><trkpt lat="43.2944836" lon="11.7633039"><ele>257.0</ele><time>2026-05-01T06:26:16.459Z</time></trkpt><trkpt lat="43.2941956" lon="11.763329"><ele>257.5</ele><time>2026-05-01T06:26:17.458Z</time></trkpt><trkpt lat="43.2939085" lon="11.7633558"><ele>258.0</ele><time>2026-05-01T06:26:18.459Z</time></trkpt><trkpt lat="43.2936246" lon="11.7633838"><ele>258.0</ele><time>2026-05-01T06:26:19.459Z</time></trkpt><trkpt lat="43.2933452" lon="11.7634093"><ele>258.0</ele><time>2026-05-01T06:26:20.458Z</time></trkpt><trkpt lat="43.2930646" lon="11.7634455"><ele>257.5</ele><time>2026-05-01T06:26:21.459Z</time></trkpt><trkpt lat="43.2927743" lon="11.7634807"><ele>257.0</ele><time>2026-05-01T06:26:22.458Z</time></trkpt><trkpt lat="43.2924914" lon="11.7635128"><ele>256.5</ele><time>2026-05-01T06:26:23.459Z</time></trkpt><trkpt lat="43.2922069" lon="11.7635452"><ele>256.0</ele><time>2026-05-01T06:26:24.459Z</time></trkpt><trkpt lat="43.2919171" lon="11.7635742"><ele>256.0</ele><time>2026-05-01T06:26:25.459Z</time></trkpt><trkpt lat="43.2916295" lon="11.7636051"><ele>256.0</ele><time>2026-05-01T06:26:26.459Z</time></trkpt><trkpt lat="43.2913435" lon="11.7636315"><ele>255.5</ele><time>2026-05-01T06:26:27.459Z</time></trkpt><trkpt lat="43.2910538" lon="11.7636656"><ele>255.0</ele><time>2026-05-01T06:26:28.459Z</time></trkpt><trkpt lat="43.2907725" lon="11.7636994"><ele>255.5</ele><time>2026-05-01T06:26:29.459Z</time></trkpt><trkpt lat="43.2904865" lon="11.7637403"><ele>256.0</ele><time>2026-05-01T06:26:30.458Z</time></trkpt><trkpt lat="43.2902044" lon="11.7637967"><ele>256.0</ele><time>2026-05-01T06:26:31.459Z</time></trkpt><trkpt lat="43.2899235" lon="11.7638544"><ele>256.0</ele><time>2026-05-01T06:26:32.459Z</time></trkpt><trkpt lat="43.2896406" lon="11.7639083"><ele>256.5</ele><time>2026-05-01T06:26:33.459Z</time></trkpt><trkpt lat="43.2893599" lon="11.7639581"><ele>257.0</ele><time>2026-05-01T06:26:34.458Z</time></trkpt><trkpt lat="43.2890799" lon="11.764013"><ele>257.0</ele><time>2026-05-01T06:26:35.459Z</time></trkpt><trkpt lat="43.2887963" lon="11.7640754"><ele>257.0</ele><time>2026-05-01T06:26:36.458Z</time></trkpt><trkpt lat="43.2885168" lon="11.7641295"><ele>257.0</ele><time>2026-05-01T06:26:37.458Z</time></trkpt><trkpt lat="43.2882359" lon="11.7641915"><ele>257.0</ele><time>2026-05-01T06:26:38.458Z</time></trkpt><trkpt lat="43.2879568" lon="11.764255"><ele>257.5</ele><time>2026-05-01T06:26:39.459Z</time></trkpt><trkpt lat="43.2876761" lon="11.7643211"><ele>258.0</ele><time>2026-05-01T06:26:40.458Z</time></trkpt><trkpt lat="43.2873966" lon="11.7643837"><ele>257.0</ele><time>2026-05-01T06:26:41.459Z</time></trkpt><trkpt lat="43.287118" lon="11.7644551"><ele>256.0</ele><time>2026-05-01T06:26:42.458Z</time></trkpt><trkpt lat="43.2868438" lon="11.7645272"><ele>256.0</ele><time>2026-05-01T06:26:43.459Z</time></trkpt><trkpt lat="43.286571" lon="11.7646009"><ele>256.0</ele><time>2026-05-01T06:26:44.459Z</time></trkpt><trkpt lat="43.2862972" lon="11.7646773"><ele>256.5</ele><time>2026-05-01T06:26:45.459Z</time></trkpt><trkpt lat="43.2860226" lon="11.7647512"><ele>257.0</ele><time>2026-05-01T06:26:46.458Z</time></trkpt><trkpt lat="43.2857469" lon="11.7648324"><ele>256.5</ele><time>2026-05-01T06:26:47.458Z</time></trkpt><trkpt lat="43.2854728" lon="11.764909"><ele>256.0</ele><time>2026-05-01T06:26:48.459Z</time></trkpt><trkpt lat="43.2851941" lon="11.7649865"><ele>256.0</ele><time>2026-05-01T06:26:49.459Z</time></trkpt><trkpt lat="43.2849134" lon="11.7650564"><ele>256.0</ele><time>2026-05-01T06:26:50.459Z</time></trkpt><trkpt lat="43.2846376" lon="11.7651254"><ele>256.5</ele><time>2026-05-01T06:26:51.458Z</time></trkpt><trkpt lat="43.2843554" lon="11.7651964"><ele>257.0</ele><time>2026-05-01T06:26:52.458Z</time></trkpt><trkpt lat="43.2840757" lon="11.7652738"><ele>257.5</ele><time>2026-05-01T06:26:53.458Z</time></trkpt><trkpt lat="43.2837968" lon="11.7653529"><ele>258.0</ele><time>2026-05-01T06:26:54.458Z</time></trkpt><trkpt lat="43.2835231" lon="11.7654336"><ele>258.0</ele><time>2026-05-01T06:26:55.458Z</time></trkpt><trkpt lat="43.2832442" lon="11.7655054"><ele>258.0</ele><time>2026-05-01T06:26:56.458Z</time></trkpt><trkpt lat="43.2829654" lon="11.7655785"><ele>258.5</ele><time>2026-05-01T06:26:57.459Z</time></trkpt><trkpt lat="43.282682" lon="11.7656598"><ele>259.0</ele><time>2026-05-01T06:26:58.459Z</time></trkpt><trkpt lat="43.282399" lon="11.7657344"><ele>260.0</ele><time>2026-05-01T06:26:59.459Z</time></trkpt><trkpt lat="43.2821135" lon="11.7658104"><ele>261.0</ele><time>2026-05-01T06:27:00.459Z</time></trkpt><trkpt lat="43.2818346" lon="11.7658874"><ele>261.0</ele><time>2026-05-01T06:27:01.459Z</time></trkpt><trkpt lat="43.2815547" lon="11.7659605"><ele>261.0</ele><time>2026-05-01T06:27:02.459Z</time></trkpt><trkpt lat="43.281281" lon="11.7660361"><ele>259.0</ele><time>2026-05-01T06:27:03.458Z</time></trkpt><trkpt lat="43.2810047" lon="11.7661097"><ele>257.0</ele><time>2026-05-01T06:27:04.459Z</time></trkpt><trkpt lat="43.2807331" lon="11.7661862"><ele>257.0</ele><time>2026-05-01T06:27:05.459Z</time></trkpt><trkpt lat="43.2804602" lon="11.7662654"><ele>257.0</ele><time>2026-05-01T06:27:06.459Z</time></trkpt><trkpt lat="43.2801833" lon="11.766336"><ele>257.0</ele><time>2026-05-01T06:27:07.458Z</time></trkpt><trkpt lat="43.2799076" lon="11.7664134"><ele>257.0</ele><time>2026-05-01T06:27:08.459Z</time></trkpt><trkpt lat="43.2796333" lon="11.7664975"><ele>257.0</ele><time>2026-05-01T06:27:09.458Z</time></trkpt><trkpt lat="43.2793563" lon="11.7665846"><ele>257.0</ele><time>2026-05-01T06:27:10.458Z</time></trkpt><trkpt lat="43.2790785" lon="11.7666724"><ele>257.5</ele><time>2026-05-01T06:27:11.458Z</time></trkpt><trkpt lat="43.2788034" lon="11.766755"><ele>258.0</ele><time>2026-05-01T06:27:12.458Z</time></trkpt><trkpt lat="43.2785349" lon="11.7668314"><ele>257.0</ele><time>2026-05-01T06:27:13.459Z</time></trkpt><trkpt lat="43.2782605" lon="11.7669084"><ele>256.0</ele><time>2026-05-01T06:27:14.459Z</time></trkpt><trkpt lat="43.2779869" lon="11.7669853"><ele>255.5</ele><time>2026-05-01T06:27:15.459Z</time></trkpt><trkpt lat="43.2777159" lon="11.7670567"><ele>255.0</ele><time>2026-05-01T06:27:16.459Z</time></trkpt><trkpt lat="43.2774448" lon="11.7671294"><ele>256.0</ele><time>2026-05-01T06:27:17.459Z</time></trkpt><trkpt lat="43.2771794" lon="11.7671871"><ele>257.0</ele><time>2026-05-01T06:27:18.459Z</time></trkpt><trkpt lat="43.2769087" lon="11.7672567"><ele>257.0</ele><time>2026-05-01T06:27:19.459Z</time></trkpt><trkpt lat="43.2766326" lon="11.7673238"><ele>257.0</ele><time>2026-05-01T06:27:20.459Z</time></trkpt><trkpt lat="43.2763598" lon="11.7673904"><ele>257.0</ele><time>2026-05-01T06:27:21.459Z</time></trkpt><trkpt lat="43.2760884" lon="11.7674617"><ele>257.0</ele><time>2026-05-01T06:27:22.458Z</time></trkpt><trkpt lat="43.2758167" lon="11.7675372"><ele>258.5</ele><time>2026-05-01T06:27:23.459Z</time></trkpt><trkpt lat="43.2755474" lon="11.7676106"><ele>260.0</ele><time>2026-05-01T06:27:24.459Z</time></trkpt><trkpt lat="43.2752713" lon="11.7676832"><ele>260.0</ele><time>2026-05-01T06:27:25.459Z</time></trkpt><trkpt lat="43.274998" lon="11.7677609"><ele>260.0</ele><time>2026-05-01T06:27:26.459Z</time></trkpt><trkpt lat="43.2747227" lon="11.7678337"><ele>260.0</ele><time>2026-05-01T06:27:27.459Z</time></trkpt><trkpt lat="43.2744486" lon="11.7679037"><ele>260.0</ele><time>2026-05-01T06:27:28.459Z</time></trkpt><trkpt lat="43.2741749" lon="11.7679754"><ele>259.0</ele><time>2026-05-01T06:27:29.458Z</time></trkpt><trkpt lat="43.2739" lon="11.7680517"><ele>258.0</ele><time>2026-05-01T06:27:30.459Z</time></trkpt><trkpt lat="43.2736224" lon="11.7681267"><ele>258.0</ele><time>2026-05-01T06:27:31.459Z</time></trkpt><trkpt lat="43.2733443" lon="11.7682034"><ele>258.0</ele><time>2026-05-01T06:27:32.459Z</time></trkpt><trkpt lat="43.2730764" lon="11.7682853"><ele>258.0</ele><time>2026-05-01T06:27:33.459Z</time></trkpt><trkpt lat="43.2728009" lon="11.7683623"><ele>258.0</ele><time>2026-05-01T06:27:34.459Z</time></trkpt><trkpt lat="43.2725358" lon="11.7684303"><ele>257.5</ele><time>2026-05-01T06:27:35.458Z</time></trkpt><trkpt lat="43.2722676" lon="11.7684997"><ele>257.0</ele><time>2026-05-01T06:27:36.459Z</time></trkpt><trkpt lat="43.2720005" lon="11.7685698"><ele>256.5</ele><time>2026-05-01T06:27:37.459Z</time></trkpt><trkpt lat="43.2717357" lon="11.7686508"><ele>256.0</ele><time>2026-05-01T06:27:38.459Z</time></trkpt><trkpt lat="43.2714674" lon="11.7687286"><ele>256.0</ele><time>2026-05-01T06:27:39.459Z</time></trkpt><trkpt lat="43.2711989" lon="11.7687972"><ele>256.0</ele><time>2026-05-01T06:27:40.458Z</time></trkpt><trkpt lat="43.2709309" lon="11.7688657"><ele>256.0</ele><time>2026-05-01T06:27:41.458Z</time></trkpt><trkpt lat="43.2706624" lon="11.7689414"><ele>256.0</ele><time>2026-05-01T06:27:42.459Z</time></trkpt><trkpt lat="43.2703979" lon="11.7690168"><ele>257.5</ele><time>2026-05-01T06:27:43.459Z</time></trkpt><trkpt lat="43.2701345" lon="11.769087"><ele>259.0</ele><time>2026-05-01T06:27:44.459Z</time></trkpt><trkpt lat="43.2698731" lon="11.7691529"><ele>261.5</ele><time>2026-05-01T06:27:45.458Z</time></trkpt><trkpt lat="43.2696103" lon="11.7692196"><ele>264.0</ele><time>2026-05-01T06:27:46.458Z</time></trkpt><trkpt lat="43.2693496" lon="11.7692768"><ele>264.0</ele><time>2026-05-01T06:27:47.459Z</time></trkpt><trkpt lat="43.2690865" lon="11.7693273"><ele>264.0</ele><time>2026-05-01T06:27:48.458Z</time></trkpt><trkpt lat="43.26882" lon="11.7693545"><ele>264.5</ele><time>2026-05-01T06:27:49.459Z</time></trkpt><trkpt lat="43.2685527" lon="11.7693731"><ele>265.0</ele><time>2026-05-01T06:27:50.458Z</time></trkpt><trkpt lat="43.2682861" lon="11.7693801"><ele>262.0</ele><time>2026-05-01T06:27:51.459Z</time></trkpt><trkpt lat="43.2680153" lon="11.7693688"><ele>259.0</ele><time>2026-05-01T06:27:52.459Z</time></trkpt><trkpt lat="43.2677513" lon="11.7693404"><ele>259.0</ele><time>2026-05-01T06:27:53.458Z</time></trkpt><trkpt lat="43.2674866" lon="11.7693035"><ele>259.0</ele><time>2026-05-01T06:27:54.459Z</time></trkpt><trkpt lat="43.2672252" lon="11.7692498"><ele>256.0</ele><time>2026-05-01T06:27:55.459Z</time></trkpt><trkpt lat="43.2669635" lon="11.7691775"><ele>253.0</ele><time>2026-05-01T06:27:56.459Z</time></trkpt><trkpt lat="43.2667043" lon="11.7690956"><ele>253.0</ele><time>2026-05-01T06:27:57.458Z</time></trkpt><trkpt lat="43.2664418" lon="11.7690108"><ele>253.0</ele><time>2026-05-01T06:27:58.459Z</time></trkpt><trkpt lat="43.2661819" lon="11.7689133"><ele>253.0</ele><time>2026-05-01T06:27:59.459Z</time></trkpt><trkpt lat="43.2659227" lon="11.7688"><ele>253.0</ele><time>2026-05-01T06:28:00.458Z</time></trkpt><trkpt lat="43.2656709" lon="11.7686747"><ele>253.0</ele><time>2026-05-01T06:28:01.458Z</time></trkpt><trkpt lat="43.2654165" lon="11.768551"><ele>253.0</ele><time>2026-05-01T06:28:02.458Z</time></trkpt><trkpt lat="43.2651611" lon="11.7684314"><ele>253.0</ele><time>2026-05-01T06:28:03.459Z</time></trkpt><trkpt lat="43.2649004" lon="11.7683189"><ele>253.0</ele><time>2026-05-01T06:28:04.459Z</time></trkpt><trkpt lat="43.2646446" lon="11.7682044"><ele>252.5</ele><time>2026-05-01T06:28:05.458Z</time></trkpt><trkpt lat="43.2643946" lon="11.7680827"><ele>252.0</ele><time>2026-05-01T06:28:06.458Z</time></trkpt><trkpt lat="43.2641361" lon="11.7679605"><ele>252.0</ele><time>2026-05-01T06:28:07.458Z</time></trkpt><trkpt lat="43.2638808" lon="11.7678404"><ele>252.0</ele><time>2026-05-01T06:28:08.459Z</time></trkpt><trkpt lat="43.2636255" lon="11.7677269"><ele>253.0</ele><time>2026-05-01T06:28:09.459Z</time></trkpt><trkpt lat="43.2633701" lon="11.767616"><ele>254.0</ele><time>2026-05-01T06:28:10.458Z</time></trkpt><trkpt lat="43.2631113" lon="11.76752"><ele>254.0</ele><time>2026-05-01T06:28:11.459Z</time></trkpt><trkpt lat="43.262845" lon="11.7674368"><ele>254.0</ele><time>2026-05-01T06:28:12.459Z</time></trkpt><trkpt lat="43.2625819" lon="11.7673798"><ele>254.0</ele><time>2026-05-01T06:28:13.458Z</time></trkpt><trkpt lat="43.2623134" lon="11.7673415"><ele>254.0</ele><time>2026-05-01T06:28:14.459Z</time></trkpt><trkpt lat="43.2620395" lon="11.7673217"><ele>254.0</ele><time>2026-05-01T06:28:15.459Z</time></trkpt><trkpt lat="43.2617653" lon="11.7673085"><ele>254.0</ele><time>2026-05-01T06:28:16.459Z</time></trkpt><trkpt lat="43.2614914" lon="11.7673237"><ele>254.5</ele><time>2026-05-01T06:28:17.459Z</time></trkpt><trkpt lat="43.2612124" lon="11.7673528"><ele>255.0</ele><time>2026-05-01T06:28:18.458Z</time></trkpt><trkpt lat="43.2609374" lon="11.7673977"><ele>255.0</ele><time>2026-05-01T06:28:19.459Z</time></trkpt><trkpt lat="43.2606616" lon="11.7674631"><ele>255.0</ele><time>2026-05-01T06:28:20.459Z</time></trkpt><trkpt lat="43.2603908" lon="11.7675559"><ele>254.0</ele><time>2026-05-01T06:28:21.459Z</time></trkpt><trkpt lat="43.2601199" lon="11.767654"><ele>253.0</ele><time>2026-05-01T06:28:22.459Z</time></trkpt><trkpt lat="43.2598485" lon="11.7677483"><ele>253.0</ele><time>2026-05-01T06:28:23.458Z</time></trkpt><trkpt lat="43.2595837" lon="11.7678528"><ele>253.0</ele><time>2026-05-01T06:28:24.458Z</time></trkpt><trkpt lat="43.2593141" lon="11.767965"><ele>253.0</ele><time>2026-05-01T06:28:25.459Z</time></trkpt><trkpt lat="43.2590469" lon="11.768074"><ele>253.0</ele><time>2026-05-01T06:28:26.458Z</time></trkpt><trkpt lat="43.2587748" lon="11.7681723"><ele>253.5</ele><time>2026-05-01T06:28:27.458Z</time></trkpt><trkpt lat="43.2585046" lon="11.7682723"><ele>254.0</ele><time>2026-05-01T06:28:28.459Z</time></trkpt><trkpt lat="43.2582324" lon="11.7683718"><ele>253.5</ele><time>2026-05-01T06:28:29.459Z</time></trkpt><trkpt lat="43.2579653" lon="11.768475"><ele>253.0</ele><time>2026-05-01T06:28:30.459Z</time></trkpt><trkpt lat="43.257699" lon="11.7685746"><ele>253.0</ele><time>2026-05-01T06:28:31.459Z</time></trkpt><trkpt lat="43.2574289" lon="11.7686798"><ele>253.0</ele><time>2026-05-01T06:28:32.459Z</time></trkpt><trkpt lat="43.2571611" lon="11.7687878"><ele>252.0</ele><time>2026-05-01T06:28:33.459Z</time></trkpt><trkpt lat="43.2568963" lon="11.7688883"><ele>251.0</ele><time>2026-05-01T06:28:34.459Z</time></trkpt><trkpt lat="43.2566274" lon="11.7689882"><ele>252.5</ele><time>2026-05-01T06:28:35.459Z</time></trkpt><trkpt lat="43.2563642" lon="11.7690943"><ele>254.0</ele><time>2026-05-01T06:28:36.459Z</time></trkpt><trkpt lat="43.2560959" lon="11.7691975"><ele>254.0</ele><time>2026-05-01T06:28:37.459Z</time></trkpt><trkpt lat="43.2558301" lon="11.7692985"><ele>254.0</ele><time>2026-05-01T06:28:38.459Z</time></trkpt><trkpt lat="43.2555598" lon="11.7693968"><ele>253.0</ele><time>2026-05-01T06:28:39.459Z</time></trkpt><trkpt lat="43.2552935" lon="11.7694961"><ele>252.0</ele><time>2026-05-01T06:28:40.458Z</time></trkpt><trkpt lat="43.2550259" lon="11.7696002"><ele>252.0</ele><time>2026-05-01T06:28:41.459Z</time></trkpt><trkpt lat="43.2547567" lon="11.7696983"><ele>252.0</ele><time>2026-05-01T06:28:42.459Z</time></trkpt><trkpt lat="43.2544896" lon="11.7697969"><ele>252.0</ele><time>2026-05-01T06:28:43.459Z</time></trkpt><trkpt lat="43.2542205" lon="11.7698995"><ele>252.0</ele><time>2026-05-01T06:28:44.458Z</time></trkpt><trkpt lat="43.2539465" lon="11.7700084"><ele>252.5</ele><time>2026-05-01T06:28:45.458Z</time></trkpt><trkpt lat="43.2536789" lon="11.7701043"><ele>253.0</ele><time>2026-05-01T06:28:46.459Z</time></trkpt><trkpt lat="43.2534069" lon="11.7702053"><ele>253.0</ele><time>2026-05-01T06:28:47.459Z</time></trkpt><trkpt lat="43.2531403" lon="11.7703123"><ele>253.0</ele><time>2026-05-01T06:28:48.459Z</time></trkpt><trkpt lat="43.252872" lon="11.7704137"><ele>255.0</ele><time>2026-05-01T06:28:49.458Z</time></trkpt><trkpt lat="43.2526022" lon="11.7705177"><ele>257.0</ele><time>2026-05-01T06:28:50.459Z</time></trkpt><trkpt lat="43.2523305" lon="11.7706193"><ele>259.5</ele><time>2026-05-01T06:28:51.459Z</time></trkpt><trkpt lat="43.2520648" lon="11.7707217"><ele>262.0</ele><time>2026-05-01T06:28:52.459Z</time></trkpt><trkpt lat="43.2517967" lon="11.7708252"><ele>262.0</ele><time>2026-05-01T06:28:53.459Z</time></trkpt><trkpt lat="43.2515285" lon="11.7709277"><ele>262.0</ele><time>2026-05-01T06:28:54.459Z</time></trkpt><trkpt lat="43.2512591" lon="11.7710297"><ele>259.5</ele><time>2026-05-01T06:28:55.459Z</time></trkpt><trkpt lat="43.2509869" lon="11.7711349"><ele>257.0</ele><time>2026-05-01T06:28:56.459Z</time></trkpt><trkpt lat="43.2507142" lon="11.7712395"><ele>258.0</ele><time>2026-05-01T06:28:57.459Z</time></trkpt><trkpt lat="43.2504434" lon="11.7713497"><ele>259.0</ele><time>2026-05-01T06:28:58.458Z</time></trkpt><trkpt lat="43.2501699" lon="11.771451"><ele>259.0</ele><time>2026-05-01T06:28:59.459Z</time></trkpt><trkpt lat="43.2499008" lon="11.7715659"><ele>259.0</ele><time>2026-05-01T06:29:00.458Z</time></trkpt><trkpt lat="43.2496362" lon="11.7716882"><ele>259.0</ele><time>2026-05-01T06:29:01.459Z</time></trkpt><trkpt lat="43.2493775" lon="11.7718249"><ele>259.0</ele><time>2026-05-01T06:29:02.459Z</time></trkpt><trkpt lat="43.2491198" lon="11.7719748"><ele>257.5</ele><time>2026-05-01T06:29:03.458Z</time></trkpt><trkpt lat="43.2488593" lon="11.772133"><ele>256.0</ele><time>2026-05-01T06:29:04.459Z</time></trkpt><trkpt lat="43.2486058" lon="11.7723005"><ele>256.0</ele><time>2026-05-01T06:29:05.459Z</time></trkpt><trkpt lat="43.2483517" lon="11.7724705"><ele>256.0</ele><time>2026-05-01T06:29:06.459Z</time></trkpt><trkpt lat="43.2481005" lon="11.7726568"><ele>257.5</ele><time>2026-05-01T06:29:07.459Z</time></trkpt><trkpt lat="43.2478572" lon="11.7728662"><ele>259.0</ele><time>2026-05-01T06:29:08.458Z</time></trkpt><trkpt lat="43.2476196" lon="11.7730746"><ele>259.0</ele><time>2026-05-01T06:29:09.458Z</time></trkpt><trkpt lat="43.2473846" lon="11.7732991"><ele>259.0</ele><time>2026-05-01T06:29:10.458Z</time></trkpt><trkpt lat="43.2471603" lon="11.7735391"><ele>259.5</ele><time>2026-05-01T06:29:11.459Z</time></trkpt><trkpt lat="43.2469284" lon="11.7737902"><ele>260.0</ele><time>2026-05-01T06:29:12.458Z</time></trkpt><trkpt lat="43.2467041" lon="11.7740337"><ele>260.0</ele><time>2026-05-01T06:29:13.459Z</time></trkpt><trkpt lat="43.246481" lon="11.774283"><ele>260.0</ele><time>2026-05-01T06:29:14.459Z</time></trkpt><trkpt lat="43.2462611" lon="11.7745285"><ele>259.5</ele><time>2026-05-01T06:29:15.459Z</time></trkpt><trkpt lat="43.2460348" lon="11.7747826"><ele>259.0</ele><time>2026-05-01T06:29:16.459Z</time></trkpt><trkpt lat="43.2458124" lon="11.7750168"><ele>261.0</ele><time>2026-05-01T06:29:17.458Z</time></trkpt><trkpt lat="43.2455867" lon="11.7752644"><ele>263.0</ele><time>2026-05-01T06:29:18.459Z</time></trkpt><trkpt lat="43.245363" lon="11.7755078"><ele>263.0</ele><time>2026-05-01T06:29:19.459Z</time></trkpt><trkpt lat="43.2451479" lon="11.7757553"><ele>263.0</ele><time>2026-05-01T06:29:20.458Z</time></trkpt><trkpt lat="43.2449263" lon="11.7759995"><ele>262.5</ele><time>2026-05-01T06:29:21.458Z</time></trkpt><trkpt lat="43.2447035" lon="11.7762394"><ele>262.0</ele><time>2026-05-01T06:29:22.458Z</time></trkpt><trkpt lat="43.2444859" lon="11.7764823"><ele>262.0</ele><time>2026-05-01T06:29:23.459Z</time></trkpt><trkpt lat="43.2442645" lon="11.7767317"><ele>262.0</ele><time>2026-05-01T06:29:24.458Z</time></trkpt><trkpt lat="43.2440452" lon="11.7769771"><ele>261.0</ele><time>2026-05-01T06:29:25.459Z</time></trkpt><trkpt lat="43.2438264" lon="11.7772106"><ele>260.0</ele><time>2026-05-01T06:29:26.459Z</time></trkpt><trkpt lat="43.2436065" lon="11.7774482"><ele>258.5</ele><time>2026-05-01T06:29:27.459Z</time></trkpt><trkpt lat="43.2433843" lon="11.7776932"><ele>257.0</ele><time>2026-05-01T06:29:28.458Z</time></trkpt><trkpt lat="43.2431684" lon="11.7779347"><ele>258.5</ele><time>2026-05-01T06:29:29.459Z</time></trkpt><trkpt lat="43.2429476" lon="11.7781905"><ele>260.0</ele><time>2026-05-01T06:29:30.458Z</time></trkpt><trkpt lat="43.242726" lon="11.7784377"><ele>259.0</ele><time>2026-05-01T06:29:31.459Z</time></trkpt><trkpt lat="43.2425075" lon="11.7786808"><ele>258.0</ele><time>2026-05-01T06:29:32.459Z</time></trkpt><trkpt lat="43.242286" lon="11.7789302"><ele>259.0</ele><time>2026-05-01T06:29:33.459Z</time></trkpt><trkpt lat="43.2420646" lon="11.7791771"><ele>260.0</ele><time>2026-05-01T06:29:34.459Z</time></trkpt><trkpt lat="43.2418466" lon="11.7794189"><ele>260.0</ele><time>2026-05-01T06:29:35.458Z</time></trkpt><trkpt lat="43.241622" lon="11.7796634"><ele>260.0</ele><time>2026-05-01T06:29:36.459Z</time></trkpt><trkpt lat="43.2414089" lon="11.7799058"><ele>260.5</ele><time>2026-05-01T06:29:37.458Z</time></trkpt><trkpt lat="43.2411912" lon="11.7801436"><ele>261.0</ele><time>2026-05-01T06:29:38.459Z</time></trkpt><trkpt lat="43.2409688" lon="11.7803859"><ele>261.0</ele><time>2026-05-01T06:29:39.459Z</time></trkpt><trkpt lat="43.2407445" lon="11.7806377"><ele>261.0</ele><time>2026-05-01T06:29:40.459Z</time></trkpt><trkpt lat="43.2405217" lon="11.7808875"><ele>261.0</ele><time>2026-05-01T06:29:41.458Z</time></trkpt><trkpt lat="43.2402983" lon="11.7811374"><ele>261.0</ele><time>2026-05-01T06:29:42.459Z</time></trkpt><trkpt lat="43.2400762" lon="11.7813861"><ele>261.0</ele><time>2026-05-01T06:29:43.459Z</time></trkpt><trkpt lat="43.2398445" lon="11.7816364"><ele>261.0</ele><time>2026-05-01T06:29:44.459Z</time></trkpt><trkpt lat="43.2396189" lon="11.7818887"><ele>261.0</ele><time>2026-05-01T06:29:45.459Z</time></trkpt><trkpt lat="43.2393869" lon="11.7821416"><ele>261.0</ele><time>2026-05-01T06:29:46.458Z</time></trkpt><trkpt lat="43.2391626" lon="11.7824008"><ele>263.0</ele><time>2026-05-01T06:29:47.458Z</time></trkpt><trkpt lat="43.2389364" lon="11.7826575"><ele>265.0</ele><time>2026-05-01T06:29:48.459Z</time></trkpt><trkpt lat="43.238708" lon="11.7829037"><ele>265.0</ele><time>2026-05-01T06:29:49.458Z</time></trkpt><trkpt lat="43.238482" lon="11.7831562"><ele>265.0</ele><time>2026-05-01T06:29:50.459Z</time></trkpt><trkpt lat="43.2382593" lon="11.7834108"><ele>265.5</ele><time>2026-05-01T06:29:51.458Z</time></trkpt><trkpt lat="43.238039" lon="11.7836707"><ele>266.0</ele><time>2026-05-01T06:29:52.458Z</time></trkpt><trkpt lat="43.2378209" lon="11.7839407"><ele>266.0</ele><time>2026-05-01T06:29:53.459Z</time></trkpt><trkpt lat="43.2376084" lon="11.7842171"><ele>266.0</ele><time>2026-05-01T06:29:54.459Z</time></trkpt><trkpt lat="43.2374015" lon="11.7844942"><ele>265.0</ele><time>2026-05-01T06:29:55.458Z</time></trkpt><trkpt lat="43.2371913" lon="11.7847724"><ele>264.0</ele><time>2026-05-01T06:29:56.459Z</time></trkpt><trkpt lat="43.2369844" lon="11.7850542"><ele>261.0</ele><time>2026-05-01T06:29:57.458Z</time></trkpt><trkpt lat="43.2367778" lon="11.7853348"><ele>258.0</ele><time>2026-05-01T06:29:58.458Z</time></trkpt><trkpt lat="43.2365729" lon="11.7856206"><ele>257.5</ele><time>2026-05-01T06:29:59.459Z</time></trkpt><trkpt lat="43.2363796" lon="11.7859106"><ele>257.0</ele><time>2026-05-01T06:30:00.459Z</time></trkpt><trkpt lat="43.2361942" lon="11.7862045"><ele>257.0</ele><time>2026-05-01T06:30:01.458Z</time></trkpt><trkpt lat="43.2360076" lon="11.786493"><ele>257.0</ele><time>2026-05-01T06:30:02.459Z</time></trkpt><trkpt lat="43.2358229" lon="11.7867716"><ele>257.5</ele><time>2026-05-01T06:30:03.459Z</time></trkpt><trkpt lat="43.2356393" lon="11.7870459"><ele>258.0</ele><time>2026-05-01T06:30:04.459Z</time></trkpt><trkpt lat="43.2354642" lon="11.7873175"><ele>258.0</ele><time>2026-05-01T06:30:05.459Z</time></trkpt><trkpt lat="43.235291" lon="11.7875891"><ele>258.0</ele><time>2026-05-01T06:30:06.458Z</time></trkpt><trkpt lat="43.2351119" lon="11.7878641"><ele>256.0</ele><time>2026-05-01T06:30:07.459Z</time></trkpt><trkpt lat="43.234931" lon="11.7881409"><ele>254.0</ele><time>2026-05-01T06:30:08.459Z</time></trkpt><trkpt lat="43.2347471" lon="11.7884109"><ele>256.5</ele><time>2026-05-01T06:30:09.458Z</time></trkpt><trkpt lat="43.2345605" lon="11.788682"><ele>259.0</ele><time>2026-05-01T06:30:10.459Z</time></trkpt><trkpt lat="43.2343683" lon="11.7889493"><ele>259.0</ele><time>2026-05-01T06:30:11.459Z</time></trkpt><trkpt lat="43.2341711" lon="11.7892108"><ele>259.0</ele><time>2026-05-01T06:30:12.459Z</time></trkpt><trkpt lat="43.2339698" lon="11.7894704"><ele>258.0</ele><time>2026-05-01T06:30:13.459Z</time></trkpt><trkpt lat="43.2337624" lon="11.7897281"><ele>257.0</ele><time>2026-05-01T06:30:14.459Z</time></trkpt><trkpt lat="43.2335465" lon="11.7899758"><ele>254.5</ele><time>2026-05-01T06:30:15.459Z</time></trkpt><trkpt lat="43.2333277" lon="11.7902194"><ele>252.0</ele><time>2026-05-01T06:30:16.459Z</time></trkpt><trkpt lat="43.2331055" lon="11.7904583"><ele>251.5</ele><time>2026-05-01T06:30:17.459Z</time></trkpt><trkpt lat="43.2328824" lon="11.7906895"><ele>251.0</ele><time>2026-05-01T06:30:18.459Z</time></trkpt><trkpt lat="43.2326553" lon="11.7909171"><ele>251.0</ele><time>2026-05-01T06:30:19.459Z</time></trkpt><trkpt lat="43.2324186" lon="11.7911366"><ele>251.0</ele><time>2026-05-01T06:30:20.458Z</time></trkpt><trkpt lat="43.2321805" lon="11.7913532"><ele>250.5</ele><time>2026-05-01T06:30:21.459Z</time></trkpt><trkpt lat="43.2319382" lon="11.7915659"><ele>250.0</ele><time>2026-05-01T06:30:22.459Z</time></trkpt><trkpt lat="43.2317027" lon="11.7917781"><ele>249.0</ele><time>2026-05-01T06:30:23.459Z</time></trkpt><trkpt lat="43.2314656" lon="11.7919904"><ele>248.0</ele><time>2026-05-01T06:30:24.459Z</time></trkpt><trkpt lat="43.231223" lon="11.7922079"><ele>248.0</ele><time>2026-05-01T06:30:25.459Z</time></trkpt><trkpt lat="43.2309867" lon="11.7924161"><ele>248.0</ele><time>2026-05-01T06:30:26.459Z</time></trkpt><trkpt lat="43.2307478" lon="11.7926218"><ele>248.5</ele><time>2026-05-01T06:30:27.458Z</time></trkpt><trkpt lat="43.2305106" lon="11.7928369"><ele>249.0</ele><time>2026-05-01T06:30:28.459Z</time></trkpt><trkpt lat="43.2302694" lon="11.7930512"><ele>249.0</ele><time>2026-05-01T06:30:29.458Z</time></trkpt><trkpt lat="43.2300313" lon="11.7932553"><ele>249.0</ele><time>2026-05-01T06:30:30.459Z</time></trkpt><trkpt lat="43.2297944" lon="11.7934647"><ele>249.0</ele><time>2026-05-01T06:30:31.459Z</time></trkpt><trkpt lat="43.2295548" lon="11.7936743"><ele>249.0</ele><time>2026-05-01T06:30:32.459Z</time></trkpt><trkpt lat="43.2293162" lon="11.7938889"><ele>249.0</ele><time>2026-05-01T06:30:33.458Z</time></trkpt><trkpt lat="43.2290798" lon="11.7941083"><ele>249.0</ele><time>2026-05-01T06:30:34.459Z</time></trkpt><trkpt lat="43.2288436" lon="11.7943215"><ele>250.5</ele><time>2026-05-01T06:30:35.459Z</time></trkpt><trkpt lat="43.2286099" lon="11.7945268"><ele>252.0</ele><time>2026-05-01T06:30:36.459Z</time></trkpt><trkpt lat="43.228381" lon="11.7947299"><ele>252.0</ele><time>2026-05-01T06:30:37.459Z</time></trkpt><trkpt lat="43.2281469" lon="11.7949359"><ele>252.0</ele><time>2026-05-01T06:30:38.459Z</time></trkpt><trkpt lat="43.2279155" lon="11.7951447"><ele>252.5</ele><time>2026-05-01T06:30:39.459Z</time></trkpt><trkpt lat="43.2276901" lon="11.7953436"><ele>253.0</ele><time>2026-05-01T06:30:40.459Z</time></trkpt><trkpt lat="43.2274669" lon="11.7955442"><ele>253.0</ele><time>2026-05-01T06:30:41.458Z</time></trkpt><trkpt lat="43.2272453" lon="11.7957448"><ele>253.0</ele><time>2026-05-01T06:30:42.459Z</time></trkpt><trkpt lat="43.2270241" lon="11.7959396"><ele>252.5</ele><time>2026-05-01T06:30:43.459Z</time></trkpt><trkpt lat="43.2268058" lon="11.7961353"><ele>252.0</ele><time>2026-05-01T06:30:44.458Z</time></trkpt><trkpt lat="43.2265817" lon="11.796332"><ele>251.0</ele><time>2026-05-01T06:30:45.459Z</time></trkpt><trkpt lat="43.2263611" lon="11.796525"><ele>250.0</ele><time>2026-05-01T06:30:46.459Z</time></trkpt><trkpt lat="43.2261406" lon="11.7967189"><ele>249.5</ele><time>2026-05-01T06:30:47.458Z</time></trkpt><trkpt lat="43.2259191" lon="11.7969126"><ele>249.0</ele><time>2026-05-01T06:30:48.459Z</time></trkpt><trkpt lat="43.2256972" lon="11.7971105"><ele>250.0</ele><time>2026-05-01T06:30:49.459Z</time></trkpt><trkpt lat="43.225472" lon="11.7973068"><ele>251.0</ele><time>2026-05-01T06:30:50.459Z</time></trkpt><trkpt lat="43.2252515" lon="11.7975007"><ele>251.0</ele><time>2026-05-01T06:30:51.459Z</time></trkpt><trkpt lat="43.2250281" lon="11.7976938"><ele>251.0</ele><time>2026-05-01T06:30:52.459Z</time></trkpt><trkpt lat="43.2248037" lon="11.7978844"><ele>251.0</ele><time>2026-05-01T06:30:53.459Z</time></trkpt><trkpt lat="43.2245866" lon="11.7980809"><ele>251.0</ele><time>2026-05-01T06:30:54.458Z</time></trkpt><trkpt lat="43.224363" lon="11.7982814"><ele>251.0</ele><time>2026-05-01T06:30:55.459Z</time></trkpt><trkpt lat="43.2241349" lon="11.7984741"><ele>251.0</ele><time>2026-05-01T06:30:56.459Z</time></trkpt><trkpt lat="43.2239173" lon="11.7986652"><ele>253.5</ele><time>2026-05-01T06:30:57.458Z</time></trkpt><trkpt lat="43.2236931" lon="11.7988627"><ele>256.0</ele><time>2026-05-01T06:30:58.459Z</time></trkpt><trkpt lat="43.2234746" lon="11.7990622"><ele>256.0</ele><time>2026-05-01T06:30:59.459Z</time></trkpt><trkpt lat="43.2232531" lon="11.7992608"><ele>256.0</ele><time>2026-05-01T06:31:00.459Z</time></trkpt><trkpt lat="43.223033" lon="11.7994537"><ele>261.0</ele><time>2026-05-01T06:31:01.459Z</time></trkpt><trkpt lat="43.2228121" lon="11.7996505"><ele>266.0</ele><time>2026-05-01T06:31:02.459Z</time></trkpt><trkpt lat="43.222585" lon="11.7998476"><ele>266.0</ele><time>2026-05-01T06:31:03.459Z</time></trkpt><trkpt lat="43.2223666" lon="11.8000436"><ele>266.0</ele><time>2026-05-01T06:31:04.459Z</time></trkpt><trkpt lat="43.2221535" lon="11.8002352"><ele>267.0</ele><time>2026-05-01T06:31:05.459Z</time></trkpt><trkpt lat="43.2219416" lon="11.800427"><ele>268.0</ele><time>2026-05-01T06:31:06.459Z</time></trkpt><trkpt lat="43.2217325" lon="11.8006171"><ele>268.0</ele><time>2026-05-01T06:31:07.459Z</time></trkpt><trkpt lat="43.2215243" lon="11.8008086"><ele>268.0</ele><time>2026-05-01T06:31:08.459Z</time></trkpt><trkpt lat="43.221312" lon="11.8010011"><ele>267.0</ele><time>2026-05-01T06:31:09.459Z</time></trkpt><trkpt lat="43.2210975" lon="11.8011877"><ele>266.0</ele><time>2026-05-01T06:31:10.459Z</time></trkpt><trkpt lat="43.2208898" lon="11.8013647"><ele>266.0</ele><time>2026-05-01T06:31:11.459Z</time></trkpt><trkpt lat="43.2206772" lon="11.8015561"><ele>266.0</ele><time>2026-05-01T06:31:12.458Z</time></trkpt><trkpt lat="43.2204594" lon="11.8017547"><ele>263.5</ele><time>2026-05-01T06:31:13.459Z</time></trkpt><trkpt lat="43.2202476" lon="11.8019368"><ele>261.0</ele><time>2026-05-01T06:31:14.459Z</time></trkpt><trkpt lat="43.2200432" lon="11.8021224"><ele>261.0</ele><time>2026-05-01T06:31:15.458Z</time></trkpt><trkpt lat="43.2198405" lon="11.8022932"><ele>261.0</ele><time>2026-05-01T06:31:16.458Z</time></trkpt><trkpt lat="43.2196332" lon="11.8024693"><ele>261.0</ele><time>2026-05-01T06:31:17.459Z</time></trkpt><trkpt lat="43.2194309" lon="11.8026539"><ele>261.0</ele><time>2026-05-01T06:31:18.459Z</time></trkpt><trkpt lat="43.2192248" lon="11.8028374"><ele>261.0</ele><time>2026-05-01T06:31:19.459Z</time></trkpt><trkpt lat="43.2190169" lon="11.8030184"><ele>261.0</ele><time>2026-05-01T06:31:20.459Z</time></trkpt><trkpt lat="43.2188072" lon="11.8032057"><ele>261.0</ele><time>2026-05-01T06:31:21.459Z</time></trkpt><trkpt lat="43.2185964" lon="11.8033932"><ele>261.0</ele><time>2026-05-01T06:31:22.459Z</time></trkpt><trkpt lat="43.2183847" lon="11.8035794"><ele>261.5</ele><time>2026-05-01T06:31:23.459Z</time></trkpt><trkpt lat="43.2181693" lon="11.8037675"><ele>262.0</ele><time>2026-05-01T06:31:24.458Z</time></trkpt><trkpt lat="43.2179529" lon="11.8039544"><ele>262.0</ele><time>2026-05-01T06:31:25.458Z</time></trkpt><trkpt lat="43.217739" lon="11.804144"><ele>262.0</ele><time>2026-05-01T06:31:26.459Z</time></trkpt><trkpt lat="43.2175254" lon="11.8043328"><ele>264.5</ele><time>2026-05-01T06:31:27.459Z</time></trkpt><trkpt lat="43.2173099" lon="11.8045222"><ele>267.0</ele><time>2026-05-01T06:31:28.458Z</time></trkpt><trkpt lat="43.2171023" lon="11.8047074"><ele>267.0</ele><time>2026-05-01T06:31:29.458Z</time></trkpt><trkpt lat="43.2168859" lon="11.8049003"><ele>267.0</ele><time>2026-05-01T06:31:30.459Z</time></trkpt><trkpt lat="43.2166733" lon="11.8050826"><ele>265.5</ele><time>2026-05-01T06:31:31.458Z</time></trkpt><trkpt lat="43.2164617" lon="11.805263"><ele>264.0</ele><time>2026-05-01T06:31:32.459Z</time></trkpt><trkpt lat="43.2162489" lon="11.8054448"><ele>264.0</ele><time>2026-05-01T06:31:33.459Z</time></trkpt><trkpt lat="43.2160433" lon="11.8056287"><ele>264.0</ele><time>2026-05-01T06:31:34.458Z</time></trkpt><trkpt lat="43.2158356" lon="11.8058131"><ele>264.5</ele><time>2026-05-01T06:31:35.459Z</time></trkpt><trkpt lat="43.2156258" lon="11.8059928"><ele>265.0</ele><time>2026-05-01T06:31:36.459Z</time></trkpt><trkpt lat="43.2154193" lon="11.8061786"><ele>263.0</ele><time>2026-05-01T06:31:37.459Z</time></trkpt><trkpt lat="43.2152134" lon="11.8063662"><ele>261.0</ele><time>2026-05-01T06:31:38.459Z</time></trkpt><trkpt lat="43.2149982" lon="11.8065321"><ele>260.5</ele><time>2026-05-01T06:31:39.459Z</time></trkpt><trkpt lat="43.2147809" lon="11.8067096"><ele>260.0</ele><time>2026-05-01T06:31:40.459Z</time></trkpt><trkpt lat="43.2145706" lon="11.806882"><ele>260.0</ele><time>2026-05-01T06:31:41.459Z</time></trkpt><trkpt lat="43.2143557" lon="11.8070505"><ele>260.0</ele><time>2026-05-01T06:31:42.459Z</time></trkpt><trkpt lat="43.2141505" lon="11.8072076"><ele>259.6666666666667</ele><time>2026-05-01T06:31:43.458Z</time></trkpt><trkpt lat="43.2139553" lon="11.8073552"><ele>259.3333333333333</ele><time>2026-05-01T06:31:44.458Z</time></trkpt><trkpt lat="43.2137734" lon="11.8074979"><ele>259.0</ele><time>2026-05-01T06:31:45.459Z</time></trkpt><trkpt lat="43.2135951" lon="11.8076182"><ele>258.0</ele><time>2026-05-01T06:31:46.459Z</time></trkpt><trkpt lat="43.2134179" lon="11.8077478"><ele>257.0</ele><time>2026-05-01T06:31:47.459Z</time></trkpt><trkpt lat="43.2132328" lon="11.8078463"><ele>256.0</ele><time>2026-05-01T06:31:48.459Z</time></trkpt><trkpt lat="43.213055" lon="11.8079296"><ele>256.0</ele><time>2026-05-01T06:31:49.459Z</time></trkpt><trkpt lat="43.2128874" lon="11.8079996"><ele>256.0</ele><time>2026-05-01T06:31:50.459Z</time></trkpt><trkpt lat="43.2127194" lon="11.8080691"><ele>256.0</ele><time>2026-05-01T06:31:51.459Z</time></trkpt><trkpt lat="43.2125599" lon="11.8081291"><ele>256.0</ele><time>2026-05-01T06:31:52.459Z</time></trkpt><trkpt lat="43.2123988" lon="11.8081534"><ele>256.0</ele><time>2026-05-01T06:31:53.459Z</time></trkpt><trkpt lat="43.2122498" lon="11.8081529"><ele>256.0</ele><time>2026-05-01T06:31:54.459Z</time></trkpt><trkpt lat="43.2121077" lon="11.8080941"><ele>256.75</ele><time>2026-05-01T06:31:55.459Z</time></trkpt><trkpt lat="43.2120041" lon="11.8080042"><ele>257.5</ele><time>2026-05-01T06:31:56.459Z</time></trkpt><trkpt lat="43.2119321" lon="11.8078803"><ele>258.25</ele><time>2026-05-01T06:31:57.459Z</time></trkpt><trkpt lat="43.2118835" lon="11.8077283"><ele>259.0</ele><time>2026-05-01T06:31:58.459Z</time></trkpt><trkpt lat="43.2118497" lon="11.8075883"><ele>259.0</ele><time>2026-05-01T06:31:59.459Z</time></trkpt><trkpt lat="43.2118283" lon="11.8074619"><ele>259.0</ele><time>2026-05-01T06:32:00.459Z</time></trkpt><trkpt lat="43.2118106" lon="11.8073405"><ele>259.0</ele><time>2026-05-01T06:32:01.459Z</time></trkpt><trkpt lat="43.2117949" lon="11.8072268"><ele>259.0</ele><time>2026-05-01T06:32:02.459Z</time></trkpt><trkpt lat="43.2117854" lon="11.8071169"><ele>259.0</ele><time>2026-05-01T06:32:03.459Z</time></trkpt><trkpt lat="43.21178" lon="11.8070236"><ele>259.0</ele><time>2026-05-01T06:32:04.459Z</time></trkpt><trkpt lat="43.211789" lon="11.806909"><ele>259.0</ele><time>2026-05-01T06:32:06.459Z</time></trkpt><trkpt lat="43.2118107" lon="11.8067929"><ele>259.0</ele><time>2026-05-01T06:32:09.458Z</time></trkpt><trkpt lat="43.2118203" lon="11.8066686"><ele>259.0</ele><time>2026-05-01T06:33:03.462Z</time></trkpt><trkpt lat="43.2118078" lon="11.8065203"><ele>259.0</ele><time>2026-05-01T06:33:05.461Z</time></trkpt><trkpt lat="43.2118496" lon="11.8063923"><ele>259.0</ele><time>2026-05-01T06:33:07.462Z</time></trkpt><trkpt lat="43.2119492" lon="11.8063239"><ele>259.0</ele><time>2026-05-01T06:33:09.462Z</time></trkpt><trkpt lat="43.2120375" lon="11.8063155"><ele>259.0</ele><time>2026-05-01T06:33:11.462Z</time></trkpt><trkpt lat="43.2121207" lon="11.8063128"><ele>259.0</ele><time>2026-05-01T06:34:54.462Z</time></trkpt><trkpt lat="43.212197" lon="11.8063518"><ele>259.0</ele><time>2026-05-01T06:34:56.462Z</time></trkpt><trkpt lat="43.2123056" lon="11.8064629"><ele>259.0</ele><time>2026-05-01T06:34:58.462Z</time></trkpt><trkpt lat="43.2123774" lon="11.8065227"><ele>258.8</ele><time>2026-05-01T06:34:59.461Z</time></trkpt><trkpt lat="43.2124599" lon="11.8066003"><ele>258.59999999999997</ele><time>2026-05-01T06:35:00.461Z</time></trkpt><trkpt lat="43.2125471" lon="11.8066865"><ele>258.4</ele><time>2026-05-01T06:35:01.462Z</time></trkpt><trkpt lat="43.2126407" lon="11.8067715"><ele>258.2</ele><time>2026-05-01T06:35:02.462Z</time></trkpt><trkpt lat="43.2127368" lon="11.8068677"><ele>258.0</ele><time>2026-05-01T06:35:03.462Z</time></trkpt><trkpt lat="43.2128358" lon="11.8069624"><ele>257.6666666666667</ele><time>2026-05-01T06:35:04.462Z</time></trkpt><trkpt lat="43.2129476" lon="11.807062"><ele>257.33333333333337</ele><time>2026-05-01T06:35:05.462Z</time></trkpt><trkpt lat="43.2130691" lon="11.8071831"><ele>257.0</ele><time>2026-05-01T06:35:06.462Z</time></trkpt><trkpt lat="43.2132109" lon="11.8073054"><ele>257.5</ele><time>2026-05-01T06:35:07.462Z</time></trkpt><trkpt lat="43.2133403" lon="11.8074233"><ele>258.0</ele><time>2026-05-01T06:35:08.462Z</time></trkpt><trkpt lat="43.2134487" lon="11.8075369"><ele>258.5</ele><time>2026-05-01T06:35:09.461Z</time></trkpt><trkpt lat="43.2135614" lon="11.8076341"><ele>259.0</ele><time>2026-05-01T06:35:10.462Z</time></trkpt><trkpt lat="43.2136614" lon="11.8077546"><ele>257.75</ele><time>2026-05-01T06:35:11.462Z</time></trkpt><trkpt lat="43.2137604" lon="11.8078465"><ele>256.5</ele><time>2026-05-01T06:35:12.462Z</time></trkpt><trkpt lat="43.2138507" lon="11.8079362"><ele>255.25</ele><time>2026-05-01T06:35:13.462Z</time></trkpt><trkpt lat="43.2139438" lon="11.8080261"><ele>254.0</ele><time>2026-05-01T06:35:14.462Z</time></trkpt><trkpt lat="43.2140352" lon="11.8081171"><ele>254.0</ele><time>2026-05-01T06:35:15.461Z</time></trkpt><trkpt lat="43.2141314" lon="11.8082139"><ele>254.0</ele><time>2026-05-01T06:35:16.462Z</time></trkpt><trkpt lat="43.2142359" lon="11.8083163"><ele>254.0</ele><time>2026-05-01T06:35:17.462Z</time></trkpt><trkpt lat="43.2143471" lon="11.808411"><ele>254.0</ele><time>2026-05-01T06:35:18.462Z</time></trkpt><trkpt lat="43.2144605" lon="11.8085064"><ele>253.5</ele><time>2026-05-01T06:35:19.461Z</time></trkpt><trkpt lat="43.2145783" lon="11.8085896"><ele>253.0</ele><time>2026-05-01T06:35:20.461Z</time></trkpt><trkpt lat="43.2146902" lon="11.8086626"><ele>252.5</ele><time>2026-05-01T06:35:21.462Z</time></trkpt><trkpt lat="43.2148032" lon="11.8087307"><ele>252.0</ele><time>2026-05-01T06:35:22.462Z</time></trkpt><trkpt lat="43.2149174" lon="11.8088"><ele>252.0</ele><time>2026-05-01T06:35:23.462Z</time></trkpt><trkpt lat="43.2150363" lon="11.8088709"><ele>252.0</ele><time>2026-05-01T06:35:24.461Z</time></trkpt><trkpt lat="43.2151541" lon="11.8089441"><ele>252.0</ele><time>2026-05-01T06:35:25.461Z</time></trkpt><trkpt lat="43.2152778" lon="11.8090218"><ele>252.0</ele><time>2026-05-01T06:35:26.462Z</time></trkpt><trkpt lat="43.2153879" lon="11.8090851"><ele>252.0</ele><time>2026-05-01T06:35:27.462Z</time></trkpt><trkpt lat="43.2155001" lon="11.8091459"><ele>252.0</ele><time>2026-05-01T06:35:28.462Z</time></trkpt><trkpt lat="43.2156059" lon="11.8092084"><ele>252.0</ele><time>2026-05-01T06:35:29.462Z</time></trkpt><trkpt lat="43.215704" lon="11.8092707"><ele>252.0</ele><time>2026-05-01T06:35:30.462Z</time></trkpt><trkpt lat="43.2157925" lon="11.8093207"><ele>252.0</ele><time>2026-05-01T06:35:31.462Z</time></trkpt><trkpt lat="43.2158828" lon="11.8093739"><ele>251.33333333333334</ele><time>2026-05-01T06:35:32.462Z</time></trkpt><trkpt lat="43.2159752" lon="11.8094286"><ele>250.66666666666669</ele><time>2026-05-01T06:35:33.462Z</time></trkpt><trkpt lat="43.216063" lon="11.8094714"><ele>250.0</ele><time>2026-05-01T06:35:34.462Z</time></trkpt><trkpt lat="43.2161381" lon="11.8095194"><ele>249.33333333333334</ele><time>2026-05-01T06:35:35.461Z</time></trkpt><trkpt lat="43.2162161" lon="11.8095655"><ele>248.66666666666669</ele><time>2026-05-01T06:35:36.462Z</time></trkpt><trkpt lat="43.2162787" lon="11.8096049"><ele>248.0</ele><time>2026-05-01T06:35:37.462Z</time></trkpt><trkpt lat="43.216334" lon="11.8096468"><ele>248.00000000000003</ele><time>2026-05-01T06:35:38.462Z</time></trkpt><trkpt lat="43.2164099" lon="11.8097053"><ele>248.0</ele><time>2026-05-01T06:35:40.462Z</time></trkpt><trkpt lat="43.2164835" lon="11.8097624"><ele>248.0</ele><time>2026-05-01T06:35:42.461Z</time></trkpt><trkpt lat="43.2165362" lon="11.8098201"><ele>248.0</ele><time>2026-05-01T06:35:43.462Z</time></trkpt><trkpt lat="43.2165949" lon="11.8099411"><ele>248.00000000000003</ele><time>2026-05-01T06:35:44.462Z</time></trkpt><trkpt lat="43.2166328" lon="11.8100582"><ele>248.0</ele><time>2026-05-01T06:35:45.462Z</time></trkpt><trkpt lat="43.2166615" lon="11.8101649"><ele>247.83333333333334</ele><time>2026-05-01T06:35:46.462Z</time></trkpt><trkpt lat="43.216707" lon="11.8102486"><ele>247.66666666666669</ele><time>2026-05-01T06:35:47.462Z</time></trkpt><trkpt lat="43.2167683" lon="11.8103197"><ele>247.5</ele><time>2026-05-01T06:35:48.462Z</time></trkpt><trkpt lat="43.2168331" lon="11.8103721"><ele>247.33333333333331</ele><time>2026-05-01T06:35:49.462Z</time></trkpt><trkpt lat="43.2169206" lon="11.8104311"><ele>247.16666666666666</ele><time>2026-05-01T06:35:50.462Z</time></trkpt><trkpt lat="43.2170078" lon="11.8105267"><ele>247.0</ele><time>2026-05-01T06:35:51.462Z</time></trkpt><trkpt lat="43.2171065" lon="11.8106572"><ele>247.0</ele><time>2026-05-01T06:35:52.462Z</time></trkpt><trkpt lat="43.217188" lon="11.8108372"><ele>247.0</ele><time>2026-05-01T06:35:53.462Z</time></trkpt><trkpt lat="43.2172657" lon="11.8110306"><ele>247.0</ele><time>2026-05-01T06:35:54.462Z</time></trkpt><trkpt lat="43.2173629" lon="11.8112301"><ele>247.33333333333331</ele><time>2026-05-01T06:35:55.462Z</time></trkpt><trkpt lat="43.2174698" lon="11.8114517"><ele>247.66666666666669</ele><time>2026-05-01T06:35:56.462Z</time></trkpt><trkpt lat="43.2175747" lon="11.8116749"><ele>248.0</ele><time>2026-05-01T06:35:57.462Z</time></trkpt><trkpt lat="43.217667" lon="11.8118921"><ele>248.0</ele><time>2026-05-01T06:35:58.462Z</time></trkpt><trkpt lat="43.2177652" lon="11.8120846"><ele>248.0</ele><time>2026-05-01T06:35:59.461Z</time></trkpt><trkpt lat="43.2178775" lon="11.8122355"><ele>248.0</ele><time>2026-05-01T06:36:00.461Z</time></trkpt><trkpt lat="43.2180012" lon="11.8123483"><ele>248.0</ele><time>2026-05-01T06:36:01.462Z</time></trkpt><trkpt lat="43.2181383" lon="11.8123989"><ele>248.0</ele><time>2026-05-01T06:36:02.462Z</time></trkpt><trkpt lat="43.218278" lon="11.8123635"><ele>248.0</ele><time>2026-05-01T06:36:03.462Z</time></trkpt><trkpt lat="43.2184229" lon="11.8123042"><ele>248.0</ele><time>2026-05-01T06:36:04.462Z</time></trkpt><trkpt lat="43.2185658" lon="11.8122909"><ele>248.33333333333334</ele><time>2026-05-01T06:36:05.462Z</time></trkpt><trkpt lat="43.2187192" lon="11.8123154"><ele>248.66666666666669</ele><time>2026-05-01T06:36:06.462Z</time></trkpt><trkpt lat="43.2188585" lon="11.8124125"><ele>249.0</ele><time>2026-05-01T06:36:07.462Z</time></trkpt><trkpt lat="43.2190027" lon="11.8125659"><ele>249.0</ele><time>2026-05-01T06:36:08.462Z</time></trkpt><trkpt lat="43.2191253" lon="11.8127939"><ele>249.0</ele><time>2026-05-01T06:36:09.462Z</time></trkpt><trkpt lat="43.2192376" lon="11.8130379"><ele>249.0</ele><time>2026-05-01T06:36:10.462Z</time></trkpt><trkpt lat="43.219343" lon="11.8132752"><ele>248.66666666666669</ele><time>2026-05-01T06:36:11.462Z</time></trkpt><trkpt lat="43.2194631" lon="11.8135193"><ele>248.33333333333334</ele><time>2026-05-01T06:36:12.461Z</time></trkpt><trkpt lat="43.2195855" lon="11.8137768"><ele>248.0</ele><time>2026-05-01T06:36:13.462Z</time></trkpt><trkpt lat="43.219708" lon="11.8140523"><ele>249.0</ele><time>2026-05-01T06:36:14.462Z</time></trkpt><trkpt lat="43.2198271" lon="11.8143389"><ele>250.0</ele><time>2026-05-01T06:36:15.462Z</time></trkpt><trkpt lat="43.2199434" lon="11.8146342"><ele>250.0</ele><time>2026-05-01T06:36:16.461Z</time></trkpt><trkpt lat="43.2200574" lon="11.8149326"><ele>250.0</ele><time>2026-05-01T06:36:17.462Z</time></trkpt><trkpt lat="43.2201705" lon="11.8152325"><ele>249.0</ele><time>2026-05-01T06:36:18.462Z</time></trkpt><trkpt lat="43.220278" lon="11.8155286"><ele>248.0</ele><time>2026-05-01T06:36:19.461Z</time></trkpt><trkpt lat="43.2203728" lon="11.8158156"><ele>248.5</ele><time>2026-05-01T06:36:20.462Z</time></trkpt><trkpt lat="43.2204654" lon="11.8161059"><ele>249.0</ele><time>2026-05-01T06:36:21.462Z</time></trkpt><trkpt lat="43.2205581" lon="11.8163926"><ele>249.5</ele><time>2026-05-01T06:36:22.462Z</time></trkpt><trkpt lat="43.2206517" lon="11.8166815"><ele>250.0</ele><time>2026-05-01T06:36:23.462Z</time></trkpt><trkpt lat="43.2207395" lon="11.8169701"><ele>250.0</ele><time>2026-05-01T06:36:24.462Z</time></trkpt><trkpt lat="43.2208252" lon="11.8172563"><ele>250.0</ele><time>2026-05-01T06:36:25.461Z</time></trkpt><trkpt lat="43.2209048" lon="11.8175549"><ele>249.5</ele><time>2026-05-01T06:36:26.461Z</time></trkpt><trkpt lat="43.2209876" lon="11.817852"><ele>249.0</ele><time>2026-05-01T06:36:27.461Z</time></trkpt><trkpt lat="43.2210656" lon="11.8181498"><ele>249.0</ele><time>2026-05-01T06:36:28.462Z</time></trkpt><trkpt lat="43.2211423" lon="11.8184498"><ele>249.0</ele><time>2026-05-01T06:36:29.462Z</time></trkpt><trkpt lat="43.2212181" lon="11.8187513"><ele>249.0</ele><time>2026-05-01T06:36:30.462Z</time></trkpt><trkpt lat="43.2212908" lon="11.8190573"><ele>249.0</ele><time>2026-05-01T06:36:31.462Z</time></trkpt><trkpt lat="43.2213686" lon="11.8193607"><ele>248.5</ele><time>2026-05-01T06:36:32.462Z</time></trkpt><trkpt lat="43.2214457" lon="11.8196637"><ele>248.0</ele><time>2026-05-01T06:36:33.462Z</time></trkpt><trkpt lat="43.2215227" lon="11.8199661"><ele>247.5</ele><time>2026-05-01T06:36:34.462Z</time></trkpt><trkpt lat="43.2215987" lon="11.8202716"><ele>247.0</ele><time>2026-05-01T06:36:35.461Z</time></trkpt><trkpt lat="43.2216816" lon="11.8205802"><ele>247.0</ele><time>2026-05-01T06:36:36.462Z</time></trkpt><trkpt lat="43.2217605" lon="11.820891"><ele>247.0</ele><time>2026-05-01T06:36:37.462Z</time></trkpt><trkpt lat="43.2218398" lon="11.8212012"><ele>247.0</ele><time>2026-05-01T06:36:38.462Z</time></trkpt><trkpt lat="43.2219189" lon="11.8215116"><ele>247.0</ele><time>2026-05-01T06:36:39.462Z</time></trkpt><trkpt lat="43.2219977" lon="11.8218216"><ele>247.0</ele><time>2026-05-01T06:36:40.462Z</time></trkpt><trkpt lat="43.2220751" lon="11.8221345"><ele>247.0</ele><time>2026-05-01T06:36:41.462Z</time></trkpt><trkpt lat="43.2221492" lon="11.8224497"><ele>247.0</ele><time>2026-05-01T06:36:42.462Z</time></trkpt><trkpt lat="43.2222326" lon="11.8227702"><ele>247.0</ele><time>2026-05-01T06:36:43.462Z</time></trkpt><trkpt lat="43.2223117" lon="11.8230939"><ele>247.5</ele><time>2026-05-01T06:36:44.461Z</time></trkpt><trkpt lat="43.2223936" lon="11.8234199"><ele>248.0</ele><time>2026-05-01T06:36:45.462Z</time></trkpt><trkpt lat="43.2224748" lon="11.8237496"><ele>248.0</ele><time>2026-05-01T06:36:46.462Z</time></trkpt><trkpt lat="43.2225601" lon="11.824084"><ele>248.0</ele><time>2026-05-01T06:36:47.462Z</time></trkpt><trkpt lat="43.222646" lon="11.8244204"><ele>249.0</ele><time>2026-05-01T06:36:48.461Z</time></trkpt><trkpt lat="43.2227308" lon="11.8247562"><ele>250.0</ele><time>2026-05-01T06:36:49.462Z</time></trkpt><trkpt lat="43.2228155" lon="11.8250972"><ele>248.5</ele><time>2026-05-01T06:36:50.462Z</time></trkpt><trkpt lat="43.2229043" lon="11.8254382"><ele>247.0</ele><time>2026-05-01T06:36:51.461Z</time></trkpt><trkpt lat="43.2229872" lon="11.8257688"><ele>246.5</ele><time>2026-05-01T06:36:52.462Z</time></trkpt><trkpt lat="43.2230682" lon="11.8260932"><ele>246.0</ele><time>2026-05-01T06:36:53.462Z</time></trkpt><trkpt lat="43.2231496" lon="11.8264182"><ele>247.0</ele><time>2026-05-01T06:36:54.462Z</time></trkpt><trkpt lat="43.2232293" lon="11.826737"><ele>248.0</ele><time>2026-05-01T06:36:55.462Z</time></trkpt><trkpt lat="43.2233072" lon="11.8270491"><ele>248.0</ele><time>2026-05-01T06:36:56.462Z</time></trkpt><trkpt lat="43.2233877" lon="11.8273601"><ele>248.0</ele><time>2026-05-01T06:36:57.461Z</time></trkpt><trkpt lat="43.2234678" lon="11.8276739"><ele>248.0</ele><time>2026-05-01T06:36:58.462Z</time></trkpt><trkpt lat="43.2235517" lon="11.827986"><ele>248.0</ele><time>2026-05-01T06:36:59.462Z</time></trkpt><trkpt lat="43.2236431" lon="11.8283071"><ele>247.0</ele><time>2026-05-01T06:37:00.462Z</time></trkpt><trkpt lat="43.2237423" lon="11.828638"><ele>246.0</ele><time>2026-05-01T06:37:01.462Z</time></trkpt><trkpt lat="43.2238402" lon="11.8289679"><ele>246.0</ele><time>2026-05-01T06:37:02.462Z</time></trkpt><trkpt lat="43.2239471" lon="11.8292947"><ele>246.0</ele><time>2026-05-01T06:37:03.462Z</time></trkpt><trkpt lat="43.2240588" lon="11.8296291"><ele>247.5</ele><time>2026-05-01T06:37:04.462Z</time></trkpt><trkpt lat="43.2241759" lon="11.8299589"><ele>249.0</ele><time>2026-05-01T06:37:05.462Z</time></trkpt><trkpt lat="43.2242996" lon="11.8302858"><ele>249.0</ele><time>2026-05-01T06:37:06.462Z</time></trkpt><trkpt lat="43.224427" lon="11.8306122"><ele>249.0</ele><time>2026-05-01T06:37:07.461Z</time></trkpt><trkpt lat="43.224562" lon="11.8309464"><ele>248.5</ele><time>2026-05-01T06:37:08.462Z</time></trkpt><trkpt lat="43.2246942" lon="11.8312758"><ele>248.0</ele><time>2026-05-01T06:37:09.462Z</time></trkpt><trkpt lat="43.2248329" lon="11.8316031"><ele>248.0</ele><time>2026-05-01T06:37:10.462Z</time></trkpt><trkpt lat="43.224966" lon="11.8319324"><ele>248.0</ele><time>2026-05-01T06:37:11.462Z</time></trkpt><trkpt lat="43.2251026" lon="11.8322648"><ele>248.0</ele><time>2026-05-01T06:37:12.462Z</time></trkpt><trkpt lat="43.2252406" lon="11.8325962"><ele>248.0</ele><time>2026-05-01T06:37:13.462Z</time></trkpt><trkpt lat="43.225373" lon="11.8329313"><ele>246.5</ele><time>2026-05-01T06:37:14.462Z</time></trkpt><trkpt lat="43.2255076" lon="11.8332697"><ele>245.0</ele><time>2026-05-01T06:37:15.462Z</time></trkpt><trkpt lat="43.2256434" lon="11.8336038"><ele>244.0</ele><time>2026-05-01T06:37:16.461Z</time></trkpt><trkpt lat="43.2257762" lon="11.8339316"><ele>243.0</ele><time>2026-05-01T06:37:17.462Z</time></trkpt><trkpt lat="43.2259119" lon="11.8342552"><ele>243.5</ele><time>2026-05-01T06:37:18.462Z</time></trkpt><trkpt lat="43.2260416" lon="11.8345811"><ele>244.0</ele><time>2026-05-01T06:37:19.462Z</time></trkpt><trkpt lat="43.2261763" lon="11.8349004"><ele>245.0</ele><time>2026-05-01T06:37:20.462Z</time></trkpt><trkpt lat="43.2263084" lon="11.8352172"><ele>246.0</ele><time>2026-05-01T06:37:21.462Z</time></trkpt><trkpt lat="43.2264429" lon="11.8355303"><ele>246.0</ele><time>2026-05-01T06:37:22.461Z</time></trkpt><trkpt lat="43.2265858" lon="11.8358385"><ele>246.0</ele><time>2026-05-01T06:37:23.462Z</time></trkpt><trkpt lat="43.2267317" lon="11.8361519"><ele>246.5</ele><time>2026-05-01T06:37:24.462Z</time></trkpt><trkpt lat="43.2268815" lon="11.8364529"><ele>247.0</ele><time>2026-05-01T06:37:25.462Z</time></trkpt><trkpt lat="43.2270438" lon="11.8367479"><ele>248.5</ele><time>2026-05-01T06:37:26.462Z</time></trkpt><trkpt lat="43.2272022" lon="11.8370406"><ele>250.0</ele><time>2026-05-01T06:37:27.461Z</time></trkpt><trkpt lat="43.2273609" lon="11.8373233"><ele>250.0</ele><time>2026-05-01T06:37:28.462Z</time></trkpt><trkpt lat="43.2275227" lon="11.8376014"><ele>250.0</ele><time>2026-05-01T06:37:29.461Z</time></trkpt><trkpt lat="43.227694" lon="11.8378752"><ele>250.5</ele><time>2026-05-01T06:37:30.462Z</time></trkpt><trkpt lat="43.2278697" lon="11.8381456"><ele>251.0</ele><time>2026-05-01T06:37:31.461Z</time></trkpt><trkpt lat="43.2280529" lon="11.8384109"><ele>251.5</ele><time>2026-05-01T06:37:32.461Z</time></trkpt><trkpt lat="43.2282343" lon="11.8386699"><ele>252.0</ele><time>2026-05-01T06:37:33.462Z</time></trkpt><trkpt lat="43.2284237" lon="11.8389195"><ele>252.0</ele><time>2026-05-01T06:37:34.462Z</time></trkpt><trkpt lat="43.2286157" lon="11.8391639"><ele>252.0</ele><time>2026-05-01T06:37:35.462Z</time></trkpt><trkpt lat="43.2288112" lon="11.8394008"><ele>252.5</ele><time>2026-05-01T06:37:36.462Z</time></trkpt><trkpt lat="43.229005" lon="11.8396389"><ele>253.0</ele><time>2026-05-01T06:37:37.461Z</time></trkpt><trkpt lat="43.2291992" lon="11.8398724"><ele>253.0</ele><time>2026-05-01T06:37:38.462Z</time></trkpt><trkpt lat="43.2293995" lon="11.8401084"><ele>253.0</ele><time>2026-05-01T06:37:39.462Z</time></trkpt><trkpt lat="43.2295934" lon="11.8403406"><ele>254.5</ele><time>2026-05-01T06:37:40.462Z</time></trkpt><trkpt lat="43.2297882" lon="11.8405777"><ele>256.0</ele><time>2026-05-01T06:37:41.461Z</time></trkpt><trkpt lat="43.2299856" lon="11.8408117"><ele>260.0</ele><time>2026-05-01T06:37:42.462Z</time></trkpt><trkpt lat="43.2301848" lon="11.8410387"><ele>264.0</ele><time>2026-05-01T06:37:43.462Z</time></trkpt><trkpt lat="43.2303822" lon="11.8412699"><ele>264.0</ele><time>2026-05-01T06:37:44.462Z</time></trkpt><trkpt lat="43.2305791" lon="11.8415122"><ele>264.0</ele><time>2026-05-01T06:37:45.462Z</time></trkpt><trkpt lat="43.2307745" lon="11.8417504"><ele>263.0</ele><time>2026-05-01T06:37:46.462Z</time></trkpt><trkpt lat="43.2309695" lon="11.8419784"><ele>262.0</ele><time>2026-05-01T06:37:47.462Z</time></trkpt><trkpt lat="43.2311711" lon="11.842223"><ele>262.0</ele><time>2026-05-01T06:37:48.462Z</time></trkpt><trkpt lat="43.2313664" lon="11.842462"><ele>262.0</ele><time>2026-05-01T06:37:49.462Z</time></trkpt><trkpt lat="43.2315658" lon="11.8426868"><ele>261.0</ele><time>2026-05-01T06:37:50.462Z</time></trkpt><trkpt lat="43.2317626" lon="11.8429188"><ele>260.0</ele><time>2026-05-01T06:37:51.462Z</time></trkpt><trkpt lat="43.2319485" lon="11.8431413"><ele>260.0</ele><time>2026-05-01T06:37:52.462Z</time></trkpt><trkpt lat="43.2321287" lon="11.8433684"><ele>260.0</ele><time>2026-05-01T06:37:53.461Z</time></trkpt><trkpt lat="43.2323096" lon="11.8436019"><ele>259.0</ele><time>2026-05-01T06:37:54.462Z</time></trkpt><trkpt lat="43.2324828" lon="11.8438481"><ele>258.0</ele><time>2026-05-01T06:37:55.462Z</time></trkpt><trkpt lat="43.2326428" lon="11.8441123"><ele>260.0</ele><time>2026-05-01T06:37:56.462Z</time></trkpt><trkpt lat="43.2327954" lon="11.844388"><ele>262.0</ele><time>2026-05-01T06:37:57.462Z</time></trkpt><trkpt lat="43.2329349" lon="11.8446843"><ele>262.0</ele><time>2026-05-01T06:37:58.462Z</time></trkpt><trkpt lat="43.233063" lon="11.8450118"><ele>262.0</ele><time>2026-05-01T06:37:59.462Z</time></trkpt><trkpt lat="43.2331876" lon="11.8453392"><ele>261.0</ele><time>2026-05-01T06:38:00.462Z</time></trkpt><trkpt lat="43.2332764" lon="11.8456658"><ele>260.0</ele><time>2026-05-01T06:38:01.461Z</time></trkpt><trkpt lat="43.2333617" lon="11.8459935"><ele>264.5</ele><time>2026-05-01T06:38:02.462Z</time></trkpt><trkpt lat="43.2334271" lon="11.8463374"><ele>269.0</ele><time>2026-05-01T06:38:03.461Z</time></trkpt><trkpt lat="43.233478" lon="11.8466714"><ele>272.0</ele><time>2026-05-01T06:38:04.462Z</time></trkpt><trkpt lat="43.2335151" lon="11.8470151"><ele>275.0</ele><time>2026-05-01T06:38:05.462Z</time></trkpt><trkpt lat="43.2335373" lon="11.8473633"><ele>275.0</ele><time>2026-05-01T06:38:06.462Z</time></trkpt><trkpt lat="43.2335407" lon="11.8477032"><ele>275.0</ele><time>2026-05-01T06:38:07.462Z</time></trkpt><trkpt lat="43.2335397" lon="11.8480516"><ele>275.0</ele><time>2026-05-01T06:38:08.461Z</time></trkpt><trkpt lat="43.2335291" lon="11.8483985"><ele>275.0</ele><time>2026-05-01T06:38:09.462Z</time></trkpt><trkpt lat="43.2335051" lon="11.8487344"><ele>274.0</ele><time>2026-05-01T06:38:10.462Z</time></trkpt><trkpt lat="43.2334632" lon="11.8490753"><ele>273.0</ele><time>2026-05-01T06:38:11.461Z</time></trkpt><trkpt lat="43.2334044" lon="11.8494157"><ele>272.0</ele><time>2026-05-01T06:38:12.462Z</time></trkpt><trkpt lat="43.2333304" lon="11.8497524"><ele>271.0</ele><time>2026-05-01T06:38:13.462Z</time></trkpt><trkpt lat="43.2332381" lon="11.8500849"><ele>270.0</ele><time>2026-05-01T06:38:14.462Z</time></trkpt><trkpt lat="43.2331301" lon="11.8504079"><ele>269.0</ele><time>2026-05-01T06:38:15.462Z</time></trkpt><trkpt lat="43.2330139" lon="11.8507224"><ele>269.5</ele><time>2026-05-01T06:38:16.462Z</time></trkpt><trkpt lat="43.2328829" lon="11.8510286"><ele>270.0</ele><time>2026-05-01T06:38:17.462Z</time></trkpt><trkpt lat="43.2327362" lon="11.8513194"><ele>270.0</ele><time>2026-05-01T06:38:18.461Z</time></trkpt><trkpt lat="43.2325753" lon="11.851597"><ele>270.0</ele><time>2026-05-01T06:38:19.462Z</time></trkpt><trkpt lat="43.2324068" lon="11.8518714"><ele>268.0</ele><time>2026-05-01T06:38:20.462Z</time></trkpt><trkpt lat="43.2322278" lon="11.852135"><ele>266.0</ele><time>2026-05-01T06:38:21.462Z</time></trkpt><trkpt lat="43.2320665" lon="11.8524143"><ele>268.5</ele><time>2026-05-01T06:38:22.462Z</time></trkpt><trkpt lat="43.2318959" lon="11.8526852"><ele>271.0</ele><time>2026-05-01T06:38:23.462Z</time></trkpt><trkpt lat="43.2317254" lon="11.8529668"><ele>271.0</ele><time>2026-05-01T06:38:24.462Z</time></trkpt><trkpt lat="43.2315642" lon="11.8532498"><ele>271.0</ele><time>2026-05-01T06:38:25.462Z</time></trkpt><trkpt lat="43.2314152" lon="11.8535425"><ele>268.5</ele><time>2026-05-01T06:38:26.461Z</time></trkpt><trkpt lat="43.2312811" lon="11.8538507"><ele>266.0</ele><time>2026-05-01T06:38:27.462Z</time></trkpt><trkpt lat="43.2311546" lon="11.8541623"><ele>268.0</ele><time>2026-05-01T06:38:28.461Z</time></trkpt><trkpt lat="43.2310435" lon="11.854497"><ele>270.0</ele><time>2026-05-01T06:38:29.461Z</time></trkpt><trkpt lat="43.2309478" lon="11.8548309"><ele>270.5</ele><time>2026-05-01T06:38:30.461Z</time></trkpt><trkpt lat="43.2308626" lon="11.8551719"><ele>271.0</ele><time>2026-05-01T06:38:31.461Z</time></trkpt><trkpt lat="43.2307926" lon="11.8555223"><ele>271.0</ele><time>2026-05-01T06:38:32.462Z</time></trkpt><trkpt lat="43.2307491" lon="11.8558716"><ele>271.0</ele><time>2026-05-01T06:38:33.462Z</time></trkpt><trkpt lat="43.2307117" lon="11.8562281"><ele>269.5</ele><time>2026-05-01T06:38:34.462Z</time></trkpt><trkpt lat="43.2306918" lon="11.856588"><ele>268.0</ele><time>2026-05-01T06:38:35.462Z</time></trkpt><trkpt lat="43.2306928" lon="11.8569557"><ele>266.0</ele><time>2026-05-01T06:38:36.461Z</time></trkpt><trkpt lat="43.2306954" lon="11.8573202"><ele>264.0</ele><time>2026-05-01T06:38:37.462Z</time></trkpt><trkpt lat="43.2306999" lon="11.8576857"><ele>262.0</ele><time>2026-05-01T06:38:38.461Z</time></trkpt><trkpt lat="43.2307007" lon="11.8580539"><ele>260.0</ele><time>2026-05-01T06:38:39.462Z</time></trkpt><trkpt lat="43.2307044" lon="11.8584273"><ele>258.5</ele><time>2026-05-01T06:38:40.461Z</time></trkpt><trkpt lat="43.2307074" lon="11.8587923"><ele>257.0</ele><time>2026-05-01T06:38:41.462Z</time></trkpt><trkpt lat="43.2307059" lon="11.8591548"><ele>258.0</ele><time>2026-05-01T06:38:42.462Z</time></trkpt><trkpt lat="43.23071" lon="11.8595209"><ele>259.0</ele><time>2026-05-01T06:38:43.461Z</time></trkpt><trkpt lat="43.2307169" lon="11.8598845"><ele>259.0</ele><time>2026-05-01T06:38:44.462Z</time></trkpt><trkpt lat="43.2307218" lon="11.8602401"><ele>259.0</ele><time>2026-05-01T06:38:45.461Z</time></trkpt><trkpt lat="43.2307264" lon="11.8605916"><ele>259.0</ele><time>2026-05-01T06:38:46.461Z</time></trkpt><trkpt lat="43.2307352" lon="11.8609437"><ele>259.0</ele><time>2026-05-01T06:38:47.461Z</time></trkpt><trkpt lat="43.2307418" lon="11.8612959"><ele>259.0</ele><time>2026-05-01T06:38:48.462Z</time></trkpt><trkpt lat="43.2307475" lon="11.8616462"><ele>259.0</ele><time>2026-05-01T06:38:49.462Z</time></trkpt><trkpt lat="43.2307509" lon="11.8619958"><ele>261.0</ele><time>2026-05-01T06:38:50.462Z</time></trkpt><trkpt lat="43.230752" lon="11.862348"><ele>263.0</ele><time>2026-05-01T06:38:51.462Z</time></trkpt><trkpt lat="43.2307571" lon="11.8626985"><ele>264.0</ele><time>2026-05-01T06:38:52.462Z</time></trkpt><trkpt lat="43.2307567" lon="11.8630478"><ele>265.0</ele><time>2026-05-01T06:38:53.462Z</time></trkpt><trkpt lat="43.2307613" lon="11.8634022"><ele>265.0</ele><time>2026-05-01T06:38:54.462Z</time></trkpt><trkpt lat="43.2307714" lon="11.8637561"><ele>265.0</ele><time>2026-05-01T06:38:55.462Z</time></trkpt><trkpt lat="43.2307778" lon="11.8641084"><ele>266.0</ele><time>2026-05-01T06:38:56.461Z</time></trkpt><trkpt lat="43.2307729" lon="11.864466"><ele>267.0</ele><time>2026-05-01T06:38:57.462Z</time></trkpt><trkpt lat="43.230765" lon="11.8648187"><ele>266.0</ele><time>2026-05-01T06:38:58.462Z</time></trkpt><trkpt lat="43.2307544" lon="11.8651679"><ele>265.0</ele><time>2026-05-01T06:38:59.461Z</time></trkpt><trkpt lat="43.2307397" lon="11.8655132"><ele>265.0</ele><time>2026-05-01T06:39:00.461Z</time></trkpt><trkpt lat="43.2307224" lon="11.865862"><ele>265.0</ele><time>2026-05-01T06:39:01.462Z</time></trkpt><trkpt lat="43.2306975" lon="11.866212"><ele>264.0</ele><time>2026-05-01T06:39:02.462Z</time></trkpt><trkpt lat="43.2306723" lon="11.8665651"><ele>263.0</ele><time>2026-05-01T06:39:03.462Z</time></trkpt><trkpt lat="43.2306447" lon="11.8669186"><ele>264.0</ele><time>2026-05-01T06:39:04.461Z</time></trkpt><trkpt lat="43.2306069" lon="11.8672752"><ele>265.0</ele><time>2026-05-01T06:39:05.462Z</time></trkpt><trkpt lat="43.2305686" lon="11.8676295"><ele>265.0</ele><time>2026-05-01T06:39:06.462Z</time></trkpt><trkpt lat="43.2305247" lon="11.8679882"><ele>265.0</ele><time>2026-05-01T06:39:07.462Z</time></trkpt><trkpt lat="43.2304841" lon="11.8683425"><ele>265.0</ele><time>2026-05-01T06:39:08.461Z</time></trkpt><trkpt lat="43.2304465" lon="11.8687"><ele>265.0</ele><time>2026-05-01T06:39:09.461Z</time></trkpt><trkpt lat="43.2304085" lon="11.8690642"><ele>266.5</ele><time>2026-05-01T06:39:10.462Z</time></trkpt><trkpt lat="43.2303696" lon="11.8694233"><ele>268.0</ele><time>2026-05-01T06:39:11.462Z</time></trkpt><trkpt lat="43.2303227" lon="11.8697883"><ele>267.5</ele><time>2026-05-01T06:39:12.462Z</time></trkpt><trkpt lat="43.2302782" lon="11.8701483"><ele>267.0</ele><time>2026-05-01T06:39:13.462Z</time></trkpt><trkpt lat="43.2302423" lon="11.8705055"><ele>267.0</ele><time>2026-05-01T06:39:14.462Z</time></trkpt><trkpt lat="43.2302027" lon="11.870862"><ele>267.0</ele><time>2026-05-01T06:39:15.462Z</time></trkpt><trkpt lat="43.2301643" lon="11.8712265"><ele>266.5</ele><time>2026-05-01T06:39:16.462Z</time></trkpt><trkpt lat="43.2301269" lon="11.8715875"><ele>266.0</ele><time>2026-05-01T06:39:17.462Z</time></trkpt><trkpt lat="43.2300921" lon="11.8719439"><ele>266.0</ele><time>2026-05-01T06:39:18.462Z</time></trkpt><trkpt lat="43.230056" lon="11.8723025"><ele>266.0</ele><time>2026-05-01T06:39:19.461Z</time></trkpt><trkpt lat="43.2300175" lon="11.8726612"><ele>266.5</ele><time>2026-05-01T06:39:20.462Z</time></trkpt><trkpt lat="43.2299777" lon="11.8730183"><ele>267.0</ele><time>2026-05-01T06:39:21.462Z</time></trkpt><trkpt lat="43.2299394" lon="11.8733784"><ele>267.5</ele><time>2026-05-01T06:39:22.461Z</time></trkpt><trkpt lat="43.2299023" lon="11.873735"><ele>268.0</ele><time>2026-05-01T06:39:23.462Z</time></trkpt><trkpt lat="43.2298632" lon="11.8740907"><ele>269.0</ele><time>2026-05-01T06:39:24.462Z</time></trkpt><trkpt lat="43.2298242" lon="11.8744386"><ele>270.0</ele><time>2026-05-01T06:39:25.461Z</time></trkpt><trkpt lat="43.2297861" lon="11.8747877"><ele>271.0</ele><time>2026-05-01T06:39:26.462Z</time></trkpt><trkpt lat="43.22975" lon="11.8751377"><ele>272.0</ele><time>2026-05-01T06:39:27.462Z</time></trkpt><trkpt lat="43.2297151" lon="11.8754818"><ele>272.0</ele><time>2026-05-01T06:39:28.462Z</time></trkpt><trkpt lat="43.2296795" lon="11.8758256"><ele>272.0</ele><time>2026-05-01T06:39:29.462Z</time></trkpt><trkpt lat="43.2296414" lon="11.8761697"><ele>273.0</ele><time>2026-05-01T06:39:30.462Z</time></trkpt><trkpt lat="43.2296072" lon="11.8765078"><ele>274.0</ele><time>2026-05-01T06:39:31.462Z</time></trkpt><trkpt lat="43.229577" lon="11.8768466"><ele>277.5</ele><time>2026-05-01T06:39:32.462Z</time></trkpt><trkpt lat="43.2295506" lon="11.8771894"><ele>281.0</ele><time>2026-05-01T06:39:33.462Z</time></trkpt><trkpt lat="43.2295328" lon="11.8775267"><ele>283.5</ele><time>2026-05-01T06:39:34.462Z</time></trkpt><trkpt lat="43.2295121" lon="11.8778631"><ele>286.0</ele><time>2026-05-01T06:39:35.462Z</time></trkpt><trkpt lat="43.2294898" lon="11.8782048"><ele>287.5</ele><time>2026-05-01T06:39:36.462Z</time></trkpt><trkpt lat="43.2294735" lon="11.8785425"><ele>289.0</ele><time>2026-05-01T06:39:37.462Z</time></trkpt><trkpt lat="43.2294551" lon="11.8788845"><ele>289.0</ele><time>2026-05-01T06:39:38.461Z</time></trkpt><trkpt lat="43.2294509" lon="11.8792267"><ele>289.0</ele><time>2026-05-01T06:39:39.461Z</time></trkpt><trkpt lat="43.2294527" lon="11.879568"><ele>289.0</ele><time>2026-05-01T06:39:40.462Z</time></trkpt><trkpt lat="43.2294519" lon="11.8799025"><ele>289.0</ele><time>2026-05-01T06:39:41.462Z</time></trkpt><trkpt lat="43.2294562" lon="11.8802376"><ele>289.0</ele><time>2026-05-01T06:39:42.462Z</time></trkpt><trkpt lat="43.2294617" lon="11.8805716"><ele>289.0</ele><time>2026-05-01T06:39:43.461Z</time></trkpt><trkpt lat="43.2294697" lon="11.8809058"><ele>292.0</ele><time>2026-05-01T06:39:44.462Z</time></trkpt><trkpt lat="43.2294814" lon="11.8812432"><ele>295.0</ele><time>2026-05-01T06:39:45.462Z</time></trkpt><trkpt lat="43.2294973" lon="11.8815851"><ele>297.5</ele><time>2026-05-01T06:39:46.462Z</time></trkpt><trkpt lat="43.2295069" lon="11.8819217"><ele>300.0</ele><time>2026-05-01T06:39:47.461Z</time></trkpt><trkpt lat="43.2295194" lon="11.8822584"><ele>301.0</ele><time>2026-05-01T06:39:48.461Z</time></trkpt><trkpt lat="43.2295466" lon="11.8825991"><ele>302.0</ele><time>2026-05-01T06:39:49.462Z</time></trkpt><trkpt lat="43.2295632" lon="11.8829508"><ele>302.0</ele><time>2026-05-01T06:39:50.462Z</time></trkpt><trkpt lat="43.2295768" lon="11.8832979"><ele>302.0</ele><time>2026-05-01T06:39:51.462Z</time></trkpt><trkpt lat="43.2295837" lon="11.8836399"><ele>302.0</ele><time>2026-05-01T06:39:52.462Z</time></trkpt><trkpt lat="43.2295833" lon="11.8839746"><ele>302.0</ele><time>2026-05-01T06:39:53.462Z</time></trkpt><trkpt lat="43.2295731" lon="11.8843131"><ele>302.0</ele><time>2026-05-01T06:39:54.461Z</time></trkpt><trkpt lat="43.2295556" lon="11.88465"><ele>302.0</ele><time>2026-05-01T06:39:55.461Z</time></trkpt><trkpt lat="43.2295314" lon="11.8849867"><ele>300.5</ele><time>2026-05-01T06:39:56.462Z</time></trkpt><trkpt lat="43.2295051" lon="11.8853292"><ele>299.0</ele><time>2026-05-01T06:39:57.462Z</time></trkpt><trkpt lat="43.2294674" lon="11.8856718"><ele>298.0</ele><time>2026-05-01T06:39:58.462Z</time></trkpt><trkpt lat="43.2294226" lon="11.8860221"><ele>297.0</ele><time>2026-05-01T06:39:59.461Z</time></trkpt><trkpt lat="43.2293694" lon="11.8863672"><ele>297.0</ele><time>2026-05-01T06:40:00.462Z</time></trkpt><trkpt lat="43.2293079" lon="11.8867153"><ele>297.0</ele><time>2026-05-01T06:40:01.462Z</time></trkpt><trkpt lat="43.2292373" lon="11.8870602"><ele>297.5</ele><time>2026-05-01T06:40:02.461Z</time></trkpt><trkpt lat="43.2291577" lon="11.8874038"><ele>298.0</ele><time>2026-05-01T06:40:03.462Z</time></trkpt><trkpt lat="43.2290704" lon="11.8877426"><ele>299.5</ele><time>2026-05-01T06:40:04.462Z</time></trkpt><trkpt lat="43.2289767" lon="11.8880685"><ele>301.0</ele><time>2026-05-01T06:40:05.462Z</time></trkpt><trkpt lat="43.2288769" lon="11.8884006"><ele>295.5</ele><time>2026-05-01T06:40:06.462Z</time></trkpt><trkpt lat="43.2287697" lon="11.8887284"><ele>290.0</ele><time>2026-05-01T06:40:07.462Z</time></trkpt><trkpt lat="43.228655" lon="11.8890529"><ele>290.5</ele><time>2026-05-01T06:40:08.462Z</time></trkpt><trkpt lat="43.2285309" lon="11.8893738"><ele>291.0</ele><time>2026-05-01T06:40:09.462Z</time></trkpt><trkpt lat="43.2284044" lon="11.8896931"><ele>291.0</ele><time>2026-05-01T06:40:10.461Z</time></trkpt><trkpt lat="43.2282779" lon="11.8900097"><ele>291.0</ele><time>2026-05-01T06:40:11.462Z</time></trkpt><trkpt lat="43.2281444" lon="11.8903214"><ele>292.0</ele><time>2026-05-01T06:40:12.462Z</time></trkpt><trkpt lat="43.2280163" lon="11.890634"><ele>293.0</ele><time>2026-05-01T06:40:13.462Z</time></trkpt><trkpt lat="43.2278879" lon="11.8909423"><ele>293.0</ele><time>2026-05-01T06:40:14.462Z</time></trkpt><trkpt lat="43.2277574" lon="11.8912526"><ele>293.0</ele><time>2026-05-01T06:40:15.462Z</time></trkpt><trkpt lat="43.2276371" lon="11.891568"><ele>294.5</ele><time>2026-05-01T06:40:16.462Z</time></trkpt><trkpt lat="43.2275215" lon="11.8918881"><ele>296.0</ele><time>2026-05-01T06:40:17.461Z</time></trkpt><trkpt lat="43.227411" lon="11.8922079"><ele>296.0</ele><time>2026-05-01T06:40:18.462Z</time></trkpt><trkpt lat="43.2272978" lon="11.8925269"><ele>296.0</ele><time>2026-05-01T06:40:19.462Z</time></trkpt><trkpt lat="43.22719" lon="11.8928434"><ele>295.5</ele><time>2026-05-01T06:40:20.462Z</time></trkpt><trkpt lat="43.2270847" lon="11.8931755"><ele>295.0</ele><time>2026-05-01T06:40:21.461Z</time></trkpt><trkpt lat="43.2269913" lon="11.8935065"><ele>295.0</ele><time>2026-05-01T06:40:22.462Z</time></trkpt><trkpt lat="43.2268979" lon="11.893841"><ele>295.0</ele><time>2026-05-01T06:40:23.462Z</time></trkpt><trkpt lat="43.2268088" lon="11.8941766"><ele>297.0</ele><time>2026-05-01T06:40:24.462Z</time></trkpt><trkpt lat="43.2267171" lon="11.8945107"><ele>299.0</ele><time>2026-05-01T06:40:25.462Z</time></trkpt><trkpt lat="43.2266293" lon="11.8948474"><ele>300.5</ele><time>2026-05-01T06:40:26.461Z</time></trkpt><trkpt lat="43.2265464" lon="11.8951853"><ele>302.0</ele><time>2026-05-01T06:40:27.462Z</time></trkpt><trkpt lat="43.2264672" lon="11.8955243"><ele>297.0</ele><time>2026-05-01T06:40:28.461Z</time></trkpt><trkpt lat="43.2263901" lon="11.8958664"><ele>292.0</ele><time>2026-05-01T06:40:29.462Z</time></trkpt><trkpt lat="43.2263119" lon="11.8962089"><ele>292.0</ele><time>2026-05-01T06:40:30.462Z</time></trkpt><trkpt lat="43.2262362" lon="11.8965417"><ele>292.0</ele><time>2026-05-01T06:40:31.462Z</time></trkpt><trkpt lat="43.2261553" lon="11.8968771"><ele>291.5</ele><time>2026-05-01T06:40:32.462Z</time></trkpt><trkpt lat="43.2260686" lon="11.8972059"><ele>291.0</ele><time>2026-05-01T06:40:33.462Z</time></trkpt><trkpt lat="43.2259769" lon="11.8975356"><ele>290.5</ele><time>2026-05-01T06:40:34.462Z</time></trkpt><trkpt lat="43.2258827" lon="11.8978615"><ele>290.0</ele><time>2026-05-01T06:40:35.462Z</time></trkpt><trkpt lat="43.225785" lon="11.8981812"><ele>290.0</ele><time>2026-05-01T06:40:36.462Z</time></trkpt><trkpt lat="43.2256723" lon="11.8984982"><ele>290.0</ele><time>2026-05-01T06:40:37.462Z</time></trkpt><trkpt lat="43.2255545" lon="11.898802"><ele>290.0</ele><time>2026-05-01T06:40:38.462Z</time></trkpt><trkpt lat="43.2254289" lon="11.8991058"><ele>290.0</ele><time>2026-05-01T06:40:39.462Z</time></trkpt><trkpt lat="43.2252943" lon="11.8993995"><ele>293.5</ele><time>2026-05-01T06:40:40.462Z</time></trkpt><trkpt lat="43.225157" lon="11.8996936"><ele>297.0</ele><time>2026-05-01T06:40:41.462Z</time></trkpt><trkpt lat="43.2250128" lon="11.89998"><ele>299.0</ele><time>2026-05-01T06:40:42.462Z</time></trkpt><trkpt lat="43.2248665" lon="11.9002589"><ele>301.0</ele><time>2026-05-01T06:40:43.462Z</time></trkpt><trkpt lat="43.2247118" lon="11.9005334"><ele>303.5</ele><time>2026-05-01T06:40:44.462Z</time></trkpt><trkpt lat="43.2245609" lon="11.9008091"><ele>306.0</ele><time>2026-05-01T06:40:45.461Z</time></trkpt><trkpt lat="43.2243987" lon="11.9010719"><ele>306.5</ele><time>2026-05-01T06:40:46.462Z</time></trkpt><trkpt lat="43.2242201" lon="11.9013251"><ele>307.0</ele><time>2026-05-01T06:40:47.462Z</time></trkpt><trkpt lat="43.2240424" lon="11.9015812"><ele>305.5</ele><time>2026-05-01T06:40:48.461Z</time></trkpt><trkpt lat="43.223867" lon="11.9018359"><ele>304.0</ele><time>2026-05-01T06:40:49.462Z</time></trkpt><trkpt lat="43.2237036" lon="11.902101"><ele>304.0</ele><time>2026-05-01T06:40:50.461Z</time></trkpt><trkpt lat="43.2235356" lon="11.9023674"><ele>304.0</ele><time>2026-05-01T06:40:51.462Z</time></trkpt><trkpt lat="43.223368" lon="11.9026488"><ele>302.0</ele><time>2026-05-01T06:40:52.462Z</time></trkpt><trkpt lat="43.2232197" lon="11.902938"><ele>300.0</ele><time>2026-05-01T06:40:53.461Z</time></trkpt><trkpt lat="43.2230781" lon="11.9032348"><ele>300.0</ele><time>2026-05-01T06:40:54.462Z</time></trkpt><trkpt lat="43.2229405" lon="11.9035224"><ele>300.0</ele><time>2026-05-01T06:40:55.462Z</time></trkpt><trkpt lat="43.2228053" lon="11.9038138"><ele>300.0</ele><time>2026-05-01T06:40:56.462Z</time></trkpt><trkpt lat="43.2226796" lon="11.9041089"><ele>300.0</ele><time>2026-05-01T06:40:57.462Z</time></trkpt><trkpt lat="43.2225642" lon="11.9044152"><ele>300.5</ele><time>2026-05-01T06:40:58.461Z</time></trkpt><trkpt lat="43.2224516" lon="11.9047167"><ele>301.0</ele><time>2026-05-01T06:40:59.462Z</time></trkpt><trkpt lat="43.2223428" lon="11.9050255"><ele>306.5</ele><time>2026-05-01T06:41:00.462Z</time></trkpt><trkpt lat="43.2222428" lon="11.9053425"><ele>312.0</ele><time>2026-05-01T06:41:01.462Z</time></trkpt><trkpt lat="43.2221518" lon="11.9056586"><ele>311.5</ele><time>2026-05-01T06:41:02.461Z</time></trkpt><trkpt lat="43.22206" lon="11.9059838"><ele>311.0</ele><time>2026-05-01T06:41:03.462Z</time></trkpt><trkpt lat="43.2219782" lon="11.9063102"><ele>311.0</ele><time>2026-05-01T06:41:04.461Z</time></trkpt><trkpt lat="43.2219038" lon="11.9066403"><ele>311.0</ele><time>2026-05-01T06:41:05.462Z</time></trkpt><trkpt lat="43.2218358" lon="11.9069729"><ele>310.5</ele><time>2026-05-01T06:41:06.461Z</time></trkpt><trkpt lat="43.2217738" lon="11.9073097"><ele>310.0</ele><time>2026-05-01T06:41:07.462Z</time></trkpt><trkpt lat="43.221717" lon="11.9076458"><ele>309.5</ele><time>2026-05-01T06:41:08.461Z</time></trkpt><trkpt lat="43.2216695" lon="11.9079854"><ele>309.0</ele><time>2026-05-01T06:41:09.462Z</time></trkpt><trkpt lat="43.221629" lon="11.9083241"><ele>309.0</ele><time>2026-05-01T06:41:10.462Z</time></trkpt><trkpt lat="43.2216032" lon="11.9086685"><ele>309.0</ele><time>2026-05-01T06:41:11.462Z</time></trkpt><trkpt lat="43.2215728" lon="11.909011"><ele>309.5</ele><time>2026-05-01T06:41:12.462Z</time></trkpt><trkpt lat="43.2215459" lon="11.9093552"><ele>310.0</ele><time>2026-05-01T06:41:13.462Z</time></trkpt><trkpt lat="43.2215179" lon="11.9096813"><ele>310.0</ele><time>2026-05-01T06:41:14.462Z</time></trkpt><trkpt lat="43.2214935" lon="11.9099839"><ele>310.0</ele><time>2026-05-01T06:41:15.462Z</time></trkpt><trkpt lat="43.2214622" lon="11.9102768"><ele>310.0</ele><time>2026-05-01T06:41:16.462Z</time></trkpt><trkpt lat="43.2214374" lon="11.9105688"><ele>309.66666666666663</ele><time>2026-05-01T06:41:17.462Z</time></trkpt><trkpt lat="43.221413" lon="11.9108453"><ele>309.3333333333333</ele><time>2026-05-01T06:41:18.462Z</time></trkpt><trkpt lat="43.2213892" lon="11.9111248"><ele>309.0</ele><time>2026-05-01T06:41:19.462Z</time></trkpt><trkpt lat="43.2213704" lon="11.9113977"><ele>309.0</ele><time>2026-05-01T06:41:20.462Z</time></trkpt><trkpt lat="43.2213484" lon="11.9116771"><ele>309.0</ele><time>2026-05-01T06:41:21.462Z</time></trkpt><trkpt lat="43.2213201" lon="11.911948"><ele>309.0</ele><time>2026-05-01T06:41:22.462Z</time></trkpt><trkpt lat="43.2212927" lon="11.9122181"><ele>308.6666666666667</ele><time>2026-05-01T06:41:23.461Z</time></trkpt><trkpt lat="43.2212684" lon="11.9124922"><ele>308.33333333333337</ele><time>2026-05-01T06:41:24.462Z</time></trkpt><trkpt lat="43.2212456" lon="11.9127661"><ele>308.0</ele><time>2026-05-01T06:41:25.462Z</time></trkpt><trkpt lat="43.2212262" lon="11.9130331"><ele>307.6666666666667</ele><time>2026-05-01T06:41:26.462Z</time></trkpt><trkpt lat="43.2212034" lon="11.9132913"><ele>307.3333333333333</ele><time>2026-05-01T06:41:27.461Z</time></trkpt><trkpt lat="43.2211768" lon="11.9135424"><ele>307.0</ele><time>2026-05-01T06:41:28.461Z</time></trkpt><trkpt lat="43.2211544" lon="11.9137943"><ele>307.0</ele><time>2026-05-01T06:41:29.462Z</time></trkpt><trkpt lat="43.2211209" lon="11.9140397"><ele>307.0</ele><time>2026-05-01T06:41:30.461Z</time></trkpt><trkpt lat="43.221083" lon="11.9142932"><ele>307.0</ele><time>2026-05-01T06:41:31.462Z</time></trkpt><trkpt lat="43.221048" lon="11.9145492"><ele>306.3333333333333</ele><time>2026-05-01T06:41:32.462Z</time></trkpt><trkpt lat="43.2210044" lon="11.9148086"><ele>305.6666666666667</ele><time>2026-05-01T06:41:33.462Z</time></trkpt><trkpt lat="43.220957" lon="11.9150692"><ele>305.0</ele><time>2026-05-01T06:41:34.462Z</time></trkpt><trkpt lat="43.2209055" lon="11.9153325"><ele>305.0</ele><time>2026-05-01T06:41:35.462Z</time></trkpt><trkpt lat="43.2208408" lon="11.9155897"><ele>305.0</ele><time>2026-05-01T06:41:36.461Z</time></trkpt><trkpt lat="43.2207771" lon="11.9158486"><ele>305.0</ele><time>2026-05-01T06:41:37.462Z</time></trkpt><trkpt lat="43.220708" lon="11.9161072"><ele>304.33333333333337</ele><time>2026-05-01T06:41:38.462Z</time></trkpt><trkpt lat="43.2206349" lon="11.9163654"><ele>303.6666666666667</ele><time>2026-05-01T06:41:39.462Z</time></trkpt><trkpt lat="43.2205541" lon="11.9166177"><ele>303.0</ele><time>2026-05-01T06:41:40.462Z</time></trkpt><trkpt lat="43.2204754" lon="11.9168741"><ele>303.0</ele><time>2026-05-01T06:41:41.462Z</time></trkpt><trkpt lat="43.2203914" lon="11.9171336"><ele>303.0</ele><time>2026-05-01T06:41:42.461Z</time></trkpt><trkpt lat="43.220298" lon="11.9173858"><ele>303.0</ele><time>2026-05-01T06:41:43.461Z</time></trkpt><trkpt lat="43.2201996" lon="11.9176387"><ele>303.3333333333333</ele><time>2026-05-01T06:41:44.462Z</time></trkpt><trkpt lat="43.2200975" lon="11.9178968"><ele>303.66666666666663</ele><time>2026-05-01T06:41:45.462Z</time></trkpt><trkpt lat="43.219993" lon="11.9181512"><ele>304.0</ele><time>2026-05-01T06:41:46.462Z</time></trkpt><trkpt lat="43.2198834" lon="11.9184105"><ele>302.3333333333333</ele><time>2026-05-01T06:41:47.462Z</time></trkpt><trkpt lat="43.2197773" lon="11.9186633"><ele>300.6666666666667</ele><time>2026-05-01T06:41:48.461Z</time></trkpt><trkpt lat="43.2196674" lon="11.91892"><ele>299.0</ele><time>2026-05-01T06:41:49.462Z</time></trkpt><trkpt lat="43.2195628" lon="11.9191728"><ele>299.0</ele><time>2026-05-01T06:41:50.462Z</time></trkpt><trkpt lat="43.2194583" lon="11.9194292"><ele>299.0</ele><time>2026-05-01T06:41:51.461Z</time></trkpt><trkpt lat="43.2193564" lon="11.9196846"><ele>299.0</ele><time>2026-05-01T06:41:52.462Z</time></trkpt><trkpt lat="43.2192546" lon="11.9199431"><ele>298.6666666666667</ele><time>2026-05-01T06:41:53.462Z</time></trkpt><trkpt lat="43.2191511" lon="11.9201965"><ele>298.3333333333333</ele><time>2026-05-01T06:41:54.461Z</time></trkpt><trkpt lat="43.2190516" lon="11.9204567"><ele>298.0</ele><time>2026-05-01T06:41:55.462Z</time></trkpt><trkpt lat="43.2189524" lon="11.9207251"><ele>298.0</ele><time>2026-05-01T06:41:56.462Z</time></trkpt><trkpt lat="43.2188564" lon="11.9209945"><ele>298.0</ele><time>2026-05-01T06:41:57.462Z</time></trkpt><trkpt lat="43.2187631" lon="11.9212685"><ele>298.0</ele><time>2026-05-01T06:41:58.462Z</time></trkpt><trkpt lat="43.2186796" lon="11.9215457"><ele>298.3333333333333</ele><time>2026-05-01T06:41:59.462Z</time></trkpt><trkpt lat="43.2185974" lon="11.9218274"><ele>298.6666666666667</ele><time>2026-05-01T06:42:00.462Z</time></trkpt><trkpt lat="43.218519" lon="11.9221148"><ele>299.0</ele><time>2026-05-01T06:42:01.462Z</time></trkpt><trkpt lat="43.2184416" lon="11.9223989"><ele>299.33333333333337</ele><time>2026-05-01T06:42:02.462Z</time></trkpt><trkpt lat="43.2183694" lon="11.9226869"><ele>299.6666666666667</ele><time>2026-05-01T06:42:03.462Z</time></trkpt><trkpt lat="43.2182984" lon="11.9229721"><ele>300.0</ele><time>2026-05-01T06:42:04.462Z</time></trkpt><trkpt lat="43.2182326" lon="11.9232686"><ele>300.3333333333333</ele><time>2026-05-01T06:42:05.462Z</time></trkpt><trkpt lat="43.2181672" lon="11.9235593"><ele>300.66666666666663</ele><time>2026-05-01T06:42:06.462Z</time></trkpt><trkpt lat="43.2181023" lon="11.9238575"><ele>301.0</ele><time>2026-05-01T06:42:07.462Z</time></trkpt><trkpt lat="43.2180431" lon="11.9241496"><ele>301.0</ele><time>2026-05-01T06:42:08.462Z</time></trkpt><trkpt lat="43.217985" lon="11.9244463"><ele>301.0</ele><time>2026-05-01T06:42:09.462Z</time></trkpt><trkpt lat="43.2179338" lon="11.9247431"><ele>301.0</ele><time>2026-05-01T06:42:10.462Z</time></trkpt><trkpt lat="43.217891" lon="11.9250298"><ele>300.66666666666663</ele><time>2026-05-01T06:42:11.462Z</time></trkpt><trkpt lat="43.21785" lon="11.9253093"><ele>300.3333333333333</ele><time>2026-05-01T06:42:12.462Z</time></trkpt><trkpt lat="43.2178116" lon="11.9255677"><ele>300.0</ele><time>2026-05-01T06:42:13.461Z</time></trkpt><trkpt lat="43.2177777" lon="11.9258168"><ele>298.6666666666667</ele><time>2026-05-01T06:42:14.462Z</time></trkpt><trkpt lat="43.2177396" lon="11.9260799"><ele>297.33333333333337</ele><time>2026-05-01T06:42:15.462Z</time></trkpt><trkpt lat="43.2177045" lon="11.9263379"><ele>296.0</ele><time>2026-05-01T06:42:16.461Z</time></trkpt><trkpt lat="43.2176683" lon="11.9265982"><ele>295.0</ele><time>2026-05-01T06:42:17.462Z</time></trkpt><trkpt lat="43.2176375" lon="11.9268613"><ele>294.0</ele><time>2026-05-01T06:42:18.462Z</time></trkpt><trkpt lat="43.217604" lon="11.9271212"><ele>293.0</ele><time>2026-05-01T06:42:19.462Z</time></trkpt><trkpt lat="43.2175732" lon="11.9273859"><ele>292.6666666666667</ele><time>2026-05-01T06:42:20.462Z</time></trkpt><trkpt lat="43.2175392" lon="11.9276569"><ele>292.3333333333333</ele><time>2026-05-01T06:42:21.462Z</time></trkpt><trkpt lat="43.2174994" lon="11.9279293"><ele>292.0</ele><time>2026-05-01T06:42:22.461Z</time></trkpt><trkpt lat="43.2174574" lon="11.9282043"><ele>292.0</ele><time>2026-05-01T06:42:23.462Z</time></trkpt><trkpt lat="43.2174186" lon="11.9284747"><ele>292.0</ele><time>2026-05-01T06:42:24.462Z</time></trkpt><trkpt lat="43.2173809" lon="11.9287481"><ele>292.0</ele><time>2026-05-01T06:42:25.462Z</time></trkpt><trkpt lat="43.2173416" lon="11.9290258"><ele>291.66666666666663</ele><time>2026-05-01T06:42:26.462Z</time></trkpt><trkpt lat="43.2172951" lon="11.929305"><ele>291.3333333333333</ele><time>2026-05-01T06:42:27.462Z</time></trkpt><trkpt lat="43.217242" lon="11.9295779"><ele>291.0</ele><time>2026-05-01T06:42:28.461Z</time></trkpt><trkpt lat="43.2171925" lon="11.9298612"><ele>290.3333333333333</ele><time>2026-05-01T06:42:29.462Z</time></trkpt><trkpt lat="43.2171347" lon="11.9301369"><ele>289.66666666666663</ele><time>2026-05-01T06:42:30.462Z</time></trkpt><trkpt lat="43.2170774" lon="11.9304148"><ele>289.0</ele><time>2026-05-01T06:42:31.462Z</time></trkpt><trkpt lat="43.217021" lon="11.9307068"><ele>287.0</ele><time>2026-05-01T06:42:32.462Z</time></trkpt><trkpt lat="43.21696" lon="11.9309965"><ele>285.0</ele><time>2026-05-01T06:42:33.462Z</time></trkpt><trkpt lat="43.2168925" lon="11.9312828"><ele>283.0</ele><time>2026-05-01T06:42:34.462Z</time></trkpt><trkpt lat="43.2168211" lon="11.9315669"><ele>281.66666666666663</ele><time>2026-05-01T06:42:35.462Z</time></trkpt><trkpt lat="43.2167454" lon="11.9318516"><ele>280.3333333333333</ele><time>2026-05-01T06:42:36.462Z</time></trkpt><trkpt lat="43.2166681" lon="11.9321349"><ele>279.0</ele><time>2026-05-01T06:42:37.462Z</time></trkpt><trkpt lat="43.2165896" lon="11.9324168"><ele>279.0</ele><time>2026-05-01T06:42:38.462Z</time></trkpt><trkpt lat="43.2165087" lon="11.9326991"><ele>279.0</ele><time>2026-05-01T06:42:39.461Z</time></trkpt><trkpt lat="43.2164269" lon="11.932985"><ele>279.0</ele><time>2026-05-01T06:42:40.462Z</time></trkpt><trkpt lat="43.2163333" lon="11.9332679"><ele>277.0</ele><time>2026-05-01T06:42:41.462Z</time></trkpt><trkpt lat="43.2162444" lon="11.9335446"><ele>275.0</ele><time>2026-05-01T06:42:42.462Z</time></trkpt><trkpt lat="43.2161553" lon="11.9338185"><ele>273.0</ele><time>2026-05-01T06:42:43.462Z</time></trkpt><trkpt lat="43.2160622" lon="11.9340955"><ele>272.3333333333333</ele><time>2026-05-01T06:42:44.462Z</time></trkpt><trkpt lat="43.2159699" lon="11.9343669"><ele>271.66666666666663</ele><time>2026-05-01T06:42:45.462Z</time></trkpt><trkpt lat="43.2158733" lon="11.9346322"><ele>271.0</ele><time>2026-05-01T06:42:46.462Z</time></trkpt><trkpt lat="43.2157726" lon="11.9348863"><ele>270.3333333333333</ele><time>2026-05-01T06:42:47.462Z</time></trkpt><trkpt lat="43.2156729" lon="11.9351503"><ele>269.6666666666667</ele><time>2026-05-01T06:42:48.462Z</time></trkpt><trkpt lat="43.2155673" lon="11.9354124"><ele>269.0</ele><time>2026-05-01T06:42:49.461Z</time></trkpt><trkpt lat="43.2154683" lon="11.9356758"><ele>269.6666666666667</ele><time>2026-05-01T06:42:50.461Z</time></trkpt><trkpt lat="43.2153693" lon="11.9359445"><ele>270.3333333333333</ele><time>2026-05-01T06:42:51.461Z</time></trkpt><trkpt lat="43.2152639" lon="11.9362093"><ele>271.0</ele><time>2026-05-01T06:42:52.462Z</time></trkpt><trkpt lat="43.2151634" lon="11.936468"><ele>270.3333333333333</ele><time>2026-05-01T06:42:53.462Z</time></trkpt><trkpt lat="43.215062" lon="11.9367276"><ele>269.6666666666667</ele><time>2026-05-01T06:42:54.462Z</time></trkpt><trkpt lat="43.2149674" lon="11.9369835"><ele>269.0</ele><time>2026-05-01T06:42:55.462Z</time></trkpt><trkpt lat="43.2148763" lon="11.9372317"><ele>269.0</ele><time>2026-05-01T06:42:56.461Z</time></trkpt><trkpt lat="43.2147827" lon="11.937481"><ele>269.0</ele><time>2026-05-01T06:42:57.461Z</time></trkpt><trkpt lat="43.2146905" lon="11.9377249"><ele>269.0</ele><time>2026-05-01T06:42:58.462Z</time></trkpt><trkpt lat="43.2145991" lon="11.9379621"><ele>269.0</ele><time>2026-05-01T06:42:59.462Z</time></trkpt><trkpt lat="43.2145123" lon="11.9382019"><ele>269.0</ele><time>2026-05-01T06:43:00.462Z</time></trkpt><trkpt lat="43.2144268" lon="11.9384371"><ele>269.0</ele><time>2026-05-01T06:43:01.461Z</time></trkpt><trkpt lat="43.2143388" lon="11.9386686"><ele>270.0</ele><time>2026-05-01T06:43:02.462Z</time></trkpt><trkpt lat="43.2142524" lon="11.9388972"><ele>271.0</ele><time>2026-05-01T06:43:03.461Z</time></trkpt><trkpt lat="43.214157" lon="11.9391297"><ele>272.0</ele><time>2026-05-01T06:43:04.461Z</time></trkpt><trkpt lat="43.2140621" lon="11.9393633"><ele>272.0</ele><time>2026-05-01T06:43:05.462Z</time></trkpt><trkpt lat="43.2139607" lon="11.9395982"><ele>272.0</ele><time>2026-05-01T06:43:06.462Z</time></trkpt><trkpt lat="43.2138575" lon="11.9398355"><ele>272.0</ele><time>2026-05-01T06:43:07.461Z</time></trkpt><trkpt lat="43.2137504" lon="11.9400758"><ele>274.0</ele><time>2026-05-01T06:43:08.462Z</time></trkpt><trkpt lat="43.2136397" lon="11.9403166"><ele>276.0</ele><time>2026-05-01T06:43:09.461Z</time></trkpt><trkpt lat="43.2135249" lon="11.9405594"><ele>278.0</ele><time>2026-05-01T06:43:10.462Z</time></trkpt><trkpt lat="43.2133987" lon="11.9408078"><ele>281.0</ele><time>2026-05-01T06:43:11.462Z</time></trkpt><trkpt lat="43.2132713" lon="11.9410618"><ele>284.0</ele><time>2026-05-01T06:43:12.462Z</time></trkpt><trkpt lat="43.2131395" lon="11.9413181"><ele>284.0</ele><time>2026-05-01T06:43:13.462Z</time></trkpt><trkpt lat="43.2130047" lon="11.9415722"><ele>284.0</ele><time>2026-05-01T06:43:14.462Z</time></trkpt><trkpt lat="43.2128666" lon="11.941829"><ele>284.0</ele><time>2026-05-01T06:43:15.462Z</time></trkpt><trkpt lat="43.2127257" lon="11.942087"><ele>284.0</ele><time>2026-05-01T06:43:16.462Z</time></trkpt><trkpt lat="43.2125776" lon="11.9423384"><ele>285.0</ele><time>2026-05-01T06:43:17.462Z</time></trkpt><trkpt lat="43.2124371" lon="11.942588"><ele>286.0</ele><time>2026-05-01T06:43:18.462Z</time></trkpt><trkpt lat="43.2122893" lon="11.9428432"><ele>287.0</ele><time>2026-05-01T06:43:19.461Z</time></trkpt><trkpt lat="43.2121387" lon="11.9430912"><ele>288.0</ele><time>2026-05-01T06:43:20.462Z</time></trkpt><trkpt lat="43.21198" lon="11.9433358"><ele>286.5</ele><time>2026-05-01T06:43:21.462Z</time></trkpt><trkpt lat="43.2118182" lon="11.9435836"><ele>285.0</ele><time>2026-05-01T06:43:22.461Z</time></trkpt><trkpt lat="43.2116523" lon="11.9438218"><ele>285.5</ele><time>2026-05-01T06:43:23.462Z</time></trkpt><trkpt lat="43.2114846" lon="11.9440651"><ele>286.0</ele><time>2026-05-01T06:43:24.462Z</time></trkpt><trkpt lat="43.2113177" lon="11.9442965"><ele>286.0</ele><time>2026-05-01T06:43:25.462Z</time></trkpt><trkpt lat="43.2111538" lon="11.9445319"><ele>286.0</ele><time>2026-05-01T06:43:26.462Z</time></trkpt><trkpt lat="43.2109813" lon="11.944763"><ele>286.0</ele><time>2026-05-01T06:43:27.462Z</time></trkpt><trkpt lat="43.2108103" lon="11.9449961"><ele>286.0</ele><time>2026-05-01T06:43:28.462Z</time></trkpt><trkpt lat="43.2106401" lon="11.9452304"><ele>285.5</ele><time>2026-05-01T06:43:29.462Z</time></trkpt><trkpt lat="43.2104737" lon="11.9454699"><ele>285.0</ele><time>2026-05-01T06:43:30.462Z</time></trkpt><trkpt lat="43.2103129" lon="11.9457148"><ele>285.0</ele><time>2026-05-01T06:43:31.462Z</time></trkpt><trkpt lat="43.2101585" lon="11.945969"><ele>285.0</ele><time>2026-05-01T06:43:32.461Z</time></trkpt><trkpt lat="43.2100075" lon="11.9462202"><ele>285.0</ele><time>2026-05-01T06:43:33.461Z</time></trkpt><trkpt lat="43.2098633" lon="11.9464733"><ele>285.0</ele><time>2026-05-01T06:43:34.462Z</time></trkpt><trkpt lat="43.2097196" lon="11.9467388"><ele>284.0</ele><time>2026-05-01T06:43:35.462Z</time></trkpt><trkpt lat="43.2095763" lon="11.9470012"><ele>283.0</ele><time>2026-05-01T06:43:36.462Z</time></trkpt><trkpt lat="43.2094368" lon="11.9472672"><ele>283.0</ele><time>2026-05-01T06:43:37.461Z</time></trkpt><trkpt lat="43.2092952" lon="11.9475393"><ele>283.0</ele><time>2026-05-01T06:43:38.462Z</time></trkpt><trkpt lat="43.2091597" lon="11.9478164"><ele>283.5</ele><time>2026-05-01T06:43:39.462Z</time></trkpt><trkpt lat="43.2090284" lon="11.9480983"><ele>284.0</ele><time>2026-05-01T06:43:40.461Z</time></trkpt><trkpt lat="43.2089003" lon="11.948384"><ele>284.0</ele><time>2026-05-01T06:43:41.462Z</time></trkpt><trkpt lat="43.2087825" lon="11.948676"><ele>284.0</ele><time>2026-05-01T06:43:42.462Z</time></trkpt><trkpt lat="43.2086614" lon="11.9489683"><ele>283.5</ele><time>2026-05-01T06:43:43.461Z</time></trkpt><trkpt lat="43.2085464" lon="11.9492625"><ele>283.0</ele><time>2026-05-01T06:43:44.462Z</time></trkpt><trkpt lat="43.2084432" lon="11.9495569"><ele>283.0</ele><time>2026-05-01T06:43:45.462Z</time></trkpt><trkpt lat="43.2083354" lon="11.9498495"><ele>283.0</ele><time>2026-05-01T06:43:46.462Z</time></trkpt><trkpt lat="43.2082331" lon="11.9501503"><ele>283.5</ele><time>2026-05-01T06:43:47.462Z</time></trkpt><trkpt lat="43.2081343" lon="11.9504569"><ele>284.0</ele><time>2026-05-01T06:43:48.462Z</time></trkpt><trkpt lat="43.2080377" lon="11.9507729"><ele>283.0</ele><time>2026-05-01T06:43:49.462Z</time></trkpt><trkpt lat="43.2079474" lon="11.9510941"><ele>282.0</ele><time>2026-05-01T06:43:50.462Z</time></trkpt><trkpt lat="43.2078576" lon="11.9514085"><ele>282.5</ele><time>2026-05-01T06:43:51.462Z</time></trkpt><trkpt lat="43.2077725" lon="11.9517215"><ele>283.0</ele><time>2026-05-01T06:43:52.461Z</time></trkpt><trkpt lat="43.2076917" lon="11.9520419"><ele>283.0</ele><time>2026-05-01T06:43:53.462Z</time></trkpt><trkpt lat="43.2076158" lon="11.9523663"><ele>283.0</ele><time>2026-05-01T06:43:54.461Z</time></trkpt><trkpt lat="43.2075466" lon="11.9526929"><ele>282.5</ele><time>2026-05-01T06:43:55.462Z</time></trkpt><trkpt lat="43.2074748" lon="11.9530206"><ele>282.0</ele><time>2026-05-01T06:43:56.462Z</time></trkpt><trkpt lat="43.2074045" lon="11.9533423"><ele>280.0</ele><time>2026-05-01T06:43:57.462Z</time></trkpt><trkpt lat="43.2073367" lon="11.9536624"><ele>278.0</ele><time>2026-05-01T06:43:58.462Z</time></trkpt><trkpt lat="43.2072638" lon="11.9539762"><ele>275.5</ele><time>2026-05-01T06:43:59.462Z</time></trkpt><trkpt lat="43.207201" lon="11.9542868"><ele>273.0</ele><time>2026-05-01T06:44:00.462Z</time></trkpt><trkpt lat="43.2071327" lon="11.9545986"><ele>273.0</ele><time>2026-05-01T06:44:01.462Z</time></trkpt><trkpt lat="43.2070627" lon="11.9549062"><ele>273.0</ele><time>2026-05-01T06:44:02.461Z</time></trkpt><trkpt lat="43.2069932" lon="11.9552179"><ele>272.5</ele><time>2026-05-01T06:44:03.462Z</time></trkpt><trkpt lat="43.2069253" lon="11.9555371"><ele>272.0</ele><time>2026-05-01T06:44:04.462Z</time></trkpt><trkpt lat="43.206852" lon="11.9558537"><ele>272.0</ele><time>2026-05-01T06:44:05.461Z</time></trkpt><trkpt lat="43.206781" lon="11.956168"><ele>272.0</ele><time>2026-05-01T06:44:06.462Z</time></trkpt><trkpt lat="43.2067051" lon="11.9564821"><ele>273.5</ele><time>2026-05-01T06:44:07.461Z</time></trkpt><trkpt lat="43.2066318" lon="11.9567991"><ele>275.0</ele><time>2026-05-01T06:44:08.461Z</time></trkpt><trkpt lat="43.2065561" lon="11.9571167"><ele>277.5</ele><time>2026-05-01T06:44:09.462Z</time></trkpt><trkpt lat="43.2064759" lon="11.9574354"><ele>280.0</ele><time>2026-05-01T06:44:10.462Z</time></trkpt><trkpt lat="43.2063982" lon="11.9577617"><ele>280.0</ele><time>2026-05-01T06:44:11.462Z</time></trkpt><trkpt lat="43.2063139" lon="11.9580863"><ele>280.0</ele><time>2026-05-01T06:44:12.462Z</time></trkpt><trkpt lat="43.2062266" lon="11.9584057"><ele>280.0</ele><time>2026-05-01T06:44:13.462Z</time></trkpt><trkpt lat="43.2061378" lon="11.9587288"><ele>280.0</ele><time>2026-05-01T06:44:14.462Z</time></trkpt><trkpt lat="43.2060446" lon="11.9590468"><ele>279.0</ele><time>2026-05-01T06:44:15.462Z</time></trkpt><trkpt lat="43.2059512" lon="11.9593658"><ele>278.0</ele><time>2026-05-01T06:44:16.462Z</time></trkpt><trkpt lat="43.2058584" lon="11.9596839"><ele>278.0</ele><time>2026-05-01T06:44:17.462Z</time></trkpt><trkpt lat="43.205771" lon="11.9600048"><ele>278.0</ele><time>2026-05-01T06:44:18.462Z</time></trkpt><trkpt lat="43.2056725" lon="11.9603257"><ele>277.5</ele><time>2026-05-01T06:44:19.462Z</time></trkpt><trkpt lat="43.2055764" lon="11.9606452"><ele>277.0</ele><time>2026-05-01T06:44:20.462Z</time></trkpt><trkpt lat="43.2054805" lon="11.9609667"><ele>276.5</ele><time>2026-05-01T06:44:21.462Z</time></trkpt><trkpt lat="43.2053871" lon="11.9612891"><ele>276.0</ele><time>2026-05-01T06:44:22.462Z</time></trkpt><trkpt lat="43.2052899" lon="11.9616082"><ele>275.5</ele><time>2026-05-01T06:44:23.462Z</time></trkpt><trkpt lat="43.2051892" lon="11.9619223"><ele>275.0</ele><time>2026-05-01T06:44:24.462Z</time></trkpt><trkpt lat="43.2050814" lon="11.9622369"><ele>274.5</ele><time>2026-05-01T06:44:25.461Z</time></trkpt><trkpt lat="43.2049791" lon="11.9625434"><ele>274.0</ele><time>2026-05-01T06:44:26.462Z</time></trkpt><trkpt lat="43.2048779" lon="11.9628529"><ele>274.0</ele><time>2026-05-01T06:44:27.462Z</time></trkpt><trkpt lat="43.2047712" lon="11.9631598"><ele>274.0</ele><time>2026-05-01T06:44:28.462Z</time></trkpt><trkpt lat="43.2046632" lon="11.9634635"><ele>273.5</ele><time>2026-05-01T06:44:29.462Z</time></trkpt><trkpt lat="43.2045564" lon="11.9637693"><ele>273.0</ele><time>2026-05-01T06:44:30.462Z</time></trkpt><trkpt lat="43.2044475" lon="11.9640765"><ele>272.0</ele><time>2026-05-01T06:44:31.462Z</time></trkpt><trkpt lat="43.2043425" lon="11.9643851"><ele>271.0</ele><time>2026-05-01T06:44:32.462Z</time></trkpt><trkpt lat="43.2042322" lon="11.9646891"><ele>271.0</ele><time>2026-05-01T06:44:33.461Z</time></trkpt><trkpt lat="43.2041193" lon="11.9649965"><ele>271.0</ele><time>2026-05-01T06:44:34.461Z</time></trkpt><trkpt lat="43.2040109" lon="11.9653021"><ele>272.0</ele><time>2026-05-01T06:44:35.462Z</time></trkpt><trkpt lat="43.2039022" lon="11.9655987"><ele>273.0</ele><time>2026-05-01T06:44:36.462Z</time></trkpt><trkpt lat="43.2037948" lon="11.9658993"><ele>273.0</ele><time>2026-05-01T06:44:37.462Z</time></trkpt><trkpt lat="43.2036918" lon="11.9662063"><ele>273.0</ele><time>2026-05-01T06:44:38.461Z</time></trkpt><trkpt lat="43.2035847" lon="11.96651"><ele>272.5</ele><time>2026-05-01T06:44:39.462Z</time></trkpt><trkpt lat="43.2034826" lon="11.9668114"><ele>272.0</ele><time>2026-05-01T06:44:40.462Z</time></trkpt><trkpt lat="43.2033808" lon="11.9671115"><ele>272.0</ele><time>2026-05-01T06:44:41.461Z</time></trkpt><trkpt lat="43.203273" lon="11.9674118"><ele>272.0</ele><time>2026-05-01T06:44:42.461Z</time></trkpt><trkpt lat="43.2031664" lon="11.9677149"><ele>272.0</ele><time>2026-05-01T06:44:43.462Z</time></trkpt><trkpt lat="43.20306" lon="11.9680231"><ele>272.0</ele><time>2026-05-01T06:44:44.462Z</time></trkpt><trkpt lat="43.2029486" lon="11.968328"><ele>270.5</ele><time>2026-05-01T06:44:45.462Z</time></trkpt><trkpt lat="43.2028443" lon="11.9686335"><ele>269.0</ele><time>2026-05-01T06:44:46.462Z</time></trkpt><trkpt lat="43.2027312" lon="11.9689412"><ele>269.0</ele><time>2026-05-01T06:44:47.462Z</time></trkpt><trkpt lat="43.2026136" lon="11.9692512"><ele>269.0</ele><time>2026-05-01T06:44:48.462Z</time></trkpt><trkpt lat="43.2024944" lon="11.969562"><ele>269.0</ele><time>2026-05-01T06:44:49.462Z</time></trkpt><trkpt lat="43.2023768" lon="11.969868"><ele>269.0</ele><time>2026-05-01T06:44:50.462Z</time></trkpt><trkpt lat="43.2022607" lon="11.9701763"><ele>269.5</ele><time>2026-05-01T06:44:51.462Z</time></trkpt><trkpt lat="43.2021494" lon="11.9704865"><ele>270.0</ele><time>2026-05-01T06:44:52.462Z</time></trkpt><trkpt lat="43.2020463" lon="11.9707993"><ele>270.5</ele><time>2026-05-01T06:44:53.461Z</time></trkpt><trkpt lat="43.201935" lon="11.9711147"><ele>271.0</ele><time>2026-05-01T06:44:54.462Z</time></trkpt><trkpt lat="43.2018251" lon="11.9714201"><ele>271.5</ele><time>2026-05-01T06:44:55.462Z</time></trkpt><trkpt lat="43.2017072" lon="11.9717304"><ele>272.0</ele><time>2026-05-01T06:44:56.462Z</time></trkpt><trkpt lat="43.2015957" lon="11.9720349"><ele>272.5</ele><time>2026-05-01T06:44:57.462Z</time></trkpt><trkpt lat="43.2014909" lon="11.9723395"><ele>273.0</ele><time>2026-05-01T06:44:58.462Z</time></trkpt><trkpt lat="43.2013818" lon="11.9726454"><ele>274.0</ele><time>2026-05-01T06:44:59.462Z</time></trkpt><trkpt lat="43.2012682" lon="11.9729511"><ele>275.0</ele><time>2026-05-01T06:45:00.462Z</time></trkpt><trkpt lat="43.2011553" lon="11.9732608"><ele>274.5</ele><time>2026-05-01T06:45:01.461Z</time></trkpt><trkpt lat="43.2010438" lon="11.9735622"><ele>274.0</ele><time>2026-05-01T06:45:02.462Z</time></trkpt><trkpt lat="43.2009369" lon="11.9738689"><ele>274.0</ele><time>2026-05-01T06:45:03.462Z</time></trkpt><trkpt lat="43.2008242" lon="11.9741757"><ele>274.0</ele><time>2026-05-01T06:45:04.462Z</time></trkpt><trkpt lat="43.2007155" lon="11.9744788"><ele>273.5</ele><time>2026-05-01T06:45:05.462Z</time></trkpt><trkpt lat="43.2006053" lon="11.97478"><ele>273.0</ele><time>2026-05-01T06:45:06.462Z</time></trkpt><trkpt lat="43.2004996" lon="11.975088"><ele>272.5</ele><time>2026-05-01T06:45:07.461Z</time></trkpt><trkpt lat="43.2003923" lon="11.975388"><ele>272.0</ele><time>2026-05-01T06:45:08.461Z</time></trkpt><trkpt lat="43.2002853" lon="11.9756891"><ele>271.0</ele><time>2026-05-01T06:45:09.461Z</time></trkpt><trkpt lat="43.2001752" lon="11.9759951"><ele>270.0</ele><time>2026-05-01T06:45:10.462Z</time></trkpt><trkpt lat="43.2000615" lon="11.9763023"><ele>270.0</ele><time>2026-05-01T06:45:11.462Z</time></trkpt><trkpt lat="43.1999505" lon="11.9766102"><ele>270.0</ele><time>2026-05-01T06:45:12.462Z</time></trkpt><trkpt lat="43.1998369" lon="11.9769206"><ele>268.5</ele><time>2026-05-01T06:45:13.461Z</time></trkpt><trkpt lat="43.1997228" lon="11.9772315"><ele>267.0</ele><time>2026-05-01T06:45:14.462Z</time></trkpt><trkpt lat="43.1996101" lon="11.977539"><ele>267.0</ele><time>2026-05-01T06:45:15.461Z</time></trkpt><trkpt lat="43.199496" lon="11.9778444"><ele>267.0</ele><time>2026-05-01T06:45:16.462Z</time></trkpt><trkpt lat="43.1993784" lon="11.9781528"><ele>267.0</ele><time>2026-05-01T06:45:17.462Z</time></trkpt><trkpt lat="43.1992577" lon="11.9784569"><ele>267.0</ele><time>2026-05-01T06:45:18.462Z</time></trkpt><trkpt lat="43.1991385" lon="11.9787577"><ele>267.0</ele><time>2026-05-01T06:45:19.462Z</time></trkpt><trkpt lat="43.1990164" lon="11.9790557"><ele>267.0</ele><time>2026-05-01T06:45:20.462Z</time></trkpt><trkpt lat="43.1988882" lon="11.9793534"><ele>268.0</ele><time>2026-05-01T06:45:21.462Z</time></trkpt><trkpt lat="43.1987661" lon="11.9796577"><ele>269.0</ele><time>2026-05-01T06:45:22.461Z</time></trkpt><trkpt lat="43.1986435" lon="11.9799493"><ele>267.5</ele><time>2026-05-01T06:45:23.462Z</time></trkpt><trkpt lat="43.1985217" lon="11.9802416"><ele>266.0</ele><time>2026-05-01T06:45:24.462Z</time></trkpt><trkpt lat="43.1984023" lon="11.9805371"><ele>266.0</ele><time>2026-05-01T06:45:25.462Z</time></trkpt><trkpt lat="43.1982838" lon="11.9808365"><ele>266.0</ele><time>2026-05-01T06:45:26.461Z</time></trkpt><trkpt lat="43.1981683" lon="11.9811261"><ele>265.0</ele><time>2026-05-01T06:45:27.462Z</time></trkpt><trkpt lat="43.1980488" lon="11.9814166"><ele>264.0</ele><time>2026-05-01T06:45:28.462Z</time></trkpt><trkpt lat="43.1979295" lon="11.981707"><ele>264.0</ele><time>2026-05-01T06:45:29.462Z</time></trkpt><trkpt lat="43.1978089" lon="11.9819968"><ele>264.0</ele><time>2026-05-01T06:45:30.462Z</time></trkpt><trkpt lat="43.1976868" lon="11.982289"><ele>264.5</ele><time>2026-05-01T06:45:31.462Z</time></trkpt><trkpt lat="43.1975657" lon="11.9825854"><ele>265.0</ele><time>2026-05-01T06:45:32.462Z</time></trkpt><trkpt lat="43.1974424" lon="11.9828887"><ele>265.0</ele><time>2026-05-01T06:45:33.462Z</time></trkpt><trkpt lat="43.1973165" lon="11.9831928"><ele>265.0</ele><time>2026-05-01T06:45:34.462Z</time></trkpt><trkpt lat="43.1971936" lon="11.9834946"><ele>264.5</ele><time>2026-05-01T06:45:35.461Z</time></trkpt><trkpt lat="43.1970697" lon="11.9837961"><ele>264.0</ele><time>2026-05-01T06:45:36.462Z</time></trkpt><trkpt lat="43.1969503" lon="11.9841031"><ele>264.0</ele><time>2026-05-01T06:45:37.461Z</time></trkpt><trkpt lat="43.1968284" lon="11.9844026"><ele>264.0</ele><time>2026-05-01T06:45:38.461Z</time></trkpt><trkpt lat="43.1967075" lon="11.9847023"><ele>264.0</ele><time>2026-05-01T06:45:39.462Z</time></trkpt><trkpt lat="43.1965852" lon="11.9850029"><ele>264.0</ele><time>2026-05-01T06:45:40.462Z</time></trkpt><trkpt lat="43.1964611" lon="11.985305"><ele>263.5</ele><time>2026-05-01T06:45:41.462Z</time></trkpt><trkpt lat="43.1963413" lon="11.9856029"><ele>263.0</ele><time>2026-05-01T06:45:42.462Z</time></trkpt><trkpt lat="43.1962256" lon="11.9858998"><ele>263.0</ele><time>2026-05-01T06:45:43.462Z</time></trkpt><trkpt lat="43.1961076" lon="11.9861944"><ele>263.0</ele><time>2026-05-01T06:45:44.461Z</time></trkpt><trkpt lat="43.1959929" lon="11.9864932"><ele>263.0</ele><time>2026-05-01T06:45:45.462Z</time></trkpt><trkpt lat="43.195884" lon="11.9867892"><ele>263.0</ele><time>2026-05-01T06:45:46.462Z</time></trkpt><trkpt lat="43.1957754" lon="11.9870814"><ele>263.0</ele><time>2026-05-01T06:45:47.462Z</time></trkpt><trkpt lat="43.1956672" lon="11.9873741"><ele>263.0</ele><time>2026-05-01T06:45:48.462Z</time></trkpt><trkpt lat="43.1955597" lon="11.9876684"><ele>263.5</ele><time>2026-05-01T06:45:49.461Z</time></trkpt><trkpt lat="43.1954507" lon="11.9879628"><ele>264.0</ele><time>2026-05-01T06:45:50.462Z</time></trkpt><trkpt lat="43.1953443" lon="11.9882618"><ele>263.5</ele><time>2026-05-01T06:45:51.462Z</time></trkpt><trkpt lat="43.1952408" lon="11.9885643"><ele>263.0</ele><time>2026-05-01T06:45:52.462Z</time></trkpt><trkpt lat="43.1951358" lon="11.9888643"><ele>263.0</ele><time>2026-05-01T06:45:53.462Z</time></trkpt><trkpt lat="43.1950319" lon="11.9891686"><ele>263.0</ele><time>2026-05-01T06:45:54.462Z</time></trkpt><trkpt lat="43.1949289" lon="11.9894749"><ele>263.0</ele><time>2026-05-01T06:45:55.462Z</time></trkpt><trkpt lat="43.1948262" lon="11.9897772"><ele>263.0</ele><time>2026-05-01T06:45:56.462Z</time></trkpt><trkpt lat="43.1947243" lon="11.9900805"><ele>263.5</ele><time>2026-05-01T06:45:57.461Z</time></trkpt><trkpt lat="43.1946259" lon="11.9903907"><ele>264.0</ele><time>2026-05-01T06:45:58.461Z</time></trkpt><trkpt lat="43.1945273" lon="11.9907025"><ele>264.5</ele><time>2026-05-01T06:45:59.462Z</time></trkpt><trkpt lat="43.1944266" lon="11.9910108"><ele>265.0</ele><time>2026-05-01T06:46:00.462Z</time></trkpt><trkpt lat="43.1943311" lon="11.9913189"><ele>265.0</ele><time>2026-05-01T06:46:01.462Z</time></trkpt><trkpt lat="43.1942331" lon="11.9916379"><ele>265.0</ele><time>2026-05-01T06:46:02.462Z</time></trkpt><trkpt lat="43.1941326" lon="11.991952"><ele>265.0</ele><time>2026-05-01T06:46:03.461Z</time></trkpt><trkpt lat="43.1940291" lon="11.9922645"><ele>265.0</ele><time>2026-05-01T06:46:04.462Z</time></trkpt><trkpt lat="43.1939311" lon="11.9925756"><ele>265.0</ele><time>2026-05-01T06:46:05.462Z</time></trkpt><trkpt lat="43.1938345" lon="11.9928864"><ele>265.0</ele><time>2026-05-01T06:46:06.462Z</time></trkpt><trkpt lat="43.1937367" lon="11.9932037"><ele>265.0</ele><time>2026-05-01T06:46:07.462Z</time></trkpt><trkpt lat="43.1936365" lon="11.9935198"><ele>265.0</ele><time>2026-05-01T06:46:08.461Z</time></trkpt><trkpt lat="43.1935369" lon="11.9938364"><ele>265.0</ele><time>2026-05-01T06:46:09.462Z</time></trkpt><trkpt lat="43.1934351" lon="11.9941561"><ele>265.0</ele><time>2026-05-01T06:46:10.462Z</time></trkpt><trkpt lat="43.1933316" lon="11.9944737"><ele>265.0</ele><time>2026-05-01T06:46:11.462Z</time></trkpt><trkpt lat="43.1932361" lon="11.994793"><ele>265.0</ele><time>2026-05-01T06:46:12.461Z</time></trkpt><trkpt lat="43.1931489" lon="11.9951127"><ele>265.0</ele><time>2026-05-01T06:46:13.462Z</time></trkpt><trkpt lat="43.1930458" lon="11.9954327"><ele>265.0</ele><time>2026-05-01T06:46:14.462Z</time></trkpt><trkpt lat="43.1929366" lon="11.9957556"><ele>266.0</ele><time>2026-05-01T06:46:15.462Z</time></trkpt><trkpt lat="43.1928347" lon="11.9960834"><ele>267.0</ele><time>2026-05-01T06:46:16.462Z</time></trkpt><trkpt lat="43.1927262" lon="11.9964101"><ele>267.5</ele><time>2026-05-01T06:46:17.462Z</time></trkpt><trkpt lat="43.1926213" lon="11.9967349"><ele>268.0</ele><time>2026-05-01T06:46:18.462Z</time></trkpt><trkpt lat="43.1925185" lon="11.9970576"><ele>268.0</ele><time>2026-05-01T06:46:19.461Z</time></trkpt><trkpt lat="43.1924176" lon="11.9973844"><ele>268.0</ele><time>2026-05-01T06:46:20.462Z</time></trkpt><trkpt lat="43.1923193" lon="11.9977051"><ele>267.5</ele><time>2026-05-01T06:46:21.462Z</time></trkpt><trkpt lat="43.1922181" lon="11.9980269"><ele>267.0</ele><time>2026-05-01T06:46:22.462Z</time></trkpt><trkpt lat="43.1921173" lon="11.9983467"><ele>267.0</ele><time>2026-05-01T06:46:23.461Z</time></trkpt><trkpt lat="43.1920181" lon="11.9986645"><ele>267.0</ele><time>2026-05-01T06:46:24.462Z</time></trkpt><trkpt lat="43.1919173" lon="11.9989816"><ele>266.5</ele><time>2026-05-01T06:46:25.462Z</time></trkpt><trkpt lat="43.1918131" lon="11.9992933"><ele>266.0</ele><time>2026-05-01T06:46:26.462Z</time></trkpt><trkpt lat="43.1917132" lon="11.9996089"><ele>266.0</ele><time>2026-05-01T06:46:27.462Z</time></trkpt><trkpt lat="43.1916149" lon="11.9999221"><ele>266.0</ele><time>2026-05-01T06:46:28.462Z</time></trkpt><trkpt lat="43.1915157" lon="12.0002395"><ele>266.0</ele><time>2026-05-01T06:46:29.461Z</time></trkpt><trkpt lat="43.1914157" lon="12.0005621"><ele>266.0</ele><time>2026-05-01T06:46:30.462Z</time></trkpt><trkpt lat="43.1913189" lon="12.0008786"><ele>266.0</ele><time>2026-05-01T06:46:31.461Z</time></trkpt><trkpt lat="43.1912266" lon="12.0011902"><ele>266.0</ele><time>2026-05-01T06:46:32.461Z</time></trkpt><trkpt lat="43.1911359" lon="12.0015016"><ele>266.0</ele><time>2026-05-01T06:46:33.462Z</time></trkpt><trkpt lat="43.1910482" lon="12.0018188"><ele>266.0</ele><time>2026-05-01T06:46:34.462Z</time></trkpt><trkpt lat="43.1909672" lon="12.0021403"><ele>266.0</ele><time>2026-05-01T06:46:35.462Z</time></trkpt><trkpt lat="43.190889" lon="12.002464"><ele>266.0</ele><time>2026-05-01T06:46:36.462Z</time></trkpt><trkpt lat="43.1908129" lon="12.00279"><ele>266.5</ele><time>2026-05-01T06:46:37.462Z</time></trkpt><trkpt lat="43.1907385" lon="12.0031169"><ele>267.0</ele><time>2026-05-01T06:46:38.462Z</time></trkpt><trkpt lat="43.1906647" lon="12.0034449"><ele>267.5</ele><time>2026-05-01T06:46:39.462Z</time></trkpt><trkpt lat="43.1906019" lon="12.0037757"><ele>268.0</ele><time>2026-05-01T06:46:40.462Z</time></trkpt><trkpt lat="43.1905401" lon="12.0041059"><ele>266.5</ele><time>2026-05-01T06:46:41.462Z</time></trkpt><trkpt lat="43.1904781" lon="12.0044385"><ele>265.0</ele><time>2026-05-01T06:46:42.462Z</time></trkpt><trkpt lat="43.1904168" lon="12.0047766"><ele>265.0</ele><time>2026-05-01T06:46:43.462Z</time></trkpt><trkpt lat="43.1903587" lon="12.0051136"><ele>265.0</ele><time>2026-05-01T06:46:44.461Z</time></trkpt><trkpt lat="43.1903038" lon="12.0054516"><ele>265.0</ele><time>2026-05-01T06:46:45.461Z</time></trkpt><trkpt lat="43.190254" lon="12.0057923"><ele>265.0</ele><time>2026-05-01T06:46:46.462Z</time></trkpt><trkpt lat="43.1902122" lon="12.0061295"><ele>265.0</ele><time>2026-05-01T06:46:47.462Z</time></trkpt><trkpt lat="43.1901702" lon="12.0064658"><ele>265.0</ele><time>2026-05-01T06:46:48.462Z</time></trkpt><trkpt lat="43.1901317" lon="12.0067985"><ele>265.0</ele><time>2026-05-01T06:46:49.461Z</time></trkpt><trkpt lat="43.1900966" lon="12.0071321"><ele>265.0</ele><time>2026-05-01T06:46:50.462Z</time></trkpt><trkpt lat="43.1900611" lon="12.0074648"><ele>265.5</ele><time>2026-05-01T06:46:51.462Z</time></trkpt><trkpt lat="43.1900319" lon="12.0078017"><ele>266.0</ele><time>2026-05-01T06:46:52.461Z</time></trkpt><trkpt lat="43.1900093" lon="12.0081396"><ele>266.0</ele><time>2026-05-01T06:46:53.461Z</time></trkpt><trkpt lat="43.1899876" lon="12.0084757"><ele>266.0</ele><time>2026-05-01T06:46:54.462Z</time></trkpt><trkpt lat="43.189968" lon="12.0088151"><ele>266.0</ele><time>2026-05-01T06:46:55.462Z</time></trkpt><trkpt lat="43.1899465" lon="12.0091571"><ele>266.0</ele><time>2026-05-01T06:46:56.462Z</time></trkpt><trkpt lat="43.1899271" lon="12.0094952"><ele>266.0</ele><time>2026-05-01T06:46:57.461Z</time></trkpt><trkpt lat="43.1899112" lon="12.0098328"><ele>266.0</ele><time>2026-05-01T06:46:58.461Z</time></trkpt><trkpt lat="43.1899013" lon="12.0101725"><ele>266.0</ele><time>2026-05-01T06:46:59.462Z</time></trkpt><trkpt lat="43.1898962" lon="12.0105039"><ele>266.0</ele><time>2026-05-01T06:47:00.461Z</time></trkpt><trkpt lat="43.1898919" lon="12.0108255"><ele>266.0</ele><time>2026-05-01T06:47:01.462Z</time></trkpt><trkpt lat="43.1898915" lon="12.0111346"><ele>266.0</ele><time>2026-05-01T06:47:02.462Z</time></trkpt><trkpt lat="43.1898975" lon="12.011443"><ele>265.6666666666667</ele><time>2026-05-01T06:47:03.462Z</time></trkpt><trkpt lat="43.1899063" lon="12.0117397"><ele>265.3333333333333</ele><time>2026-05-01T06:47:04.461Z</time></trkpt><trkpt lat="43.1899117" lon="12.0120364"><ele>265.0</ele><time>2026-05-01T06:47:05.462Z</time></trkpt><trkpt lat="43.1899201" lon="12.0123183"><ele>265.0</ele><time>2026-05-01T06:47:06.462Z</time></trkpt><trkpt lat="43.1899186" lon="12.0125892"><ele>265.0</ele><time>2026-05-01T06:47:07.462Z</time></trkpt><trkpt lat="43.1899201" lon="12.012852"><ele>265.0</ele><time>2026-05-01T06:47:08.462Z</time></trkpt><trkpt lat="43.1899195" lon="12.0131011"><ele>264.66666666666663</ele><time>2026-05-01T06:47:09.462Z</time></trkpt><trkpt lat="43.1899186" lon="12.0133395"><ele>264.3333333333333</ele><time>2026-05-01T06:47:10.462Z</time></trkpt><trkpt lat="43.1899246" lon="12.0135807"><ele>264.0</ele><time>2026-05-01T06:47:11.462Z</time></trkpt><trkpt lat="43.1899177" lon="12.0138097"><ele>264.0</ele><time>2026-05-01T06:47:12.462Z</time></trkpt><trkpt lat="43.1899119" lon="12.014015"><ele>264.0</ele><time>2026-05-01T06:47:13.461Z</time></trkpt><trkpt lat="43.1899119" lon="12.0142011"><ele>264.0</ele><time>2026-05-01T06:47:14.462Z</time></trkpt><trkpt lat="43.1899089" lon="12.0143814"><ele>264.0</ele><time>2026-05-01T06:47:15.461Z</time></trkpt><trkpt lat="43.1898981" lon="12.0145444"><ele>264.0</ele><time>2026-05-01T06:47:16.462Z</time></trkpt><trkpt lat="43.1898632" lon="12.0147076"><ele>264.0</ele><time>2026-05-01T06:47:17.462Z</time></trkpt><trkpt lat="43.1898069" lon="12.0148624"><ele>264.0</ele><time>2026-05-01T06:47:18.462Z</time></trkpt><trkpt lat="43.1897246" lon="12.0150114"><ele>264.0</ele><time>2026-05-01T06:47:19.462Z</time></trkpt><trkpt lat="43.1896104" lon="12.0151062"><ele>263.75</ele><time>2026-05-01T06:47:20.462Z</time></trkpt><trkpt lat="43.1894905" lon="12.0151563"><ele>263.5</ele><time>2026-05-01T06:47:21.462Z</time></trkpt><trkpt lat="43.1893859" lon="12.0151444"><ele>263.25</ele><time>2026-05-01T06:47:22.462Z</time></trkpt><trkpt lat="43.18928" lon="12.0150847"><ele>263.0</ele><time>2026-05-01T06:47:23.461Z</time></trkpt><trkpt lat="43.1891906" lon="12.0149881"><ele>262.75</ele><time>2026-05-01T06:47:24.462Z</time></trkpt><trkpt lat="43.1891236" lon="12.0148631"><ele>262.5</ele><time>2026-05-01T06:47:25.462Z</time></trkpt><trkpt lat="43.1890765" lon="12.0147096"><ele>262.25</ele><time>2026-05-01T06:47:26.462Z</time></trkpt><trkpt lat="43.1890751" lon="12.0145397"><ele>262.0</ele><time>2026-05-01T06:47:27.462Z</time></trkpt><trkpt lat="43.1890941" lon="12.0143808"><ele>262.0</ele><time>2026-05-01T06:47:28.462Z</time></trkpt><trkpt lat="43.189115" lon="12.0142298"><ele>262.0</ele><time>2026-05-01T06:47:29.462Z</time></trkpt><trkpt lat="43.1891378" lon="12.014082"><ele>262.0</ele><time>2026-05-01T06:47:30.462Z</time></trkpt><trkpt lat="43.1891569" lon="12.0139418"><ele>262.0</ele><time>2026-05-01T06:47:31.462Z</time></trkpt><trkpt lat="43.1891753" lon="12.0138072"><ele>262.0</ele><time>2026-05-01T06:47:32.462Z</time></trkpt><trkpt lat="43.1891925" lon="12.0136999"><ele>262.3333333333333</ele><time>2026-05-01T06:47:33.462Z</time></trkpt><trkpt lat="43.1892124" lon="12.0136051"><ele>262.66666666666663</ele><time>2026-05-01T06:47:34.462Z</time></trkpt><trkpt lat="43.1892099" lon="12.0134855"><ele>263.0</ele><time>2026-05-01T06:47:36.462Z</time></trkpt><trkpt lat="43.1892109" lon="12.013379"><ele>263.3333333333333</ele><time>2026-05-01T06:47:39.461Z</time></trkpt><trkpt lat="43.1891759" lon="12.0132956"><ele>263.6666666666667</ele><time>2026-05-01T06:48:20.462Z</time></trkpt><trkpt lat="43.1891219" lon="12.0132411"><ele>264.0</ele><time>2026-05-01T06:48:21.461Z</time></trkpt><trkpt lat="43.1890411" lon="12.013231"><ele>264.0</ele><time>2026-05-01T06:48:22.462Z</time></trkpt><trkpt lat="43.1889448" lon="12.0132253"><ele>264.0</ele><time>2026-05-01T06:48:23.462Z</time></trkpt><trkpt lat="43.1888425" lon="12.01323"><ele>264.0</ele><time>2026-05-01T06:48:24.461Z</time></trkpt><trkpt lat="43.1887409" lon="12.0132389"><ele>264.0</ele><time>2026-05-01T06:48:25.461Z</time></trkpt><trkpt lat="43.1886442" lon="12.0132416"><ele>264.0</ele><time>2026-05-01T06:48:26.462Z</time></trkpt><trkpt lat="43.1885548" lon="12.0132422"><ele>264.0</ele><time>2026-05-01T06:48:27.462Z</time></trkpt><trkpt lat="43.1884854" lon="12.0132519"><ele>264.0</ele><time>2026-05-01T06:48:28.462Z</time></trkpt><trkpt lat="43.1883699" lon="12.0132781"><ele>264.0</ele><time>2026-05-01T06:48:30.462Z</time></trkpt><trkpt lat="43.1883161" lon="12.0133496"><ele>264.0</ele><time>2026-05-01T06:48:32.462Z</time></trkpt><trkpt lat="43.1883364" lon="12.0134366"><ele>264.0</ele><time>2026-05-01T06:48:34.461Z</time></trkpt><trkpt lat="43.1884069" lon="12.0134419"><ele>264.0</ele><time>2026-05-01T06:48:38.462Z</time></trkpt><trkpt lat="43.1884872" lon="12.0133517"><ele>264.0</ele><time>2026-05-01T06:49:15.461Z</time></trkpt><trkpt lat="43.1885568" lon="12.0133328"><ele>264.0</ele><time>2026-05-01T06:49:16.462Z</time></trkpt><trkpt lat="43.1886503" lon="12.0133378"><ele>264.0</ele><time>2026-05-01T06:49:17.461Z</time></trkpt><trkpt lat="43.188754" lon="12.0133391"><ele>264.0</ele><time>2026-05-01T06:49:18.462Z</time></trkpt><trkpt lat="43.1888667" lon="12.0133434"><ele>264.0</ele><time>2026-05-01T06:49:19.462Z</time></trkpt><trkpt lat="43.188995" lon="12.0133325"><ele>264.0</ele><time>2026-05-01T06:49:20.461Z</time></trkpt><trkpt lat="43.1891224" lon="12.0133328"><ele>264.0</ele><time>2026-05-01T06:49:21.462Z</time></trkpt><trkpt lat="43.1892592" lon="12.0133312"><ele>264.0</ele><time>2026-05-01T06:49:22.462Z</time></trkpt><trkpt lat="43.1894083" lon="12.0133273"><ele>264.0</ele><time>2026-05-01T06:49:23.462Z</time></trkpt><trkpt lat="43.189563" lon="12.013322"><ele>264.3333333333333</ele><time>2026-05-01T06:49:24.462Z</time></trkpt><trkpt lat="43.1897253" lon="12.0133149"><ele>264.66666666666663</ele><time>2026-05-01T06:49:25.462Z</time></trkpt><trkpt lat="43.1898891" lon="12.013308"><ele>265.0</ele><time>2026-05-01T06:49:26.461Z</time></trkpt><trkpt lat="43.1900708" lon="12.0133054"><ele>265.0</ele><time>2026-05-01T06:49:27.462Z</time></trkpt><trkpt lat="43.1902564" lon="12.0132993"><ele>265.0</ele><time>2026-05-01T06:49:28.462Z</time></trkpt><trkpt lat="43.1904462" lon="12.013289"><ele>265.0</ele><time>2026-05-01T06:49:29.461Z</time></trkpt><trkpt lat="43.1906432" lon="12.0132752"><ele>264.3333333333333</ele><time>2026-05-01T06:49:30.461Z</time></trkpt><trkpt lat="43.1908385" lon="12.0132621"><ele>263.6666666666667</ele><time>2026-05-01T06:49:31.462Z</time></trkpt><trkpt lat="43.1910415" lon="12.0132569"><ele>263.0</ele><time>2026-05-01T06:49:32.462Z</time></trkpt><trkpt lat="43.1912399" lon="12.0132486"><ele>263.0</ele><time>2026-05-01T06:49:33.462Z</time></trkpt><trkpt lat="43.1914425" lon="12.0132377"><ele>263.0</ele><time>2026-05-01T06:49:34.462Z</time></trkpt><trkpt lat="43.1916486" lon="12.0132311"><ele>263.0</ele><time>2026-05-01T06:49:35.462Z</time></trkpt><trkpt lat="43.1918575" lon="12.0132232"><ele>263.33333333333337</ele><time>2026-05-01T06:49:36.462Z</time></trkpt><trkpt lat="43.1920666" lon="12.013213"><ele>263.6666666666667</ele><time>2026-05-01T06:49:37.462Z</time></trkpt><trkpt lat="43.1922846" lon="12.0132007"><ele>264.0</ele><time>2026-05-01T06:49:38.462Z</time></trkpt><trkpt lat="43.1925053" lon="12.0131945"><ele>263.3333333333333</ele><time>2026-05-01T06:49:39.463Z</time></trkpt><trkpt lat="43.1927212" lon="12.0131864"><ele>262.66666666666663</ele><time>2026-05-01T06:49:40.463Z</time></trkpt><trkpt lat="43.1929391" lon="12.0131797"><ele>262.0</ele><time>2026-05-01T06:49:41.463Z</time></trkpt><trkpt lat="43.1931616" lon="12.0131649"><ele>262.0</ele><time>2026-05-01T06:49:42.463Z</time></trkpt><trkpt lat="43.1933809" lon="12.0131551"><ele>262.0</ele><time>2026-05-01T06:49:43.463Z</time></trkpt><trkpt lat="43.1935964" lon="12.0131486"><ele>262.0</ele><time>2026-05-01T06:49:44.463Z</time></trkpt><trkpt lat="43.1938089" lon="12.0131358"><ele>262.0</ele><time>2026-05-01T06:49:45.463Z</time></trkpt><trkpt lat="43.1940099" lon="12.013125"><ele>262.0</ele><time>2026-05-01T06:49:46.462Z</time></trkpt><trkpt lat="43.1942066" lon="12.0131165"><ele>262.0</ele><time>2026-05-01T06:49:47.463Z</time></trkpt><trkpt lat="43.1943995" lon="12.0131073"><ele>262.0</ele><time>2026-05-01T06:49:48.462Z</time></trkpt><trkpt lat="43.1946023" lon="12.0131014"><ele>262.0</ele><time>2026-05-01T06:49:49.463Z</time></trkpt><trkpt lat="43.1948092" lon="12.0130975"><ele>262.0</ele><time>2026-05-01T06:49:50.463Z</time></trkpt><trkpt lat="43.1950114" lon="12.0130886"><ele>262.0</ele><time>2026-05-01T06:49:51.462Z</time></trkpt><trkpt lat="43.1952121" lon="12.0130786"><ele>262.0</ele><time>2026-05-01T06:49:52.463Z</time></trkpt><trkpt lat="43.1954154" lon="12.0130625"><ele>262.0</ele><time>2026-05-01T06:49:53.462Z</time></trkpt><trkpt lat="43.1956097" lon="12.0130499"><ele>261.66666666666663</ele><time>2026-05-01T06:49:54.462Z</time></trkpt><trkpt lat="43.1957906" lon="12.0130481"><ele>261.3333333333333</ele><time>2026-05-01T06:49:55.463Z</time></trkpt><trkpt lat="43.1959435" lon="12.0130457"><ele>261.0</ele><time>2026-05-01T06:49:56.463Z</time></trkpt><trkpt lat="43.1960722" lon="12.0130502"><ele>261.0</ele><time>2026-05-01T06:49:57.463Z</time></trkpt><trkpt lat="43.1961794" lon="12.0130481"><ele>261.0</ele><time>2026-05-01T06:49:58.463Z</time></trkpt><trkpt lat="43.1962651" lon="12.0130539"><ele>261.0</ele><time>2026-05-01T06:49:59.463Z</time></trkpt><trkpt lat="43.1963346" lon="12.013051"><ele>261.0</ele><time>2026-05-01T06:50:00.462Z</time></trkpt><trkpt lat="43.1963987" lon="12.0130699"><ele>261.0</ele><time>2026-05-01T06:50:01.462Z</time></trkpt><trkpt lat="43.1964837" lon="12.0131621"><ele>261.0</ele><time>2026-05-01T06:50:03.463Z</time></trkpt><trkpt lat="43.196557" lon="12.0132238"><ele>261.1666666666667</ele><time>2026-05-01T06:50:05.463Z</time></trkpt><trkpt lat="43.1966244" lon="12.0132807"><ele>261.3333333333333</ele><time>2026-05-01T06:50:07.463Z</time></trkpt><trkpt lat="43.196686" lon="12.0133089"><ele>261.5</ele><time>2026-05-01T06:50:10.463Z</time></trkpt><trkpt lat="43.1967508" lon="12.0133581"><ele>261.66666666666663</ele><time>2026-05-01T06:55:51.462Z</time></trkpt><trkpt lat="43.1968106" lon="12.0133915"><ele>261.8333333333333</ele><time>2026-05-01T07:15:57.464Z</time></trkpt><trkpt lat="43.1967914" lon="12.0132693"><ele>262.0</ele><time>2026-05-01T07:16:00.464Z</time></trkpt><trkpt lat="43.1967147" lon="12.0132288"><ele>262.0</ele><time>2026-05-01T07:16:03.464Z</time></trkpt><trkpt lat="43.1966662" lon="12.0132866"><ele>262.0</ele><time>2026-05-01T07:16:06.463Z</time></trkpt><trkpt lat="43.1967784" lon="12.0132149"><ele>262.0</ele><time>2026-05-01T07:17:02.463Z</time></trkpt><trkpt lat="43.1968432" lon="12.0131723"><ele>262.0</ele><time>2026-05-01T07:17:04.464Z</time></trkpt><trkpt lat="43.1968911" lon="12.0131152"><ele>262.0</ele><time>2026-05-01T07:17:06.464Z</time></trkpt><trkpt lat="43.1970194" lon="12.0130344"><ele>262.0</ele><time>2026-05-01T07:17:08.464Z</time></trkpt><trkpt lat="43.1971131" lon="12.0130206"><ele>262.0</ele><time>2026-05-01T07:17:09.464Z</time></trkpt><trkpt lat="43.19721" lon="12.0130254"><ele>262.0</ele><time>2026-05-01T07:17:10.464Z</time></trkpt><trkpt lat="43.1972986" lon="12.0130205"><ele>262.0</ele><time>2026-05-01T07:17:11.464Z</time></trkpt><trkpt lat="43.1973902" lon="12.0130212"><ele>262.0</ele><time>2026-05-01T07:17:12.464Z</time></trkpt><trkpt lat="43.1974828" lon="12.0130199"><ele>262.5</ele><time>2026-05-01T07:17:13.464Z</time></trkpt><trkpt lat="43.1975857" lon="12.0130185"><ele>263.0</ele><time>2026-05-01T07:17:14.464Z</time></trkpt><trkpt lat="43.1976981" lon="12.0130205"><ele>263.5</ele><time>2026-05-01T07:17:15.464Z</time></trkpt><trkpt lat="43.1978137" lon="12.0130244"><ele>264.0</ele><time>2026-05-01T07:17:16.464Z</time></trkpt><trkpt lat="43.1979367" lon="12.0130128"><ele>264.0</ele><time>2026-05-01T07:17:17.463Z</time></trkpt><trkpt lat="43.1980651" lon="12.0130029"><ele>264.0</ele><time>2026-05-01T07:17:18.464Z</time></trkpt><trkpt lat="43.1981967" lon="12.0129969"><ele>264.0</ele><time>2026-05-01T07:17:19.464Z</time></trkpt><trkpt lat="43.198331" lon="12.0129908"><ele>264.0</ele><time>2026-05-01T07:17:20.463Z</time></trkpt><trkpt lat="43.1984598" lon="12.0129891"><ele>263.75</ele><time>2026-05-01T07:17:21.464Z</time></trkpt><trkpt lat="43.1985873" lon="12.0129886"><ele>263.5</ele><time>2026-05-01T07:17:22.464Z</time></trkpt><trkpt lat="43.1987262" lon="12.0129793"><ele>263.25</ele><time>2026-05-01T07:17:23.463Z</time></trkpt><trkpt lat="43.1988662" lon="12.0129719"><ele>263.0</ele><time>2026-05-01T07:17:24.463Z</time></trkpt><trkpt lat="43.1990096" lon="12.0129708"><ele>262.6666666666667</ele><time>2026-05-01T07:17:25.463Z</time></trkpt><trkpt lat="43.1991704" lon="12.0129663"><ele>262.3333333333333</ele><time>2026-05-01T07:17:26.464Z</time></trkpt><trkpt lat="43.199331" lon="12.0129613"><ele>262.0</ele><time>2026-05-01T07:17:27.464Z</time></trkpt><trkpt lat="43.1995004" lon="12.0129582"><ele>262.0</ele><time>2026-05-01T07:17:28.464Z</time></trkpt><trkpt lat="43.1996706" lon="12.0129616"><ele>262.0</ele><time>2026-05-01T07:17:29.464Z</time></trkpt><trkpt lat="43.1998394" lon="12.0129566"><ele>262.0</ele><time>2026-05-01T07:17:30.464Z</time></trkpt><trkpt lat="43.2000047" lon="12.0129507"><ele>263.3333333333333</ele><time>2026-05-01T07:17:31.464Z</time></trkpt><trkpt lat="43.200178" lon="12.012948"><ele>264.6666666666667</ele><time>2026-05-01T07:17:32.464Z</time></trkpt><trkpt lat="43.2003521" lon="12.0129462"><ele>266.0</ele><time>2026-05-01T07:17:33.464Z</time></trkpt><trkpt lat="43.2005337" lon="12.0129452"><ele>266.0</ele><time>2026-05-01T07:17:34.464Z</time></trkpt><trkpt lat="43.200714" lon="12.0129461"><ele>266.0</ele><time>2026-05-01T07:17:35.463Z</time></trkpt><trkpt lat="43.2008968" lon="12.0129543"><ele>266.0</ele><time>2026-05-01T07:17:36.464Z</time></trkpt><trkpt lat="43.2010766" lon="12.0129643"><ele>266.0</ele><time>2026-05-01T07:17:37.464Z</time></trkpt><trkpt lat="43.2012552" lon="12.0129898"><ele>266.0</ele><time>2026-05-01T07:17:38.464Z</time></trkpt><trkpt lat="43.201433" lon="12.0130088"><ele>266.0</ele><time>2026-05-01T07:17:39.463Z</time></trkpt><trkpt lat="43.2016128" lon="12.0130405"><ele>265.6666666666667</ele><time>2026-05-01T07:17:40.464Z</time></trkpt><trkpt lat="43.2017902" lon="12.0130907"><ele>265.3333333333333</ele><time>2026-05-01T07:17:41.464Z</time></trkpt><trkpt lat="43.2019704" lon="12.0131371"><ele>265.0</ele><time>2026-05-01T07:17:42.464Z</time></trkpt><trkpt lat="43.2021464" lon="12.0131963"><ele>265.0</ele><time>2026-05-01T07:17:43.464Z</time></trkpt><trkpt lat="43.2023223" lon="12.0132644"><ele>265.0</ele><time>2026-05-01T07:17:44.464Z</time></trkpt><trkpt lat="43.2024833" lon="12.0133237"><ele>265.0</ele><time>2026-05-01T07:17:45.464Z</time></trkpt><trkpt lat="43.2026513" lon="12.0133875"><ele>266.3333333333333</ele><time>2026-05-01T07:17:46.464Z</time></trkpt><trkpt lat="43.2028138" lon="12.0134544"><ele>267.6666666666667</ele><time>2026-05-01T07:17:47.463Z</time></trkpt><trkpt lat="43.2029765" lon="12.0135139"><ele>269.0</ele><time>2026-05-01T07:17:48.464Z</time></trkpt><trkpt lat="43.2031474" lon="12.0135742"><ele>268.33333333333337</ele><time>2026-05-01T07:17:49.464Z</time></trkpt><trkpt lat="43.2033168" lon="12.0136359"><ele>267.6666666666667</ele><time>2026-05-01T07:17:50.463Z</time></trkpt><trkpt lat="43.2034803" lon="12.0137008"><ele>267.0</ele><time>2026-05-01T07:17:51.464Z</time></trkpt><trkpt lat="43.2036482" lon="12.0137588"><ele>267.0</ele><time>2026-05-01T07:17:52.464Z</time></trkpt><trkpt lat="43.2038192" lon="12.0138013"><ele>267.0</ele><time>2026-05-01T07:17:53.464Z</time></trkpt><trkpt lat="43.2039923" lon="12.0138235"><ele>267.0</ele><time>2026-05-01T07:17:54.464Z</time></trkpt><trkpt lat="43.204169" lon="12.0138132"><ele>268.0</ele><time>2026-05-01T07:17:55.464Z</time></trkpt><trkpt lat="43.2043341" lon="12.0137652"><ele>269.0</ele><time>2026-05-01T07:17:56.464Z</time></trkpt><trkpt lat="43.2044869" lon="12.0137075"><ele>270.0</ele><time>2026-05-01T07:17:57.464Z</time></trkpt><trkpt lat="43.2046382" lon="12.0136036"><ele>270.0</ele><time>2026-05-01T07:17:58.464Z</time></trkpt><trkpt lat="43.2047936" lon="12.0134727"><ele>270.0</ele><time>2026-05-01T07:17:59.463Z</time></trkpt><trkpt lat="43.2049403" lon="12.0133508"><ele>270.0</ele><time>2026-05-01T07:18:00.464Z</time></trkpt><trkpt lat="43.2050876" lon="12.0132013"><ele>270.0</ele><time>2026-05-01T07:18:01.463Z</time></trkpt><trkpt lat="43.2052173" lon="12.0130575"><ele>270.0</ele><time>2026-05-01T07:18:02.464Z</time></trkpt><trkpt lat="43.2053303" lon="12.012932"><ele>270.0</ele><time>2026-05-01T07:18:03.464Z</time></trkpt><trkpt lat="43.2054409" lon="12.0128163"><ele>270.0</ele><time>2026-05-01T07:18:04.463Z</time></trkpt><trkpt lat="43.2055549" lon="12.012713"><ele>270.0</ele><time>2026-05-01T07:18:05.463Z</time></trkpt><trkpt lat="43.2056682" lon="12.0126119"><ele>270.0</ele><time>2026-05-01T07:18:06.463Z</time></trkpt><trkpt lat="43.2057726" lon="12.0125043"><ele>270.0</ele><time>2026-05-01T07:18:07.464Z</time></trkpt><trkpt lat="43.2058809" lon="12.012392"><ele>270.0</ele><time>2026-05-01T07:18:08.464Z</time></trkpt><trkpt lat="43.2059864" lon="12.012283"><ele>270.0</ele><time>2026-05-01T07:18:09.464Z</time></trkpt><trkpt lat="43.2060853" lon="12.0121853"><ele>270.0</ele><time>2026-05-01T07:18:10.463Z</time></trkpt><trkpt lat="43.2061939" lon="12.0120784"><ele>270.0</ele><time>2026-05-01T07:18:11.463Z</time></trkpt><trkpt lat="43.2063062" lon="12.0119519"><ele>270.0</ele><time>2026-05-01T07:18:12.464Z</time></trkpt><trkpt lat="43.2064231" lon="12.0118311"><ele>270.0</ele><time>2026-05-01T07:18:13.464Z</time></trkpt><trkpt lat="43.2065426" lon="12.0117111"><ele>270.0</ele><time>2026-05-01T07:18:14.463Z</time></trkpt><trkpt lat="43.2066626" lon="12.0115931"><ele>270.0</ele><time>2026-05-01T07:18:15.464Z</time></trkpt><trkpt lat="43.2067789" lon="12.0114731"><ele>269.6666666666667</ele><time>2026-05-01T07:18:16.464Z</time></trkpt><trkpt lat="43.2069015" lon="12.0113511"><ele>269.33333333333337</ele><time>2026-05-01T07:18:17.464Z</time></trkpt><trkpt lat="43.2070262" lon="12.0112217"><ele>269.0</ele><time>2026-05-01T07:18:18.464Z</time></trkpt><trkpt lat="43.2071515" lon="12.0110949"><ele>269.0</ele><time>2026-05-01T07:18:19.464Z</time></trkpt><trkpt lat="43.2072837" lon="12.0109647"><ele>269.0</ele><time>2026-05-01T07:18:20.464Z</time></trkpt><trkpt lat="43.2074074" lon="12.0108353"><ele>269.0</ele><time>2026-05-01T07:18:21.464Z</time></trkpt><trkpt lat="43.2075391" lon="12.0107043"><ele>269.5</ele><time>2026-05-01T07:18:22.464Z</time></trkpt><trkpt lat="43.2076565" lon="12.0105835"><ele>270.0</ele><time>2026-05-01T07:18:23.464Z</time></trkpt><trkpt lat="43.2077629" lon="12.0104778"><ele>270.5</ele><time>2026-05-01T07:18:24.464Z</time></trkpt><trkpt lat="43.2078566" lon="12.010389"><ele>271.0</ele><time>2026-05-01T07:18:25.464Z</time></trkpt><trkpt lat="43.2079509" lon="12.0103053"><ele>271.0</ele><time>2026-05-01T07:18:26.464Z</time></trkpt><trkpt lat="43.2080357" lon="12.0102292"><ele>271.0</ele><time>2026-05-01T07:18:27.464Z</time></trkpt><trkpt lat="43.2081219" lon="12.010166"><ele>271.0</ele><time>2026-05-01T07:18:28.464Z</time></trkpt><trkpt lat="43.2082008" lon="12.0101094"><ele>271.0</ele><time>2026-05-01T07:18:29.464Z</time></trkpt><trkpt lat="43.2082738" lon="12.0100574"><ele>271.0</ele><time>2026-05-01T07:18:30.464Z</time></trkpt><trkpt lat="43.2083421" lon="12.0100107"><ele>271.0</ele><time>2026-05-01T07:18:31.464Z</time></trkpt><trkpt lat="43.2084011" lon="12.0099722"><ele>271.0</ele><time>2026-05-01T07:18:32.464Z</time></trkpt><trkpt lat="43.2085046" lon="12.0099765"><ele>271.0</ele><time>2026-05-01T07:18:34.464Z</time></trkpt><trkpt lat="43.2085479" lon="12.0100545"><ele>271.0</ele><time>2026-05-01T07:18:35.463Z</time></trkpt><trkpt lat="43.2085917" lon="12.0101555"><ele>271.0</ele><time>2026-05-01T07:18:36.464Z</time></trkpt><trkpt lat="43.2086455" lon="12.010255"><ele>271.0</ele><time>2026-05-01T07:18:37.464Z</time></trkpt><trkpt lat="43.2087095" lon="12.0103615"><ele>271.0</ele><time>2026-05-01T07:18:38.464Z</time></trkpt><trkpt lat="43.2087663" lon="12.0104738"><ele>271.0</ele><time>2026-05-01T07:18:39.464Z</time></trkpt><trkpt lat="43.2088269" lon="12.0105817"><ele>271.0</ele><time>2026-05-01T07:18:40.464Z</time></trkpt><trkpt lat="43.208898" lon="12.0106943"><ele>271.0</ele><time>2026-05-01T07:18:41.463Z</time></trkpt><trkpt lat="43.2089706" lon="12.0108172"><ele>271.0</ele><time>2026-05-01T07:18:42.463Z</time></trkpt><trkpt lat="43.2090467" lon="12.0109444"><ele>271.75</ele><time>2026-05-01T07:18:43.464Z</time></trkpt><trkpt lat="43.2091195" lon="12.011075"><ele>272.5</ele><time>2026-05-01T07:18:44.464Z</time></trkpt><trkpt lat="43.2091896" lon="12.0112154"><ele>273.25</ele><time>2026-05-01T07:18:45.464Z</time></trkpt><trkpt lat="43.2092622" lon="12.0113555"><ele>274.0</ele><time>2026-05-01T07:18:46.463Z</time></trkpt><trkpt lat="43.2093327" lon="12.0114984"><ele>274.0</ele><time>2026-05-01T07:18:47.464Z</time></trkpt><trkpt lat="43.2094003" lon="12.0116495"><ele>274.0</ele><time>2026-05-01T07:18:48.464Z</time></trkpt><trkpt lat="43.2094603" lon="12.0117951"><ele>274.0</ele><time>2026-05-01T07:18:49.464Z</time></trkpt><trkpt lat="43.2095252" lon="12.01194"><ele>274.0</ele><time>2026-05-01T07:18:50.464Z</time></trkpt><trkpt lat="43.2095988" lon="12.0120752"><ele>274.0</ele><time>2026-05-01T07:18:51.464Z</time></trkpt><trkpt lat="43.2096848" lon="12.0122003"><ele>274.0</ele><time>2026-05-01T07:18:52.464Z</time></trkpt><trkpt lat="43.2097727" lon="12.0123227"><ele>274.0</ele><time>2026-05-01T07:18:53.464Z</time></trkpt><trkpt lat="43.2098626" lon="12.0124398"><ele>274.0</ele><time>2026-05-01T07:18:54.464Z</time></trkpt><trkpt lat="43.2099523" lon="12.0125728"><ele>274.5</ele><time>2026-05-01T07:18:55.463Z</time></trkpt><trkpt lat="43.2100469" lon="12.0126969"><ele>275.0</ele><time>2026-05-01T07:18:56.464Z</time></trkpt><trkpt lat="43.2101414" lon="12.0128195"><ele>275.5</ele><time>2026-05-01T07:18:57.464Z</time></trkpt><trkpt lat="43.2102368" lon="12.0129417"><ele>276.0</ele><time>2026-05-01T07:18:58.464Z</time></trkpt><trkpt lat="43.2103296" lon="12.0130596"><ele>276.0</ele><time>2026-05-01T07:18:59.464Z</time></trkpt><trkpt lat="43.2104109" lon="12.0131766"><ele>276.0</ele><time>2026-05-01T07:19:00.464Z</time></trkpt><trkpt lat="43.2104855" lon="12.0132787"><ele>276.0</ele><time>2026-05-01T07:19:01.463Z</time></trkpt><trkpt lat="43.2105498" lon="12.0133661"><ele>276.0</ele><time>2026-05-01T07:19:02.464Z</time></trkpt><trkpt lat="43.2106122" lon="12.0134411"><ele>276.0</ele><time>2026-05-01T07:19:03.464Z</time></trkpt><trkpt lat="43.2106702" lon="12.0135075"><ele>276.0</ele><time>2026-05-01T07:19:04.464Z</time></trkpt><trkpt lat="43.2107277" lon="12.0135689"><ele>276.0</ele><time>2026-05-01T07:19:05.464Z</time></trkpt><trkpt lat="43.2108339" lon="12.0136357"><ele>276.0</ele><time>2026-05-01T07:19:07.463Z</time></trkpt><trkpt lat="43.2108729" lon="12.0137267"><ele>276.0</ele><time>2026-05-01T07:19:09.464Z</time></trkpt><trkpt lat="43.2108188" lon="12.0138619"><ele>276.0</ele><time>2026-05-01T07:19:11.464Z</time></trkpt><trkpt lat="43.2107581" lon="12.0139356"><ele>276.0</ele><time>2026-05-01T07:19:12.464Z</time></trkpt><trkpt lat="43.2107063" lon="12.0140154"><ele>276.0</ele><time>2026-05-01T07:19:13.463Z</time></trkpt><trkpt lat="43.2106423" lon="12.0140968"><ele>276.0</ele><time>2026-05-01T07:19:14.464Z</time></trkpt><trkpt lat="43.2105727" lon="12.0141749"><ele>276.0</ele><time>2026-05-01T07:19:15.464Z</time></trkpt><trkpt lat="43.2104931" lon="12.0142455"><ele>276.0</ele><time>2026-05-01T07:19:16.463Z</time></trkpt><trkpt lat="43.2104116" lon="12.0143041"><ele>276.0</ele><time>2026-05-01T07:19:17.464Z</time></trkpt><trkpt lat="43.2103247" lon="12.0143483"><ele>276.2</ele><time>2026-05-01T07:19:18.464Z</time></trkpt><trkpt lat="43.2102441" lon="12.0143924"><ele>276.40000000000003</ele><time>2026-05-01T07:19:19.464Z</time></trkpt><trkpt lat="43.2101554" lon="12.0144491"><ele>276.6</ele><time>2026-05-01T07:19:20.464Z</time></trkpt><trkpt lat="43.2100651" lon="12.0145072"><ele>276.8</ele><time>2026-05-01T07:19:21.463Z</time></trkpt><trkpt lat="43.2099674" lon="12.014573"><ele>277.0</ele><time>2026-05-01T07:19:22.463Z</time></trkpt><trkpt lat="43.2098712" lon="12.0146472"><ele>277.0</ele><time>2026-05-01T07:19:23.464Z</time></trkpt><trkpt lat="43.2097732" lon="12.0147187"><ele>277.0</ele><time>2026-05-01T07:19:24.464Z</time></trkpt><trkpt lat="43.2096808" lon="12.0147942"><ele>277.0</ele><time>2026-05-01T07:19:25.464Z</time></trkpt><trkpt lat="43.2095841" lon="12.0148723"><ele>277.0</ele><time>2026-05-01T07:19:26.464Z</time></trkpt><trkpt lat="43.2095018" lon="12.0149508"><ele>277.0</ele><time>2026-05-01T07:19:27.464Z</time></trkpt><trkpt lat="43.2094196" lon="12.0150273"><ele>277.0</ele><time>2026-05-01T07:19:28.464Z</time></trkpt><trkpt lat="43.209351" lon="12.0150963"><ele>277.0</ele><time>2026-05-01T07:19:29.463Z</time></trkpt><trkpt lat="43.209272" lon="12.0151664"><ele>277.0</ele><time>2026-05-01T07:19:30.464Z</time></trkpt><trkpt lat="43.209187" lon="12.0152448"><ele>277.0</ele><time>2026-05-01T07:19:31.464Z</time></trkpt><trkpt lat="43.2091025" lon="12.0153241"><ele>277.0</ele><time>2026-05-01T07:19:32.464Z</time></trkpt><trkpt lat="43.2090209" lon="12.0153983"><ele>277.2</ele><time>2026-05-01T07:19:33.464Z</time></trkpt><trkpt lat="43.2089354" lon="12.0154672"><ele>277.4</ele><time>2026-05-01T07:19:34.464Z</time></trkpt><trkpt lat="43.2088437" lon="12.0155329"><ele>277.6</ele><time>2026-05-01T07:19:35.463Z</time></trkpt><trkpt lat="43.208747" lon="12.0155952"><ele>277.8</ele><time>2026-05-01T07:19:36.464Z</time></trkpt><trkpt lat="43.208649" lon="12.0156482"><ele>278.0</ele><time>2026-05-01T07:19:37.464Z</time></trkpt><trkpt lat="43.2085498" lon="12.0157075"><ele>278.0</ele><time>2026-05-01T07:19:38.464Z</time></trkpt><trkpt lat="43.2084541" lon="12.0157635"><ele>278.0</ele><time>2026-05-01T07:19:39.464Z</time></trkpt><trkpt lat="43.2083583" lon="12.0158199"><ele>278.0</ele><time>2026-05-01T07:19:40.463Z</time></trkpt><trkpt lat="43.2082649" lon="12.0158673"><ele>278.0</ele><time>2026-05-01T07:19:41.463Z</time></trkpt><trkpt lat="43.2081644" lon="12.0159072"><ele>278.0</ele><time>2026-05-01T07:19:42.464Z</time></trkpt><trkpt lat="43.2080742" lon="12.0159293"><ele>277.4</ele><time>2026-05-01T07:19:43.463Z</time></trkpt><trkpt lat="43.2079654" lon="12.0159359"><ele>276.8</ele><time>2026-05-01T07:19:44.463Z</time></trkpt><trkpt lat="43.2078602" lon="12.0159208"><ele>276.2</ele><time>2026-05-01T07:19:45.464Z</time></trkpt><trkpt lat="43.2077615" lon="12.0159046"><ele>275.6</ele><time>2026-05-01T07:19:46.464Z</time></trkpt><trkpt lat="43.2076544" lon="12.0158979"><ele>275.0</ele><time>2026-05-01T07:19:47.464Z</time></trkpt><trkpt lat="43.2075473" lon="12.0158638"><ele>275.0</ele><time>2026-05-01T07:19:48.463Z</time></trkpt><trkpt lat="43.2074363" lon="12.0158169"><ele>275.0</ele><time>2026-05-01T07:19:49.464Z</time></trkpt><trkpt lat="43.2073291" lon="12.0157889"><ele>275.0</ele><time>2026-05-01T07:19:50.464Z</time></trkpt><trkpt lat="43.2072173" lon="12.0157641"><ele>275.0</ele><time>2026-05-01T07:19:51.463Z</time></trkpt><trkpt lat="43.2071215" lon="12.015745"><ele>275.0</ele><time>2026-05-01T07:19:52.463Z</time></trkpt><trkpt lat="43.2070298" lon="12.0157126"><ele>274.2</ele><time>2026-05-01T07:19:53.463Z</time></trkpt><trkpt lat="43.2069307" lon="12.0156812"><ele>273.4</ele><time>2026-05-01T07:19:54.464Z</time></trkpt><trkpt lat="43.2068259" lon="12.0156505"><ele>272.6</ele><time>2026-05-01T07:19:55.463Z</time></trkpt><trkpt lat="43.206717" lon="12.0156143"><ele>271.8</ele><time>2026-05-01T07:19:56.464Z</time></trkpt><trkpt lat="43.206601" lon="12.0155773"><ele>271.0</ele><time>2026-05-01T07:19:57.464Z</time></trkpt><trkpt lat="43.2064746" lon="12.015546"><ele>270.75</ele><time>2026-05-01T07:19:58.464Z</time></trkpt><trkpt lat="43.206332" lon="12.0155169"><ele>270.5</ele><time>2026-05-01T07:19:59.463Z</time></trkpt><trkpt lat="43.2061981" lon="12.0154943"><ele>270.25</ele><time>2026-05-01T07:20:00.464Z</time></trkpt><trkpt lat="43.2060735" lon="12.0154854"><ele>270.0</ele><time>2026-05-01T07:20:01.464Z</time></trkpt><trkpt lat="43.2059671" lon="12.0154764"><ele>270.0</ele><time>2026-05-01T07:20:02.463Z</time></trkpt><trkpt lat="43.2058712" lon="12.0154673"><ele>270.0</ele><time>2026-05-01T07:20:03.464Z</time></trkpt><trkpt lat="43.205774" lon="12.015457"><ele>270.0</ele><time>2026-05-01T07:20:04.464Z</time></trkpt><trkpt lat="43.2056688" lon="12.0154407"><ele>270.0</ele><time>2026-05-01T07:20:05.464Z</time></trkpt><trkpt lat="43.205558" lon="12.0154207"><ele>270.0</ele><time>2026-05-01T07:20:06.464Z</time></trkpt><trkpt lat="43.2054482" lon="12.0154005"><ele>270.8</ele><time>2026-05-01T07:20:07.463Z</time></trkpt><trkpt lat="43.2053421" lon="12.0153885"><ele>271.6</ele><time>2026-05-01T07:20:08.463Z</time></trkpt><trkpt lat="43.2052351" lon="12.0153739"><ele>272.4</ele><time>2026-05-01T07:20:09.464Z</time></trkpt><trkpt lat="43.2051219" lon="12.015361"><ele>273.2</ele><time>2026-05-01T07:20:10.463Z</time></trkpt><trkpt lat="43.2050022" lon="12.0153603"><ele>274.0</ele><time>2026-05-01T07:20:11.464Z</time></trkpt><trkpt lat="43.2048713" lon="12.0153788"><ele>272.75</ele><time>2026-05-01T07:20:12.464Z</time></trkpt><trkpt lat="43.2047386" lon="12.0154175"><ele>271.5</ele><time>2026-05-01T07:20:13.464Z</time></trkpt><trkpt lat="43.2046118" lon="12.0154527"><ele>270.25</ele><time>2026-05-01T07:20:14.464Z</time></trkpt><trkpt lat="43.2044871" lon="12.0154724"><ele>269.0</ele><time>2026-05-01T07:20:15.464Z</time></trkpt><trkpt lat="43.2043626" lon="12.0154788"><ele>269.0</ele><time>2026-05-01T07:20:16.464Z</time></trkpt><trkpt lat="43.2042367" lon="12.0155046"><ele>269.0</ele><time>2026-05-01T07:20:17.464Z</time></trkpt><trkpt lat="43.2041179" lon="12.0155708"><ele>269.0</ele><time>2026-05-01T07:20:18.464Z</time></trkpt><trkpt lat="43.2040041" lon="12.0156134"><ele>269.0</ele><time>2026-05-01T07:20:19.464Z</time></trkpt><trkpt lat="43.2038946" lon="12.0156592"><ele>268.8</ele><time>2026-05-01T07:20:20.464Z</time></trkpt><trkpt lat="43.2037866" lon="12.0157151"><ele>268.59999999999997</ele><time>2026-05-01T07:20:21.463Z</time></trkpt><trkpt lat="43.2036785" lon="12.0157472"><ele>268.4</ele><time>2026-05-01T07:20:22.464Z</time></trkpt><trkpt lat="43.2035708" lon="12.015792"><ele>268.2</ele><time>2026-05-01T07:20:23.463Z</time></trkpt><trkpt lat="43.203471" lon="12.0158127"><ele>268.0</ele><time>2026-05-01T07:20:24.464Z</time></trkpt><trkpt lat="43.2033633" lon="12.0158425"><ele>268.0</ele><time>2026-05-01T07:20:25.463Z</time></trkpt><trkpt lat="43.2032515" lon="12.0158936"><ele>268.0</ele><time>2026-05-01T07:20:26.463Z</time></trkpt><trkpt lat="43.2031428" lon="12.015934"><ele>268.0</ele><time>2026-05-01T07:20:27.463Z</time></trkpt><trkpt lat="43.2030349" lon="12.0160105"><ele>268.0</ele><time>2026-05-01T07:20:28.463Z</time></trkpt><trkpt lat="43.202906" lon="12.0160661"><ele>267.5</ele><time>2026-05-01T07:20:29.463Z</time></trkpt><trkpt lat="43.2027656" lon="12.0161328"><ele>267.0</ele><time>2026-05-01T07:20:30.464Z</time></trkpt><trkpt lat="43.2026307" lon="12.0161935"><ele>266.5</ele><time>2026-05-01T07:20:31.463Z</time></trkpt><trkpt lat="43.2024857" lon="12.0162585"><ele>266.0</ele><time>2026-05-01T07:20:32.464Z</time></trkpt><trkpt lat="43.20232" lon="12.0163394"><ele>265.33333333333337</ele><time>2026-05-01T07:20:33.463Z</time></trkpt><trkpt lat="43.2021468" lon="12.0164096"><ele>264.6666666666667</ele><time>2026-05-01T07:20:34.463Z</time></trkpt><trkpt lat="43.2019839" lon="12.0164853"><ele>264.0</ele><time>2026-05-01T07:20:35.463Z</time></trkpt><trkpt lat="43.2018315" lon="12.0165557"><ele>264.0</ele><time>2026-05-01T07:20:36.464Z</time></trkpt><trkpt lat="43.2016959" lon="12.0166146"><ele>264.0</ele><time>2026-05-01T07:20:37.464Z</time></trkpt><trkpt lat="43.2015618" lon="12.0166664"><ele>264.0</ele><time>2026-05-01T07:20:38.464Z</time></trkpt><trkpt lat="43.2014292" lon="12.0167343"><ele>264.0</ele><time>2026-05-01T07:20:39.464Z</time></trkpt><trkpt lat="43.2013177" lon="12.0167749"><ele>264.0</ele><time>2026-05-01T07:20:40.463Z</time></trkpt><trkpt lat="43.2012034" lon="12.0168014"><ele>264.0</ele><time>2026-05-01T07:20:41.464Z</time></trkpt><trkpt lat="43.2010762" lon="12.0168186"><ele>264.0</ele><time>2026-05-01T07:20:42.464Z</time></trkpt><trkpt lat="43.2009352" lon="12.0168146"><ele>264.0</ele><time>2026-05-01T07:20:43.464Z</time></trkpt><trkpt lat="43.2007655" lon="12.0168037"><ele>263.5</ele><time>2026-05-01T07:20:44.464Z</time></trkpt><trkpt lat="43.2005986" lon="12.0167939"><ele>263.0</ele><time>2026-05-01T07:20:45.463Z</time></trkpt><trkpt lat="43.2004534" lon="12.0167957"><ele>262.5</ele><time>2026-05-01T07:20:46.464Z</time></trkpt><trkpt lat="43.2003283" lon="12.0168063"><ele>262.0</ele><time>2026-05-01T07:20:47.463Z</time></trkpt><trkpt lat="43.2002168" lon="12.0168204"><ele>262.0</ele><time>2026-05-01T07:20:48.463Z</time></trkpt><trkpt lat="43.2001094" lon="12.0168466"><ele>262.0</ele><time>2026-05-01T07:20:49.463Z</time></trkpt><trkpt lat="43.2000109" lon="12.0168725"><ele>262.0</ele><time>2026-05-01T07:20:50.463Z</time></trkpt><trkpt lat="43.1999187" lon="12.0169313"><ele>262.0</ele><time>2026-05-01T07:20:51.464Z</time></trkpt><trkpt lat="43.1998366" lon="12.0170051"><ele>262.0</ele><time>2026-05-01T07:20:52.464Z</time></trkpt><trkpt lat="43.1997675" lon="12.0170931"><ele>262.0</ele><time>2026-05-01T07:20:53.464Z</time></trkpt><trkpt lat="43.1997063" lon="12.0172123"><ele>262.0</ele><time>2026-05-01T07:20:54.464Z</time></trkpt><trkpt lat="43.1996553" lon="12.0173378"><ele>262.0</ele><time>2026-05-01T07:20:55.464Z</time></trkpt><trkpt lat="43.1996123" lon="12.0174668"><ele>262.0</ele><time>2026-05-01T07:20:56.463Z</time></trkpt><trkpt lat="43.1995637" lon="12.0175878"><ele>262.0</ele><time>2026-05-01T07:20:57.464Z</time></trkpt><trkpt lat="43.1995098" lon="12.0177036"><ele>262.0</ele><time>2026-05-01T07:20:58.464Z</time></trkpt><trkpt lat="43.1994488" lon="12.0178167"><ele>262.0</ele><time>2026-05-01T07:20:59.464Z</time></trkpt><trkpt lat="43.1993746" lon="12.0179208"><ele>262.0</ele><time>2026-05-01T07:21:00.464Z</time></trkpt><trkpt lat="43.1993075" lon="12.018013"><ele>262.0</ele><time>2026-05-01T07:21:01.463Z</time></trkpt><trkpt lat="43.1992422" lon="12.018089"><ele>262.0</ele><time>2026-05-01T07:21:02.464Z</time></trkpt><trkpt lat="43.1991776" lon="12.0181516"><ele>262.0</ele><time>2026-05-01T07:21:03.464Z</time></trkpt><trkpt lat="43.1991075" lon="12.0182123"><ele>262.0</ele><time>2026-05-01T07:21:04.464Z</time></trkpt><trkpt lat="43.1990298" lon="12.0182386"><ele>262.0</ele><time>2026-05-01T07:21:05.463Z</time></trkpt><trkpt lat="43.1989642" lon="12.0182497"><ele>262.0</ele><time>2026-05-01T07:21:06.464Z</time></trkpt><trkpt lat="43.1988904" lon="12.0182852"><ele>262.0</ele><time>2026-05-01T07:21:07.463Z</time></trkpt><trkpt lat="43.1988334" lon="12.0183671"><ele>262.0</ele><time>2026-05-01T07:21:08.464Z</time></trkpt><trkpt lat="43.1987742" lon="12.0184685"><ele>262.0</ele><time>2026-05-01T07:21:09.464Z</time></trkpt><trkpt lat="43.1987131" lon="12.0185841"><ele>262.0</ele><time>2026-05-01T07:21:10.463Z</time></trkpt><trkpt lat="43.198663" lon="12.0186942"><ele>262.0</ele><time>2026-05-01T07:21:11.464Z</time></trkpt><trkpt lat="43.1986208" lon="12.0187922"><ele>262.0</ele><time>2026-05-01T07:21:12.464Z</time></trkpt><trkpt lat="43.1985856" lon="12.0188755"><ele>262.0</ele><time>2026-05-01T07:21:13.464Z</time></trkpt><trkpt lat="43.198518" lon="12.019002"><ele>262.0</ele><time>2026-05-01T07:21:15.464Z</time></trkpt><trkpt lat="43.1984703" lon="12.0190637"><ele>262.0</ele><time>2026-05-01T07:21:16.464Z</time></trkpt><trkpt lat="43.198418" lon="12.0191176"><ele>262.0</ele><time>2026-05-01T07:21:17.464Z</time></trkpt><trkpt lat="43.1983439" lon="12.0191496"><ele>262.0</ele><time>2026-05-01T07:21:18.463Z</time></trkpt><trkpt lat="43.1982675" lon="12.0191933"><ele>262.0</ele><time>2026-05-01T07:21:19.464Z</time></trkpt><trkpt lat="43.1981711" lon="12.019229"><ele>262.0</ele><time>2026-05-01T07:21:20.463Z</time></trkpt><trkpt lat="43.1980864" lon="12.0192844"><ele>262.4</ele><time>2026-05-01T07:21:21.464Z</time></trkpt><trkpt lat="43.1980092" lon="12.0193385"><ele>262.79999999999995</ele><time>2026-05-01T07:21:22.463Z</time></trkpt><trkpt lat="43.1979418" lon="12.0194035"><ele>263.2</ele><time>2026-05-01T07:21:23.464Z</time></trkpt><trkpt lat="43.1978844" lon="12.0195119"><ele>263.59999999999997</ele><time>2026-05-01T07:21:24.463Z</time></trkpt><trkpt lat="43.1978358" lon="12.0196316"><ele>264.0</ele><time>2026-05-01T07:21:25.464Z</time></trkpt><trkpt lat="43.1977894" lon="12.0197712"><ele>264.0</ele><time>2026-05-01T07:21:26.464Z</time></trkpt><trkpt lat="43.1977412" lon="12.0199087"><ele>264.0</ele><time>2026-05-01T07:21:27.464Z</time></trkpt><trkpt lat="43.1976938" lon="12.0200465"><ele>264.0</ele><time>2026-05-01T07:21:28.464Z</time></trkpt><trkpt lat="43.1976548" lon="12.0201716"><ele>264.0</ele><time>2026-05-01T07:21:29.464Z</time></trkpt><trkpt lat="43.1976201" lon="12.0202862"><ele>264.0</ele><time>2026-05-01T07:21:30.464Z</time></trkpt><trkpt lat="43.1975898" lon="12.0203703"><ele>264.0</ele><time>2026-05-01T07:21:31.464Z</time></trkpt><trkpt lat="43.197534" lon="12.0205064"><ele>264.0</ele><time>2026-05-01T07:21:33.463Z</time></trkpt><trkpt lat="43.1974535" lon="12.0206246"><ele>264.0</ele><time>2026-05-01T07:21:35.463Z</time></trkpt><trkpt lat="43.1974013" lon="12.0206925"><ele>264.0</ele><time>2026-05-01T07:21:36.464Z</time></trkpt><trkpt lat="43.1973433" lon="12.0207633"><ele>264.0</ele><time>2026-05-01T07:21:37.464Z</time></trkpt><trkpt lat="43.1972888" lon="12.0208287"><ele>264.0</ele><time>2026-05-01T07:21:38.463Z</time></trkpt><trkpt lat="43.1972383" lon="12.0208848"><ele>264.0</ele><time>2026-05-01T07:21:39.464Z</time></trkpt><trkpt lat="43.1971424" lon="12.0209903"><ele>264.0</ele><time>2026-05-01T07:21:41.464Z</time></trkpt><trkpt lat="43.1970557" lon="12.0210769"><ele>264.0</ele><time>2026-05-01T07:21:43.464Z</time></trkpt><trkpt lat="43.1969704" lon="12.0211692"><ele>264.0</ele><time>2026-05-01T07:21:45.464Z</time></trkpt><trkpt lat="43.196918" lon="12.0212219"><ele>264.0</ele><time>2026-05-01T07:21:46.464Z</time></trkpt><trkpt lat="43.1968528" lon="12.0212865"><ele>264.0</ele><time>2026-05-01T07:21:47.463Z</time></trkpt><trkpt lat="43.1967816" lon="12.021357"><ele>264.0</ele><time>2026-05-01T07:21:48.464Z</time></trkpt><trkpt lat="43.1967123" lon="12.0214204"><ele>264.0</ele><time>2026-05-01T07:21:49.463Z</time></trkpt><trkpt lat="43.1966492" lon="12.0214669"><ele>264.0</ele><time>2026-05-01T07:21:50.464Z</time></trkpt><trkpt lat="43.196589" lon="12.0215118"><ele>264.0</ele><time>2026-05-01T07:21:51.463Z</time></trkpt><trkpt lat="43.1964871" lon="12.0215841"><ele>263.8333333333333</ele><time>2026-05-01T07:21:53.464Z</time></trkpt><trkpt lat="43.1963954" lon="12.0216224"><ele>263.6666666666667</ele><time>2026-05-01T07:21:55.464Z</time></trkpt><trkpt lat="43.1963048" lon="12.0215586"><ele>263.5</ele><time>2026-05-01T07:21:57.464Z</time></trkpt><trkpt lat="43.1962463" lon="12.0214979"><ele>263.33333333333337</ele><time>2026-05-01T07:21:58.464Z</time></trkpt><trkpt lat="43.1961884" lon="12.0214193"><ele>263.1666666666667</ele><time>2026-05-01T07:21:59.464Z</time></trkpt><trkpt lat="43.1961366" lon="12.02134"><ele>263.0</ele><time>2026-05-01T07:22:00.464Z</time></trkpt><trkpt lat="43.1960907" lon="12.0212645"><ele>263.0</ele><time>2026-05-01T07:22:01.463Z</time></trkpt><trkpt lat="43.1960465" lon="12.0211875"><ele>263.0</ele><time>2026-05-01T07:22:02.463Z</time></trkpt><trkpt lat="43.1959915" lon="12.0211209"><ele>263.0</ele><time>2026-05-01T07:22:03.463Z</time></trkpt><trkpt lat="43.1959296" lon="12.0210676"><ele>263.0</ele><time>2026-05-01T07:22:04.464Z</time></trkpt><trkpt lat="43.1958702" lon="12.0210286"><ele>263.0</ele><time>2026-05-01T07:22:05.464Z</time></trkpt><trkpt lat="43.1958072" lon="12.0210081"><ele>263.0</ele><time>2026-05-01T07:22:06.464Z</time></trkpt><trkpt lat="43.1957365" lon="12.0209939"><ele>263.0</ele><time>2026-05-01T07:22:07.464Z</time></trkpt><trkpt lat="43.1956615" lon="12.0210024"><ele>263.1428571428571</ele><time>2026-05-01T07:22:08.464Z</time></trkpt><trkpt lat="43.1955922" lon="12.0210236"><ele>263.2857142857143</ele><time>2026-05-01T07:22:09.464Z</time></trkpt><trkpt lat="43.1955127" lon="12.0210448"><ele>263.42857142857144</ele><time>2026-05-01T07:22:10.464Z</time></trkpt><trkpt lat="43.1954453" lon="12.0210493"><ele>263.57142857142856</ele><time>2026-05-01T07:22:11.464Z</time></trkpt><trkpt lat="43.1953731" lon="12.0210592"><ele>263.7142857142857</ele><time>2026-05-01T07:22:12.463Z</time></trkpt><trkpt lat="43.1952975" lon="12.0210801"><ele>263.85714285714283</ele><time>2026-05-01T07:22:13.463Z</time></trkpt><trkpt lat="43.1952224" lon="12.0211063"><ele>264.0</ele><time>2026-05-01T07:22:14.464Z</time></trkpt><trkpt lat="43.1951405" lon="12.0211402"><ele>264.0</ele><time>2026-05-01T07:22:15.463Z</time></trkpt><trkpt lat="43.1950646" lon="12.0211767"><ele>264.0</ele><time>2026-05-01T07:22:16.464Z</time></trkpt><trkpt lat="43.1949855" lon="12.021218"><ele>264.0</ele><time>2026-05-01T07:22:17.463Z</time></trkpt><trkpt lat="43.1949117" lon="12.0212623"><ele>264.0</ele><time>2026-05-01T07:22:18.464Z</time></trkpt><trkpt lat="43.1948416" lon="12.0213143"><ele>264.0</ele><time>2026-05-01T07:22:19.464Z</time></trkpt><trkpt lat="43.1947823" lon="12.021374"><ele>264.0</ele><time>2026-05-01T07:22:20.463Z</time></trkpt><trkpt lat="43.1947225" lon="12.0214347"><ele>263.6666666666667</ele><time>2026-05-01T07:22:21.464Z</time></trkpt><trkpt lat="43.1946728" lon="12.0214945"><ele>263.3333333333333</ele><time>2026-05-01T07:22:22.464Z</time></trkpt><trkpt lat="43.1946204" lon="12.0215622"><ele>263.0</ele><time>2026-05-01T07:22:23.464Z</time></trkpt><trkpt lat="43.1945673" lon="12.0216476"><ele>262.66666666666663</ele><time>2026-05-01T07:22:24.463Z</time></trkpt><trkpt lat="43.1945157" lon="12.0217311"><ele>262.3333333333333</ele><time>2026-05-01T07:22:25.464Z</time></trkpt><trkpt lat="43.1944689" lon="12.0218082"><ele>262.0</ele><time>2026-05-01T07:22:26.464Z</time></trkpt><trkpt lat="43.194398" lon="12.0219312"><ele>262.0</ele><time>2026-05-01T07:22:28.463Z</time></trkpt><trkpt lat="43.194344" lon="12.0220625"><ele>262.0</ele><time>2026-05-01T07:22:30.464Z</time></trkpt><trkpt lat="43.1943006" lon="12.0221805"><ele>262.0</ele><time>2026-05-01T07:22:32.464Z</time></trkpt><trkpt lat="43.1942822" lon="12.022319"><ele>262.0</ele><time>2026-05-01T07:22:34.464Z</time></trkpt><trkpt lat="43.1942581" lon="12.022483"><ele>262.0</ele><time>2026-05-01T07:22:36.463Z</time></trkpt><trkpt lat="43.1942539" lon="12.0225924"><ele>262.0</ele><time>2026-05-01T07:22:37.464Z</time></trkpt><trkpt lat="43.1942328" lon="12.0226966"><ele>262.0</ele><time>2026-05-01T07:22:38.464Z</time></trkpt><trkpt lat="43.1942132" lon="12.0227883"><ele>262.0</ele><time>2026-05-01T07:22:39.463Z</time></trkpt><trkpt lat="43.1941844" lon="12.0228722"><ele>262.0</ele><time>2026-05-01T07:22:40.463Z</time></trkpt><trkpt lat="43.1941601" lon="12.0229556"><ele>262.0</ele><time>2026-05-01T07:22:41.464Z</time></trkpt><trkpt lat="43.194106" lon="12.0230851"><ele>262.0</ele><time>2026-05-01T07:22:43.464Z</time></trkpt><trkpt lat="43.1940146" lon="12.0231982"><ele>262.0</ele><time>2026-05-01T07:22:45.464Z</time></trkpt><trkpt lat="43.193947" lon="12.0232541"><ele>262.0</ele><time>2026-05-01T07:22:46.464Z</time></trkpt><trkpt lat="43.1938698" lon="12.0233096"><ele>262.0</ele><time>2026-05-01T07:22:47.464Z</time></trkpt><trkpt lat="43.1937855" lon="12.0233752"><ele>262.0</ele><time>2026-05-01T07:22:48.464Z</time></trkpt><trkpt lat="43.1937102" lon="12.0234336"><ele>262.0</ele><time>2026-05-01T07:22:49.464Z</time></trkpt><trkpt lat="43.1936394" lon="12.0234947"><ele>262.0</ele><time>2026-05-01T07:22:50.464Z</time></trkpt><trkpt lat="43.1935721" lon="12.0235527"><ele>261.8333333333333</ele><time>2026-05-01T07:22:51.464Z</time></trkpt><trkpt lat="43.1934977" lon="12.0236093"><ele>261.66666666666663</ele><time>2026-05-01T07:22:52.464Z</time></trkpt><trkpt lat="43.1934199" lon="12.0236694"><ele>261.5</ele><time>2026-05-01T07:22:53.464Z</time></trkpt><trkpt lat="43.1933609" lon="12.0237223"><ele>261.3333333333333</ele><time>2026-05-01T07:22:54.464Z</time></trkpt><trkpt lat="43.1932987" lon="12.0237763"><ele>261.1666666666667</ele><time>2026-05-01T07:22:55.464Z</time></trkpt><trkpt lat="43.1932389" lon="12.0238398"><ele>261.0</ele><time>2026-05-01T07:22:56.464Z</time></trkpt><trkpt lat="43.1931843" lon="12.0239068"><ele>261.1666666666667</ele><time>2026-05-01T07:22:57.464Z</time></trkpt><trkpt lat="43.1931391" lon="12.0239781"><ele>261.3333333333333</ele><time>2026-05-01T07:22:58.464Z</time></trkpt><trkpt lat="43.1930768" lon="12.0241098"><ele>261.5</ele><time>2026-05-01T07:23:00.464Z</time></trkpt><trkpt lat="43.1930247" lon="12.0242577"><ele>261.66666666666663</ele><time>2026-05-01T07:23:02.464Z</time></trkpt><trkpt lat="43.1929993" lon="12.0243439"><ele>261.8333333333333</ele><time>2026-05-01T07:23:03.464Z</time></trkpt><trkpt lat="43.1929734" lon="12.0244278"><ele>262.0</ele><time>2026-05-01T07:23:04.464Z</time></trkpt><trkpt lat="43.1929507" lon="12.0245307"><ele>262.0</ele><time>2026-05-01T07:23:05.464Z</time></trkpt><trkpt lat="43.1929141" lon="12.024641"><ele>262.0</ele><time>2026-05-01T07:23:06.464Z</time></trkpt><trkpt lat="43.1928707" lon="12.0247609"><ele>262.0</ele><time>2026-05-01T07:23:07.464Z</time></trkpt><trkpt lat="43.1928282" lon="12.024893"><ele>262.0</ele><time>2026-05-01T07:23:08.463Z</time></trkpt><trkpt lat="43.1927828" lon="12.0250279"><ele>262.0</ele><time>2026-05-01T07:23:09.464Z</time></trkpt><trkpt lat="43.1927377" lon="12.0251648"><ele>262.4</ele><time>2026-05-01T07:23:10.463Z</time></trkpt><trkpt lat="43.1926934" lon="12.0252958"><ele>262.79999999999995</ele><time>2026-05-01T07:23:11.464Z</time></trkpt><trkpt lat="43.1926445" lon="12.0254151"><ele>263.2</ele><time>2026-05-01T07:23:12.464Z</time></trkpt><trkpt lat="43.1925841" lon="12.0255488"><ele>263.59999999999997</ele><time>2026-05-01T07:23:13.464Z</time></trkpt><trkpt lat="43.1925229" lon="12.0257057"><ele>264.0</ele><time>2026-05-01T07:23:14.464Z</time></trkpt><trkpt lat="43.1924614" lon="12.0258564"><ele>264.0</ele><time>2026-05-01T07:23:15.464Z</time></trkpt><trkpt lat="43.1923962" lon="12.0260036"><ele>264.0</ele><time>2026-05-01T07:23:16.463Z</time></trkpt><trkpt lat="43.1923278" lon="12.0261574"><ele>264.0</ele><time>2026-05-01T07:23:17.464Z</time></trkpt><trkpt lat="43.19225" lon="12.0262983"><ele>264.0</ele><time>2026-05-01T07:23:18.463Z</time></trkpt><trkpt lat="43.1921775" lon="12.0264471"><ele>263.5</ele><time>2026-05-01T07:23:19.464Z</time></trkpt><trkpt lat="43.1921118" lon="12.0266007"><ele>263.0</ele><time>2026-05-01T07:23:20.464Z</time></trkpt><trkpt lat="43.1920486" lon="12.0267525"><ele>262.5</ele><time>2026-05-01T07:23:21.464Z</time></trkpt><trkpt lat="43.191988" lon="12.0269081"><ele>262.0</ele><time>2026-05-01T07:23:22.464Z</time></trkpt><trkpt lat="43.1919361" lon="12.0270686"><ele>261.75</ele><time>2026-05-01T07:23:23.464Z</time></trkpt><trkpt lat="43.1918767" lon="12.027223"><ele>261.5</ele><time>2026-05-01T07:23:24.464Z</time></trkpt><trkpt lat="43.1918209" lon="12.0273711"><ele>261.25</ele><time>2026-05-01T07:23:25.464Z</time></trkpt><trkpt lat="43.1917585" lon="12.0275094"><ele>261.0</ele><time>2026-05-01T07:23:26.463Z</time></trkpt><trkpt lat="43.1916969" lon="12.0276388"><ele>261.40000000000003</ele><time>2026-05-01T07:23:27.463Z</time></trkpt><trkpt lat="43.1916413" lon="12.027745"><ele>261.8</ele><time>2026-05-01T07:23:28.464Z</time></trkpt><trkpt lat="43.1915868" lon="12.0278341"><ele>262.20000000000005</ele><time>2026-05-01T07:23:29.464Z</time></trkpt><trkpt lat="43.1915297" lon="12.0279062"><ele>262.6</ele><time>2026-05-01T07:23:30.464Z</time></trkpt><trkpt lat="43.1914797" lon="12.0279717"><ele>263.0</ele><time>2026-05-01T07:23:31.464Z</time></trkpt><trkpt lat="43.1914406" lon="12.0281376"><ele>263.0</ele><time>2026-05-01T07:23:33.464Z</time></trkpt><trkpt lat="43.1914575" lon="12.0282488"><ele>263.0</ele><time>2026-05-01T07:23:34.463Z</time></trkpt><trkpt lat="43.1914634" lon="12.0283832"><ele>263.0</ele><time>2026-05-01T07:23:35.463Z</time></trkpt><trkpt lat="43.1914612" lon="12.0285286"><ele>263.0</ele><time>2026-05-01T07:23:36.464Z</time></trkpt><trkpt lat="43.1914406" lon="12.0286657"><ele>263.0</ele><time>2026-05-01T07:23:37.464Z</time></trkpt><trkpt lat="43.1914152" lon="12.0287822"><ele>263.1666666666667</ele><time>2026-05-01T07:23:38.464Z</time></trkpt><trkpt lat="43.19138" lon="12.0288958"><ele>263.33333333333337</ele><time>2026-05-01T07:23:39.464Z</time></trkpt><trkpt lat="43.1913417" lon="12.0289983"><ele>263.5</ele><time>2026-05-01T07:23:40.464Z</time></trkpt><trkpt lat="43.1912876" lon="12.0291021"><ele>263.6666666666667</ele><time>2026-05-01T07:23:41.463Z</time></trkpt><trkpt lat="43.1912249" lon="12.0291971"><ele>263.8333333333333</ele><time>2026-05-01T07:23:42.463Z</time></trkpt><trkpt lat="43.1911559" lon="12.0292596"><ele>264.0</ele><time>2026-05-01T07:23:43.464Z</time></trkpt><trkpt lat="43.1910806" lon="12.0293115"><ele>264.4</ele><time>2026-05-01T07:23:44.464Z</time></trkpt><trkpt lat="43.1909956" lon="12.02935"><ele>264.79999999999995</ele><time>2026-05-01T07:23:45.464Z</time></trkpt><trkpt lat="43.1909043" lon="12.0293875"><ele>265.20000000000005</ele><time>2026-05-01T07:23:46.463Z</time></trkpt><trkpt lat="43.1908127" lon="12.0294281"><ele>265.6</ele><time>2026-05-01T07:23:47.463Z</time></trkpt><trkpt lat="43.1907181" lon="12.0294758"><ele>266.0</ele><time>2026-05-01T07:23:48.464Z</time></trkpt><trkpt lat="43.1906254" lon="12.0295177"><ele>265.2</ele><time>2026-05-01T07:23:49.464Z</time></trkpt><trkpt lat="43.190539" lon="12.029562"><ele>264.40000000000003</ele><time>2026-05-01T07:23:50.463Z</time></trkpt><trkpt lat="43.1904572" lon="12.0296089"><ele>263.6</ele><time>2026-05-01T07:23:51.464Z</time></trkpt><trkpt lat="43.1903805" lon="12.0296776"><ele>262.8</ele><time>2026-05-01T07:23:52.464Z</time></trkpt><trkpt lat="43.1903049" lon="12.0297789"><ele>262.0</ele><time>2026-05-01T07:23:53.464Z</time></trkpt><trkpt lat="43.1902176" lon="12.0299233"><ele>262.3333333333333</ele><time>2026-05-01T07:23:54.464Z</time></trkpt><trkpt lat="43.1901248" lon="12.0300702"><ele>262.6666666666667</ele><time>2026-05-01T07:23:55.464Z</time></trkpt><trkpt lat="43.1900118" lon="12.0302539"><ele>263.0</ele><time>2026-05-01T07:23:56.464Z</time></trkpt><trkpt lat="43.1898955" lon="12.0304469"><ele>263.33333333333337</ele><time>2026-05-01T07:23:57.464Z</time></trkpt><trkpt lat="43.1897526" lon="12.0306496"><ele>263.6666666666667</ele><time>2026-05-01T07:23:58.463Z</time></trkpt><trkpt lat="43.1896093" lon="12.0308528"><ele>264.0</ele><time>2026-05-01T07:23:59.464Z</time></trkpt><trkpt lat="43.1894864" lon="12.0310553"><ele>264.0</ele><time>2026-05-01T07:24:00.464Z</time></trkpt><trkpt lat="43.1893596" lon="12.0312406"><ele>264.0</ele><time>2026-05-01T07:24:01.464Z</time></trkpt><trkpt lat="43.1892629" lon="12.0314028"><ele>264.0</ele><time>2026-05-01T07:24:02.464Z</time></trkpt><trkpt lat="43.189169" lon="12.0315507"><ele>264.3333333333333</ele><time>2026-05-01T07:24:03.464Z</time></trkpt><trkpt lat="43.1890645" lon="12.031712"><ele>264.66666666666663</ele><time>2026-05-01T07:24:04.463Z</time></trkpt><trkpt lat="43.188963" lon="12.0318814"><ele>265.0</ele><time>2026-05-01T07:24:05.464Z</time></trkpt><trkpt lat="43.18886" lon="12.0320458"><ele>264.3333333333333</ele><time>2026-05-01T07:24:06.463Z</time></trkpt><trkpt lat="43.1887567" lon="12.0322023"><ele>263.6666666666667</ele><time>2026-05-01T07:24:07.464Z</time></trkpt><trkpt lat="43.1886543" lon="12.0323737"><ele>263.0</ele><time>2026-05-01T07:24:08.463Z</time></trkpt><trkpt lat="43.1885571" lon="12.0325413"><ele>263.0</ele><time>2026-05-01T07:24:09.464Z</time></trkpt><trkpt lat="43.1884693" lon="12.032706"><ele>263.0</ele><time>2026-05-01T07:24:10.464Z</time></trkpt><trkpt lat="43.1883874" lon="12.0328645"><ele>263.0</ele><time>2026-05-01T07:24:11.464Z</time></trkpt><trkpt lat="43.1883108" lon="12.0330116"><ele>263.0</ele><time>2026-05-01T07:24:12.464Z</time></trkpt><trkpt lat="43.1882369" lon="12.0331589"><ele>263.0</ele><time>2026-05-01T07:24:13.464Z</time></trkpt><trkpt lat="43.1881561" lon="12.0333059"><ele>263.0</ele><time>2026-05-01T07:24:14.464Z</time></trkpt><trkpt lat="43.1880845" lon="12.0334504"><ele>263.0</ele><time>2026-05-01T07:24:15.463Z</time></trkpt><trkpt lat="43.18802" lon="12.0335998"><ele>263.0</ele><time>2026-05-01T07:24:16.463Z</time></trkpt><trkpt lat="43.1879491" lon="12.0337323"><ele>263.0</ele><time>2026-05-01T07:24:17.464Z</time></trkpt><trkpt lat="43.1878948" lon="12.0338789"><ele>263.0</ele><time>2026-05-01T07:24:18.464Z</time></trkpt><trkpt lat="43.1878347" lon="12.0340218"><ele>263.0</ele><time>2026-05-01T07:24:19.464Z</time></trkpt><trkpt lat="43.1877813" lon="12.0341724"><ele>263.0</ele><time>2026-05-01T07:24:20.464Z</time></trkpt><trkpt lat="43.1877428" lon="12.0343257"><ele>263.0</ele><time>2026-05-01T07:24:21.464Z</time></trkpt><trkpt lat="43.1877121" lon="12.0344721"><ele>263.0</ele><time>2026-05-01T07:24:22.463Z</time></trkpt><trkpt lat="43.1876841" lon="12.0346089"><ele>263.0</ele><time>2026-05-01T07:24:23.464Z</time></trkpt><trkpt lat="43.1876476" lon="12.0347413"><ele>263.0</ele><time>2026-05-01T07:24:24.464Z</time></trkpt><trkpt lat="43.1876015" lon="12.0348785"><ele>263.0</ele><time>2026-05-01T07:24:25.464Z</time></trkpt><trkpt lat="43.1875455" lon="12.0349993"><ele>263.0</ele><time>2026-05-01T07:24:26.464Z</time></trkpt><trkpt lat="43.1874756" lon="12.0351166"><ele>263.0</ele><time>2026-05-01T07:24:27.464Z</time></trkpt><trkpt lat="43.187405" lon="12.0352207"><ele>263.0</ele><time>2026-05-01T07:24:28.464Z</time></trkpt><trkpt lat="43.1873318" lon="12.0353116"><ele>263.0</ele><time>2026-05-01T07:24:29.464Z</time></trkpt><trkpt lat="43.187271" lon="12.035385"><ele>263.0</ele><time>2026-05-01T07:24:30.463Z</time></trkpt><trkpt lat="43.1872184" lon="12.0354507"><ele>263.0</ele><time>2026-05-01T07:24:31.464Z</time></trkpt><trkpt lat="43.1871646" lon="12.0355623"><ele>263.0</ele><time>2026-05-01T07:24:33.464Z</time></trkpt><trkpt lat="43.1871469" lon="12.035674"><ele>263.0</ele><time>2026-05-01T07:24:35.464Z</time></trkpt><trkpt lat="43.187157" lon="12.0357735"><ele>263.0</ele><time>2026-05-01T07:24:36.463Z</time></trkpt><trkpt lat="43.1871748" lon="12.0359049"><ele>263.0</ele><time>2026-05-01T07:24:37.464Z</time></trkpt><trkpt lat="43.1872063" lon="12.0360523"><ele>263.0</ele><time>2026-05-01T07:24:38.464Z</time></trkpt><trkpt lat="43.1872357" lon="12.0362079"><ele>263.0</ele><time>2026-05-01T07:24:39.464Z</time></trkpt><trkpt lat="43.1872735" lon="12.036373"><ele>263.0</ele><time>2026-05-01T07:24:40.464Z</time></trkpt><trkpt lat="43.1873054" lon="12.0365447"><ele>263.0</ele><time>2026-05-01T07:24:41.464Z</time></trkpt><trkpt lat="43.1873349" lon="12.0367303"><ele>264.6666666666667</ele><time>2026-05-01T07:24:42.463Z</time></trkpt><trkpt lat="43.1873672" lon="12.0369304"><ele>266.3333333333333</ele><time>2026-05-01T07:24:43.463Z</time></trkpt><trkpt lat="43.1874006" lon="12.0371383"><ele>268.0</ele><time>2026-05-01T07:24:44.464Z</time></trkpt><trkpt lat="43.1874311" lon="12.037335"><ele>269.5</ele><time>2026-05-01T07:24:45.463Z</time></trkpt><trkpt lat="43.1874681" lon="12.037523"><ele>271.0</ele><time>2026-05-01T07:24:46.464Z</time></trkpt><trkpt lat="43.1875065" lon="12.0377132"><ele>272.5</ele><time>2026-05-01T07:24:47.464Z</time></trkpt><trkpt lat="43.1875587" lon="12.0378955"><ele>274.0</ele><time>2026-05-01T07:24:48.463Z</time></trkpt><trkpt lat="43.187659" lon="12.0380627"><ele>274.0</ele><time>2026-05-01T07:24:49.463Z</time></trkpt><trkpt lat="43.1877797" lon="12.0382131"><ele>274.0</ele><time>2026-05-01T07:24:50.464Z</time></trkpt><trkpt lat="43.1879003" lon="12.0383686"><ele>274.0</ele><time>2026-05-01T07:24:51.464Z</time></trkpt><trkpt lat="43.1880246" lon="12.0385211"><ele>274.3333333333333</ele><time>2026-05-01T07:24:52.464Z</time></trkpt><trkpt lat="43.1881514" lon="12.0386777"><ele>274.6666666666667</ele><time>2026-05-01T07:24:53.464Z</time></trkpt><trkpt lat="43.1882893" lon="12.0388224"><ele>275.0</ele><time>2026-05-01T07:24:54.464Z</time></trkpt><trkpt lat="43.188435" lon="12.0389476"><ele>277.0</ele><time>2026-05-01T07:24:55.464Z</time></trkpt><trkpt lat="43.1885958" lon="12.039059"><ele>279.0</ele><time>2026-05-01T07:24:56.463Z</time></trkpt><trkpt lat="43.1887776" lon="12.0391496"><ele>281.0</ele><time>2026-05-01T07:24:57.463Z</time></trkpt><trkpt lat="43.1889715" lon="12.0392037"><ele>285.0</ele><time>2026-05-01T07:24:58.464Z</time></trkpt><trkpt lat="43.1891513" lon="12.0392533"><ele>289.0</ele><time>2026-05-01T07:24:59.464Z</time></trkpt><trkpt lat="43.1893217" lon="12.0392974"><ele>293.0</ele><time>2026-05-01T07:25:00.464Z</time></trkpt><trkpt lat="43.1894686" lon="12.0393315"><ele>293.0</ele><time>2026-05-01T07:25:01.464Z</time></trkpt><trkpt lat="43.189594" lon="12.0393826"><ele>293.0</ele><time>2026-05-01T07:25:02.464Z</time></trkpt><trkpt lat="43.1897056" lon="12.0394131"><ele>293.0</ele><time>2026-05-01T07:25:03.464Z</time></trkpt><trkpt lat="43.189793" lon="12.0394386"><ele>293.0</ele><time>2026-05-01T07:25:04.464Z</time></trkpt><trkpt lat="43.1898483" lon="12.0394943"><ele>293.0</ele><time>2026-05-01T07:25:05.463Z</time></trkpt><trkpt lat="43.1898542" lon="12.039593"><ele>293.0</ele><time>2026-05-01T07:25:06.464Z</time></trkpt><trkpt lat="43.1898058" lon="12.0396759"><ele>293.0</ele><time>2026-05-01T07:25:07.464Z</time></trkpt><trkpt lat="43.1897274" lon="12.0397189"><ele>293.0</ele><time>2026-05-01T07:25:08.464Z</time></trkpt><trkpt lat="43.1896551" lon="12.0397797"><ele>293.0</ele><time>2026-05-01T07:25:09.464Z</time></trkpt><trkpt lat="43.189615" lon="12.0398826"><ele>293.0</ele><time>2026-05-01T07:25:10.464Z</time></trkpt><trkpt lat="43.1896176" lon="12.0400056"><ele>293.0</ele><time>2026-05-01T07:25:11.464Z</time></trkpt><trkpt lat="43.1896563" lon="12.0401106"><ele>294.0</ele><time>2026-05-01T07:25:12.464Z</time></trkpt><trkpt lat="43.1897004" lon="12.0402174"><ele>295.0</ele><time>2026-05-01T07:25:13.464Z</time></trkpt><trkpt lat="43.1897395" lon="12.0403403"><ele>296.0</ele><time>2026-05-01T07:25:14.464Z</time></trkpt><trkpt lat="43.189789" lon="12.0404985"><ele>297.0</ele><time>2026-05-01T07:25:15.464Z</time></trkpt><trkpt lat="43.1898507" lon="12.040681"><ele>300.3333333333333</ele><time>2026-05-01T07:25:16.463Z</time></trkpt><trkpt lat="43.1899156" lon="12.0408603"><ele>303.66666666666663</ele><time>2026-05-01T07:25:17.464Z</time></trkpt><trkpt lat="43.1899857" lon="12.0410554"><ele>307.0</ele><time>2026-05-01T07:25:18.464Z</time></trkpt><trkpt lat="43.1900529" lon="12.0412514"><ele>307.0</ele><time>2026-05-01T07:25:19.464Z</time></trkpt><trkpt lat="43.1901173" lon="12.0414531"><ele>307.0</ele><time>2026-05-01T07:25:20.463Z</time></trkpt><trkpt lat="43.1901804" lon="12.0416576"><ele>307.0</ele><time>2026-05-01T07:25:21.464Z</time></trkpt><trkpt lat="43.1902508" lon="12.0418723"><ele>305.66666666666663</ele><time>2026-05-01T07:25:22.464Z</time></trkpt><trkpt lat="43.1903237" lon="12.0420952"><ele>304.3333333333333</ele><time>2026-05-01T07:25:23.464Z</time></trkpt><trkpt lat="43.1904057" lon="12.0423191"><ele>303.0</ele><time>2026-05-01T07:25:24.464Z</time></trkpt><trkpt lat="43.1904862" lon="12.0425419"><ele>300.6666666666667</ele><time>2026-05-01T07:25:25.464Z</time></trkpt><trkpt lat="43.1905642" lon="12.0427691"><ele>298.33333333333337</ele><time>2026-05-01T07:25:26.464Z</time></trkpt><trkpt lat="43.1906357" lon="12.0429914"><ele>296.0</ele><time>2026-05-01T07:25:27.463Z</time></trkpt><trkpt lat="43.1907069" lon="12.0432143"><ele>298.0</ele><time>2026-05-01T07:25:28.464Z</time></trkpt><trkpt lat="43.1907884" lon="12.0434103"><ele>300.0</ele><time>2026-05-01T07:25:29.464Z</time></trkpt><trkpt lat="43.1908729" lon="12.0435782"><ele>302.0</ele><time>2026-05-01T07:25:30.464Z</time></trkpt><trkpt lat="43.1909507" lon="12.0437273"><ele>304.0</ele><time>2026-05-01T07:25:31.464Z</time></trkpt><trkpt lat="43.1909983" lon="12.0438932"><ele>304.0</ele><time>2026-05-01T07:25:32.464Z</time></trkpt><trkpt lat="43.1909973" lon="12.0440757"><ele>304.0</ele><time>2026-05-01T07:25:33.464Z</time></trkpt><trkpt lat="43.1909578" lon="12.0442992"><ele>304.0</ele><time>2026-05-01T07:25:34.464Z</time></trkpt><trkpt lat="43.1909232" lon="12.0445296"><ele>302.66666666666663</ele><time>2026-05-01T07:25:35.463Z</time></trkpt><trkpt lat="43.1908983" lon="12.0447713"><ele>301.3333333333333</ele><time>2026-05-01T07:25:36.463Z</time></trkpt><trkpt lat="43.1908759" lon="12.0450015"><ele>300.0</ele><time>2026-05-01T07:25:37.464Z</time></trkpt><trkpt lat="43.190848" lon="12.0452274"><ele>300.0</ele><time>2026-05-01T07:25:38.464Z</time></trkpt><trkpt lat="43.1908278" lon="12.0454504"><ele>300.0</ele><time>2026-05-01T07:25:39.464Z</time></trkpt><trkpt lat="43.190831" lon="12.0456789"><ele>300.0</ele><time>2026-05-01T07:25:40.464Z</time></trkpt><trkpt lat="43.1908777" lon="12.0459172"><ele>299.3333333333333</ele><time>2026-05-01T07:25:41.463Z</time></trkpt><trkpt lat="43.190975" lon="12.046162"><ele>298.66666666666663</ele><time>2026-05-01T07:25:42.464Z</time></trkpt><trkpt lat="43.1910739" lon="12.0464032"><ele>298.0</ele><time>2026-05-01T07:25:43.464Z</time></trkpt><trkpt lat="43.1911722" lon="12.0466508"><ele>295.3333333333333</ele><time>2026-05-01T07:25:44.464Z</time></trkpt><trkpt lat="43.1912591" lon="12.046896"><ele>292.6666666666667</ele><time>2026-05-01T07:25:45.463Z</time></trkpt><trkpt lat="43.1913559" lon="12.0471374"><ele>290.0</ele><time>2026-05-01T07:25:46.464Z</time></trkpt><trkpt lat="43.1914389" lon="12.0473798"><ele>289.33333333333337</ele><time>2026-05-01T07:25:47.464Z</time></trkpt><trkpt lat="43.1915016" lon="12.0476178"><ele>288.6666666666667</ele><time>2026-05-01T07:25:48.463Z</time></trkpt><trkpt lat="43.191531" lon="12.0478566"><ele>288.0</ele><time>2026-05-01T07:25:49.464Z</time></trkpt><trkpt lat="43.1915572" lon="12.0480713"><ele>291.2</ele><time>2026-05-01T07:25:50.464Z</time></trkpt><trkpt lat="43.1915862" lon="12.0482629"><ele>294.4</ele><time>2026-05-01T07:25:51.464Z</time></trkpt><trkpt lat="43.1916287" lon="12.0483975"><ele>297.59999999999997</ele><time>2026-05-01T07:25:52.464Z</time></trkpt><trkpt lat="43.1916573" lon="12.0485144"><ele>300.8</ele><time>2026-05-01T07:25:53.463Z</time></trkpt><trkpt lat="43.1916772" lon="12.0486225"><ele>304.0</ele><time>2026-05-01T07:25:54.464Z</time></trkpt><trkpt lat="43.1917264" lon="12.0487739"><ele>304.0</ele><time>2026-05-01T07:25:56.464Z</time></trkpt><trkpt lat="43.1917655" lon="12.0488627"><ele>304.0</ele><time>2026-05-01T07:25:58.463Z</time></trkpt><trkpt lat="43.1918053" lon="12.04894"><ele>304.0</ele><time>2026-05-01T07:26:48.463Z</time></trkpt><trkpt lat="43.1918452" lon="12.0490536"><ele>304.0</ele><time>2026-05-01T07:26:50.464Z</time></trkpt><trkpt lat="43.1918754" lon="12.0491343"><ele>304.0</ele><time>2026-05-01T07:26:51.464Z</time></trkpt><trkpt lat="43.1919203" lon="12.049218"><ele>304.0</ele><time>2026-05-01T07:26:52.464Z</time></trkpt><trkpt lat="43.1919724" lon="12.0492998"><ele>303.8</ele><time>2026-05-01T07:26:53.463Z</time></trkpt><trkpt lat="43.1920321" lon="12.0493865"><ele>303.59999999999997</ele><time>2026-05-01T07:26:54.464Z</time></trkpt><trkpt lat="43.1920941" lon="12.0494637"><ele>303.4</ele><time>2026-05-01T07:26:55.464Z</time></trkpt><trkpt lat="43.1921716" lon="12.0495392"><ele>303.2</ele><time>2026-05-01T07:26:56.464Z</time></trkpt><trkpt lat="43.1922506" lon="12.0496253"><ele>303.0</ele><time>2026-05-01T07:26:57.464Z</time></trkpt><trkpt lat="43.1923278" lon="12.0497134"><ele>303.8</ele><time>2026-05-01T07:26:58.464Z</time></trkpt><trkpt lat="43.192411" lon="12.0497945"><ele>304.6</ele><time>2026-05-01T07:26:59.464Z</time></trkpt><trkpt lat="43.1924948" lon="12.0498746"><ele>305.4</ele><time>2026-05-01T07:27:00.464Z</time></trkpt><trkpt lat="43.1925771" lon="12.0499503"><ele>306.2</ele><time>2026-05-01T07:27:01.463Z</time></trkpt><trkpt lat="43.1926632" lon="12.050025"><ele>307.0</ele><time>2026-05-01T07:27:02.464Z</time></trkpt><trkpt lat="43.1927403" lon="12.0501067"><ele>304.8</ele><time>2026-05-01T07:27:03.464Z</time></trkpt><trkpt lat="43.1928173" lon="12.0501935"><ele>302.6</ele><time>2026-05-01T07:27:04.463Z</time></trkpt><trkpt lat="43.1928969" lon="12.0502714"><ele>300.40000000000003</ele><time>2026-05-01T07:27:05.464Z</time></trkpt><trkpt lat="43.1929774" lon="12.0503465"><ele>298.2</ele><time>2026-05-01T07:27:06.463Z</time></trkpt><trkpt lat="43.193056" lon="12.050421"><ele>296.0</ele><time>2026-05-01T07:27:07.464Z</time></trkpt><trkpt lat="43.1931328" lon="12.0504979"><ele>295.2</ele><time>2026-05-01T07:27:08.464Z</time></trkpt><trkpt lat="43.1932127" lon="12.0505725"><ele>294.40000000000003</ele><time>2026-05-01T07:27:09.464Z</time></trkpt><trkpt lat="43.1932884" lon="12.0506566"><ele>293.6</ele><time>2026-05-01T07:27:10.463Z</time></trkpt><trkpt lat="43.1933702" lon="12.0507335"><ele>292.8</ele><time>2026-05-01T07:27:11.464Z</time></trkpt><trkpt lat="43.1934492" lon="12.0507966"><ele>292.0</ele><time>2026-05-01T07:27:12.464Z</time></trkpt><trkpt lat="43.1935372" lon="12.0508542"><ele>292.0</ele><time>2026-05-01T07:27:13.463Z</time></trkpt><trkpt lat="43.1936226" lon="12.0509104"><ele>292.0</ele><time>2026-05-01T07:27:14.463Z</time></trkpt><trkpt lat="43.1937083" lon="12.0509675"><ele>292.0</ele><time>2026-05-01T07:27:15.464Z</time></trkpt><trkpt lat="43.1937965" lon="12.0510286"><ele>292.0</ele><time>2026-05-01T07:27:16.464Z</time></trkpt><trkpt lat="43.1938812" lon="12.0510955"><ele>292.0</ele><time>2026-05-01T07:27:17.463Z</time></trkpt><trkpt lat="43.1939657" lon="12.051154"><ele>292.5</ele><time>2026-05-01T07:27:18.463Z</time></trkpt><trkpt lat="43.1940475" lon="12.0512203"><ele>293.0</ele><time>2026-05-01T07:27:19.463Z</time></trkpt><trkpt lat="43.194116" lon="12.0512938"><ele>293.5</ele><time>2026-05-01T07:27:20.464Z</time></trkpt><trkpt lat="43.1941931" lon="12.0513651"><ele>294.0</ele><time>2026-05-01T07:27:21.464Z</time></trkpt><trkpt lat="43.1942659" lon="12.0514275"><ele>294.5</ele><time>2026-05-01T07:27:22.463Z</time></trkpt><trkpt lat="43.1943368" lon="12.0514759"><ele>295.0</ele><time>2026-05-01T07:27:23.464Z</time></trkpt><trkpt lat="43.194407" lon="12.0515151"><ele>295.0</ele><time>2026-05-01T07:27:24.464Z</time></trkpt><trkpt lat="43.1944784" lon="12.0515503"><ele>295.0</ele><time>2026-05-01T07:27:25.464Z</time></trkpt><trkpt lat="43.1945443" lon="12.0515901"><ele>295.0</ele><time>2026-05-01T07:27:26.464Z</time></trkpt><trkpt lat="43.1946101" lon="12.0516181"><ele>295.0</ele><time>2026-05-01T07:27:27.464Z</time></trkpt><trkpt lat="43.1947201" lon="12.0516905"><ele>295.0</ele><time>2026-05-01T07:27:29.463Z</time></trkpt><trkpt lat="43.1948239" lon="12.0517802"><ele>293.8333333333333</ele><time>2026-05-01T07:27:31.464Z</time></trkpt><trkpt lat="43.1948808" lon="12.0518228"><ele>292.66666666666663</ele><time>2026-05-01T07:27:32.463Z</time></trkpt><trkpt lat="43.1949907" lon="12.0518818"><ele>291.5</ele><time>2026-05-01T07:27:34.464Z</time></trkpt><trkpt lat="43.1951036" lon="12.0519455"><ele>290.3333333333333</ele><time>2026-05-01T07:27:36.464Z</time></trkpt><trkpt lat="43.195162" lon="12.0519838"><ele>289.1666666666667</ele><time>2026-05-01T07:27:37.464Z</time></trkpt><trkpt lat="43.1952212" lon="12.0520225"><ele>288.0</ele><time>2026-05-01T07:27:38.464Z</time></trkpt><trkpt lat="43.1953404" lon="12.052087"><ele>288.0</ele><time>2026-05-01T07:27:40.464Z</time></trkpt><trkpt lat="43.1953992" lon="12.0521204"><ele>288.0</ele><time>2026-05-01T07:27:41.464Z</time></trkpt><trkpt lat="43.1955094" lon="12.0521964"><ele>288.0</ele><time>2026-05-01T07:27:43.464Z</time></trkpt><trkpt lat="43.1955692" lon="12.052235"><ele>288.0</ele><time>2026-05-01T07:27:44.463Z</time></trkpt><trkpt lat="43.195629" lon="12.052272"><ele>288.0</ele><time>2026-05-01T07:27:45.463Z</time></trkpt><trkpt lat="43.1956891" lon="12.0523046"><ele>288.0</ele><time>2026-05-01T07:27:46.464Z</time></trkpt><trkpt lat="43.195802" lon="12.0523806"><ele>286.2</ele><time>2026-05-01T07:27:48.463Z</time></trkpt><trkpt lat="43.1958844" lon="12.0524654"><ele>284.4</ele><time>2026-05-01T07:27:50.464Z</time></trkpt><trkpt lat="43.1959335" lon="12.0525387"><ele>282.59999999999997</ele><time>2026-05-01T07:27:52.464Z</time></trkpt><trkpt lat="43.1958722" lon="12.052643"><ele>280.8</ele><time>2026-05-01T07:27:55.464Z</time></trkpt><trkpt lat="43.1957761" lon="12.0526918"><ele>279.0</ele><time>2026-05-01T07:27:57.464Z</time></trkpt><trkpt lat="43.1956778" lon="12.0527508"><ele>278.59999999999997</ele><time>2026-05-01T07:27:59.464Z</time></trkpt><trkpt lat="43.1955847" lon="12.0528003"><ele>278.2</ele><time>2026-05-01T07:28:01.464Z</time></trkpt><trkpt lat="43.1955113" lon="12.0528901"><ele>277.79999999999995</ele><time>2026-05-01T07:28:03.464Z</time></trkpt><trkpt lat="43.1954504" lon="12.0529919"><ele>277.4</ele><time>2026-05-01T07:28:05.464Z</time></trkpt><trkpt lat="43.1953715" lon="12.0530778"><ele>277.0</ele><time>2026-05-01T07:28:07.464Z</time></trkpt><trkpt lat="43.1952993" lon="12.0531434"><ele>277.0</ele><time>2026-05-01T07:28:09.463Z</time></trkpt><trkpt lat="43.1952432" lon="12.0532121"><ele>277.0</ele><time>2026-05-01T07:28:11.464Z</time></trkpt><trkpt lat="43.1951817" lon="12.0532908"><ele>277.0</ele><time>2026-05-01T07:28:13.464Z</time></trkpt><trkpt lat="43.1951442" lon="12.0533922"><ele>277.0</ele><time>2026-05-01T07:28:15.463Z</time></trkpt><trkpt lat="43.1950764" lon="12.0534229"><ele>277.0</ele><time>2026-05-01T07:28:18.464Z</time></trkpt><trkpt lat="43.1950142" lon="12.0534777"><ele>277.0</ele><time>2026-05-01T07:28:20.464Z</time></trkpt><trkpt lat="43.1949991" lon="12.0535672"><ele>275.4</ele><time>2026-05-01T07:28:22.463Z</time></trkpt><trkpt lat="43.1950724" lon="12.053686"><ele>273.79999999999995</ele><time>2026-05-01T07:28:24.464Z</time></trkpt><trkpt lat="43.195129" lon="12.053833"><ele>272.2</ele><time>2026-05-01T07:28:26.464Z</time></trkpt><trkpt lat="43.1951988" lon="12.0539867"><ele>270.59999999999997</ele><time>2026-05-01T07:28:28.464Z</time></trkpt><trkpt lat="43.1952285" lon="12.0540651"><ele>269.0</ele><time>2026-05-01T07:28:29.463Z</time></trkpt><trkpt lat="43.1952626" lon="12.0541407"><ele>268.0</ele><time>2026-05-01T07:28:30.464Z</time></trkpt><trkpt lat="43.1952937" lon="12.0542273"><ele>267.0</ele><time>2026-05-01T07:28:31.464Z</time></trkpt><trkpt lat="43.1953285" lon="12.0543221"><ele>266.0</ele><time>2026-05-01T07:28:32.464Z</time></trkpt><trkpt lat="43.1953637" lon="12.0544296"><ele>265.0</ele><time>2026-05-01T07:28:33.464Z</time></trkpt><trkpt lat="43.1953975" lon="12.0545251"><ele>264.0</ele><time>2026-05-01T07:28:34.464Z</time></trkpt><trkpt lat="43.1954252" lon="12.0546086"><ele>263.0</ele><time>2026-05-01T07:28:35.464Z</time></trkpt><trkpt lat="43.1954769" lon="12.0547708"><ele>263.0</ele><time>2026-05-01T07:28:37.464Z</time></trkpt><trkpt lat="43.1955152" lon="12.0548569"><ele>263.0</ele><time>2026-05-01T07:28:38.464Z</time></trkpt><trkpt lat="43.1955553" lon="12.054961"><ele>263.0</ele><time>2026-05-01T07:28:39.464Z</time></trkpt><trkpt lat="43.1955961" lon="12.0550644"><ele>263.0</ele><time>2026-05-01T07:28:40.464Z</time></trkpt><trkpt lat="43.1956218" lon="12.0551753"><ele>263.0</ele><time>2026-05-01T07:28:41.464Z</time></trkpt><trkpt lat="43.1956526" lon="12.0552753"><ele>263.0</ele><time>2026-05-01T07:28:42.463Z</time></trkpt><trkpt lat="43.1956797" lon="12.0553812"><ele>263.0</ele><time>2026-05-01T07:28:43.464Z</time></trkpt><trkpt lat="43.1957004" lon="12.0554754"><ele>263.0</ele><time>2026-05-01T07:28:44.463Z</time></trkpt><trkpt lat="43.1957152" lon="12.0555804"><ele>263.0</ele><time>2026-05-01T07:28:45.464Z</time></trkpt><trkpt lat="43.1957238" lon="12.0557163"><ele>263.0</ele><time>2026-05-01T07:28:46.464Z</time></trkpt><trkpt lat="43.1957462" lon="12.0558489"><ele>263.0</ele><time>2026-05-01T07:28:47.464Z</time></trkpt><trkpt lat="43.1957709" lon="12.0559883"><ele>263.0</ele><time>2026-05-01T07:28:48.464Z</time></trkpt><trkpt lat="43.1957954" lon="12.0561111"><ele>263.0</ele><time>2026-05-01T07:28:49.464Z</time></trkpt><trkpt lat="43.195808" lon="12.0562362"><ele>263.0</ele><time>2026-05-01T07:28:50.463Z</time></trkpt><trkpt lat="43.1958185" lon="12.0563574"><ele>263.0</ele><time>2026-05-01T07:28:51.464Z</time></trkpt><trkpt lat="43.1958264" lon="12.056483"><ele>263.0</ele><time>2026-05-01T07:28:52.464Z</time></trkpt><trkpt lat="43.1958345" lon="12.0566069"><ele>262.8</ele><time>2026-05-01T07:28:53.464Z</time></trkpt><trkpt lat="43.195836" lon="12.056732"><ele>262.6</ele><time>2026-05-01T07:28:54.464Z</time></trkpt><trkpt lat="43.1958383" lon="12.0568692"><ele>262.4</ele><time>2026-05-01T07:28:55.464Z</time></trkpt><trkpt lat="43.1958334" lon="12.0570074"><ele>262.2</ele><time>2026-05-01T07:28:56.464Z</time></trkpt><trkpt lat="43.1958402" lon="12.0571307"><ele>262.0</ele><time>2026-05-01T07:28:57.464Z</time></trkpt><trkpt lat="43.1958363" lon="12.057245"><ele>262.0</ele><time>2026-05-01T07:28:58.464Z</time></trkpt><trkpt lat="43.1958314" lon="12.0573675"><ele>262.0</ele><time>2026-05-01T07:28:59.463Z</time></trkpt><trkpt lat="43.1958154" lon="12.0575001"><ele>262.0</ele><time>2026-05-01T07:29:00.464Z</time></trkpt><trkpt lat="43.1958043" lon="12.0576346"><ele>262.0</ele><time>2026-05-01T07:29:01.464Z</time></trkpt><trkpt lat="43.1957904" lon="12.05777"><ele>262.0</ele><time>2026-05-01T07:29:02.463Z</time></trkpt><trkpt lat="43.1957717" lon="12.0579142"><ele>262.25</ele><time>2026-05-01T07:29:03.464Z</time></trkpt><trkpt lat="43.1957487" lon="12.058067"><ele>262.5</ele><time>2026-05-01T07:29:04.463Z</time></trkpt><trkpt lat="43.1957275" lon="12.0582351"><ele>262.75</ele><time>2026-05-01T07:29:05.464Z</time></trkpt><trkpt lat="43.1957123" lon="12.0583985"><ele>263.0</ele><time>2026-05-01T07:29:06.463Z</time></trkpt><trkpt lat="43.1956857" lon="12.0585567"><ele>262.4</ele><time>2026-05-01T07:29:07.463Z</time></trkpt><trkpt lat="43.1956603" lon="12.0587194"><ele>261.8</ele><time>2026-05-01T07:29:08.464Z</time></trkpt><trkpt lat="43.195643" lon="12.0588697"><ele>261.2</ele><time>2026-05-01T07:29:09.464Z</time></trkpt><trkpt lat="43.1956276" lon="12.0590107"><ele>260.6</ele><time>2026-05-01T07:29:10.464Z</time></trkpt><trkpt lat="43.1956134" lon="12.059163"><ele>260.0</ele><time>2026-05-01T07:29:11.463Z</time></trkpt><trkpt lat="43.1955943" lon="12.0593094"><ele>260.0</ele><time>2026-05-01T07:29:12.464Z</time></trkpt><trkpt lat="43.1955789" lon="12.0594575"><ele>260.0</ele><time>2026-05-01T07:29:13.463Z</time></trkpt><trkpt lat="43.1955682" lon="12.0596072"><ele>260.0</ele><time>2026-05-01T07:29:14.464Z</time></trkpt><trkpt lat="43.1955587" lon="12.0597484"><ele>260.0</ele><time>2026-05-01T07:29:15.464Z</time></trkpt><trkpt lat="43.1955494" lon="12.05988"><ele>260.0</ele><time>2026-05-01T07:29:16.463Z</time></trkpt><trkpt lat="43.1955342" lon="12.060008"><ele>260.00000000000006</ele><time>2026-05-01T07:29:17.464Z</time></trkpt><trkpt lat="43.1955194" lon="12.0601275"><ele>260.0</ele><time>2026-05-01T07:29:18.464Z</time></trkpt><trkpt lat="43.1955036" lon="12.06023"><ele>260.0</ele><time>2026-05-01T07:29:19.464Z</time></trkpt><trkpt lat="43.1954881" lon="12.0603248"><ele>260.0</ele><time>2026-05-01T07:29:20.464Z</time></trkpt><trkpt lat="43.195477" lon="12.0604239"><ele>260.0</ele><time>2026-05-01T07:29:21.464Z</time></trkpt><trkpt lat="43.1954708" lon="12.0605197"><ele>260.00000000000006</ele><time>2026-05-01T07:29:22.464Z</time></trkpt><trkpt lat="43.1954664" lon="12.0606138"><ele>260.0</ele><time>2026-05-01T07:29:23.463Z</time></trkpt><trkpt lat="43.1954615" lon="12.0607064"><ele>260.1666666666667</ele><time>2026-05-01T07:29:24.464Z</time></trkpt><trkpt lat="43.1954588" lon="12.0607947"><ele>260.33333333333337</ele><time>2026-05-01T07:29:25.464Z</time></trkpt><trkpt lat="43.1954301" lon="12.0609674"><ele>260.5</ele><time>2026-05-01T07:29:27.464Z</time></trkpt><trkpt lat="43.1954146" lon="12.0610713"><ele>260.6666666666667</ele><time>2026-05-01T07:29:28.464Z</time></trkpt><trkpt lat="43.1953967" lon="12.061176"><ele>260.8333333333333</ele><time>2026-05-01T07:29:29.464Z</time></trkpt><trkpt lat="43.1953858" lon="12.06128"><ele>261.0</ele><time>2026-05-01T07:29:30.463Z</time></trkpt><trkpt lat="43.1953693" lon="12.061386"><ele>261.0</ele><time>2026-05-01T07:29:31.464Z</time></trkpt><trkpt lat="43.1953551" lon="12.0614975"><ele>261.0</ele><time>2026-05-01T07:29:32.464Z</time></trkpt><trkpt lat="43.1953405" lon="12.0616034"><ele>261.0</ele><time>2026-05-01T07:29:33.464Z</time></trkpt><trkpt lat="43.1953298" lon="12.0617079"><ele>261.0</ele><time>2026-05-01T07:29:34.463Z</time></trkpt><trkpt lat="43.1953212" lon="12.0618054"><ele>261.0</ele><time>2026-05-01T07:29:35.464Z</time></trkpt><trkpt lat="43.195313" lon="12.0619031"><ele>261.0</ele><time>2026-05-01T07:29:36.463Z</time></trkpt><trkpt lat="43.1953014" lon="12.0620011"><ele>260.8333333333333</ele><time>2026-05-01T07:29:37.464Z</time></trkpt><trkpt lat="43.1952865" lon="12.062107"><ele>260.6666666666667</ele><time>2026-05-01T07:29:38.464Z</time></trkpt><trkpt lat="43.1952747" lon="12.062213"><ele>260.5</ele><time>2026-05-01T07:29:39.464Z</time></trkpt><trkpt lat="43.1952588" lon="12.0623186"><ele>260.33333333333337</ele><time>2026-05-01T07:29:40.464Z</time></trkpt><trkpt lat="43.1952414" lon="12.0624271"><ele>260.1666666666667</ele><time>2026-05-01T07:29:41.463Z</time></trkpt><trkpt lat="43.1952282" lon="12.0625364"><ele>260.0</ele><time>2026-05-01T07:29:42.463Z</time></trkpt><trkpt lat="43.1952156" lon="12.0626412"><ele>259.6666666666667</ele><time>2026-05-01T07:29:43.464Z</time></trkpt><trkpt lat="43.1952047" lon="12.062746"><ele>259.33333333333337</ele><time>2026-05-01T07:29:44.464Z</time></trkpt><trkpt lat="43.1951963" lon="12.0628549"><ele>259.0</ele><time>2026-05-01T07:29:45.464Z</time></trkpt><trkpt lat="43.1951907" lon="12.0629572"><ele>258.6666666666667</ele><time>2026-05-01T07:29:46.464Z</time></trkpt><trkpt lat="43.195185" lon="12.0630599"><ele>258.3333333333333</ele><time>2026-05-01T07:29:47.464Z</time></trkpt><trkpt lat="43.1951695" lon="12.063157"><ele>258.0</ele><time>2026-05-01T07:29:48.464Z</time></trkpt><trkpt lat="43.1951499" lon="12.063263"><ele>258.1666666666667</ele><time>2026-05-01T07:29:49.464Z</time></trkpt><trkpt lat="43.195139" lon="12.0633692"><ele>258.3333333333333</ele><time>2026-05-01T07:29:50.463Z</time></trkpt><trkpt lat="43.1951288" lon="12.0634712"><ele>258.5</ele><time>2026-05-01T07:29:51.464Z</time></trkpt><trkpt lat="43.1951202" lon="12.0635708"><ele>258.66666666666663</ele><time>2026-05-01T07:29:52.464Z</time></trkpt><trkpt lat="43.1951133" lon="12.0636775"><ele>258.8333333333333</ele><time>2026-05-01T07:29:53.463Z</time></trkpt><trkpt lat="43.1951069" lon="12.0637846"><ele>259.0</ele><time>2026-05-01T07:29:54.463Z</time></trkpt><trkpt lat="43.1951015" lon="12.063882"><ele>259.0</ele><time>2026-05-01T07:29:55.464Z</time></trkpt><trkpt lat="43.1950943" lon="12.0639722"><ele>259.0</ele><time>2026-05-01T07:29:56.464Z</time></trkpt><trkpt lat="43.1950895" lon="12.064068"><ele>259.0</ele><time>2026-05-01T07:29:57.464Z</time></trkpt><trkpt lat="43.1950826" lon="12.0641726"><ele>259.0</ele><time>2026-05-01T07:29:58.464Z</time></trkpt><trkpt lat="43.195081" lon="12.0642781"><ele>259.0</ele><time>2026-05-01T07:29:59.464Z</time></trkpt><trkpt lat="43.1950755" lon="12.0643837"><ele>259.0</ele><time>2026-05-01T07:30:00.463Z</time></trkpt><trkpt lat="43.1950738" lon="12.0644891"><ele>259.0</ele><time>2026-05-01T07:30:01.464Z</time></trkpt><trkpt lat="43.1950687" lon="12.0645937"><ele>259.0</ele><time>2026-05-01T07:30:02.464Z</time></trkpt><trkpt lat="43.1950701" lon="12.0646943"><ele>259.0</ele><time>2026-05-01T07:30:03.463Z</time></trkpt><trkpt lat="43.1950627" lon="12.0647896"><ele>259.0</ele><time>2026-05-01T07:30:04.464Z</time></trkpt><trkpt lat="43.1950589" lon="12.0648859"><ele>259.0</ele><time>2026-05-01T07:30:05.464Z</time></trkpt><trkpt lat="43.1950497" lon="12.0650528"><ele>259.0</ele><time>2026-05-01T07:30:07.464Z</time></trkpt><trkpt lat="43.1950529" lon="12.0652114"><ele>259.0</ele><time>2026-05-01T07:30:09.464Z</time></trkpt><trkpt lat="43.1950592" lon="12.0653371"><ele>259.0</ele><time>2026-05-01T07:30:11.464Z</time></trkpt><trkpt lat="43.195065" lon="12.0654599"><ele>259.0</ele><time>2026-05-01T07:30:13.463Z</time></trkpt><trkpt lat="43.1950745" lon="12.0655731"><ele>259.0</ele><time>2026-05-01T07:30:15.463Z</time></trkpt><trkpt lat="43.1950742" lon="12.0656943"><ele>259.0</ele><time>2026-05-01T07:30:17.464Z</time></trkpt><trkpt lat="43.1950765" lon="12.0658064"><ele>259.0</ele><time>2026-05-01T07:30:19.463Z</time></trkpt><trkpt lat="43.195092" lon="12.0659333"><ele>259.16666666666663</ele><time>2026-05-01T07:30:21.464Z</time></trkpt><trkpt lat="43.1951032" lon="12.0660552"><ele>259.3333333333333</ele><time>2026-05-01T07:30:23.463Z</time></trkpt><trkpt lat="43.1951214" lon="12.0661497"><ele>259.5</ele><time>2026-05-01T07:30:25.463Z</time></trkpt><trkpt lat="43.1951268" lon="12.0662492"><ele>259.6666666666667</ele><time>2026-05-01T07:30:27.463Z</time></trkpt><trkpt lat="43.1951325" lon="12.0663681"><ele>259.83333333333337</ele><time>2026-05-01T07:30:29.463Z</time></trkpt><trkpt lat="43.1951501" lon="12.0664923"><ele>260.0</ele><time>2026-05-01T07:30:31.464Z</time></trkpt><trkpt lat="43.1951716" lon="12.0666456"><ele>260.0</ele><time>2026-05-01T07:30:33.463Z</time></trkpt><trkpt lat="43.1951845" lon="12.0668067"><ele>260.0</ele><time>2026-05-01T07:30:35.464Z</time></trkpt><trkpt lat="43.1951975" lon="12.0669627"><ele>260.0</ele><time>2026-05-01T07:30:37.463Z</time></trkpt><trkpt lat="43.1952315" lon="12.0671175"><ele>260.0</ele><time>2026-05-01T07:30:39.463Z</time></trkpt><trkpt lat="43.1952685" lon="12.067259"><ele>260.0</ele><time>2026-05-01T07:30:41.464Z</time></trkpt><trkpt lat="43.1953035" lon="12.067406"><ele>260.0</ele><time>2026-05-01T07:30:43.464Z</time></trkpt><trkpt lat="43.1953149" lon="12.0674936"><ele>260.0</ele><time>2026-05-01T07:30:44.464Z</time></trkpt><trkpt lat="43.1953425" lon="12.0675811"><ele>260.0</ele><time>2026-05-01T07:30:45.464Z</time></trkpt><trkpt lat="43.195372" lon="12.0676892"><ele>260.0</ele><time>2026-05-01T07:30:46.464Z</time></trkpt><trkpt lat="43.1954083" lon="12.0677963"><ele>260.0</ele><time>2026-05-01T07:30:47.464Z</time></trkpt><trkpt lat="43.1954421" lon="12.067909"><ele>260.0</ele><time>2026-05-01T07:30:48.464Z</time></trkpt><trkpt lat="43.1954759" lon="12.0680224"><ele>260.0</ele><time>2026-05-01T07:30:49.464Z</time></trkpt><trkpt lat="43.1955135" lon="12.0681292"><ele>260.0</ele><time>2026-05-01T07:30:50.464Z</time></trkpt><trkpt lat="43.1955469" lon="12.0682219"><ele>260.0</ele><time>2026-05-01T07:30:51.463Z</time></trkpt><trkpt lat="43.1955687" lon="12.0683099"><ele>260.0</ele><time>2026-05-01T07:30:52.464Z</time></trkpt><trkpt lat="43.195593" lon="12.0683953"><ele>260.0</ele><time>2026-05-01T07:30:53.463Z</time></trkpt><trkpt lat="43.1956035" lon="12.0685394"><ele>260.2</ele><time>2026-05-01T07:30:55.463Z</time></trkpt><trkpt lat="43.1955241" lon="12.068616"><ele>260.4</ele><time>2026-05-01T07:30:58.464Z</time></trkpt><trkpt lat="43.1954278" lon="12.0686559"><ele>260.6</ele><time>2026-05-01T07:31:00.463Z</time></trkpt><trkpt lat="43.1953128" lon="12.0686903"><ele>260.8</ele><time>2026-05-01T07:31:02.464Z</time></trkpt><trkpt lat="43.1952046" lon="12.0687404"><ele>261.0</ele><time>2026-05-01T07:31:04.464Z</time></trkpt><trkpt lat="43.1950748" lon="12.0687869"><ele>261.0</ele><time>2026-05-01T07:31:06.464Z</time></trkpt><trkpt lat="43.1950135" lon="12.0688127"><ele>261.0</ele><time>2026-05-01T07:31:07.464Z</time></trkpt><trkpt lat="43.1949173" lon="12.0688798"><ele>261.0</ele><time>2026-05-01T07:31:09.463Z</time></trkpt><trkpt lat="43.1948616" lon="12.0689677"><ele>261.0</ele><time>2026-05-01T07:31:11.464Z</time></trkpt><trkpt lat="43.1948807" lon="12.0691313"><ele>261.0</ele><time>2026-05-01T07:31:13.464Z</time></trkpt><trkpt lat="43.1949056" lon="12.0692692"><ele>261.1666666666667</ele><time>2026-05-01T07:31:14.463Z</time></trkpt><trkpt lat="43.1949275" lon="12.0693843"><ele>261.3333333333333</ele><time>2026-05-01T07:31:15.464Z</time></trkpt><trkpt lat="43.1949535" lon="12.0694945"><ele>261.5</ele><time>2026-05-01T07:31:16.463Z</time></trkpt><trkpt lat="43.1949749" lon="12.0696143"><ele>261.66666666666663</ele><time>2026-05-01T07:31:17.464Z</time></trkpt><trkpt lat="43.1949991" lon="12.0697185"><ele>261.8333333333333</ele><time>2026-05-01T07:31:18.464Z</time></trkpt><trkpt lat="43.1950178" lon="12.0698272"><ele>262.0</ele><time>2026-05-01T07:31:19.464Z</time></trkpt><trkpt lat="43.1950364" lon="12.0699162"><ele>262.2</ele><time>2026-05-01T07:31:20.463Z</time></trkpt><trkpt lat="43.1950484" lon="12.0700097"><ele>262.4</ele><time>2026-05-01T07:31:21.464Z</time></trkpt><trkpt lat="43.1950768" lon="12.0701593"><ele>262.6</ele><time>2026-05-01T07:31:23.464Z</time></trkpt><trkpt lat="43.1951061" lon="12.0703167"><ele>262.8</ele><time>2026-05-01T07:31:25.463Z</time></trkpt><trkpt lat="43.1951394" lon="12.0704674"><ele>263.0</ele><time>2026-05-01T07:31:27.464Z</time></trkpt><trkpt lat="43.1951524" lon="12.07057"><ele>263.0</ele><time>2026-05-01T07:31:29.464Z</time></trkpt><trkpt lat="43.1951082" lon="12.0706432"><ele>263.0</ele><time>2026-05-01T07:31:31.464Z</time></trkpt><trkpt lat="43.1949831" lon="12.0706843"><ele>263.0</ele><time>2026-05-01T07:31:33.464Z</time></trkpt><trkpt lat="43.1949067" lon="12.0707234"><ele>263.0</ele><time>2026-05-01T07:31:34.464Z</time></trkpt><trkpt lat="43.1948403" lon="12.0707577"><ele>263.0</ele><time>2026-05-01T07:31:35.464Z</time></trkpt><trkpt lat="43.1947513" lon="12.0707965"><ele>263.0</ele><time>2026-05-01T07:31:36.463Z</time></trkpt><trkpt lat="43.1946556" lon="12.0708509"><ele>262.8</ele><time>2026-05-01T07:31:37.463Z</time></trkpt><trkpt lat="43.1945556" lon="12.0709092"><ele>262.6</ele><time>2026-05-01T07:31:38.464Z</time></trkpt><trkpt lat="43.1944506" lon="12.0709673"><ele>262.4</ele><time>2026-05-01T07:31:39.464Z</time></trkpt><trkpt lat="43.194356" lon="12.0710231"><ele>262.2</ele><time>2026-05-01T07:31:40.463Z</time></trkpt><trkpt lat="43.194268" lon="12.0710696"><ele>262.0</ele><time>2026-05-01T07:31:41.464Z</time></trkpt><trkpt lat="43.1941748" lon="12.0711228"><ele>262.0</ele><time>2026-05-01T07:31:42.464Z</time></trkpt><trkpt lat="43.1940882" lon="12.0711761"><ele>262.0</ele><time>2026-05-01T07:31:43.464Z</time></trkpt><trkpt lat="43.1939948" lon="12.0712187"><ele>262.0</ele><time>2026-05-01T07:31:44.464Z</time></trkpt><trkpt lat="43.1938997" lon="12.0712675"><ele>262.0</ele><time>2026-05-01T07:31:45.464Z</time></trkpt><trkpt lat="43.1938069" lon="12.0713138"><ele>262.0</ele><time>2026-05-01T07:31:46.463Z</time></trkpt><trkpt lat="43.1937209" lon="12.0713604"><ele>261.8</ele><time>2026-05-01T07:31:47.464Z</time></trkpt><trkpt lat="43.1936299" lon="12.0714"><ele>261.6</ele><time>2026-05-01T07:31:48.464Z</time></trkpt><trkpt lat="43.1935432" lon="12.0714412"><ele>261.40000000000003</ele><time>2026-05-01T07:31:49.464Z</time></trkpt><trkpt lat="43.1934449" lon="12.0714815"><ele>261.2</ele><time>2026-05-01T07:31:50.464Z</time></trkpt><trkpt lat="43.1933399" lon="12.0715314"><ele>261.0</ele><time>2026-05-01T07:31:51.464Z</time></trkpt><trkpt lat="43.1932391" lon="12.0715769"><ele>261.2</ele><time>2026-05-01T07:31:52.464Z</time></trkpt><trkpt lat="43.1931341" lon="12.0716268"><ele>261.40000000000003</ele><time>2026-05-01T07:31:53.464Z</time></trkpt><trkpt lat="43.1930341" lon="12.0716798"><ele>261.6</ele><time>2026-05-01T07:31:54.464Z</time></trkpt><trkpt lat="43.192938" lon="12.0717319"><ele>261.8</ele><time>2026-05-01T07:31:55.464Z</time></trkpt><trkpt lat="43.1928416" lon="12.0717812"><ele>262.0</ele><time>2026-05-01T07:31:56.463Z</time></trkpt><trkpt lat="43.1927556" lon="12.0718348"><ele>262.0</ele><time>2026-05-01T07:31:57.463Z</time></trkpt><trkpt lat="43.1926651" lon="12.0718732"><ele>262.0</ele><time>2026-05-01T07:31:58.464Z</time></trkpt><trkpt lat="43.1925824" lon="12.0719108"><ele>262.0</ele><time>2026-05-01T07:31:59.463Z</time></trkpt><trkpt lat="43.1924888" lon="12.0719588"><ele>262.0</ele><time>2026-05-01T07:32:00.464Z</time></trkpt><trkpt lat="43.1924" lon="12.0720002"><ele>262.0</ele><time>2026-05-01T07:32:01.463Z</time></trkpt><trkpt lat="43.1923026" lon="12.0720437"><ele>261.8</ele><time>2026-05-01T07:32:02.464Z</time></trkpt><trkpt lat="43.1922002" lon="12.072092"><ele>261.6</ele><time>2026-05-01T07:32:03.464Z</time></trkpt><trkpt lat="43.1920962" lon="12.0721458"><ele>261.40000000000003</ele><time>2026-05-01T07:32:04.464Z</time></trkpt><trkpt lat="43.1919956" lon="12.072194"><ele>261.2</ele><time>2026-05-01T07:32:05.464Z</time></trkpt><trkpt lat="43.1919107" lon="12.0722326"><ele>261.0</ele><time>2026-05-01T07:32:06.463Z</time></trkpt><trkpt lat="43.1918329" lon="12.0722706"><ele>261.0</ele><time>2026-05-01T07:32:07.464Z</time></trkpt><trkpt lat="43.1917577" lon="12.0723039"><ele>261.0</ele><time>2026-05-01T07:32:08.463Z</time></trkpt><trkpt lat="43.1916839" lon="12.0723457"><ele>261.0</ele><time>2026-05-01T07:32:09.464Z</time></trkpt><trkpt lat="43.1916116" lon="12.0723782"><ele>261.0</ele><time>2026-05-01T07:32:10.463Z</time></trkpt><trkpt lat="43.1915389" lon="12.0724219"><ele>261.0</ele><time>2026-05-01T07:32:11.464Z</time></trkpt><trkpt lat="43.1914609" lon="12.0724664"><ele>261.0</ele><time>2026-05-01T07:32:12.464Z</time></trkpt><trkpt lat="43.1913866" lon="12.0725144"><ele>261.3333333333333</ele><time>2026-05-01T07:32:13.463Z</time></trkpt><trkpt lat="43.1913126" lon="12.072577"><ele>261.6666666666667</ele><time>2026-05-01T07:32:14.464Z</time></trkpt><trkpt lat="43.1912423" lon="12.072638"><ele>262.0</ele><time>2026-05-01T07:32:15.463Z</time></trkpt><trkpt lat="43.1911643" lon="12.0727006"><ele>262.33333333333337</ele><time>2026-05-01T07:32:16.464Z</time></trkpt><trkpt lat="43.1910819" lon="12.0727631"><ele>262.6666666666667</ele><time>2026-05-01T07:32:17.464Z</time></trkpt><trkpt lat="43.1909974" lon="12.0728069"><ele>263.0</ele><time>2026-05-01T07:32:18.464Z</time></trkpt><trkpt lat="43.1909076" lon="12.0728413"><ele>263.0</ele><time>2026-05-01T07:32:19.464Z</time></trkpt><trkpt lat="43.190809" lon="12.0728762"><ele>263.0</ele><time>2026-05-01T07:32:20.464Z</time></trkpt><trkpt lat="43.1907194" lon="12.0729057"><ele>263.0</ele><time>2026-05-01T07:32:21.464Z</time></trkpt><trkpt lat="43.1906305" lon="12.0729249"><ele>263.0</ele><time>2026-05-01T07:32:22.464Z</time></trkpt><trkpt lat="43.1905401" lon="12.0729547"><ele>263.0</ele><time>2026-05-01T07:32:23.464Z</time></trkpt><trkpt lat="43.1904642" lon="12.072986"><ele>262.83333333333337</ele><time>2026-05-01T07:32:24.464Z</time></trkpt><trkpt lat="43.1903988" lon="12.07303"><ele>262.6666666666667</ele><time>2026-05-01T07:32:25.463Z</time></trkpt><trkpt lat="43.1903308" lon="12.0730689"><ele>262.5</ele><time>2026-05-01T07:32:26.464Z</time></trkpt><trkpt lat="43.1902401" lon="12.0731394"><ele>262.3333333333333</ele><time>2026-05-01T07:32:28.464Z</time></trkpt><trkpt lat="43.1902136" lon="12.0732391"><ele>262.16666666666663</ele><time>2026-05-01T07:32:30.463Z</time></trkpt><trkpt lat="43.1902694" lon="12.0733067"><ele>262.0</ele><time>2026-05-01T07:32:32.464Z</time></trkpt><trkpt lat="43.1903449" lon="12.0732818"><ele>262.16666666666663</ele><time>2026-05-01T07:32:34.464Z</time></trkpt><trkpt lat="43.1904062" lon="12.0732336"><ele>262.3333333333333</ele><time>2026-05-01T07:32:35.464Z</time></trkpt><trkpt lat="43.1904799" lon="12.0731917"><ele>262.5</ele><time>2026-05-01T07:32:36.464Z</time></trkpt><trkpt lat="43.1905527" lon="12.0731551"><ele>262.6666666666667</ele><time>2026-05-01T07:32:37.46Z</time></trkpt><trkpt lat="43.1906248" lon="12.0731159"><ele>262.83333333333337</ele><time>2026-05-01T07:32:38.464Z</time></trkpt><trkpt lat="43.1907026" lon="12.0730825"><ele>263.0</ele><time>2026-05-01T07:32:39.464Z</time></trkpt><trkpt lat="43.1907869" lon="12.0730465"><ele>263.0</ele><time>2026-05-01T07:32:40.464Z</time></trkpt><trkpt lat="43.1908722" lon="12.0730158"><ele>263.0</ele><time>2026-05-01T07:32:41.464Z</time></trkpt><trkpt lat="43.1909601" lon="12.0729931"><ele>263.0</ele><time>2026-05-01T07:32:42.464Z</time></trkpt><trkpt lat="43.1910475" lon="12.0729417"><ele>263.0</ele><time>2026-05-01T07:32:43.463Z</time></trkpt><trkpt lat="43.1911396" lon="12.0728966"><ele>263.0</ele><time>2026-05-01T07:32:44.464Z</time></trkpt><trkpt lat="43.1912355" lon="12.0728467"><ele>263.0</ele><time>2026-05-01T07:32:45.464Z</time></trkpt><trkpt lat="43.1913263" lon="12.0727824"><ele>263.0</ele><time>2026-05-01T07:32:46.464Z</time></trkpt><trkpt lat="43.1914184" lon="12.072698"><ele>263.0</ele><time>2026-05-01T07:32:47.464Z</time></trkpt><trkpt lat="43.1915231" lon="12.0726125"><ele>263.0</ele><time>2026-05-01T07:32:48.464Z</time></trkpt><trkpt lat="43.1916381" lon="12.0725446"><ele>263.25</ele><time>2026-05-01T07:32:49.464Z</time></trkpt><trkpt lat="43.1917542" lon="12.0724852"><ele>263.5</ele><time>2026-05-01T07:32:50.463Z</time></trkpt><trkpt lat="43.1918647" lon="12.0724305"><ele>263.75</ele><time>2026-05-01T07:32:51.464Z</time></trkpt><trkpt lat="43.191964" lon="12.0723766"><ele>264.0</ele><time>2026-05-01T07:32:52.464Z</time></trkpt><trkpt lat="43.1920688" lon="12.0723226"><ele>263.59999999999997</ele><time>2026-05-01T07:32:53.464Z</time></trkpt><trkpt lat="43.1921721" lon="12.0722784"><ele>263.2</ele><time>2026-05-01T07:32:54.464Z</time></trkpt><trkpt lat="43.1922668" lon="12.0722287"><ele>262.79999999999995</ele><time>2026-05-01T07:32:55.463Z</time></trkpt><trkpt lat="43.1923544" lon="12.0721778"><ele>262.4</ele><time>2026-05-01T07:32:56.463Z</time></trkpt><trkpt lat="43.1924414" lon="12.0721334"><ele>262.0</ele><time>2026-05-01T07:32:57.463Z</time></trkpt><trkpt lat="43.1925233" lon="12.0720868"><ele>262.0</ele><time>2026-05-01T07:32:58.463Z</time></trkpt><trkpt lat="43.1926071" lon="12.0720442"><ele>262.0</ele><time>2026-05-01T07:32:59.464Z</time></trkpt><trkpt lat="43.1926931" lon="12.0720007"><ele>262.0</ele><time>2026-05-01T07:33:00.464Z</time></trkpt><trkpt lat="43.1927872" lon="12.0719723"><ele>262.0</ele><time>2026-05-01T07:33:01.464Z</time></trkpt><trkpt lat="43.1928805" lon="12.0719391"><ele>262.0</ele><time>2026-05-01T07:33:02.464Z</time></trkpt><trkpt lat="43.1929702" lon="12.071893"><ele>262.0</ele><time>2026-05-01T07:33:03.464Z</time></trkpt><trkpt lat="43.1930678" lon="12.071846"><ele>262.0</ele><time>2026-05-01T07:33:04.464Z</time></trkpt><trkpt lat="43.1931736" lon="12.0717972"><ele>262.0</ele><time>2026-05-01T07:33:05.464Z</time></trkpt><trkpt lat="43.193275" lon="12.0717437"><ele>262.0</ele><time>2026-05-01T07:33:06.464Z</time></trkpt><trkpt lat="43.1933816" lon="12.0717026"><ele>262.0</ele><time>2026-05-01T07:33:07.464Z</time></trkpt><trkpt lat="43.193491" lon="12.0716444"><ele>261.8</ele><time>2026-05-01T07:33:08.464Z</time></trkpt><trkpt lat="43.1935933" lon="12.0715973"><ele>261.6</ele><time>2026-05-01T07:33:09.464Z</time></trkpt><trkpt lat="43.1936889" lon="12.0715515"><ele>261.40000000000003</ele><time>2026-05-01T07:33:10.464Z</time></trkpt><trkpt lat="43.1937868" lon="12.0715034"><ele>261.2</ele><time>2026-05-01T07:33:11.463Z</time></trkpt><trkpt lat="43.1938826" lon="12.0714612"><ele>261.0</ele><time>2026-05-01T07:33:12.464Z</time></trkpt><trkpt lat="43.1939752" lon="12.0714094"><ele>261.2</ele><time>2026-05-01T07:33:13.464Z</time></trkpt><trkpt lat="43.1940679" lon="12.0713636"><ele>261.40000000000003</ele><time>2026-05-01T07:33:14.463Z</time></trkpt><trkpt lat="43.1941605" lon="12.0713124"><ele>261.6</ele><time>2026-05-01T07:33:15.463Z</time></trkpt><trkpt lat="43.1942562" lon="12.0712699"><ele>261.8</ele><time>2026-05-01T07:33:16.464Z</time></trkpt><trkpt lat="43.1943604" lon="12.0712279"><ele>262.0</ele><time>2026-05-01T07:33:17.463Z</time></trkpt><trkpt lat="43.1944486" lon="12.0711877"><ele>262.0</ele><time>2026-05-01T07:33:18.464Z</time></trkpt><trkpt lat="43.1945351" lon="12.0711455"><ele>262.0</ele><time>2026-05-01T07:33:19.464Z</time></trkpt><trkpt lat="43.1946132" lon="12.0710944"><ele>262.0</ele><time>2026-05-01T07:33:20.464Z</time></trkpt><trkpt lat="43.194683" lon="12.0710503"><ele>262.0</ele><time>2026-05-01T07:33:21.463Z</time></trkpt><trkpt lat="43.1947499" lon="12.0710066"><ele>262.0</ele><time>2026-05-01T07:33:22.464Z</time></trkpt><trkpt lat="43.1948115" lon="12.0709747"><ele>262.0</ele><time>2026-05-01T07:33:23.464Z</time></trkpt><trkpt lat="43.1949263" lon="12.0709986"><ele>262.16666666666663</ele><time>2026-05-01T07:33:25.464Z</time></trkpt><trkpt lat="43.1949778" lon="12.0710632"><ele>262.3333333333333</ele><time>2026-05-01T07:33:26.464Z</time></trkpt><trkpt lat="43.1950094" lon="12.071157"><ele>262.5</ele><time>2026-05-01T07:33:27.464Z</time></trkpt><trkpt lat="43.1950291" lon="12.0712861"><ele>262.6666666666667</ele><time>2026-05-01T07:33:28.464Z</time></trkpt><trkpt lat="43.1950463" lon="12.071429"><ele>262.83333333333337</ele><time>2026-05-01T07:33:29.464Z</time></trkpt><trkpt lat="43.1950653" lon="12.0715626"><ele>263.0</ele><time>2026-05-01T07:33:30.463Z</time></trkpt><trkpt lat="43.1950863" lon="12.0716954"><ele>262.6</ele><time>2026-05-01T07:33:31.464Z</time></trkpt><trkpt lat="43.1951061" lon="12.0718342"><ele>262.20000000000005</ele><time>2026-05-01T07:33:32.463Z</time></trkpt><trkpt lat="43.1951283" lon="12.0719729"><ele>261.8</ele><time>2026-05-01T07:33:33.463Z</time></trkpt><trkpt lat="43.195148" lon="12.0721147"><ele>261.40000000000003</ele><time>2026-05-01T07:33:34.464Z</time></trkpt><trkpt lat="43.1951695" lon="12.0722582"><ele>261.0</ele><time>2026-05-01T07:33:35.464Z</time></trkpt><trkpt lat="43.1951988" lon="12.0723965"><ele>261.2</ele><time>2026-05-01T07:33:36.464Z</time></trkpt><trkpt lat="43.1952215" lon="12.0725371"><ele>261.40000000000003</ele><time>2026-05-01T07:33:37.463Z</time></trkpt><trkpt lat="43.1952405" lon="12.072677"><ele>261.6</ele><time>2026-05-01T07:33:38.463Z</time></trkpt><trkpt lat="43.1952665" lon="12.0728122"><ele>261.8</ele><time>2026-05-01T07:33:39.464Z</time></trkpt><trkpt lat="43.1952952" lon="12.0729503"><ele>262.0</ele><time>2026-05-01T07:33:40.464Z</time></trkpt><trkpt lat="43.1953241" lon="12.0730906"><ele>262.0</ele><time>2026-05-01T07:33:41.464Z</time></trkpt><trkpt lat="43.1953503" lon="12.0732318"><ele>262.0</ele><time>2026-05-01T07:33:42.464Z</time></trkpt><trkpt lat="43.1953756" lon="12.0733738"><ele>262.0</ele><time>2026-05-01T07:33:43.464Z</time></trkpt><trkpt lat="43.1954033" lon="12.0735165"><ele>262.0</ele><time>2026-05-01T07:33:44.464Z</time></trkpt><trkpt lat="43.1954304" lon="12.0736625"><ele>262.0</ele><time>2026-05-01T07:33:45.464Z</time></trkpt><trkpt lat="43.1954581" lon="12.0738101"><ele>261.75</ele><time>2026-05-01T07:33:46.464Z</time></trkpt><trkpt lat="43.1954865" lon="12.0739583"><ele>261.5</ele><time>2026-05-01T07:33:47.463Z</time></trkpt><trkpt lat="43.1955208" lon="12.0741111"><ele>261.25</ele><time>2026-05-01T07:33:48.464Z</time></trkpt><trkpt lat="43.1955556" lon="12.0742856"><ele>261.0</ele><time>2026-05-01T07:33:49.463Z</time></trkpt><trkpt lat="43.1955816" lon="12.0744528"><ele>261.0</ele><time>2026-05-01T07:33:50.464Z</time></trkpt><trkpt lat="43.1956141" lon="12.0746338"><ele>261.0</ele><time>2026-05-01T07:33:51.464Z</time></trkpt><trkpt lat="43.1956456" lon="12.0748114"><ele>261.0</ele><time>2026-05-01T07:33:52.463Z</time></trkpt><trkpt lat="43.1956764" lon="12.0749795"><ele>261.0</ele><time>2026-05-01T07:33:53.463Z</time></trkpt><trkpt lat="43.1957074" lon="12.0751604"><ele>261.0</ele><time>2026-05-01T07:33:54.464Z</time></trkpt><trkpt lat="43.195736" lon="12.075331"><ele>261.0</ele><time>2026-05-01T07:33:55.464Z</time></trkpt><trkpt lat="43.1957671" lon="12.0755073"><ele>261.0</ele><time>2026-05-01T07:33:56.464Z</time></trkpt><trkpt lat="43.1957964" lon="12.0756818"><ele>261.0</ele><time>2026-05-01T07:33:57.463Z</time></trkpt><trkpt lat="43.1958225" lon="12.0758624"><ele>261.0</ele><time>2026-05-01T07:33:58.464Z</time></trkpt><trkpt lat="43.195847" lon="12.0760338"><ele>261.0</ele><time>2026-05-01T07:33:59.464Z</time></trkpt><trkpt lat="43.1958704" lon="12.0761929"><ele>261.0</ele><time>2026-05-01T07:34:00.464Z</time></trkpt><trkpt lat="43.1959006" lon="12.0763356"><ele>261.0</ele><time>2026-05-01T07:34:01.464Z</time></trkpt><trkpt lat="43.1959319" lon="12.0764724"><ele>261.0</ele><time>2026-05-01T07:34:02.464Z</time></trkpt><trkpt lat="43.1959475" lon="12.0765898"><ele>261.0</ele><time>2026-05-01T07:34:03.464Z</time></trkpt><trkpt lat="43.1959693" lon="12.0766926"><ele>261.0</ele><time>2026-05-01T07:34:04.463Z</time></trkpt><trkpt lat="43.1959793" lon="12.0768096"><ele>261.0</ele><time>2026-05-01T07:34:05.464Z</time></trkpt><trkpt lat="43.1959848" lon="12.0769138"><ele>261.0</ele><time>2026-05-01T07:34:06.464Z</time></trkpt><trkpt lat="43.1959782" lon="12.0770199"><ele>261.0</ele><time>2026-05-01T07:34:07.464Z</time></trkpt><trkpt lat="43.1959575" lon="12.0771203"><ele>261.0</ele><time>2026-05-01T07:34:08.463Z</time></trkpt><trkpt lat="43.1959238" lon="12.0772231"><ele>261.0</ele><time>2026-05-01T07:34:09.463Z</time></trkpt><trkpt lat="43.1958936" lon="12.0773182"><ele>261.0</ele><time>2026-05-01T07:34:10.464Z</time></trkpt><trkpt lat="43.1958458" lon="12.0774524"><ele>261.0</ele><time>2026-05-01T07:34:12.463Z</time></trkpt><trkpt lat="43.1958215" lon="12.0775436"><ele>261.0</ele><time>2026-05-01T07:34:15.464Z</time></trkpt><trkpt lat="43.1958903" lon="12.0776385"><ele>261.0</ele><time>2026-05-01T07:34:55.464Z</time></trkpt><trkpt lat="43.1959694" lon="12.0776409"><ele>261.0</ele><time>2026-05-01T07:34:56.463Z</time></trkpt><trkpt lat="43.1960824" lon="12.0776336"><ele>261.0</ele><time>2026-05-01T07:34:57.464Z</time></trkpt><trkpt lat="43.1962009" lon="12.0776129"><ele>261.0</ele><time>2026-05-01T07:34:58.464Z</time></trkpt><trkpt lat="43.1963212" lon="12.0775902"><ele>261.0</ele><time>2026-05-01T07:34:59.464Z</time></trkpt><trkpt lat="43.1964423" lon="12.0775679"><ele>261.0</ele><time>2026-05-01T07:35:00.464Z</time></trkpt><trkpt lat="43.196523" lon="12.0775559"><ele>261.0</ele><time>2026-05-01T07:35:01.464Z</time></trkpt><trkpt lat="43.1966055" lon="12.0775667"><ele>261.0</ele><time>2026-05-01T07:35:03.464Z</time></trkpt><trkpt lat="43.1966728" lon="12.0775643"><ele>261.0</ele><time>2026-05-01T07:35:04.464Z</time></trkpt><trkpt lat="43.1967742" lon="12.0775413"><ele>261.0</ele><time>2026-05-01T07:35:05.464Z</time></trkpt><trkpt lat="43.1968982" lon="12.0775166"><ele>261.0</ele><time>2026-05-01T07:35:06.464Z</time></trkpt><trkpt lat="43.1970254" lon="12.0774969"><ele>261.0</ele><time>2026-05-01T07:35:07.464Z</time></trkpt><trkpt lat="43.1971553" lon="12.0774782"><ele>261.0</ele><time>2026-05-01T07:35:08.464Z</time></trkpt><trkpt lat="43.1973004" lon="12.0774602"><ele>261.0</ele><time>2026-05-01T07:35:09.464Z</time></trkpt><trkpt lat="43.1974485" lon="12.0774461"><ele>261.2</ele><time>2026-05-01T07:35:10.464Z</time></trkpt><trkpt lat="43.1975625" lon="12.0774347"><ele>261.40000000000003</ele><time>2026-05-01T07:35:11.464Z</time></trkpt><trkpt lat="43.1976604" lon="12.0774264"><ele>261.6</ele><time>2026-05-01T07:35:12.464Z</time></trkpt><trkpt lat="43.1977328" lon="12.0773872"><ele>261.8</ele><time>2026-05-01T07:35:13.464Z</time></trkpt><trkpt lat="43.1978331" lon="12.0772695"><ele>262.0</ele><time>2026-05-01T07:35:15.464Z</time></trkpt><trkpt lat="43.19788" lon="12.0771563"><ele>262.0</ele><time>2026-05-01T07:35:16.464Z</time></trkpt><trkpt lat="43.1979262" lon="12.0770587"><ele>262.0</ele><time>2026-05-01T07:35:17.464Z</time></trkpt><trkpt lat="43.197988" lon="12.0769598"><ele>262.0</ele><time>2026-05-01T07:35:18.463Z</time></trkpt><trkpt lat="43.1980626" lon="12.0768697"><ele>262.0</ele><time>2026-05-01T07:35:19.463Z</time></trkpt><trkpt lat="43.198166" lon="12.0767962"><ele>262.0</ele><time>2026-05-01T07:35:20.464Z</time></trkpt><trkpt lat="43.1982813" lon="12.0767432"><ele>262.25</ele><time>2026-05-01T07:35:21.464Z</time></trkpt><trkpt lat="43.1984087" lon="12.0767263"><ele>262.5</ele><time>2026-05-01T07:35:22.464Z</time></trkpt><trkpt lat="43.1985503" lon="12.0767316"><ele>262.75</ele><time>2026-05-01T07:35:23.464Z</time></trkpt><trkpt lat="43.1987102" lon="12.0767551"><ele>263.0</ele><time>2026-05-01T07:35:24.464Z</time></trkpt><trkpt lat="43.1988742" lon="12.0767718"><ele>263.33333333333337</ele><time>2026-05-01T07:35:25.463Z</time></trkpt><trkpt lat="43.1990437" lon="12.076792"><ele>263.6666666666667</ele><time>2026-05-01T07:35:26.463Z</time></trkpt><trkpt lat="43.199218" lon="12.0768063"><ele>264.0</ele><time>2026-05-01T07:35:27.464Z</time></trkpt><trkpt lat="43.199385" lon="12.076819"><ele>264.0</ele><time>2026-05-01T07:35:28.464Z</time></trkpt><trkpt lat="43.1995457" lon="12.0768254"><ele>264.0</ele><time>2026-05-01T07:35:29.464Z</time></trkpt><trkpt lat="43.1996963" lon="12.0768426"><ele>264.0</ele><time>2026-05-01T07:35:30.464Z</time></trkpt><trkpt lat="43.1998389" lon="12.0768569"><ele>264.0</ele><time>2026-05-01T07:35:31.464Z</time></trkpt><trkpt lat="43.1999795" lon="12.0768637"><ele>264.0</ele><time>2026-05-01T07:35:32.463Z</time></trkpt><trkpt lat="43.2001178" lon="12.0768693"><ele>264.0</ele><time>2026-05-01T07:35:33.464Z</time></trkpt><trkpt lat="43.2002573" lon="12.0768727"><ele>264.0</ele><time>2026-05-01T07:35:34.464Z</time></trkpt><trkpt lat="43.2004027" lon="12.0768895"><ele>264.0</ele><time>2026-05-01T07:35:35.464Z</time></trkpt><trkpt lat="43.2005498" lon="12.0769104"><ele>264.0</ele><time>2026-05-01T07:35:36.464Z</time></trkpt><trkpt lat="43.2006936" lon="12.0769301"><ele>264.0</ele><time>2026-05-01T07:35:37.464Z</time></trkpt><trkpt lat="43.2008459" lon="12.0769416"><ele>264.0</ele><time>2026-05-01T07:35:38.464Z</time></trkpt><trkpt lat="43.2009918" lon="12.0769551"><ele>264.0</ele><time>2026-05-01T07:35:39.464Z</time></trkpt><trkpt lat="43.2011237" lon="12.0769641"><ele>264.0</ele><time>2026-05-01T07:35:40.464Z</time></trkpt><trkpt lat="43.2012466" lon="12.0769772"><ele>264.0</ele><time>2026-05-01T07:35:41.464Z</time></trkpt><trkpt lat="43.2013642" lon="12.0769897"><ele>264.0</ele><time>2026-05-01T07:35:42.463Z</time></trkpt><trkpt lat="43.201479" lon="12.0769939"><ele>264.4</ele><time>2026-05-01T07:35:43.464Z</time></trkpt><trkpt lat="43.2015848" lon="12.0770019"><ele>264.79999999999995</ele><time>2026-05-01T07:35:44.464Z</time></trkpt><trkpt lat="43.2016887" lon="12.0770116"><ele>265.20000000000005</ele><time>2026-05-01T07:35:45.464Z</time></trkpt><trkpt lat="43.2017885" lon="12.0770215"><ele>265.6</ele><time>2026-05-01T07:35:46.464Z</time></trkpt><trkpt lat="43.2018834" lon="12.0770272"><ele>266.0</ele><time>2026-05-01T07:35:47.464Z</time></trkpt><trkpt lat="43.2019756" lon="12.0770314"><ele>266.0</ele><time>2026-05-01T07:35:48.463Z</time></trkpt><trkpt lat="43.2020591" lon="12.0770393"><ele>266.0</ele><time>2026-05-01T07:35:49.464Z</time></trkpt><trkpt lat="43.2021402" lon="12.0770506"><ele>266.0</ele><time>2026-05-01T07:35:50.464Z</time></trkpt><trkpt lat="43.2022185" lon="12.0770545"><ele>266.0</ele><time>2026-05-01T07:35:51.463Z</time></trkpt><trkpt lat="43.2022932" lon="12.0770497"><ele>266.0</ele><time>2026-05-01T07:35:52.464Z</time></trkpt><trkpt lat="43.2023562" lon="12.0770639"><ele>266.0</ele><time>2026-05-01T07:35:53.464Z</time></trkpt><trkpt lat="43.2024458" lon="12.0770822"><ele>266.2</ele><time>2026-05-01T07:35:55.463Z</time></trkpt><trkpt lat="43.202547" lon="12.0770866"><ele>266.40000000000003</ele><time>2026-05-01T07:36:40.463Z</time></trkpt><trkpt lat="43.2026203" lon="12.077171"><ele>266.6</ele><time>2026-05-01T07:36:42.464Z</time></trkpt><trkpt lat="43.2026416" lon="12.0772678"><ele>266.8</ele><time>2026-05-01T07:36:43.464Z</time></trkpt><trkpt lat="43.2026566" lon="12.0773968"><ele>267.0</ele><time>2026-05-01T07:36:44.463Z</time></trkpt><trkpt lat="43.2026581" lon="12.0775427"><ele>267.0</ele><time>2026-05-01T07:36:45.464Z</time></trkpt><trkpt lat="43.2026673" lon="12.0776887"><ele>267.0</ele><time>2026-05-01T07:36:46.464Z</time></trkpt><trkpt lat="43.2026738" lon="12.0778559"><ele>267.0</ele><time>2026-05-01T07:36:47.464Z</time></trkpt><trkpt lat="43.202686" lon="12.0780335"><ele>267.0</ele><time>2026-05-01T07:36:48.464Z</time></trkpt><trkpt lat="43.2026983" lon="12.0782138"><ele>266.5</ele><time>2026-05-01T07:36:49.464Z</time></trkpt><trkpt lat="43.202705" lon="12.078407"><ele>266.0</ele><time>2026-05-01T07:36:50.464Z</time></trkpt><trkpt lat="43.2027162" lon="12.0786122"><ele>265.5</ele><time>2026-05-01T07:36:51.464Z</time></trkpt><trkpt lat="43.2027269" lon="12.0788247"><ele>265.0</ele><time>2026-05-01T07:36:52.463Z</time></trkpt><trkpt lat="43.2027349" lon="12.0790407"><ele>264.66666666666663</ele><time>2026-05-01T07:36:53.464Z</time></trkpt><trkpt lat="43.2027408" lon="12.0792544"><ele>264.3333333333333</ele><time>2026-05-01T07:36:54.464Z</time></trkpt><trkpt lat="43.2027541" lon="12.0794764"><ele>264.0</ele><time>2026-05-01T07:36:55.464Z</time></trkpt><trkpt lat="43.2027653" lon="12.0797065"><ele>263.6666666666667</ele><time>2026-05-01T07:36:56.464Z</time></trkpt><trkpt lat="43.2027828" lon="12.0799406"><ele>263.33333333333337</ele><time>2026-05-01T07:36:57.464Z</time></trkpt><trkpt lat="43.2028019" lon="12.0801642"><ele>263.0</ele><time>2026-05-01T07:36:58.464Z</time></trkpt><trkpt lat="43.2028295" lon="12.0803859"><ele>263.0</ele><time>2026-05-01T07:36:59.464Z</time></trkpt><trkpt lat="43.2028692" lon="12.0806054"><ele>263.0</ele><time>2026-05-01T07:37:00.464Z</time></trkpt><trkpt lat="43.2029299" lon="12.0808216"><ele>263.0</ele><time>2026-05-01T07:37:01.464Z</time></trkpt><trkpt lat="43.2029952" lon="12.0810311"><ele>262.6666666666667</ele><time>2026-05-01T07:37:02.464Z</time></trkpt><trkpt lat="43.2030643" lon="12.0812368"><ele>262.3333333333333</ele><time>2026-05-01T07:37:03.464Z</time></trkpt><trkpt lat="43.2031236" lon="12.0814494"><ele>262.0</ele><time>2026-05-01T07:37:04.464Z</time></trkpt><trkpt lat="43.203179" lon="12.0816639"><ele>264.3333333333333</ele><time>2026-05-01T07:37:05.464Z</time></trkpt><trkpt lat="43.2032394" lon="12.08187"><ele>266.6666666666667</ele><time>2026-05-01T07:37:06.464Z</time></trkpt><trkpt lat="43.2033072" lon="12.0820729"><ele>269.0</ele><time>2026-05-01T07:37:07.464Z</time></trkpt><trkpt lat="43.2033818" lon="12.0822714"><ele>268.6666666666667</ele><time>2026-05-01T07:37:08.464Z</time></trkpt><trkpt lat="43.2034807" lon="12.0824727"><ele>268.3333333333333</ele><time>2026-05-01T07:37:09.464Z</time></trkpt><trkpt lat="43.2035855" lon="12.0826552"><ele>268.0</ele><time>2026-05-01T07:37:10.464Z</time></trkpt><trkpt lat="43.2036828" lon="12.0828286"><ele>268.0</ele><time>2026-05-01T07:37:11.464Z</time></trkpt><trkpt lat="43.203779" lon="12.0829904"><ele>268.0</ele><time>2026-05-01T07:37:12.463Z</time></trkpt><trkpt lat="43.2038528" lon="12.0831499"><ele>268.0</ele><time>2026-05-01T07:37:13.464Z</time></trkpt><trkpt lat="43.2039128" lon="12.0833061"><ele>268.0</ele><time>2026-05-01T07:37:14.464Z</time></trkpt><trkpt lat="43.2039527" lon="12.0834611"><ele>267.5</ele><time>2026-05-01T07:37:15.464Z</time></trkpt><trkpt lat="43.2039748" lon="12.0836246"><ele>267.0</ele><time>2026-05-01T07:37:16.464Z</time></trkpt><trkpt lat="43.2039685" lon="12.0837868"><ele>266.5</ele><time>2026-05-01T07:37:17.464Z</time></trkpt><trkpt lat="43.2039574" lon="12.0839442"><ele>266.0</ele><time>2026-05-01T07:37:18.464Z</time></trkpt><trkpt lat="43.2039367" lon="12.0840926"><ele>266.0</ele><time>2026-05-01T07:37:19.464Z</time></trkpt><trkpt lat="43.2039124" lon="12.084217"><ele>266.0</ele><time>2026-05-01T07:37:20.463Z</time></trkpt><trkpt lat="43.203894" lon="12.0843661"><ele>266.0</ele><time>2026-05-01T07:37:22.463Z</time></trkpt><trkpt lat="43.2039611" lon="12.0844582"><ele>266.0</ele><time>2026-05-01T07:37:24.463Z</time></trkpt><trkpt lat="43.2040883" lon="12.0844698"><ele>266.0</ele><time>2026-05-01T07:37:26.463Z</time></trkpt><trkpt lat="43.2041731" lon="12.0844759"><ele>266.2</ele><time>2026-05-01T07:37:27.464Z</time></trkpt><trkpt lat="43.2042757" lon="12.0844716"><ele>266.40000000000003</ele><time>2026-05-01T07:37:28.464Z</time></trkpt><trkpt lat="43.2043884" lon="12.0844686"><ele>266.6</ele><time>2026-05-01T07:37:29.464Z</time></trkpt><trkpt lat="43.2044986" lon="12.0844698"><ele>266.8</ele><time>2026-05-01T07:37:30.463Z</time></trkpt><trkpt lat="43.204612" lon="12.0844677"><ele>267.0</ele><time>2026-05-01T07:37:31.464Z</time></trkpt><trkpt lat="43.2047292" lon="12.0844699"><ele>267.5</ele><time>2026-05-01T07:37:32.463Z</time></trkpt><trkpt lat="43.204849" lon="12.0844712"><ele>268.0</ele><time>2026-05-01T07:37:33.463Z</time></trkpt><trkpt lat="43.2049671" lon="12.0844708"><ele>268.5</ele><time>2026-05-01T07:37:34.464Z</time></trkpt><trkpt lat="43.2050853" lon="12.0844693"><ele>269.0</ele><time>2026-05-01T07:37:35.464Z</time></trkpt><trkpt lat="43.205201" lon="12.0844621"><ele>269.0</ele><time>2026-05-01T07:37:36.464Z</time></trkpt><trkpt lat="43.2053145" lon="12.0844574"><ele>269.0</ele><time>2026-05-01T07:37:37.464Z</time></trkpt><trkpt lat="43.2054235" lon="12.0844592"><ele>269.0</ele><time>2026-05-01T07:37:38.463Z</time></trkpt><trkpt lat="43.2055231" lon="12.0844484"><ele>269.0</ele><time>2026-05-01T07:37:39.464Z</time></trkpt><trkpt lat="43.205626" lon="12.0844429"><ele>269.0</ele><time>2026-05-01T07:37:40.464Z</time></trkpt><trkpt lat="43.2057237" lon="12.0844606"><ele>269.5</ele><time>2026-05-01T07:37:41.464Z</time></trkpt><trkpt lat="43.205802" lon="12.0844903"><ele>270.0</ele><time>2026-05-01T07:37:42.464Z</time></trkpt><trkpt lat="43.2058568" lon="12.0845544"><ele>270.5</ele><time>2026-05-01T07:37:43.463Z</time></trkpt><trkpt lat="43.2058719" lon="12.0846543"><ele>271.0</ele><time>2026-05-01T07:37:44.464Z</time></trkpt><trkpt lat="43.2058856" lon="12.0847658"><ele>271.5</ele><time>2026-05-01T07:37:45.464Z</time></trkpt><trkpt lat="43.2058903" lon="12.084893"><ele>272.0</ele><time>2026-05-01T07:37:46.464Z</time></trkpt><trkpt lat="43.205893" lon="12.0850209"><ele>272.4</ele><time>2026-05-01T07:37:47.464Z</time></trkpt><trkpt lat="43.2059041" lon="12.0851456"><ele>272.79999999999995</ele><time>2026-05-01T07:37:48.464Z</time></trkpt><trkpt lat="43.2059156" lon="12.0852879"><ele>273.2</ele><time>2026-05-01T07:37:49.464Z</time></trkpt><trkpt lat="43.2059417" lon="12.0854348"><ele>273.59999999999997</ele><time>2026-05-01T07:37:50.464Z</time></trkpt><trkpt lat="43.2059765" lon="12.085586"><ele>274.0</ele><time>2026-05-01T07:37:51.464Z</time></trkpt><trkpt lat="43.206013" lon="12.0857396"><ele>274.0</ele><time>2026-05-01T07:37:52.464Z</time></trkpt><trkpt lat="43.2060484" lon="12.0858996"><ele>274.0</ele><time>2026-05-01T07:37:53.463Z</time></trkpt><trkpt lat="43.2060933" lon="12.0860456"><ele>274.0</ele><time>2026-05-01T07:37:54.464Z</time></trkpt><trkpt lat="43.2061453" lon="12.0861796"><ele>274.0</ele><time>2026-05-01T07:37:55.463Z</time></trkpt><trkpt lat="43.2062122" lon="12.0863084"><ele>274.0</ele><time>2026-05-01T07:37:56.464Z</time></trkpt><trkpt lat="43.2062888" lon="12.0864351"><ele>274.0</ele><time>2026-05-01T07:37:57.464Z</time></trkpt><trkpt lat="43.2063687" lon="12.0865587"><ele>274.0</ele><time>2026-05-01T07:37:58.464Z</time></trkpt><trkpt lat="43.2064545" lon="12.0866875"><ele>274.0</ele><time>2026-05-01T07:37:59.463Z</time></trkpt><trkpt lat="43.2065266" lon="12.0868091"><ele>276.0</ele><time>2026-05-01T07:38:00.464Z</time></trkpt><trkpt lat="43.2065948" lon="12.0869073"><ele>278.0</ele><time>2026-05-01T07:38:01.464Z</time></trkpt><trkpt lat="43.2066532" lon="12.0870093"><ele>280.0</ele><time>2026-05-01T07:38:02.463Z</time></trkpt><trkpt lat="43.2067014" lon="12.0871251"><ele>282.0</ele><time>2026-05-01T07:38:03.464Z</time></trkpt><trkpt lat="43.206733" lon="12.0872594"><ele>284.0</ele><time>2026-05-01T07:38:04.464Z</time></trkpt><trkpt lat="43.2067698" lon="12.0874081"><ele>283.0</ele><time>2026-05-01T07:38:05.464Z</time></trkpt><trkpt lat="43.2068156" lon="12.0875604"><ele>282.0</ele><time>2026-05-01T07:38:06.463Z</time></trkpt><trkpt lat="43.2068773" lon="12.0877236"><ele>281.0</ele><time>2026-05-01T07:38:07.464Z</time></trkpt><trkpt lat="43.2069507" lon="12.087873"><ele>280.0</ele><time>2026-05-01T07:38:08.464Z</time></trkpt><trkpt lat="43.2070343" lon="12.0880133"><ele>280.0</ele><time>2026-05-01T07:38:09.464Z</time></trkpt><trkpt lat="43.2071151" lon="12.0881569"><ele>280.0</ele><time>2026-05-01T07:38:10.464Z</time></trkpt><trkpt lat="43.2071875" lon="12.0882979"><ele>280.0</ele><time>2026-05-01T07:38:11.464Z</time></trkpt><trkpt lat="43.2072532" lon="12.0884435"><ele>280.0</ele><time>2026-05-01T07:38:12.464Z</time></trkpt><trkpt lat="43.2073101" lon="12.0885998"><ele>280.75</ele><time>2026-05-01T07:38:13.464Z</time></trkpt><trkpt lat="43.2073578" lon="12.0887632"><ele>281.5</ele><time>2026-05-01T07:38:14.464Z</time></trkpt><trkpt lat="43.2074008" lon="12.088939"><ele>282.25</ele><time>2026-05-01T07:38:15.464Z</time></trkpt><trkpt lat="43.2074334" lon="12.0891288"><ele>283.0</ele><time>2026-05-01T07:38:16.464Z</time></trkpt><trkpt lat="43.207463" lon="12.0893262"><ele>283.0</ele><time>2026-05-01T07:38:17.464Z</time></trkpt><trkpt lat="43.2074816" lon="12.0895264"><ele>283.0</ele><time>2026-05-01T07:38:18.464Z</time></trkpt><trkpt lat="43.2075009" lon="12.089729"><ele>283.0</ele><time>2026-05-01T07:38:19.463Z</time></trkpt><trkpt lat="43.2075208" lon="12.0899204"><ele>283.0</ele><time>2026-05-01T07:38:20.464Z</time></trkpt><trkpt lat="43.2075299" lon="12.0900947"><ele>282.75</ele><time>2026-05-01T07:38:21.464Z</time></trkpt><trkpt lat="43.2075224" lon="12.0902661"><ele>282.5</ele><time>2026-05-01T07:38:22.464Z</time></trkpt><trkpt lat="43.2075273" lon="12.0904408"><ele>282.25</ele><time>2026-05-01T07:38:23.464Z</time></trkpt><trkpt lat="43.2075369" lon="12.0906146"><ele>282.0</ele><time>2026-05-01T07:38:24.464Z</time></trkpt><trkpt lat="43.2075549" lon="12.0907937"><ele>281.0</ele><time>2026-05-01T07:38:25.464Z</time></trkpt><trkpt lat="43.2075902" lon="12.0909825"><ele>280.0</ele><time>2026-05-01T07:38:26.464Z</time></trkpt><trkpt lat="43.2076315" lon="12.0911908"><ele>279.0</ele><time>2026-05-01T07:38:27.464Z</time></trkpt><trkpt lat="43.2076668" lon="12.091398"><ele>279.0</ele><time>2026-05-01T07:38:28.464Z</time></trkpt><trkpt lat="43.2077072" lon="12.0916062"><ele>279.0</ele><time>2026-05-01T07:38:29.463Z</time></trkpt><trkpt lat="43.2077411" lon="12.0918214"><ele>279.0</ele><time>2026-05-01T07:38:30.464Z</time></trkpt><trkpt lat="43.2077722" lon="12.0920499"><ele>279.0</ele><time>2026-05-01T07:38:31.464Z</time></trkpt><trkpt lat="43.2077998" lon="12.0922829"><ele>279.0</ele><time>2026-05-01T07:38:32.464Z</time></trkpt><trkpt lat="43.2078269" lon="12.0925308"><ele>279.0</ele><time>2026-05-01T07:38:33.463Z</time></trkpt><trkpt lat="43.2078513" lon="12.0927779"><ele>278.3333333333333</ele><time>2026-05-01T07:38:34.464Z</time></trkpt><trkpt lat="43.2078764" lon="12.0930323"><ele>277.66666666666663</ele><time>2026-05-01T07:38:35.464Z</time></trkpt><trkpt lat="43.2079048" lon="12.093292"><ele>277.0</ele><time>2026-05-01T07:38:36.464Z</time></trkpt><trkpt lat="43.2079302" lon="12.0935488"><ele>276.66666666666663</ele><time>2026-05-01T07:38:37.463Z</time></trkpt><trkpt lat="43.207958" lon="12.0938084"><ele>276.3333333333333</ele><time>2026-05-01T07:38:38.464Z</time></trkpt><trkpt lat="43.2079884" lon="12.0940646"><ele>276.0</ele><time>2026-05-01T07:38:39.464Z</time></trkpt><trkpt lat="43.2080183" lon="12.0943094"><ele>275.6666666666667</ele><time>2026-05-01T07:38:40.464Z</time></trkpt><trkpt lat="43.2080439" lon="12.0945384"><ele>275.33333333333337</ele><time>2026-05-01T07:38:41.464Z</time></trkpt><trkpt lat="43.2080664" lon="12.0947607"><ele>275.0</ele><time>2026-05-01T07:38:42.464Z</time></trkpt><trkpt lat="43.2080892" lon="12.0949607"><ele>275.0</ele><time>2026-05-01T07:38:43.464Z</time></trkpt><trkpt lat="43.2081063" lon="12.0951705"><ele>275.0</ele><time>2026-05-01T07:38:44.464Z</time></trkpt><trkpt lat="43.208098" lon="12.0953814"><ele>275.0</ele><time>2026-05-01T07:38:45.464Z</time></trkpt><trkpt lat="43.2080686" lon="12.0955718"><ele>275.0</ele><time>2026-05-01T07:38:46.463Z</time></trkpt><trkpt lat="43.2080281" lon="12.0957407"><ele>275.0</ele><time>2026-05-01T07:38:47.464Z</time></trkpt><trkpt lat="43.2080124" lon="12.0958827"><ele>275.0</ele><time>2026-05-01T07:38:48.463Z</time></trkpt><trkpt lat="43.2080475" lon="12.0960427"><ele>275.0</ele><time>2026-05-01T07:38:49.464Z</time></trkpt><trkpt lat="43.2081112" lon="12.0961787"><ele>275.6666666666667</ele><time>2026-05-01T07:38:50.464Z</time></trkpt><trkpt lat="43.2081808" lon="12.0962905"><ele>276.33333333333337</ele><time>2026-05-01T07:38:51.464Z</time></trkpt><trkpt lat="43.2082291" lon="12.0963934"><ele>277.0</ele><time>2026-05-01T07:38:52.464Z</time></trkpt><trkpt lat="43.2082723" lon="12.096493"><ele>277.6666666666667</ele><time>2026-05-01T07:38:54.463Z</time></trkpt><trkpt lat="43.2082823" lon="12.0965978"><ele>278.3333333333333</ele><time>2026-05-01T07:38:57.464Z</time></trkpt><trkpt lat="43.2082746" lon="12.096694"><ele>279.0</ele><time>2026-05-01T07:38:59.463Z</time></trkpt><trkpt lat="43.2082774" lon="12.096827"><ele>279.2</ele><time>2026-05-01T07:39:01.464Z</time></trkpt><trkpt lat="43.208294" lon="12.0969509"><ele>279.4</ele><time>2026-05-01T07:39:03.464Z</time></trkpt><trkpt lat="43.2083097" lon="12.0970571"><ele>279.6</ele><time>2026-05-01T07:39:05.464Z</time></trkpt><trkpt lat="43.2083319" lon="12.0971443"><ele>279.8</ele><time>2026-05-01T07:39:07.463Z</time></trkpt><trkpt lat="43.2083569" lon="12.0972777"><ele>280.0</ele><time>2026-05-01T07:39:17.464Z</time></trkpt><trkpt lat="43.2084112" lon="12.0974207"><ele>280.0</ele><time>2026-05-01T07:39:19.464Z</time></trkpt><trkpt lat="43.2084391" lon="12.0975924"><ele>280.0</ele><time>2026-05-01T07:39:21.464Z</time></trkpt><trkpt lat="43.2084642" lon="12.0977598"><ele>280.0</ele><time>2026-05-01T07:39:23.464Z</time></trkpt><trkpt lat="43.2084805" lon="12.0978506"><ele>280.0</ele><time>2026-05-01T07:39:24.464Z</time></trkpt><trkpt lat="43.2084903" lon="12.0979398"><ele>280.0</ele><time>2026-05-01T07:39:25.463Z</time></trkpt><trkpt lat="43.2084989" lon="12.0980354"><ele>280.0</ele><time>2026-05-01T07:39:26.464Z</time></trkpt><trkpt lat="43.2085063" lon="12.0981365"><ele>280.0</ele><time>2026-05-01T07:39:27.464Z</time></trkpt><trkpt lat="43.2085075" lon="12.0982446"><ele>280.0</ele><time>2026-05-01T07:39:28.463Z</time></trkpt><trkpt lat="43.2085091" lon="12.0983725"><ele>280.0</ele><time>2026-05-01T07:39:29.464Z</time></trkpt><trkpt lat="43.2085055" lon="12.0985187"><ele>280.0</ele><time>2026-05-01T07:39:30.464Z</time></trkpt><trkpt lat="43.2085077" lon="12.0986652"><ele>279.75</ele><time>2026-05-01T07:39:31.464Z</time></trkpt><trkpt lat="43.2085082" lon="12.0988253"><ele>279.5</ele><time>2026-05-01T07:39:32.463Z</time></trkpt><trkpt lat="43.2085081" lon="12.0989844"><ele>279.25</ele><time>2026-05-01T07:39:33.464Z</time></trkpt><trkpt lat="43.2084975" lon="12.0991347"><ele>279.0</ele><time>2026-05-01T07:39:34.463Z</time></trkpt><trkpt lat="43.208482" lon="12.0992891"><ele>279.0</ele><time>2026-05-01T07:39:35.464Z</time></trkpt><trkpt lat="43.2084663" lon="12.0994494"><ele>279.0</ele><time>2026-05-01T07:39:36.464Z</time></trkpt><trkpt lat="43.2084508" lon="12.0996135"><ele>279.0</ele><time>2026-05-01T07:39:37.464Z</time></trkpt><trkpt lat="43.2084363" lon="12.0997818"><ele>279.0</ele><time>2026-05-01T07:39:38.464Z</time></trkpt><trkpt lat="43.2084309" lon="12.0999498"><ele>279.0</ele><time>2026-05-01T07:39:39.464Z</time></trkpt><trkpt lat="43.208426" lon="12.1001199"><ele>279.0</ele><time>2026-05-01T07:39:40.464Z</time></trkpt><trkpt lat="43.2084236" lon="12.1002861"><ele>279.0</ele><time>2026-05-01T07:39:41.464Z</time></trkpt><trkpt lat="43.2084186" lon="12.1004568"><ele>279.0</ele><time>2026-05-01T07:39:42.464Z</time></trkpt><trkpt lat="43.2084124" lon="12.1006224"><ele>279.5</ele><time>2026-05-01T07:39:43.464Z</time></trkpt><trkpt lat="43.2084072" lon="12.1007902"><ele>280.0</ele><time>2026-05-01T07:39:44.464Z</time></trkpt><trkpt lat="43.2083839" lon="12.1009705"><ele>280.5</ele><time>2026-05-01T07:39:45.464Z</time></trkpt><trkpt lat="43.2083427" lon="12.1011533"><ele>281.0</ele><time>2026-05-01T07:39:46.464Z</time></trkpt><trkpt lat="43.208299" lon="12.1013467"><ele>281.0</ele><time>2026-05-01T07:39:47.464Z</time></trkpt><trkpt lat="43.208237" lon="12.1015411"><ele>281.0</ele><time>2026-05-01T07:39:48.463Z</time></trkpt><trkpt lat="43.2081684" lon="12.1017286"><ele>281.0</ele><time>2026-05-01T07:39:49.464Z</time></trkpt><trkpt lat="43.2080786" lon="12.1019143"><ele>279.33333333333337</ele><time>2026-05-01T07:39:50.463Z</time></trkpt><trkpt lat="43.2079758" lon="12.1021052"><ele>277.6666666666667</ele><time>2026-05-01T07:39:51.464Z</time></trkpt><trkpt lat="43.2078697" lon="12.1023042"><ele>276.0</ele><time>2026-05-01T07:39:52.463Z</time></trkpt><trkpt lat="43.2077654" lon="12.102512"><ele>276.0</ele><time>2026-05-01T07:39:53.464Z</time></trkpt><trkpt lat="43.2076645" lon="12.1027278"><ele>276.0</ele><time>2026-05-01T07:39:54.464Z</time></trkpt><trkpt lat="43.2075673" lon="12.1029498"><ele>276.0</ele><time>2026-05-01T07:39:55.464Z</time></trkpt><trkpt lat="43.2074699" lon="12.1031679"><ele>276.6666666666667</ele><time>2026-05-01T07:39:56.464Z</time></trkpt><trkpt lat="43.2073698" lon="12.1033839"><ele>277.33333333333337</ele><time>2026-05-01T07:39:57.463Z</time></trkpt><trkpt lat="43.207277" lon="12.1035996"><ele>278.0</ele><time>2026-05-01T07:39:58.463Z</time></trkpt><trkpt lat="43.207193" lon="12.1038142"><ele>277.6666666666667</ele><time>2026-05-01T07:39:59.464Z</time></trkpt><trkpt lat="43.2071137" lon="12.1040376"><ele>277.3333333333333</ele><time>2026-05-01T07:40:00.463Z</time></trkpt><trkpt lat="43.2070302" lon="12.1042562"><ele>277.0</ele><time>2026-05-01T07:40:01.464Z</time></trkpt><trkpt lat="43.2069492" lon="12.1044638"><ele>277.0</ele><time>2026-05-01T07:40:02.464Z</time></trkpt><trkpt lat="43.2068771" lon="12.104666"><ele>277.0</ele><time>2026-05-01T07:40:03.464Z</time></trkpt><trkpt lat="43.2068085" lon="12.104864"><ele>277.0</ele><time>2026-05-01T07:40:04.463Z</time></trkpt><trkpt lat="43.2067425" lon="12.1050593"><ele>277.0</ele><time>2026-05-01T07:40:05.463Z</time></trkpt><trkpt lat="43.2066744" lon="12.1052356"><ele>277.0</ele><time>2026-05-01T07:40:06.464Z</time></trkpt><trkpt lat="43.2065831" lon="12.1053944"><ele>277.0</ele><time>2026-05-01T07:40:07.463Z</time></trkpt><trkpt lat="43.2065207" lon="12.105545"><ele>277.0</ele><time>2026-05-01T07:40:08.464Z</time></trkpt><trkpt lat="43.2064685" lon="12.1057305"><ele>275.66666666666663</ele><time>2026-05-01T07:40:09.464Z</time></trkpt><trkpt lat="43.2064302" lon="12.1059386"><ele>274.3333333333333</ele><time>2026-05-01T07:40:10.464Z</time></trkpt><trkpt lat="43.2063928" lon="12.1061654"><ele>273.0</ele><time>2026-05-01T07:40:11.464Z</time></trkpt><trkpt lat="43.206356" lon="12.1064045"><ele>273.0</ele><time>2026-05-01T07:40:12.464Z</time></trkpt><trkpt lat="43.2063296" lon="12.1066621"><ele>273.0</ele><time>2026-05-01T07:40:13.464Z</time></trkpt><trkpt lat="43.2063039" lon="12.1069191"><ele>273.0</ele><time>2026-05-01T07:40:14.464Z</time></trkpt><trkpt lat="43.2062735" lon="12.1071565"><ele>273.0</ele><time>2026-05-01T07:40:15.463Z</time></trkpt><trkpt lat="43.2062469" lon="12.1073566"><ele>273.0</ele><time>2026-05-01T07:40:16.464Z</time></trkpt><trkpt lat="43.2062261" lon="12.1075206"><ele>273.0</ele><time>2026-05-01T07:40:17.463Z</time></trkpt><trkpt lat="43.2062021" lon="12.1076604"><ele>273.0</ele><time>2026-05-01T07:40:18.464Z</time></trkpt><trkpt lat="43.2061803" lon="12.1077791"><ele>273.0</ele><time>2026-05-01T07:40:19.463Z</time></trkpt><trkpt lat="43.2061653" lon="12.1078841"><ele>273.0</ele><time>2026-05-01T07:40:20.464Z</time></trkpt><trkpt lat="43.2061478" lon="12.108011"><ele>273.0</ele><time>2026-05-01T07:40:22.464Z</time></trkpt><trkpt lat="43.2062257" lon="12.1081335"><ele>273.0</ele><time>2026-05-01T07:40:24.463Z</time></trkpt><trkpt lat="43.2063" lon="12.1081719"><ele>273.0</ele><time>2026-05-01T07:40:25.464Z</time></trkpt><trkpt lat="43.206391" lon="12.1082042"><ele>273.25</ele><time>2026-05-01T07:40:26.464Z</time></trkpt><trkpt lat="43.2065035" lon="12.108223"><ele>273.5</ele><time>2026-05-01T07:40:27.464Z</time></trkpt><trkpt lat="43.2066196" lon="12.1082467"><ele>273.75</ele><time>2026-05-01T07:40:28.464Z</time></trkpt><trkpt lat="43.2067397" lon="12.1082598"><ele>274.0</ele><time>2026-05-01T07:40:29.464Z</time></trkpt><trkpt lat="43.206866" lon="12.1082708"><ele>274.0</ele><time>2026-05-01T07:40:30.464Z</time></trkpt><trkpt lat="43.2069933" lon="12.1082837"><ele>274.0</ele><time>2026-05-01T07:40:31.463Z</time></trkpt><trkpt lat="43.2071172" lon="12.1083159"><ele>274.0</ele><time>2026-05-01T07:40:32.464Z</time></trkpt><trkpt lat="43.2072382" lon="12.1083537"><ele>274.0</ele><time>2026-05-01T07:40:33.463Z</time></trkpt><trkpt lat="43.2073623" lon="12.1084101"><ele>277.0</ele><time>2026-05-01T07:40:34.464Z</time></trkpt><trkpt lat="43.2074748" lon="12.1084847"><ele>280.0</ele><time>2026-05-01T07:40:35.464Z</time></trkpt><trkpt lat="43.207576" lon="12.1085833"><ele>283.0</ele><time>2026-05-01T07:40:36.464Z</time></trkpt><trkpt lat="43.2076713" lon="12.1087045"><ele>286.0</ele><time>2026-05-01T07:40:37.464Z</time></trkpt><trkpt lat="43.2077663" lon="12.1088474"><ele>286.0</ele><time>2026-05-01T07:40:38.464Z</time></trkpt><trkpt lat="43.2078639" lon="12.1090141"><ele>286.0</ele><time>2026-05-01T07:40:39.463Z</time></trkpt><trkpt lat="43.2079675" lon="12.1091697"><ele>286.0</ele><time>2026-05-01T07:40:40.463Z</time></trkpt><trkpt lat="43.208077" lon="12.1093175"><ele>289.66666666666663</ele><time>2026-05-01T07:40:41.463Z</time></trkpt><trkpt lat="43.2081781" lon="12.109482"><ele>293.3333333333333</ele><time>2026-05-01T07:40:42.464Z</time></trkpt><trkpt lat="43.2082655" lon="12.1096659"><ele>297.0</ele><time>2026-05-01T07:40:43.464Z</time></trkpt><trkpt lat="43.2083547" lon="12.10986"><ele>294.6666666666667</ele><time>2026-05-01T07:40:44.464Z</time></trkpt><trkpt lat="43.2084394" lon="12.1100424"><ele>292.33333333333337</ele><time>2026-05-01T07:40:45.464Z</time></trkpt><trkpt lat="43.2085277" lon="12.1102033"><ele>290.0</ele><time>2026-05-01T07:40:46.464Z</time></trkpt><trkpt lat="43.2086358" lon="12.1103551"><ele>290.0</ele><time>2026-05-01T07:40:47.463Z</time></trkpt><trkpt lat="43.2087673" lon="12.1104984"><ele>290.0</ele><time>2026-05-01T07:40:48.464Z</time></trkpt><trkpt lat="43.2089023" lon="12.1106501"><ele>290.0</ele><time>2026-05-01T07:40:49.464Z</time></trkpt><trkpt lat="43.2090323" lon="12.1108085"><ele>291.33333333333337</ele><time>2026-05-01T07:40:50.464Z</time></trkpt><trkpt lat="43.2091574" lon="12.1109642"><ele>292.6666666666667</ele><time>2026-05-01T07:40:51.463Z</time></trkpt><trkpt lat="43.2092789" lon="12.111118"><ele>294.0</ele><time>2026-05-01T07:40:52.464Z</time></trkpt><trkpt lat="43.2093895" lon="12.1112654"><ele>294.0</ele><time>2026-05-01T07:40:53.464Z</time></trkpt><trkpt lat="43.2094899" lon="12.1113933"><ele>294.0</ele><time>2026-05-01T07:40:54.464Z</time></trkpt><trkpt lat="43.2095811" lon="12.111492"><ele>294.0</ele><time>2026-05-01T07:40:55.464Z</time></trkpt><trkpt lat="43.2096732" lon="12.1115764"><ele>294.0</ele><time>2026-05-01T07:40:56.464Z</time></trkpt><trkpt lat="43.2097507" lon="12.1116529"><ele>294.8</ele><time>2026-05-01T07:40:57.463Z</time></trkpt><trkpt lat="43.2098314" lon="12.1117426"><ele>295.59999999999997</ele><time>2026-05-01T07:40:58.464Z</time></trkpt><trkpt lat="43.2098972" lon="12.1118534"><ele>296.4</ele><time>2026-05-01T07:40:59.464Z</time></trkpt><trkpt lat="43.2099479" lon="12.1119896"><ele>297.2</ele><time>2026-05-01T07:41:00.464Z</time></trkpt><trkpt lat="43.2099881" lon="12.1121259"><ele>298.0</ele><time>2026-05-01T07:41:01.464Z</time></trkpt><trkpt lat="43.2100225" lon="12.1122821"><ele>296.75</ele><time>2026-05-01T07:41:02.464Z</time></trkpt><trkpt lat="43.210048" lon="12.11246"><ele>295.5</ele><time>2026-05-01T07:41:03.464Z</time></trkpt><trkpt lat="43.2100626" lon="12.1126498"><ele>294.25</ele><time>2026-05-01T07:41:04.463Z</time></trkpt><trkpt lat="43.2100626" lon="12.1128419"><ele>293.0</ele><time>2026-05-01T07:41:05.464Z</time></trkpt><trkpt lat="43.2100596" lon="12.1130453"><ele>291.33333333333337</ele><time>2026-05-01T07:41:06.464Z</time></trkpt><trkpt lat="43.2100575" lon="12.1132531"><ele>289.6666666666667</ele><time>2026-05-01T07:41:07.463Z</time></trkpt><trkpt lat="43.2100621" lon="12.1134585"><ele>288.0</ele><time>2026-05-01T07:41:08.464Z</time></trkpt><trkpt lat="43.2100605" lon="12.1136624"><ele>288.0</ele><time>2026-05-01T07:41:09.463Z</time></trkpt><trkpt lat="43.210055" lon="12.1138743"><ele>288.0</ele><time>2026-05-01T07:41:10.463Z</time></trkpt><trkpt lat="43.2100506" lon="12.1140824"><ele>288.0</ele><time>2026-05-01T07:41:11.463Z</time></trkpt><trkpt lat="43.2100494" lon="12.1142636"><ele>288.0</ele><time>2026-05-01T07:41:12.464Z</time></trkpt><trkpt lat="43.2100414" lon="12.1144404"><ele>288.0</ele><time>2026-05-01T07:41:13.464Z</time></trkpt><trkpt lat="43.2100381" lon="12.1146171"><ele>288.0</ele><time>2026-05-01T07:41:14.464Z</time></trkpt><trkpt lat="43.2100312" lon="12.1147911"><ele>288.0</ele><time>2026-05-01T07:41:15.464Z</time></trkpt><trkpt lat="43.2100248" lon="12.1149647"><ele>288.0</ele><time>2026-05-01T07:41:16.464Z</time></trkpt><trkpt lat="43.2100188" lon="12.1151394"><ele>288.5</ele><time>2026-05-01T07:41:17.463Z</time></trkpt><trkpt lat="43.2100072" lon="12.1153175"><ele>289.0</ele><time>2026-05-01T07:41:18.463Z</time></trkpt><trkpt lat="43.2100008" lon="12.1154957"><ele>289.5</ele><time>2026-05-01T07:41:19.464Z</time></trkpt><trkpt lat="43.209987" lon="12.1156823"><ele>290.0</ele><time>2026-05-01T07:41:20.464Z</time></trkpt><trkpt lat="43.2099678" lon="12.1158729"><ele>290.0</ele><time>2026-05-01T07:41:21.464Z</time></trkpt><trkpt lat="43.2099541" lon="12.1160637"><ele>290.0</ele><time>2026-05-01T07:41:22.464Z</time></trkpt><trkpt lat="43.209938" lon="12.1162669"><ele>290.0</ele><time>2026-05-01T07:41:23.464Z</time></trkpt><trkpt lat="43.2099315" lon="12.1164595"><ele>290.0</ele><time>2026-05-01T07:41:24.464Z</time></trkpt><trkpt lat="43.209925" lon="12.1166484"><ele>289.5</ele><time>2026-05-01T07:41:25.464Z</time></trkpt><trkpt lat="43.2099229" lon="12.1168325"><ele>289.0</ele><time>2026-05-01T07:41:26.464Z</time></trkpt><trkpt lat="43.2099284" lon="12.1170271"><ele>288.5</ele><time>2026-05-01T07:41:27.463Z</time></trkpt><trkpt lat="43.2099312" lon="12.1172127"><ele>288.0</ele><time>2026-05-01T07:41:28.464Z</time></trkpt><trkpt lat="43.2099346" lon="12.117388"><ele>288.25</ele><time>2026-05-01T07:41:29.464Z</time></trkpt><trkpt lat="43.2099409" lon="12.1175438"><ele>288.5</ele><time>2026-05-01T07:41:30.463Z</time></trkpt><trkpt lat="43.2099508" lon="12.1177027"><ele>288.75</ele><time>2026-05-01T07:41:31.463Z</time></trkpt><trkpt lat="43.2099644" lon="12.1178669"><ele>289.0</ele><time>2026-05-01T07:41:32.464Z</time></trkpt><trkpt lat="43.2099834" lon="12.1180359"><ele>289.0</ele><time>2026-05-01T07:41:33.463Z</time></trkpt><trkpt lat="43.2100067" lon="12.118195"><ele>289.0</ele><time>2026-05-01T07:41:34.463Z</time></trkpt><trkpt lat="43.210031" lon="12.1183231"><ele>289.0</ele><time>2026-05-01T07:41:35.464Z</time></trkpt><trkpt lat="43.2100613" lon="12.1184316"><ele>289.0</ele><time>2026-05-01T07:41:36.464Z</time></trkpt><trkpt lat="43.2100957" lon="12.1185398"><ele>289.0</ele><time>2026-05-01T07:41:37.463Z</time></trkpt><trkpt lat="43.2101292" lon="12.1186531"><ele>289.16666666666663</ele><time>2026-05-01T07:41:38.464Z</time></trkpt><trkpt lat="43.2101563" lon="12.1187786"><ele>289.3333333333333</ele><time>2026-05-01T07:41:39.464Z</time></trkpt><trkpt lat="43.2101631" lon="12.118906"><ele>289.5</ele><time>2026-05-01T07:41:40.464Z</time></trkpt><trkpt lat="43.2101589" lon="12.1190289"><ele>289.6666666666667</ele><time>2026-05-01T07:41:41.464Z</time></trkpt><trkpt lat="43.210151" lon="12.1191407"><ele>289.83333333333337</ele><time>2026-05-01T07:41:42.464Z</time></trkpt><trkpt lat="43.2101387" lon="12.1192391"><ele>290.0</ele><time>2026-05-01T07:41:43.464Z</time></trkpt><trkpt lat="43.210126" lon="12.1194012"><ele>290.2</ele><time>2026-05-01T07:41:45.464Z</time></trkpt><trkpt lat="43.2101558" lon="12.1195373"><ele>290.4</ele><time>2026-05-01T07:41:47.464Z</time></trkpt><trkpt lat="43.2102644" lon="12.1196288"><ele>290.6</ele><time>2026-05-01T07:41:49.463Z</time></trkpt><trkpt lat="43.2103351" lon="12.1196698"><ele>290.8</ele><time>2026-05-01T07:41:50.464Z</time></trkpt><trkpt lat="43.2104332" lon="12.1197162"><ele>291.0</ele><time>2026-05-01T07:41:51.464Z</time></trkpt><trkpt lat="43.2105376" lon="12.1197846"><ele>291.0</ele><time>2026-05-01T07:41:52.463Z</time></trkpt><trkpt lat="43.2106495" lon="12.1198497"><ele>291.0</ele><time>2026-05-01T07:41:53.464Z</time></trkpt><trkpt lat="43.2107626" lon="12.1199133"><ele>291.0</ele><time>2026-05-01T07:41:54.464Z</time></trkpt><trkpt lat="43.2108798" lon="12.1199769"><ele>291.0</ele><time>2026-05-01T07:41:55.463Z</time></trkpt><trkpt lat="43.2110112" lon="12.120054"><ele>292.6666666666667</ele><time>2026-05-01T07:41:56.464Z</time></trkpt><trkpt lat="43.2111459" lon="12.120132"><ele>294.33333333333337</ele><time>2026-05-01T07:41:57.464Z</time></trkpt><trkpt lat="43.2112974" lon="12.120219"><ele>296.0</ele><time>2026-05-01T07:41:58.464Z</time></trkpt><trkpt lat="43.2114544" lon="12.1203112"><ele>298.0</ele><time>2026-05-01T07:41:59.463Z</time></trkpt><trkpt lat="43.2116135" lon="12.1204007"><ele>300.0</ele><time>2026-05-01T07:42:00.463Z</time></trkpt><trkpt lat="43.211764" lon="12.1204885"><ele>302.0</ele><time>2026-05-01T07:42:01.464Z</time></trkpt><trkpt lat="43.2119201" lon="12.1205797"><ele>302.0</ele><time>2026-05-01T07:42:02.463Z</time></trkpt><trkpt lat="43.2120746" lon="12.1206709"><ele>302.0</ele><time>2026-05-01T07:42:03.463Z</time></trkpt><trkpt lat="43.2122243" lon="12.12076"><ele>302.0</ele><time>2026-05-01T07:42:04.464Z</time></trkpt><trkpt lat="43.2123736" lon="12.1208495"><ele>303.6666666666667</ele><time>2026-05-01T07:42:05.464Z</time></trkpt><trkpt lat="43.2125204" lon="12.1209345"><ele>305.3333333333333</ele><time>2026-05-01T07:42:06.464Z</time></trkpt><trkpt lat="43.2126674" lon="12.1210195"><ele>307.0</ele><time>2026-05-01T07:42:07.463Z</time></trkpt><trkpt lat="43.2128127" lon="12.1211043"><ele>307.0</ele><time>2026-05-01T07:42:08.463Z</time></trkpt><trkpt lat="43.212952" lon="12.1211889"><ele>307.0</ele><time>2026-05-01T07:42:09.463Z</time></trkpt><trkpt lat="43.2130942" lon="12.1212691"><ele>307.0</ele><time>2026-05-01T07:42:10.464Z</time></trkpt><trkpt lat="43.2132149" lon="12.1213411"><ele>307.0</ele><time>2026-05-01T07:42:11.464Z</time></trkpt><trkpt lat="43.2133197" lon="12.1213936"><ele>308.0</ele><time>2026-05-01T07:42:12.463Z</time></trkpt><trkpt lat="43.2134188" lon="12.1214523"><ele>309.0</ele><time>2026-05-01T07:42:13.464Z</time></trkpt><trkpt lat="43.2135316" lon="12.121506"><ele>310.0</ele><time>2026-05-01T07:42:14.464Z</time></trkpt><trkpt lat="43.2136411" lon="12.1215675"><ele>311.0</ele><time>2026-05-01T07:42:15.464Z</time></trkpt><trkpt lat="43.2137586" lon="12.1216303"><ele>311.75</ele><time>2026-05-01T07:42:16.463Z</time></trkpt><trkpt lat="43.2138774" lon="12.1216869"><ele>312.5</ele><time>2026-05-01T07:42:17.464Z</time></trkpt><trkpt lat="43.2139925" lon="12.1217507"><ele>313.25</ele><time>2026-05-01T07:42:18.464Z</time></trkpt><trkpt lat="43.2141011" lon="12.1218147"><ele>314.0</ele><time>2026-05-01T07:42:19.464Z</time></trkpt><trkpt lat="43.2142099" lon="12.1218774"><ele>315.6</ele><time>2026-05-01T07:42:20.464Z</time></trkpt><trkpt lat="43.2143176" lon="12.1219374"><ele>317.2</ele><time>2026-05-01T07:42:21.463Z</time></trkpt><trkpt lat="43.2144253" lon="12.1219976"><ele>318.8</ele><time>2026-05-01T07:42:22.464Z</time></trkpt><trkpt lat="43.2145145" lon="12.1220626"><ele>320.40000000000003</ele><time>2026-05-01T07:42:23.464Z</time></trkpt><trkpt lat="43.2145993" lon="12.1221188"><ele>322.0</ele><time>2026-05-01T07:42:24.464Z</time></trkpt><trkpt lat="43.214676" lon="12.1221732"><ele>322.0</ele><time>2026-05-01T07:42:25.463Z</time></trkpt><trkpt lat="43.2147665" lon="12.1221955"><ele>322.0</ele><time>2026-05-01T07:42:26.464Z</time></trkpt><trkpt lat="43.2148498" lon="12.1221778"><ele>322.0</ele><time>2026-05-01T07:42:27.463Z</time></trkpt><trkpt lat="43.2149441" lon="12.1221591"><ele>322.0</ele><time>2026-05-01T07:42:28.464Z</time></trkpt><trkpt lat="43.2150295" lon="12.1220856"><ele>322.0</ele><time>2026-05-01T07:42:29.464Z</time></trkpt><trkpt lat="43.2151311" lon="12.1219831"><ele>323.6</ele><time>2026-05-01T07:42:30.464Z</time></trkpt><trkpt lat="43.2152432" lon="12.1218785"><ele>325.20000000000005</ele><time>2026-05-01T07:42:31.464Z</time></trkpt><trkpt lat="43.2153283" lon="12.1217777"><ele>326.8</ele><time>2026-05-01T07:42:32.464Z</time></trkpt><trkpt lat="43.2154088" lon="12.121722"><ele>328.4</ele><time>2026-05-01T07:42:33.464Z</time></trkpt><trkpt lat="43.215482" lon="12.1216948"><ele>330.0</ele><time>2026-05-01T07:42:34.463Z</time></trkpt><trkpt lat="43.2155563" lon="12.1216992"><ele>331.5</ele><time>2026-05-01T07:42:35.463Z</time></trkpt><trkpt lat="43.2156542" lon="12.1217598"><ele>333.0</ele><time>2026-05-01T07:42:36.463Z</time></trkpt><trkpt lat="43.2157659" lon="12.1218423"><ele>334.5</ele><time>2026-05-01T07:42:37.463Z</time></trkpt><trkpt lat="43.215884" lon="12.1219307"><ele>336.0</ele><time>2026-05-01T07:42:38.463Z</time></trkpt><trkpt lat="43.216012" lon="12.1220359"><ele>336.0</ele><time>2026-05-01T07:42:39.464Z</time></trkpt><trkpt lat="43.2161423" lon="12.1221392"><ele>336.0</ele><time>2026-05-01T07:42:40.464Z</time></trkpt><trkpt lat="43.2162666" lon="12.1222322"><ele>336.0</ele><time>2026-05-01T07:42:41.464Z</time></trkpt><trkpt lat="43.2163898" lon="12.1223244"><ele>336.0</ele><time>2026-05-01T07:42:42.464Z</time></trkpt><trkpt lat="43.2164745" lon="12.1223985"><ele>337.6666666666667</ele><time>2026-05-01T07:42:43.463Z</time></trkpt><trkpt lat="43.2165459" lon="12.1224792"><ele>339.3333333333333</ele><time>2026-05-01T07:42:44.464Z</time></trkpt><trkpt lat="43.2165968" lon="12.1225555"><ele>341.0</ele><time>2026-05-01T07:42:45.464Z</time></trkpt><trkpt lat="43.2166275" lon="12.1227232"><ele>342.66666666666663</ele><time>2026-05-01T07:42:47.464Z</time></trkpt><trkpt lat="43.2165947" lon="12.1228175"><ele>344.3333333333333</ele><time>2026-05-01T07:42:48.464Z</time></trkpt><trkpt lat="43.2165604" lon="12.1228971"><ele>346.0</ele><time>2026-05-01T07:42:49.463Z</time></trkpt><trkpt lat="43.2164992" lon="12.1229751"><ele>345.0</ele><time>2026-05-01T07:42:50.464Z</time></trkpt><trkpt lat="43.2164238" lon="12.1230054"><ele>344.0</ele><time>2026-05-01T07:42:51.464Z</time></trkpt><trkpt lat="43.2163323" lon="12.1230108"><ele>343.0</ele><time>2026-05-01T07:42:52.464Z</time></trkpt><trkpt lat="43.2162084" lon="12.122969"><ele>342.0</ele><time>2026-05-01T07:42:53.464Z</time></trkpt><trkpt lat="43.2160894" lon="12.1229245"><ele>341.0</ele><time>2026-05-01T07:42:54.464Z</time></trkpt><trkpt lat="43.2159814" lon="12.1229206"><ele>341.0</ele><time>2026-05-01T07:42:55.464Z</time></trkpt><trkpt lat="43.2159103" lon="12.122928"><ele>341.0</ele><time>2026-05-01T07:42:56.464Z</time></trkpt><trkpt lat="43.2158337" lon="12.122965"><ele>341.0</ele><time>2026-05-01T07:42:58.463Z</time></trkpt><trkpt lat="43.2159007" lon="12.1230382"><ele>341.0</ele><time>2026-05-01T07:43:05.463Z</time></trkpt><trkpt lat="43.2160109" lon="12.123095"><ele>341.0</ele><time>2026-05-01T07:43:07.464Z</time></trkpt><trkpt lat="43.2161039" lon="12.1231664"><ele>342.8</ele><time>2026-05-01T07:43:09.464Z</time></trkpt><trkpt lat="43.2161228" lon="12.1232668"><ele>344.6</ele><time>2026-05-01T07:43:11.464Z</time></trkpt><trkpt lat="43.2160662" lon="12.1234165"><ele>346.4</ele><time>2026-05-01T07:43:13.463Z</time></trkpt><trkpt lat="43.2160199" lon="12.1235182"><ele>348.2</ele><time>2026-05-01T07:43:14.464Z</time></trkpt><trkpt lat="43.2159587" lon="12.1236492"><ele>350.0</ele><time>2026-05-01T07:43:15.464Z</time></trkpt><trkpt lat="43.2159051" lon="12.1237837"><ele>350.0</ele><time>2026-05-01T07:43:16.464Z</time></trkpt><trkpt lat="43.2158525" lon="12.123924"><ele>350.0</ele><time>2026-05-01T07:43:17.464Z</time></trkpt><trkpt lat="43.2157979" lon="12.1240644"><ele>350.0</ele><time>2026-05-01T07:43:18.464Z</time></trkpt><trkpt lat="43.2157449" lon="12.1242102"><ele>350.0</ele><time>2026-05-01T07:43:19.464Z</time></trkpt><trkpt lat="43.2157119" lon="12.1243142"><ele>350.0</ele><time>2026-05-01T07:43:20.463Z</time></trkpt><trkpt lat="43.2156815" lon="12.1244002"><ele>350.5</ele><time>2026-05-01T07:43:21.463Z</time></trkpt><trkpt lat="43.2156452" lon="12.124489"><ele>351.0</ele><time>2026-05-01T07:43:22.463Z</time></trkpt><trkpt lat="43.2156163" lon="12.1245759"><ele>351.5</ele><time>2026-05-01T07:43:23.464Z</time></trkpt><trkpt lat="43.2156078" lon="12.1246662"><ele>352.0</ele><time>2026-05-01T07:43:24.464Z</time></trkpt><trkpt lat="43.2156342" lon="12.1247941"><ele>352.5</ele><time>2026-05-01T07:43:26.464Z</time></trkpt><trkpt lat="43.2157004" lon="12.1248123"><ele>353.0</ele><time>2026-05-01T07:43:28.464Z</time></trkpt><trkpt lat="43.2158099" lon="12.1247803"><ele>354.0</ele><time>2026-05-01T07:43:30.464Z</time></trkpt><trkpt lat="43.2158824" lon="12.124762"><ele>355.0</ele><time>2026-05-01T07:43:31.464Z</time></trkpt><trkpt lat="43.2159662" lon="12.124768"><ele>356.0</ele><time>2026-05-01T07:43:32.464Z</time></trkpt><trkpt lat="43.2160446" lon="12.1247948"><ele>357.0</ele><time>2026-05-01T07:43:33.464Z</time></trkpt><trkpt lat="43.2161174" lon="12.1248355"><ele>358.0</ele><time>2026-05-01T07:43:34.464Z</time></trkpt><trkpt lat="43.2161989" lon="12.1249289"><ele>359.0</ele><time>2026-05-01T07:43:36.464Z</time></trkpt><trkpt lat="43.2162175" lon="12.1250907"><ele>361.1666666666667</ele><time>2026-05-01T07:43:38.463Z</time></trkpt><trkpt lat="43.2162064" lon="12.1251858"><ele>363.33333333333337</ele><time>2026-05-01T07:43:39.464Z</time></trkpt><trkpt lat="43.2161752" lon="12.1252917"><ele>365.5</ele><time>2026-05-01T07:43:40.464Z</time></trkpt><trkpt lat="43.2161384" lon="12.1254092"><ele>367.6666666666667</ele><time>2026-05-01T07:43:41.463Z</time></trkpt><trkpt lat="43.2160995" lon="12.1255307"><ele>369.8333333333333</ele><time>2026-05-01T07:43:42.464Z</time></trkpt><trkpt lat="43.216067" lon="12.1256384"><ele>372.0</ele><time>2026-05-01T07:43:43.464Z</time></trkpt><trkpt lat="43.2160218" lon="12.1257586"><ele>374.8</ele><time>2026-05-01T07:43:44.464Z</time></trkpt><trkpt lat="43.2159765" lon="12.1258888"><ele>377.6</ele><time>2026-05-01T07:43:45.464Z</time></trkpt><trkpt lat="43.2159239" lon="12.1260305"><ele>380.40000000000003</ele><time>2026-05-01T07:43:46.464Z</time></trkpt><trkpt lat="43.2158771" lon="12.1261556"><ele>383.20000000000005</ele><time>2026-05-01T07:43:47.464Z</time></trkpt><trkpt lat="43.2158325" lon="12.1262763"><ele>386.0</ele><time>2026-05-01T07:43:48.464Z</time></trkpt><trkpt lat="43.2157839" lon="12.1263997"><ele>385.99999999999994</ele><time>2026-05-01T07:43:49.464Z</time></trkpt><trkpt lat="43.2157446" lon="12.1265101"><ele>386.0</ele><time>2026-05-01T07:43:50.464Z</time></trkpt><trkpt lat="43.2157089" lon="12.1266208"><ele>386.0</ele><time>2026-05-01T07:43:51.464Z</time></trkpt><trkpt lat="43.2156737" lon="12.1267145"><ele>386.0</ele><time>2026-05-01T07:43:52.464Z</time></trkpt><trkpt lat="43.2156279" lon="12.1268384"><ele>385.99999999999994</ele><time>2026-05-01T07:43:54.464Z</time></trkpt><trkpt lat="43.2156385" lon="12.1269366"><ele>386.0</ele><time>2026-05-01T07:43:56.463Z</time></trkpt><trkpt lat="43.215705" lon="12.1270036"><ele>387.8333333333333</ele><time>2026-05-01T07:43:58.463Z</time></trkpt><trkpt lat="43.2158038" lon="12.1269847"><ele>389.66666666666663</ele><time>2026-05-01T07:44:00.464Z</time></trkpt><trkpt lat="43.2158648" lon="12.1269523"><ele>391.5</ele><time>2026-05-01T07:44:01.464Z</time></trkpt><trkpt lat="43.2159424" lon="12.1269273"><ele>393.33333333333337</ele><time>2026-05-01T07:44:02.464Z</time></trkpt><trkpt lat="43.2160282" lon="12.1269054"><ele>395.1666666666667</ele><time>2026-05-01T07:44:03.464Z</time></trkpt><trkpt lat="43.2161189" lon="12.1268843"><ele>397.0</ele><time>2026-05-01T07:44:04.463Z</time></trkpt><trkpt lat="43.2162099" lon="12.1268586"><ele>397.0</ele><time>2026-05-01T07:44:05.464Z</time></trkpt><trkpt lat="43.2163006" lon="12.1268518"><ele>397.0</ele><time>2026-05-01T07:44:06.464Z</time></trkpt><trkpt lat="43.2163961" lon="12.1268726"><ele>397.0</ele><time>2026-05-01T07:44:07.464Z</time></trkpt><trkpt lat="43.2164931" lon="12.1269184"><ele>397.0</ele><time>2026-05-01T07:44:08.464Z</time></trkpt><trkpt lat="43.2165822" lon="12.1269751"><ele>397.0</ele><time>2026-05-01T07:44:09.463Z</time></trkpt><trkpt lat="43.2166738" lon="12.1270283"><ele>398.6</ele><time>2026-05-01T07:44:10.464Z</time></trkpt><trkpt lat="43.2167605" lon="12.1271145"><ele>400.20000000000005</ele><time>2026-05-01T07:44:11.464Z</time></trkpt><trkpt lat="43.2168445" lon="12.1272043"><ele>401.8</ele><time>2026-05-01T07:44:12.463Z</time></trkpt><trkpt lat="43.2169283" lon="12.1272872"><ele>403.4</ele><time>2026-05-01T07:44:13.463Z</time></trkpt><trkpt lat="43.2170053" lon="12.1273574"><ele>405.0</ele><time>2026-05-01T07:44:14.464Z</time></trkpt><trkpt lat="43.2170695" lon="12.127424"><ele>407.3333333333333</ele><time>2026-05-01T07:44:15.464Z</time></trkpt><trkpt lat="43.217121" lon="12.1274755"><ele>409.66666666666663</ele><time>2026-05-01T07:44:16.463Z</time></trkpt><trkpt lat="43.2171433" lon="12.1275772"><ele>412.0</ele><time>2026-05-01T07:44:18.463Z</time></trkpt><trkpt lat="43.2170897" lon="12.1277231"><ele>414.3333333333333</ele><time>2026-05-01T07:44:20.464Z</time></trkpt><trkpt lat="43.217041" lon="12.127784"><ele>416.66666666666663</ele><time>2026-05-01T07:44:21.464Z</time></trkpt><trkpt lat="43.2169903" lon="12.1278545"><ele>419.0</ele><time>2026-05-01T07:44:22.464Z</time></trkpt><trkpt lat="43.2169472" lon="12.1279513"><ele>419.0</ele><time>2026-05-01T07:44:23.463Z</time></trkpt><trkpt lat="43.2169156" lon="12.1280638"><ele>419.0</ele><time>2026-05-01T07:44:24.464Z</time></trkpt><trkpt lat="43.2168745" lon="12.1281892"><ele>419.0</ele><time>2026-05-01T07:44:25.464Z</time></trkpt><trkpt lat="43.2168397" lon="12.1283447"><ele>419.0</ele><time>2026-05-01T07:44:26.464Z</time></trkpt><trkpt lat="43.2168068" lon="12.1285032"><ele>419.0</ele><time>2026-05-01T07:44:27.464Z</time></trkpt><trkpt lat="43.2167822" lon="12.1286566"><ele>421.5</ele><time>2026-05-01T07:44:28.463Z</time></trkpt><trkpt lat="43.2167672" lon="12.1288158"><ele>424.0</ele><time>2026-05-01T07:44:29.463Z</time></trkpt><trkpt lat="43.2167494" lon="12.1289678"><ele>426.5</ele><time>2026-05-01T07:44:30.464Z</time></trkpt><trkpt lat="43.2167361" lon="12.1291243"><ele>429.0</ele><time>2026-05-01T07:44:31.463Z</time></trkpt><trkpt lat="43.2167366" lon="12.1292899"><ele>431.2</ele><time>2026-05-01T07:44:32.463Z</time></trkpt><trkpt lat="43.2167424" lon="12.129451"><ele>433.4</ele><time>2026-05-01T07:44:33.464Z</time></trkpt><trkpt lat="43.2167612" lon="12.1296065"><ele>435.6</ele><time>2026-05-01T07:44:34.463Z</time></trkpt><trkpt lat="43.2167958" lon="12.1297533"><ele>437.8</ele><time>2026-05-01T07:44:35.464Z</time></trkpt><trkpt lat="43.2168351" lon="12.1298858"><ele>440.0</ele><time>2026-05-01T07:44:36.464Z</time></trkpt><trkpt lat="43.2168762" lon="12.1300307"><ele>440.6</ele><time>2026-05-01T07:44:37.463Z</time></trkpt><trkpt lat="43.216915" lon="12.1301655"><ele>441.2</ele><time>2026-05-01T07:44:38.464Z</time></trkpt><trkpt lat="43.2169374" lon="12.1302852"><ele>441.79999999999995</ele><time>2026-05-01T07:44:39.464Z</time></trkpt><trkpt lat="43.2169483" lon="12.1303746"><ele>442.4</ele><time>2026-05-01T07:44:40.464Z</time></trkpt><trkpt lat="43.2170022" lon="12.130509"><ele>443.0</ele><time>2026-05-01T07:44:42.464Z</time></trkpt><trkpt lat="43.2170913" lon="12.130517"><ele>442.99999999999994</ele><time>2026-05-01T07:44:44.463Z</time></trkpt><trkpt lat="43.2171559" lon="12.1304268"><ele>443.0</ele><time>2026-05-01T07:44:46.464Z</time></trkpt><trkpt lat="43.2172007" lon="12.1302836"><ele>443.0</ele><time>2026-05-01T07:44:48.464Z</time></trkpt><trkpt lat="43.217233" lon="12.1301999"><ele>443.0</ele><time>2026-05-01T07:44:49.464Z</time></trkpt><trkpt lat="43.2172695" lon="12.1301101"><ele>442.99999999999994</ele><time>2026-05-01T07:44:50.464Z</time></trkpt><trkpt lat="43.2173135" lon="12.1300132"><ele>443.0</ele><time>2026-05-01T07:44:51.464Z</time></trkpt><trkpt lat="43.2173735" lon="12.129919"><ele>445.59999999999997</ele><time>2026-05-01T07:44:52.464Z</time></trkpt><trkpt lat="43.2174419" lon="12.129831"><ele>448.19999999999993</ele><time>2026-05-01T07:44:53.463Z</time></trkpt><trkpt lat="43.2175157" lon="12.1297656"><ele>450.8</ele><time>2026-05-01T07:44:54.464Z</time></trkpt><trkpt lat="43.2175815" lon="12.1297356"><ele>453.4</ele><time>2026-05-01T07:44:55.464Z</time></trkpt><trkpt lat="43.2176864" lon="12.1297485"><ele>456.0</ele><time>2026-05-01T07:44:57.464Z</time></trkpt><trkpt lat="43.2177489" lon="12.1298768"><ele>457.1666666666667</ele><time>2026-05-01T07:44:59.464Z</time></trkpt><trkpt lat="43.2177836" lon="12.1299509"><ele>458.33333333333337</ele><time>2026-05-01T07:45:00.464Z</time></trkpt><trkpt lat="43.2178238" lon="12.1300345"><ele>459.5</ele><time>2026-05-01T07:45:01.463Z</time></trkpt><trkpt lat="43.2178763" lon="12.130106"><ele>460.6666666666667</ele><time>2026-05-01T07:45:02.464Z</time></trkpt><trkpt lat="43.2179409" lon="12.1301739"><ele>461.83333333333337</ele><time>2026-05-01T07:45:03.464Z</time></trkpt><trkpt lat="43.2180053" lon="12.1302399"><ele>463.0</ele><time>2026-05-01T07:45:04.464Z</time></trkpt><trkpt lat="43.2180708" lon="12.1302947"><ele>463.00000000000006</ele><time>2026-05-01T07:45:05.464Z</time></trkpt><trkpt lat="43.2181335" lon="12.1303442"><ele>463.0</ele><time>2026-05-01T07:45:06.463Z</time></trkpt><trkpt lat="43.2181904" lon="12.1304168"><ele>463.0</ele><time>2026-05-01T07:45:08.463Z</time></trkpt><trkpt lat="43.2182107" lon="12.1305047"><ele>463.0</ele><time>2026-05-01T07:45:33.465Z</time></trkpt><trkpt lat="43.2181841" lon="12.1306281"><ele>463.00000000000006</ele><time>2026-05-01T07:45:35.465Z</time></trkpt><trkpt lat="43.2181584" lon="12.1307809"><ele>463.0</ele><time>2026-05-01T07:45:37.465Z</time></trkpt><trkpt lat="43.2181622" lon="12.1308869"><ele>468.2</ele><time>2026-05-01T07:45:38.465Z</time></trkpt><trkpt lat="43.2181709" lon="12.1310021"><ele>473.4</ele><time>2026-05-01T07:45:39.465Z</time></trkpt><trkpt lat="43.2181881" lon="12.1311287"><ele>478.59999999999997</ele><time>2026-05-01T07:45:40.465Z</time></trkpt><trkpt lat="43.2182043" lon="12.1312715"><ele>483.79999999999995</ele><time>2026-05-01T07:45:41.465Z</time></trkpt><trkpt lat="43.2182203" lon="12.1314036"><ele>489.0</ele><time>2026-05-01T07:45:42.465Z</time></trkpt><trkpt lat="43.2182255" lon="12.1315309"><ele>490.0</ele><time>2026-05-01T07:45:43.465Z</time></trkpt><trkpt lat="43.2182416" lon="12.1316359"><ele>491.0</ele><time>2026-05-01T07:45:44.465Z</time></trkpt><trkpt lat="43.2182654" lon="12.1317369"><ele>492.0</ele><time>2026-05-01T07:45:45.465Z</time></trkpt><trkpt lat="43.2182993" lon="12.1318378"><ele>493.0</ele><time>2026-05-01T07:45:46.464Z</time></trkpt><trkpt lat="43.2183277" lon="12.1319252"><ele>494.0</ele><time>2026-05-01T07:45:47.465Z</time></trkpt><trkpt lat="43.2183727" lon="12.1320621"><ele>495.0</ele><time>2026-05-01T07:45:49.464Z</time></trkpt><trkpt lat="43.2184151" lon="12.132189"><ele>495.0</ele><time>2026-05-01T07:45:51.465Z</time></trkpt><trkpt lat="43.2184725" lon="12.132242"><ele>495.0</ele><time>2026-05-01T07:45:53.465Z</time></trkpt><trkpt lat="43.2185437" lon="12.1321751"><ele>495.0</ele><time>2026-05-01T07:45:56.464Z</time></trkpt><trkpt lat="43.2185507" lon="12.1320535"><ele>495.0</ele><time>2026-05-01T07:45:58.465Z</time></trkpt><trkpt lat="43.2185642" lon="12.1319631"><ele>495.0</ele><time>2026-05-01T07:45:59.465Z</time></trkpt><trkpt lat="43.2185879" lon="12.1318625"><ele>495.0</ele><time>2026-05-01T07:46:00.464Z</time></trkpt><trkpt lat="43.218656" lon="12.1317225"><ele>495.0</ele><time>2026-05-01T07:46:02.465Z</time></trkpt><trkpt lat="43.218704" lon="12.1316576"><ele>495.0</ele><time>2026-05-01T07:46:03.465Z</time></trkpt><trkpt lat="43.2187855" lon="12.1315752"><ele>495.0</ele><time>2026-05-01T07:46:05.465Z</time></trkpt><trkpt lat="43.2188513" lon="12.1316294"><ele>495.0</ele><time>2026-05-01T07:46:07.465Z</time></trkpt><trkpt lat="43.2189114" lon="12.1317379"><ele>495.0</ele><time>2026-05-01T07:46:09.465Z</time></trkpt><trkpt lat="43.2189459" lon="12.131818"><ele>495.0</ele><time>2026-05-01T07:46:10.465Z</time></trkpt><trkpt lat="43.218985" lon="12.1319301"><ele>499.0</ele><time>2026-05-01T07:46:11.464Z</time></trkpt><trkpt lat="43.2190293" lon="12.1320376"><ele>503.0</ele><time>2026-05-01T07:46:12.465Z</time></trkpt><trkpt lat="43.2190797" lon="12.1321547"><ele>507.0</ele><time>2026-05-01T07:46:13.465Z</time></trkpt><trkpt lat="43.2191297" lon="12.132277"><ele>511.0</ele><time>2026-05-01T07:46:14.465Z</time></trkpt><trkpt lat="43.2191715" lon="12.1323939"><ele>515.0</ele><time>2026-05-01T07:46:15.464Z</time></trkpt><trkpt lat="43.2192065" lon="12.1325062"><ele>515.8333333333333</ele><time>2026-05-01T07:46:16.465Z</time></trkpt><trkpt lat="43.2192319" lon="12.1326022"><ele>516.6666666666666</ele><time>2026-05-01T07:46:17.465Z</time></trkpt><trkpt lat="43.219245" lon="12.1326966"><ele>517.5</ele><time>2026-05-01T07:46:18.464Z</time></trkpt><trkpt lat="43.2192502" lon="12.132788"><ele>518.3333333333334</ele><time>2026-05-01T07:46:19.465Z</time></trkpt><trkpt lat="43.2192526" lon="12.1328748"><ele>519.1666666666667</ele><time>2026-05-01T07:46:20.465Z</time></trkpt><trkpt lat="43.219258" lon="12.1330031"><ele>520.0</ele><time>2026-05-01T07:46:22.464Z</time></trkpt><trkpt lat="43.2192682" lon="12.1331219"><ele>520.0</ele><time>2026-05-01T07:46:24.464Z</time></trkpt><trkpt lat="43.219274" lon="12.133211"><ele>520.0</ele><time>2026-05-01T07:46:27.465Z</time></trkpt><trkpt lat="43.2192889" lon="12.1333171"><ele>520.0</ele><time>2026-05-01T07:46:45.464Z</time></trkpt><trkpt lat="43.2193075" lon="12.1334022"><ele>520.0</ele><time>2026-05-01T07:46:46.465Z</time></trkpt><trkpt lat="43.2193359" lon="12.1335042"><ele>520.0</ele><time>2026-05-01T07:46:47.464Z</time></trkpt><trkpt lat="43.219365" lon="12.1336005"><ele>520.0</ele><time>2026-05-01T07:46:48.465Z</time></trkpt><trkpt lat="43.2193967" lon="12.1337128"><ele>520.0</ele><time>2026-05-01T07:46:49.465Z</time></trkpt><trkpt lat="43.2194302" lon="12.1338308"><ele>520.0</ele><time>2026-05-01T07:46:50.465Z</time></trkpt><trkpt lat="43.2194616" lon="12.1339441"><ele>520.0</ele><time>2026-05-01T07:46:51.465Z</time></trkpt><trkpt lat="43.2194921" lon="12.1340489"><ele>520.0</ele><time>2026-05-01T07:46:52.465Z</time></trkpt><trkpt lat="43.2195334" lon="12.1341505"><ele>520.0</ele><time>2026-05-01T07:46:53.465Z</time></trkpt><trkpt lat="43.2195854" lon="12.1342413"><ele>520.0</ele><time>2026-05-01T07:46:54.465Z</time></trkpt><trkpt lat="43.2196453" lon="12.1343388"><ele>519.3333333333334</ele><time>2026-05-01T07:46:55.465Z</time></trkpt><trkpt lat="43.2197116" lon="12.1344196"><ele>518.6666666666667</ele><time>2026-05-01T07:46:56.464Z</time></trkpt><trkpt lat="43.2197693" lon="12.1344932"><ele>518.0</ele><time>2026-05-01T07:46:57.465Z</time></trkpt><trkpt lat="43.2198191" lon="12.134552"><ele>517.3333333333334</ele><time>2026-05-01T07:46:58.464Z</time></trkpt><trkpt lat="43.2198833" lon="12.134662"><ele>516.6666666666666</ele><time>2026-05-01T07:47:00.465Z</time></trkpt><trkpt lat="43.2198327" lon="12.1347364"><ele>516.0</ele><time>2026-05-01T07:47:02.465Z</time></trkpt><trkpt lat="43.2197063" lon="12.1347794"><ele>516.0</ele><time>2026-05-01T07:47:04.465Z</time></trkpt><trkpt lat="43.2196248" lon="12.1348124"><ele>516.0</ele><time>2026-05-01T07:47:05.465Z</time></trkpt><trkpt lat="43.219545" lon="12.1348644"><ele>516.0</ele><time>2026-05-01T07:47:06.465Z</time></trkpt><trkpt lat="43.2194953" lon="12.1349308"><ele>516.0</ele><time>2026-05-01T07:47:07.465Z</time></trkpt><trkpt lat="43.2194715" lon="12.1350482"><ele>516.0</ele><time>2026-05-01T07:47:09.465Z</time></trkpt><trkpt lat="43.2195355" lon="12.1350686"><ele>516.0</ele><time>2026-05-01T07:47:12.465Z</time></trkpt><trkpt lat="43.2196075" lon="12.1350041"><ele>517.5</ele><time>2026-05-01T07:47:14.465Z</time></trkpt><trkpt lat="43.2196864" lon="12.1350219"><ele>519.0</ele><time>2026-05-01T07:47:16.465Z</time></trkpt><trkpt lat="43.2197433" lon="12.1351493"><ele>520.5</ele><time>2026-05-01T07:47:18.465Z</time></trkpt><trkpt lat="43.2197654" lon="12.1352358"><ele>522.0</ele><time>2026-05-01T07:47:19.464Z</time></trkpt><trkpt lat="43.2198063" lon="12.135314"><ele>523.5</ele><time>2026-05-01T07:47:20.464Z</time></trkpt><trkpt lat="43.2198657" lon="12.1353919"><ele>525.0</ele><time>2026-05-01T07:47:21.465Z</time></trkpt><trkpt lat="43.2199316" lon="12.1354466"><ele>528.6666666666666</ele><time>2026-05-01T07:47:22.465Z</time></trkpt><trkpt lat="43.2200105" lon="12.1354762"><ele>532.3333333333334</ele><time>2026-05-01T07:47:23.464Z</time></trkpt><trkpt lat="43.2201052" lon="12.1354897"><ele>536.0</ele><time>2026-05-01T07:47:24.465Z</time></trkpt><trkpt lat="43.2201998" lon="12.1354963"><ele>539.6666666666667</ele><time>2026-05-01T07:47:25.465Z</time></trkpt><trkpt lat="43.2202875" lon="12.1354927"><ele>543.3333333333334</ele><time>2026-05-01T07:47:26.465Z</time></trkpt><trkpt lat="43.2203607" lon="12.1354924"><ele>547.0</ele><time>2026-05-01T07:47:27.465Z</time></trkpt><trkpt lat="43.2204279" lon="12.1355147"><ele>547.0</ele><time>2026-05-01T07:47:28.465Z</time></trkpt><trkpt lat="43.2204902" lon="12.1355674"><ele>547.0</ele><time>2026-05-01T07:47:29.464Z</time></trkpt><trkpt lat="43.2205552" lon="12.1356254"><ele>547.0</ele><time>2026-05-01T07:47:30.464Z</time></trkpt><trkpt lat="43.2206148" lon="12.1356807"><ele>547.0</ele><time>2026-05-01T07:47:31.465Z</time></trkpt><trkpt lat="43.2206619" lon="12.1357477"><ele>547.0</ele><time>2026-05-01T07:47:32.464Z</time></trkpt><trkpt lat="43.2207034" lon="12.1358313"><ele>547.0</ele><time>2026-05-01T07:47:33.465Z</time></trkpt><trkpt lat="43.2207459" lon="12.1359231"><ele>547.0</ele><time>2026-05-01T07:47:34.465Z</time></trkpt><trkpt lat="43.2207814" lon="12.1360211"><ele>552.6</ele><time>2026-05-01T07:47:35.464Z</time></trkpt><trkpt lat="43.2208189" lon="12.1361058"><ele>558.2</ele><time>2026-05-01T07:47:36.465Z</time></trkpt><trkpt lat="43.2208258" lon="12.1362759"><ele>563.8</ele><time>2026-05-01T07:47:38.465Z</time></trkpt><trkpt lat="43.2208126" lon="12.1363785"><ele>569.4</ele><time>2026-05-01T07:47:39.465Z</time></trkpt><trkpt lat="43.2207954" lon="12.1364978"><ele>575.0</ele><time>2026-05-01T07:47:40.465Z</time></trkpt><trkpt lat="43.2207602" lon="12.1366444"><ele>576.6</ele><time>2026-05-01T07:47:41.465Z</time></trkpt><trkpt lat="43.2207192" lon="12.1367935"><ele>578.2</ele><time>2026-05-01T07:47:42.465Z</time></trkpt><trkpt lat="43.2206722" lon="12.1369219"><ele>579.8</ele><time>2026-05-01T07:47:43.465Z</time></trkpt><trkpt lat="43.220625" lon="12.1370345"><ele>581.4</ele><time>2026-05-01T07:47:44.465Z</time></trkpt><trkpt lat="43.220594" lon="12.1371404"><ele>583.0</ele><time>2026-05-01T07:47:45.464Z</time></trkpt><trkpt lat="43.2205598" lon="12.1372422"><ele>581.8333333333334</ele><time>2026-05-01T07:47:46.465Z</time></trkpt><trkpt lat="43.2205171" lon="12.1373437"><ele>580.6666666666667</ele><time>2026-05-01T07:47:47.465Z</time></trkpt><trkpt lat="43.2204608" lon="12.1374408"><ele>579.5</ele><time>2026-05-01T07:47:48.465Z</time></trkpt><trkpt lat="43.2203963" lon="12.137522"><ele>578.3333333333334</ele><time>2026-05-01T07:47:49.465Z</time></trkpt><trkpt lat="43.2203213" lon="12.1375845"><ele>577.1666666666666</ele><time>2026-05-01T07:47:50.465Z</time></trkpt><trkpt lat="43.2202483" lon="12.1376425"><ele>576.0</ele><time>2026-05-01T07:47:51.465Z</time></trkpt><trkpt lat="43.2201811" lon="12.1376875"><ele>576.0</ele><time>2026-05-01T07:47:52.465Z</time></trkpt><trkpt lat="43.2201198" lon="12.1377519"><ele>576.0</ele><time>2026-05-01T07:47:53.464Z</time></trkpt><trkpt lat="43.2200861" lon="12.1378315"><ele>576.0</ele><time>2026-05-01T07:47:54.465Z</time></trkpt><trkpt lat="43.2200597" lon="12.1379253"><ele>576.0</ele><time>2026-05-01T07:47:55.465Z</time></trkpt><trkpt lat="43.2200501" lon="12.1380298"><ele>576.0</ele><time>2026-05-01T07:47:56.465Z</time></trkpt><trkpt lat="43.2200527" lon="12.1381384"><ele>576.0</ele><time>2026-05-01T07:47:57.465Z</time></trkpt><trkpt lat="43.220074" lon="12.1382512"><ele>576.6</ele><time>2026-05-01T07:47:58.465Z</time></trkpt><trkpt lat="43.2201045" lon="12.1383683"><ele>577.2</ele><time>2026-05-01T07:47:59.465Z</time></trkpt><trkpt lat="43.2201423" lon="12.1384877"><ele>577.8</ele><time>2026-05-01T07:48:00.465Z</time></trkpt><trkpt lat="43.2201871" lon="12.1386018"><ele>578.4</ele><time>2026-05-01T07:48:01.465Z</time></trkpt><trkpt lat="43.2202306" lon="12.1387089"><ele>579.0</ele><time>2026-05-01T07:48:02.464Z</time></trkpt><trkpt lat="43.2202777" lon="12.1388092"><ele>579.0</ele><time>2026-05-01T07:48:03.465Z</time></trkpt><trkpt lat="43.2203105" lon="12.1389047"><ele>579.0</ele><time>2026-05-01T07:48:04.465Z</time></trkpt><trkpt lat="43.2203394" lon="12.1389887"><ele>579.0</ele><time>2026-05-01T07:48:05.465Z</time></trkpt><trkpt lat="43.2203932" lon="12.1391286"><ele>579.0</ele><time>2026-05-01T07:48:07.465Z</time></trkpt><trkpt lat="43.2204529" lon="12.1392757"><ele>579.0</ele><time>2026-05-01T07:48:09.465Z</time></trkpt><trkpt lat="43.2204278" lon="12.1394105"><ele>580.8333333333334</ele><time>2026-05-01T07:48:11.464Z</time></trkpt><trkpt lat="43.2203396" lon="12.139473"><ele>582.6666666666666</ele><time>2026-05-01T07:48:13.464Z</time></trkpt><trkpt lat="43.2202664" lon="12.1394944"><ele>584.5</ele><time>2026-05-01T07:48:14.464Z</time></trkpt><trkpt lat="43.2201864" lon="12.1395021"><ele>586.3333333333333</ele><time>2026-05-01T07:48:15.465Z</time></trkpt><trkpt lat="43.2201057" lon="12.1395089"><ele>588.1666666666666</ele><time>2026-05-01T07:48:16.465Z</time></trkpt><trkpt lat="43.2200359" lon="12.1395379"><ele>590.0</ele><time>2026-05-01T07:48:17.464Z</time></trkpt><trkpt lat="43.2199795" lon="12.1395872"><ele>590.0</ele><time>2026-05-01T07:48:18.465Z</time></trkpt><trkpt lat="43.2199342" lon="12.13967"><ele>590.0</ele><time>2026-05-01T07:48:19.465Z</time></trkpt><trkpt lat="43.2198903" lon="12.1397617"><ele>590.0</ele><time>2026-05-01T07:48:20.464Z</time></trkpt><trkpt lat="43.2198454" lon="12.139873"><ele>590.0</ele><time>2026-05-01T07:48:21.464Z</time></trkpt><trkpt lat="43.219806" lon="12.1399969"><ele>590.0</ele><time>2026-05-01T07:48:22.465Z</time></trkpt><trkpt lat="43.2197526" lon="12.1401375"><ele>590.8</ele><time>2026-05-01T07:48:23.464Z</time></trkpt><trkpt lat="43.2197318" lon="12.1402557"><ele>591.6</ele><time>2026-05-01T07:48:24.465Z</time></trkpt><trkpt lat="43.2197195" lon="12.1403784"><ele>592.4</ele><time>2026-05-01T07:48:25.465Z</time></trkpt><trkpt lat="43.2197133" lon="12.1404984"><ele>593.2</ele><time>2026-05-01T07:48:26.464Z</time></trkpt><trkpt lat="43.2197218" lon="12.140631"><ele>594.0</ele><time>2026-05-01T07:48:27.464Z</time></trkpt><trkpt lat="43.2197374" lon="12.14078"><ele>594.0</ele><time>2026-05-01T07:48:28.465Z</time></trkpt><trkpt lat="43.2197502" lon="12.1409213"><ele>594.0</ele><time>2026-05-01T07:48:29.465Z</time></trkpt><trkpt lat="43.2197522" lon="12.1410505"><ele>594.0</ele><time>2026-05-01T07:48:30.465Z</time></trkpt><trkpt lat="43.2197553" lon="12.1411837"><ele>594.0</ele><time>2026-05-01T07:48:31.464Z</time></trkpt><trkpt lat="43.2197682" lon="12.1413195"><ele>594.0</ele><time>2026-05-01T07:48:32.465Z</time></trkpt><trkpt lat="43.2197887" lon="12.1414559"><ele>597.4</ele><time>2026-05-01T07:48:33.465Z</time></trkpt><trkpt lat="43.2198346" lon="12.141603"><ele>600.8</ele><time>2026-05-01T07:48:34.465Z</time></trkpt><trkpt lat="43.2198825" lon="12.1417386"><ele>604.2</ele><time>2026-05-01T07:48:35.464Z</time></trkpt><trkpt lat="43.2199347" lon="12.1418734"><ele>607.6</ele><time>2026-05-01T07:48:36.465Z</time></trkpt><trkpt lat="43.2199849" lon="12.1419943"><ele>611.0</ele><time>2026-05-01T07:48:37.465Z</time></trkpt><trkpt lat="43.2200369" lon="12.142114"><ele>611.0</ele><time>2026-05-01T07:48:38.465Z</time></trkpt><trkpt lat="43.2201037" lon="12.1422179"><ele>611.0</ele><time>2026-05-01T07:48:39.465Z</time></trkpt><trkpt lat="43.2201686" lon="12.1423144"><ele>611.0</ele><time>2026-05-01T07:48:40.465Z</time></trkpt><trkpt lat="43.2202256" lon="12.1423931"><ele>611.0</ele><time>2026-05-01T07:48:41.465Z</time></trkpt><trkpt lat="43.2202809" lon="12.142518"><ele>611.0</ele><time>2026-05-01T07:48:43.465Z</time></trkpt><trkpt lat="43.2203" lon="12.1426056"><ele>611.0</ele><time>2026-05-01T07:48:45.465Z</time></trkpt><trkpt lat="43.220382" lon="12.1426389"><ele>611.0</ele><time>2026-05-01T07:49:39.465Z</time></trkpt><trkpt lat="43.2204739" lon="12.1425915"><ele>611.0</ele><time>2026-05-01T07:49:41.464Z</time></trkpt><trkpt lat="43.2205319" lon="12.1425299"><ele>611.0</ele><time>2026-05-01T07:49:42.464Z</time></trkpt><trkpt lat="43.2205937" lon="12.1424595"><ele>611.0</ele><time>2026-05-01T07:49:43.465Z</time></trkpt><trkpt lat="43.2206533" lon="12.1423933"><ele>611.0</ele><time>2026-05-01T07:49:44.465Z</time></trkpt><trkpt lat="43.220723" lon="12.1423327"><ele>613.1666666666666</ele><time>2026-05-01T07:49:45.464Z</time></trkpt><trkpt lat="43.2208047" lon="12.1422861"><ele>615.3333333333333</ele><time>2026-05-01T07:49:46.465Z</time></trkpt><trkpt lat="43.2208924" lon="12.1422511"><ele>617.5</ele><time>2026-05-01T07:49:47.465Z</time></trkpt><trkpt lat="43.2209871" lon="12.1422253"><ele>619.6666666666666</ele><time>2026-05-01T07:49:48.465Z</time></trkpt><trkpt lat="43.221066" lon="12.1422001"><ele>621.8333333333334</ele><time>2026-05-01T07:49:49.465Z</time></trkpt><trkpt lat="43.2211444" lon="12.1421627"><ele>624.0</ele><time>2026-05-01T07:49:50.465Z</time></trkpt><trkpt lat="43.2212294" lon="12.1421148"><ele>624.0</ele><time>2026-05-01T07:49:51.465Z</time></trkpt><trkpt lat="43.2212976" lon="12.1420597"><ele>624.0</ele><time>2026-05-01T07:49:52.465Z</time></trkpt><trkpt lat="43.2213541" lon="12.1419924"><ele>624.0</ele><time>2026-05-01T07:49:53.465Z</time></trkpt><trkpt lat="43.2214019" lon="12.1419249"><ele>624.0</ele><time>2026-05-01T07:49:54.465Z</time></trkpt><trkpt lat="43.2214941" lon="12.1418548"><ele>624.0</ele><time>2026-05-01T07:49:56.464Z</time></trkpt><trkpt lat="43.2215876" lon="12.1417844"><ele>624.0</ele><time>2026-05-01T07:49:58.464Z</time></trkpt><trkpt lat="43.2216424" lon="12.1417311"><ele>624.3333333333334</ele><time>2026-05-01T07:49:59.465Z</time></trkpt><trkpt lat="43.2216999" lon="12.1416851"><ele>624.6666666666666</ele><time>2026-05-01T07:50:00.465Z</time></trkpt><trkpt lat="43.221811" lon="12.1415965"><ele>625.0</ele><time>2026-05-01T07:50:02.465Z</time></trkpt><trkpt lat="43.2218698" lon="12.1415303"><ele>625.3333333333333</ele><time>2026-05-01T07:50:03.465Z</time></trkpt><trkpt lat="43.2219271" lon="12.14144"><ele>625.6666666666666</ele><time>2026-05-01T07:50:05.465Z</time></trkpt><trkpt lat="43.2219883" lon="12.1414049"><ele>626.0</ele><time>2026-05-01T07:50:07.465Z</time></trkpt><trkpt lat="43.2220299" lon="12.1413328"><ele>626.0</ele><time>2026-05-01T07:50:09.465Z</time></trkpt><trkpt lat="43.2221152" lon="12.1412053"><ele>626.0</ele><time>2026-05-01T07:50:11.465Z</time></trkpt><trkpt lat="43.2221609" lon="12.1411281"><ele>626.0</ele><time>2026-05-01T07:50:12.464Z</time></trkpt><trkpt lat="43.222218" lon="12.1410292"><ele>626.0</ele><time>2026-05-01T07:50:13.465Z</time></trkpt><trkpt lat="43.2222626" lon="12.1409291"><ele>626.0</ele><time>2026-05-01T07:50:14.465Z</time></trkpt><trkpt lat="43.2222877" lon="12.1408268"><ele>626.0</ele><time>2026-05-01T07:50:15.465Z</time></trkpt><trkpt lat="43.2223037" lon="12.1407267"><ele>626.0</ele><time>2026-05-01T07:50:16.464Z</time></trkpt><trkpt lat="43.2223174" lon="12.1406313"><ele>626.0</ele><time>2026-05-01T07:50:17.465Z</time></trkpt><trkpt lat="43.2223306" lon="12.1405405"><ele>626.0</ele><time>2026-05-01T07:50:18.465Z</time></trkpt><trkpt lat="43.2223389" lon="12.1404346"><ele>626.0</ele><time>2026-05-01T07:50:19.464Z</time></trkpt><trkpt lat="43.2223387" lon="12.1403347"><ele>626.0</ele><time>2026-05-01T07:50:20.465Z</time></trkpt><trkpt lat="43.2223431" lon="12.1402331"><ele>626.0</ele><time>2026-05-01T07:50:21.464Z</time></trkpt><trkpt lat="43.2223526" lon="12.1401181"><ele>627.0</ele><time>2026-05-01T07:50:22.465Z</time></trkpt><trkpt lat="43.2223596" lon="12.1399993"><ele>628.0</ele><time>2026-05-01T07:50:23.465Z</time></trkpt><trkpt lat="43.222379" lon="12.1399171"><ele>629.0</ele><time>2026-05-01T07:50:24.465Z</time></trkpt><trkpt lat="43.2224677" lon="12.1397735"><ele>630.0</ele><time>2026-05-01T07:50:26.465Z</time></trkpt><trkpt lat="43.2225215" lon="12.1396917"><ele>631.0</ele><time>2026-05-01T07:50:27.465Z</time></trkpt><trkpt lat="43.2225792" lon="12.1396362"><ele>632.0</ele><time>2026-05-01T07:50:28.465Z</time></trkpt><trkpt lat="43.2226309" lon="12.1395684"><ele>632.0</ele><time>2026-05-01T07:50:29.465Z</time></trkpt><trkpt lat="43.222701" lon="12.1394964"><ele>632.0</ele><time>2026-05-01T07:50:30.464Z</time></trkpt><trkpt lat="43.2227712" lon="12.1394089"><ele>632.0</ele><time>2026-05-01T07:50:31.465Z</time></trkpt><trkpt lat="43.2228397" lon="12.1393217"><ele>632.0</ele><time>2026-05-01T07:50:32.465Z</time></trkpt><trkpt lat="43.2229149" lon="12.1392389"><ele>632.0</ele><time>2026-05-01T07:50:33.465Z</time></trkpt><trkpt lat="43.2229809" lon="12.1391645"><ele>632.0</ele><time>2026-05-01T07:50:34.465Z</time></trkpt><trkpt lat="43.2230387" lon="12.139085"><ele>632.0</ele><time>2026-05-01T07:50:35.465Z</time></trkpt><trkpt lat="43.2230968" lon="12.1389888"><ele>632.0</ele><time>2026-05-01T07:50:36.465Z</time></trkpt><trkpt lat="43.2231526" lon="12.1388892"><ele>632.0</ele><time>2026-05-01T07:50:37.464Z</time></trkpt><trkpt lat="43.2231929" lon="12.1387953"><ele>632.0</ele><time>2026-05-01T07:50:38.465Z</time></trkpt><trkpt lat="43.2232173" lon="12.1387056"><ele>632.0</ele><time>2026-05-01T07:50:39.465Z</time></trkpt><trkpt lat="43.2232382" lon="12.1386061"><ele>633.3333333333333</ele><time>2026-05-01T07:50:40.464Z</time></trkpt><trkpt lat="43.2232713" lon="12.1384939"><ele>634.6666666666666</ele><time>2026-05-01T07:50:41.464Z</time></trkpt><trkpt lat="43.2233012" lon="12.1383832"><ele>636.0</ele><time>2026-05-01T07:50:42.465Z</time></trkpt><trkpt lat="43.2233306" lon="12.1382762"><ele>637.3333333333334</ele><time>2026-05-01T07:50:43.465Z</time></trkpt><trkpt lat="43.2233507" lon="12.1381612"><ele>638.6666666666667</ele><time>2026-05-01T07:50:44.464Z</time></trkpt><trkpt lat="43.2233625" lon="12.1380445"><ele>640.0</ele><time>2026-05-01T07:50:45.464Z</time></trkpt><trkpt lat="43.2233754" lon="12.1379287"><ele>640.6666666666667</ele><time>2026-05-01T07:50:46.465Z</time></trkpt><trkpt lat="43.2233967" lon="12.1378191"><ele>641.3333333333334</ele><time>2026-05-01T07:50:47.465Z</time></trkpt><trkpt lat="43.2234205" lon="12.1377141"><ele>642.0</ele><time>2026-05-01T07:50:48.465Z</time></trkpt><trkpt lat="43.2234455" lon="12.1376104"><ele>642.6666666666666</ele><time>2026-05-01T07:50:49.465Z</time></trkpt><trkpt lat="43.2234487" lon="12.1375229"><ele>643.3333333333333</ele><time>2026-05-01T07:50:50.464Z</time></trkpt><trkpt lat="43.2234454" lon="12.1373838"><ele>644.0</ele><time>2026-05-01T07:50:52.464Z</time></trkpt><trkpt lat="43.2234417" lon="12.1372914"><ele>644.0</ele><time>2026-05-01T07:50:53.465Z</time></trkpt><trkpt lat="43.223441" lon="12.1371941"><ele>644.0</ele><time>2026-05-01T07:50:54.464Z</time></trkpt><trkpt lat="43.2234617" lon="12.1371027"><ele>644.0</ele><time>2026-05-01T07:50:55.465Z</time></trkpt><trkpt lat="43.2235051" lon="12.1370176"><ele>644.0</ele><time>2026-05-01T07:50:57.465Z</time></trkpt><trkpt lat="43.2235908" lon="12.1370095"><ele>644.0</ele><time>2026-05-01T07:50:59.465Z</time></trkpt><trkpt lat="43.2237085" lon="12.1370411"><ele>644.0</ele><time>2026-05-01T07:51:01.464Z</time></trkpt><trkpt lat="43.2237672" lon="12.1371003"><ele>644.0</ele><time>2026-05-01T07:51:02.465Z</time></trkpt><trkpt lat="43.223831" lon="12.137177"><ele>644.0</ele><time>2026-05-01T07:51:03.465Z</time></trkpt><trkpt lat="43.2238962" lon="12.137231"><ele>644.0</ele><time>2026-05-01T07:51:04.465Z</time></trkpt><trkpt lat="43.2239701" lon="12.1372587"><ele>644.0</ele><time>2026-05-01T07:51:05.465Z</time></trkpt><trkpt lat="43.2240442" lon="12.1372614"><ele>644.0</ele><time>2026-05-01T07:51:06.465Z</time></trkpt><trkpt lat="43.2241327" lon="12.1372543"><ele>644.0</ele><time>2026-05-01T07:51:07.465Z</time></trkpt><trkpt lat="43.224217" lon="12.1372584"><ele>645.8333333333333</ele><time>2026-05-01T07:51:08.464Z</time></trkpt><trkpt lat="43.2243001" lon="12.1372623"><ele>647.6666666666666</ele><time>2026-05-01T07:51:09.464Z</time></trkpt><trkpt lat="43.2243859" lon="12.1372586"><ele>649.5</ele><time>2026-05-01T07:51:10.465Z</time></trkpt><trkpt lat="43.2244757" lon="12.137244"><ele>651.3333333333334</ele><time>2026-05-01T07:51:11.465Z</time></trkpt><trkpt lat="43.2245638" lon="12.1372341"><ele>653.1666666666667</ele><time>2026-05-01T07:51:12.464Z</time></trkpt><trkpt lat="43.2246496" lon="12.1372288"><ele>655.0</ele><time>2026-05-01T07:51:13.465Z</time></trkpt><trkpt lat="43.224736" lon="12.1372018"><ele>655.0</ele><time>2026-05-01T07:51:14.465Z</time></trkpt><trkpt lat="43.224807" lon="12.137158"><ele>655.0</ele><time>2026-05-01T07:51:15.464Z</time></trkpt><trkpt lat="43.2248679" lon="12.1370794"><ele>655.0</ele><time>2026-05-01T07:51:16.465Z</time></trkpt><trkpt lat="43.2249251" lon="12.136974"><ele>655.0</ele><time>2026-05-01T07:51:17.465Z</time></trkpt><trkpt lat="43.2249588" lon="12.1368509"><ele>655.0</ele><time>2026-05-01T07:51:18.465Z</time></trkpt><trkpt lat="43.2249868" lon="12.1367322"><ele>655.0</ele><time>2026-05-01T07:51:19.465Z</time></trkpt><trkpt lat="43.2250182" lon="12.1366158"><ele>656.3333333333334</ele><time>2026-05-01T07:51:20.465Z</time></trkpt><trkpt lat="43.2250686" lon="12.1365356"><ele>657.6666666666667</ele><time>2026-05-01T07:51:21.465Z</time></trkpt><trkpt lat="43.2251428" lon="12.1364802"><ele>659.0</ele><time>2026-05-01T07:51:22.465Z</time></trkpt><trkpt lat="43.225215" lon="12.136403"><ele>660.3333333333334</ele><time>2026-05-01T07:51:23.464Z</time></trkpt><trkpt lat="43.2252719" lon="12.1363045"><ele>661.6666666666666</ele><time>2026-05-01T07:51:24.465Z</time></trkpt><trkpt lat="43.2253253" lon="12.1362177"><ele>663.0</ele><time>2026-05-01T07:51:25.464Z</time></trkpt><trkpt lat="43.2253926" lon="12.1361402"><ele>663.0</ele><time>2026-05-01T07:51:26.464Z</time></trkpt><trkpt lat="43.2254593" lon="12.136072"><ele>663.0</ele><time>2026-05-01T07:51:27.465Z</time></trkpt><trkpt lat="43.2255244" lon="12.1360276"><ele>663.0</ele><time>2026-05-01T07:51:28.465Z</time></trkpt><trkpt lat="43.2255767" lon="12.1359362"><ele>663.0</ele><time>2026-05-01T07:51:30.465Z</time></trkpt><trkpt lat="43.2255889" lon="12.1357785"><ele>663.0</ele><time>2026-05-01T07:51:32.465Z</time></trkpt><trkpt lat="43.2256358" lon="12.1357056"><ele>663.0</ele><time>2026-05-01T07:51:33.465Z</time></trkpt><trkpt lat="43.2256889" lon="12.1356572"><ele>663.2</ele><time>2026-05-01T07:51:34.465Z</time></trkpt><trkpt lat="43.2257745" lon="12.1355542"><ele>663.4</ele><time>2026-05-01T07:51:36.464Z</time></trkpt><trkpt lat="43.2258541" lon="12.1355039"><ele>663.6</ele><time>2026-05-01T07:53:31.465Z</time></trkpt><trkpt lat="43.2259206" lon="12.1354472"><ele>663.8000000000001</ele><time>2026-05-01T07:53:33.465Z</time></trkpt><trkpt lat="43.2259959" lon="12.1353881"><ele>664.0</ele><time>2026-05-01T07:53:35.464Z</time></trkpt><trkpt lat="43.2260988" lon="12.1353614"><ele>664.0</ele><time>2026-05-01T07:53:37.465Z</time></trkpt><trkpt lat="43.2262282" lon="12.1353417"><ele>664.0</ele><time>2026-05-01T07:53:39.464Z</time></trkpt><trkpt lat="43.2263196" lon="12.1353312"><ele>664.0</ele><time>2026-05-01T07:53:40.464Z</time></trkpt><trkpt lat="43.2264146" lon="12.1353177"><ele>664.0</ele><time>2026-05-01T07:53:41.465Z</time></trkpt><trkpt lat="43.2265062" lon="12.1353144"><ele>664.0</ele><time>2026-05-01T07:53:42.465Z</time></trkpt><trkpt lat="43.2265826" lon="12.1353202"><ele>665.8333333333334</ele><time>2026-05-01T07:53:43.465Z</time></trkpt><trkpt lat="43.2266613" lon="12.1353168"><ele>667.6666666666667</ele><time>2026-05-01T07:53:44.465Z</time></trkpt><trkpt lat="43.2267299" lon="12.1353168"><ele>669.5</ele><time>2026-05-01T07:53:45.465Z</time></trkpt><trkpt lat="43.2268384" lon="12.1353"><ele>671.3333333333334</ele><time>2026-05-01T07:53:47.465Z</time></trkpt><trkpt lat="43.226907" lon="12.1352949"><ele>673.1666666666666</ele><time>2026-05-01T07:53:48.465Z</time></trkpt><trkpt lat="43.2269811" lon="12.1352712"><ele>675.0</ele><time>2026-05-01T07:53:49.464Z</time></trkpt><trkpt lat="43.2270396" lon="12.1352328"><ele>675.0</ele><time>2026-05-01T07:53:50.465Z</time></trkpt><trkpt lat="43.2271233" lon="12.1351198"><ele>675.0</ele><time>2026-05-01T07:53:52.465Z</time></trkpt><trkpt lat="43.2271612" lon="12.1350507"><ele>675.0</ele><time>2026-05-01T07:53:53.465Z</time></trkpt><trkpt lat="43.2272182" lon="12.1349011"><ele>675.0</ele><time>2026-05-01T07:53:55.465Z</time></trkpt><trkpt lat="43.2272873" lon="12.1347609"><ele>675.0</ele><time>2026-05-01T07:53:57.465Z</time></trkpt><trkpt lat="43.2273327" lon="12.134675"><ele>677.6</ele><time>2026-05-01T07:53:58.465Z</time></trkpt><trkpt lat="43.2273491" lon="12.1345749"><ele>680.2</ele><time>2026-05-01T07:53:59.465Z</time></trkpt><trkpt lat="43.2273484" lon="12.134382"><ele>682.8</ele><time>2026-05-01T07:54:01.464Z</time></trkpt><trkpt lat="43.2273229" lon="12.1342697"><ele>685.4</ele><time>2026-05-01T07:54:02.465Z</time></trkpt><trkpt lat="43.2273125" lon="12.1341695"><ele>688.0</ele><time>2026-05-01T07:54:03.465Z</time></trkpt><trkpt lat="43.2273178" lon="12.134062"><ele>686.3333333333334</ele><time>2026-05-01T07:54:04.464Z</time></trkpt><trkpt lat="43.2273514" lon="12.1339476"><ele>684.6666666666667</ele><time>2026-05-01T07:54:05.464Z</time></trkpt><trkpt lat="43.2273782" lon="12.1338263"><ele>683.0</ele><time>2026-05-01T07:54:06.465Z</time></trkpt><trkpt lat="43.2273905" lon="12.1337212"><ele>681.3333333333334</ele><time>2026-05-01T07:54:07.465Z</time></trkpt><trkpt lat="43.2273981" lon="12.1336026"><ele>679.6666666666666</ele><time>2026-05-01T07:54:08.465Z</time></trkpt><trkpt lat="43.2274179" lon="12.1335083"><ele>678.0</ele><time>2026-05-01T07:54:09.465Z</time></trkpt><trkpt lat="43.2274334" lon="12.1334064"><ele>678.0</ele><time>2026-05-01T07:54:10.465Z</time></trkpt><trkpt lat="43.2274333" lon="12.1333088"><ele>678.0</ele><time>2026-05-01T07:54:11.465Z</time></trkpt><trkpt lat="43.2274295" lon="12.1332074"><ele>678.0</ele><time>2026-05-01T07:54:12.465Z</time></trkpt><trkpt lat="43.227422" lon="12.1331202"><ele>678.0</ele><time>2026-05-01T07:54:13.465Z</time></trkpt><trkpt lat="43.2274004" lon="12.1329808"><ele>678.0</ele><time>2026-05-01T07:54:15.465Z</time></trkpt><trkpt lat="43.2273779" lon="12.1328866"><ele>678.0</ele><time>2026-05-01T07:54:17.465Z</time></trkpt><trkpt lat="43.2273851" lon="12.1327953"><ele>676.0</ele><time>2026-05-01T07:54:19.465Z</time></trkpt><trkpt lat="43.2274275" lon="12.1326627"><ele>674.0</ele><time>2026-05-01T07:54:21.465Z</time></trkpt><trkpt lat="43.2274735" lon="12.1325109"><ele>672.0</ele><time>2026-05-01T07:54:23.465Z</time></trkpt><trkpt lat="43.2275312" lon="12.1323844"><ele>670.0</ele><time>2026-05-01T07:54:25.465Z</time></trkpt><trkpt lat="43.2276193" lon="12.1322621"><ele>667.2</ele><time>2026-05-01T07:54:27.465Z</time></trkpt><trkpt lat="43.2277377" lon="12.1322271"><ele>664.4</ele><time>2026-05-01T07:54:29.464Z</time></trkpt><trkpt lat="43.2278059" lon="12.1322254"><ele>661.5999999999999</ele><time>2026-05-01T07:54:30.465Z</time></trkpt><trkpt lat="43.227876" lon="12.132219"><ele>658.8</ele><time>2026-05-01T07:54:31.464Z</time></trkpt><trkpt lat="43.2279585" lon="12.1321958"><ele>656.0</ele><time>2026-05-01T07:54:32.465Z</time></trkpt><trkpt lat="43.2280631" lon="12.1321231"><ele>658.8</ele><time>2026-05-01T07:54:33.464Z</time></trkpt><trkpt lat="43.2281523" lon="12.1320564"><ele>661.5999999999999</ele><time>2026-05-01T07:54:34.465Z</time></trkpt><trkpt lat="43.2282464" lon="12.132005"><ele>664.4</ele><time>2026-05-01T07:54:35.465Z</time></trkpt><trkpt lat="43.2283616" lon="12.1319677"><ele>667.2</ele><time>2026-05-01T07:54:36.465Z</time></trkpt><trkpt lat="43.2284657" lon="12.1319505"><ele>670.0</ele><time>2026-05-01T07:54:37.465Z</time></trkpt><trkpt lat="43.2285656" lon="12.1319381"><ele>670.0</ele><time>2026-05-01T07:54:38.465Z</time></trkpt><trkpt lat="43.2286621" lon="12.1319304"><ele>670.0</ele><time>2026-05-01T07:54:39.464Z</time></trkpt><trkpt lat="43.2287533" lon="12.1318963"><ele>670.0</ele><time>2026-05-01T07:54:40.465Z</time></trkpt><trkpt lat="43.2288201" lon="12.1318201"><ele>670.0</ele><time>2026-05-01T07:54:41.465Z</time></trkpt><trkpt lat="43.2288884" lon="12.1317177"><ele>670.0</ele><time>2026-05-01T07:54:42.465Z</time></trkpt><trkpt lat="43.2289489" lon="12.1316185"><ele>670.3333333333334</ele><time>2026-05-01T07:54:43.464Z</time></trkpt><trkpt lat="43.2289905" lon="12.1315253"><ele>670.6666666666667</ele><time>2026-05-01T07:54:44.465Z</time></trkpt><trkpt lat="43.229035" lon="12.1314467"><ele>671.0</ele><time>2026-05-01T07:54:45.465Z</time></trkpt><trkpt lat="43.2290919" lon="12.1313886"><ele>671.3333333333334</ele><time>2026-05-01T07:54:46.464Z</time></trkpt><trkpt lat="43.2291677" lon="12.1313308"><ele>671.6666666666666</ele><time>2026-05-01T07:54:47.465Z</time></trkpt><trkpt lat="43.2292541" lon="12.1312506"><ele>672.0</ele><time>2026-05-01T07:54:48.465Z</time></trkpt><trkpt lat="43.2293517" lon="12.1311651"><ele>672.0</ele><time>2026-05-01T07:54:49.465Z</time></trkpt><trkpt lat="43.2294482" lon="12.1310821"><ele>672.0</ele><time>2026-05-01T07:54:50.465Z</time></trkpt><trkpt lat="43.229525" lon="12.1309999"><ele>672.0</ele><time>2026-05-01T07:54:51.465Z</time></trkpt><trkpt lat="43.2295867" lon="12.1309203"><ele>672.0</ele><time>2026-05-01T07:54:52.465Z</time></trkpt><trkpt lat="43.2296188" lon="12.1308223"><ele>672.0</ele><time>2026-05-01T07:54:53.465Z</time></trkpt><trkpt lat="43.2296332" lon="12.1307219"><ele>672.0</ele><time>2026-05-01T07:54:54.464Z</time></trkpt><trkpt lat="43.2296467" lon="12.1306104"><ele>671.4000000000001</ele><time>2026-05-01T07:54:55.465Z</time></trkpt><trkpt lat="43.2296542" lon="12.130495"><ele>670.8000000000001</ele><time>2026-05-01T07:54:56.465Z</time></trkpt><trkpt lat="43.2296727" lon="12.1303698"><ele>670.2</ele><time>2026-05-01T07:54:57.465Z</time></trkpt><trkpt lat="43.2296609" lon="12.1302428"><ele>669.6</ele><time>2026-05-01T07:54:58.464Z</time></trkpt><trkpt lat="43.2296457" lon="12.130108"><ele>669.0</ele><time>2026-05-01T07:54:59.465Z</time></trkpt><trkpt lat="43.2296333" lon="12.1299976"><ele>668.6666666666666</ele><time>2026-05-01T07:55:00.465Z</time></trkpt><trkpt lat="43.2296119" lon="12.1298322"><ele>668.3333333333334</ele><time>2026-05-01T07:55:02.465Z</time></trkpt><trkpt lat="43.2296123" lon="12.1297378"><ele>668.0</ele><time>2026-05-01T07:55:03.465Z</time></trkpt><trkpt lat="43.2296167" lon="12.1296423"><ele>667.6666666666667</ele><time>2026-05-01T07:55:04.465Z</time></trkpt><trkpt lat="43.2296316" lon="12.1295318"><ele>667.3333333333334</ele><time>2026-05-01T07:55:05.464Z</time></trkpt><trkpt lat="43.2296555" lon="12.1294298"><ele>667.0</ele><time>2026-05-01T07:55:06.464Z</time></trkpt><trkpt lat="43.229687" lon="12.1293546"><ele>667.0000000000001</ele><time>2026-05-01T07:55:07.465Z</time></trkpt><trkpt lat="43.2297312" lon="12.1292849"><ele>667.0</ele><time>2026-05-01T07:55:08.465Z</time></trkpt><trkpt lat="43.2297832" lon="12.1292243"><ele>667.0</ele><time>2026-05-01T07:55:09.464Z</time></trkpt><trkpt lat="43.2298488" lon="12.1291923"><ele>667.0</ele><time>2026-05-01T07:55:10.464Z</time></trkpt><trkpt lat="43.2299249" lon="12.1291849"><ele>667.0</ele><time>2026-05-01T07:55:11.465Z</time></trkpt><trkpt lat="43.2300129" lon="12.1292036"><ele>667.0000000000001</ele><time>2026-05-01T07:55:12.465Z</time></trkpt><trkpt lat="43.2300912" lon="12.1292134"><ele>667.0</ele><time>2026-05-01T07:55:13.465Z</time></trkpt><trkpt lat="43.2301781" lon="12.1292336"><ele>671.8</ele><time>2026-05-01T07:55:14.465Z</time></trkpt><trkpt lat="43.2302466" lon="12.1292566"><ele>676.6</ele><time>2026-05-01T07:55:15.465Z</time></trkpt><trkpt lat="43.2303625" lon="12.1292879"><ele>681.4</ele><time>2026-05-01T07:55:17.465Z</time></trkpt><trkpt lat="43.2304771" lon="12.129245"><ele>686.1999999999999</ele><time>2026-05-01T07:55:19.465Z</time></trkpt><trkpt lat="43.2305372" lon="12.1292039"><ele>691.0</ele><time>2026-05-01T07:55:20.464Z</time></trkpt><trkpt lat="43.2306229" lon="12.1291523"><ele>691.8</ele><time>2026-05-01T07:55:21.465Z</time></trkpt><trkpt lat="43.2307022" lon="12.1291122"><ele>692.5999999999999</ele><time>2026-05-01T07:55:22.465Z</time></trkpt><trkpt lat="43.230802" lon="12.1290724"><ele>693.4</ele><time>2026-05-01T07:55:23.465Z</time></trkpt><trkpt lat="43.2308931" lon="12.1290574"><ele>694.2</ele><time>2026-05-01T07:55:24.465Z</time></trkpt><trkpt lat="43.2309856" lon="12.1290526"><ele>695.0</ele><time>2026-05-01T07:55:25.465Z</time></trkpt><trkpt lat="43.2310697" lon="12.1290301"><ele>695.0</ele><time>2026-05-01T07:55:26.465Z</time></trkpt><trkpt lat="43.2311689" lon="12.1289767"><ele>695.0</ele><time>2026-05-01T07:55:27.465Z</time></trkpt><trkpt lat="43.2312628" lon="12.1289112"><ele>695.0</ele><time>2026-05-01T07:55:28.464Z</time></trkpt><trkpt lat="43.2313497" lon="12.1288441"><ele>695.0</ele><time>2026-05-01T07:55:29.465Z</time></trkpt><trkpt lat="43.2314238" lon="12.1287872"><ele>695.0</ele><time>2026-05-01T07:55:30.465Z</time></trkpt><trkpt lat="43.2314837" lon="12.1287452"><ele>695.0</ele><time>2026-05-01T07:55:31.465Z</time></trkpt><trkpt lat="43.2315379" lon="12.1286554"><ele>695.0</ele><time>2026-05-01T07:55:33.465Z</time></trkpt><trkpt lat="43.2314864" lon="12.1287236"><ele>695.0</ele><time>2026-05-01T07:56:46.465Z</time></trkpt><trkpt lat="43.2314239" lon="12.1287837"><ele>695.0</ele><time>2026-05-01T07:56:47.465Z</time></trkpt><trkpt lat="43.2313676" lon="12.1288677"><ele>695.0</ele><time>2026-05-01T07:56:48.464Z</time></trkpt><trkpt lat="43.2312878" lon="12.128971"><ele>695.0</ele><time>2026-05-01T07:56:49.465Z</time></trkpt><trkpt lat="43.2311991" lon="12.1290743"><ele>698.0</ele><time>2026-05-01T07:56:50.465Z</time></trkpt><trkpt lat="43.2311215" lon="12.1291837"><ele>701.0</ele><time>2026-05-01T07:56:51.465Z</time></trkpt><trkpt lat="43.2310433" lon="12.1292893"><ele>704.0</ele><time>2026-05-01T07:56:52.465Z</time></trkpt><trkpt lat="43.2309748" lon="12.1293973"><ele>707.0</ele><time>2026-05-01T07:56:53.464Z</time></trkpt><trkpt lat="43.2309148" lon="12.1294976"><ele>710.0</ele><time>2026-05-01T07:56:54.465Z</time></trkpt><trkpt lat="43.2308667" lon="12.1296175"><ele>710.0</ele><time>2026-05-01T07:56:55.465Z</time></trkpt><trkpt lat="43.2308344" lon="12.1297426"><ele>710.0</ele><time>2026-05-01T07:56:56.465Z</time></trkpt><trkpt lat="43.2308092" lon="12.1298736"><ele>710.0</ele><time>2026-05-01T07:56:57.464Z</time></trkpt><trkpt lat="43.230784" lon="12.1299985"><ele>710.0</ele><time>2026-05-01T07:56:58.464Z</time></trkpt><trkpt lat="43.2307557" lon="12.1301209"><ele>710.0</ele><time>2026-05-01T07:56:59.465Z</time></trkpt><trkpt lat="43.2307304" lon="12.1302471"><ele>713.6</ele><time>2026-05-01T07:57:00.464Z</time></trkpt><trkpt lat="43.230722" lon="12.1303671"><ele>717.2</ele><time>2026-05-01T07:57:01.464Z</time></trkpt><trkpt lat="43.2307581" lon="12.1304867"><ele>720.8</ele><time>2026-05-01T07:57:02.464Z</time></trkpt><trkpt lat="43.2308107" lon="12.1306294"><ele>724.4</ele><time>2026-05-01T07:57:03.465Z</time></trkpt><trkpt lat="43.2308638" lon="12.1307758"><ele>728.0</ele><time>2026-05-01T07:57:04.465Z</time></trkpt><trkpt lat="43.2309213" lon="12.1309037"><ele>728.0</ele><time>2026-05-01T07:57:05.465Z</time></trkpt><trkpt lat="43.2309749" lon="12.1310291"><ele>728.0</ele><time>2026-05-01T07:57:06.465Z</time></trkpt><trkpt lat="43.2310289" lon="12.1311526"><ele>728.0</ele><time>2026-05-01T07:57:07.465Z</time></trkpt><trkpt lat="43.2310753" lon="12.1312811"><ele>728.0</ele><time>2026-05-01T07:57:08.464Z</time></trkpt><trkpt lat="43.2311079" lon="12.1314232"><ele>728.0</ele><time>2026-05-01T07:57:09.464Z</time></trkpt><trkpt lat="43.2311362" lon="12.1315846"><ele>726.4</ele><time>2026-05-01T07:57:10.465Z</time></trkpt><trkpt lat="43.2311689" lon="12.1317297"><ele>724.8</ele><time>2026-05-01T07:57:11.465Z</time></trkpt><trkpt lat="43.2311977" lon="12.1318756"><ele>723.2</ele><time>2026-05-01T07:57:12.465Z</time></trkpt><trkpt lat="43.231221" lon="12.1320117"><ele>721.6</ele><time>2026-05-01T07:57:13.465Z</time></trkpt><trkpt lat="43.2312353" lon="12.132128"><ele>720.0</ele><time>2026-05-01T07:57:14.464Z</time></trkpt><trkpt lat="43.2312388" lon="12.1322274"><ele>720.0</ele><time>2026-05-01T07:57:15.465Z</time></trkpt><trkpt lat="43.2312036" lon="12.1323589"><ele>720.0</ele><time>2026-05-01T07:57:17.465Z</time></trkpt><trkpt lat="43.2311412" lon="12.1324494"><ele>720.0</ele><time>2026-05-01T07:57:19.464Z</time></trkpt><trkpt lat="43.2311045" lon="12.1325398"><ele>720.0</ele><time>2026-05-01T07:57:21.465Z</time></trkpt><trkpt lat="43.2310822" lon="12.1326535"><ele>720.0</ele><time>2026-05-01T07:57:23.465Z</time></trkpt><trkpt lat="43.2310407" lon="12.1327783"><ele>720.6666666666666</ele><time>2026-05-01T07:57:25.464Z</time></trkpt><trkpt lat="43.2310093" lon="12.1328623"><ele>721.3333333333334</ele><time>2026-05-01T07:57:26.465Z</time></trkpt><trkpt lat="43.230977" lon="12.1329615"><ele>722.0</ele><time>2026-05-01T07:57:27.465Z</time></trkpt><trkpt lat="43.230957" lon="12.1330672"><ele>722.6666666666667</ele><time>2026-05-01T07:57:28.465Z</time></trkpt><trkpt lat="43.2309396" lon="12.1331632"><ele>723.3333333333334</ele><time>2026-05-01T07:57:29.465Z</time></trkpt><trkpt lat="43.2309284" lon="12.1332677"><ele>724.0</ele><time>2026-05-01T07:57:30.465Z</time></trkpt><trkpt lat="43.2309262" lon="12.1333771"><ele>724.2</ele><time>2026-05-01T07:57:31.465Z</time></trkpt><trkpt lat="43.2309498" lon="12.1335008"><ele>724.4000000000001</ele><time>2026-05-01T07:57:32.465Z</time></trkpt><trkpt lat="43.2309758" lon="12.1336504"><ele>724.6</ele><time>2026-05-01T07:57:33.465Z</time></trkpt><trkpt lat="43.2309931" lon="12.1337833"><ele>724.8</ele><time>2026-05-01T07:57:34.465Z</time></trkpt><trkpt lat="43.2310083" lon="12.133924"><ele>725.0</ele><time>2026-05-01T07:57:35.465Z</time></trkpt><trkpt lat="43.2310242" lon="12.134032"><ele>725.3333333333333</ele><time>2026-05-01T07:57:36.465Z</time></trkpt><trkpt lat="43.231044" lon="12.1341377"><ele>725.6666666666666</ele><time>2026-05-01T07:57:37.465Z</time></trkpt><trkpt lat="43.2310618" lon="12.1342431"><ele>726.0</ele><time>2026-05-01T07:57:38.465Z</time></trkpt><trkpt lat="43.2310796" lon="12.1343675"><ele>726.3333333333334</ele><time>2026-05-01T07:57:39.465Z</time></trkpt><trkpt lat="43.2310855" lon="12.1344795"><ele>726.6666666666667</ele><time>2026-05-01T07:57:40.465Z</time></trkpt><trkpt lat="43.231089" lon="12.1345928"><ele>727.0</ele><time>2026-05-01T07:57:41.465Z</time></trkpt><trkpt lat="43.2310848" lon="12.134716"><ele>727.0</ele><time>2026-05-01T07:57:42.465Z</time></trkpt><trkpt lat="43.2310799" lon="12.1348258"><ele>727.0</ele><time>2026-05-01T07:57:43.465Z</time></trkpt><trkpt lat="43.2310722" lon="12.134936"><ele>727.0</ele><time>2026-05-01T07:57:44.464Z</time></trkpt><trkpt lat="43.2310618" lon="12.1350455"><ele>727.0</ele><time>2026-05-01T07:57:45.464Z</time></trkpt><trkpt lat="43.2310473" lon="12.1351658"><ele>727.0</ele><time>2026-05-01T07:57:46.465Z</time></trkpt><trkpt lat="43.2310362" lon="12.1352789"><ele>727.0</ele><time>2026-05-01T07:57:47.465Z</time></trkpt><trkpt lat="43.2310111" lon="12.1353898"><ele>725.8333333333334</ele><time>2026-05-01T07:57:48.464Z</time></trkpt><trkpt lat="43.2309726" lon="12.1354827"><ele>724.6666666666667</ele><time>2026-05-01T07:57:49.465Z</time></trkpt><trkpt lat="43.2309143" lon="12.135556"><ele>723.5</ele><time>2026-05-01T07:57:50.465Z</time></trkpt><trkpt lat="43.2308531" lon="12.1356109"><ele>722.3333333333334</ele><time>2026-05-01T07:57:51.465Z</time></trkpt><trkpt lat="43.2307854" lon="12.1356503"><ele>721.1666666666666</ele><time>2026-05-01T07:57:52.464Z</time></trkpt><trkpt lat="43.2307243" lon="12.1356777"><ele>720.0</ele><time>2026-05-01T07:57:53.464Z</time></trkpt><trkpt lat="43.2306377" lon="12.1356962"><ele>719.0</ele><time>2026-05-01T07:57:54.464Z</time></trkpt><trkpt lat="43.2305534" lon="12.1357352"><ele>718.0</ele><time>2026-05-01T07:57:55.464Z</time></trkpt><trkpt lat="43.2304633" lon="12.1357899"><ele>717.0</ele><time>2026-05-01T07:57:56.465Z</time></trkpt><trkpt lat="43.2303857" lon="12.1358359"><ele>716.0</ele><time>2026-05-01T07:57:57.465Z</time></trkpt><trkpt lat="43.2303144" lon="12.1358766"><ele>715.0</ele><time>2026-05-01T07:57:58.465Z</time></trkpt><trkpt lat="43.2302539" lon="12.1359102"><ele>714.0</ele><time>2026-05-01T07:57:59.465Z</time></trkpt><trkpt lat="43.2301833" lon="12.1359436"><ele>714.0</ele><time>2026-05-01T07:58:01.465Z</time></trkpt><trkpt lat="43.2301145" lon="12.1359753"><ele>714.0</ele><time>2026-05-01T07:58:03.465Z</time></trkpt><trkpt lat="43.2300457" lon="12.1360139"><ele>714.0</ele><time>2026-05-01T07:58:05.465Z</time></trkpt><trkpt lat="43.2299819" lon="12.136079"><ele>714.0</ele><time>2026-05-01T07:58:07.465Z</time></trkpt><trkpt lat="43.2299114" lon="12.1361519"><ele>714.0</ele><time>2026-05-01T07:58:09.465Z</time></trkpt><trkpt lat="43.2298578" lon="12.1362454"><ele>714.0</ele><time>2026-05-01T07:58:11.465Z</time></trkpt><trkpt lat="43.2297869" lon="12.1363829"><ele>715.4285714285714</ele><time>2026-05-01T07:58:13.465Z</time></trkpt><trkpt lat="43.2297497" lon="12.1364561"><ele>716.8571428571429</ele><time>2026-05-01T07:58:14.464Z</time></trkpt><trkpt lat="43.2297161" lon="12.1365332"><ele>718.2857142857142</ele><time>2026-05-01T07:58:15.465Z</time></trkpt><trkpt lat="43.2296885" lon="12.1366179"><ele>719.7142857142858</ele><time>2026-05-01T07:58:16.465Z</time></trkpt><trkpt lat="43.2296655" lon="12.1367011"><ele>721.1428571428571</ele><time>2026-05-01T07:58:17.465Z</time></trkpt><trkpt lat="43.2296505" lon="12.1367888"><ele>722.5714285714286</ele><time>2026-05-01T07:58:18.465Z</time></trkpt><trkpt lat="43.2296426" lon="12.1368833"><ele>724.0</ele><time>2026-05-01T07:58:19.465Z</time></trkpt><trkpt lat="43.2296429" lon="12.136971"><ele>724.0</ele><time>2026-05-01T07:58:20.465Z</time></trkpt><trkpt lat="43.2296457" lon="12.1370631"><ele>724.0</ele><time>2026-05-01T07:58:21.464Z</time></trkpt><trkpt lat="43.2296234" lon="12.1372069"><ele>724.0</ele><time>2026-05-01T07:58:22.464Z</time></trkpt><trkpt lat="43.229605" lon="12.1373152"><ele>724.0</ele><time>2026-05-01T07:58:23.465Z</time></trkpt><trkpt lat="43.2295762" lon="12.1374187"><ele>724.0</ele><time>2026-05-01T07:58:24.465Z</time></trkpt><trkpt lat="43.2295395" lon="12.1375496"><ele>724.0</ele><time>2026-05-01T07:58:25.465Z</time></trkpt><trkpt lat="43.2295153" lon="12.1376763"><ele>721.6666666666667</ele><time>2026-05-01T07:58:26.465Z</time></trkpt><trkpt lat="43.2294849" lon="12.1378024"><ele>719.3333333333334</ele><time>2026-05-01T07:58:27.465Z</time></trkpt><trkpt lat="43.2294714" lon="12.1379312"><ele>717.0</ele><time>2026-05-01T07:58:28.464Z</time></trkpt><trkpt lat="43.2294669" lon="12.1380566"><ele>714.6666666666666</ele><time>2026-05-01T07:58:29.465Z</time></trkpt><trkpt lat="43.2294599" lon="12.1381718"><ele>712.3333333333333</ele><time>2026-05-01T07:58:30.464Z</time></trkpt><trkpt lat="43.2294491" lon="12.1382731"><ele>710.0</ele><time>2026-05-01T07:58:31.465Z</time></trkpt><trkpt lat="43.2294653" lon="12.1384314"><ele>709.3333333333333</ele><time>2026-05-01T07:58:33.465Z</time></trkpt><trkpt lat="43.2294874" lon="12.1385785"><ele>708.6666666666666</ele><time>2026-05-01T07:58:35.465Z</time></trkpt><trkpt lat="43.2295145" lon="12.1386608"><ele>708.0</ele><time>2026-05-01T08:03:37.464Z</time></trkpt><trkpt lat="43.2295638" lon="12.1387505"><ele>707.3333333333334</ele><time>2026-05-01T08:03:40.464Z</time></trkpt><trkpt lat="43.229599" lon="12.1388321"><ele>706.6666666666667</ele><time>2026-05-01T08:03:41.464Z</time></trkpt><trkpt lat="43.229634" lon="12.1389308"><ele>706.0</ele><time>2026-05-01T08:03:42.464Z</time></trkpt><trkpt lat="43.2296695" lon="12.1390163"><ele>706.3333333333334</ele><time>2026-05-01T08:03:43.465Z</time></trkpt><trkpt lat="43.2297053" lon="12.139096"><ele>706.6666666666667</ele><time>2026-05-01T08:03:44.465Z</time></trkpt><trkpt lat="43.2297681" lon="12.1392142"><ele>707.0</ele><time>2026-05-01T08:03:46.465Z</time></trkpt><trkpt lat="43.2298512" lon="12.1392723"><ele>707.3333333333334</ele><time>2026-05-01T08:03:48.465Z</time></trkpt><trkpt lat="43.2299419" lon="12.1393681"><ele>707.6666666666666</ele><time>2026-05-01T08:03:50.465Z</time></trkpt><trkpt lat="43.2299796" lon="12.1394381"><ele>708.0</ele><time>2026-05-01T08:03:51.465Z</time></trkpt><trkpt lat="43.2300138" lon="12.1395159"><ele>708.0</ele><time>2026-05-01T08:03:52.465Z</time></trkpt><trkpt lat="43.2300452" lon="12.1395957"><ele>708.0</ele><time>2026-05-01T08:03:53.465Z</time></trkpt><trkpt lat="43.2300729" lon="12.1396839"><ele>708.0</ele><time>2026-05-01T08:03:54.464Z</time></trkpt><trkpt lat="43.230105" lon="12.1397824"><ele>708.0</ele><time>2026-05-01T08:03:55.464Z</time></trkpt><trkpt lat="43.2301381" lon="12.1398666"><ele>708.0</ele><time>2026-05-01T08:03:56.464Z</time></trkpt><trkpt lat="43.230171" lon="12.1399467"><ele>708.0</ele><time>2026-05-01T08:03:57.465Z</time></trkpt><trkpt lat="43.2302065" lon="12.1400209"><ele>708.0</ele><time>2026-05-01T08:03:58.465Z</time></trkpt><trkpt lat="43.2302669" lon="12.1401616"><ele>708.2</ele><time>2026-05-01T08:04:00.464Z</time></trkpt><trkpt lat="43.2303153" lon="12.1402887"><ele>708.4</ele><time>2026-05-01T08:04:02.465Z</time></trkpt><trkpt lat="43.2303886" lon="12.1404045"><ele>708.6</ele><time>2026-05-01T08:04:04.464Z</time></trkpt><trkpt lat="43.2304244" lon="12.140521"><ele>708.8000000000001</ele><time>2026-05-01T08:04:06.465Z</time></trkpt><trkpt lat="43.2304243" lon="12.1406393"><ele>709.0</ele><time>2026-05-01T08:04:08.465Z</time></trkpt><trkpt lat="43.2304121" lon="12.1407618"><ele>705.6</ele><time>2026-05-01T08:04:10.465Z</time></trkpt><trkpt lat="43.2303928" lon="12.1408583"><ele>702.2</ele><time>2026-05-01T08:04:12.465Z</time></trkpt><trkpt lat="43.2303562" lon="12.1409844"><ele>698.8000000000001</ele><time>2026-05-01T08:04:15.465Z</time></trkpt><trkpt lat="43.23033" lon="12.1410632"><ele>695.4000000000001</ele><time>2026-05-01T08:04:16.465Z</time></trkpt><trkpt lat="43.2302742" lon="12.1412146"><ele>692.0</ele><time>2026-05-01T08:04:18.464Z</time></trkpt><trkpt lat="43.2302367" lon="12.1413565"><ele>692.0</ele><time>2026-05-01T08:04:20.465Z</time></trkpt><trkpt lat="43.2302175" lon="12.1414431"><ele>692.0</ele><time>2026-05-01T08:04:24.465Z</time></trkpt><trkpt lat="43.2302028" lon="12.1415301"><ele>692.0</ele><time>2026-05-01T08:04:28.465Z</time></trkpt><trkpt lat="43.2301886" lon="12.1416345"><ele>692.0</ele><time>2026-05-01T08:04:30.465Z</time></trkpt><trkpt lat="43.2301572" lon="12.1417861"><ele>692.0</ele><time>2026-05-01T08:04:32.464Z</time></trkpt><trkpt lat="43.2301284" lon="12.141936"><ele>692.0</ele><time>2026-05-01T08:04:34.464Z</time></trkpt><trkpt lat="43.23009" lon="12.1420903"><ele>690.2</ele><time>2026-05-01T08:04:36.465Z</time></trkpt><trkpt lat="43.2300276" lon="12.142232"><ele>688.4000000000001</ele><time>2026-05-01T08:04:38.465Z</time></trkpt><trkpt lat="43.229991" lon="12.1423279"><ele>686.5999999999999</ele><time>2026-05-01T08:04:39.464Z</time></trkpt><trkpt lat="43.2299587" lon="12.1424428"><ele>684.8</ele><time>2026-05-01T08:04:40.464Z</time></trkpt><trkpt lat="43.2299369" lon="12.1425637"><ele>683.0</ele><time>2026-05-01T08:04:41.465Z</time></trkpt><trkpt lat="43.2299165" lon="12.142656"><ele>681.5999999999999</ele><time>2026-05-01T08:04:42.464Z</time></trkpt><trkpt lat="43.2298969" lon="12.1427504"><ele>680.1999999999999</ele><time>2026-05-01T08:04:43.465Z</time></trkpt><trkpt lat="43.2298747" lon="12.1429117"><ele>678.8</ele><time>2026-05-01T08:04:45.465Z</time></trkpt><trkpt lat="43.2298226" lon="12.143046"><ele>677.4</ele><time>2026-05-01T08:04:47.465Z</time></trkpt><trkpt lat="43.2297579" lon="12.1431763"><ele>676.0</ele><time>2026-05-01T08:04:49.465Z</time></trkpt><trkpt lat="43.2297265" lon="12.1432585"><ele>675.5</ele><time>2026-05-01T08:04:50.465Z</time></trkpt><trkpt lat="43.2296865" lon="12.1433456"><ele>675.0</ele><time>2026-05-01T08:04:51.465Z</time></trkpt><trkpt lat="43.2296494" lon="12.1434281"><ele>674.5</ele><time>2026-05-01T08:04:52.465Z</time></trkpt><trkpt lat="43.2296248" lon="12.143526"><ele>674.0</ele><time>2026-05-01T08:04:53.465Z</time></trkpt><trkpt lat="43.2295951" lon="12.1436364"><ele>673.5</ele><time>2026-05-01T08:04:54.464Z</time></trkpt><trkpt lat="43.2295573" lon="12.1437327"><ele>673.0</ele><time>2026-05-01T08:04:55.464Z</time></trkpt><trkpt lat="43.2295095" lon="12.1438205"><ele>673.0</ele><time>2026-05-01T08:04:56.465Z</time></trkpt><trkpt lat="43.2294866" lon="12.1439631"><ele>673.0</ele><time>2026-05-01T08:04:58.465Z</time></trkpt><trkpt lat="43.2295424" lon="12.1441082"><ele>673.0</ele><time>2026-05-01T08:05:00.464Z</time></trkpt><trkpt lat="43.2296068" lon="12.14423"><ele>673.0</ele><time>2026-05-01T08:05:02.465Z</time></trkpt><trkpt lat="43.2295865" lon="12.1443393"><ele>673.0</ele><time>2026-05-01T08:05:04.465Z</time></trkpt><trkpt lat="43.2295606" lon="12.1444203"><ele>674.5</ele><time>2026-05-01T08:05:05.464Z</time></trkpt><trkpt lat="43.2295361" lon="12.1445122"><ele>676.0</ele><time>2026-05-01T08:05:06.465Z</time></trkpt><trkpt lat="43.2295315" lon="12.1446103"><ele>677.5</ele><time>2026-05-01T08:05:07.465Z</time></trkpt><trkpt lat="43.2295189" lon="12.1447092"><ele>679.0</ele><time>2026-05-01T08:05:08.464Z</time></trkpt><trkpt lat="43.2295002" lon="12.1447977"><ele>680.5</ele><time>2026-05-01T08:05:09.465Z</time></trkpt><trkpt lat="43.2294924" lon="12.1448938"><ele>682.0</ele><time>2026-05-01T08:05:10.465Z</time></trkpt><trkpt lat="43.2295147" lon="12.1450277"><ele>684.0</ele><time>2026-05-01T08:05:12.465Z</time></trkpt><trkpt lat="43.2295309" lon="12.1451349"><ele>686.0</ele><time>2026-05-01T08:06:00.465Z</time></trkpt><trkpt lat="43.2295548" lon="12.1452218"><ele>688.0</ele><time>2026-05-01T08:07:24.465Z</time></trkpt><trkpt lat="43.2295619" lon="12.1453345"><ele>690.0</ele><time>2026-05-01T08:07:26.466Z</time></trkpt><trkpt lat="43.2295776" lon="12.1454254"><ele>692.0</ele><time>2026-05-01T08:07:28.466Z</time></trkpt><trkpt lat="43.2295764" lon="12.1455309"><ele>694.0</ele><time>2026-05-01T08:07:31.465Z</time></trkpt><trkpt lat="43.2295797" lon="12.1456489"><ele>694.3333333333334</ele><time>2026-05-01T08:07:44.466Z</time></trkpt><trkpt lat="43.2295789" lon="12.1458043"><ele>694.6666666666667</ele><time>2026-05-01T08:07:46.466Z</time></trkpt><trkpt lat="43.2295812" lon="12.145891"><ele>695.0</ele><time>2026-05-01T08:07:47.466Z</time></trkpt><trkpt lat="43.2295804" lon="12.1459852"><ele>695.3333333333334</ele><time>2026-05-01T08:07:48.466Z</time></trkpt><trkpt lat="43.2295904" lon="12.1460924"><ele>695.6666666666666</ele><time>2026-05-01T08:07:49.466Z</time></trkpt><trkpt lat="43.2296032" lon="12.1462173"><ele>696.0</ele><time>2026-05-01T08:07:50.465Z</time></trkpt><trkpt lat="43.2296187" lon="12.1463348"><ele>696.0</ele><time>2026-05-01T08:07:51.466Z</time></trkpt><trkpt lat="43.2296385" lon="12.1464425"><ele>696.0</ele><time>2026-05-01T08:07:52.466Z</time></trkpt><trkpt lat="43.2296804" lon="12.1466051"><ele>696.0</ele><time>2026-05-01T08:07:54.466Z</time></trkpt><trkpt lat="43.2297084" lon="12.1466856"><ele>696.0</ele><time>2026-05-01T08:07:55.466Z</time></trkpt><trkpt lat="43.2297316" lon="12.1467744"><ele>696.0</ele><time>2026-05-01T08:07:56.465Z</time></trkpt><trkpt lat="43.2297402" lon="12.1468765"><ele>696.0</ele><time>2026-05-01T08:07:57.466Z</time></trkpt><trkpt lat="43.2297364" lon="12.1469872"><ele>695.8333333333334</ele><time>2026-05-01T08:07:58.465Z</time></trkpt><trkpt lat="43.2297362" lon="12.147099"><ele>695.6666666666666</ele><time>2026-05-01T08:07:59.466Z</time></trkpt><trkpt lat="43.2297606" lon="12.1471917"><ele>695.5</ele><time>2026-05-01T08:08:00.466Z</time></trkpt><trkpt lat="43.2297902" lon="12.1472877"><ele>695.3333333333333</ele><time>2026-05-01T08:08:01.466Z</time></trkpt><trkpt lat="43.2298204" lon="12.1473793"><ele>695.1666666666666</ele><time>2026-05-01T08:08:02.466Z</time></trkpt><trkpt lat="43.2298482" lon="12.1474849"><ele>695.0</ele><time>2026-05-01T08:08:03.466Z</time></trkpt><trkpt lat="43.2298797" lon="12.1476066"><ele>695.0</ele><time>2026-05-01T08:08:04.466Z</time></trkpt><trkpt lat="43.2299097" lon="12.1477338"><ele>695.0</ele><time>2026-05-01T08:08:05.466Z</time></trkpt><trkpt lat="43.2299596" lon="12.1478612"><ele>695.0</ele><time>2026-05-01T08:08:06.466Z</time></trkpt><trkpt lat="43.2300148" lon="12.1480058"><ele>695.0</ele><time>2026-05-01T08:08:07.466Z</time></trkpt><trkpt lat="43.2300764" lon="12.1481469"><ele>695.0</ele><time>2026-05-01T08:08:08.466Z</time></trkpt><trkpt lat="43.2301346" lon="12.1482864"><ele>694.0</ele><time>2026-05-01T08:08:09.466Z</time></trkpt><trkpt lat="43.2301884" lon="12.1484376"><ele>693.0</ele><time>2026-05-01T08:08:10.466Z</time></trkpt><trkpt lat="43.2302438" lon="12.148586"><ele>692.0</ele><time>2026-05-01T08:08:11.466Z</time></trkpt><trkpt lat="43.2303045" lon="12.1487373"><ele>691.0</ele><time>2026-05-01T08:08:12.466Z</time></trkpt><trkpt lat="43.2303632" lon="12.1488864"><ele>691.0</ele><time>2026-05-01T08:08:13.466Z</time></trkpt><trkpt lat="43.2304222" lon="12.1490406"><ele>691.0</ele><time>2026-05-01T08:08:14.466Z</time></trkpt><trkpt lat="43.2304858" lon="12.1491903"><ele>691.0</ele><time>2026-05-01T08:08:15.465Z</time></trkpt><trkpt lat="43.230552" lon="12.1493381"><ele>691.0</ele><time>2026-05-01T08:08:16.466Z</time></trkpt><trkpt lat="43.2306184" lon="12.1494704"><ele>691.5</ele><time>2026-05-01T08:08:17.466Z</time></trkpt><trkpt lat="43.2306881" lon="12.149596"><ele>692.0</ele><time>2026-05-01T08:08:18.465Z</time></trkpt><trkpt lat="43.2307541" lon="12.1497355"><ele>692.5</ele><time>2026-05-01T08:08:19.466Z</time></trkpt><trkpt lat="43.2308115" lon="12.1498743"><ele>693.0</ele><time>2026-05-01T08:08:20.466Z</time></trkpt><trkpt lat="43.2308648" lon="12.1500111"><ele>693.0</ele><time>2026-05-01T08:08:21.466Z</time></trkpt><trkpt lat="43.2309167" lon="12.1501314"><ele>693.0</ele><time>2026-05-01T08:08:22.466Z</time></trkpt><trkpt lat="43.2309711" lon="12.1502363"><ele>693.0</ele><time>2026-05-01T08:08:23.466Z</time></trkpt><trkpt lat="43.2310248" lon="12.1503226"><ele>693.0</ele><time>2026-05-01T08:08:24.466Z</time></trkpt><trkpt lat="43.2310728" lon="12.1503948"><ele>693.0</ele><time>2026-05-01T08:08:25.466Z</time></trkpt><trkpt lat="43.2311241" lon="12.150475"><ele>693.0</ele><time>2026-05-01T08:08:26.466Z</time></trkpt><trkpt lat="43.2311667" lon="12.1505682"><ele>693.0</ele><time>2026-05-01T08:08:27.465Z</time></trkpt><trkpt lat="43.2311852" lon="12.1506673"><ele>693.0</ele><time>2026-05-01T08:08:28.465Z</time></trkpt><trkpt lat="43.2311914" lon="12.1507594"><ele>693.0</ele><time>2026-05-01T08:08:29.465Z</time></trkpt><trkpt lat="43.2311778" lon="12.1508489"><ele>693.0</ele><time>2026-05-01T08:08:30.466Z</time></trkpt><trkpt lat="43.2311406" lon="12.1509237"><ele>693.0</ele><time>2026-05-01T08:08:31.466Z</time></trkpt><trkpt lat="43.2310909" lon="12.1509872"><ele>693.0</ele><time>2026-05-01T08:08:32.466Z</time></trkpt><trkpt lat="43.2310376" lon="12.1510371"><ele>693.0</ele><time>2026-05-01T08:08:33.466Z</time></trkpt><trkpt lat="43.2309767" lon="12.1510771"><ele>692.2</ele><time>2026-05-01T08:08:34.466Z</time></trkpt><trkpt lat="43.2309099" lon="12.1511118"><ele>691.4</ele><time>2026-05-01T08:08:35.466Z</time></trkpt><trkpt lat="43.2308462" lon="12.1511397"><ele>690.6</ele><time>2026-05-01T08:08:36.466Z</time></trkpt><trkpt lat="43.2307237" lon="12.1511629"><ele>689.8000000000001</ele><time>2026-05-01T08:08:38.466Z</time></trkpt><trkpt lat="43.2306157" lon="12.151217"><ele>689.0</ele><time>2026-05-01T08:08:40.465Z</time></trkpt><trkpt lat="43.2305563" lon="12.1513609"><ele>687.1666666666666</ele><time>2026-05-01T08:08:42.466Z</time></trkpt><trkpt lat="43.2305595" lon="12.1514636"><ele>685.3333333333333</ele><time>2026-05-01T08:08:43.466Z</time></trkpt><trkpt lat="43.2305904" lon="12.1515665"><ele>683.5</ele><time>2026-05-01T08:08:44.465Z</time></trkpt><trkpt lat="43.2306035" lon="12.1516692"><ele>681.6666666666666</ele><time>2026-05-01T08:08:45.465Z</time></trkpt><trkpt lat="43.2306173" lon="12.1517738"><ele>679.8333333333334</ele><time>2026-05-01T08:08:46.466Z</time></trkpt><trkpt lat="43.2306203" lon="12.1518748"><ele>678.0</ele><time>2026-05-01T08:08:47.466Z</time></trkpt><trkpt lat="43.2306047" lon="12.151971"><ele>676.5</ele><time>2026-05-01T08:08:48.466Z</time></trkpt><trkpt lat="43.2305831" lon="12.1520686"><ele>675.0</ele><time>2026-05-01T08:08:49.466Z</time></trkpt><trkpt lat="43.2305609" lon="12.1521733"><ele>673.5</ele><time>2026-05-01T08:08:50.466Z</time></trkpt><trkpt lat="43.2305605" lon="12.1522911"><ele>672.0</ele><time>2026-05-01T08:08:51.466Z</time></trkpt><trkpt lat="43.2305687" lon="12.1524223"><ele>670.5</ele><time>2026-05-01T08:08:52.466Z</time></trkpt><trkpt lat="43.2305845" lon="12.1525554"><ele>669.0</ele><time>2026-05-01T08:08:53.466Z</time></trkpt><trkpt lat="43.2305928" lon="12.1526748"><ele>669.0</ele><time>2026-05-01T08:08:54.466Z</time></trkpt><trkpt lat="43.2305978" lon="12.1527945"><ele>669.0</ele><time>2026-05-01T08:08:55.466Z</time></trkpt><trkpt lat="43.2306032" lon="12.1529216"><ele>669.0</ele><time>2026-05-01T08:08:56.465Z</time></trkpt><trkpt lat="43.230613" lon="12.1530334"><ele>669.0</ele><time>2026-05-01T08:08:57.466Z</time></trkpt><trkpt lat="43.23063" lon="12.153137"><ele>669.0</ele><time>2026-05-01T08:08:58.465Z</time></trkpt><trkpt lat="43.2306471" lon="12.1532475"><ele>669.0</ele><time>2026-05-01T08:08:59.466Z</time></trkpt><trkpt lat="43.2306628" lon="12.1533626"><ele>668.4000000000001</ele><time>2026-05-01T08:09:00.466Z</time></trkpt><trkpt lat="43.2306762" lon="12.1534767"><ele>667.8</ele><time>2026-05-01T08:09:01.466Z</time></trkpt><trkpt lat="43.2306833" lon="12.1535704"><ele>667.2</ele><time>2026-05-01T08:09:02.466Z</time></trkpt><trkpt lat="43.2306949" lon="12.1537308"><ele>666.5999999999999</ele><time>2026-05-01T08:09:04.465Z</time></trkpt><trkpt lat="43.2307102" lon="12.1538882"><ele>666.0</ele><time>2026-05-01T08:09:06.466Z</time></trkpt><trkpt lat="43.2307351" lon="12.154033"><ele>665.5999999999999</ele><time>2026-05-01T08:09:08.466Z</time></trkpt><trkpt lat="43.2307225" lon="12.1541898"><ele>665.2</ele><time>2026-05-01T08:09:10.465Z</time></trkpt><trkpt lat="43.2306877" lon="12.154281"><ele>664.8</ele><time>2026-05-01T08:09:11.466Z</time></trkpt><trkpt lat="43.2306351" lon="12.1543778"><ele>664.4000000000001</ele><time>2026-05-01T08:09:12.466Z</time></trkpt><trkpt lat="43.2305702" lon="12.1544823"><ele>664.0</ele><time>2026-05-01T08:09:13.466Z</time></trkpt><trkpt lat="43.2304984" lon="12.1545938"><ele>662.75</ele><time>2026-05-01T08:09:14.466Z</time></trkpt><trkpt lat="43.2304271" lon="12.1547296"><ele>661.5</ele><time>2026-05-01T08:09:15.466Z</time></trkpt><trkpt lat="43.2303694" lon="12.1548857"><ele>660.25</ele><time>2026-05-01T08:09:16.466Z</time></trkpt><trkpt lat="43.2303194" lon="12.1550718"><ele>659.0</ele><time>2026-05-01T08:09:17.466Z</time></trkpt><trkpt lat="43.2302699" lon="12.1552758"><ele>658.25</ele><time>2026-05-01T08:09:18.465Z</time></trkpt><trkpt lat="43.2302129" lon="12.1554723"><ele>657.5</ele><time>2026-05-01T08:09:19.466Z</time></trkpt><trkpt lat="43.230157" lon="12.1556656"><ele>656.75</ele><time>2026-05-01T08:09:20.465Z</time></trkpt><trkpt lat="43.2301089" lon="12.1558432"><ele>656.0</ele><time>2026-05-01T08:09:21.466Z</time></trkpt><trkpt lat="43.2300633" lon="12.1560039"><ele>656.0</ele><time>2026-05-01T08:09:22.465Z</time></trkpt><trkpt lat="43.2300244" lon="12.1561454"><ele>656.0</ele><time>2026-05-01T08:09:23.465Z</time></trkpt><trkpt lat="43.2299882" lon="12.1562732"><ele>656.0</ele><time>2026-05-01T08:09:24.466Z</time></trkpt><trkpt lat="43.2299594" lon="12.1563841"><ele>656.0</ele><time>2026-05-01T08:09:25.466Z</time></trkpt><trkpt lat="43.2299285" lon="12.1564765"><ele>656.0</ele><time>2026-05-01T08:09:26.466Z</time></trkpt><trkpt lat="43.2299046" lon="12.1565612"><ele>656.0</ele><time>2026-05-01T08:09:27.466Z</time></trkpt><trkpt lat="43.2298436" lon="12.1567171"><ele>656.1666666666666</ele><time>2026-05-01T08:09:29.466Z</time></trkpt><trkpt lat="43.2298224" lon="12.1568087"><ele>656.3333333333333</ele><time>2026-05-01T08:09:30.466Z</time></trkpt><trkpt lat="43.2298144" lon="12.156913"><ele>656.5</ele><time>2026-05-01T08:09:31.466Z</time></trkpt><trkpt lat="43.2298167" lon="12.1570202"><ele>656.6666666666666</ele><time>2026-05-01T08:09:32.466Z</time></trkpt><trkpt lat="43.2298247" lon="12.1571291"><ele>656.8333333333334</ele><time>2026-05-01T08:09:33.466Z</time></trkpt><trkpt lat="43.2298443" lon="12.1572417"><ele>657.0</ele><time>2026-05-01T08:09:34.466Z</time></trkpt><trkpt lat="43.2298669" lon="12.1573524"><ele>655.0</ele><time>2026-05-01T08:09:35.465Z</time></trkpt><trkpt lat="43.2298972" lon="12.1574595"><ele>653.0</ele><time>2026-05-01T08:09:36.466Z</time></trkpt><trkpt lat="43.2299221" lon="12.1575629"><ele>651.0</ele><time>2026-05-01T08:09:37.466Z</time></trkpt><trkpt lat="43.229948" lon="12.1576773"><ele>649.0</ele><time>2026-05-01T08:09:38.465Z</time></trkpt><trkpt lat="43.2299626" lon="12.1577886"><ele>647.0</ele><time>2026-05-01T08:09:39.466Z</time></trkpt><trkpt lat="43.2299534" lon="12.1578936"><ele>645.0</ele><time>2026-05-01T08:09:40.466Z</time></trkpt><trkpt lat="43.2299368" lon="12.1580025"><ele>645.0</ele><time>2026-05-01T08:09:41.466Z</time></trkpt><trkpt lat="43.2299192" lon="12.1581109"><ele>645.0</ele><time>2026-05-01T08:09:42.466Z</time></trkpt><trkpt lat="43.2298854" lon="12.1582281"><ele>645.0</ele><time>2026-05-01T08:09:43.466Z</time></trkpt><trkpt lat="43.2298392" lon="12.1583525"><ele>645.0</ele><time>2026-05-01T08:09:44.466Z</time></trkpt><trkpt lat="43.2297802" lon="12.1584752"><ele>645.0</ele><time>2026-05-01T08:09:45.465Z</time></trkpt><trkpt lat="43.2297172" lon="12.1585765"><ele>643.1666666666666</ele><time>2026-05-01T08:09:46.466Z</time></trkpt><trkpt lat="43.2296584" lon="12.1586506"><ele>641.3333333333334</ele><time>2026-05-01T08:09:47.466Z</time></trkpt><trkpt lat="43.2295998" lon="12.1586929"><ele>639.5</ele><time>2026-05-01T08:09:48.465Z</time></trkpt><trkpt lat="43.2295389" lon="12.1587761"><ele>637.6666666666667</ele><time>2026-05-01T08:09:50.466Z</time></trkpt><trkpt lat="43.2295714" lon="12.1588695"><ele>635.8333333333334</ele><time>2026-05-01T08:09:53.466Z</time></trkpt><trkpt lat="43.2296391" lon="12.1589104"><ele>634.0</ele><time>2026-05-01T08:09:56.466Z</time></trkpt><trkpt lat="43.2297063" lon="12.1589267"><ele>634.0</ele><time>2026-05-01T08:10:20.466Z</time></trkpt><trkpt lat="43.2297532" lon="12.1590093"><ele>634.0</ele><time>2026-05-01T08:10:51.465Z</time></trkpt><trkpt lat="43.2298043" lon="12.1590652"><ele>634.0</ele><time>2026-05-01T08:10:52.465Z</time></trkpt><trkpt lat="43.229868" lon="12.1591"><ele>634.0</ele><time>2026-05-01T08:10:53.465Z</time></trkpt><trkpt lat="43.2299442" lon="12.1591171"><ele>634.0</ele><time>2026-05-01T08:10:54.466Z</time></trkpt><trkpt lat="43.2300331" lon="12.1591131"><ele>634.0</ele><time>2026-05-01T08:10:55.465Z</time></trkpt><trkpt lat="43.2301409" lon="12.1591099"><ele>634.6</ele><time>2026-05-01T08:10:56.466Z</time></trkpt><trkpt lat="43.230258" lon="12.1591041"><ele>635.2</ele><time>2026-05-01T08:10:57.466Z</time></trkpt><trkpt lat="43.2303656" lon="12.1591058"><ele>635.8000000000001</ele><time>2026-05-01T08:10:58.465Z</time></trkpt><trkpt lat="43.2304743" lon="12.1591092"><ele>636.4</ele><time>2026-05-01T08:10:59.466Z</time></trkpt><trkpt lat="43.2305815" lon="12.1591187"><ele>637.0</ele><time>2026-05-01T08:11:00.466Z</time></trkpt><trkpt lat="43.2306865" lon="12.1591259"><ele>637.0</ele><time>2026-05-01T08:11:01.466Z</time></trkpt><trkpt lat="43.2307894" lon="12.1591264"><ele>637.0</ele><time>2026-05-01T08:11:02.466Z</time></trkpt><trkpt lat="43.2308889" lon="12.1591245"><ele>637.0</ele><time>2026-05-01T08:11:03.465Z</time></trkpt><trkpt lat="43.2309845" lon="12.1591257"><ele>637.0</ele><time>2026-05-01T08:11:04.466Z</time></trkpt><trkpt lat="43.2310793" lon="12.1591342"><ele>637.0</ele><time>2026-05-01T08:11:05.466Z</time></trkpt><trkpt lat="43.2311786" lon="12.1591382"><ele>637.0</ele><time>2026-05-01T08:11:06.466Z</time></trkpt><trkpt lat="43.2312705" lon="12.1591503"><ele>637.0</ele><time>2026-05-01T08:11:07.466Z</time></trkpt><trkpt lat="43.231362" lon="12.1591651"><ele>637.0</ele><time>2026-05-01T08:11:08.466Z</time></trkpt><trkpt lat="43.2314507" lon="12.1592072"><ele>637.0</ele><time>2026-05-01T08:11:09.466Z</time></trkpt><trkpt lat="43.2315409" lon="12.1592623"><ele>637.0</ele><time>2026-05-01T08:11:10.466Z</time></trkpt><trkpt lat="43.2316364" lon="12.1593094"><ele>633.0</ele><time>2026-05-01T08:11:11.466Z</time></trkpt><trkpt lat="43.2317499" lon="12.1593482"><ele>629.0</ele><time>2026-05-01T08:11:12.465Z</time></trkpt><trkpt lat="43.2318606" lon="12.1593632"><ele>625.0</ele><time>2026-05-01T08:11:13.466Z</time></trkpt><trkpt lat="43.2319723" lon="12.1594157"><ele>621.0</ele><time>2026-05-01T08:11:14.466Z</time></trkpt><trkpt lat="43.232081" lon="12.1594773"><ele>621.0</ele><time>2026-05-01T08:11:15.466Z</time></trkpt><trkpt lat="43.2321936" lon="12.1595481"><ele>621.0</ele><time>2026-05-01T08:11:16.466Z</time></trkpt><trkpt lat="43.2323081" lon="12.1596079"><ele>621.0</ele><time>2026-05-01T08:11:17.465Z</time></trkpt><trkpt lat="43.2324197" lon="12.159649"><ele>621.0</ele><time>2026-05-01T08:11:18.466Z</time></trkpt><trkpt lat="43.2325152" lon="12.1596554"><ele>618.5</ele><time>2026-05-01T08:11:19.465Z</time></trkpt><trkpt lat="43.2326092" lon="12.1596252"><ele>616.0</ele><time>2026-05-01T08:11:20.466Z</time></trkpt><trkpt lat="43.2326927" lon="12.1595683"><ele>613.5</ele><time>2026-05-01T08:11:21.466Z</time></trkpt><trkpt lat="43.2327641" lon="12.1595335"><ele>611.0</ele><time>2026-05-01T08:11:22.466Z</time></trkpt><trkpt lat="43.2328392" lon="12.1595358"><ele>608.5</ele><time>2026-05-01T08:11:23.466Z</time></trkpt><trkpt lat="43.2329245" lon="12.1595477"><ele>606.0</ele><time>2026-05-01T08:11:24.466Z</time></trkpt><trkpt lat="43.2330149" lon="12.1595929"><ele>606.0</ele><time>2026-05-01T08:11:25.466Z</time></trkpt><trkpt lat="43.2330946" lon="12.1596547"><ele>606.0</ele><time>2026-05-01T08:11:26.466Z</time></trkpt><trkpt lat="43.2331778" lon="12.1597179"><ele>606.0</ele><time>2026-05-01T08:11:27.466Z</time></trkpt><trkpt lat="43.2332697" lon="12.1597731"><ele>606.0</ele><time>2026-05-01T08:11:28.466Z</time></trkpt><trkpt lat="43.2333717" lon="12.1598051"><ele>606.0</ele><time>2026-05-01T08:11:29.466Z</time></trkpt><trkpt lat="43.2334867" lon="12.1598074"><ele>603.5</ele><time>2026-05-01T08:11:30.466Z</time></trkpt><trkpt lat="43.2336065" lon="12.1598123"><ele>601.0</ele><time>2026-05-01T08:11:31.466Z</time></trkpt><trkpt lat="43.2337297" lon="12.1598227"><ele>598.5</ele><time>2026-05-01T08:11:32.466Z</time></trkpt><trkpt lat="43.2338389" lon="12.1598601"><ele>596.0</ele><time>2026-05-01T08:11:33.466Z</time></trkpt><trkpt lat="43.2339437" lon="12.1598897"><ele>598.0</ele><time>2026-05-01T08:11:34.465Z</time></trkpt><trkpt lat="43.2340345" lon="12.1599241"><ele>600.0</ele><time>2026-05-01T08:11:35.466Z</time></trkpt><trkpt lat="43.2341064" lon="12.1599861"><ele>602.0</ele><time>2026-05-01T08:11:36.466Z</time></trkpt><trkpt lat="43.2341851" lon="12.1600521"><ele>604.0</ele><time>2026-05-01T08:11:37.466Z</time></trkpt><trkpt lat="43.234272" lon="12.1601226"><ele>606.0</ele><time>2026-05-01T08:11:38.466Z</time></trkpt><trkpt lat="43.2343694" lon="12.1601569"><ele>606.0</ele><time>2026-05-01T08:11:39.465Z</time></trkpt><trkpt lat="43.2344782" lon="12.1601661"><ele>606.0</ele><time>2026-05-01T08:11:40.466Z</time></trkpt><trkpt lat="43.2345945" lon="12.1601671"><ele>606.0</ele><time>2026-05-01T08:11:41.465Z</time></trkpt><trkpt lat="43.2347279" lon="12.160176"><ele>606.0</ele><time>2026-05-01T08:11:42.466Z</time></trkpt><trkpt lat="43.2348576" lon="12.1601832"><ele>603.6</ele><time>2026-05-01T08:11:43.466Z</time></trkpt><trkpt lat="43.234978" lon="12.160214"><ele>601.2</ele><time>2026-05-01T08:11:44.466Z</time></trkpt><trkpt lat="43.2350868" lon="12.1602525"><ele>598.8</ele><time>2026-05-01T08:11:45.466Z</time></trkpt><trkpt lat="43.2351874" lon="12.1602854"><ele>596.4</ele><time>2026-05-01T08:11:46.466Z</time></trkpt><trkpt lat="43.2352847" lon="12.1603138"><ele>594.0</ele><time>2026-05-01T08:11:47.466Z</time></trkpt><trkpt lat="43.2353616" lon="12.1603127"><ele>594.0</ele><time>2026-05-01T08:11:48.466Z</time></trkpt><trkpt lat="43.2354365" lon="12.1602973"><ele>594.0</ele><time>2026-05-01T08:11:49.466Z</time></trkpt><trkpt lat="43.2355065" lon="12.1602671"><ele>594.0</ele><time>2026-05-01T08:11:50.466Z</time></trkpt><trkpt lat="43.2355875" lon="12.1602226"><ele>594.0</ele><time>2026-05-01T08:11:51.466Z</time></trkpt><trkpt lat="43.235658" lon="12.1601526"><ele>594.0</ele><time>2026-05-01T08:11:52.466Z</time></trkpt><trkpt lat="43.2357143" lon="12.160091"><ele>594.0</ele><time>2026-05-01T08:11:53.466Z</time></trkpt><trkpt lat="43.2357815" lon="12.1600182"><ele>592.6666666666666</ele><time>2026-05-01T08:11:54.466Z</time></trkpt><trkpt lat="43.2358577" lon="12.1599535"><ele>591.3333333333334</ele><time>2026-05-01T08:11:55.466Z</time></trkpt><trkpt lat="43.2359369" lon="12.1598856"><ele>590.0</ele><time>2026-05-01T08:11:56.465Z</time></trkpt><trkpt lat="43.2360062" lon="12.1598458"><ele>588.6666666666667</ele><time>2026-05-01T08:11:57.465Z</time></trkpt><trkpt lat="43.2360741" lon="12.159813"><ele>587.3333333333334</ele><time>2026-05-01T08:11:58.466Z</time></trkpt><trkpt lat="43.2361531" lon="12.1598007"><ele>586.0</ele><time>2026-05-01T08:11:59.466Z</time></trkpt><trkpt lat="43.2362356" lon="12.1598179"><ele>586.0</ele><time>2026-05-01T08:12:00.466Z</time></trkpt><trkpt lat="43.2363146" lon="12.159854"><ele>586.0</ele><time>2026-05-01T08:12:01.466Z</time></trkpt><trkpt lat="43.2363635" lon="12.15993"><ele>586.0</ele><time>2026-05-01T08:12:02.466Z</time></trkpt><trkpt lat="43.2363939" lon="12.1600286"><ele>586.0</ele><time>2026-05-01T08:12:03.465Z</time></trkpt><trkpt lat="43.2364167" lon="12.1601487"><ele>586.0</ele><time>2026-05-01T08:12:04.465Z</time></trkpt><trkpt lat="43.2364343" lon="12.160285"><ele>586.0</ele><time>2026-05-01T08:12:05.465Z</time></trkpt><trkpt lat="43.2364606" lon="12.1604281"><ele>587.8</ele><time>2026-05-01T08:12:06.466Z</time></trkpt><trkpt lat="43.236483" lon="12.160564"><ele>589.6</ele><time>2026-05-01T08:12:07.465Z</time></trkpt><trkpt lat="43.2364937" lon="12.1606981"><ele>591.4</ele><time>2026-05-01T08:12:08.466Z</time></trkpt><trkpt lat="43.2364934" lon="12.1608335"><ele>593.2</ele><time>2026-05-01T08:12:09.466Z</time></trkpt><trkpt lat="43.236486" lon="12.1609592"><ele>595.0</ele><time>2026-05-01T08:12:10.465Z</time></trkpt><trkpt lat="43.2364582" lon="12.1610792"><ele>595.0</ele><time>2026-05-01T08:12:11.466Z</time></trkpt><trkpt lat="43.2364174" lon="12.1611849"><ele>595.0</ele><time>2026-05-01T08:12:12.466Z</time></trkpt><trkpt lat="43.236378" lon="12.1612826"><ele>595.0</ele><time>2026-05-01T08:12:13.465Z</time></trkpt><trkpt lat="43.2363513" lon="12.161371"><ele>595.0</ele><time>2026-05-01T08:12:14.466Z</time></trkpt><trkpt lat="43.2363556" lon="12.1614634"><ele>595.0</ele><time>2026-05-01T08:12:15.466Z</time></trkpt><trkpt lat="43.2364272" lon="12.1616104"><ele>595.0</ele><time>2026-05-01T08:12:17.466Z</time></trkpt><trkpt lat="43.2365135" lon="12.1616404"><ele>590.8333333333334</ele><time>2026-05-01T08:12:18.466Z</time></trkpt><trkpt lat="43.2366147" lon="12.161642"><ele>586.6666666666667</ele><time>2026-05-01T08:12:19.465Z</time></trkpt><trkpt lat="43.2367133" lon="12.1616547"><ele>582.5</ele><time>2026-05-01T08:12:20.466Z</time></trkpt><trkpt lat="43.2367849" lon="12.1616776"><ele>578.3333333333334</ele><time>2026-05-01T08:12:21.466Z</time></trkpt><trkpt lat="43.2368517" lon="12.1617393"><ele>574.1666666666666</ele><time>2026-05-01T08:12:22.466Z</time></trkpt><trkpt lat="43.2369096" lon="12.161817"><ele>570.0</ele><time>2026-05-01T08:12:23.466Z</time></trkpt><trkpt lat="43.2369375" lon="12.1619165"><ele>570.0</ele><time>2026-05-01T08:12:24.465Z</time></trkpt><trkpt lat="43.2369574" lon="12.162032"><ele>570.0</ele><time>2026-05-01T08:12:25.465Z</time></trkpt><trkpt lat="43.2369812" lon="12.1621456"><ele>570.0</ele><time>2026-05-01T08:12:26.466Z</time></trkpt><trkpt lat="43.2369989" lon="12.1622433"><ele>570.0</ele><time>2026-05-01T08:12:27.466Z</time></trkpt><trkpt lat="43.237034" lon="12.1623195"><ele>570.0</ele><time>2026-05-01T08:12:28.466Z</time></trkpt><trkpt lat="43.237085" lon="12.162371"><ele>570.0</ele><time>2026-05-01T08:12:29.466Z</time></trkpt><trkpt lat="43.237162" lon="12.162382"><ele>571.2</ele><time>2026-05-01T08:12:30.466Z</time></trkpt><trkpt lat="43.2372385" lon="12.1624064"><ele>572.4</ele><time>2026-05-01T08:12:31.466Z</time></trkpt><trkpt lat="43.2373286" lon="12.1624495"><ele>573.6</ele><time>2026-05-01T08:12:32.466Z</time></trkpt><trkpt lat="43.2374189" lon="12.16254"><ele>574.8</ele><time>2026-05-01T08:12:33.465Z</time></trkpt><trkpt lat="43.2374948" lon="12.1626139"><ele>576.0</ele><time>2026-05-01T08:12:34.466Z</time></trkpt><trkpt lat="43.2375512" lon="12.1627026"><ele>573.0</ele><time>2026-05-01T08:12:35.465Z</time></trkpt><trkpt lat="43.237592" lon="12.1628096"><ele>570.0</ele><time>2026-05-01T08:12:36.466Z</time></trkpt><trkpt lat="43.2376173" lon="12.1629167"><ele>567.0</ele><time>2026-05-01T08:12:37.466Z</time></trkpt><trkpt lat="43.2376499" lon="12.1630152"><ele>564.0</ele><time>2026-05-01T08:12:38.466Z</time></trkpt><trkpt lat="43.2377058" lon="12.1631089"><ele>561.0</ele><time>2026-05-01T08:12:39.465Z</time></trkpt><trkpt lat="43.23778" lon="12.1631716"><ele>558.0</ele><time>2026-05-01T08:12:40.465Z</time></trkpt><trkpt lat="43.2378765" lon="12.1632021"><ele>558.0</ele><time>2026-05-01T08:12:41.466Z</time></trkpt><trkpt lat="43.2379596" lon="12.1632311"><ele>558.0</ele><time>2026-05-01T08:12:42.466Z</time></trkpt><trkpt lat="43.2380306" lon="12.1632724"><ele>558.0</ele><time>2026-05-01T08:12:43.465Z</time></trkpt><trkpt lat="43.2381022" lon="12.1633486"><ele>558.0</ele><time>2026-05-01T08:12:44.466Z</time></trkpt><trkpt lat="43.2381653" lon="12.163449"><ele>558.0</ele><time>2026-05-01T08:12:45.465Z</time></trkpt><trkpt lat="43.2382066" lon="12.1635725"><ele>558.0</ele><time>2026-05-01T08:12:46.466Z</time></trkpt><trkpt lat="43.2382416" lon="12.1637224"><ele>553.6666666666666</ele><time>2026-05-01T08:12:47.465Z</time></trkpt><trkpt lat="43.2382694" lon="12.1638432"><ele>549.3333333333334</ele><time>2026-05-01T08:12:48.466Z</time></trkpt><trkpt lat="43.2382819" lon="12.1639533"><ele>545.0</ele><time>2026-05-01T08:12:49.466Z</time></trkpt><trkpt lat="43.2382664" lon="12.1640661"><ele>540.6666666666667</ele><time>2026-05-01T08:12:50.465Z</time></trkpt><trkpt lat="43.2382431" lon="12.1641819"><ele>536.3333333333334</ele><time>2026-05-01T08:12:51.466Z</time></trkpt><trkpt lat="43.2382344" lon="12.1643123"><ele>532.0</ele><time>2026-05-01T08:12:52.466Z</time></trkpt><trkpt lat="43.2382313" lon="12.164451"><ele>532.0</ele><time>2026-05-01T08:12:53.466Z</time></trkpt><trkpt lat="43.2382429" lon="12.1645924"><ele>532.0</ele><time>2026-05-01T08:12:54.465Z</time></trkpt><trkpt lat="43.2382667" lon="12.1647139"><ele>532.0</ele><time>2026-05-01T08:12:55.466Z</time></trkpt><trkpt lat="43.2382959" lon="12.1648242"><ele>532.0</ele><time>2026-05-01T08:12:56.466Z</time></trkpt><trkpt lat="43.2383364" lon="12.1649387"><ele>532.0</ele><time>2026-05-01T08:12:57.466Z</time></trkpt><trkpt lat="43.2383715" lon="12.1650827"><ele>532.0</ele><time>2026-05-01T08:12:58.465Z</time></trkpt><trkpt lat="43.2383933" lon="12.1652448"><ele>532.0</ele><time>2026-05-01T08:12:59.466Z</time></trkpt><trkpt lat="43.2384097" lon="12.1654257"><ele>532.0</ele><time>2026-05-01T08:13:00.466Z</time></trkpt><trkpt lat="43.2384519" lon="12.1656368"><ele>532.0</ele><time>2026-05-01T08:13:01.466Z</time></trkpt><trkpt lat="43.2384956" lon="12.1658504"><ele>532.0</ele><time>2026-05-01T08:13:02.466Z</time></trkpt><trkpt lat="43.2385385" lon="12.1660717"><ele>532.0</ele><time>2026-05-01T08:13:03.466Z</time></trkpt><trkpt lat="43.2385837" lon="12.1662692"><ele>532.0</ele><time>2026-05-01T08:13:04.465Z</time></trkpt><trkpt lat="43.2386281" lon="12.166458"><ele>531.0</ele><time>2026-05-01T08:13:05.466Z</time></trkpt><trkpt lat="43.2386636" lon="12.1666329"><ele>530.0</ele><time>2026-05-01T08:13:06.465Z</time></trkpt><trkpt lat="43.2386899" lon="12.1667981"><ele>529.0</ele><time>2026-05-01T08:13:07.466Z</time></trkpt><trkpt lat="43.2387025" lon="12.1669367"><ele>528.0</ele><time>2026-05-01T08:13:08.466Z</time></trkpt><trkpt lat="43.23872" lon="12.1670714"><ele>528.0</ele><time>2026-05-01T08:13:09.466Z</time></trkpt><trkpt lat="43.2387344" lon="12.1671742"><ele>528.0</ele><time>2026-05-01T08:13:10.466Z</time></trkpt><trkpt lat="43.2387614" lon="12.1672591"><ele>528.0</ele><time>2026-05-01T08:13:11.466Z</time></trkpt><trkpt lat="43.2388025" lon="12.1673315"><ele>528.0</ele><time>2026-05-01T08:13:12.466Z</time></trkpt><trkpt lat="43.2388536" lon="12.1673931"><ele>528.0</ele><time>2026-05-01T08:13:13.466Z</time></trkpt><trkpt lat="43.2389008" lon="12.1674552"><ele>528.0</ele><time>2026-05-01T08:13:14.466Z</time></trkpt><trkpt lat="43.2389708" lon="12.1675459"><ele>528.0</ele><time>2026-05-01T08:13:16.465Z</time></trkpt><trkpt lat="43.2389647" lon="12.1676369"><ele>524.8333333333334</ele><time>2026-05-01T08:13:19.466Z</time></trkpt><trkpt lat="43.2388883" lon="12.1676662"><ele>521.6666666666666</ele><time>2026-05-01T08:13:21.466Z</time></trkpt><trkpt lat="43.238811" lon="12.1676841"><ele>518.5</ele><time>2026-05-01T08:13:23.466Z</time></trkpt><trkpt lat="43.2387426" lon="12.1677061"><ele>515.3333333333333</ele><time>2026-05-01T08:13:26.465Z</time></trkpt><trkpt lat="43.2386405" lon="12.1677173"><ele>512.1666666666666</ele><time>2026-05-01T08:14:14.465Z</time></trkpt><trkpt lat="43.2385719" lon="12.1677207"><ele>509.0</ele><time>2026-05-01T08:14:15.466Z</time></trkpt><trkpt lat="43.2384993" lon="12.1677268"><ele>509.0</ele><time>2026-05-01T08:14:16.466Z</time></trkpt><trkpt lat="43.2384182" lon="12.1677371"><ele>509.0</ele><time>2026-05-01T08:14:17.466Z</time></trkpt><trkpt lat="43.2383314" lon="12.1677548"><ele>509.0</ele><time>2026-05-01T08:14:18.466Z</time></trkpt><trkpt lat="43.2382359" lon="12.1677831"><ele>509.0</ele><time>2026-05-01T08:14:19.466Z</time></trkpt><trkpt lat="43.23814" lon="12.1678107"><ele>509.0</ele><time>2026-05-01T08:14:20.465Z</time></trkpt><trkpt lat="43.2380576" lon="12.1678567"><ele>510.6</ele><time>2026-05-01T08:14:21.466Z</time></trkpt><trkpt lat="43.237987" lon="12.1679507"><ele>512.2</ele><time>2026-05-01T08:14:22.466Z</time></trkpt><trkpt lat="43.2379567" lon="12.1680712"><ele>513.8000000000001</ele><time>2026-05-01T08:14:23.465Z</time></trkpt><trkpt lat="43.2379861" lon="12.1682136"><ele>515.4</ele><time>2026-05-01T08:14:24.466Z</time></trkpt><trkpt lat="43.2380511" lon="12.1683556"><ele>517.0</ele><time>2026-05-01T08:14:25.466Z</time></trkpt><trkpt lat="43.2381253" lon="12.1685137"><ele>512.0</ele><time>2026-05-01T08:14:26.466Z</time></trkpt><trkpt lat="43.2381883" lon="12.1686679"><ele>507.0</ele><time>2026-05-01T08:14:27.465Z</time></trkpt><trkpt lat="43.238254" lon="12.1688136"><ele>502.0</ele><time>2026-05-01T08:14:28.466Z</time></trkpt><trkpt lat="43.2383086" lon="12.1689608"><ele>497.0</ele><time>2026-05-01T08:14:29.465Z</time></trkpt><trkpt lat="43.2383695" lon="12.1691037"><ele>494.5</ele><time>2026-05-01T08:14:30.465Z</time></trkpt><trkpt lat="43.2384341" lon="12.1692467"><ele>492.0</ele><time>2026-05-01T08:14:31.466Z</time></trkpt><trkpt lat="43.238521" lon="12.1693797"><ele>489.5</ele><time>2026-05-01T08:14:32.466Z</time></trkpt><trkpt lat="43.2386165" lon="12.1694913"><ele>487.0</ele><time>2026-05-01T08:14:33.466Z</time></trkpt><trkpt lat="43.2387206" lon="12.1695923"><ele>487.0</ele><time>2026-05-01T08:14:34.466Z</time></trkpt><trkpt lat="43.2388212" lon="12.1696917"><ele>487.0</ele><time>2026-05-01T08:14:35.466Z</time></trkpt><trkpt lat="43.238909" lon="12.1697827"><ele>487.0</ele><time>2026-05-01T08:14:36.466Z</time></trkpt><trkpt lat="43.2389847" lon="12.1698945"><ele>487.0</ele><time>2026-05-01T08:14:37.466Z</time></trkpt><trkpt lat="43.239036" lon="12.1700324"><ele>487.0</ele><time>2026-05-01T08:14:38.466Z</time></trkpt><trkpt lat="43.2390587" lon="12.1701897"><ele>487.0</ele><time>2026-05-01T08:14:39.465Z</time></trkpt><trkpt lat="43.2390479" lon="12.1703562"><ele>487.0</ele><time>2026-05-01T08:14:40.466Z</time></trkpt><trkpt lat="43.2390145" lon="12.1705035"><ele>487.0</ele><time>2026-05-01T08:14:41.466Z</time></trkpt><trkpt lat="43.2389629" lon="12.1706585"><ele>483.0</ele><time>2026-05-01T08:14:42.465Z</time></trkpt><trkpt lat="43.2388944" lon="12.1708101"><ele>479.0</ele><time>2026-05-01T08:14:43.466Z</time></trkpt><trkpt lat="43.2387959" lon="12.1709561"><ele>475.0</ele><time>2026-05-01T08:14:44.466Z</time></trkpt><trkpt lat="43.2386849" lon="12.1711084"><ele>471.0</ele><time>2026-05-01T08:14:45.466Z</time></trkpt><trkpt lat="43.2385682" lon="12.171247"><ele>471.0</ele><time>2026-05-01T08:14:46.466Z</time></trkpt><trkpt lat="43.2384538" lon="12.171391"><ele>471.0</ele><time>2026-05-01T08:14:47.466Z</time></trkpt><trkpt lat="43.2383501" lon="12.1715267"><ele>471.0</ele><time>2026-05-01T08:14:48.466Z</time></trkpt><trkpt lat="43.2382421" lon="12.1716639"><ele>471.0</ele><time>2026-05-01T08:14:49.466Z</time></trkpt><trkpt lat="43.2381388" lon="12.1718058"><ele>466.0</ele><time>2026-05-01T08:14:50.466Z</time></trkpt><trkpt lat="43.2380426" lon="12.1719446"><ele>461.0</ele><time>2026-05-01T08:14:51.465Z</time></trkpt><trkpt lat="43.2379639" lon="12.1720968"><ele>456.0</ele><time>2026-05-01T08:14:52.465Z</time></trkpt><trkpt lat="43.2378997" lon="12.172273"><ele>451.0</ele><time>2026-05-01T08:14:53.466Z</time></trkpt><trkpt lat="43.2378403" lon="12.1724532"><ele>451.0</ele><time>2026-05-01T08:14:54.466Z</time></trkpt><trkpt lat="43.2377928" lon="12.1726356"><ele>451.0</ele><time>2026-05-01T08:14:55.466Z</time></trkpt><trkpt lat="43.2377548" lon="12.1728169"><ele>451.0</ele><time>2026-05-01T08:14:56.466Z</time></trkpt><trkpt lat="43.2377165" lon="12.1729972"><ele>451.0</ele><time>2026-05-01T08:14:57.466Z</time></trkpt><trkpt lat="43.2376763" lon="12.1731724"><ele>451.75</ele><time>2026-05-01T08:14:58.466Z</time></trkpt><trkpt lat="43.2376408" lon="12.1733355"><ele>452.5</ele><time>2026-05-01T08:14:59.466Z</time></trkpt><trkpt lat="43.2375942" lon="12.173487"><ele>453.25</ele><time>2026-05-01T08:15:00.466Z</time></trkpt><trkpt lat="43.2375368" lon="12.1736297"><ele>454.0</ele><time>2026-05-01T08:15:01.465Z</time></trkpt><trkpt lat="43.237472" lon="12.1737574"><ele>454.0</ele><time>2026-05-01T08:15:02.466Z</time></trkpt><trkpt lat="43.2373938" lon="12.1738783"><ele>454.0</ele><time>2026-05-01T08:15:03.465Z</time></trkpt><trkpt lat="43.2373049" lon="12.1739933"><ele>454.0</ele><time>2026-05-01T08:15:04.466Z</time></trkpt><trkpt lat="43.2372324" lon="12.1741276"><ele>454.0</ele><time>2026-05-01T08:15:05.465Z</time></trkpt><trkpt lat="43.237177" lon="12.1742674"><ele>448.25</ele><time>2026-05-01T08:15:06.466Z</time></trkpt><trkpt lat="43.237139" lon="12.1744112"><ele>442.5</ele><time>2026-05-01T08:15:07.465Z</time></trkpt><trkpt lat="43.2371388" lon="12.1745745"><ele>436.75</ele><time>2026-05-01T08:15:08.465Z</time></trkpt><trkpt lat="43.2371545" lon="12.1747525"><ele>431.0</ele><time>2026-05-01T08:15:09.465Z</time></trkpt><trkpt lat="43.2371838" lon="12.1749234"><ele>431.0</ele><time>2026-05-01T08:15:10.466Z</time></trkpt><trkpt lat="43.2371977" lon="12.1750957"><ele>431.0</ele><time>2026-05-01T08:15:11.466Z</time></trkpt><trkpt lat="43.2371702" lon="12.1752658"><ele>431.0</ele><time>2026-05-01T08:15:12.466Z</time></trkpt><trkpt lat="43.2371037" lon="12.1754075"><ele>431.0</ele><time>2026-05-01T08:15:13.465Z</time></trkpt><trkpt lat="43.2370248" lon="12.1755149"><ele>431.0</ele><time>2026-05-01T08:15:14.466Z</time></trkpt><trkpt lat="43.2369499" lon="12.1756162"><ele>431.0</ele><time>2026-05-01T08:15:15.466Z</time></trkpt><trkpt lat="43.2368908" lon="12.1757323"><ele>431.0</ele><time>2026-05-01T08:15:16.466Z</time></trkpt><trkpt lat="43.236854" lon="12.1758659"><ele>431.0</ele><time>2026-05-01T08:15:17.466Z</time></trkpt><trkpt lat="43.2368269" lon="12.1760108"><ele>431.0</ele><time>2026-05-01T08:15:18.466Z</time></trkpt><trkpt lat="43.2368303" lon="12.1761777"><ele>430.6</ele><time>2026-05-01T08:15:19.466Z</time></trkpt><trkpt lat="43.2368458" lon="12.1763511"><ele>430.20000000000005</ele><time>2026-05-01T08:15:20.466Z</time></trkpt><trkpt lat="43.2368682" lon="12.1764856"><ele>429.79999999999995</ele><time>2026-05-01T08:15:21.465Z</time></trkpt><trkpt lat="43.2368756" lon="12.1765747"><ele>429.4</ele><time>2026-05-01T08:15:22.466Z</time></trkpt><trkpt lat="43.2368769" lon="12.1766861"><ele>429.0</ele><time>2026-05-01T08:15:24.466Z</time></trkpt><trkpt lat="43.2368825" lon="12.1768157"><ele>428.75</ele><time>2026-05-01T08:15:43.466Z</time></trkpt><trkpt lat="43.236899" lon="12.1770245"><ele>428.5</ele><time>2026-05-01T08:15:45.466Z</time></trkpt><trkpt lat="43.2369196" lon="12.1771647"><ele>428.25</ele><time>2026-05-01T08:15:46.466Z</time></trkpt><trkpt lat="43.2369254" lon="12.1773157"><ele>428.0</ele><time>2026-05-01T08:15:47.466Z</time></trkpt><trkpt lat="43.2369346" lon="12.1774893"><ele>427.2</ele><time>2026-05-01T08:15:48.466Z</time></trkpt><trkpt lat="43.2369406" lon="12.1776574"><ele>426.4</ele><time>2026-05-01T08:15:49.465Z</time></trkpt><trkpt lat="43.23694" lon="12.1778132"><ele>425.59999999999997</ele><time>2026-05-01T08:15:50.466Z</time></trkpt><trkpt lat="43.2369378" lon="12.1779601"><ele>424.79999999999995</ele><time>2026-05-01T08:15:51.466Z</time></trkpt><trkpt lat="43.2369314" lon="12.1781029"><ele>424.0</ele><time>2026-05-01T08:15:52.465Z</time></trkpt><trkpt lat="43.2369186" lon="12.1782455"><ele>423.6666666666667</ele><time>2026-05-01T08:15:53.466Z</time></trkpt><trkpt lat="43.2368983" lon="12.1783749"><ele>423.33333333333337</ele><time>2026-05-01T08:15:54.466Z</time></trkpt><trkpt lat="43.2368756" lon="12.1784922"><ele>423.0</ele><time>2026-05-01T08:15:55.466Z</time></trkpt><trkpt lat="43.236849" lon="12.1785841"><ele>422.66666666666663</ele><time>2026-05-01T08:15:56.466Z</time></trkpt><trkpt lat="43.2368289" lon="12.1786932"><ele>422.3333333333333</ele><time>2026-05-01T08:15:58.466Z</time></trkpt><trkpt lat="43.2369021" lon="12.1787403"><ele>422.0</ele><time>2026-05-01T08:16:00.466Z</time></trkpt><trkpt lat="43.2370435" lon="12.1786948"><ele>422.0</ele><time>2026-05-01T08:16:02.466Z</time></trkpt><trkpt lat="43.2371413" lon="12.1786451"><ele>422.0</ele><time>2026-05-01T08:16:03.465Z</time></trkpt><trkpt lat="43.2372341" lon="12.178587"><ele>422.0</ele><time>2026-05-01T08:16:04.466Z</time></trkpt><trkpt lat="43.2373041" lon="12.1785286"><ele>422.0</ele><time>2026-05-01T08:16:05.466Z</time></trkpt><trkpt lat="43.2373744" lon="12.1784321"><ele>422.0</ele><time>2026-05-01T08:16:06.466Z</time></trkpt><trkpt lat="43.2374222" lon="12.1783248"><ele>424.3333333333333</ele><time>2026-05-01T08:16:07.465Z</time></trkpt><trkpt lat="43.237444" lon="12.1782206"><ele>426.66666666666663</ele><time>2026-05-01T08:16:08.466Z</time></trkpt><trkpt lat="43.2374515" lon="12.1781307"><ele>429.0</ele><time>2026-05-01T08:16:09.466Z</time></trkpt><trkpt lat="43.2374763" lon="12.178035"><ele>431.33333333333337</ele><time>2026-05-01T08:16:11.466Z</time></trkpt><trkpt lat="43.2376111" lon="12.178095"><ele>433.6666666666667</ele><time>2026-05-01T08:16:13.466Z</time></trkpt><trkpt lat="43.237686" lon="12.1781412"><ele>436.0</ele><time>2026-05-01T08:16:14.466Z</time></trkpt><trkpt lat="43.2377682" lon="12.1781631"><ele>436.0</ele><time>2026-05-01T08:16:15.466Z</time></trkpt><trkpt lat="43.237844" lon="12.1781787"><ele>436.0</ele><time>2026-05-01T08:16:16.466Z</time></trkpt><trkpt lat="43.2379437" lon="12.1781866"><ele>436.0</ele><time>2026-05-01T08:16:17.466Z</time></trkpt><trkpt lat="43.238081" lon="12.1781977"><ele>436.0</ele><time>2026-05-01T08:16:18.466Z</time></trkpt><trkpt lat="43.2382058" lon="12.1782151"><ele>436.0</ele><time>2026-05-01T08:16:19.466Z</time></trkpt><trkpt lat="43.2383251" lon="12.1782374"><ele>437.5</ele><time>2026-05-01T08:16:20.466Z</time></trkpt><trkpt lat="43.238447" lon="12.1782517"><ele>439.0</ele><time>2026-05-01T08:16:21.466Z</time></trkpt><trkpt lat="43.2385667" lon="12.1782519"><ele>440.5</ele><time>2026-05-01T08:16:22.465Z</time></trkpt><trkpt lat="43.238686" lon="12.1782309"><ele>442.0</ele><time>2026-05-01T08:16:23.466Z</time></trkpt><trkpt lat="43.238808" lon="12.1781804"><ele>445.40000000000003</ele><time>2026-05-01T08:16:24.466Z</time></trkpt><trkpt lat="43.2389269" lon="12.1781265"><ele>448.80000000000007</ele><time>2026-05-01T08:16:25.466Z</time></trkpt><trkpt lat="43.2390287" lon="12.1780701"><ele>452.2</ele><time>2026-05-01T08:16:26.465Z</time></trkpt><trkpt lat="43.2391263" lon="12.1780186"><ele>455.6</ele><time>2026-05-01T08:16:27.466Z</time></trkpt><trkpt lat="43.239218" lon="12.1779713"><ele>459.0</ele><time>2026-05-01T08:16:28.466Z</time></trkpt><trkpt lat="43.2393037" lon="12.177925"><ele>459.0</ele><time>2026-05-01T08:16:29.466Z</time></trkpt><trkpt lat="43.2393773" lon="12.1778287"><ele>459.0</ele><time>2026-05-01T08:16:30.465Z</time></trkpt><trkpt lat="43.239451" lon="12.1777093"><ele>459.0</ele><time>2026-05-01T08:16:31.466Z</time></trkpt><trkpt lat="43.2395169" lon="12.1775774"><ele>459.0</ele><time>2026-05-01T08:16:32.466Z</time></trkpt><trkpt lat="43.2395722" lon="12.1774576"><ele>459.0</ele><time>2026-05-01T08:16:33.466Z</time></trkpt><trkpt lat="43.2396215" lon="12.1773388"><ele>459.79999999999995</ele><time>2026-05-01T08:16:34.466Z</time></trkpt><trkpt lat="43.2396762" lon="12.1772542"><ele>460.59999999999997</ele><time>2026-05-01T08:16:35.465Z</time></trkpt><trkpt lat="43.2397515" lon="12.1771886"><ele>461.4</ele><time>2026-05-01T08:16:36.465Z</time></trkpt><trkpt lat="43.2398409" lon="12.177166"><ele>462.2</ele><time>2026-05-01T08:16:37.466Z</time></trkpt><trkpt lat="43.2399499" lon="12.1771845"><ele>463.0</ele><time>2026-05-01T08:16:38.466Z</time></trkpt><trkpt lat="43.2400501" lon="12.177205"><ele>463.0</ele><time>2026-05-01T08:16:39.466Z</time></trkpt><trkpt lat="43.240168" lon="12.1772115"><ele>463.0</ele><time>2026-05-01T08:16:40.466Z</time></trkpt><trkpt lat="43.2402901" lon="12.1772173"><ele>463.0</ele><time>2026-05-01T08:16:41.465Z</time></trkpt><trkpt lat="43.2404071" lon="12.177208"><ele>463.0</ele><time>2026-05-01T08:16:42.466Z</time></trkpt><trkpt lat="43.2405152" lon="12.1771996"><ele>463.0</ele><time>2026-05-01T08:16:43.465Z</time></trkpt><trkpt lat="43.2406294" lon="12.1772124"><ele>462.99999999999994</ele><time>2026-05-01T08:16:44.466Z</time></trkpt><trkpt lat="43.2407376" lon="12.177237"><ele>462.99999999999994</ele><time>2026-05-01T08:16:45.466Z</time></trkpt><trkpt lat="43.2408346" lon="12.1772804"><ele>463.0</ele><time>2026-05-01T08:16:46.466Z</time></trkpt><trkpt lat="43.2409309" lon="12.1773433"><ele>463.0</ele><time>2026-05-01T08:16:47.466Z</time></trkpt><trkpt lat="43.2410328" lon="12.1773882"><ele>462.59999999999997</ele><time>2026-05-01T08:16:48.466Z</time></trkpt><trkpt lat="43.2411308" lon="12.1774244"><ele>462.19999999999993</ele><time>2026-05-01T08:16:49.466Z</time></trkpt><trkpt lat="43.2412377" lon="12.177455"><ele>461.8</ele><time>2026-05-01T08:16:50.466Z</time></trkpt><trkpt lat="43.2413393" lon="12.177465"><ele>461.4</ele><time>2026-05-01T08:16:51.466Z</time></trkpt><trkpt lat="43.2414468" lon="12.1774442"><ele>461.0</ele><time>2026-05-01T08:16:52.466Z</time></trkpt><trkpt lat="43.2415593" lon="12.177396"><ele>466.5</ele><time>2026-05-01T08:16:53.466Z</time></trkpt><trkpt lat="43.2416688" lon="12.1773239"><ele>472.0</ele><time>2026-05-01T08:16:54.466Z</time></trkpt><trkpt lat="43.2417935" lon="12.1772469"><ele>477.5</ele><time>2026-05-01T08:16:55.466Z</time></trkpt><trkpt lat="43.2419136" lon="12.1771837"><ele>483.0</ele><time>2026-05-01T08:16:56.465Z</time></trkpt><trkpt lat="43.2420385" lon="12.1771136"><ele>483.0</ele><time>2026-05-01T08:16:57.466Z</time></trkpt><trkpt lat="43.2421681" lon="12.1770592"><ele>483.0</ele><time>2026-05-01T08:16:58.466Z</time></trkpt><trkpt lat="43.2422955" lon="12.177014"><ele>483.0</ele><time>2026-05-01T08:16:59.465Z</time></trkpt><trkpt lat="43.242419" lon="12.1769863"><ele>483.0</ele><time>2026-05-01T08:17:00.466Z</time></trkpt><trkpt lat="43.2425436" lon="12.1769802"><ele>483.25</ele><time>2026-05-01T08:17:01.465Z</time></trkpt><trkpt lat="43.2426627" lon="12.1769866"><ele>483.5</ele><time>2026-05-01T08:17:02.466Z</time></trkpt><trkpt lat="43.2427826" lon="12.1770294"><ele>483.75</ele><time>2026-05-01T08:17:03.466Z</time></trkpt><trkpt lat="43.2428936" lon="12.177085"><ele>484.0</ele><time>2026-05-01T08:17:04.466Z</time></trkpt><trkpt lat="43.2429931" lon="12.1771527"><ele>484.0</ele><time>2026-05-01T08:17:05.466Z</time></trkpt><trkpt lat="43.2430843" lon="12.1772184"><ele>484.0</ele><time>2026-05-01T08:17:06.466Z</time></trkpt><trkpt lat="43.2431733" lon="12.1772868"><ele>484.0</ele><time>2026-05-01T08:17:07.466Z</time></trkpt><trkpt lat="43.2432725" lon="12.1773515"><ele>484.0</ele><time>2026-05-01T08:17:08.465Z</time></trkpt><trkpt lat="43.2433901" lon="12.1773984"><ele>484.0</ele><time>2026-05-01T08:17:09.465Z</time></trkpt><trkpt lat="43.2435246" lon="12.1774295"><ele>482.5</ele><time>2026-05-01T08:17:10.466Z</time></trkpt><trkpt lat="43.243666" lon="12.1774278"><ele>481.0</ele><time>2026-05-01T08:17:11.466Z</time></trkpt><trkpt lat="43.2438029" lon="12.1774205"><ele>479.5</ele><time>2026-05-01T08:17:12.465Z</time></trkpt><trkpt lat="43.2439283" lon="12.1774215"><ele>478.0</ele><time>2026-05-01T08:17:13.466Z</time></trkpt><trkpt lat="43.2440435" lon="12.1774271"><ele>478.0</ele><time>2026-05-01T08:17:14.466Z</time></trkpt><trkpt lat="43.2441582" lon="12.1774418"><ele>478.0</ele><time>2026-05-01T08:17:15.466Z</time></trkpt><trkpt lat="43.244269" lon="12.1774806"><ele>478.0</ele><time>2026-05-01T08:17:16.466Z</time></trkpt><trkpt lat="43.2443771" lon="12.1775509"><ele>478.0</ele><time>2026-05-01T08:17:17.465Z</time></trkpt><trkpt lat="43.2444839" lon="12.1776373"><ele>478.0</ele><time>2026-05-01T08:17:18.466Z</time></trkpt><trkpt lat="43.24459" lon="12.1777292"><ele>478.0</ele><time>2026-05-01T08:17:19.465Z</time></trkpt><trkpt lat="43.2446911" lon="12.1778119"><ele>478.0</ele><time>2026-05-01T08:17:20.466Z</time></trkpt><trkpt lat="43.244794" lon="12.1778804"><ele>478.0</ele><time>2026-05-01T08:17:21.466Z</time></trkpt><trkpt lat="43.244885" lon="12.1779433"><ele>479.4</ele><time>2026-05-01T08:17:22.466Z</time></trkpt><trkpt lat="43.2449784" lon="12.1779985"><ele>480.79999999999995</ele><time>2026-05-01T08:17:23.466Z</time></trkpt><trkpt lat="43.2450769" lon="12.1780387"><ele>482.2</ele><time>2026-05-01T08:17:24.465Z</time></trkpt><trkpt lat="43.2451762" lon="12.1780364"><ele>483.6</ele><time>2026-05-01T08:17:25.466Z</time></trkpt><trkpt lat="43.2452907" lon="12.1779861"><ele>485.0</ele><time>2026-05-01T08:17:26.466Z</time></trkpt><trkpt lat="43.2453938" lon="12.177937"><ele>485.0</ele><time>2026-05-01T08:17:27.466Z</time></trkpt><trkpt lat="43.2454908" lon="12.1778909"><ele>485.0</ele><time>2026-05-01T08:17:28.465Z</time></trkpt><trkpt lat="43.2455834" lon="12.1778736"><ele>485.0</ele><time>2026-05-01T08:17:29.466Z</time></trkpt><trkpt lat="43.2457149" lon="12.1778888"><ele>485.0</ele><time>2026-05-01T08:17:31.466Z</time></trkpt><trkpt lat="43.2457896" lon="12.1778979"><ele>485.0</ele><time>2026-05-01T08:17:32.466Z</time></trkpt><trkpt lat="43.2458603" lon="12.1778925"><ele>485.8</ele><time>2026-05-01T08:17:33.466Z</time></trkpt><trkpt lat="43.2459405" lon="12.177877"><ele>486.6</ele><time>2026-05-01T08:17:34.465Z</time></trkpt><trkpt lat="43.2460192" lon="12.1778276"><ele>487.4</ele><time>2026-05-01T08:17:35.466Z</time></trkpt><trkpt lat="43.2460975" lon="12.1777551"><ele>488.2</ele><time>2026-05-01T08:17:36.466Z</time></trkpt><trkpt lat="43.2461841" lon="12.1776649"><ele>489.0</ele><time>2026-05-01T08:17:37.466Z</time></trkpt><trkpt lat="43.2462651" lon="12.1775863"><ele>489.0</ele><time>2026-05-01T08:17:38.465Z</time></trkpt><trkpt lat="43.246364" lon="12.1775111"><ele>489.0</ele><time>2026-05-01T08:17:39.465Z</time></trkpt><trkpt lat="43.2464705" lon="12.1774533"><ele>489.0</ele><time>2026-05-01T08:17:40.466Z</time></trkpt><trkpt lat="43.2465798" lon="12.1773982"><ele>489.0</ele><time>2026-05-01T08:17:41.466Z</time></trkpt><trkpt lat="43.2466835" lon="12.1773371"><ele>485.0</ele><time>2026-05-01T08:17:42.466Z</time></trkpt><trkpt lat="43.2467783" lon="12.1772604"><ele>481.0</ele><time>2026-05-01T08:17:43.465Z</time></trkpt><trkpt lat="43.2468651" lon="12.1771445"><ele>477.0</ele><time>2026-05-01T08:17:44.466Z</time></trkpt><trkpt lat="43.246949" lon="12.1770113"><ele>473.0</ele><time>2026-05-01T08:17:45.466Z</time></trkpt><trkpt lat="43.2470247" lon="12.1768601"><ele>473.0</ele><time>2026-05-01T08:17:46.466Z</time></trkpt><trkpt lat="43.2470983" lon="12.1766922"><ele>473.0</ele><time>2026-05-01T08:17:47.466Z</time></trkpt><trkpt lat="43.2471752" lon="12.1765333"><ele>473.0</ele><time>2026-05-01T08:17:48.466Z</time></trkpt><trkpt lat="43.2472633" lon="12.1763696"><ele>473.0</ele><time>2026-05-01T08:17:49.466Z</time></trkpt><trkpt lat="43.2473659" lon="12.1762228"><ele>468.0</ele><time>2026-05-01T08:17:50.466Z</time></trkpt><trkpt lat="43.2474837" lon="12.1760825"><ele>463.0</ele><time>2026-05-01T08:17:51.465Z</time></trkpt><trkpt lat="43.2476051" lon="12.1759608"><ele>458.0</ele><time>2026-05-01T08:17:52.466Z</time></trkpt><trkpt lat="43.2477234" lon="12.1758468"><ele>458.0</ele><time>2026-05-01T08:17:53.466Z</time></trkpt><trkpt lat="43.2478366" lon="12.1757656"><ele>458.0</ele><time>2026-05-01T08:17:54.466Z</time></trkpt><trkpt lat="43.2479598" lon="12.1757082"><ele>458.0</ele><time>2026-05-01T08:17:55.465Z</time></trkpt><trkpt lat="43.2480807" lon="12.1756489"><ele>458.0</ele><time>2026-05-01T08:17:56.466Z</time></trkpt><trkpt lat="43.2482055" lon="12.1756013"><ele>453.25</ele><time>2026-05-01T08:17:57.466Z</time></trkpt><trkpt lat="43.2483335" lon="12.175553"><ele>448.5</ele><time>2026-05-01T08:17:58.466Z</time></trkpt><trkpt lat="43.2484588" lon="12.1755276"><ele>443.75</ele><time>2026-05-01T08:17:59.466Z</time></trkpt><trkpt lat="43.24859" lon="12.1755287"><ele>439.0</ele><time>2026-05-01T08:18:00.466Z</time></trkpt><trkpt lat="43.2487082" lon="12.1755619"><ele>439.0</ele><time>2026-05-01T08:18:01.466Z</time></trkpt><trkpt lat="43.2488436" lon="12.1755472"><ele>439.0</ele><time>2026-05-01T08:18:02.466Z</time></trkpt><trkpt lat="43.2489635" lon="12.1754904"><ele>439.0</ele><time>2026-05-01T08:18:03.466Z</time></trkpt><trkpt lat="43.2490756" lon="12.1753997"><ele>439.0</ele><time>2026-05-01T08:18:04.466Z</time></trkpt><trkpt lat="43.2491794" lon="12.175319"><ele>438.25</ele><time>2026-05-01T08:18:05.466Z</time></trkpt><trkpt lat="43.249282" lon="12.1752573"><ele>437.5</ele><time>2026-05-01T08:18:06.466Z</time></trkpt><trkpt lat="43.2493891" lon="12.1751972"><ele>436.75</ele><time>2026-05-01T08:18:07.466Z</time></trkpt><trkpt lat="43.2494997" lon="12.1751454"><ele>436.0</ele><time>2026-05-01T08:18:08.466Z</time></trkpt><trkpt lat="43.2496101" lon="12.1750726"><ele>436.0</ele><time>2026-05-01T08:18:09.466Z</time></trkpt><trkpt lat="43.2497178" lon="12.1749744"><ele>436.0</ele><time>2026-05-01T08:18:10.466Z</time></trkpt><trkpt lat="43.2498286" lon="12.1748608"><ele>436.0</ele><time>2026-05-01T08:18:11.466Z</time></trkpt><trkpt lat="43.2499263" lon="12.174747"><ele>436.0</ele><time>2026-05-01T08:18:12.465Z</time></trkpt><trkpt lat="43.2500267" lon="12.174638"><ele>433.25</ele><time>2026-05-01T08:18:13.465Z</time></trkpt><trkpt lat="43.250118" lon="12.1745409"><ele>430.5</ele><time>2026-05-01T08:18:14.465Z</time></trkpt><trkpt lat="43.2502182" lon="12.1744632"><ele>427.75</ele><time>2026-05-01T08:18:15.466Z</time></trkpt><trkpt lat="43.2503226" lon="12.1744071"><ele>425.0</ele><time>2026-05-01T08:18:16.466Z</time></trkpt><trkpt lat="43.2504367" lon="12.1743496"><ele>425.0</ele><time>2026-05-01T08:18:17.466Z</time></trkpt><trkpt lat="43.250549" lon="12.1742938"><ele>425.0</ele><time>2026-05-01T08:18:18.466Z</time></trkpt><trkpt lat="43.2506641" lon="12.1742226"><ele>425.0</ele><time>2026-05-01T08:18:19.466Z</time></trkpt><trkpt lat="43.2507884" lon="12.1741292"><ele>425.0</ele><time>2026-05-01T08:18:20.466Z</time></trkpt><trkpt lat="43.2509217" lon="12.1740233"><ele>419.66666666666663</ele><time>2026-05-01T08:18:21.466Z</time></trkpt><trkpt lat="43.2510549" lon="12.1739175"><ele>414.33333333333337</ele><time>2026-05-01T08:18:22.466Z</time></trkpt><trkpt lat="43.2512055" lon="12.1738203"><ele>409.0</ele><time>2026-05-01T08:18:23.465Z</time></trkpt><trkpt lat="43.2513587" lon="12.1737366"><ele>410.33333333333337</ele><time>2026-05-01T08:18:24.466Z</time></trkpt><trkpt lat="43.2515138" lon="12.1736663"><ele>411.66666666666663</ele><time>2026-05-01T08:18:25.466Z</time></trkpt><trkpt lat="43.2516579" lon="12.173616"><ele>413.0</ele><time>2026-05-01T08:18:26.466Z</time></trkpt><trkpt lat="43.2518017" lon="12.1735544"><ele>413.0</ele><time>2026-05-01T08:18:27.466Z</time></trkpt><trkpt lat="43.2519306" lon="12.1734934"><ele>413.0</ele><time>2026-05-01T08:18:28.465Z</time></trkpt><trkpt lat="43.2520467" lon="12.1734183"><ele>413.0</ele><time>2026-05-01T08:18:29.465Z</time></trkpt><trkpt lat="43.2521507" lon="12.1733335"><ele>413.0</ele><time>2026-05-01T08:18:30.466Z</time></trkpt><trkpt lat="43.2522488" lon="12.1732259"><ele>409.5</ele><time>2026-05-01T08:18:31.465Z</time></trkpt><trkpt lat="43.2523198" lon="12.1731019"><ele>406.0</ele><time>2026-05-01T08:18:32.465Z</time></trkpt><trkpt lat="43.2524093" lon="12.1730031"><ele>402.5</ele><time>2026-05-01T08:18:33.466Z</time></trkpt><trkpt lat="43.2525372" lon="12.1729537"><ele>399.0</ele><time>2026-05-01T08:18:34.466Z</time></trkpt><trkpt lat="43.252671" lon="12.1729187"><ele>399.0</ele><time>2026-05-01T08:18:35.466Z</time></trkpt><trkpt lat="43.252797" lon="12.1728869"><ele>399.0</ele><time>2026-05-01T08:18:36.466Z</time></trkpt><trkpt lat="43.2529067" lon="12.172834"><ele>399.0</ele><time>2026-05-01T08:18:37.466Z</time></trkpt><trkpt lat="43.2530182" lon="12.1727489"><ele>399.0</ele><time>2026-05-01T08:18:38.466Z</time></trkpt><trkpt lat="43.2531078" lon="12.1726367"><ele>400.25</ele><time>2026-05-01T08:18:39.466Z</time></trkpt><trkpt lat="43.2531772" lon="12.1725004"><ele>401.5</ele><time>2026-05-01T08:18:40.466Z</time></trkpt><trkpt lat="43.2532442" lon="12.1723737"><ele>402.75</ele><time>2026-05-01T08:18:41.466Z</time></trkpt><trkpt lat="43.2533394" lon="12.1722689"><ele>404.0</ele><time>2026-05-01T08:18:42.466Z</time></trkpt><trkpt lat="43.2534596" lon="12.1722493"><ele>400.5</ele><time>2026-05-01T08:18:43.466Z</time></trkpt><trkpt lat="43.2535741" lon="12.1722616"><ele>397.0</ele><time>2026-05-01T08:18:44.466Z</time></trkpt><trkpt lat="43.2536823" lon="12.1722627"><ele>393.5</ele><time>2026-05-01T08:18:45.466Z</time></trkpt><trkpt lat="43.2537982" lon="12.172229"><ele>390.0</ele><time>2026-05-01T08:18:46.466Z</time></trkpt><trkpt lat="43.2539025" lon="12.1721595"><ele>391.0</ele><time>2026-05-01T08:18:47.466Z</time></trkpt><trkpt lat="43.254002" lon="12.1720633"><ele>392.0</ele><time>2026-05-01T08:18:48.466Z</time></trkpt><trkpt lat="43.2540957" lon="12.1719838"><ele>393.0</ele><time>2026-05-01T08:18:49.466Z</time></trkpt><trkpt lat="43.2541908" lon="12.1719283"><ele>394.0</ele><time>2026-05-01T08:18:50.466Z</time></trkpt><trkpt lat="43.2542976" lon="12.1719122"><ele>395.0</ele><time>2026-05-01T08:18:51.466Z</time></trkpt><trkpt lat="43.2543978" lon="12.1719101"><ele>394.99999999999994</ele><time>2026-05-01T08:18:52.466Z</time></trkpt><trkpt lat="43.2544902" lon="12.1718918"><ele>395.0</ele><time>2026-05-01T08:18:53.465Z</time></trkpt><trkpt lat="43.2545667" lon="12.1718667"><ele>395.0</ele><time>2026-05-01T08:18:54.465Z</time></trkpt><trkpt lat="43.2546394" lon="12.1718169"><ele>395.0</ele><time>2026-05-01T08:18:55.466Z</time></trkpt><trkpt lat="43.2546923" lon="12.1717255"><ele>394.99999999999994</ele><time>2026-05-01T08:18:56.466Z</time></trkpt><trkpt lat="43.254714" lon="12.1716089"><ele>395.0</ele><time>2026-05-01T08:18:57.466Z</time></trkpt><trkpt lat="43.2547233" lon="12.1714722"><ele>393.2</ele><time>2026-05-01T08:18:58.466Z</time></trkpt><trkpt lat="43.2547367" lon="12.1713345"><ele>391.4</ele><time>2026-05-01T08:18:59.466Z</time></trkpt><trkpt lat="43.2547679" lon="12.1712207"><ele>389.6</ele><time>2026-05-01T08:19:00.465Z</time></trkpt><trkpt lat="43.254814" lon="12.1711118"><ele>387.8</ele><time>2026-05-01T08:19:01.466Z</time></trkpt><trkpt lat="43.2548729" lon="12.1710051"><ele>386.0</ele><time>2026-05-01T08:19:02.466Z</time></trkpt><trkpt lat="43.2549583" lon="12.1709101"><ele>386.0</ele><time>2026-05-01T08:19:03.466Z</time></trkpt><trkpt lat="43.2550582" lon="12.1708164"><ele>386.0</ele><time>2026-05-01T08:19:04.466Z</time></trkpt><trkpt lat="43.255162" lon="12.1707138"><ele>386.0</ele><time>2026-05-01T08:19:05.466Z</time></trkpt><trkpt lat="43.2552587" lon="12.1706107"><ele>386.0</ele><time>2026-05-01T08:19:06.465Z</time></trkpt><trkpt lat="43.255354" lon="12.1705095"><ele>384.6</ele><time>2026-05-01T08:19:07.466Z</time></trkpt><trkpt lat="43.2554507" lon="12.1704157"><ele>383.20000000000005</ele><time>2026-05-01T08:19:08.466Z</time></trkpt><trkpt lat="43.2555345" lon="12.1703289"><ele>381.79999999999995</ele><time>2026-05-01T08:19:09.465Z</time></trkpt><trkpt lat="43.2556317" lon="12.170263"><ele>380.4</ele><time>2026-05-01T08:19:10.465Z</time></trkpt><trkpt lat="43.2557392" lon="12.1702225"><ele>379.0</ele><time>2026-05-01T08:19:11.466Z</time></trkpt><trkpt lat="43.2558272" lon="12.1702241"><ele>379.0</ele><time>2026-05-01T08:19:12.466Z</time></trkpt><trkpt lat="43.2559067" lon="12.1702331"><ele>379.0</ele><time>2026-05-01T08:19:13.466Z</time></trkpt><trkpt lat="43.2559764" lon="12.1702127"><ele>379.0</ele><time>2026-05-01T08:19:14.466Z</time></trkpt><trkpt lat="43.2560508" lon="12.1701552"><ele>379.0</ele><time>2026-05-01T08:19:15.465Z</time></trkpt><trkpt lat="43.2561051" lon="12.1700461"><ele>379.0</ele><time>2026-05-01T08:19:16.466Z</time></trkpt><trkpt lat="43.256141" lon="12.169924"><ele>379.0</ele><time>2026-05-01T08:19:17.466Z</time></trkpt><trkpt lat="43.2561756" lon="12.1697871"><ele>376.2</ele><time>2026-05-01T08:19:18.465Z</time></trkpt><trkpt lat="43.256196" lon="12.169656"><ele>373.4</ele><time>2026-05-01T08:19:19.466Z</time></trkpt><trkpt lat="43.2562098" lon="12.169527"><ele>370.6</ele><time>2026-05-01T08:19:20.465Z</time></trkpt><trkpt lat="43.2562178" lon="12.1693959"><ele>367.8</ele><time>2026-05-01T08:19:21.466Z</time></trkpt><trkpt lat="43.2562192" lon="12.1692543"><ele>365.0</ele><time>2026-05-01T08:19:22.466Z</time></trkpt><trkpt lat="43.2562237" lon="12.1691018"><ele>362.75</ele><time>2026-05-01T08:19:23.466Z</time></trkpt><trkpt lat="43.2562287" lon="12.1689478"><ele>360.5</ele><time>2026-05-01T08:19:24.466Z</time></trkpt><trkpt lat="43.256244" lon="12.1687884"><ele>358.25</ele><time>2026-05-01T08:19:25.465Z</time></trkpt><trkpt lat="43.2562762" lon="12.1686377"><ele>356.0</ele><time>2026-05-01T08:19:26.465Z</time></trkpt><trkpt lat="43.2563382" lon="12.1684988"><ele>356.0</ele><time>2026-05-01T08:19:27.466Z</time></trkpt><trkpt lat="43.2564341" lon="12.1683771"><ele>356.0</ele><time>2026-05-01T08:19:28.466Z</time></trkpt><trkpt lat="43.2565657" lon="12.1682848"><ele>356.0</ele><time>2026-05-01T08:19:29.466Z</time></trkpt><trkpt lat="43.2566914" lon="12.1681838"><ele>356.0</ele><time>2026-05-01T08:19:30.466Z</time></trkpt><trkpt lat="43.2568099" lon="12.1680818"><ele>353.0</ele><time>2026-05-01T08:19:31.466Z</time></trkpt><trkpt lat="43.2569249" lon="12.1679709"><ele>350.0</ele><time>2026-05-01T08:19:32.465Z</time></trkpt><trkpt lat="43.2570408" lon="12.1678606"><ele>347.0</ele><time>2026-05-01T08:19:33.466Z</time></trkpt><trkpt lat="43.2571559" lon="12.1677521"><ele>344.0</ele><time>2026-05-01T08:19:34.466Z</time></trkpt><trkpt lat="43.2572636" lon="12.1676591"><ele>345.0</ele><time>2026-05-01T08:19:35.466Z</time></trkpt><trkpt lat="43.2573623" lon="12.1675762"><ele>346.0</ele><time>2026-05-01T08:19:36.466Z</time></trkpt><trkpt lat="43.2574508" lon="12.1674975"><ele>347.0</ele><time>2026-05-01T08:19:37.466Z</time></trkpt><trkpt lat="43.2575526" lon="12.1674289"><ele>348.0</ele><time>2026-05-01T08:19:38.466Z</time></trkpt><trkpt lat="43.2576592" lon="12.1673695"><ele>348.0</ele><time>2026-05-01T08:19:39.466Z</time></trkpt><trkpt lat="43.2577844" lon="12.1673401"><ele>348.0</ele><time>2026-05-01T08:19:40.466Z</time></trkpt><trkpt lat="43.2579156" lon="12.1673599"><ele>348.0</ele><time>2026-05-01T08:19:41.466Z</time></trkpt><trkpt lat="43.2580549" lon="12.167413"><ele>348.0</ele><time>2026-05-01T08:19:42.466Z</time></trkpt><trkpt lat="43.2581882" lon="12.1674896"><ele>346.0</ele><time>2026-05-01T08:19:43.466Z</time></trkpt><trkpt lat="43.2583281" lon="12.1675418"><ele>344.0</ele><time>2026-05-01T08:19:44.466Z</time></trkpt><trkpt lat="43.2584641" lon="12.1675784"><ele>342.0</ele><time>2026-05-01T08:19:45.466Z</time></trkpt><trkpt lat="43.2585926" lon="12.1676237"><ele>340.0</ele><time>2026-05-01T08:19:46.466Z</time></trkpt><trkpt lat="43.2587031" lon="12.1676672"><ele>340.0</ele><time>2026-05-01T08:19:47.466Z</time></trkpt><trkpt lat="43.2587931" lon="12.1677253"><ele>340.0</ele><time>2026-05-01T08:19:48.466Z</time></trkpt><trkpt lat="43.2588746" lon="12.1677867"><ele>340.0</ele><time>2026-05-01T08:19:49.465Z</time></trkpt><trkpt lat="43.2589435" lon="12.1678326"><ele>340.0</ele><time>2026-05-01T08:19:50.465Z</time></trkpt><trkpt lat="43.259024" lon="12.1678455"><ele>340.0</ele><time>2026-05-01T08:19:51.466Z</time></trkpt><trkpt lat="43.2591219" lon="12.1677941"><ele>338.25</ele><time>2026-05-01T08:19:52.466Z</time></trkpt><trkpt lat="43.2592287" lon="12.1677087"><ele>336.5</ele><time>2026-05-01T08:19:53.466Z</time></trkpt><trkpt lat="43.2593415" lon="12.1676229"><ele>334.75</ele><time>2026-05-01T08:19:54.466Z</time></trkpt><trkpt lat="43.2594665" lon="12.1675461"><ele>333.0</ele><time>2026-05-01T08:19:55.466Z</time></trkpt><trkpt lat="43.2596014" lon="12.1674672"><ele>333.0</ele><time>2026-05-01T08:19:56.465Z</time></trkpt><trkpt lat="43.2597315" lon="12.1673899"><ele>333.0</ele><time>2026-05-01T08:19:57.466Z</time></trkpt><trkpt lat="43.2598647" lon="12.1673148"><ele>333.0</ele><time>2026-05-01T08:19:58.465Z</time></trkpt><trkpt lat="43.2600002" lon="12.167243"><ele>333.0</ele><time>2026-05-01T08:19:59.466Z</time></trkpt><trkpt lat="43.2601332" lon="12.1671746"><ele>328.0</ele><time>2026-05-01T08:20:00.465Z</time></trkpt><trkpt lat="43.2602694" lon="12.167096"><ele>323.0</ele><time>2026-05-01T08:20:01.466Z</time></trkpt><trkpt lat="43.2604044" lon="12.1670169"><ele>318.0</ele><time>2026-05-01T08:20:02.466Z</time></trkpt><trkpt lat="43.260537" lon="12.1669359"><ele>313.0</ele><time>2026-05-01T08:20:03.466Z</time></trkpt><trkpt lat="43.2606685" lon="12.1668546"><ele>311.5</ele><time>2026-05-01T08:20:04.466Z</time></trkpt><trkpt lat="43.260797" lon="12.166776"><ele>310.0</ele><time>2026-05-01T08:20:05.466Z</time></trkpt><trkpt lat="43.2609287" lon="12.1667163"><ele>308.5</ele><time>2026-05-01T08:20:06.465Z</time></trkpt><trkpt lat="43.2610505" lon="12.1666733"><ele>307.0</ele><time>2026-05-01T08:20:07.466Z</time></trkpt><trkpt lat="43.2611694" lon="12.1666241"><ele>307.0</ele><time>2026-05-01T08:20:08.466Z</time></trkpt><trkpt lat="43.2612871" lon="12.1665622"><ele>307.0</ele><time>2026-05-01T08:20:09.465Z</time></trkpt><trkpt lat="43.2613925" lon="12.1664968"><ele>307.0</ele><time>2026-05-01T08:20:10.466Z</time></trkpt><trkpt lat="43.2614893" lon="12.166419"><ele>307.0</ele><time>2026-05-01T08:20:11.466Z</time></trkpt><trkpt lat="43.2615831" lon="12.1663372"><ele>304.25</ele><time>2026-05-01T08:20:12.466Z</time></trkpt><trkpt lat="43.2616782" lon="12.1662618"><ele>301.5</ele><time>2026-05-01T08:20:13.466Z</time></trkpt><trkpt lat="43.2617738" lon="12.166184"><ele>298.75</ele><time>2026-05-01T08:20:14.466Z</time></trkpt><trkpt lat="43.2618716" lon="12.1660945"><ele>296.0</ele><time>2026-05-01T08:20:15.466Z</time></trkpt><trkpt lat="43.2619671" lon="12.1659313"><ele>296.0</ele><time>2026-05-01T08:20:16.466Z</time></trkpt><trkpt lat="43.2620419" lon="12.1657664"><ele>296.0</ele><time>2026-05-01T08:20:17.466Z</time></trkpt><trkpt lat="43.2621294" lon="12.165613"><ele>296.0</ele><time>2026-05-01T08:20:18.465Z</time></trkpt><trkpt lat="43.2622304" lon="12.1654769"><ele>296.0</ele><time>2026-05-01T08:20:19.466Z</time></trkpt><trkpt lat="43.2623486" lon="12.1653311"><ele>294.0</ele><time>2026-05-01T08:20:20.466Z</time></trkpt><trkpt lat="43.2624579" lon="12.1651824"><ele>292.0</ele><time>2026-05-01T08:20:21.465Z</time></trkpt><trkpt lat="43.2625621" lon="12.1650214"><ele>290.0</ele><time>2026-05-01T08:20:22.466Z</time></trkpt><trkpt lat="43.2626651" lon="12.1648576"><ele>289.75</ele><time>2026-05-01T08:20:23.466Z</time></trkpt><trkpt lat="43.2627819" lon="12.1647061"><ele>289.5</ele><time>2026-05-01T08:20:24.465Z</time></trkpt><trkpt lat="43.2629006" lon="12.1645875"><ele>289.25</ele><time>2026-05-01T08:20:25.466Z</time></trkpt><trkpt lat="43.2630276" lon="12.1645091"><ele>289.0</ele><time>2026-05-01T08:20:26.466Z</time></trkpt><trkpt lat="43.2631477" lon="12.1644513"><ele>289.0</ele><time>2026-05-01T08:20:27.466Z</time></trkpt><trkpt lat="43.2632525" lon="12.1644143"><ele>289.0</ele><time>2026-05-01T08:20:28.466Z</time></trkpt><trkpt lat="43.2633474" lon="12.1643661"><ele>289.0</ele><time>2026-05-01T08:20:29.466Z</time></trkpt><trkpt lat="43.2634392" lon="12.1643233"><ele>289.0</ele><time>2026-05-01T08:20:30.466Z</time></trkpt><trkpt lat="43.2635287" lon="12.1642981"><ele>289.0</ele><time>2026-05-01T08:20:31.466Z</time></trkpt><trkpt lat="43.2636244" lon="12.1643155"><ele>289.0</ele><time>2026-05-01T08:20:32.466Z</time></trkpt><trkpt lat="43.2637129" lon="12.1643825"><ele>289.0</ele><time>2026-05-01T08:20:33.466Z</time></trkpt><trkpt lat="43.2638011" lon="12.1644912"><ele>289.0</ele><time>2026-05-01T08:20:34.466Z</time></trkpt><trkpt lat="43.263913" lon="12.1646219"><ele>289.0</ele><time>2026-05-01T08:20:35.466Z</time></trkpt><trkpt lat="43.2640186" lon="12.1647393"><ele>288.75</ele><time>2026-05-01T08:20:36.466Z</time></trkpt><trkpt lat="43.264129" lon="12.1648622"><ele>288.5</ele><time>2026-05-01T08:20:37.466Z</time></trkpt><trkpt lat="43.2642435" lon="12.1649819"><ele>288.25</ele><time>2026-05-01T08:20:38.466Z</time></trkpt><trkpt lat="43.2643617" lon="12.1650945"><ele>288.0</ele><time>2026-05-01T08:20:39.466Z</time></trkpt><trkpt lat="43.2644783" lon="12.1652073"><ele>288.0</ele><time>2026-05-01T08:20:40.466Z</time></trkpt><trkpt lat="43.2645917" lon="12.1653231"><ele>288.0</ele><time>2026-05-01T08:20:41.466Z</time></trkpt><trkpt lat="43.264701" lon="12.1654332"><ele>288.0</ele><time>2026-05-01T08:20:42.466Z</time></trkpt><trkpt lat="43.2648126" lon="12.1655372"><ele>288.0</ele><time>2026-05-01T08:20:43.466Z</time></trkpt><trkpt lat="43.2649304" lon="12.1656473"><ele>288.0</ele><time>2026-05-01T08:20:44.466Z</time></trkpt><trkpt lat="43.2650478" lon="12.1657581"><ele>288.0</ele><time>2026-05-01T08:20:45.466Z</time></trkpt><trkpt lat="43.2651729" lon="12.1658726"><ele>288.0</ele><time>2026-05-01T08:20:46.466Z</time></trkpt><trkpt lat="43.2653029" lon="12.165992"><ele>288.0</ele><time>2026-05-01T08:20:47.466Z</time></trkpt><trkpt lat="43.2654378" lon="12.1661082"><ele>288.0</ele><time>2026-05-01T08:20:48.466Z</time></trkpt><trkpt lat="43.2655765" lon="12.1662301"><ele>288.0</ele><time>2026-05-01T08:20:49.466Z</time></trkpt><trkpt lat="43.2657172" lon="12.166356"><ele>288.0</ele><time>2026-05-01T08:20:50.466Z</time></trkpt><trkpt lat="43.265866" lon="12.166486"><ele>288.3333333333333</ele><time>2026-05-01T08:20:51.466Z</time></trkpt><trkpt lat="43.2660146" lon="12.1666211"><ele>288.66666666666663</ele><time>2026-05-01T08:20:52.466Z</time></trkpt><trkpt lat="43.2661642" lon="12.1667568"><ele>289.0</ele><time>2026-05-01T08:20:53.465Z</time></trkpt><trkpt lat="43.2663167" lon="12.1668955"><ele>289.0</ele><time>2026-05-01T08:20:54.466Z</time></trkpt><trkpt lat="43.2664733" lon="12.1670327"><ele>289.0</ele><time>2026-05-01T08:20:55.466Z</time></trkpt><trkpt lat="43.266631" lon="12.1671687"><ele>289.0</ele><time>2026-05-01T08:20:56.466Z</time></trkpt><trkpt lat="43.2667876" lon="12.1673074"><ele>289.66666666666663</ele><time>2026-05-01T08:20:57.465Z</time></trkpt><trkpt lat="43.2669421" lon="12.1674485"><ele>290.3333333333333</ele><time>2026-05-01T08:20:58.465Z</time></trkpt><trkpt lat="43.2670977" lon="12.1675861"><ele>291.0</ele><time>2026-05-01T08:20:59.465Z</time></trkpt><trkpt lat="43.2672535" lon="12.167721"><ele>290.3333333333333</ele><time>2026-05-01T08:21:00.466Z</time></trkpt><trkpt lat="43.2674129" lon="12.1678567"><ele>289.66666666666663</ele><time>2026-05-01T08:21:01.466Z</time></trkpt><trkpt lat="43.2675664" lon="12.1679937"><ele>289.0</ele><time>2026-05-01T08:21:02.465Z</time></trkpt><trkpt lat="43.2677148" lon="12.1681269"><ele>288.66666666666663</ele><time>2026-05-01T08:21:03.466Z</time></trkpt><trkpt lat="43.2678652" lon="12.1682652"><ele>288.3333333333333</ele><time>2026-05-01T08:21:04.466Z</time></trkpt><trkpt lat="43.2680166" lon="12.1684092"><ele>288.0</ele><time>2026-05-01T08:21:05.466Z</time></trkpt><trkpt lat="43.2681714" lon="12.1685473"><ele>288.0</ele><time>2026-05-01T08:21:06.466Z</time></trkpt><trkpt lat="43.2683222" lon="12.1686915"><ele>288.0</ele><time>2026-05-01T08:21:07.465Z</time></trkpt><trkpt lat="43.2684778" lon="12.1688292"><ele>288.0</ele><time>2026-05-01T08:21:08.466Z</time></trkpt><trkpt lat="43.2686309" lon="12.1689656"><ele>288.3333333333333</ele><time>2026-05-01T08:21:09.466Z</time></trkpt><trkpt lat="43.2687845" lon="12.1691053"><ele>288.66666666666663</ele><time>2026-05-01T08:21:10.466Z</time></trkpt><trkpt lat="43.2689307" lon="12.1692509"><ele>289.0</ele><time>2026-05-01T08:21:11.466Z</time></trkpt><trkpt lat="43.269076" lon="12.1694103"><ele>289.0</ele><time>2026-05-01T08:21:12.466Z</time></trkpt><trkpt lat="43.2692117" lon="12.1695915"><ele>289.0</ele><time>2026-05-01T08:21:13.465Z</time></trkpt><trkpt lat="43.2693372" lon="12.1697936"><ele>289.0</ele><time>2026-05-01T08:21:14.466Z</time></trkpt><trkpt lat="43.2694357" lon="12.1700169"><ele>288.66666666666663</ele><time>2026-05-01T08:21:15.466Z</time></trkpt><trkpt lat="43.2695343" lon="12.1702362"><ele>288.3333333333333</ele><time>2026-05-01T08:21:16.466Z</time></trkpt><trkpt lat="43.269641" lon="12.1704543"><ele>288.0</ele><time>2026-05-01T08:21:17.466Z</time></trkpt><trkpt lat="43.2697531" lon="12.1706812"><ele>288.0</ele><time>2026-05-01T08:21:18.466Z</time></trkpt><trkpt lat="43.2698602" lon="12.1709086"><ele>288.0</ele><time>2026-05-01T08:21:19.466Z</time></trkpt><trkpt lat="43.2699615" lon="12.1711407"><ele>288.0</ele><time>2026-05-01T08:21:20.466Z</time></trkpt><trkpt lat="43.2700686" lon="12.1713709"><ele>288.0</ele><time>2026-05-01T08:21:21.465Z</time></trkpt><trkpt lat="43.2701776" lon="12.1716053"><ele>288.0</ele><time>2026-05-01T08:21:22.466Z</time></trkpt><trkpt lat="43.2702795" lon="12.1718347"><ele>288.0</ele><time>2026-05-01T08:21:23.466Z</time></trkpt><trkpt lat="43.2703787" lon="12.172066"><ele>288.0</ele><time>2026-05-01T08:21:24.466Z</time></trkpt><trkpt lat="43.2704736" lon="12.172304"><ele>288.0</ele><time>2026-05-01T08:21:25.466Z</time></trkpt><trkpt lat="43.2705621" lon="12.1725429"><ele>288.0</ele><time>2026-05-01T08:21:26.466Z</time></trkpt><trkpt lat="43.2706412" lon="12.1727862"><ele>288.0</ele><time>2026-05-01T08:21:27.466Z</time></trkpt><trkpt lat="43.2707251" lon="12.173028"><ele>288.0</ele><time>2026-05-01T08:21:28.466Z</time></trkpt><trkpt lat="43.270805" lon="12.1732691"><ele>288.0</ele><time>2026-05-01T08:21:29.466Z</time></trkpt><trkpt lat="43.2708829" lon="12.1735089"><ele>288.6666666666667</ele><time>2026-05-01T08:21:30.466Z</time></trkpt><trkpt lat="43.2709625" lon="12.1737521"><ele>289.33333333333337</ele><time>2026-05-01T08:21:31.465Z</time></trkpt><trkpt lat="43.2710437" lon="12.1739954"><ele>290.0</ele><time>2026-05-01T08:21:32.466Z</time></trkpt><trkpt lat="43.2711256" lon="12.1742477"><ele>290.33333333333337</ele><time>2026-05-01T08:21:33.466Z</time></trkpt><trkpt lat="43.2712077" lon="12.1744983"><ele>290.6666666666667</ele><time>2026-05-01T08:21:34.466Z</time></trkpt><trkpt lat="43.2712935" lon="12.1747499"><ele>291.0</ele><time>2026-05-01T08:21:35.466Z</time></trkpt><trkpt lat="43.271378" lon="12.1750034"><ele>290.6666666666667</ele><time>2026-05-01T08:21:36.466Z</time></trkpt><trkpt lat="43.271461" lon="12.1752576"><ele>290.33333333333337</ele><time>2026-05-01T08:21:37.466Z</time></trkpt><trkpt lat="43.2715418" lon="12.1755131"><ele>290.0</ele><time>2026-05-01T08:21:38.465Z</time></trkpt><trkpt lat="43.2716304" lon="12.1757739"><ele>290.0</ele><time>2026-05-01T08:21:39.465Z</time></trkpt><trkpt lat="43.2717184" lon="12.1760353"><ele>290.0</ele><time>2026-05-01T08:21:40.465Z</time></trkpt><trkpt lat="43.2718016" lon="12.1762995"><ele>290.0</ele><time>2026-05-01T08:21:41.466Z</time></trkpt><trkpt lat="43.2718815" lon="12.1765552"><ele>289.6666666666667</ele><time>2026-05-01T08:21:42.465Z</time></trkpt><trkpt lat="43.2719654" lon="12.1768094"><ele>289.3333333333333</ele><time>2026-05-01T08:21:43.466Z</time></trkpt><trkpt lat="43.2720479" lon="12.1770649"><ele>289.0</ele><time>2026-05-01T08:21:44.466Z</time></trkpt><trkpt lat="43.2721208" lon="12.1773283"><ele>289.0</ele><time>2026-05-01T08:21:45.466Z</time></trkpt><trkpt lat="43.2721948" lon="12.177595"><ele>289.0</ele><time>2026-05-01T08:21:46.466Z</time></trkpt><trkpt lat="43.2722765" lon="12.1778575"><ele>289.0</ele><time>2026-05-01T08:21:47.466Z</time></trkpt><trkpt lat="43.2723579" lon="12.1781176"><ele>289.66666666666663</ele><time>2026-05-01T08:21:48.466Z</time></trkpt><trkpt lat="43.2724395" lon="12.1783789"><ele>290.3333333333333</ele><time>2026-05-01T08:21:49.465Z</time></trkpt><trkpt lat="43.2725253" lon="12.1786287"><ele>291.0</ele><time>2026-05-01T08:21:50.466Z</time></trkpt><trkpt lat="43.2726069" lon="12.178885"><ele>293.0</ele><time>2026-05-01T08:21:51.466Z</time></trkpt><trkpt lat="43.2726859" lon="12.179132"><ele>295.0</ele><time>2026-05-01T08:21:52.466Z</time></trkpt><trkpt lat="43.2727642" lon="12.1793764"><ele>297.0</ele><time>2026-05-01T08:21:53.466Z</time></trkpt><trkpt lat="43.2728385" lon="12.1796188"><ele>299.6666666666667</ele><time>2026-05-01T08:21:54.466Z</time></trkpt><trkpt lat="43.2729105" lon="12.1798618"><ele>302.33333333333337</ele><time>2026-05-01T08:21:55.466Z</time></trkpt><trkpt lat="43.27297" lon="12.1801065"><ele>305.0</ele><time>2026-05-01T08:21:56.466Z</time></trkpt><trkpt lat="43.2730122" lon="12.1803586"><ele>305.0</ele><time>2026-05-01T08:21:57.465Z</time></trkpt><trkpt lat="43.273039" lon="12.1806187"><ele>305.0</ele><time>2026-05-01T08:21:58.466Z</time></trkpt><trkpt lat="43.2730644" lon="12.1808734"><ele>305.0</ele><time>2026-05-01T08:21:59.466Z</time></trkpt><trkpt lat="43.2730921" lon="12.1811346"><ele>300.33333333333337</ele><time>2026-05-01T08:22:00.466Z</time></trkpt><trkpt lat="43.2731183" lon="12.1813983"><ele>295.6666666666667</ele><time>2026-05-01T08:22:01.466Z</time></trkpt><trkpt lat="43.273144" lon="12.1816567"><ele>291.0</ele><time>2026-05-01T08:22:02.465Z</time></trkpt><trkpt lat="43.2731741" lon="12.1819228"><ele>291.0</ele><time>2026-05-01T08:22:03.465Z</time></trkpt><trkpt lat="43.2732031" lon="12.1821902"><ele>291.0</ele><time>2026-05-01T08:22:04.466Z</time></trkpt><trkpt lat="43.2732268" lon="12.182456"><ele>291.0</ele><time>2026-05-01T08:22:05.466Z</time></trkpt><trkpt lat="43.2732514" lon="12.1827023"><ele>290.6666666666667</ele><time>2026-05-01T08:22:06.466Z</time></trkpt><trkpt lat="43.2732678" lon="12.1829491"><ele>290.33333333333337</ele><time>2026-05-01T08:22:07.466Z</time></trkpt><trkpt lat="43.2732883" lon="12.1832088"><ele>290.0</ele><time>2026-05-01T08:22:08.466Z</time></trkpt><trkpt lat="43.2733026" lon="12.1834651"><ele>290.0</ele><time>2026-05-01T08:22:09.466Z</time></trkpt><trkpt lat="43.2733178" lon="12.1837247"><ele>290.0</ele><time>2026-05-01T08:22:10.466Z</time></trkpt><trkpt lat="43.2733329" lon="12.1839828"><ele>290.0</ele><time>2026-05-01T08:22:11.466Z</time></trkpt><trkpt lat="43.2733381" lon="12.1842426"><ele>291.33333333333337</ele><time>2026-05-01T08:22:12.466Z</time></trkpt><trkpt lat="43.2733457" lon="12.1844981"><ele>292.6666666666667</ele><time>2026-05-01T08:22:13.466Z</time></trkpt><trkpt lat="43.2733607" lon="12.1847515"><ele>294.0</ele><time>2026-05-01T08:22:14.465Z</time></trkpt><trkpt lat="43.273366" lon="12.1850096"><ele>294.3333333333333</ele><time>2026-05-01T08:22:15.466Z</time></trkpt><trkpt lat="43.2733724" lon="12.1852746"><ele>294.66666666666663</ele><time>2026-05-01T08:22:16.466Z</time></trkpt><trkpt lat="43.2733876" lon="12.1855443"><ele>295.0</ele><time>2026-05-01T08:22:17.466Z</time></trkpt><trkpt lat="43.273426" lon="12.185813"><ele>295.0</ele><time>2026-05-01T08:22:18.466Z</time></trkpt><trkpt lat="43.2734751" lon="12.1860704"><ele>295.0</ele><time>2026-05-01T08:22:19.466Z</time></trkpt><trkpt lat="43.273544" lon="12.1863298"><ele>295.0</ele><time>2026-05-01T08:22:20.466Z</time></trkpt><trkpt lat="43.2736278" lon="12.18659"><ele>294.0</ele><time>2026-05-01T08:22:21.466Z</time></trkpt><trkpt lat="43.2737195" lon="12.1868504"><ele>293.0</ele><time>2026-05-01T08:22:22.466Z</time></trkpt><trkpt lat="43.2738102" lon="12.1871057"><ele>292.0</ele><time>2026-05-01T08:22:23.465Z</time></trkpt><trkpt lat="43.2738944" lon="12.18736"><ele>290.0</ele><time>2026-05-01T08:22:24.465Z</time></trkpt><trkpt lat="43.273985" lon="12.187617"><ele>288.0</ele><time>2026-05-01T08:22:25.465Z</time></trkpt><trkpt lat="43.2740813" lon="12.1878684"><ele>286.0</ele><time>2026-05-01T08:22:26.466Z</time></trkpt><trkpt lat="43.2741812" lon="12.1881173"><ele>285.66666666666663</ele><time>2026-05-01T08:22:27.466Z</time></trkpt><trkpt lat="43.2742912" lon="12.1883676"><ele>285.3333333333333</ele><time>2026-05-01T08:22:28.466Z</time></trkpt><trkpt lat="43.2744084" lon="12.1886073"><ele>285.0</ele><time>2026-05-01T08:22:29.466Z</time></trkpt><trkpt lat="43.2745304" lon="12.1888338"><ele>285.0</ele><time>2026-05-01T08:22:30.466Z</time></trkpt><trkpt lat="43.2746618" lon="12.1890667"><ele>285.0</ele><time>2026-05-01T08:22:31.466Z</time></trkpt><trkpt lat="43.2747877" lon="12.1892993"><ele>285.0</ele><time>2026-05-01T08:22:32.466Z</time></trkpt><trkpt lat="43.2749124" lon="12.1895336"><ele>285.0</ele><time>2026-05-01T08:22:33.466Z</time></trkpt><trkpt lat="43.2750349" lon="12.1897688"><ele>285.0</ele><time>2026-05-01T08:22:34.466Z</time></trkpt><trkpt lat="43.2751493" lon="12.1900039"><ele>285.0</ele><time>2026-05-01T08:22:35.466Z</time></trkpt><trkpt lat="43.2752607" lon="12.1902353"><ele>284.3333333333333</ele><time>2026-05-01T08:22:36.466Z</time></trkpt><trkpt lat="43.2753708" lon="12.1904735"><ele>283.66666666666663</ele><time>2026-05-01T08:22:37.466Z</time></trkpt><trkpt lat="43.2754828" lon="12.1907071"><ele>283.0</ele><time>2026-05-01T08:22:38.466Z</time></trkpt><trkpt lat="43.2755893" lon="12.1909406"><ele>283.0</ele><time>2026-05-01T08:22:39.465Z</time></trkpt><trkpt lat="43.2756929" lon="12.1911755"><ele>283.0</ele><time>2026-05-01T08:22:40.466Z</time></trkpt><trkpt lat="43.2757947" lon="12.1914119"><ele>283.0</ele><time>2026-05-01T08:22:41.466Z</time></trkpt><trkpt lat="43.2758916" lon="12.1916535"><ele>283.3333333333333</ele><time>2026-05-01T08:22:42.466Z</time></trkpt><trkpt lat="43.2759879" lon="12.1919004"><ele>283.6666666666667</ele><time>2026-05-01T08:22:43.466Z</time></trkpt><trkpt lat="43.2760888" lon="12.1921466"><ele>284.0</ele><time>2026-05-01T08:22:44.466Z</time></trkpt><trkpt lat="43.2761907" lon="12.192396"><ele>284.0</ele><time>2026-05-01T08:22:45.466Z</time></trkpt><trkpt lat="43.2762876" lon="12.1926349"><ele>284.0</ele><time>2026-05-01T08:22:46.466Z</time></trkpt><trkpt lat="43.2763865" lon="12.1928779"><ele>284.0</ele><time>2026-05-01T08:22:47.466Z</time></trkpt><trkpt lat="43.2764842" lon="12.1931244"><ele>284.33333333333337</ele><time>2026-05-01T08:22:48.466Z</time></trkpt><trkpt lat="43.2765847" lon="12.1933679"><ele>284.6666666666667</ele><time>2026-05-01T08:22:49.466Z</time></trkpt><trkpt lat="43.2766826" lon="12.1936104"><ele>285.0</ele><time>2026-05-01T08:22:50.465Z</time></trkpt><trkpt lat="43.2767785" lon="12.1938512"><ele>284.6666666666667</ele><time>2026-05-01T08:22:51.465Z</time></trkpt><trkpt lat="43.2768799" lon="12.1940998"><ele>284.33333333333337</ele><time>2026-05-01T08:22:52.466Z</time></trkpt><trkpt lat="43.276983" lon="12.1943509"><ele>284.0</ele><time>2026-05-01T08:22:53.466Z</time></trkpt><trkpt lat="43.2770935" lon="12.1946065"><ele>284.0</ele><time>2026-05-01T08:22:54.465Z</time></trkpt><trkpt lat="43.2772054" lon="12.1948577"><ele>284.0</ele><time>2026-05-01T08:22:55.465Z</time></trkpt><trkpt lat="43.2773184" lon="12.1951053"><ele>284.0</ele><time>2026-05-01T08:22:56.466Z</time></trkpt><trkpt lat="43.2774298" lon="12.1953465"><ele>283.6666666666667</ele><time>2026-05-01T08:22:57.466Z</time></trkpt><trkpt lat="43.2775287" lon="12.1955959"><ele>283.3333333333333</ele><time>2026-05-01T08:22:58.466Z</time></trkpt><trkpt lat="43.2776291" lon="12.1958338"><ele>283.0</ele><time>2026-05-01T08:22:59.466Z</time></trkpt><trkpt lat="43.2777286" lon="12.1960633"><ele>283.0</ele><time>2026-05-01T08:23:00.466Z</time></trkpt><trkpt lat="43.277841" lon="12.196287"><ele>283.0</ele><time>2026-05-01T08:23:01.465Z</time></trkpt><trkpt lat="43.2779458" lon="12.1965055"><ele>283.0</ele><time>2026-05-01T08:23:02.466Z</time></trkpt><trkpt lat="43.2780476" lon="12.1967262"><ele>283.0</ele><time>2026-05-01T08:23:03.466Z</time></trkpt><trkpt lat="43.278143" lon="12.1969387"><ele>283.0</ele><time>2026-05-01T08:23:04.465Z</time></trkpt><trkpt lat="43.2782323" lon="12.1971498"><ele>283.0</ele><time>2026-05-01T08:23:05.466Z</time></trkpt><trkpt lat="43.2783144" lon="12.1973531"><ele>284.66666666666663</ele><time>2026-05-01T08:23:06.466Z</time></trkpt><trkpt lat="43.2783804" lon="12.1975586"><ele>286.3333333333333</ele><time>2026-05-01T08:23:07.465Z</time></trkpt><trkpt lat="43.2784193" lon="12.1977632"><ele>288.0</ele><time>2026-05-01T08:23:08.466Z</time></trkpt><trkpt lat="43.2784436" lon="12.1979759"><ele>288.0</ele><time>2026-05-01T08:23:09.465Z</time></trkpt><trkpt lat="43.2784549" lon="12.1981523"><ele>288.0</ele><time>2026-05-01T08:23:10.465Z</time></trkpt><trkpt lat="43.2784751" lon="12.1983138"><ele>288.0</ele><time>2026-05-01T08:23:11.466Z</time></trkpt><trkpt lat="43.2784991" lon="12.1984652"><ele>288.0</ele><time>2026-05-01T08:23:12.466Z</time></trkpt><trkpt lat="43.2785322" lon="12.1986024"><ele>288.4</ele><time>2026-05-01T08:23:13.466Z</time></trkpt><trkpt lat="43.2785694" lon="12.1987246"><ele>288.8</ele><time>2026-05-01T08:23:14.466Z</time></trkpt><trkpt lat="43.2786002" lon="12.1988261"><ele>289.2</ele><time>2026-05-01T08:23:15.466Z</time></trkpt><trkpt lat="43.2786373" lon="12.1989212"><ele>289.6</ele><time>2026-05-01T08:23:16.466Z</time></trkpt><trkpt lat="43.2786306" lon="12.1990654"><ele>290.0</ele><time>2026-05-01T08:23:18.466Z</time></trkpt><trkpt lat="43.2785332" lon="12.1991772"><ele>290.0</ele><time>2026-05-01T08:23:20.465Z</time></trkpt><trkpt lat="43.2784803" lon="12.199256"><ele>290.0</ele><time>2026-05-01T08:23:21.466Z</time></trkpt><trkpt lat="43.2784326" lon="12.199358"><ele>290.0</ele><time>2026-05-01T08:23:22.466Z</time></trkpt><trkpt lat="43.2783879" lon="12.199467"><ele>290.0</ele><time>2026-05-01T08:23:23.466Z</time></trkpt><trkpt lat="43.2783304" lon="12.1995866"><ele>290.0</ele><time>2026-05-01T08:23:24.465Z</time></trkpt><trkpt lat="43.2782619" lon="12.1997073"><ele>290.0</ele><time>2026-05-01T08:23:25.466Z</time></trkpt><trkpt lat="43.2781993" lon="12.1998265"><ele>290.0</ele><time>2026-05-01T08:23:26.466Z</time></trkpt><trkpt lat="43.2781306" lon="12.1999473"><ele>290.0</ele><time>2026-05-01T08:23:27.465Z</time></trkpt><trkpt lat="43.2780628" lon="12.2000741"><ele>290.0</ele><time>2026-05-01T08:23:28.466Z</time></trkpt><trkpt lat="43.2780113" lon="12.2002088"><ele>290.0</ele><time>2026-05-01T08:23:29.466Z</time></trkpt><trkpt lat="43.2779644" lon="12.2003554"><ele>289.25</ele><time>2026-05-01T08:23:30.466Z</time></trkpt><trkpt lat="43.2779266" lon="12.2005203"><ele>288.5</ele><time>2026-05-01T08:23:31.465Z</time></trkpt><trkpt lat="43.2778924" lon="12.2006965"><ele>287.75</ele><time>2026-05-01T08:23:32.465Z</time></trkpt><trkpt lat="43.2778597" lon="12.2008677"><ele>287.0</ele><time>2026-05-01T08:23:33.465Z</time></trkpt><trkpt lat="43.2778242" lon="12.2010259"><ele>287.0</ele><time>2026-05-01T08:23:34.466Z</time></trkpt><trkpt lat="43.2777855" lon="12.2011874"><ele>287.0</ele><time>2026-05-01T08:23:35.466Z</time></trkpt><trkpt lat="43.277747" lon="12.2013565"><ele>287.0</ele><time>2026-05-01T08:23:36.465Z</time></trkpt><trkpt lat="43.2777159" lon="12.2015329"><ele>287.0</ele><time>2026-05-01T08:23:37.465Z</time></trkpt><trkpt lat="43.2776862" lon="12.201719"><ele>288.25</ele><time>2026-05-01T08:23:38.466Z</time></trkpt><trkpt lat="43.2776567" lon="12.2019228"><ele>289.5</ele><time>2026-05-01T08:23:39.465Z</time></trkpt><trkpt lat="43.2776294" lon="12.2021289"><ele>290.75</ele><time>2026-05-01T08:23:40.466Z</time></trkpt><trkpt lat="43.2776118" lon="12.2023276"><ele>292.0</ele><time>2026-05-01T08:23:41.465Z</time></trkpt><trkpt lat="43.2775893" lon="12.2025081"><ele>292.0</ele><time>2026-05-01T08:23:42.466Z</time></trkpt><trkpt lat="43.2775751" lon="12.2026783"><ele>292.0</ele><time>2026-05-01T08:23:43.465Z</time></trkpt><trkpt lat="43.2775661" lon="12.2028192"><ele>292.0</ele><time>2026-05-01T08:23:44.466Z</time></trkpt><trkpt lat="43.2775673" lon="12.2029581"><ele>292.0</ele><time>2026-05-01T08:23:45.466Z</time></trkpt><trkpt lat="43.2775561" lon="12.2031018"><ele>292.0</ele><time>2026-05-01T08:23:46.466Z</time></trkpt><trkpt lat="43.277524" lon="12.2032578"><ele>292.0</ele><time>2026-05-01T08:23:47.466Z</time></trkpt><trkpt lat="43.2774834" lon="12.2034221"><ele>292.0</ele><time>2026-05-01T08:23:48.465Z</time></trkpt><trkpt lat="43.2774515" lon="12.2035907"><ele>292.0</ele><time>2026-05-01T08:23:49.465Z</time></trkpt><trkpt lat="43.2774292" lon="12.2037688"><ele>292.0</ele><time>2026-05-01T08:23:50.466Z</time></trkpt><trkpt lat="43.2774101" lon="12.2039382"><ele>290.5</ele><time>2026-05-01T08:23:51.466Z</time></trkpt><trkpt lat="43.2773945" lon="12.2041074"><ele>289.0</ele><time>2026-05-01T08:23:52.466Z</time></trkpt><trkpt lat="43.2773678" lon="12.204279"><ele>287.5</ele><time>2026-05-01T08:23:53.465Z</time></trkpt><trkpt lat="43.2773339" lon="12.20444"><ele>286.0</ele><time>2026-05-01T08:23:54.466Z</time></trkpt><trkpt lat="43.2773064" lon="12.2045904"><ele>286.0</ele><time>2026-05-01T08:23:55.466Z</time></trkpt><trkpt lat="43.2772832" lon="12.2047462"><ele>286.0</ele><time>2026-05-01T08:23:56.466Z</time></trkpt><trkpt lat="43.2772753" lon="12.2049055"><ele>286.0</ele><time>2026-05-01T08:23:57.466Z</time></trkpt><trkpt lat="43.2772809" lon="12.2050783"><ele>286.0</ele><time>2026-05-01T08:23:58.465Z</time></trkpt><trkpt lat="43.2772986" lon="12.2052509"><ele>285.8</ele><time>2026-05-01T08:23:59.466Z</time></trkpt><trkpt lat="43.2773174" lon="12.2054148"><ele>285.6</ele><time>2026-05-01T08:24:00.466Z</time></trkpt><trkpt lat="43.277334" lon="12.2055685"><ele>285.4</ele><time>2026-05-01T08:24:01.466Z</time></trkpt><trkpt lat="43.2773446" lon="12.2057172"><ele>285.2</ele><time>2026-05-01T08:24:02.465Z</time></trkpt><trkpt lat="43.2773505" lon="12.2058617"><ele>285.0</ele><time>2026-05-01T08:24:03.466Z</time></trkpt><trkpt lat="43.2773461" lon="12.2059861"><ele>285.0</ele><time>2026-05-01T08:24:04.466Z</time></trkpt><trkpt lat="43.2773276" lon="12.2061128"><ele>285.0</ele><time>2026-05-01T08:24:05.466Z</time></trkpt><trkpt lat="43.2772969" lon="12.2062375"><ele>285.0</ele><time>2026-05-01T08:24:06.466Z</time></trkpt><trkpt lat="43.2772547" lon="12.2063503"><ele>285.0</ele><time>2026-05-01T08:24:07.466Z</time></trkpt><trkpt lat="43.2771907" lon="12.2064286"><ele>285.0</ele><time>2026-05-01T08:24:08.465Z</time></trkpt><trkpt lat="43.2771203" lon="12.2064836"><ele>285.0</ele><time>2026-05-01T08:24:09.466Z</time></trkpt><trkpt lat="43.27704" lon="12.2065151"><ele>285.0</ele><time>2026-05-01T08:24:10.466Z</time></trkpt><trkpt lat="43.2769649" lon="12.2065331"><ele>285.0</ele><time>2026-05-01T08:24:11.466Z</time></trkpt><trkpt lat="43.2768841" lon="12.2065431"><ele>285.0</ele><time>2026-05-01T08:24:12.466Z</time></trkpt><trkpt lat="43.2767952" lon="12.20653"><ele>285.0</ele><time>2026-05-01T08:24:13.466Z</time></trkpt><trkpt lat="43.2767155" lon="12.2065304"><ele>285.0</ele><time>2026-05-01T08:24:14.466Z</time></trkpt><trkpt lat="43.2766506" lon="12.2065573"><ele>285.0</ele><time>2026-05-01T08:24:15.466Z</time></trkpt><trkpt lat="43.2765892" lon="12.2066234"><ele>285.0</ele><time>2026-05-01T08:24:16.465Z</time></trkpt><trkpt lat="43.2765297" lon="12.2067096"><ele>285.0</ele><time>2026-05-01T08:24:17.466Z</time></trkpt><trkpt lat="43.2764869" lon="12.2068099"><ele>285.0</ele><time>2026-05-01T08:24:18.466Z</time></trkpt><trkpt lat="43.2764618" lon="12.2069206"><ele>285.0</ele><time>2026-05-01T08:24:19.466Z</time></trkpt><trkpt lat="43.2764487" lon="12.2070453"><ele>285.0</ele><time>2026-05-01T08:24:20.465Z</time></trkpt><trkpt lat="43.2764376" lon="12.2071523"><ele>285.0</ele><time>2026-05-01T08:24:21.466Z</time></trkpt><trkpt lat="43.2764279" lon="12.2072506"><ele>284.6666666666667</ele><time>2026-05-01T08:24:22.465Z</time></trkpt><trkpt lat="43.2764223" lon="12.2073449"><ele>284.3333333333333</ele><time>2026-05-01T08:24:23.465Z</time></trkpt><trkpt lat="43.2764267" lon="12.2074344"><ele>284.0</ele><time>2026-05-01T08:24:24.466Z</time></trkpt><trkpt lat="43.276515" lon="12.207543"><ele>283.66666666666663</ele><time>2026-05-01T08:24:26.466Z</time></trkpt><trkpt lat="43.2765933" lon="12.2075706"><ele>283.3333333333333</ele><time>2026-05-01T08:24:27.466Z</time></trkpt><trkpt lat="43.2766756" lon="12.207565"><ele>283.0</ele><time>2026-05-01T08:24:28.466Z</time></trkpt><trkpt lat="43.276757" lon="12.2075649"><ele>282.8</ele><time>2026-05-01T08:24:29.466Z</time></trkpt><trkpt lat="43.2768358" lon="12.207578"><ele>282.6</ele><time>2026-05-01T08:24:30.466Z</time></trkpt><trkpt lat="43.2769078" lon="12.207595"><ele>282.4</ele><time>2026-05-01T08:24:31.466Z</time></trkpt><trkpt lat="43.2769911" lon="12.2076844"><ele>282.2</ele><time>2026-05-01T08:24:33.466Z</time></trkpt><trkpt lat="43.2769346" lon="12.207831"><ele>282.0</ele><time>2026-05-01T08:24:35.466Z</time></trkpt><trkpt lat="43.2768676" lon="12.2078955"><ele>282.0</ele><time>2026-05-01T08:24:36.466Z</time></trkpt><trkpt lat="43.2767832" lon="12.207953"><ele>282.0</ele><time>2026-05-01T08:24:37.466Z</time></trkpt><trkpt lat="43.2767082" lon="12.2080268"><ele>282.0</ele><time>2026-05-01T08:24:38.466Z</time></trkpt><trkpt lat="43.2766278" lon="12.2081017"><ele>282.0</ele><time>2026-05-01T08:24:39.466Z</time></trkpt><trkpt lat="43.2765589" lon="12.2082006"><ele>282.0</ele><time>2026-05-01T08:24:40.466Z</time></trkpt><trkpt lat="43.2764923" lon="12.2083085"><ele>282.5</ele><time>2026-05-01T08:24:41.466Z</time></trkpt><trkpt lat="43.2764226" lon="12.2084137"><ele>283.0</ele><time>2026-05-01T08:24:42.466Z</time></trkpt><trkpt lat="43.2763532" lon="12.2085285"><ele>283.5</ele><time>2026-05-01T08:24:43.466Z</time></trkpt><trkpt lat="43.2762805" lon="12.2086506"><ele>284.0</ele><time>2026-05-01T08:24:44.466Z</time></trkpt><trkpt lat="43.2762017" lon="12.2087844"><ele>284.0</ele><time>2026-05-01T08:24:45.466Z</time></trkpt><trkpt lat="43.276127" lon="12.2089167"><ele>284.0</ele><time>2026-05-01T08:24:46.466Z</time></trkpt><trkpt lat="43.2760617" lon="12.2090489"><ele>284.0</ele><time>2026-05-01T08:24:47.465Z</time></trkpt><trkpt lat="43.2760011" lon="12.2091789"><ele>284.0</ele><time>2026-05-01T08:24:48.466Z</time></trkpt><trkpt lat="43.2759383" lon="12.2093166"><ele>284.0</ele><time>2026-05-01T08:24:49.465Z</time></trkpt><trkpt lat="43.2758801" lon="12.2094618"><ele>284.0</ele><time>2026-05-01T08:24:50.465Z</time></trkpt><trkpt lat="43.2758228" lon="12.2095966"><ele>284.0</ele><time>2026-05-01T08:24:51.465Z</time></trkpt><trkpt lat="43.2757707" lon="12.2097174"><ele>284.0</ele><time>2026-05-01T08:24:52.466Z</time></trkpt><trkpt lat="43.2757157" lon="12.2098451"><ele>284.0</ele><time>2026-05-01T08:24:53.466Z</time></trkpt><trkpt lat="43.275663" lon="12.2099905"><ele>284.4</ele><time>2026-05-01T08:24:54.465Z</time></trkpt><trkpt lat="43.2756224" lon="12.2101327"><ele>284.79999999999995</ele><time>2026-05-01T08:24:55.466Z</time></trkpt><trkpt lat="43.2755853" lon="12.210274"><ele>285.20000000000005</ele><time>2026-05-01T08:24:56.466Z</time></trkpt><trkpt lat="43.2755453" lon="12.2104011"><ele>285.6</ele><time>2026-05-01T08:24:57.466Z</time></trkpt><trkpt lat="43.2755261" lon="12.210519"><ele>286.0</ele><time>2026-05-01T08:24:58.465Z</time></trkpt><trkpt lat="43.2755247" lon="12.2106104"><ele>287.40000000000003</ele><time>2026-05-01T08:24:59.466Z</time></trkpt><trkpt lat="43.2754933" lon="12.2107437"><ele>288.8</ele><time>2026-05-01T08:25:01.465Z</time></trkpt><trkpt lat="43.2754029" lon="12.2107927"><ele>290.20000000000005</ele><time>2026-05-01T08:25:03.465Z</time></trkpt><trkpt lat="43.2753186" lon="12.2107818"><ele>291.6</ele><time>2026-05-01T08:25:05.466Z</time></trkpt><trkpt lat="43.2752383" lon="12.2108088"><ele>293.0</ele><time>2026-05-01T08:25:07.465Z</time></trkpt><trkpt lat="43.2751522" lon="12.2108208"><ele>293.0</ele><time>2026-05-01T08:25:09.466Z</time></trkpt><trkpt lat="43.2750563" lon="12.2108102"><ele>293.0</ele><time>2026-05-01T08:25:11.466Z</time></trkpt><trkpt lat="43.2749516" lon="12.2107715"><ele>293.0</ele><time>2026-05-01T08:25:13.466Z</time></trkpt><trkpt lat="43.2748941" lon="12.2107352"><ele>293.0</ele><time>2026-05-01T08:25:14.466Z</time></trkpt><trkpt lat="43.274833" lon="12.2106902"><ele>293.0</ele><time>2026-05-01T08:25:15.466Z</time></trkpt><trkpt lat="43.274766" lon="12.210634"><ele>293.0</ele><time>2026-05-01T08:25:16.466Z</time></trkpt><trkpt lat="43.2746938" lon="12.2105573"><ele>298.0</ele><time>2026-05-01T08:25:17.466Z</time></trkpt><trkpt lat="43.2746166" lon="12.210452"><ele>303.0</ele><time>2026-05-01T08:25:18.466Z</time></trkpt><trkpt lat="43.2745559" lon="12.2103271"><ele>308.0</ele><time>2026-05-01T08:25:19.466Z</time></trkpt><trkpt lat="43.2745204" lon="12.2101765"><ele>313.0</ele><time>2026-05-01T08:25:20.466Z</time></trkpt><trkpt lat="43.274516" lon="12.2100121"><ele>313.0</ele><time>2026-05-01T08:25:21.466Z</time></trkpt><trkpt lat="43.2745188" lon="12.2098497"><ele>313.0</ele><time>2026-05-01T08:25:22.466Z</time></trkpt><trkpt lat="43.2745309" lon="12.2097003"><ele>313.0</ele><time>2026-05-01T08:25:23.466Z</time></trkpt><trkpt lat="43.274545" lon="12.2095558"><ele>313.0</ele><time>2026-05-01T08:25:24.466Z</time></trkpt><trkpt lat="43.2745677" lon="12.2094024"><ele>313.0</ele><time>2026-05-01T08:25:25.466Z</time></trkpt><trkpt lat="43.2745901" lon="12.2092507"><ele>312.8</ele><time>2026-05-01T08:25:26.466Z</time></trkpt><trkpt lat="43.2746102" lon="12.2091027"><ele>312.6</ele><time>2026-05-01T08:25:27.466Z</time></trkpt><trkpt lat="43.2746182" lon="12.2089592"><ele>312.4</ele><time>2026-05-01T08:25:28.466Z</time></trkpt><trkpt lat="43.2746005" lon="12.208816"><ele>312.2</ele><time>2026-05-01T08:25:29.466Z</time></trkpt><trkpt lat="43.2745697" lon="12.2086702"><ele>312.0</ele><time>2026-05-01T08:25:30.466Z</time></trkpt><trkpt lat="43.2745305" lon="12.2085265"><ele>309.0</ele><time>2026-05-01T08:25:31.466Z</time></trkpt><trkpt lat="43.2744619" lon="12.2083808"><ele>306.0</ele><time>2026-05-01T08:25:32.466Z</time></trkpt><trkpt lat="43.2743869" lon="12.2082415"><ele>303.0</ele><time>2026-05-01T08:25:33.466Z</time></trkpt><trkpt lat="43.2743002" lon="12.2081076"><ele>300.0</ele><time>2026-05-01T08:25:34.466Z</time></trkpt><trkpt lat="43.2742003" lon="12.2079737"><ele>300.3333333333333</ele><time>2026-05-01T08:25:35.466Z</time></trkpt><trkpt lat="43.2740887" lon="12.2078298"><ele>300.66666666666663</ele><time>2026-05-01T08:25:36.466Z</time></trkpt><trkpt lat="43.2739578" lon="12.2077006"><ele>301.0</ele><time>2026-05-01T08:25:37.466Z</time></trkpt><trkpt lat="43.2738239" lon="12.2075676"><ele>301.0</ele><time>2026-05-01T08:25:38.466Z</time></trkpt><trkpt lat="43.2736881" lon="12.2074341"><ele>301.0</ele><time>2026-05-01T08:25:39.465Z</time></trkpt><trkpt lat="43.2735604" lon="12.2073033"><ele>301.0</ele><time>2026-05-01T08:25:40.465Z</time></trkpt><trkpt lat="43.2734368" lon="12.2071837"><ele>299.0</ele><time>2026-05-01T08:25:41.465Z</time></trkpt><trkpt lat="43.273304" lon="12.2070833"><ele>297.0</ele><time>2026-05-01T08:25:42.466Z</time></trkpt><trkpt lat="43.2731633" lon="12.2070087"><ele>295.0</ele><time>2026-05-01T08:25:43.466Z</time></trkpt><trkpt lat="43.2730322" lon="12.2069538"><ele>293.0</ele><time>2026-05-01T08:25:44.466Z</time></trkpt><trkpt lat="43.2729007" lon="12.2069038"><ele>293.0</ele><time>2026-05-01T08:25:45.466Z</time></trkpt><trkpt lat="43.2727732" lon="12.2068548"><ele>293.0</ele><time>2026-05-01T08:25:46.466Z</time></trkpt><trkpt lat="43.2726335" lon="12.2068248"><ele>293.0</ele><time>2026-05-01T08:25:47.466Z</time></trkpt><trkpt lat="43.2724901" lon="12.2068222"><ele>293.0</ele><time>2026-05-01T08:25:48.466Z</time></trkpt><trkpt lat="43.2723403" lon="12.2068393"><ele>292.6666666666667</ele><time>2026-05-01T08:25:49.466Z</time></trkpt><trkpt lat="43.272187" lon="12.2068745"><ele>292.3333333333333</ele><time>2026-05-01T08:25:50.466Z</time></trkpt><trkpt lat="43.2720381" lon="12.206927"><ele>292.0</ele><time>2026-05-01T08:25:51.466Z</time></trkpt><trkpt lat="43.2718848" lon="12.207013"><ele>292.0</ele><time>2026-05-01T08:25:52.466Z</time></trkpt><trkpt lat="43.2717462" lon="12.2071088"><ele>292.0</ele><time>2026-05-01T08:25:53.465Z</time></trkpt><trkpt lat="43.2716101" lon="12.2072024"><ele>292.0</ele><time>2026-05-01T08:25:54.466Z</time></trkpt><trkpt lat="43.2714802" lon="12.2072943"><ele>293.5</ele><time>2026-05-01T08:25:55.466Z</time></trkpt><trkpt lat="43.2713507" lon="12.2073918"><ele>295.0</ele><time>2026-05-01T08:25:56.466Z</time></trkpt><trkpt lat="43.2712279" lon="12.2074644"><ele>296.5</ele><time>2026-05-01T08:25:57.466Z</time></trkpt><trkpt lat="43.2711028" lon="12.2075025"><ele>298.0</ele><time>2026-05-01T08:25:58.466Z</time></trkpt><trkpt lat="43.2709989" lon="12.2074676"><ele>298.0</ele><time>2026-05-01T08:25:59.466Z</time></trkpt><trkpt lat="43.270922" lon="12.2074127"><ele>298.0</ele><time>2026-05-01T08:26:00.465Z</time></trkpt><trkpt lat="43.2708562" lon="12.2073502"><ele>298.0</ele><time>2026-05-01T08:26:01.466Z</time></trkpt><trkpt lat="43.2707615" lon="12.2072726"><ele>298.0</ele><time>2026-05-01T08:26:03.466Z</time></trkpt><trkpt lat="43.2706421" lon="12.2072597"><ele>298.0</ele><time>2026-05-01T08:26:05.465Z</time></trkpt><trkpt lat="43.2705663" lon="12.2072642"><ele>296.3333333333333</ele><time>2026-05-01T08:26:06.465Z</time></trkpt><trkpt lat="43.2704829" lon="12.2072653"><ele>294.66666666666663</ele><time>2026-05-01T08:26:07.465Z</time></trkpt><trkpt lat="43.270391" lon="12.207246"><ele>293.0</ele><time>2026-05-01T08:26:08.466Z</time></trkpt><trkpt lat="43.270297" lon="12.2072038"><ele>291.3333333333333</ele><time>2026-05-01T08:26:09.466Z</time></trkpt><trkpt lat="43.2702211" lon="12.207148"><ele>289.6666666666667</ele><time>2026-05-01T08:26:10.466Z</time></trkpt><trkpt lat="43.270161" lon="12.2070942"><ele>288.0</ele><time>2026-05-01T08:26:11.466Z</time></trkpt><trkpt lat="43.2700992" lon="12.2070548"><ele>288.0</ele><time>2026-05-01T08:26:12.466Z</time></trkpt><trkpt lat="43.2699628" lon="12.2070955"><ele>288.0</ele><time>2026-05-01T08:26:14.466Z</time></trkpt><trkpt lat="43.2698805" lon="12.2071522"><ele>288.0</ele><time>2026-05-01T08:26:15.465Z</time></trkpt><trkpt lat="43.2697908" lon="12.2072241"><ele>288.0</ele><time>2026-05-01T08:26:16.466Z</time></trkpt><trkpt lat="43.2697055" lon="12.207291"><ele>288.0</ele><time>2026-05-01T08:26:17.466Z</time></trkpt><trkpt lat="43.2696218" lon="12.207361"><ele>288.6</ele><time>2026-05-01T08:26:18.466Z</time></trkpt><trkpt lat="43.269542" lon="12.2074528"><ele>289.20000000000005</ele><time>2026-05-01T08:26:19.466Z</time></trkpt><trkpt lat="43.2694638" lon="12.2075622"><ele>289.8</ele><time>2026-05-01T08:26:20.465Z</time></trkpt><trkpt lat="43.2693885" lon="12.2076783"><ele>290.40000000000003</ele><time>2026-05-01T08:26:21.466Z</time></trkpt><trkpt lat="43.2693323" lon="12.2077976"><ele>291.0</ele><time>2026-05-01T08:26:22.466Z</time></trkpt><trkpt lat="43.2692812" lon="12.2079249"><ele>291.0</ele><time>2026-05-01T08:26:23.466Z</time></trkpt><trkpt lat="43.2692289" lon="12.2080587"><ele>291.0</ele><time>2026-05-01T08:26:24.466Z</time></trkpt><trkpt lat="43.2691765" lon="12.2082041"><ele>291.0</ele><time>2026-05-01T08:26:25.465Z</time></trkpt><trkpt lat="43.2691437" lon="12.208355"><ele>291.0</ele><time>2026-05-01T08:26:26.466Z</time></trkpt><trkpt lat="43.2691142" lon="12.2085113"><ele>291.6</ele><time>2026-05-01T08:26:27.465Z</time></trkpt><trkpt lat="43.2690862" lon="12.2086546"><ele>292.20000000000005</ele><time>2026-05-01T08:26:28.466Z</time></trkpt><trkpt lat="43.2690537" lon="12.2087906"><ele>292.79999999999995</ele><time>2026-05-01T08:26:29.465Z</time></trkpt><trkpt lat="43.2690084" lon="12.2088941"><ele>293.4</ele><time>2026-05-01T08:26:30.465Z</time></trkpt><trkpt lat="43.2689569" lon="12.208982"><ele>294.0</ele><time>2026-05-01T08:26:31.466Z</time></trkpt><trkpt lat="43.2688945" lon="12.2090666"><ele>294.0</ele><time>2026-05-01T08:26:32.466Z</time></trkpt><trkpt lat="43.2688293" lon="12.2091405"><ele>294.0</ele><time>2026-05-01T08:26:33.466Z</time></trkpt><trkpt lat="43.2687636" lon="12.2092085"><ele>294.0</ele><time>2026-05-01T08:26:34.466Z</time></trkpt><trkpt lat="43.2686922" lon="12.2092863"><ele>294.0</ele><time>2026-05-01T08:26:35.466Z</time></trkpt><trkpt lat="43.2686258" lon="12.2093805"><ele>294.0</ele><time>2026-05-01T08:26:36.466Z</time></trkpt><trkpt lat="43.268565" lon="12.2095186"><ele>294.0</ele><time>2026-05-01T08:26:37.466Z</time></trkpt><trkpt lat="43.2685084" lon="12.2096742"><ele>294.0</ele><time>2026-05-01T08:26:38.465Z</time></trkpt><trkpt lat="43.2684559" lon="12.2098355"><ele>294.0</ele><time>2026-05-01T08:26:39.466Z</time></trkpt><trkpt lat="43.2684063" lon="12.2100071"><ele>294.0</ele><time>2026-05-01T08:26:40.465Z</time></trkpt><trkpt lat="43.2683681" lon="12.210187"><ele>295.5</ele><time>2026-05-01T08:26:41.466Z</time></trkpt><trkpt lat="43.2683342" lon="12.2103638"><ele>297.0</ele><time>2026-05-01T08:26:42.466Z</time></trkpt><trkpt lat="43.268304" lon="12.2105361"><ele>298.5</ele><time>2026-05-01T08:26:43.466Z</time></trkpt><trkpt lat="43.2682774" lon="12.2107091"><ele>300.0</ele><time>2026-05-01T08:26:44.466Z</time></trkpt><trkpt lat="43.2682458" lon="12.2108603"><ele>299.4</ele><time>2026-05-01T08:26:45.466Z</time></trkpt><trkpt lat="43.2681922" lon="12.2110117"><ele>298.8</ele><time>2026-05-01T08:26:46.465Z</time></trkpt><trkpt lat="43.2681279" lon="12.2111409"><ele>298.2</ele><time>2026-05-01T08:26:47.465Z</time></trkpt><trkpt lat="43.2680649" lon="12.2112421"><ele>297.6</ele><time>2026-05-01T08:26:48.466Z</time></trkpt><trkpt lat="43.2680075" lon="12.2113262"><ele>297.0</ele><time>2026-05-01T08:26:49.465Z</time></trkpt><trkpt lat="43.2679632" lon="12.2114372"><ele>297.4</ele><time>2026-05-01T08:26:50.466Z</time></trkpt><trkpt lat="43.2679437" lon="12.211569"><ele>297.79999999999995</ele><time>2026-05-01T08:26:51.465Z</time></trkpt><trkpt lat="43.2679263" lon="12.211726"><ele>298.2</ele><time>2026-05-01T08:26:52.466Z</time></trkpt><trkpt lat="43.267908" lon="12.211878"><ele>298.59999999999997</ele><time>2026-05-01T08:26:53.466Z</time></trkpt><trkpt lat="43.2678729" lon="12.2119882"><ele>299.0</ele><time>2026-05-01T08:26:54.465Z</time></trkpt><trkpt lat="43.2678" lon="12.2120607"><ele>299.0</ele><time>2026-05-01T08:26:55.466Z</time></trkpt><trkpt lat="43.2677162" lon="12.2121153"><ele>299.0</ele><time>2026-05-01T08:26:56.466Z</time></trkpt><trkpt lat="43.2676341" lon="12.2121946"><ele>299.0</ele><time>2026-05-01T08:26:57.466Z</time></trkpt><trkpt lat="43.2675427" lon="12.2122808"><ele>299.0</ele><time>2026-05-01T08:26:58.466Z</time></trkpt><trkpt lat="43.2674555" lon="12.2123665"><ele>299.0</ele><time>2026-05-01T08:26:59.466Z</time></trkpt><trkpt lat="43.2673751" lon="12.2124428"><ele>299.8</ele><time>2026-05-01T08:27:00.466Z</time></trkpt><trkpt lat="43.2673045" lon="12.2125209"><ele>300.59999999999997</ele><time>2026-05-01T08:27:01.466Z</time></trkpt><trkpt lat="43.2672519" lon="12.2126179"><ele>301.4</ele><time>2026-05-01T08:27:02.466Z</time></trkpt><trkpt lat="43.2672074" lon="12.2127292"><ele>302.2</ele><time>2026-05-01T08:27:03.465Z</time></trkpt><trkpt lat="43.267167" lon="12.2128586"><ele>303.0</ele><time>2026-05-01T08:27:04.466Z</time></trkpt><trkpt lat="43.2671383" lon="12.2130055"><ele>302.8</ele><time>2026-05-01T08:27:05.466Z</time></trkpt><trkpt lat="43.267119" lon="12.2131653"><ele>302.6</ele><time>2026-05-01T08:27:06.466Z</time></trkpt><trkpt lat="43.2671075" lon="12.2133289"><ele>302.4</ele><time>2026-05-01T08:27:07.465Z</time></trkpt><trkpt lat="43.2670927" lon="12.2134725"><ele>302.2</ele><time>2026-05-01T08:27:08.466Z</time></trkpt><trkpt lat="43.2670777" lon="12.2135902"><ele>302.0</ele><time>2026-05-01T08:27:09.466Z</time></trkpt><trkpt lat="43.2670556" lon="12.2136946"><ele>302.0</ele><time>2026-05-01T08:27:10.465Z</time></trkpt><trkpt lat="43.2670166" lon="12.2137719"><ele>302.0</ele><time>2026-05-01T08:27:11.466Z</time></trkpt><trkpt lat="43.2669565" lon="12.2138153"><ele>302.0</ele><time>2026-05-01T08:27:12.466Z</time></trkpt><trkpt lat="43.2668822" lon="12.2138258"><ele>302.0</ele><time>2026-05-01T08:27:13.465Z</time></trkpt><trkpt lat="43.2668058" lon="12.2137722"><ele>302.0</ele><time>2026-05-01T08:27:14.466Z</time></trkpt><trkpt lat="43.2667338" lon="12.2137153"><ele>302.0</ele><time>2026-05-01T08:27:15.466Z</time></trkpt><trkpt lat="43.266661" lon="12.2136769"><ele>302.0</ele><time>2026-05-01T08:27:16.466Z</time></trkpt><trkpt lat="43.2665882" lon="12.2136754"><ele>302.0</ele><time>2026-05-01T08:27:17.466Z</time></trkpt><trkpt lat="43.2665171" lon="12.213706"><ele>302.0</ele><time>2026-05-01T08:27:18.466Z</time></trkpt><trkpt lat="43.2664412" lon="12.2137702"><ele>302.0</ele><time>2026-05-01T08:27:19.465Z</time></trkpt><trkpt lat="43.2663799" lon="12.2138604"><ele>302.0</ele><time>2026-05-01T08:27:20.465Z</time></trkpt><trkpt lat="43.2663211" lon="12.2139865"><ele>302.0</ele><time>2026-05-01T08:27:21.466Z</time></trkpt><trkpt lat="43.2662641" lon="12.2141401"><ele>302.0</ele><time>2026-05-01T08:27:22.466Z</time></trkpt><trkpt lat="43.2662006" lon="12.2142952"><ele>302.0</ele><time>2026-05-01T08:27:23.466Z</time></trkpt><trkpt lat="43.2661276" lon="12.2144566"><ele>302.0</ele><time>2026-05-01T08:27:24.466Z</time></trkpt><trkpt lat="43.2660565" lon="12.2146227"><ele>302.0</ele><time>2026-05-01T08:27:25.466Z</time></trkpt><trkpt lat="43.2659916" lon="12.2147964"><ele>303.25</ele><time>2026-05-01T08:27:26.466Z</time></trkpt><trkpt lat="43.2659234" lon="12.2149659"><ele>304.5</ele><time>2026-05-01T08:27:27.465Z</time></trkpt><trkpt lat="43.2658631" lon="12.215129"><ele>305.75</ele><time>2026-05-01T08:27:28.465Z</time></trkpt><trkpt lat="43.2657971" lon="12.2152837"><ele>307.0</ele><time>2026-05-01T08:27:29.466Z</time></trkpt><trkpt lat="43.2657366" lon="12.2154349"><ele>307.0</ele><time>2026-05-01T08:27:30.466Z</time></trkpt><trkpt lat="43.2656788" lon="12.2155774"><ele>307.0</ele><time>2026-05-01T08:27:31.466Z</time></trkpt><trkpt lat="43.2656243" lon="12.2157039"><ele>307.0</ele><time>2026-05-01T08:27:32.465Z</time></trkpt><trkpt lat="43.2655723" lon="12.2158239"><ele>307.0</ele><time>2026-05-01T08:27:33.466Z</time></trkpt><trkpt lat="43.2655142" lon="12.2159481"><ele>307.0</ele><time>2026-05-01T08:27:34.466Z</time></trkpt><trkpt lat="43.2654569" lon="12.2160928"><ele>307.0</ele><time>2026-05-01T08:27:35.465Z</time></trkpt><trkpt lat="43.2654004" lon="12.2162267"><ele>307.0</ele><time>2026-05-01T08:27:36.465Z</time></trkpt><trkpt lat="43.2653559" lon="12.2163574"><ele>307.0</ele><time>2026-05-01T08:27:37.466Z</time></trkpt><trkpt lat="43.2653217" lon="12.2164652"><ele>307.0</ele><time>2026-05-01T08:27:38.466Z</time></trkpt><trkpt lat="43.26529" lon="12.2165733"><ele>307.0</ele><time>2026-05-01T08:27:39.466Z</time></trkpt><trkpt lat="43.2652685" lon="12.2166825"><ele>307.5</ele><time>2026-05-01T08:27:40.466Z</time></trkpt><trkpt lat="43.2652428" lon="12.2167914"><ele>308.0</ele><time>2026-05-01T08:27:41.466Z</time></trkpt><trkpt lat="43.2652235" lon="12.2169117"><ele>308.5</ele><time>2026-05-01T08:27:42.466Z</time></trkpt><trkpt lat="43.2652358" lon="12.2170346"><ele>309.0</ele><time>2026-05-01T08:27:43.466Z</time></trkpt><trkpt lat="43.2652593" lon="12.2171365"><ele>309.5</ele><time>2026-05-01T08:27:44.465Z</time></trkpt><trkpt lat="43.2652949" lon="12.2172299"><ele>310.0</ele><time>2026-05-01T08:27:45.466Z</time></trkpt><trkpt lat="43.2653304" lon="12.2173269"><ele>310.2</ele><time>2026-05-01T08:27:46.465Z</time></trkpt><trkpt lat="43.2653791" lon="12.2174229"><ele>310.4</ele><time>2026-05-01T08:27:47.465Z</time></trkpt><trkpt lat="43.2654564" lon="12.2175191"><ele>310.6</ele><time>2026-05-01T08:27:48.466Z</time></trkpt><trkpt lat="43.2655461" lon="12.2176098"><ele>310.8</ele><time>2026-05-01T08:27:49.465Z</time></trkpt><trkpt lat="43.2656381" lon="12.2176925"><ele>311.0</ele><time>2026-05-01T08:27:50.466Z</time></trkpt><trkpt lat="43.2657429" lon="12.2177895"><ele>312.25</ele><time>2026-05-01T08:27:51.466Z</time></trkpt><trkpt lat="43.2658512" lon="12.217883"><ele>313.5</ele><time>2026-05-01T08:27:52.466Z</time></trkpt><trkpt lat="43.2659628" lon="12.2179787"><ele>314.75</ele><time>2026-05-01T08:27:53.466Z</time></trkpt><trkpt lat="43.2660677" lon="12.2180563"><ele>316.0</ele><time>2026-05-01T08:27:54.466Z</time></trkpt><trkpt lat="43.2661654" lon="12.2181546"><ele>316.0</ele><time>2026-05-01T08:27:55.466Z</time></trkpt><trkpt lat="43.2662636" lon="12.218253"><ele>316.0</ele><time>2026-05-01T08:27:56.466Z</time></trkpt><trkpt lat="43.266355" lon="12.2183562"><ele>316.0</ele><time>2026-05-01T08:27:57.466Z</time></trkpt><trkpt lat="43.2664469" lon="12.2184835"><ele>316.0</ele><time>2026-05-01T08:27:58.466Z</time></trkpt><trkpt lat="43.2665407" lon="12.2186265"><ele>317.25</ele><time>2026-05-01T08:27:59.466Z</time></trkpt><trkpt lat="43.2666275" lon="12.2187823"><ele>318.5</ele><time>2026-05-01T08:28:00.466Z</time></trkpt><trkpt lat="43.2667207" lon="12.2189305"><ele>319.75</ele><time>2026-05-01T08:28:01.466Z</time></trkpt><trkpt lat="43.2668075" lon="12.2190773"><ele>321.0</ele><time>2026-05-01T08:28:02.466Z</time></trkpt><trkpt lat="43.2669003" lon="12.2192335"><ele>321.0</ele><time>2026-05-01T08:28:03.466Z</time></trkpt><trkpt lat="43.2669947" lon="12.2193819"><ele>321.0</ele><time>2026-05-01T08:28:04.466Z</time></trkpt><trkpt lat="43.2670867" lon="12.2195315"><ele>321.0</ele><time>2026-05-01T08:28:05.466Z</time></trkpt><trkpt lat="43.2671834" lon="12.2196818"><ele>321.0</ele><time>2026-05-01T08:28:06.466Z</time></trkpt><trkpt lat="43.2672816" lon="12.219838"><ele>323.5</ele><time>2026-05-01T08:28:07.465Z</time></trkpt><trkpt lat="43.2673705" lon="12.219985"><ele>326.0</ele><time>2026-05-01T08:28:08.466Z</time></trkpt><trkpt lat="43.2674503" lon="12.2201307"><ele>328.5</ele><time>2026-05-01T08:28:09.465Z</time></trkpt><trkpt lat="43.2675134" lon="12.220277"><ele>331.0</ele><time>2026-05-01T08:28:10.466Z</time></trkpt><trkpt lat="43.2675661" lon="12.2204293"><ele>331.0</ele><time>2026-05-01T08:28:11.466Z</time></trkpt><trkpt lat="43.2676048" lon="12.2205847"><ele>331.0</ele><time>2026-05-01T08:28:12.466Z</time></trkpt><trkpt lat="43.2676232" lon="12.2207577"><ele>331.0</ele><time>2026-05-01T08:28:13.465Z</time></trkpt><trkpt lat="43.26764" lon="12.2209136"><ele>331.0</ele><time>2026-05-01T08:28:14.466Z</time></trkpt><trkpt lat="43.2676433" lon="12.2210716"><ele>329.75</ele><time>2026-05-01T08:28:15.466Z</time></trkpt><trkpt lat="43.2676239" lon="12.2212501"><ele>328.5</ele><time>2026-05-01T08:28:16.466Z</time></trkpt><trkpt lat="43.267596" lon="12.2214456"><ele>327.25</ele><time>2026-05-01T08:28:17.465Z</time></trkpt><trkpt lat="43.2675661" lon="12.22164"><ele>326.0</ele><time>2026-05-01T08:28:18.466Z</time></trkpt><trkpt lat="43.2675212" lon="12.2218411"><ele>325.75</ele><time>2026-05-01T08:28:19.466Z</time></trkpt><trkpt lat="43.2674806" lon="12.2220367"><ele>325.5</ele><time>2026-05-01T08:28:20.466Z</time></trkpt><trkpt lat="43.2674427" lon="12.2222165"><ele>325.25</ele><time>2026-05-01T08:28:21.466Z</time></trkpt><trkpt lat="43.2673994" lon="12.2223878"><ele>325.0</ele><time>2026-05-01T08:28:22.466Z</time></trkpt><trkpt lat="43.2673398" lon="12.2225569"><ele>326.5</ele><time>2026-05-01T08:28:23.466Z</time></trkpt><trkpt lat="43.2672762" lon="12.2227179"><ele>328.0</ele><time>2026-05-01T08:28:24.466Z</time></trkpt><trkpt lat="43.2672074" lon="12.222885"><ele>329.5</ele><time>2026-05-01T08:28:25.466Z</time></trkpt><trkpt lat="43.2671333" lon="12.2230471"><ele>331.0</ele><time>2026-05-01T08:28:26.466Z</time></trkpt><trkpt lat="43.2670508" lon="12.2232145"><ele>331.0</ele><time>2026-05-01T08:28:27.466Z</time></trkpt><trkpt lat="43.266973" lon="12.2233879"><ele>331.0</ele><time>2026-05-01T08:28:28.466Z</time></trkpt><trkpt lat="43.2669001" lon="12.223551"><ele>331.0</ele><time>2026-05-01T08:28:29.466Z</time></trkpt><trkpt lat="43.2668456" lon="12.2237168"><ele>331.0</ele><time>2026-05-01T08:28:30.466Z</time></trkpt><trkpt lat="43.2667955" lon="12.2238766"><ele>331.75</ele><time>2026-05-01T08:28:31.465Z</time></trkpt><trkpt lat="43.2667394" lon="12.2240474"><ele>332.5</ele><time>2026-05-01T08:28:32.466Z</time></trkpt><trkpt lat="43.2666766" lon="12.2242175"><ele>333.25</ele><time>2026-05-01T08:28:33.466Z</time></trkpt><trkpt lat="43.2665961" lon="12.2243633"><ele>334.0</ele><time>2026-05-01T08:28:34.466Z</time></trkpt><trkpt lat="43.2665008" lon="12.2244988"><ele>336.2</ele><time>2026-05-01T08:28:35.465Z</time></trkpt><trkpt lat="43.2664159" lon="12.2246169"><ele>338.4</ele><time>2026-05-01T08:28:36.466Z</time></trkpt><trkpt lat="43.2663357" lon="12.2247074"><ele>340.6</ele><time>2026-05-01T08:28:37.465Z</time></trkpt><trkpt lat="43.2662728" lon="12.2247811"><ele>342.8</ele><time>2026-05-01T08:28:38.465Z</time></trkpt><trkpt lat="43.2662273" lon="12.2248754"><ele>345.0</ele><time>2026-05-01T08:28:40.466Z</time></trkpt><trkpt lat="43.266268" lon="12.224952"><ele>345.0</ele><time>2026-05-01T08:28:42.466Z</time></trkpt><trkpt lat="43.2663641" lon="12.2250095"><ele>345.0</ele><time>2026-05-01T08:28:44.465Z</time></trkpt><trkpt lat="43.2664243" lon="12.2250361"><ele>345.0</ele><time>2026-05-01T08:28:45.466Z</time></trkpt><trkpt lat="43.2664804" lon="12.225084"><ele>345.0</ele><time>2026-05-01T08:28:46.466Z</time></trkpt><trkpt lat="43.2665454" lon="12.2251774"><ele>345.0</ele><time>2026-05-01T08:28:47.466Z</time></trkpt><trkpt lat="43.2665968" lon="12.2252887"><ele>345.0</ele><time>2026-05-01T08:28:48.466Z</time></trkpt><trkpt lat="43.2666153" lon="12.2254022"><ele>344.1666666666667</ele><time>2026-05-01T08:28:49.465Z</time></trkpt><trkpt lat="43.2666061" lon="12.2255099"><ele>343.3333333333333</ele><time>2026-05-01T08:28:50.466Z</time></trkpt><trkpt lat="43.2666292" lon="12.2256686"><ele>342.5</ele><time>2026-05-01T08:28:52.465Z</time></trkpt><trkpt lat="43.2666829" lon="12.2257301"><ele>341.66666666666663</ele><time>2026-05-01T08:28:53.466Z</time></trkpt><trkpt lat="43.2667415" lon="12.2258076"><ele>340.8333333333333</ele><time>2026-05-01T08:28:54.465Z</time></trkpt><trkpt lat="43.266764" lon="12.2259115"><ele>340.0</ele><time>2026-05-01T08:28:55.465Z</time></trkpt><trkpt lat="43.2667464" lon="12.2260416"><ele>342.16666666666663</ele><time>2026-05-01T08:28:56.466Z</time></trkpt><trkpt lat="43.26672" lon="12.2261744"><ele>344.3333333333333</ele><time>2026-05-01T08:28:57.466Z</time></trkpt><trkpt lat="43.2666912" lon="12.2262958"><ele>346.5</ele><time>2026-05-01T08:28:58.466Z</time></trkpt><trkpt lat="43.266658" lon="12.2264121"><ele>348.6666666666667</ele><time>2026-05-01T08:28:59.466Z</time></trkpt><trkpt lat="43.26663" lon="12.2265234"><ele>350.83333333333337</ele><time>2026-05-01T08:29:00.466Z</time></trkpt><trkpt lat="43.266586" lon="12.226612"><ele>353.0</ele><time>2026-05-01T08:29:01.466Z</time></trkpt><trkpt lat="43.2665179" lon="12.226676"><ele>356.1666666666667</ele><time>2026-05-01T08:29:02.466Z</time></trkpt><trkpt lat="43.2664409" lon="12.2266991"><ele>359.33333333333337</ele><time>2026-05-01T08:29:03.465Z</time></trkpt><trkpt lat="43.266361" lon="12.2267232"><ele>362.5</ele><time>2026-05-01T08:29:04.466Z</time></trkpt><trkpt lat="43.2663051" lon="12.2267665"><ele>365.6666666666667</ele><time>2026-05-01T08:29:05.466Z</time></trkpt><trkpt lat="43.2662639" lon="12.2268508"><ele>368.8333333333333</ele><time>2026-05-01T08:29:06.466Z</time></trkpt><trkpt lat="43.2662316" lon="12.2269741"><ele>372.0</ele><time>2026-05-01T08:29:07.466Z</time></trkpt><trkpt lat="43.2662003" lon="12.227127"><ele>372.0</ele><time>2026-05-01T08:29:08.466Z</time></trkpt><trkpt lat="43.2661644" lon="12.2272987"><ele>372.0</ele><time>2026-05-01T08:29:09.465Z</time></trkpt><trkpt lat="43.2661245" lon="12.2274586"><ele>372.0</ele><time>2026-05-01T08:29:10.466Z</time></trkpt><trkpt lat="43.2660889" lon="12.2276041"><ele>372.0</ele><time>2026-05-01T08:29:11.466Z</time></trkpt><trkpt lat="43.2660623" lon="12.2277439"><ele>375.0</ele><time>2026-05-01T08:29:12.466Z</time></trkpt><trkpt lat="43.266052" lon="12.2278741"><ele>378.0</ele><time>2026-05-01T08:29:13.466Z</time></trkpt><trkpt lat="43.2660651" lon="12.2279995"><ele>381.0</ele><time>2026-05-01T08:29:14.466Z</time></trkpt><trkpt lat="43.2660986" lon="12.2281282"><ele>384.0</ele><time>2026-05-01T08:29:15.466Z</time></trkpt><trkpt lat="43.2661319" lon="12.2282457"><ele>387.0</ele><time>2026-05-01T08:29:16.466Z</time></trkpt><trkpt lat="43.2661486" lon="12.2283563"><ele>388.6</ele><time>2026-05-01T08:29:17.466Z</time></trkpt><trkpt lat="43.2661442" lon="12.2284527"><ele>390.20000000000005</ele><time>2026-05-01T08:29:18.466Z</time></trkpt><trkpt lat="43.266107" lon="12.2285415"><ele>391.8</ele><time>2026-05-01T08:29:19.466Z</time></trkpt><trkpt lat="43.266054" lon="12.2285981"><ele>393.4</ele><time>2026-05-01T08:29:20.466Z</time></trkpt><trkpt lat="43.2659964" lon="12.2287308"><ele>395.0</ele><time>2026-05-01T08:29:22.466Z</time></trkpt><trkpt lat="43.2660194" lon="12.2289155"><ele>397.0</ele><time>2026-05-01T08:29:24.466Z</time></trkpt><trkpt lat="43.2660439" lon="12.2290419"><ele>399.0</ele><time>2026-05-01T08:29:25.465Z</time></trkpt><trkpt lat="43.2660561" lon="12.2291717"><ele>401.0</ele><time>2026-05-01T08:29:26.466Z</time></trkpt><trkpt lat="43.2660356" lon="12.2292983"><ele>403.0</ele><time>2026-05-01T08:29:27.466Z</time></trkpt><trkpt lat="43.2659921" lon="12.2294302"><ele>405.0</ele><time>2026-05-01T08:29:28.466Z</time></trkpt><trkpt lat="43.2659364" lon="12.2295419"><ele>405.0</ele><time>2026-05-01T08:29:29.466Z</time></trkpt><trkpt lat="43.2658653" lon="12.2296473"><ele>405.0</ele><time>2026-05-01T08:29:30.465Z</time></trkpt><trkpt lat="43.2657943" lon="12.2297621"><ele>405.0</ele><time>2026-05-01T08:29:31.466Z</time></trkpt><trkpt lat="43.2657206" lon="12.2298814"><ele>405.0</ele><time>2026-05-01T08:29:32.465Z</time></trkpt><trkpt lat="43.2656522" lon="12.2299817"><ele>405.0</ele><time>2026-05-01T08:29:33.466Z</time></trkpt><trkpt lat="43.2655746" lon="12.2300731"><ele>409.2</ele><time>2026-05-01T08:29:34.466Z</time></trkpt><trkpt lat="43.2654912" lon="12.2301473"><ele>413.4</ele><time>2026-05-01T08:29:35.466Z</time></trkpt><trkpt lat="43.2654154" lon="12.2302192"><ele>417.6</ele><time>2026-05-01T08:29:36.465Z</time></trkpt><trkpt lat="43.2653614" lon="12.2303058"><ele>421.8</ele><time>2026-05-01T08:29:37.466Z</time></trkpt><trkpt lat="43.265316" lon="12.2304033"><ele>426.0</ele><time>2026-05-01T08:29:38.466Z</time></trkpt><trkpt lat="43.2652901" lon="12.2305437"><ele>427.20000000000005</ele><time>2026-05-01T08:29:39.466Z</time></trkpt><trkpt lat="43.2652779" lon="12.2307043"><ele>428.40000000000003</ele><time>2026-05-01T08:29:40.466Z</time></trkpt><trkpt lat="43.2652742" lon="12.2308586"><ele>429.6</ele><time>2026-05-01T08:29:41.465Z</time></trkpt><trkpt lat="43.2652679" lon="12.2310097"><ele>430.8</ele><time>2026-05-01T08:29:42.466Z</time></trkpt><trkpt lat="43.2652506" lon="12.231145"><ele>432.0</ele><time>2026-05-01T08:29:43.466Z</time></trkpt><trkpt lat="43.2652182" lon="12.231274"><ele>432.0</ele><time>2026-05-01T08:29:44.466Z</time></trkpt><trkpt lat="43.2651682" lon="12.2313977"><ele>432.00000000000006</ele><time>2026-05-01T08:29:45.466Z</time></trkpt><trkpt lat="43.2651095" lon="12.2315244"><ele>432.00000000000006</ele><time>2026-05-01T08:29:46.465Z</time></trkpt><trkpt lat="43.2650541" lon="12.2316574"><ele>432.0</ele><time>2026-05-01T08:29:47.466Z</time></trkpt><trkpt lat="43.2650066" lon="12.2317838"><ele>432.0</ele><time>2026-05-01T08:29:48.466Z</time></trkpt><trkpt lat="43.2649662" lon="12.2319001"><ele>433.0</ele><time>2026-05-01T08:29:49.466Z</time></trkpt><trkpt lat="43.2649569" lon="12.2320409"><ele>434.00000000000006</ele><time>2026-05-01T08:29:50.466Z</time></trkpt><trkpt lat="43.2649886" lon="12.2321801"><ele>435.00000000000006</ele><time>2026-05-01T08:29:51.466Z</time></trkpt><trkpt lat="43.2650231" lon="12.2323045"><ele>436.0</ele><time>2026-05-01T08:29:52.465Z</time></trkpt><trkpt lat="43.2650371" lon="12.2324049"><ele>437.0</ele><time>2026-05-01T08:29:53.466Z</time></trkpt><trkpt lat="43.2650082" lon="12.2325552"><ele>438.3333333333333</ele><time>2026-05-01T08:29:55.466Z</time></trkpt><trkpt lat="43.2649605" lon="12.2326236"><ele>439.66666666666663</ele><time>2026-05-01T08:29:56.466Z</time></trkpt><trkpt lat="43.2648968" lon="12.2326839"><ele>441.0</ele><time>2026-05-01T08:29:57.466Z</time></trkpt><trkpt lat="43.2648292" lon="12.2327367"><ele>442.33333333333337</ele><time>2026-05-01T08:29:58.465Z</time></trkpt><trkpt lat="43.2647555" lon="12.232785"><ele>443.6666666666667</ele><time>2026-05-01T08:29:59.466Z</time></trkpt><trkpt lat="43.2646592" lon="12.2328334"><ele>445.0</ele><time>2026-05-01T08:30:00.465Z</time></trkpt><trkpt lat="43.2645464" lon="12.2328605"><ele>447.2</ele><time>2026-05-01T08:30:01.466Z</time></trkpt><trkpt lat="43.264439" lon="12.2328675"><ele>449.4</ele><time>2026-05-01T08:30:02.466Z</time></trkpt><trkpt lat="43.2643233" lon="12.2328557"><ele>451.6</ele><time>2026-05-01T08:30:03.465Z</time></trkpt><trkpt lat="43.2642025" lon="12.2328366"><ele>453.8</ele><time>2026-05-01T08:30:04.465Z</time></trkpt><trkpt lat="43.2641105" lon="12.2328192"><ele>456.0</ele><time>2026-05-01T08:30:05.466Z</time></trkpt><trkpt lat="43.2640318" lon="12.2327919"><ele>456.0</ele><time>2026-05-01T08:30:06.465Z</time></trkpt><trkpt lat="43.2639623" lon="12.2327574"><ele>456.0</ele><time>2026-05-01T08:30:07.466Z</time></trkpt><trkpt lat="43.2638977" lon="12.2326945"><ele>456.0</ele><time>2026-05-01T08:30:08.466Z</time></trkpt><trkpt lat="43.2638351" lon="12.2325849"><ele>456.0</ele><time>2026-05-01T08:30:09.465Z</time></trkpt><trkpt lat="43.263769" lon="12.2324513"><ele>456.0</ele><time>2026-05-01T08:30:10.466Z</time></trkpt><trkpt lat="43.2637025" lon="12.2323022"><ele>456.25</ele><time>2026-05-01T08:30:11.466Z</time></trkpt><trkpt lat="43.2636277" lon="12.2321518"><ele>456.5</ele><time>2026-05-01T08:30:12.466Z</time></trkpt><trkpt lat="43.2635518" lon="12.2320035"><ele>456.75</ele><time>2026-05-01T08:30:13.465Z</time></trkpt><trkpt lat="43.2634912" lon="12.231859"><ele>457.0</ele><time>2026-05-01T08:30:14.466Z</time></trkpt><trkpt lat="43.2634225" lon="12.2317054"><ele>457.0</ele><time>2026-05-01T08:30:15.465Z</time></trkpt><trkpt lat="43.2633593" lon="12.2315655"><ele>457.00000000000006</ele><time>2026-05-01T08:30:16.466Z</time></trkpt><trkpt lat="43.2632969" lon="12.2314285"><ele>457.00000000000006</ele><time>2026-05-01T08:30:17.466Z</time></trkpt><trkpt lat="43.2632425" lon="12.2313023"><ele>457.0</ele><time>2026-05-01T08:30:18.465Z</time></trkpt><trkpt lat="43.2631929" lon="12.2311906"><ele>457.0</ele><time>2026-05-01T08:30:19.466Z</time></trkpt><trkpt lat="43.2631322" lon="12.2310948"><ele>456.33333333333337</ele><time>2026-05-01T08:30:20.466Z</time></trkpt><trkpt lat="43.2630701" lon="12.2310111"><ele>455.6666666666667</ele><time>2026-05-01T08:30:21.466Z</time></trkpt><trkpt lat="43.2630048" lon="12.2309478"><ele>455.0</ele><time>2026-05-01T08:30:22.465Z</time></trkpt><trkpt lat="43.2629343" lon="12.230899"><ele>454.33333333333337</ele><time>2026-05-01T08:30:23.466Z</time></trkpt><trkpt lat="43.2628422" lon="12.2308807"><ele>453.6666666666667</ele><time>2026-05-01T08:30:24.466Z</time></trkpt><trkpt lat="43.2627471" lon="12.2308672"><ele>453.0</ele><time>2026-05-01T08:30:25.465Z</time></trkpt><trkpt lat="43.2626419" lon="12.2308701"><ele>453.0</ele><time>2026-05-01T08:30:26.466Z</time></trkpt><trkpt lat="43.2625422" lon="12.2308711"><ele>452.99999999999994</ele><time>2026-05-01T08:30:27.466Z</time></trkpt><trkpt lat="43.2624466" lon="12.2308675"><ele>452.99999999999994</ele><time>2026-05-01T08:30:28.466Z</time></trkpt><trkpt lat="43.2623598" lon="12.230868"><ele>453.0</ele><time>2026-05-01T08:30:29.466Z</time></trkpt><trkpt lat="43.2622863" lon="12.2308783"><ele>453.0</ele><time>2026-05-01T08:30:30.466Z</time></trkpt><trkpt lat="43.262172" lon="12.2309661"><ele>453.0</ele><time>2026-05-01T08:30:32.466Z</time></trkpt><trkpt lat="43.2621147" lon="12.2310552"><ele>453.0</ele><time>2026-05-01T08:30:33.466Z</time></trkpt><trkpt lat="43.2620634" lon="12.2311433"><ele>453.0</ele><time>2026-05-01T08:30:34.466Z</time></trkpt><trkpt lat="43.2620104" lon="12.2312314"><ele>453.0</ele><time>2026-05-01T08:30:35.465Z</time></trkpt><trkpt lat="43.2619532" lon="12.2313082"><ele>453.0</ele><time>2026-05-01T08:30:36.465Z</time></trkpt><trkpt lat="43.2618747" lon="12.2313537"><ele>453.0</ele><time>2026-05-01T08:30:37.466Z</time></trkpt><trkpt lat="43.2617755" lon="12.2313788"><ele>453.0</ele><time>2026-05-01T08:30:38.466Z</time></trkpt><trkpt lat="43.2616578" lon="12.2314138"><ele>453.0</ele><time>2026-05-01T08:30:39.466Z</time></trkpt><trkpt lat="43.2615398" lon="12.2314629"><ele>453.0</ele><time>2026-05-01T08:30:40.466Z</time></trkpt><trkpt lat="43.2614153" lon="12.231508"><ele>453.0</ele><time>2026-05-01T08:30:41.465Z</time></trkpt><trkpt lat="43.2613017" lon="12.2315441"><ele>456.25</ele><time>2026-05-01T08:30:42.465Z</time></trkpt><trkpt lat="43.2611913" lon="12.2315853"><ele>459.5</ele><time>2026-05-01T08:30:43.466Z</time></trkpt><trkpt lat="43.2610773" lon="12.2316173"><ele>462.75</ele><time>2026-05-01T08:30:44.465Z</time></trkpt><trkpt lat="43.2609563" lon="12.2316378"><ele>466.0</ele><time>2026-05-01T08:30:45.466Z</time></trkpt><trkpt lat="43.2608359" lon="12.2316607"><ele>466.0</ele><time>2026-05-01T08:30:46.466Z</time></trkpt><trkpt lat="43.2607054" lon="12.2316779"><ele>466.0</ele><time>2026-05-01T08:30:47.466Z</time></trkpt><trkpt lat="43.2605777" lon="12.2316991"><ele>466.0</ele><time>2026-05-01T08:30:48.466Z</time></trkpt><trkpt lat="43.2604594" lon="12.2317217"><ele>466.0</ele><time>2026-05-01T08:30:49.465Z</time></trkpt><trkpt lat="43.2603591" lon="12.2317505"><ele>466.50000000000006</ele><time>2026-05-01T08:30:50.466Z</time></trkpt><trkpt lat="43.2602733" lon="12.2317765"><ele>467.0</ele><time>2026-05-01T08:30:51.466Z</time></trkpt><trkpt lat="43.2602005" lon="12.2317878"><ele>467.5</ele><time>2026-05-01T08:30:52.466Z</time></trkpt><trkpt lat="43.260137" lon="12.2317754"><ele>468.0</ele><time>2026-05-01T08:30:53.465Z</time></trkpt><trkpt lat="43.2600806" lon="12.2316308"><ele>468.50000000000006</ele><time>2026-05-01T08:30:55.465Z</time></trkpt><trkpt lat="43.2600807" lon="12.2315038"><ele>469.0</ele><time>2026-05-01T08:30:56.466Z</time></trkpt><trkpt lat="43.2600726" lon="12.2313768"><ele>469.0</ele><time>2026-05-01T08:30:57.466Z</time></trkpt><trkpt lat="43.2600586" lon="12.2312303"><ele>469.0</ele><time>2026-05-01T08:30:58.466Z</time></trkpt><trkpt lat="43.2600321" lon="12.2310692"><ele>469.0</ele><time>2026-05-01T08:30:59.466Z</time></trkpt><trkpt lat="43.2600023" lon="12.2308948"><ele>469.0</ele><time>2026-05-01T08:31:00.465Z</time></trkpt><trkpt lat="43.2599759" lon="12.2307512"><ele>467.6</ele><time>2026-05-01T08:31:01.466Z</time></trkpt><trkpt lat="43.2599477" lon="12.2306167"><ele>466.2</ele><time>2026-05-01T08:31:02.465Z</time></trkpt><trkpt lat="43.2599069" lon="12.2304891"><ele>464.80000000000007</ele><time>2026-05-01T08:31:03.465Z</time></trkpt><trkpt lat="43.2598613" lon="12.2303813"><ele>463.40000000000003</ele><time>2026-05-01T08:31:04.466Z</time></trkpt><trkpt lat="43.2598071" lon="12.2302905"><ele>462.0</ele><time>2026-05-01T08:31:05.465Z</time></trkpt><trkpt lat="43.2597283" lon="12.2302021"><ele>466.6</ele><time>2026-05-01T08:31:06.466Z</time></trkpt><trkpt lat="43.2596486" lon="12.2301215"><ele>471.20000000000005</ele><time>2026-05-01T08:31:07.466Z</time></trkpt><trkpt lat="43.2595782" lon="12.2300385"><ele>475.8</ele><time>2026-05-01T08:31:08.466Z</time></trkpt><trkpt lat="43.2595284" lon="12.2299461"><ele>480.4</ele><time>2026-05-01T08:31:09.466Z</time></trkpt><trkpt lat="43.2595116" lon="12.2298284"><ele>485.0</ele><time>2026-05-01T08:31:10.466Z</time></trkpt><trkpt lat="43.2594928" lon="12.2297116"><ele>485.00000000000006</ele><time>2026-05-01T08:31:11.465Z</time></trkpt><trkpt lat="43.2594745" lon="12.2296108"><ele>485.0</ele><time>2026-05-01T08:31:12.466Z</time></trkpt><trkpt lat="43.2594593" lon="12.2295209"><ele>485.00000000000006</ele><time>2026-05-01T08:31:13.466Z</time></trkpt><trkpt lat="43.2594289" lon="12.2294437"><ele>485.00000000000006</ele><time>2026-05-01T08:31:14.466Z</time></trkpt><trkpt lat="43.2593669" lon="12.2293867"><ele>485.0</ele><time>2026-05-01T08:31:15.466Z</time></trkpt><trkpt lat="43.2592942" lon="12.2293519"><ele>485.00000000000006</ele><time>2026-05-01T08:31:16.466Z</time></trkpt><trkpt lat="43.2592332" lon="12.229328"><ele>485.00000000000006</ele><time>2026-05-01T08:31:17.466Z</time></trkpt><trkpt lat="43.2591381" lon="12.2293629"><ele>485.0</ele><time>2026-05-01T08:31:19.466Z</time></trkpt><trkpt lat="43.2591015" lon="12.2295275"><ele>485.0</ele><time>2026-05-01T08:31:21.465Z</time></trkpt><trkpt lat="43.2591037" lon="12.2296514"><ele>485.0</ele><time>2026-05-01T08:31:22.466Z</time></trkpt><trkpt lat="43.2591118" lon="12.2297807"><ele>485.0</ele><time>2026-05-01T08:31:23.466Z</time></trkpt><trkpt lat="43.259112" lon="12.2299156"><ele>485.0</ele><time>2026-05-01T08:31:24.466Z</time></trkpt><trkpt lat="43.2591112" lon="12.2300422"><ele>485.6</ele><time>2026-05-01T08:31:25.465Z</time></trkpt><trkpt lat="43.2590938" lon="12.2301332"><ele>486.2</ele><time>2026-05-01T08:31:26.465Z</time></trkpt><trkpt lat="43.2590344" lon="12.2302223"><ele>486.79999999999995</ele><time>2026-05-01T08:31:28.466Z</time></trkpt><trkpt lat="43.2589773" lon="12.230171"><ele>487.4</ele><time>2026-05-01T08:31:29.466Z</time></trkpt><trkpt lat="43.2588818" lon="12.230043"><ele>488.0</ele><time>2026-05-01T08:31:31.466Z</time></trkpt><trkpt lat="43.2588337" lon="12.2299322"><ele>489.16666666666663</ele><time>2026-05-01T08:31:32.466Z</time></trkpt><trkpt lat="43.2588195" lon="12.229833"><ele>490.3333333333333</ele><time>2026-05-01T08:31:33.466Z</time></trkpt><trkpt lat="43.258741" lon="12.2296763"><ele>491.5</ele><time>2026-05-01T08:31:35.465Z</time></trkpt><trkpt lat="43.2586771" lon="12.2296314"><ele>492.66666666666663</ele><time>2026-05-01T08:31:36.466Z</time></trkpt><trkpt lat="43.2586046" lon="12.2296029"><ele>493.8333333333333</ele><time>2026-05-01T08:31:37.466Z</time></trkpt><trkpt lat="43.2585219" lon="12.22959"><ele>495.0</ele><time>2026-05-01T08:31:38.466Z</time></trkpt><trkpt lat="43.2584362" lon="12.2295887"><ele>495.0</ele><time>2026-05-01T08:31:39.466Z</time></trkpt><trkpt lat="43.2583433" lon="12.2295705"><ele>495.0</ele><time>2026-05-01T08:31:40.466Z</time></trkpt><trkpt lat="43.2582482" lon="12.2295288"><ele>495.0</ele><time>2026-05-01T08:31:41.466Z</time></trkpt><trkpt lat="43.2581601" lon="12.229493"><ele>495.0</ele><time>2026-05-01T08:31:42.465Z</time></trkpt><trkpt lat="43.2580747" lon="12.2294612"><ele>495.0</ele><time>2026-05-01T08:31:43.466Z</time></trkpt><trkpt lat="43.2579958" lon="12.2294469"><ele>496.1666666666667</ele><time>2026-05-01T08:31:44.466Z</time></trkpt><trkpt lat="43.257918" lon="12.2294392"><ele>497.33333333333337</ele><time>2026-05-01T08:31:45.466Z</time></trkpt><trkpt lat="43.2578137" lon="12.2294287"><ele>498.5</ele><time>2026-05-01T08:31:47.466Z</time></trkpt><trkpt lat="43.257747" lon="12.2294448"><ele>499.6666666666667</ele><time>2026-05-01T08:31:49.466Z</time></trkpt><trkpt lat="43.2577272" lon="12.2295718"><ele>500.83333333333337</ele><time>2026-05-01T08:31:52.466Z</time></trkpt><trkpt lat="43.2577755" lon="12.2296324"><ele>502.0</ele><time>2026-05-01T08:31:53.465Z</time></trkpt><trkpt lat="43.2578257" lon="12.2296893"><ele>501.99999999999994</ele><time>2026-05-01T08:31:54.465Z</time></trkpt><trkpt lat="43.2578776" lon="12.2297561"><ele>502.0</ele><time>2026-05-01T08:31:55.466Z</time></trkpt><trkpt lat="43.2579296" lon="12.2298336"><ele>501.99999999999994</ele><time>2026-05-01T08:31:56.466Z</time></trkpt><trkpt lat="43.2579785" lon="12.2299022"><ele>501.99999999999994</ele><time>2026-05-01T08:31:57.466Z</time></trkpt><trkpt lat="43.2580229" lon="12.2299767"><ele>502.0</ele><time>2026-05-01T08:31:58.466Z</time></trkpt><trkpt lat="43.2580754" lon="12.230052"><ele>501.99999999999994</ele><time>2026-05-01T08:31:59.465Z</time></trkpt><trkpt lat="43.2581131" lon="12.2301445"><ele>501.99999999999994</ele><time>2026-05-01T08:32:00.466Z</time></trkpt><trkpt lat="43.258139" lon="12.2302267"><ele>503.40000000000003</ele><time>2026-05-01T08:32:01.466Z</time></trkpt><trkpt lat="43.2581338" lon="12.2303939"><ele>504.80000000000007</ele><time>2026-05-01T08:32:03.466Z</time></trkpt><trkpt lat="43.2580391" lon="12.2304246"><ele>506.2</ele><time>2026-05-01T08:32:05.465Z</time></trkpt><trkpt lat="43.2579068" lon="12.2303843"><ele>507.6</ele><time>2026-05-01T08:32:07.466Z</time></trkpt><trkpt lat="43.2578274" lon="12.2303615"><ele>509.0</ele><time>2026-05-01T08:32:08.466Z</time></trkpt><trkpt lat="43.2577515" lon="12.2303263"><ele>509.99999999999994</ele><time>2026-05-01T08:32:09.466Z</time></trkpt><trkpt lat="43.2576684" lon="12.2303279"><ele>511.0</ele><time>2026-05-01T08:32:10.465Z</time></trkpt><trkpt lat="43.2575902" lon="12.230348"><ele>512.0</ele><time>2026-05-01T08:32:11.466Z</time></trkpt><trkpt lat="43.2575046" lon="12.2303973"><ele>513.0</ele><time>2026-05-01T08:32:12.466Z</time></trkpt><trkpt lat="43.2574249" lon="12.2304513"><ele>514.0</ele><time>2026-05-01T08:32:13.466Z</time></trkpt><trkpt lat="43.2573527" lon="12.2305249"><ele>515.0</ele><time>2026-05-01T08:32:14.466Z</time></trkpt><trkpt lat="43.2572886" lon="12.2306181"><ele>517.5</ele><time>2026-05-01T08:32:15.465Z</time></trkpt><trkpt lat="43.2572246" lon="12.2307218"><ele>520.0</ele><time>2026-05-01T08:32:16.465Z</time></trkpt><trkpt lat="43.2571623" lon="12.2308153"><ele>522.5</ele><time>2026-05-01T08:32:17.467Z</time></trkpt><trkpt lat="43.257108" lon="12.2308973"><ele>525.0</ele><time>2026-05-01T08:32:18.467Z</time></trkpt><trkpt lat="43.2570675" lon="12.2309817"><ele>527.5</ele><time>2026-05-01T08:32:19.467Z</time></trkpt><trkpt lat="43.2570419" lon="12.2310789"><ele>530.0</ele><time>2026-05-01T08:32:20.467Z</time></trkpt><trkpt lat="43.257029" lon="12.2311813"><ele>530.0</ele><time>2026-05-01T08:32:21.467Z</time></trkpt><trkpt lat="43.2570278" lon="12.2312951"><ele>530.0</ele><time>2026-05-01T08:32:22.467Z</time></trkpt><trkpt lat="43.2570238" lon="12.2314028"><ele>530.0</ele><time>2026-05-01T08:32:23.467Z</time></trkpt><trkpt lat="43.2570041" lon="12.2315165"><ele>530.0</ele><time>2026-05-01T08:32:24.467Z</time></trkpt><trkpt lat="43.2569739" lon="12.2316331"><ele>530.0</ele><time>2026-05-01T08:32:25.467Z</time></trkpt><trkpt lat="43.2569311" lon="12.2317328"><ele>530.0</ele><time>2026-05-01T08:32:26.466Z</time></trkpt><trkpt lat="43.2568706" lon="12.2318176"><ele>531.5</ele><time>2026-05-01T08:32:27.467Z</time></trkpt><trkpt lat="43.2567897" lon="12.231863"><ele>533.0</ele><time>2026-05-01T08:32:28.467Z</time></trkpt><trkpt lat="43.2567107" lon="12.2319078"><ele>534.5</ele><time>2026-05-01T08:32:29.466Z</time></trkpt><trkpt lat="43.2566256" lon="12.2319479"><ele>536.0</ele><time>2026-05-01T08:32:30.466Z</time></trkpt><trkpt lat="43.2565502" lon="12.2319808"><ele>537.5</ele><time>2026-05-01T08:32:31.467Z</time></trkpt><trkpt lat="43.2564879" lon="12.2320185"><ele>539.0</ele><time>2026-05-01T08:32:32.467Z</time></trkpt><trkpt lat="43.2564286" lon="12.2320763"><ele>539.0</ele><time>2026-05-01T08:32:33.467Z</time></trkpt><trkpt lat="43.2563843" lon="12.2321582"><ele>539.0</ele><time>2026-05-01T08:32:34.467Z</time></trkpt><trkpt lat="43.2563591" lon="12.2322631"><ele>539.0</ele><time>2026-05-01T08:32:35.466Z</time></trkpt><trkpt lat="43.2563384" lon="12.232385"><ele>539.0</ele><time>2026-05-01T08:32:36.467Z</time></trkpt><trkpt lat="43.2563183" lon="12.2325088"><ele>539.0</ele><time>2026-05-01T08:32:37.467Z</time></trkpt><trkpt lat="43.2562821" lon="12.2326217"><ele>539.0</ele><time>2026-05-01T08:32:38.467Z</time></trkpt><trkpt lat="43.2562186" lon="12.2327281"><ele>541.5</ele><time>2026-05-01T08:32:39.467Z</time></trkpt><trkpt lat="43.2561326" lon="12.2328312"><ele>544.0</ele><time>2026-05-01T08:32:40.467Z</time></trkpt><trkpt lat="43.2560518" lon="12.2329431"><ele>546.5</ele><time>2026-05-01T08:32:41.467Z</time></trkpt><trkpt lat="43.2559614" lon="12.2330595"><ele>549.0</ele><time>2026-05-01T08:32:42.467Z</time></trkpt><trkpt lat="43.2558702" lon="12.2331714"><ele>552.25</ele><time>2026-05-01T08:32:43.467Z</time></trkpt><trkpt lat="43.2557742" lon="12.2332822"><ele>555.5</ele><time>2026-05-01T08:32:44.467Z</time></trkpt><trkpt lat="43.2556697" lon="12.2333779"><ele>558.75</ele><time>2026-05-01T08:32:45.467Z</time></trkpt><trkpt lat="43.2555545" lon="12.2334569"><ele>562.0</ele><time>2026-05-01T08:32:46.467Z</time></trkpt><trkpt lat="43.2554423" lon="12.2335265"><ele>562.75</ele><time>2026-05-01T08:32:47.467Z</time></trkpt><trkpt lat="43.2553355" lon="12.2336086"><ele>563.5</ele><time>2026-05-01T08:32:48.467Z</time></trkpt><trkpt lat="43.2552372" lon="12.2336831"><ele>564.25</ele><time>2026-05-01T08:32:49.467Z</time></trkpt><trkpt lat="43.2551383" lon="12.2337553"><ele>565.0</ele><time>2026-05-01T08:32:50.466Z</time></trkpt><trkpt lat="43.2550257" lon="12.2338281"><ele>565.0</ele><time>2026-05-01T08:32:51.467Z</time></trkpt><trkpt lat="43.2549115" lon="12.2338823"><ele>565.0</ele><time>2026-05-01T08:32:52.466Z</time></trkpt><trkpt lat="43.2547962" lon="12.2339321"><ele>565.0</ele><time>2026-05-01T08:32:53.467Z</time></trkpt><trkpt lat="43.2546782" lon="12.2339851"><ele>565.0</ele><time>2026-05-01T08:32:54.467Z</time></trkpt><trkpt lat="43.2545486" lon="12.2340672"><ele>567.5</ele><time>2026-05-01T08:32:55.467Z</time></trkpt><trkpt lat="43.2544128" lon="12.2341418"><ele>570.0</ele><time>2026-05-01T08:32:56.466Z</time></trkpt><trkpt lat="43.2542872" lon="12.2342192"><ele>572.5</ele><time>2026-05-01T08:32:57.467Z</time></trkpt><trkpt lat="43.2541796" lon="12.2342927"><ele>575.0</ele><time>2026-05-01T08:32:58.467Z</time></trkpt><trkpt lat="43.2540906" lon="12.2343404"><ele>575.0</ele><time>2026-05-01T08:32:59.467Z</time></trkpt><trkpt lat="43.2540091" lon="12.2343896"><ele>575.0</ele><time>2026-05-01T08:33:00.467Z</time></trkpt><trkpt lat="43.2539549" lon="12.2344338"><ele>575.0</ele><time>2026-05-01T08:33:01.467Z</time></trkpt><trkpt lat="43.253904" lon="12.234485"><ele>575.0</ele><time>2026-05-01T08:33:02.466Z</time></trkpt><trkpt lat="43.2538642" lon="12.2345641"><ele>575.0</ele><time>2026-05-01T08:33:03.467Z</time></trkpt><trkpt lat="43.2538321" lon="12.2346658"><ele>575.0</ele><time>2026-05-01T08:33:04.467Z</time></trkpt><trkpt lat="43.253806" lon="12.2347869"><ele>575.0</ele><time>2026-05-01T08:33:05.467Z</time></trkpt><trkpt lat="43.2537852" lon="12.2348858"><ele>575.0</ele><time>2026-05-01T08:33:06.467Z</time></trkpt><trkpt lat="43.2537143" lon="12.2349619"><ele>575.0</ele><time>2026-05-01T08:33:08.467Z</time></trkpt><trkpt lat="43.2536184" lon="12.2348707"><ele>575.0</ele><time>2026-05-01T08:33:10.466Z</time></trkpt><trkpt lat="43.2535736" lon="12.2348009"><ele>575.0</ele><time>2026-05-01T08:33:11.467Z</time></trkpt><trkpt lat="43.253535" lon="12.23473"><ele>575.0</ele><time>2026-05-01T08:33:12.466Z</time></trkpt><trkpt lat="43.2534462" lon="12.234669"><ele>575.0</ele><time>2026-05-01T08:33:14.467Z</time></trkpt><trkpt lat="43.2533659" lon="12.2347594"><ele>575.0</ele><time>2026-05-01T08:33:16.467Z</time></trkpt><trkpt lat="43.2533393" lon="12.2348794"><ele>575.0</ele><time>2026-05-01T08:33:17.467Z</time></trkpt><trkpt lat="43.2533168" lon="12.2350138"><ele>575.0</ele><time>2026-05-01T08:33:18.466Z</time></trkpt><trkpt lat="43.2532834" lon="12.2351604"><ele>575.0</ele><time>2026-05-01T08:33:19.467Z</time></trkpt><trkpt lat="43.2532516" lon="12.2353055"><ele>576.6</ele><time>2026-05-01T08:33:20.467Z</time></trkpt><trkpt lat="43.2532079" lon="12.2354433"><ele>578.2</ele><time>2026-05-01T08:33:21.467Z</time></trkpt><trkpt lat="43.2531679" lon="12.2355699"><ele>579.8</ele><time>2026-05-01T08:33:22.467Z</time></trkpt><trkpt lat="43.253145" lon="12.2356636"><ele>581.4</ele><time>2026-05-01T08:33:23.467Z</time></trkpt><trkpt lat="43.2530942" lon="12.235791"><ele>583.0</ele><time>2026-05-01T08:33:25.467Z</time></trkpt><trkpt lat="43.2530177" lon="12.235823"><ele>584.0</ele><time>2026-05-01T08:33:27.466Z</time></trkpt><trkpt lat="43.2529365" lon="12.2356885"><ele>585.0</ele><time>2026-05-01T08:33:29.467Z</time></trkpt><trkpt lat="43.2528806" lon="12.2356113"><ele>586.0</ele><time>2026-05-01T08:33:30.466Z</time></trkpt><trkpt lat="43.2528394" lon="12.2355191"><ele>587.0</ele><time>2026-05-01T08:33:31.467Z</time></trkpt><trkpt lat="43.2528024" lon="12.2353859"><ele>588.0</ele><time>2026-05-01T08:33:33.467Z</time></trkpt><trkpt lat="43.2527548" lon="12.235239"><ele>588.0</ele><time>2026-05-01T08:33:35.467Z</time></trkpt><trkpt lat="43.2526944" lon="12.235167"><ele>588.0</ele><time>2026-05-01T08:33:36.466Z</time></trkpt><trkpt lat="43.2525956" lon="12.2351152"><ele>588.0</ele><time>2026-05-01T08:33:37.467Z</time></trkpt><trkpt lat="43.2524785" lon="12.2351034"><ele>588.0</ele><time>2026-05-01T08:33:38.467Z</time></trkpt><trkpt lat="43.2523778" lon="12.2350962"><ele>588.0</ele><time>2026-05-01T08:33:39.467Z</time></trkpt><trkpt lat="43.2522748" lon="12.2351039"><ele>588.0</ele><time>2026-05-01T08:33:40.467Z</time></trkpt><trkpt lat="43.2521461" lon="12.2351433"><ele>588.0</ele><time>2026-05-01T08:33:41.467Z</time></trkpt><trkpt lat="43.252021" lon="12.2351897"><ele>588.0</ele><time>2026-05-01T08:33:42.467Z</time></trkpt><trkpt lat="43.2519" lon="12.235234"><ele>588.0</ele><time>2026-05-01T08:33:43.467Z</time></trkpt><trkpt lat="43.2517739" lon="12.2352909"><ele>588.0</ele><time>2026-05-01T08:33:44.467Z</time></trkpt><trkpt lat="43.2516403" lon="12.2353454"><ele>588.0</ele><time>2026-05-01T08:33:45.467Z</time></trkpt><trkpt lat="43.2515021" lon="12.2353866"><ele>588.0</ele><time>2026-05-01T08:33:46.467Z</time></trkpt><trkpt lat="43.2513808" lon="12.2354174"><ele>588.0</ele><time>2026-05-01T08:33:47.467Z</time></trkpt><trkpt lat="43.2512861" lon="12.2354627"><ele>588.4</ele><time>2026-05-01T08:33:48.466Z</time></trkpt><trkpt lat="43.2512048" lon="12.2355105"><ele>588.8</ele><time>2026-05-01T08:33:49.467Z</time></trkpt><trkpt lat="43.2511321" lon="12.2355699"><ele>589.2</ele><time>2026-05-01T08:33:50.467Z</time></trkpt><trkpt lat="43.2510525" lon="12.2356473"><ele>589.6</ele><time>2026-05-01T08:33:51.466Z</time></trkpt><trkpt lat="43.250972" lon="12.2357562"><ele>590.0</ele><time>2026-05-01T08:33:52.467Z</time></trkpt><trkpt lat="43.2509203" lon="12.2358919"><ele>592.6666666666666</ele><time>2026-05-01T08:33:53.467Z</time></trkpt><trkpt lat="43.2508768" lon="12.2360172"><ele>595.3333333333333</ele><time>2026-05-01T08:33:54.467Z</time></trkpt><trkpt lat="43.2508331" lon="12.2361045"><ele>598.0</ele><time>2026-05-01T08:33:55.466Z</time></trkpt><trkpt lat="43.2507607" lon="12.2361587"><ele>600.6666666666666</ele><time>2026-05-01T08:33:56.467Z</time></trkpt><trkpt lat="43.2506835" lon="12.2361863"><ele>603.3333333333334</ele><time>2026-05-01T08:33:57.467Z</time></trkpt><trkpt lat="43.2505923" lon="12.2362115"><ele>606.0</ele><time>2026-05-01T08:33:58.467Z</time></trkpt><trkpt lat="43.2504908" lon="12.2362363"><ele>607.1666666666666</ele><time>2026-05-01T08:33:59.467Z</time></trkpt><trkpt lat="43.2503844" lon="12.2362495"><ele>608.3333333333334</ele><time>2026-05-01T08:34:00.466Z</time></trkpt><trkpt lat="43.2502993" lon="12.2362172"><ele>609.5</ele><time>2026-05-01T08:34:01.467Z</time></trkpt><trkpt lat="43.2502284" lon="12.2361572"><ele>610.6666666666667</ele><time>2026-05-01T08:34:02.467Z</time></trkpt><trkpt lat="43.2501653" lon="12.2360838"><ele>611.8333333333334</ele><time>2026-05-01T08:34:03.467Z</time></trkpt><trkpt lat="43.2500868" lon="12.2360369"><ele>613.0</ele><time>2026-05-01T08:34:04.466Z</time></trkpt><trkpt lat="43.2500016" lon="12.23601"><ele>613.0</ele><time>2026-05-01T08:34:05.467Z</time></trkpt><trkpt lat="43.249903" lon="12.2359898"><ele>613.0</ele><time>2026-05-01T08:34:06.467Z</time></trkpt><trkpt lat="43.2498041" lon="12.235994"><ele>613.0</ele><time>2026-05-01T08:34:07.467Z</time></trkpt><trkpt lat="43.2497002" lon="12.2360111"><ele>613.0</ele><time>2026-05-01T08:34:08.466Z</time></trkpt><trkpt lat="43.2495934" lon="12.2360656"><ele>613.0</ele><time>2026-05-01T08:34:09.467Z</time></trkpt><trkpt lat="43.2495007" lon="12.2361354"><ele>615.4</ele><time>2026-05-01T08:34:10.466Z</time></trkpt><trkpt lat="43.2494143" lon="12.2362331"><ele>617.8</ele><time>2026-05-01T08:34:11.467Z</time></trkpt><trkpt lat="43.2493366" lon="12.236312"><ele>620.2</ele><time>2026-05-01T08:34:12.467Z</time></trkpt><trkpt lat="43.2492573" lon="12.2363477"><ele>622.6</ele><time>2026-05-01T08:34:13.467Z</time></trkpt><trkpt lat="43.2491818" lon="12.2363431"><ele>625.0</ele><time>2026-05-01T08:34:14.467Z</time></trkpt><trkpt lat="43.2490868" lon="12.2362916"><ele>625.0</ele><time>2026-05-01T08:34:15.467Z</time></trkpt><trkpt lat="43.2490055" lon="12.2362309"><ele>625.0</ele><time>2026-05-01T08:34:16.467Z</time></trkpt><trkpt lat="43.2489284" lon="12.2361541"><ele>625.0</ele><time>2026-05-01T08:34:17.467Z</time></trkpt><trkpt lat="43.2488586" lon="12.2360836"><ele>625.0</ele><time>2026-05-01T08:34:18.467Z</time></trkpt><trkpt lat="43.2487863" lon="12.2360312"><ele>625.0</ele><time>2026-05-01T08:34:19.467Z</time></trkpt><trkpt lat="43.2487068" lon="12.2359933"><ele>625.0</ele><time>2026-05-01T08:34:20.467Z</time></trkpt><trkpt lat="43.2486295" lon="12.2359486"><ele>625.8</ele><time>2026-05-01T08:34:21.467Z</time></trkpt><trkpt lat="43.24855" lon="12.2358863"><ele>626.6</ele><time>2026-05-01T08:34:22.467Z</time></trkpt><trkpt lat="43.2484782" lon="12.2358097"><ele>627.4</ele><time>2026-05-01T08:34:23.466Z</time></trkpt><trkpt lat="43.248421" lon="12.2357503"><ele>628.2</ele><time>2026-05-01T08:34:24.467Z</time></trkpt><trkpt lat="43.2483392" lon="12.235683"><ele>629.0</ele><time>2026-05-01T08:34:26.467Z</time></trkpt><trkpt lat="43.2482391" lon="12.2356369"><ele>629.0</ele><time>2026-05-01T08:34:29.467Z</time></trkpt><trkpt lat="43.2481782" lon="12.235607"><ele>629.0</ele><time>2026-05-01T08:34:32.467Z</time></trkpt><trkpt lat="43.2481009" lon="12.2356311"><ele>629.0</ele><time>2026-05-01T08:43:40.467Z</time></trkpt><trkpt lat="43.2480418" lon="12.2356759"><ele>629.0</ele><time>2026-05-01T08:43:41.466Z</time></trkpt><trkpt lat="43.2479777" lon="12.2357307"><ele>629.0</ele><time>2026-05-01T08:43:42.467Z</time></trkpt><trkpt lat="43.247925" lon="12.2357924"><ele>629.0</ele><time>2026-05-01T08:43:43.467Z</time></trkpt><trkpt lat="43.2478634" lon="12.2358656"><ele>629.0</ele><time>2026-05-01T08:43:44.467Z</time></trkpt><trkpt lat="43.2477968" lon="12.2359244"><ele>628.6</ele><time>2026-05-01T08:43:45.466Z</time></trkpt><trkpt lat="43.2477268" lon="12.2360098"><ele>628.2</ele><time>2026-05-01T08:43:46.467Z</time></trkpt><trkpt lat="43.2476718" lon="12.2361197"><ele>627.8000000000001</ele><time>2026-05-01T08:43:47.467Z</time></trkpt><trkpt lat="43.2476217" lon="12.2362381"><ele>627.4</ele><time>2026-05-01T08:43:48.467Z</time></trkpt><trkpt lat="43.2475867" lon="12.2363537"><ele>627.0</ele><time>2026-05-01T08:43:49.466Z</time></trkpt><trkpt lat="43.2475631" lon="12.2364569"><ele>628.8000000000001</ele><time>2026-05-01T08:43:50.467Z</time></trkpt><trkpt lat="43.2475383" lon="12.2365513"><ele>630.6</ele><time>2026-05-01T08:43:51.467Z</time></trkpt><trkpt lat="43.2475228" lon="12.2366484"><ele>632.4000000000001</ele><time>2026-05-01T08:43:52.467Z</time></trkpt><trkpt lat="43.2474285" lon="12.2367887"><ele>634.2</ele><time>2026-05-01T08:43:54.467Z</time></trkpt><trkpt lat="43.247365" lon="12.2368878"><ele>636.0</ele><time>2026-05-01T08:43:55.467Z</time></trkpt><trkpt lat="43.2472972" lon="12.2370337"><ele>634.25</ele><time>2026-05-01T08:43:56.467Z</time></trkpt><trkpt lat="43.2472391" lon="12.2371885"><ele>632.5</ele><time>2026-05-01T08:43:57.467Z</time></trkpt><trkpt lat="43.2471812" lon="12.237352"><ele>630.75</ele><time>2026-05-01T08:43:58.466Z</time></trkpt><trkpt lat="43.2471092" lon="12.2375366"><ele>629.0</ele><time>2026-05-01T08:43:59.467Z</time></trkpt><trkpt lat="43.2470383" lon="12.2377288"><ele>629.0</ele><time>2026-05-01T08:44:00.467Z</time></trkpt><trkpt lat="43.2469529" lon="12.2379139"><ele>629.0</ele><time>2026-05-01T08:44:01.467Z</time></trkpt><trkpt lat="43.246852" lon="12.2380893"><ele>629.0</ele><time>2026-05-01T08:44:02.467Z</time></trkpt><trkpt lat="43.2467368" lon="12.2382623"><ele>630.0</ele><time>2026-05-01T08:44:03.466Z</time></trkpt><trkpt lat="43.2466146" lon="12.2384314"><ele>631.0</ele><time>2026-05-01T08:44:04.467Z</time></trkpt><trkpt lat="43.2465064" lon="12.2386064"><ele>632.0</ele><time>2026-05-01T08:44:05.466Z</time></trkpt><trkpt lat="43.2464067" lon="12.2387795"><ele>632.0</ele><time>2026-05-01T08:44:06.467Z</time></trkpt><trkpt lat="43.2463359" lon="12.2389469"><ele>632.0</ele><time>2026-05-01T08:44:07.466Z</time></trkpt><trkpt lat="43.2462874" lon="12.2391038"><ele>632.0</ele><time>2026-05-01T08:44:08.467Z</time></trkpt><trkpt lat="43.2462172" lon="12.2392367"><ele>632.0</ele><time>2026-05-01T08:44:09.467Z</time></trkpt><trkpt lat="43.2461158" lon="12.2393192"><ele>637.75</ele><time>2026-05-01T08:44:10.467Z</time></trkpt><trkpt lat="43.2459844" lon="12.2392868"><ele>643.5</ele><time>2026-05-01T08:44:11.466Z</time></trkpt><trkpt lat="43.2458649" lon="12.2392023"><ele>649.25</ele><time>2026-05-01T08:44:12.467Z</time></trkpt><trkpt lat="43.2457555" lon="12.2390738"><ele>655.0</ele><time>2026-05-01T08:44:13.467Z</time></trkpt><trkpt lat="43.2456337" lon="12.2389829"><ele>656.0</ele><time>2026-05-01T08:44:14.467Z</time></trkpt><trkpt lat="43.245497" lon="12.238955"><ele>657.0</ele><time>2026-05-01T08:44:15.466Z</time></trkpt><trkpt lat="43.2453448" lon="12.2389681"><ele>658.0</ele><time>2026-05-01T08:44:16.467Z</time></trkpt><trkpt lat="43.2452075" lon="12.2389875"><ele>659.0</ele><time>2026-05-01T08:44:17.467Z</time></trkpt><trkpt lat="43.2450741" lon="12.239023"><ele>659.0</ele><time>2026-05-01T08:44:18.466Z</time></trkpt><trkpt lat="43.2449658" lon="12.239115"><ele>659.0</ele><time>2026-05-01T08:44:19.466Z</time></trkpt><trkpt lat="43.2448697" lon="12.2392287"><ele>659.0</ele><time>2026-05-01T08:44:20.467Z</time></trkpt><trkpt lat="43.2447734" lon="12.2393853"><ele>659.0</ele><time>2026-05-01T08:44:21.467Z</time></trkpt><trkpt lat="43.2446637" lon="12.2394868"><ele>660.25</ele><time>2026-05-01T08:44:22.467Z</time></trkpt><trkpt lat="43.2445582" lon="12.239514"><ele>661.5</ele><time>2026-05-01T08:44:23.467Z</time></trkpt><trkpt lat="43.2444553" lon="12.2394538"><ele>662.75</ele><time>2026-05-01T08:44:24.467Z</time></trkpt><trkpt lat="43.2443677" lon="12.2393446"><ele>664.0</ele><time>2026-05-01T08:44:25.466Z</time></trkpt><trkpt lat="43.2442786" lon="12.2392393"><ele>664.0</ele><time>2026-05-01T08:44:26.466Z</time></trkpt><trkpt lat="43.2441749" lon="12.2391892"><ele>664.0</ele><time>2026-05-01T08:44:27.467Z</time></trkpt><trkpt lat="43.2440457" lon="12.2391923"><ele>664.0</ele><time>2026-05-01T08:44:28.467Z</time></trkpt><trkpt lat="43.243905" lon="12.2392009"><ele>664.0</ele><time>2026-05-01T08:44:29.466Z</time></trkpt><trkpt lat="43.2437377" lon="12.2392286"><ele>665.6666666666667</ele><time>2026-05-01T08:44:30.467Z</time></trkpt><trkpt lat="43.2435758" lon="12.2392561"><ele>667.3333333333334</ele><time>2026-05-01T08:44:31.467Z</time></trkpt><trkpt lat="43.2434205" lon="12.2392905"><ele>669.0</ele><time>2026-05-01T08:44:32.467Z</time></trkpt><trkpt lat="43.243273" lon="12.2393206"><ele>671.6666666666666</ele><time>2026-05-01T08:44:33.467Z</time></trkpt><trkpt lat="43.2431224" lon="12.2393488"><ele>674.3333333333333</ele><time>2026-05-01T08:44:34.467Z</time></trkpt><trkpt lat="43.242972" lon="12.23936"><ele>677.0</ele><time>2026-05-01T08:44:35.467Z</time></trkpt><trkpt lat="43.2428223" lon="12.2393326"><ele>677.0</ele><time>2026-05-01T08:44:36.467Z</time></trkpt><trkpt lat="43.2426843" lon="12.2392852"><ele>677.0</ele><time>2026-05-01T08:44:37.467Z</time></trkpt><trkpt lat="43.2425676" lon="12.2392359"><ele>677.0</ele><time>2026-05-01T08:44:38.467Z</time></trkpt><trkpt lat="43.2424538" lon="12.2391803"><ele>677.0</ele><time>2026-05-01T08:44:39.467Z</time></trkpt><trkpt lat="43.242346" lon="12.2391235"><ele>677.0</ele><time>2026-05-01T08:44:40.467Z</time></trkpt><trkpt lat="43.2422219" lon="12.2390992"><ele>677.0</ele><time>2026-05-01T08:44:41.466Z</time></trkpt><trkpt lat="43.2421091" lon="12.2391163"><ele>677.0</ele><time>2026-05-01T08:44:42.467Z</time></trkpt><trkpt lat="43.2419863" lon="12.2391864"><ele>677.0</ele><time>2026-05-01T08:44:43.467Z</time></trkpt><trkpt lat="43.2418649" lon="12.2392854"><ele>677.0</ele><time>2026-05-01T08:44:44.466Z</time></trkpt><trkpt lat="43.2417447" lon="12.2393914"><ele>677.0</ele><time>2026-05-01T08:44:45.467Z</time></trkpt><trkpt lat="43.2416269" lon="12.2394983"><ele>677.0</ele><time>2026-05-01T08:44:46.466Z</time></trkpt><trkpt lat="43.2415062" lon="12.2395988"><ele>677.0</ele><time>2026-05-01T08:44:47.467Z</time></trkpt><trkpt lat="43.2413828" lon="12.239695"><ele>677.5</ele><time>2026-05-01T08:44:48.466Z</time></trkpt><trkpt lat="43.2412714" lon="12.2397853"><ele>678.0</ele><time>2026-05-01T08:44:49.467Z</time></trkpt><trkpt lat="43.2411658" lon="12.2398755"><ele>678.5</ele><time>2026-05-01T08:44:50.466Z</time></trkpt><trkpt lat="43.2410611" lon="12.2399694"><ele>679.0</ele><time>2026-05-01T08:44:51.466Z</time></trkpt><trkpt lat="43.2409607" lon="12.240067"><ele>679.0</ele><time>2026-05-01T08:44:52.467Z</time></trkpt><trkpt lat="43.2408741" lon="12.2401897"><ele>679.0</ele><time>2026-05-01T08:44:53.467Z</time></trkpt><trkpt lat="43.2408076" lon="12.2403509"><ele>679.0</ele><time>2026-05-01T08:44:54.467Z</time></trkpt><trkpt lat="43.2407606" lon="12.240533"><ele>679.0</ele><time>2026-05-01T08:44:55.467Z</time></trkpt><trkpt lat="43.2407169" lon="12.2407124"><ele>679.25</ele><time>2026-05-01T08:44:56.466Z</time></trkpt><trkpt lat="43.2406687" lon="12.2408864"><ele>679.5</ele><time>2026-05-01T08:44:57.467Z</time></trkpt><trkpt lat="43.2406184" lon="12.2410567"><ele>679.75</ele><time>2026-05-01T08:44:58.467Z</time></trkpt><trkpt lat="43.2405692" lon="12.2412217"><ele>680.0</ele><time>2026-05-01T08:44:59.467Z</time></trkpt><trkpt lat="43.2405248" lon="12.2413741"><ele>682.1666666666666</ele><time>2026-05-01T08:45:00.467Z</time></trkpt><trkpt lat="43.2404866" lon="12.2415029"><ele>684.3333333333333</ele><time>2026-05-01T08:45:01.467Z</time></trkpt><trkpt lat="43.2404536" lon="12.2416164"><ele>686.5</ele><time>2026-05-01T08:45:02.466Z</time></trkpt><trkpt lat="43.2404291" lon="12.2417265"><ele>688.6666666666666</ele><time>2026-05-01T08:45:03.466Z</time></trkpt><trkpt lat="43.2404057" lon="12.2418438"><ele>690.8333333333334</ele><time>2026-05-01T08:45:04.467Z</time></trkpt><trkpt lat="43.240398" lon="12.241955"><ele>693.0</ele><time>2026-05-01T08:45:05.467Z</time></trkpt><trkpt lat="43.2404078" lon="12.2420589"><ele>693.0</ele><time>2026-05-01T08:45:06.467Z</time></trkpt><trkpt lat="43.2404239" lon="12.2421552"><ele>693.0</ele><time>2026-05-01T08:45:07.467Z</time></trkpt><trkpt lat="43.2404948" lon="12.2423032"><ele>693.0</ele><time>2026-05-01T08:45:09.467Z</time></trkpt><trkpt lat="43.2405667" lon="12.2423664"><ele>693.0</ele><time>2026-05-01T08:45:10.467Z</time></trkpt><trkpt lat="43.2406619" lon="12.2424164"><ele>693.0</ele><time>2026-05-01T08:45:11.467Z</time></trkpt><trkpt lat="43.2407692" lon="12.2424649"><ele>694.5</ele><time>2026-05-01T08:45:12.467Z</time></trkpt><trkpt lat="43.2408817" lon="12.2425022"><ele>696.0</ele><time>2026-05-01T08:45:13.467Z</time></trkpt><trkpt lat="43.2409948" lon="12.2425284"><ele>697.5</ele><time>2026-05-01T08:45:14.467Z</time></trkpt><trkpt lat="43.2411136" lon="12.2425297"><ele>699.0</ele><time>2026-05-01T08:45:15.467Z</time></trkpt><trkpt lat="43.2412352" lon="12.242487"><ele>699.0</ele><time>2026-05-01T08:45:16.466Z</time></trkpt><trkpt lat="43.2413475" lon="12.2424314"><ele>699.0</ele><time>2026-05-01T08:45:17.467Z</time></trkpt><trkpt lat="43.2414588" lon="12.2423651"><ele>699.0</ele><time>2026-05-01T08:45:18.466Z</time></trkpt><trkpt lat="43.2415568" lon="12.2423314"><ele>699.0</ele><time>2026-05-01T08:45:19.467Z</time></trkpt><trkpt lat="43.2416499" lon="12.2423331"><ele>699.0</ele><time>2026-05-01T08:45:20.467Z</time></trkpt><trkpt lat="43.241743" lon="12.2423562"><ele>698.2</ele><time>2026-05-01T08:45:21.467Z</time></trkpt><trkpt lat="43.241831" lon="12.2423918"><ele>697.4000000000001</ele><time>2026-05-01T08:45:22.466Z</time></trkpt><trkpt lat="43.2419075" lon="12.2424556"><ele>696.6</ele><time>2026-05-01T08:45:23.467Z</time></trkpt><trkpt lat="43.2419888" lon="12.2425165"><ele>695.8</ele><time>2026-05-01T08:45:24.467Z</time></trkpt><trkpt lat="43.2420716" lon="12.2425869"><ele>695.0</ele><time>2026-05-01T08:45:25.467Z</time></trkpt><trkpt lat="43.2421525" lon="12.2426702"><ele>695.0</ele><time>2026-05-01T08:45:26.467Z</time></trkpt><trkpt lat="43.2422409" lon="12.2427531"><ele>695.0</ele><time>2026-05-01T08:45:27.467Z</time></trkpt><trkpt lat="43.2423182" lon="12.2428464"><ele>695.0</ele><time>2026-05-01T08:45:28.466Z</time></trkpt><trkpt lat="43.2423994" lon="12.2429091"><ele>695.0</ele><time>2026-05-01T08:45:29.467Z</time></trkpt><trkpt lat="43.242491" lon="12.2429656"><ele>695.0</ele><time>2026-05-01T08:45:30.467Z</time></trkpt><trkpt lat="43.2425869" lon="12.2430123"><ele>693.2</ele><time>2026-05-01T08:45:31.467Z</time></trkpt><trkpt lat="43.2426902" lon="12.2430382"><ele>691.4</ele><time>2026-05-01T08:45:32.466Z</time></trkpt><trkpt lat="43.2427838" lon="12.2430626"><ele>689.5999999999999</ele><time>2026-05-01T08:45:33.467Z</time></trkpt><trkpt lat="43.2428792" lon="12.243086"><ele>687.8</ele><time>2026-05-01T08:45:34.467Z</time></trkpt><trkpt lat="43.2429681" lon="12.2431192"><ele>686.0</ele><time>2026-05-01T08:45:35.467Z</time></trkpt><trkpt lat="43.2430555" lon="12.2431797"><ele>689.4</ele><time>2026-05-01T08:45:36.467Z</time></trkpt><trkpt lat="43.2431346" lon="12.2432683"><ele>692.8</ele><time>2026-05-01T08:45:37.466Z</time></trkpt><trkpt lat="43.2431968" lon="12.2433758"><ele>696.1999999999999</ele><time>2026-05-01T08:45:38.467Z</time></trkpt><trkpt lat="43.243236" lon="12.2435157"><ele>699.5999999999999</ele><time>2026-05-01T08:45:39.467Z</time></trkpt><trkpt lat="43.2432744" lon="12.2436487"><ele>703.0</ele><time>2026-05-01T08:45:40.467Z</time></trkpt><trkpt lat="43.2433147" lon="12.2437921"><ele>703.0</ele><time>2026-05-01T08:45:41.467Z</time></trkpt><trkpt lat="43.2433577" lon="12.2439264"><ele>703.0</ele><time>2026-05-01T08:45:42.467Z</time></trkpt><trkpt lat="43.2434032" lon="12.244061"><ele>703.0</ele><time>2026-05-01T08:45:43.466Z</time></trkpt><trkpt lat="43.2434413" lon="12.2441867"><ele>703.0</ele><time>2026-05-01T08:45:44.467Z</time></trkpt><trkpt lat="43.2434946" lon="12.2443089"><ele>703.0</ele><time>2026-05-01T08:45:45.467Z</time></trkpt><trkpt lat="43.243561" lon="12.2444174"><ele>699.8</ele><time>2026-05-01T08:45:46.467Z</time></trkpt><trkpt lat="43.2436296" lon="12.2445231"><ele>696.5999999999999</ele><time>2026-05-01T08:45:47.466Z</time></trkpt><trkpt lat="43.2437099" lon="12.2446141"><ele>693.4000000000001</ele><time>2026-05-01T08:45:48.467Z</time></trkpt><trkpt lat="43.2437892" lon="12.2446887"><ele>690.2</ele><time>2026-05-01T08:45:49.467Z</time></trkpt><trkpt lat="43.2438682" lon="12.2447568"><ele>687.0</ele><time>2026-05-01T08:45:50.467Z</time></trkpt><trkpt lat="43.2439389" lon="12.2448105"><ele>685.3333333333334</ele><time>2026-05-01T08:45:51.466Z</time></trkpt><trkpt lat="43.2440129" lon="12.2448498"><ele>683.6666666666666</ele><time>2026-05-01T08:45:52.467Z</time></trkpt><trkpt lat="43.2440764" lon="12.2448774"><ele>682.0</ele><time>2026-05-01T08:45:53.466Z</time></trkpt><trkpt lat="43.2441519" lon="12.2448859"><ele>680.3333333333333</ele><time>2026-05-01T08:45:54.466Z</time></trkpt><trkpt lat="43.2442352" lon="12.2448659"><ele>678.6666666666666</ele><time>2026-05-01T08:45:55.467Z</time></trkpt><trkpt lat="43.2443129" lon="12.2448312"><ele>677.0</ele><time>2026-05-01T08:45:56.467Z</time></trkpt><trkpt lat="43.2443869" lon="12.2447628"><ele>680.8333333333333</ele><time>2026-05-01T08:45:57.467Z</time></trkpt><trkpt lat="43.2444717" lon="12.244682"><ele>684.6666666666666</ele><time>2026-05-01T08:45:58.467Z</time></trkpt><trkpt lat="43.2445393" lon="12.2445913"><ele>688.5</ele><time>2026-05-01T08:45:59.467Z</time></trkpt><trkpt lat="43.2446064" lon="12.2445126"><ele>692.3333333333334</ele><time>2026-05-01T08:46:00.467Z</time></trkpt><trkpt lat="43.2446694" lon="12.2444306"><ele>696.1666666666667</ele><time>2026-05-01T08:46:01.467Z</time></trkpt><trkpt lat="43.2447236" lon="12.2443673"><ele>700.0</ele><time>2026-05-01T08:46:02.467Z</time></trkpt><trkpt lat="43.2447869" lon="12.2443176"><ele>698.8333333333334</ele><time>2026-05-01T08:46:03.467Z</time></trkpt><trkpt lat="43.2448636" lon="12.2442778"><ele>697.6666666666667</ele><time>2026-05-01T08:46:04.467Z</time></trkpt><trkpt lat="43.2449374" lon="12.2442666"><ele>696.5</ele><time>2026-05-01T08:46:05.467Z</time></trkpt><trkpt lat="43.2450193" lon="12.2442633"><ele>695.3333333333334</ele><time>2026-05-01T08:46:06.467Z</time></trkpt><trkpt lat="43.2451227" lon="12.2442971"><ele>694.1666666666666</ele><time>2026-05-01T08:46:07.467Z</time></trkpt><trkpt lat="43.2452169" lon="12.2443571"><ele>693.0</ele><time>2026-05-01T08:46:08.467Z</time></trkpt><trkpt lat="43.2452981" lon="12.2444353"><ele>693.0</ele><time>2026-05-01T08:46:09.467Z</time></trkpt><trkpt lat="43.2453793" lon="12.2445612"><ele>693.0</ele><time>2026-05-01T08:46:10.467Z</time></trkpt><trkpt lat="43.245453" lon="12.2446918"><ele>693.0</ele><time>2026-05-01T08:46:11.467Z</time></trkpt><trkpt lat="43.2455153" lon="12.2448189"><ele>693.0</ele><time>2026-05-01T08:46:12.466Z</time></trkpt><trkpt lat="43.2455776" lon="12.244951"><ele>691.2</ele><time>2026-05-01T08:46:13.467Z</time></trkpt><trkpt lat="43.2456382" lon="12.245069"><ele>689.4</ele><time>2026-05-01T08:46:14.467Z</time></trkpt><trkpt lat="43.2456999" lon="12.2451779"><ele>687.6</ele><time>2026-05-01T08:46:15.467Z</time></trkpt><trkpt lat="43.2457638" lon="12.2452694"><ele>685.8000000000001</ele><time>2026-05-01T08:46:16.466Z</time></trkpt><trkpt lat="43.245839" lon="12.2453513"><ele>684.0</ele><time>2026-05-01T08:46:17.467Z</time></trkpt><trkpt lat="43.2459255" lon="12.2454077"><ele>684.0</ele><time>2026-05-01T08:46:18.467Z</time></trkpt><trkpt lat="43.2460086" lon="12.2454408"><ele>684.0</ele><time>2026-05-01T08:46:19.467Z</time></trkpt><trkpt lat="43.2460953" lon="12.2454854"><ele>684.0</ele><time>2026-05-01T08:46:20.466Z</time></trkpt><trkpt lat="43.2461788" lon="12.2455401"><ele>684.0</ele><time>2026-05-01T08:46:21.467Z</time></trkpt><trkpt lat="43.2462585" lon="12.2456103"><ele>684.0</ele><time>2026-05-01T08:46:22.467Z</time></trkpt><trkpt lat="43.2463286" lon="12.2456958"><ele>682.1666666666666</ele><time>2026-05-01T08:46:23.466Z</time></trkpt><trkpt lat="43.2463847" lon="12.2457842"><ele>680.3333333333334</ele><time>2026-05-01T08:46:24.466Z</time></trkpt><trkpt lat="43.2464489" lon="12.2458646"><ele>678.5</ele><time>2026-05-01T08:46:25.467Z</time></trkpt><trkpt lat="43.2465245" lon="12.2459468"><ele>676.6666666666667</ele><time>2026-05-01T08:46:26.467Z</time></trkpt><trkpt lat="43.2465975" lon="12.2460117"><ele>674.8333333333334</ele><time>2026-05-01T08:46:27.466Z</time></trkpt><trkpt lat="43.2466695" lon="12.2460609"><ele>673.0</ele><time>2026-05-01T08:46:28.467Z</time></trkpt><trkpt lat="43.2467515" lon="12.2460782"><ele>673.0</ele><time>2026-05-01T08:46:29.467Z</time></trkpt><trkpt lat="43.2468304" lon="12.2460642"><ele>673.0</ele><time>2026-05-01T08:46:30.467Z</time></trkpt><trkpt lat="43.2469065" lon="12.2460247"><ele>673.0</ele><time>2026-05-01T08:46:31.467Z</time></trkpt><trkpt lat="43.2470339" lon="12.2459407"><ele>673.0</ele><time>2026-05-01T08:46:33.467Z</time></trkpt><trkpt lat="43.2470943" lon="12.2459061"><ele>673.0</ele><time>2026-05-01T08:46:34.467Z</time></trkpt><trkpt lat="43.247222" lon="12.2458602"><ele>674.0</ele><time>2026-05-01T08:46:36.466Z</time></trkpt><trkpt lat="43.2472988" lon="12.2458555"><ele>675.0</ele><time>2026-05-01T08:46:37.467Z</time></trkpt><trkpt lat="43.2473736" lon="12.2458793"><ele>676.0</ele><time>2026-05-01T08:46:38.466Z</time></trkpt><trkpt lat="43.2474577" lon="12.2459215"><ele>677.0</ele><time>2026-05-01T08:46:39.467Z</time></trkpt><trkpt lat="43.24756" lon="12.2459913"><ele>678.0</ele><time>2026-05-01T08:46:40.467Z</time></trkpt><trkpt lat="43.2476793" lon="12.2460604"><ele>678.0</ele><time>2026-05-01T08:46:41.467Z</time></trkpt><trkpt lat="43.2477903" lon="12.2461292"><ele>678.0</ele><time>2026-05-01T08:46:42.467Z</time></trkpt><trkpt lat="43.247898" lon="12.2462127"><ele>678.0</ele><time>2026-05-01T08:46:43.467Z</time></trkpt><trkpt lat="43.2479864" lon="12.2463106"><ele>678.0</ele><time>2026-05-01T08:46:44.467Z</time></trkpt><trkpt lat="43.2480683" lon="12.2464478"><ele>677.25</ele><time>2026-05-01T08:46:45.467Z</time></trkpt><trkpt lat="43.2481304" lon="12.2465975"><ele>676.5</ele><time>2026-05-01T08:46:46.466Z</time></trkpt><trkpt lat="43.2481701" lon="12.2467616"><ele>675.75</ele><time>2026-05-01T08:46:47.467Z</time></trkpt><trkpt lat="43.2481925" lon="12.2469497"><ele>675.0</ele><time>2026-05-01T08:46:48.467Z</time></trkpt><trkpt lat="43.2481972" lon="12.2471532"><ele>672.25</ele><time>2026-05-01T08:46:49.467Z</time></trkpt><trkpt lat="43.2482078" lon="12.2473518"><ele>669.5</ele><time>2026-05-01T08:46:50.466Z</time></trkpt><trkpt lat="43.248224" lon="12.2475532"><ele>666.75</ele><time>2026-05-01T08:46:51.467Z</time></trkpt><trkpt lat="43.248245" lon="12.2477445"><ele>664.0</ele><time>2026-05-01T08:46:52.466Z</time></trkpt><trkpt lat="43.2482711" lon="12.2479391"><ele>661.75</ele><time>2026-05-01T08:46:53.466Z</time></trkpt><trkpt lat="43.2483143" lon="12.2481281"><ele>659.5</ele><time>2026-05-01T08:46:54.466Z</time></trkpt><trkpt lat="43.2483676" lon="12.24832"><ele>657.25</ele><time>2026-05-01T08:46:55.467Z</time></trkpt><trkpt lat="43.2484405" lon="12.2484691"><ele>655.0</ele><time>2026-05-01T08:46:56.467Z</time></trkpt><trkpt lat="43.2485463" lon="12.2485836"><ele>655.0</ele><time>2026-05-01T08:46:57.467Z</time></trkpt><trkpt lat="43.2486711" lon="12.2487043"><ele>655.0</ele><time>2026-05-01T08:46:58.467Z</time></trkpt><trkpt lat="43.2488002" lon="12.248809"><ele>655.0</ele><time>2026-05-01T08:46:59.466Z</time></trkpt><trkpt lat="43.2489247" lon="12.248915"><ele>655.0</ele><time>2026-05-01T08:47:00.467Z</time></trkpt><trkpt lat="43.2490419" lon="12.2490116"><ele>656.75</ele><time>2026-05-01T08:47:01.467Z</time></trkpt><trkpt lat="43.2491545" lon="12.2491107"><ele>658.5</ele><time>2026-05-01T08:47:02.467Z</time></trkpt><trkpt lat="43.2492647" lon="12.2492224"><ele>660.25</ele><time>2026-05-01T08:47:03.467Z</time></trkpt><trkpt lat="43.2493469" lon="12.2493605"><ele>662.0</ele><time>2026-05-01T08:47:04.467Z</time></trkpt><trkpt lat="43.2494159" lon="12.2495013"><ele>662.0</ele><time>2026-05-01T08:47:05.467Z</time></trkpt><trkpt lat="43.2494777" lon="12.2496473"><ele>662.0</ele><time>2026-05-01T08:47:06.467Z</time></trkpt><trkpt lat="43.2495509" lon="12.2497899"><ele>662.0</ele><time>2026-05-01T08:47:07.467Z</time></trkpt><trkpt lat="43.249623" lon="12.2499168"><ele>662.0</ele><time>2026-05-01T08:47:08.467Z</time></trkpt><trkpt lat="43.249721" lon="12.2500094"><ele>660.0</ele><time>2026-05-01T08:47:09.467Z</time></trkpt><trkpt lat="43.2498459" lon="12.2500788"><ele>658.0</ele><time>2026-05-01T08:47:10.467Z</time></trkpt><trkpt lat="43.2499823" lon="12.2501474"><ele>656.0</ele><time>2026-05-01T08:47:11.467Z</time></trkpt><trkpt lat="43.2501192" lon="12.2501947"><ele>654.0</ele><time>2026-05-01T08:47:12.467Z</time></trkpt><trkpt lat="43.2502715" lon="12.2502186"><ele>654.0</ele><time>2026-05-01T08:47:13.467Z</time></trkpt><trkpt lat="43.250421" lon="12.2502415"><ele>654.0</ele><time>2026-05-01T08:47:14.466Z</time></trkpt><trkpt lat="43.2505608" lon="12.2502917"><ele>654.0</ele><time>2026-05-01T08:47:15.467Z</time></trkpt><trkpt lat="43.2506922" lon="12.250361"><ele>654.0</ele><time>2026-05-01T08:47:16.466Z</time></trkpt><trkpt lat="43.2508069" lon="12.2504677"><ele>655.0</ele><time>2026-05-01T08:47:17.467Z</time></trkpt><trkpt lat="43.2509057" lon="12.2506023"><ele>656.0</ele><time>2026-05-01T08:47:18.467Z</time></trkpt><trkpt lat="43.2509883" lon="12.2507479"><ele>657.0</ele><time>2026-05-01T08:47:19.467Z</time></trkpt><trkpt lat="43.2510822" lon="12.2508879"><ele>658.0</ele><time>2026-05-01T08:47:20.467Z</time></trkpt><trkpt lat="43.2511796" lon="12.2510169"><ele>653.25</ele><time>2026-05-01T08:47:21.467Z</time></trkpt><trkpt lat="43.2512694" lon="12.2511416"><ele>648.5</ele><time>2026-05-01T08:47:22.467Z</time></trkpt><trkpt lat="43.2513375" lon="12.2512784"><ele>643.75</ele><time>2026-05-01T08:47:23.467Z</time></trkpt><trkpt lat="43.2513669" lon="12.2514309"><ele>639.0</ele><time>2026-05-01T08:47:24.467Z</time></trkpt><trkpt lat="43.2513542" lon="12.2515726"><ele>637.2</ele><time>2026-05-01T08:47:25.467Z</time></trkpt><trkpt lat="43.2513236" lon="12.2517073"><ele>635.4</ele><time>2026-05-01T08:47:26.466Z</time></trkpt><trkpt lat="43.2512672" lon="12.2518365"><ele>633.6</ele><time>2026-05-01T08:47:27.467Z</time></trkpt><trkpt lat="43.2512129" lon="12.2519694"><ele>631.8</ele><time>2026-05-01T08:47:28.467Z</time></trkpt><trkpt lat="43.2511949" lon="12.2521209"><ele>630.0</ele><time>2026-05-01T08:47:29.467Z</time></trkpt><trkpt lat="43.2512345" lon="12.252296"><ele>626.75</ele><time>2026-05-01T08:47:30.467Z</time></trkpt><trkpt lat="43.2512945" lon="12.252476"><ele>623.5</ele><time>2026-05-01T08:47:31.467Z</time></trkpt><trkpt lat="43.2513672" lon="12.2526335"><ele>620.25</ele><time>2026-05-01T08:47:32.467Z</time></trkpt><trkpt lat="43.2514666" lon="12.252788"><ele>617.0</ele><time>2026-05-01T08:47:33.467Z</time></trkpt><trkpt lat="43.2515566" lon="12.2529418"><ele>621.0</ele><time>2026-05-01T08:47:34.467Z</time></trkpt><trkpt lat="43.2516248" lon="12.2531026"><ele>625.0</ele><time>2026-05-01T08:47:35.466Z</time></trkpt><trkpt lat="43.2516735" lon="12.2532653"><ele>629.0</ele><time>2026-05-01T08:47:36.467Z</time></trkpt><trkpt lat="43.2517192" lon="12.2534141"><ele>633.0</ele><time>2026-05-01T08:47:37.467Z</time></trkpt><trkpt lat="43.2517733" lon="12.2535446"><ele>633.0</ele><time>2026-05-01T08:47:38.466Z</time></trkpt><trkpt lat="43.2518351" lon="12.253679"><ele>633.0</ele><time>2026-05-01T08:47:39.466Z</time></trkpt><trkpt lat="43.2519389" lon="12.253739"><ele>633.0</ele><time>2026-05-01T08:47:40.467Z</time></trkpt><trkpt lat="43.2520682" lon="12.2537743"><ele>633.0</ele><time>2026-05-01T08:47:41.467Z</time></trkpt><trkpt lat="43.2521936" lon="12.2538318"><ele>633.0</ele><time>2026-05-01T08:47:42.467Z</time></trkpt><trkpt lat="43.2522993" lon="12.2539203"><ele>633.0</ele><time>2026-05-01T08:47:43.466Z</time></trkpt><trkpt lat="43.2524067" lon="12.2540142"><ele>633.0</ele><time>2026-05-01T08:47:44.467Z</time></trkpt><trkpt lat="43.2524954" lon="12.2541745"><ele>633.0</ele><time>2026-05-01T08:47:45.467Z</time></trkpt><trkpt lat="43.2525854" lon="12.2543309"><ele>633.0</ele><time>2026-05-01T08:47:46.467Z</time></trkpt><trkpt lat="43.2526813" lon="12.254486"><ele>633.0</ele><time>2026-05-01T08:47:47.466Z</time></trkpt><trkpt lat="43.2527864" lon="12.2546311"><ele>633.0</ele><time>2026-05-01T08:47:48.466Z</time></trkpt><trkpt lat="43.25289" lon="12.2547816"><ele>633.0</ele><time>2026-05-01T08:47:49.467Z</time></trkpt><trkpt lat="43.252991" lon="12.2549262"><ele>630.75</ele><time>2026-05-01T08:47:50.467Z</time></trkpt><trkpt lat="43.2531083" lon="12.2550378"><ele>628.5</ele><time>2026-05-01T08:47:51.466Z</time></trkpt><trkpt lat="43.2532506" lon="12.2551073"><ele>626.25</ele><time>2026-05-01T08:47:52.467Z</time></trkpt><trkpt lat="43.2533946" lon="12.2551669"><ele>624.0</ele><time>2026-05-01T08:47:53.467Z</time></trkpt><trkpt lat="43.2535351" lon="12.2552382"><ele>624.0</ele><time>2026-05-01T08:47:54.467Z</time></trkpt><trkpt lat="43.2536746" lon="12.2553223"><ele>624.0</ele><time>2026-05-01T08:47:55.467Z</time></trkpt><trkpt lat="43.2538053" lon="12.255433"><ele>624.0</ele><time>2026-05-01T08:47:56.467Z</time></trkpt><trkpt lat="43.2539208" lon="12.2555894"><ele>621.3333333333334</ele><time>2026-05-01T08:47:57.467Z</time></trkpt><trkpt lat="43.2540301" lon="12.2557823"><ele>618.6666666666667</ele><time>2026-05-01T08:47:58.467Z</time></trkpt><trkpt lat="43.2541543" lon="12.2559745"><ele>616.0</ele><time>2026-05-01T08:47:59.466Z</time></trkpt><trkpt lat="43.2542689" lon="12.2561653"><ele>616.0</ele><time>2026-05-01T08:48:00.466Z</time></trkpt><trkpt lat="43.254384" lon="12.2563422"><ele>616.0</ele><time>2026-05-01T08:48:01.467Z</time></trkpt><trkpt lat="43.2544957" lon="12.2565247"><ele>616.0</ele><time>2026-05-01T08:48:02.467Z</time></trkpt><trkpt lat="43.2546001" lon="12.2567068"><ele>613.3333333333334</ele><time>2026-05-01T08:48:03.467Z</time></trkpt><trkpt lat="43.2547079" lon="12.2568859"><ele>610.6666666666666</ele><time>2026-05-01T08:48:04.467Z</time></trkpt><trkpt lat="43.2548159" lon="12.2570674"><ele>608.0</ele><time>2026-05-01T08:48:05.467Z</time></trkpt><trkpt lat="43.2549313" lon="12.2572554"><ele>606.6666666666666</ele><time>2026-05-01T08:48:06.467Z</time></trkpt><trkpt lat="43.2550512" lon="12.2574406"><ele>605.3333333333334</ele><time>2026-05-01T08:48:07.467Z</time></trkpt><trkpt lat="43.2551597" lon="12.257626"><ele>604.0</ele><time>2026-05-01T08:48:08.467Z</time></trkpt><trkpt lat="43.2552697" lon="12.2577993"><ele>604.0</ele><time>2026-05-01T08:48:09.467Z</time></trkpt><trkpt lat="43.2553742" lon="12.257968"><ele>604.0</ele><time>2026-05-01T08:48:10.466Z</time></trkpt><trkpt lat="43.255474" lon="12.2581319"><ele>604.0</ele><time>2026-05-01T08:48:11.467Z</time></trkpt><trkpt lat="43.2555692" lon="12.2582944"><ele>606.0</ele><time>2026-05-01T08:48:12.467Z</time></trkpt><trkpt lat="43.255647" lon="12.2584486"><ele>608.0</ele><time>2026-05-01T08:48:13.467Z</time></trkpt><trkpt lat="43.2556884" lon="12.2586155"><ele>610.0</ele><time>2026-05-01T08:48:14.467Z</time></trkpt><trkpt lat="43.2557069" lon="12.258795"><ele>612.0</ele><time>2026-05-01T08:48:15.467Z</time></trkpt><trkpt lat="43.2556666" lon="12.2589449"><ele>612.6</ele><time>2026-05-01T08:48:16.467Z</time></trkpt><trkpt lat="43.2556226" lon="12.2590847"><ele>613.2</ele><time>2026-05-01T08:48:17.466Z</time></trkpt><trkpt lat="43.2555579" lon="12.2592168"><ele>613.8</ele><time>2026-05-01T08:48:18.467Z</time></trkpt><trkpt lat="43.2554749" lon="12.2593109"><ele>614.4</ele><time>2026-05-01T08:48:19.467Z</time></trkpt><trkpt lat="43.2553983" lon="12.2593966"><ele>615.0</ele><time>2026-05-01T08:48:20.466Z</time></trkpt><trkpt lat="43.2553179" lon="12.2594894"><ele>610.4</ele><time>2026-05-01T08:48:21.466Z</time></trkpt><trkpt lat="43.2552313" lon="12.2595875"><ele>605.8</ele><time>2026-05-01T08:48:22.467Z</time></trkpt><trkpt lat="43.25515" lon="12.2596834"><ele>601.2</ele><time>2026-05-01T08:48:23.466Z</time></trkpt><trkpt lat="43.2550979" lon="12.2598107"><ele>596.6</ele><time>2026-05-01T08:48:24.467Z</time></trkpt><trkpt lat="43.2550854" lon="12.2599537"><ele>592.0</ele><time>2026-05-01T08:48:25.467Z</time></trkpt><trkpt lat="43.2551043" lon="12.2601089"><ele>592.0</ele><time>2026-05-01T08:48:26.467Z</time></trkpt><trkpt lat="43.2551122" lon="12.2602547"><ele>592.0</ele><time>2026-05-01T08:48:27.466Z</time></trkpt><trkpt lat="43.2551124" lon="12.2604041"><ele>592.0</ele><time>2026-05-01T08:48:28.467Z</time></trkpt><trkpt lat="43.2550724" lon="12.2605553"><ele>592.0</ele><time>2026-05-01T08:48:29.467Z</time></trkpt><trkpt lat="43.2549984" lon="12.2607072"><ele>595.0</ele><time>2026-05-01T08:48:30.467Z</time></trkpt><trkpt lat="43.2549119" lon="12.2608317"><ele>598.0</ele><time>2026-05-01T08:48:31.467Z</time></trkpt><trkpt lat="43.2548207" lon="12.2609527"><ele>601.0</ele><time>2026-05-01T08:48:32.466Z</time></trkpt><trkpt lat="43.2547417" lon="12.2610687"><ele>604.0</ele><time>2026-05-01T08:48:33.467Z</time></trkpt><trkpt lat="43.2546657" lon="12.2611957"><ele>596.5</ele><time>2026-05-01T08:48:34.466Z</time></trkpt><trkpt lat="43.2545945" lon="12.2613269"><ele>589.0</ele><time>2026-05-01T08:48:35.467Z</time></trkpt><trkpt lat="43.254537" lon="12.2614758"><ele>581.5</ele><time>2026-05-01T08:48:36.467Z</time></trkpt><trkpt lat="43.2544967" lon="12.2616437"><ele>574.0</ele><time>2026-05-01T08:48:37.467Z</time></trkpt><trkpt lat="43.254475" lon="12.2618238"><ele>574.0</ele><time>2026-05-01T08:48:38.467Z</time></trkpt><trkpt lat="43.2544579" lon="12.2620017"><ele>574.0</ele><time>2026-05-01T08:48:39.467Z</time></trkpt><trkpt lat="43.2544354" lon="12.2621857"><ele>574.0</ele><time>2026-05-01T08:48:40.467Z</time></trkpt><trkpt lat="43.2544154" lon="12.2623525"><ele>574.0</ele><time>2026-05-01T08:48:41.467Z</time></trkpt><trkpt lat="43.2544151" lon="12.2624975"><ele>573.5</ele><time>2026-05-01T08:48:42.467Z</time></trkpt><trkpt lat="43.254459" lon="12.2626501"><ele>573.0</ele><time>2026-05-01T08:48:43.467Z</time></trkpt><trkpt lat="43.254568" lon="12.2627695"><ele>572.5</ele><time>2026-05-01T08:48:44.467Z</time></trkpt><trkpt lat="43.254696" lon="12.2628675"><ele>572.0</ele><time>2026-05-01T08:48:45.466Z</time></trkpt><trkpt lat="43.2548319" lon="12.2629479"><ele>573.3333333333333</ele><time>2026-05-01T08:48:46.467Z</time></trkpt><trkpt lat="43.2549712" lon="12.2630329"><ele>574.6666666666666</ele><time>2026-05-01T08:48:47.466Z</time></trkpt><trkpt lat="43.2551098" lon="12.2631121"><ele>576.0</ele><time>2026-05-01T08:48:48.467Z</time></trkpt><trkpt lat="43.2552603" lon="12.263166"><ele>576.0</ele><time>2026-05-01T08:48:49.466Z</time></trkpt><trkpt lat="43.2554238" lon="12.2631998"><ele>576.0</ele><time>2026-05-01T08:48:50.467Z</time></trkpt><trkpt lat="43.2555841" lon="12.2632172"><ele>576.0</ele><time>2026-05-01T08:48:51.467Z</time></trkpt><trkpt lat="43.2557363" lon="12.2632323"><ele>578.0</ele><time>2026-05-01T08:48:52.467Z</time></trkpt><trkpt lat="43.2558658" lon="12.2632739"><ele>580.0</ele><time>2026-05-01T08:48:53.467Z</time></trkpt><trkpt lat="43.2559774" lon="12.2633843"><ele>582.0</ele><time>2026-05-01T08:48:54.467Z</time></trkpt><trkpt lat="43.2560541" lon="12.2635443"><ele>584.0</ele><time>2026-05-01T08:48:55.466Z</time></trkpt><trkpt lat="43.2561106" lon="12.2637167"><ele>584.0</ele><time>2026-05-01T08:48:56.467Z</time></trkpt><trkpt lat="43.2561481" lon="12.2638914"><ele>584.0</ele><time>2026-05-01T08:48:57.467Z</time></trkpt><trkpt lat="43.2561821" lon="12.2640594"><ele>584.0</ele><time>2026-05-01T08:48:58.467Z</time></trkpt><trkpt lat="43.2562331" lon="12.2642262"><ele>584.0</ele><time>2026-05-01T08:48:59.467Z</time></trkpt><trkpt lat="43.2563059" lon="12.2643802"><ele>580.3333333333333</ele><time>2026-05-01T08:49:00.467Z</time></trkpt><trkpt lat="43.2564049" lon="12.264528"><ele>576.6666666666666</ele><time>2026-05-01T08:49:01.467Z</time></trkpt><trkpt lat="43.2565194" lon="12.2646741"><ele>573.0</ele><time>2026-05-01T08:49:02.467Z</time></trkpt><trkpt lat="43.2566354" lon="12.2648305"><ele>573.0</ele><time>2026-05-01T08:49:03.467Z</time></trkpt><trkpt lat="43.2567135" lon="12.2649973"><ele>573.0</ele><time>2026-05-01T08:49:04.467Z</time></trkpt><trkpt lat="43.2567583" lon="12.26519"><ele>573.0</ele><time>2026-05-01T08:49:05.466Z</time></trkpt><trkpt lat="43.2567608" lon="12.265402"><ele>573.0</ele><time>2026-05-01T08:49:06.466Z</time></trkpt><trkpt lat="43.256731" lon="12.2656211"><ele>573.0</ele><time>2026-05-01T08:49:07.467Z</time></trkpt><trkpt lat="43.2566804" lon="12.2658211"><ele>573.0</ele><time>2026-05-01T08:49:08.466Z</time></trkpt><trkpt lat="43.2566418" lon="12.2660056"><ele>573.0</ele><time>2026-05-01T08:49:09.467Z</time></trkpt><trkpt lat="43.256606" lon="12.2661639"><ele>573.0</ele><time>2026-05-01T08:49:10.467Z</time></trkpt><trkpt lat="43.2565859" lon="12.2663113"><ele>573.5</ele><time>2026-05-01T08:49:11.467Z</time></trkpt><trkpt lat="43.2565856" lon="12.2664618"><ele>574.0</ele><time>2026-05-01T08:49:12.467Z</time></trkpt><trkpt lat="43.2566084" lon="12.2666162"><ele>574.5</ele><time>2026-05-01T08:49:13.467Z</time></trkpt><trkpt lat="43.2566561" lon="12.2667601"><ele>575.0</ele><time>2026-05-01T08:49:14.467Z</time></trkpt><trkpt lat="43.2567368" lon="12.2668735"><ele>575.0</ele><time>2026-05-01T08:49:15.467Z</time></trkpt><trkpt lat="43.256849" lon="12.2669669"><ele>575.0</ele><time>2026-05-01T08:49:16.467Z</time></trkpt><trkpt lat="43.256978" lon="12.26704"><ele>575.0</ele><time>2026-05-01T08:49:17.467Z</time></trkpt><trkpt lat="43.2571127" lon="12.2671306"><ele>575.0</ele><time>2026-05-01T08:49:18.466Z</time></trkpt><trkpt lat="43.2572395" lon="12.2672263"><ele>575.5</ele><time>2026-05-01T08:49:19.466Z</time></trkpt><trkpt lat="43.2573612" lon="12.267344"><ele>576.0</ele><time>2026-05-01T08:49:20.467Z</time></trkpt><trkpt lat="43.2574603" lon="12.267493"><ele>576.5</ele><time>2026-05-01T08:49:21.467Z</time></trkpt><trkpt lat="43.2575218" lon="12.2676764"><ele>577.0</ele><time>2026-05-01T08:49:22.467Z</time></trkpt><trkpt lat="43.2575966" lon="12.2678626"><ele>577.0</ele><time>2026-05-01T08:49:23.467Z</time></trkpt><trkpt lat="43.2576748" lon="12.2680224"><ele>577.0</ele><time>2026-05-01T08:49:24.467Z</time></trkpt><trkpt lat="43.257764" lon="12.2681587"><ele>577.0</ele><time>2026-05-01T08:49:25.467Z</time></trkpt><trkpt lat="43.2578658" lon="12.2682898"><ele>577.0</ele><time>2026-05-01T08:49:26.467Z</time></trkpt><trkpt lat="43.2579916" lon="12.2683501"><ele>579.6666666666667</ele><time>2026-05-01T08:49:27.467Z</time></trkpt><trkpt lat="43.25815" lon="12.2684017"><ele>582.3333333333334</ele><time>2026-05-01T08:49:28.467Z</time></trkpt><trkpt lat="43.2583141" lon="12.2684599"><ele>585.0</ele><time>2026-05-01T08:49:29.467Z</time></trkpt><trkpt lat="43.2584838" lon="12.2685063"><ele>585.0</ele><time>2026-05-01T08:49:30.467Z</time></trkpt><trkpt lat="43.2586561" lon="12.2685505"><ele>585.0</ele><time>2026-05-01T08:49:31.467Z</time></trkpt><trkpt lat="43.2588277" lon="12.2685961"><ele>585.0</ele><time>2026-05-01T08:49:32.467Z</time></trkpt><trkpt lat="43.2589957" lon="12.2686369"><ele>586.0</ele><time>2026-05-01T08:49:33.467Z</time></trkpt><trkpt lat="43.2591594" lon="12.2686736"><ele>587.0</ele><time>2026-05-01T08:49:34.466Z</time></trkpt><trkpt lat="43.2593235" lon="12.2687278"><ele>588.0</ele><time>2026-05-01T08:49:35.467Z</time></trkpt><trkpt lat="43.2594778" lon="12.2688126"><ele>588.0</ele><time>2026-05-01T08:49:36.466Z</time></trkpt><trkpt lat="43.2596276" lon="12.2689033"><ele>588.0</ele><time>2026-05-01T08:49:37.466Z</time></trkpt><trkpt lat="43.2597638" lon="12.2689974"><ele>588.0</ele><time>2026-05-01T08:49:38.467Z</time></trkpt><trkpt lat="43.2599027" lon="12.2690781"><ele>592.3333333333334</ele><time>2026-05-01T08:49:39.467Z</time></trkpt><trkpt lat="43.2600564" lon="12.2691332"><ele>596.6666666666667</ele><time>2026-05-01T08:49:40.467Z</time></trkpt><trkpt lat="43.2602211" lon="12.2691371"><ele>601.0</ele><time>2026-05-01T08:49:41.466Z</time></trkpt><trkpt lat="43.2603906" lon="12.2691229"><ele>601.0</ele><time>2026-05-01T08:49:42.467Z</time></trkpt><trkpt lat="43.2605477" lon="12.269115"><ele>601.0</ele><time>2026-05-01T08:49:43.467Z</time></trkpt><trkpt lat="43.260691" lon="12.2691075"><ele>601.0</ele><time>2026-05-01T08:49:44.467Z</time></trkpt><trkpt lat="43.2608104" lon="12.269106"><ele>601.0</ele><time>2026-05-01T08:49:45.467Z</time></trkpt><trkpt lat="43.2609196" lon="12.2691137"><ele>601.5</ele><time>2026-05-01T08:49:46.466Z</time></trkpt><trkpt lat="43.2610221" lon="12.2691569"><ele>602.0</ele><time>2026-05-01T08:49:47.467Z</time></trkpt><trkpt lat="43.2611034" lon="12.2692804"><ele>602.5</ele><time>2026-05-01T08:49:48.466Z</time></trkpt><trkpt lat="43.2611668" lon="12.2694304"><ele>603.0</ele><time>2026-05-01T08:49:49.467Z</time></trkpt><trkpt lat="43.2611962" lon="12.2695972"><ele>604.75</ele><time>2026-05-01T08:49:50.467Z</time></trkpt><trkpt lat="43.2611945" lon="12.2697896"><ele>606.5</ele><time>2026-05-01T08:49:51.467Z</time></trkpt><trkpt lat="43.261193" lon="12.2699986"><ele>608.25</ele><time>2026-05-01T08:49:52.467Z</time></trkpt><trkpt lat="43.2612206" lon="12.2702105"><ele>610.0</ele><time>2026-05-01T08:49:53.467Z</time></trkpt><trkpt lat="43.2612813" lon="12.2703796"><ele>610.0</ele><time>2026-05-01T08:49:54.467Z</time></trkpt><trkpt lat="43.2613315" lon="12.2705402"><ele>610.0</ele><time>2026-05-01T08:49:55.467Z</time></trkpt><trkpt lat="43.2613511" lon="12.2707117"><ele>610.0</ele><time>2026-05-01T08:49:56.467Z</time></trkpt><trkpt lat="43.2613407" lon="12.2708923"><ele>610.0</ele><time>2026-05-01T08:49:57.467Z</time></trkpt><trkpt lat="43.2613099" lon="12.2710736"><ele>611.5</ele><time>2026-05-01T08:49:58.467Z</time></trkpt><trkpt lat="43.2612684" lon="12.2712632"><ele>613.0</ele><time>2026-05-01T08:49:59.467Z</time></trkpt><trkpt lat="43.261227" lon="12.2714543"><ele>614.5</ele><time>2026-05-01T08:50:00.466Z</time></trkpt><trkpt lat="43.2611914" lon="12.2716421"><ele>616.0</ele><time>2026-05-01T08:50:01.467Z</time></trkpt><trkpt lat="43.2611675" lon="12.2718312"><ele>618.5</ele><time>2026-05-01T08:50:02.467Z</time></trkpt><trkpt lat="43.2611752" lon="12.2720232"><ele>621.0</ele><time>2026-05-01T08:50:03.467Z</time></trkpt><trkpt lat="43.2612013" lon="12.2722049"><ele>623.5</ele><time>2026-05-01T08:50:04.467Z</time></trkpt><trkpt lat="43.2612395" lon="12.2723795"><ele>626.0</ele><time>2026-05-01T08:50:05.466Z</time></trkpt><trkpt lat="43.261265" lon="12.2725538"><ele>626.25</ele><time>2026-05-01T08:50:06.467Z</time></trkpt><trkpt lat="43.2612736" lon="12.2727395"><ele>626.5</ele><time>2026-05-01T08:50:07.467Z</time></trkpt><trkpt lat="43.2612621" lon="12.2729321"><ele>626.75</ele><time>2026-05-01T08:50:08.467Z</time></trkpt><trkpt lat="43.2612313" lon="12.27311"><ele>627.0</ele><time>2026-05-01T08:50:09.467Z</time></trkpt><trkpt lat="43.2611821" lon="12.2732917"><ele>627.0</ele><time>2026-05-01T08:50:10.466Z</time></trkpt><trkpt lat="43.2611241" lon="12.2734858"><ele>627.0</ele><time>2026-05-01T08:50:11.467Z</time></trkpt><trkpt lat="43.2610789" lon="12.2736745"><ele>627.0</ele><time>2026-05-01T08:50:12.466Z</time></trkpt><trkpt lat="43.2610489" lon="12.2738701"><ele>627.0</ele><time>2026-05-01T08:50:13.466Z</time></trkpt><trkpt lat="43.2610474" lon="12.2740629"><ele>627.0</ele><time>2026-05-01T08:50:14.467Z</time></trkpt><trkpt lat="43.2610625" lon="12.2742691"><ele>627.0</ele><time>2026-05-01T08:50:15.467Z</time></trkpt><trkpt lat="43.261095" lon="12.274464"><ele>627.0</ele><time>2026-05-01T08:50:16.467Z</time></trkpt><trkpt lat="43.2611376" lon="12.2746502"><ele>627.0</ele><time>2026-05-01T08:50:17.466Z</time></trkpt><trkpt lat="43.2612116" lon="12.274816"><ele>627.75</ele><time>2026-05-01T08:50:18.467Z</time></trkpt><trkpt lat="43.2612888" lon="12.2749695"><ele>628.5</ele><time>2026-05-01T08:50:19.467Z</time></trkpt><trkpt lat="43.2613701" lon="12.2751058"><ele>629.25</ele><time>2026-05-01T08:50:20.467Z</time></trkpt><trkpt lat="43.2614748" lon="12.2752384"><ele>630.0</ele><time>2026-05-01T08:50:21.466Z</time></trkpt><trkpt lat="43.2615947" lon="12.2753108"><ele>630.0</ele><time>2026-05-01T08:50:22.467Z</time></trkpt><trkpt lat="43.2617414" lon="12.2752704"><ele>630.0</ele><time>2026-05-01T08:50:23.467Z</time></trkpt><trkpt lat="43.261883" lon="12.2751746"><ele>630.0</ele><time>2026-05-01T08:50:24.466Z</time></trkpt><trkpt lat="43.2620193" lon="12.2750876"><ele>630.0</ele><time>2026-05-01T08:50:25.467Z</time></trkpt><trkpt lat="43.2621389" lon="12.2750075"><ele>630.0</ele><time>2026-05-01T08:50:26.467Z</time></trkpt><trkpt lat="43.2622565" lon="12.2749342"><ele>630.0</ele><time>2026-05-01T08:50:27.467Z</time></trkpt><trkpt lat="43.2623743" lon="12.2748756"><ele>630.0</ele><time>2026-05-01T08:50:28.466Z</time></trkpt><trkpt lat="43.2624921" lon="12.2748409"><ele>631.25</ele><time>2026-05-01T08:50:29.467Z</time></trkpt><trkpt lat="43.2626322" lon="12.2748276"><ele>632.5</ele><time>2026-05-01T08:50:30.467Z</time></trkpt><trkpt lat="43.2627793" lon="12.2748109"><ele>633.75</ele><time>2026-05-01T08:50:31.467Z</time></trkpt><trkpt lat="43.2629197" lon="12.2747846"><ele>635.0</ele><time>2026-05-01T08:50:32.467Z</time></trkpt><trkpt lat="43.2630544" lon="12.274771"><ele>635.0</ele><time>2026-05-01T08:50:33.467Z</time></trkpt><trkpt lat="43.26317" lon="12.2747562"><ele>635.0</ele><time>2026-05-01T08:50:34.466Z</time></trkpt><trkpt lat="43.2632702" lon="12.2747681"><ele>635.0</ele><time>2026-05-01T08:50:35.467Z</time></trkpt><trkpt lat="43.2633569" lon="12.2748506"><ele>635.0</ele><time>2026-05-01T08:50:36.467Z</time></trkpt><trkpt lat="43.2634399" lon="12.2749458"><ele>635.0</ele><time>2026-05-01T08:50:37.467Z</time></trkpt><trkpt lat="43.2635215" lon="12.2750629"><ele>635.0</ele><time>2026-05-01T08:50:38.466Z</time></trkpt><trkpt lat="43.2635992" lon="12.2751903"><ele>635.0</ele><time>2026-05-01T08:50:39.467Z</time></trkpt><trkpt lat="43.2636696" lon="12.2753448"><ele>635.0</ele><time>2026-05-01T08:50:40.466Z</time></trkpt><trkpt lat="43.2637262" lon="12.2755067"><ele>635.0</ele><time>2026-05-01T08:50:41.466Z</time></trkpt><trkpt lat="43.2637774" lon="12.2756597"><ele>638.2</ele><time>2026-05-01T08:50:42.467Z</time></trkpt><trkpt lat="43.2638202" lon="12.2757978"><ele>641.4</ele><time>2026-05-01T08:50:43.467Z</time></trkpt><trkpt lat="43.2638442" lon="12.2759426"><ele>644.5999999999999</ele><time>2026-05-01T08:50:44.467Z</time></trkpt><trkpt lat="43.2638417" lon="12.2760873"><ele>647.8</ele><time>2026-05-01T08:50:45.467Z</time></trkpt><trkpt lat="43.2638112" lon="12.2762363"><ele>651.0</ele><time>2026-05-01T08:50:46.466Z</time></trkpt><trkpt lat="43.2637436" lon="12.2763881"><ele>651.25</ele><time>2026-05-01T08:50:47.467Z</time></trkpt><trkpt lat="43.2636694" lon="12.2765409"><ele>651.5</ele><time>2026-05-01T08:50:48.467Z</time></trkpt><trkpt lat="43.2635844" lon="12.2766953"><ele>651.75</ele><time>2026-05-01T08:50:49.467Z</time></trkpt><trkpt lat="43.2635017" lon="12.2768483"><ele>652.0</ele><time>2026-05-01T08:50:50.467Z</time></trkpt><trkpt lat="43.2634236" lon="12.277016"><ele>652.0</ele><time>2026-05-01T08:50:51.467Z</time></trkpt><trkpt lat="43.2633428" lon="12.2771871"><ele>652.0</ele><time>2026-05-01T08:50:52.466Z</time></trkpt><trkpt lat="43.2632617" lon="12.2773536"><ele>652.0</ele><time>2026-05-01T08:50:53.467Z</time></trkpt><trkpt lat="43.2631959" lon="12.2775395"><ele>652.0</ele><time>2026-05-01T08:50:54.466Z</time></trkpt><trkpt lat="43.2631566" lon="12.2777632"><ele>649.3333333333334</ele><time>2026-05-01T08:50:55.467Z</time></trkpt><trkpt lat="43.2631526" lon="12.2779888"><ele>646.6666666666666</ele><time>2026-05-01T08:50:56.467Z</time></trkpt><trkpt lat="43.2631548" lon="12.2782186"><ele>644.0</ele><time>2026-05-01T08:50:57.467Z</time></trkpt><trkpt lat="43.2631626" lon="12.2784466"><ele>643.6666666666666</ele><time>2026-05-01T08:50:58.467Z</time></trkpt><trkpt lat="43.2631769" lon="12.2786843"><ele>643.3333333333334</ele><time>2026-05-01T08:50:59.466Z</time></trkpt><trkpt lat="43.2631889" lon="12.2789288"><ele>643.0</ele><time>2026-05-01T08:51:00.467Z</time></trkpt><trkpt lat="43.2631957" lon="12.2791725"><ele>643.0</ele><time>2026-05-01T08:51:01.466Z</time></trkpt><trkpt lat="43.2632077" lon="12.279418"><ele>643.0</ele><time>2026-05-01T08:51:02.467Z</time></trkpt><trkpt lat="43.2632199" lon="12.2796502"><ele>643.0</ele><time>2026-05-01T08:51:03.467Z</time></trkpt><trkpt lat="43.2632284" lon="12.2798838"><ele>642.6666666666667</ele><time>2026-05-01T08:51:04.466Z</time></trkpt><trkpt lat="43.2632352" lon="12.2801058"><ele>642.3333333333334</ele><time>2026-05-01T08:51:05.467Z</time></trkpt><trkpt lat="43.2632475" lon="12.2803272"><ele>642.0</ele><time>2026-05-01T08:51:06.467Z</time></trkpt><trkpt lat="43.2632727" lon="12.2805454"><ele>644.0</ele><time>2026-05-01T08:51:07.467Z</time></trkpt><trkpt lat="43.2633311" lon="12.2807608"><ele>646.0</ele><time>2026-05-01T08:51:08.467Z</time></trkpt><trkpt lat="43.2634002" lon="12.2809595"><ele>648.0</ele><time>2026-05-01T08:51:09.467Z</time></trkpt><trkpt lat="43.2634623" lon="12.2811744"><ele>648.0</ele><time>2026-05-01T08:51:10.467Z</time></trkpt><trkpt lat="43.263522" lon="12.281381"><ele>648.0</ele><time>2026-05-01T08:51:11.467Z</time></trkpt><trkpt lat="43.2635749" lon="12.2815876"><ele>648.0</ele><time>2026-05-01T08:51:12.466Z</time></trkpt><trkpt lat="43.263623" lon="12.2817961"><ele>649.25</ele><time>2026-05-01T08:51:13.467Z</time></trkpt><trkpt lat="43.2636667" lon="12.2819906"><ele>650.5</ele><time>2026-05-01T08:51:14.467Z</time></trkpt><trkpt lat="43.2637062" lon="12.2821466"><ele>651.75</ele><time>2026-05-01T08:51:15.466Z</time></trkpt><trkpt lat="43.2637334" lon="12.2822833"><ele>653.0</ele><time>2026-05-01T08:51:16.467Z</time></trkpt><trkpt lat="43.263732" lon="12.2824255"><ele>654.0</ele><time>2026-05-01T08:51:17.467Z</time></trkpt><trkpt lat="43.2637059" lon="12.2825656"><ele>655.0</ele><time>2026-05-01T08:51:18.466Z</time></trkpt><trkpt lat="43.2636613" lon="12.2827242"><ele>656.0</ele><time>2026-05-01T08:51:19.467Z</time></trkpt><trkpt lat="43.2635988" lon="12.2828733"><ele>657.0</ele><time>2026-05-01T08:51:20.467Z</time></trkpt><trkpt lat="43.2635325" lon="12.2830319"><ele>656.0</ele><time>2026-05-01T08:51:21.467Z</time></trkpt><trkpt lat="43.2634786" lon="12.2831974"><ele>655.0</ele><time>2026-05-01T08:51:22.466Z</time></trkpt><trkpt lat="43.2634274" lon="12.2833844"><ele>654.0</ele><time>2026-05-01T08:51:23.467Z</time></trkpt><trkpt lat="43.2633911" lon="12.2835775"><ele>653.0</ele><time>2026-05-01T08:51:24.467Z</time></trkpt><trkpt lat="43.263361" lon="12.2837706"><ele>651.75</ele><time>2026-05-01T08:51:25.467Z</time></trkpt><trkpt lat="43.2633384" lon="12.2839616"><ele>650.5</ele><time>2026-05-01T08:51:26.467Z</time></trkpt><trkpt lat="43.263317" lon="12.2841347"><ele>649.25</ele><time>2026-05-01T08:51:27.467Z</time></trkpt><trkpt lat="43.2632794" lon="12.2842918"><ele>648.0</ele><time>2026-05-01T08:51:28.467Z</time></trkpt><trkpt lat="43.2632187" lon="12.2844229"><ele>648.0</ele><time>2026-05-01T08:51:29.467Z</time></trkpt><trkpt lat="43.2631344" lon="12.2845252"><ele>648.0</ele><time>2026-05-01T08:51:30.467Z</time></trkpt><trkpt lat="43.2630239" lon="12.2845889"><ele>648.0</ele><time>2026-05-01T08:51:31.467Z</time></trkpt><trkpt lat="43.2628909" lon="12.2846118"><ele>648.0</ele><time>2026-05-01T08:51:32.467Z</time></trkpt><trkpt lat="43.2627453" lon="12.284601"><ele>649.25</ele><time>2026-05-01T08:51:33.467Z</time></trkpt><trkpt lat="43.262614" lon="12.2845776"><ele>650.5</ele><time>2026-05-01T08:51:34.466Z</time></trkpt><trkpt lat="43.2624917" lon="12.2845721"><ele>651.75</ele><time>2026-05-01T08:51:35.467Z</time></trkpt><trkpt lat="43.2623834" lon="12.2845667"><ele>653.0</ele><time>2026-05-01T08:51:36.467Z</time></trkpt><trkpt lat="43.2622774" lon="12.2845719"><ele>653.5999999999999</ele><time>2026-05-01T08:51:37.467Z</time></trkpt><trkpt lat="43.2621771" lon="12.2845926"><ele>654.1999999999999</ele><time>2026-05-01T08:51:38.467Z</time></trkpt><trkpt lat="43.2620801" lon="12.2846772"><ele>654.8</ele><time>2026-05-01T08:51:39.467Z</time></trkpt><trkpt lat="43.2620282" lon="12.2848086"><ele>655.4</ele><time>2026-05-01T08:51:40.466Z</time></trkpt><trkpt lat="43.2620109" lon="12.2849591"><ele>656.0</ele><time>2026-05-01T08:51:41.467Z</time></trkpt><trkpt lat="43.2620195" lon="12.2851287"><ele>652.4</ele><time>2026-05-01T08:51:42.467Z</time></trkpt><trkpt lat="43.2620468" lon="12.2852843"><ele>648.8</ele><time>2026-05-01T08:51:43.467Z</time></trkpt><trkpt lat="43.2620804" lon="12.2854341"><ele>645.1999999999999</ele><time>2026-05-01T08:51:44.466Z</time></trkpt><trkpt lat="43.262118" lon="12.2855735"><ele>641.5999999999999</ele><time>2026-05-01T08:51:45.467Z</time></trkpt><trkpt lat="43.2621605" lon="12.2857075"><ele>638.0</ele><time>2026-05-01T08:51:46.467Z</time></trkpt><trkpt lat="43.262227" lon="12.2858223"><ele>637.25</ele><time>2026-05-01T08:51:47.466Z</time></trkpt><trkpt lat="43.2623246" lon="12.2859032"><ele>636.5</ele><time>2026-05-01T08:51:48.467Z</time></trkpt><trkpt lat="43.2624329" lon="12.2859617"><ele>635.75</ele><time>2026-05-01T08:51:49.467Z</time></trkpt><trkpt lat="43.2625378" lon="12.2860297"><ele>635.0</ele><time>2026-05-01T08:51:50.467Z</time></trkpt><trkpt lat="43.26264" lon="12.2861148"><ele>635.0</ele><time>2026-05-01T08:51:51.466Z</time></trkpt><trkpt lat="43.2627347" lon="12.2862084"><ele>635.0</ele><time>2026-05-01T08:51:52.466Z</time></trkpt><trkpt lat="43.2628341" lon="12.2863197"><ele>635.0</ele><time>2026-05-01T08:51:53.467Z</time></trkpt><trkpt lat="43.2629182" lon="12.2864646"><ele>635.0</ele><time>2026-05-01T08:51:54.467Z</time></trkpt><trkpt lat="43.262979" lon="12.2866224"><ele>633.75</ele><time>2026-05-01T08:51:55.467Z</time></trkpt><trkpt lat="43.2630386" lon="12.2867734"><ele>632.5</ele><time>2026-05-01T08:51:56.467Z</time></trkpt><trkpt lat="43.2631003" lon="12.2869148"><ele>631.25</ele><time>2026-05-01T08:51:57.467Z</time></trkpt><trkpt lat="43.2631676" lon="12.28705"><ele>630.0</ele><time>2026-05-01T08:51:58.467Z</time></trkpt><trkpt lat="43.2632459" lon="12.2871689"><ele>627.0</ele><time>2026-05-01T08:51:59.467Z</time></trkpt><trkpt lat="43.2633425" lon="12.2872738"><ele>624.0</ele><time>2026-05-01T08:52:00.466Z</time></trkpt><trkpt lat="43.2634562" lon="12.2873722"><ele>621.0</ele><time>2026-05-01T08:52:01.467Z</time></trkpt><trkpt lat="43.2635619" lon="12.2874758"><ele>618.0</ele><time>2026-05-01T08:52:02.467Z</time></trkpt><trkpt lat="43.2636613" lon="12.2875894"><ele>618.0</ele><time>2026-05-01T08:52:03.467Z</time></trkpt><trkpt lat="43.2637545" lon="12.2877116"><ele>618.0</ele><time>2026-05-01T08:52:04.467Z</time></trkpt><trkpt lat="43.2638446" lon="12.2878441"><ele>618.0</ele><time>2026-05-01T08:52:05.467Z</time></trkpt><trkpt lat="43.2639309" lon="12.2879757"><ele>618.0</ele><time>2026-05-01T08:52:06.467Z</time></trkpt><trkpt lat="43.2640217" lon="12.2881032"><ele>617.5</ele><time>2026-05-01T08:52:07.466Z</time></trkpt><trkpt lat="43.2641085" lon="12.2882406"><ele>617.0</ele><time>2026-05-01T08:52:08.467Z</time></trkpt><trkpt lat="43.264198" lon="12.2883708"><ele>616.5</ele><time>2026-05-01T08:52:09.467Z</time></trkpt><trkpt lat="43.2642805" lon="12.2885173"><ele>616.0</ele><time>2026-05-01T08:52:10.467Z</time></trkpt><trkpt lat="43.2643465" lon="12.2886823"><ele>616.0</ele><time>2026-05-01T08:52:11.467Z</time></trkpt><trkpt lat="43.2643986" lon="12.2888532"><ele>616.0</ele><time>2026-05-01T08:52:12.467Z</time></trkpt><trkpt lat="43.2644475" lon="12.2890257"><ele>616.0</ele><time>2026-05-01T08:52:13.466Z</time></trkpt><trkpt lat="43.2644883" lon="12.2891955"><ele>616.0</ele><time>2026-05-01T08:52:14.466Z</time></trkpt><trkpt lat="43.2645257" lon="12.2893561"><ele>613.75</ele><time>2026-05-01T08:52:15.467Z</time></trkpt><trkpt lat="43.264561" lon="12.2895133"><ele>611.5</ele><time>2026-05-01T08:52:16.467Z</time></trkpt><trkpt lat="43.2646158" lon="12.2896577"><ele>609.25</ele><time>2026-05-01T08:52:17.467Z</time></trkpt><trkpt lat="43.264694" lon="12.2897785"><ele>607.0</ele><time>2026-05-01T08:52:18.466Z</time></trkpt><trkpt lat="43.2647917" lon="12.2898761"><ele>606.6</ele><time>2026-05-01T08:52:19.467Z</time></trkpt><trkpt lat="43.2648828" lon="12.2899608"><ele>606.2</ele><time>2026-05-01T08:52:20.467Z</time></trkpt><trkpt lat="43.264987" lon="12.2899797"><ele>605.8</ele><time>2026-05-01T08:52:21.467Z</time></trkpt><trkpt lat="43.2650867" lon="12.289934"><ele>605.4</ele><time>2026-05-01T08:52:22.467Z</time></trkpt><trkpt lat="43.2651789" lon="12.2898479"><ele>605.0</ele><time>2026-05-01T08:52:23.466Z</time></trkpt><trkpt lat="43.2652646" lon="12.2897544"><ele>606.0</ele><time>2026-05-01T08:52:24.467Z</time></trkpt><trkpt lat="43.2653719" lon="12.2896696"><ele>607.0</ele><time>2026-05-01T08:52:25.467Z</time></trkpt><trkpt lat="43.2654964" lon="12.2896559"><ele>608.0</ele><time>2026-05-01T08:52:26.467Z</time></trkpt><trkpt lat="43.2656132" lon="12.2896738"><ele>609.0</ele><time>2026-05-01T08:52:27.467Z</time></trkpt><trkpt lat="43.2657217" lon="12.2897075"><ele>609.0</ele><time>2026-05-01T08:52:28.467Z</time></trkpt><trkpt lat="43.2658238" lon="12.2897326"><ele>609.0</ele><time>2026-05-01T08:52:29.466Z</time></trkpt><trkpt lat="43.2659215" lon="12.2896899"><ele>609.0</ele><time>2026-05-01T08:52:30.467Z</time></trkpt><trkpt lat="43.2659991" lon="12.2896116"><ele>609.0</ele><time>2026-05-01T08:52:31.467Z</time></trkpt><trkpt lat="43.2660581" lon="12.2894747"><ele>609.0</ele><time>2026-05-01T08:52:32.466Z</time></trkpt><trkpt lat="43.2660814" lon="12.2893223"><ele>609.0</ele><time>2026-05-01T08:52:33.467Z</time></trkpt><trkpt lat="43.266082" lon="12.2891278"><ele>609.0</ele><time>2026-05-01T08:52:34.467Z</time></trkpt><trkpt lat="43.2660624" lon="12.2889443"><ele>609.0</ele><time>2026-05-01T08:52:35.467Z</time></trkpt><trkpt lat="43.2660339" lon="12.2887706"><ele>609.0</ele><time>2026-05-01T08:52:36.467Z</time></trkpt><trkpt lat="43.266005" lon="12.2886113"><ele>607.75</ele><time>2026-05-01T08:52:37.467Z</time></trkpt><trkpt lat="43.2659843" lon="12.2884526"><ele>606.5</ele><time>2026-05-01T08:52:38.467Z</time></trkpt><trkpt lat="43.2659902" lon="12.288294"><ele>605.25</ele><time>2026-05-01T08:52:39.467Z</time></trkpt><trkpt lat="43.2660416" lon="12.2881587"><ele>604.0</ele><time>2026-05-01T08:52:40.467Z</time></trkpt><trkpt lat="43.2661496" lon="12.2881018"><ele>604.0</ele><time>2026-05-01T08:52:41.467Z</time></trkpt><trkpt lat="43.2662727" lon="12.2881242"><ele>604.0</ele><time>2026-05-01T08:52:42.467Z</time></trkpt><trkpt lat="43.2663875" lon="12.2881866"><ele>604.0</ele><time>2026-05-01T08:52:43.466Z</time></trkpt><trkpt lat="43.26651" lon="12.2882712"><ele>604.0</ele><time>2026-05-01T08:52:44.467Z</time></trkpt><trkpt lat="43.2666248" lon="12.2884009"><ele>602.75</ele><time>2026-05-01T08:52:45.467Z</time></trkpt><trkpt lat="43.2667329" lon="12.2885261"><ele>601.5</ele><time>2026-05-01T08:52:46.467Z</time></trkpt><trkpt lat="43.2668315" lon="12.2886479"><ele>600.25</ele><time>2026-05-01T08:52:47.467Z</time></trkpt><trkpt lat="43.2669263" lon="12.2887608"><ele>599.0</ele><time>2026-05-01T08:52:48.467Z</time></trkpt><trkpt lat="43.2670219" lon="12.2888719"><ele>597.5</ele><time>2026-05-01T08:52:49.467Z</time></trkpt><trkpt lat="43.2671138" lon="12.2889792"><ele>596.0</ele><time>2026-05-01T08:52:50.467Z</time></trkpt><trkpt lat="43.2671924" lon="12.2890992"><ele>594.5</ele><time>2026-05-01T08:52:51.466Z</time></trkpt><trkpt lat="43.2672674" lon="12.2892256"><ele>593.0</ele><time>2026-05-01T08:52:52.467Z</time></trkpt><trkpt lat="43.2673221" lon="12.2893778"><ele>593.0</ele><time>2026-05-01T08:52:53.467Z</time></trkpt><trkpt lat="43.2673654" lon="12.2895521"><ele>593.0</ele><time>2026-05-01T08:52:54.467Z</time></trkpt><trkpt lat="43.2673996" lon="12.2897372"><ele>593.0</ele><time>2026-05-01T08:52:55.467Z</time></trkpt><trkpt lat="43.267433" lon="12.2899258"><ele>593.0</ele><time>2026-05-01T08:52:56.466Z</time></trkpt><trkpt lat="43.2674694" lon="12.2901175"><ele>591.25</ele><time>2026-05-01T08:52:57.467Z</time></trkpt><trkpt lat="43.2675022" lon="12.2902974"><ele>589.5</ele><time>2026-05-01T08:52:58.466Z</time></trkpt><trkpt lat="43.2675392" lon="12.2904757"><ele>587.75</ele><time>2026-05-01T08:52:59.467Z</time></trkpt><trkpt lat="43.2675796" lon="12.2906534"><ele>586.0</ele><time>2026-05-01T08:53:00.466Z</time></trkpt><trkpt lat="43.2676264" lon="12.2908438"><ele>584.0</ele><time>2026-05-01T08:53:01.467Z</time></trkpt><trkpt lat="43.2676931" lon="12.2910284"><ele>582.0</ele><time>2026-05-01T08:53:02.466Z</time></trkpt><trkpt lat="43.2677888" lon="12.2912324"><ele>580.0</ele><time>2026-05-01T08:53:03.467Z</time></trkpt><trkpt lat="43.2678869" lon="12.2914262"><ele>579.0</ele><time>2026-05-01T08:53:04.466Z</time></trkpt><trkpt lat="43.2679844" lon="12.2916194"><ele>578.0</ele><time>2026-05-01T08:53:05.467Z</time></trkpt><trkpt lat="43.2680829" lon="12.2918166"><ele>577.0</ele><time>2026-05-01T08:53:06.467Z</time></trkpt><trkpt lat="43.2681952" lon="12.2920203"><ele>576.3333333333334</ele><time>2026-05-01T08:53:07.467Z</time></trkpt><trkpt lat="43.2683037" lon="12.2922291"><ele>575.6666666666666</ele><time>2026-05-01T08:53:08.467Z</time></trkpt><trkpt lat="43.268408" lon="12.2924229"><ele>575.0</ele><time>2026-05-01T08:53:09.467Z</time></trkpt><trkpt lat="43.2685044" lon="12.2926102"><ele>575.0</ele><time>2026-05-01T08:53:10.466Z</time></trkpt><trkpt lat="43.2686063" lon="12.2927934"><ele>575.0</ele><time>2026-05-01T08:53:11.467Z</time></trkpt><trkpt lat="43.2687021" lon="12.2929797"><ele>575.0</ele><time>2026-05-01T08:53:12.467Z</time></trkpt><trkpt lat="43.2687995" lon="12.2931591"><ele>574.6666666666666</ele><time>2026-05-01T08:53:13.467Z</time></trkpt><trkpt lat="43.2688956" lon="12.2933326"><ele>574.3333333333334</ele><time>2026-05-01T08:53:14.467Z</time></trkpt><trkpt lat="43.2689856" lon="12.2935082"><ele>574.0</ele><time>2026-05-01T08:53:15.467Z</time></trkpt><trkpt lat="43.2690807" lon="12.2936838"><ele>574.0</ele><time>2026-05-01T08:53:16.467Z</time></trkpt><trkpt lat="43.2691773" lon="12.2938573"><ele>574.0</ele><time>2026-05-01T08:53:17.467Z</time></trkpt><trkpt lat="43.2692737" lon="12.2940291"><ele>574.0</ele><time>2026-05-01T08:53:18.467Z</time></trkpt><trkpt lat="43.2693745" lon="12.2941779"><ele>571.0</ele><time>2026-05-01T08:53:19.466Z</time></trkpt><trkpt lat="43.2695066" lon="12.2942946"><ele>568.0</ele><time>2026-05-01T08:53:20.466Z</time></trkpt><trkpt lat="43.269651" lon="12.2943842"><ele>565.0</ele><time>2026-05-01T08:53:21.467Z</time></trkpt><trkpt lat="43.2697949" lon="12.2944657"><ele>566.0</ele><time>2026-05-01T08:53:22.467Z</time></trkpt><trkpt lat="43.2699349" lon="12.2945456"><ele>567.0</ele><time>2026-05-01T08:53:23.467Z</time></trkpt><trkpt lat="43.270069" lon="12.2946464"><ele>568.0</ele><time>2026-05-01T08:53:24.467Z</time></trkpt><trkpt lat="43.2701955" lon="12.2947752"><ele>568.0</ele><time>2026-05-01T08:53:25.467Z</time></trkpt><trkpt lat="43.2703098" lon="12.2949453"><ele>568.0</ele><time>2026-05-01T08:53:26.466Z</time></trkpt><trkpt lat="43.2704312" lon="12.2951017"><ele>568.0</ele><time>2026-05-01T08:53:27.467Z</time></trkpt><trkpt lat="43.2705662" lon="12.2952386"><ele>562.3333333333334</ele><time>2026-05-01T08:53:28.467Z</time></trkpt><trkpt lat="43.2707097" lon="12.2953728"><ele>556.6666666666666</ele><time>2026-05-01T08:53:29.467Z</time></trkpt><trkpt lat="43.2708642" lon="12.2954941"><ele>551.0</ele><time>2026-05-01T08:53:30.467Z</time></trkpt><trkpt lat="43.2710313" lon="12.2955867"><ele>546.6666666666666</ele><time>2026-05-01T08:53:31.466Z</time></trkpt><trkpt lat="43.2711997" lon="12.2956613"><ele>542.3333333333334</ele><time>2026-05-01T08:53:32.467Z</time></trkpt><trkpt lat="43.2713561" lon="12.295732"><ele>538.0</ele><time>2026-05-01T08:53:33.467Z</time></trkpt><trkpt lat="43.2715136" lon="12.2958119"><ele>538.0</ele><time>2026-05-01T08:53:34.467Z</time></trkpt><trkpt lat="43.2716763" lon="12.295894"><ele>538.0</ele><time>2026-05-01T08:53:35.466Z</time></trkpt><trkpt lat="43.2718265" lon="12.2960135"><ele>538.0</ele><time>2026-05-01T08:53:36.467Z</time></trkpt><trkpt lat="43.2719754" lon="12.296139"><ele>538.0</ele><time>2026-05-01T08:53:37.466Z</time></trkpt><trkpt lat="43.2721182" lon="12.2962632"><ele>538.0</ele><time>2026-05-01T08:53:38.467Z</time></trkpt><trkpt lat="43.272263" lon="12.2963912"><ele>538.0</ele><time>2026-05-01T08:53:39.467Z</time></trkpt><trkpt lat="43.2724066" lon="12.2965244"><ele>535.0</ele><time>2026-05-01T08:53:40.466Z</time></trkpt><trkpt lat="43.2725442" lon="12.2966529"><ele>532.0</ele><time>2026-05-01T08:53:41.467Z</time></trkpt><trkpt lat="43.2726819" lon="12.2967785"><ele>529.0</ele><time>2026-05-01T08:53:42.466Z</time></trkpt><trkpt lat="43.2728245" lon="12.2969055"><ele>529.0</ele><time>2026-05-01T08:53:43.467Z</time></trkpt><trkpt lat="43.2729674" lon="12.2970407"><ele>529.0</ele><time>2026-05-01T08:53:44.467Z</time></trkpt><trkpt lat="43.2731143" lon="12.297176"><ele>529.0</ele><time>2026-05-01T08:53:45.467Z</time></trkpt><trkpt lat="43.2732617" lon="12.2973141"><ele>529.0</ele><time>2026-05-01T08:53:46.467Z</time></trkpt><trkpt lat="43.2734227" lon="12.297448"><ele>529.0</ele><time>2026-05-01T08:53:47.467Z</time></trkpt><trkpt lat="43.2735806" lon="12.2975739"><ele>529.0</ele><time>2026-05-01T08:53:48.467Z</time></trkpt><trkpt lat="43.2737337" lon="12.2976918"><ele>529.0</ele><time>2026-05-01T08:53:49.467Z</time></trkpt><trkpt lat="43.273887" lon="12.2977912"><ele>529.0</ele><time>2026-05-01T08:53:50.466Z</time></trkpt><trkpt lat="43.2740417" lon="12.2978677"><ele>529.0</ele><time>2026-05-01T08:53:51.467Z</time></trkpt><trkpt lat="43.2741999" lon="12.2979039"><ele>524.6666666666667</ele><time>2026-05-01T08:53:52.466Z</time></trkpt><trkpt lat="43.274367" lon="12.2979011"><ele>520.3333333333334</ele><time>2026-05-01T08:53:53.466Z</time></trkpt><trkpt lat="43.2745387" lon="12.2978548"><ele>516.0</ele><time>2026-05-01T08:53:54.467Z</time></trkpt><trkpt lat="43.2747086" lon="12.2977877"><ele>513.6666666666666</ele><time>2026-05-01T08:53:55.467Z</time></trkpt><trkpt lat="43.274876" lon="12.2977159"><ele>511.3333333333333</ele><time>2026-05-01T08:53:56.467Z</time></trkpt><trkpt lat="43.2750422" lon="12.2976704"><ele>509.0</ele><time>2026-05-01T08:53:57.467Z</time></trkpt><trkpt lat="43.2752023" lon="12.2976547"><ele>509.0</ele><time>2026-05-01T08:53:58.466Z</time></trkpt><trkpt lat="43.2753678" lon="12.297631"><ele>509.0</ele><time>2026-05-01T08:53:59.467Z</time></trkpt><trkpt lat="43.275517" lon="12.2976189"><ele>509.0</ele><time>2026-05-01T08:54:00.466Z</time></trkpt><trkpt lat="43.2756539" lon="12.297606"><ele>506.75</ele><time>2026-05-01T08:54:01.467Z</time></trkpt><trkpt lat="43.2757859" lon="12.2976037"><ele>504.5</ele><time>2026-05-01T08:54:02.467Z</time></trkpt><trkpt lat="43.2758954" lon="12.2976371"><ele>502.25</ele><time>2026-05-01T08:54:03.467Z</time></trkpt><trkpt lat="43.2760047" lon="12.2977114"><ele>500.0</ele><time>2026-05-01T08:54:04.467Z</time></trkpt><trkpt lat="43.2760993" lon="12.2978177"><ele>500.0</ele><time>2026-05-01T08:54:05.467Z</time></trkpt><trkpt lat="43.2761845" lon="12.2979508"><ele>500.0</ele><time>2026-05-01T08:54:06.467Z</time></trkpt><trkpt lat="43.2762736" lon="12.2980822"><ele>500.0</ele><time>2026-05-01T08:54:07.467Z</time></trkpt><trkpt lat="43.2763784" lon="12.2981997"><ele>500.0</ele><time>2026-05-01T08:54:08.467Z</time></trkpt><trkpt lat="43.2765046" lon="12.2982898"><ele>502.3333333333333</ele><time>2026-05-01T08:54:09.467Z</time></trkpt><trkpt lat="43.2766496" lon="12.2983675"><ele>504.66666666666663</ele><time>2026-05-01T08:54:10.466Z</time></trkpt><trkpt lat="43.2768113" lon="12.2984213"><ele>507.0</ele><time>2026-05-01T08:54:11.467Z</time></trkpt><trkpt lat="43.2769724" lon="12.2984673"><ele>507.0</ele><time>2026-05-01T08:54:12.467Z</time></trkpt><trkpt lat="43.2771286" lon="12.2985141"><ele>507.0</ele><time>2026-05-01T08:54:13.467Z</time></trkpt><trkpt lat="43.2772702" lon="12.2985757"><ele>507.0</ele><time>2026-05-01T08:54:14.467Z</time></trkpt><trkpt lat="43.277409" lon="12.2986519"><ele>499.66666666666663</ele><time>2026-05-01T08:54:15.467Z</time></trkpt><trkpt lat="43.27755" lon="12.2987446"><ele>492.3333333333333</ele><time>2026-05-01T08:54:16.467Z</time></trkpt><trkpt lat="43.2777005" lon="12.2988334"><ele>485.0</ele><time>2026-05-01T08:54:17.467Z</time></trkpt><trkpt lat="43.2778569" lon="12.2989046"><ele>489.66666666666663</ele><time>2026-05-01T08:54:18.467Z</time></trkpt><trkpt lat="43.2780137" lon="12.2989484"><ele>494.33333333333337</ele><time>2026-05-01T08:54:19.467Z</time></trkpt><trkpt lat="43.2781678" lon="12.2989621"><ele>499.0</ele><time>2026-05-01T08:54:20.467Z</time></trkpt><trkpt lat="43.2783121" lon="12.2989761"><ele>499.0</ele><time>2026-05-01T08:54:21.466Z</time></trkpt><trkpt lat="43.2784484" lon="12.298983"><ele>499.0</ele><time>2026-05-01T08:54:22.467Z</time></trkpt><trkpt lat="43.2785736" lon="12.2989881"><ele>499.0</ele><time>2026-05-01T08:54:23.467Z</time></trkpt><trkpt lat="43.2786784" lon="12.2990091"><ele>499.0</ele><time>2026-05-01T08:54:24.467Z</time></trkpt><trkpt lat="43.2787657" lon="12.2990703"><ele>499.0</ele><time>2026-05-01T08:54:25.467Z</time></trkpt><trkpt lat="43.2788296" lon="12.2991926"><ele>499.0</ele><time>2026-05-01T08:54:26.467Z</time></trkpt><trkpt lat="43.2788595" lon="12.2993422"><ele>499.0</ele><time>2026-05-01T08:54:27.466Z</time></trkpt><trkpt lat="43.278857" lon="12.2995065"><ele>499.0</ele><time>2026-05-01T08:54:28.467Z</time></trkpt><trkpt lat="43.278834" lon="12.2996868"><ele>502.0</ele><time>2026-05-01T08:54:29.467Z</time></trkpt><trkpt lat="43.2787919" lon="12.2998798"><ele>505.0</ele><time>2026-05-01T08:54:30.466Z</time></trkpt><trkpt lat="43.2787524" lon="12.3000588"><ele>508.0</ele><time>2026-05-01T08:54:31.467Z</time></trkpt><trkpt lat="43.2787063" lon="12.300246"><ele>511.0</ele><time>2026-05-01T08:54:32.467Z</time></trkpt><trkpt lat="43.2786707" lon="12.3004396"><ele>508.5</ele><time>2026-05-01T08:54:33.467Z</time></trkpt><trkpt lat="43.2786481" lon="12.3006324"><ele>506.0</ele><time>2026-05-01T08:54:34.466Z</time></trkpt><trkpt lat="43.2786365" lon="12.300817"><ele>503.5</ele><time>2026-05-01T08:54:35.467Z</time></trkpt><trkpt lat="43.2786183" lon="12.3010007"><ele>501.0</ele><time>2026-05-01T08:54:36.467Z</time></trkpt><trkpt lat="43.278592" lon="12.3011719"><ele>501.0</ele><time>2026-05-01T08:54:37.466Z</time></trkpt><trkpt lat="43.2785555" lon="12.3013353"><ele>501.0</ele><time>2026-05-01T08:54:38.466Z</time></trkpt><trkpt lat="43.2785032" lon="12.3014887"><ele>501.0</ele><time>2026-05-01T08:54:39.466Z</time></trkpt><trkpt lat="43.2784311" lon="12.301643"><ele>501.0</ele><time>2026-05-01T08:54:40.467Z</time></trkpt><trkpt lat="43.2783588" lon="12.3017933"><ele>497.25</ele><time>2026-05-01T08:54:41.467Z</time></trkpt><trkpt lat="43.2782987" lon="12.3019589"><ele>493.5</ele><time>2026-05-01T08:54:42.467Z</time></trkpt><trkpt lat="43.2782364" lon="12.3021246"><ele>489.75</ele><time>2026-05-01T08:54:43.467Z</time></trkpt><trkpt lat="43.2781748" lon="12.3022961"><ele>486.0</ele><time>2026-05-01T08:54:44.467Z</time></trkpt><trkpt lat="43.2781287" lon="12.3024739"><ele>480.0</ele><time>2026-05-01T08:54:45.466Z</time></trkpt><trkpt lat="43.2780963" lon="12.3026591"><ele>474.0</ele><time>2026-05-01T08:54:46.466Z</time></trkpt><trkpt lat="43.2780875" lon="12.3028597"><ele>468.0</ele><time>2026-05-01T08:54:47.467Z</time></trkpt><trkpt lat="43.2780984" lon="12.3030724"><ele>462.0</ele><time>2026-05-01T08:54:48.467Z</time></trkpt><trkpt lat="43.2781239" lon="12.3032766"><ele>462.0</ele><time>2026-05-01T08:54:49.467Z</time></trkpt><trkpt lat="43.2781747" lon="12.3034705"><ele>462.0</ele><time>2026-05-01T08:54:50.467Z</time></trkpt><trkpt lat="43.2782235" lon="12.3036589"><ele>462.0</ele><time>2026-05-01T08:54:51.466Z</time></trkpt><trkpt lat="43.2782706" lon="12.3038573"><ele>462.0</ele><time>2026-05-01T08:54:52.467Z</time></trkpt><trkpt lat="43.2783138" lon="12.3040552"><ele>461.8</ele><time>2026-05-01T08:54:53.467Z</time></trkpt><trkpt lat="43.2783592" lon="12.3042388"><ele>461.6</ele><time>2026-05-01T08:54:54.467Z</time></trkpt><trkpt lat="43.2784013" lon="12.3043943"><ele>461.40000000000003</ele><time>2026-05-01T08:54:55.466Z</time></trkpt><trkpt lat="43.2784228" lon="12.3045166"><ele>461.20000000000005</ele><time>2026-05-01T08:54:56.467Z</time></trkpt><trkpt lat="43.2784371" lon="12.3046064"><ele>461.0</ele><time>2026-05-01T08:54:57.466Z</time></trkpt><trkpt lat="43.2784584" lon="12.3047867"><ele>460.99999999999994</ele><time>2026-05-01T08:54:59.466Z</time></trkpt><trkpt lat="43.2784723" lon="12.304893"><ele>461.0</ele><time>2026-05-01T08:55:00.467Z</time></trkpt><trkpt lat="43.2784829" lon="12.3050014"><ele>461.0</ele><time>2026-05-01T08:55:01.467Z</time></trkpt><trkpt lat="43.2784912" lon="12.3051112"><ele>461.0</ele><time>2026-05-01T08:55:02.467Z</time></trkpt><trkpt lat="43.2785024" lon="12.3052167"><ele>460.99999999999994</ele><time>2026-05-01T08:55:03.467Z</time></trkpt><trkpt lat="43.2785159" lon="12.3053089"><ele>461.0</ele><time>2026-05-01T08:55:04.467Z</time></trkpt><trkpt lat="43.2785386" lon="12.3053929"><ele>461.0</ele><time>2026-05-01T08:55:05.467Z</time></trkpt><trkpt lat="43.2785742" lon="12.3055226"><ele>461.0</ele><time>2026-05-01T08:55:07.467Z</time></trkpt><trkpt lat="43.2785109" lon="12.3056173"><ele>461.0</ele><time>2026-05-01T08:55:09.467Z</time></trkpt><trkpt lat="43.2783685" lon="12.3056121"><ele>461.0</ele><time>2026-05-01T08:55:11.467Z</time></trkpt><trkpt lat="43.2782842" lon="12.3055878"><ele>461.0</ele><time>2026-05-01T08:55:12.467Z</time></trkpt><trkpt lat="43.2781976" lon="12.305573"><ele>463.6</ele><time>2026-05-01T08:55:13.466Z</time></trkpt><trkpt lat="43.2780895" lon="12.3055376"><ele>466.20000000000005</ele><time>2026-05-01T08:55:14.467Z</time></trkpt><trkpt lat="43.2779972" lon="12.3054858"><ele>468.79999999999995</ele><time>2026-05-01T08:55:15.467Z</time></trkpt><trkpt lat="43.2778993" lon="12.305444"><ele>471.4</ele><time>2026-05-01T08:55:16.467Z</time></trkpt><trkpt lat="43.2778066" lon="12.3053964"><ele>474.0</ele><time>2026-05-01T08:55:17.466Z</time></trkpt><trkpt lat="43.2777155" lon="12.305328"><ele>474.0</ele><time>2026-05-01T08:55:18.466Z</time></trkpt><trkpt lat="43.2776205" lon="12.3052622"><ele>474.0</ele><time>2026-05-01T08:55:19.466Z</time></trkpt><trkpt lat="43.2775157" lon="12.3052165"><ele>474.0</ele><time>2026-05-01T08:55:20.467Z</time></trkpt><trkpt lat="43.2774086" lon="12.3052058"><ele>474.0</ele><time>2026-05-01T08:55:21.467Z</time></trkpt><trkpt lat="43.2773113" lon="12.3052208"><ele>474.0</ele><time>2026-05-01T08:55:22.467Z</time></trkpt><trkpt lat="43.2772172" lon="12.3052684"><ele>472.75</ele><time>2026-05-01T08:55:23.467Z</time></trkpt><trkpt lat="43.2771166" lon="12.3053457"><ele>471.5</ele><time>2026-05-01T08:55:24.467Z</time></trkpt><trkpt lat="43.2770084" lon="12.3054429"><ele>470.25</ele><time>2026-05-01T08:55:25.467Z</time></trkpt><trkpt lat="43.2769153" lon="12.3055649"><ele>469.0</ele><time>2026-05-01T08:55:26.467Z</time></trkpt><trkpt lat="43.2768267" lon="12.3057031"><ele>469.0</ele><time>2026-05-01T08:55:27.467Z</time></trkpt><trkpt lat="43.2767559" lon="12.3058701"><ele>469.0</ele><time>2026-05-01T08:55:28.467Z</time></trkpt><trkpt lat="43.2766942" lon="12.3060361"><ele>469.0</ele><time>2026-05-01T08:55:29.466Z</time></trkpt><trkpt lat="43.2766289" lon="12.3062185"><ele>469.0</ele><time>2026-05-01T08:55:30.467Z</time></trkpt><trkpt lat="43.2765574" lon="12.3063934"><ele>467.75</ele><time>2026-05-01T08:55:31.467Z</time></trkpt><trkpt lat="43.2764802" lon="12.3065697"><ele>466.5</ele><time>2026-05-01T08:55:32.467Z</time></trkpt><trkpt lat="43.2763986" lon="12.3067397"><ele>465.25</ele><time>2026-05-01T08:55:33.467Z</time></trkpt><trkpt lat="43.2763217" lon="12.3069057"><ele>464.0</ele><time>2026-05-01T08:55:34.467Z</time></trkpt><trkpt lat="43.2762472" lon="12.3070732"><ele>469.0</ele><time>2026-05-01T08:55:35.466Z</time></trkpt><trkpt lat="43.2761685" lon="12.3072418"><ele>474.0</ele><time>2026-05-01T08:55:36.467Z</time></trkpt><trkpt lat="43.2760843" lon="12.3073892"><ele>479.0</ele><time>2026-05-01T08:55:37.467Z</time></trkpt><trkpt lat="43.2759823" lon="12.3075149"><ele>484.0</ele><time>2026-05-01T08:55:38.467Z</time></trkpt><trkpt lat="43.2758694" lon="12.307615"><ele>484.0</ele><time>2026-05-01T08:55:39.466Z</time></trkpt><trkpt lat="43.2757329" lon="12.3076968"><ele>484.0</ele><time>2026-05-01T08:55:40.466Z</time></trkpt><trkpt lat="43.2756024" lon="12.3077707"><ele>484.0</ele><time>2026-05-01T08:55:41.467Z</time></trkpt><trkpt lat="43.2754629" lon="12.307849"><ele>484.0</ele><time>2026-05-01T08:55:42.467Z</time></trkpt><trkpt lat="43.2753403" lon="12.3079653"><ele>486.33333333333337</ele><time>2026-05-01T08:55:43.466Z</time></trkpt><trkpt lat="43.2752179" lon="12.3080968"><ele>488.66666666666663</ele><time>2026-05-01T08:55:44.466Z</time></trkpt><trkpt lat="43.2750917" lon="12.3082416"><ele>491.0</ele><time>2026-05-01T08:55:45.467Z</time></trkpt><trkpt lat="43.2749756" lon="12.3083998"><ele>491.0</ele><time>2026-05-01T08:55:46.467Z</time></trkpt><trkpt lat="43.2748574" lon="12.3085458"><ele>491.0</ele><time>2026-05-01T08:55:47.466Z</time></trkpt><trkpt lat="43.2747302" lon="12.3086939"><ele>491.0</ele><time>2026-05-01T08:55:48.467Z</time></trkpt><trkpt lat="43.2746018" lon="12.3088475"><ele>494.66666666666663</ele><time>2026-05-01T08:55:49.467Z</time></trkpt><trkpt lat="43.2744812" lon="12.3090286"><ele>498.33333333333337</ele><time>2026-05-01T08:55:50.467Z</time></trkpt><trkpt lat="43.2743738" lon="12.3092129"><ele>502.0</ele><time>2026-05-01T08:55:51.467Z</time></trkpt><trkpt lat="43.2742719" lon="12.309396"><ele>502.0</ele><time>2026-05-01T08:55:52.467Z</time></trkpt><trkpt lat="43.2741702" lon="12.3095773"><ele>502.0</ele><time>2026-05-01T08:55:53.467Z</time></trkpt><trkpt lat="43.2740851" lon="12.3097378"><ele>502.0</ele><time>2026-05-01T08:55:54.467Z</time></trkpt><trkpt lat="43.2740109" lon="12.3098836"><ele>502.0</ele><time>2026-05-01T08:55:55.466Z</time></trkpt><trkpt lat="43.2739403" lon="12.3100362"><ele>505.25</ele><time>2026-05-01T08:55:56.467Z</time></trkpt><trkpt lat="43.2738936" lon="12.3102009"><ele>508.5</ele><time>2026-05-01T08:55:57.467Z</time></trkpt><trkpt lat="43.2738503" lon="12.3103761"><ele>511.75</ele><time>2026-05-01T08:55:58.467Z</time></trkpt><trkpt lat="43.273791" lon="12.3105391"><ele>515.0</ele><time>2026-05-01T08:55:59.467Z</time></trkpt><trkpt lat="43.2737498" lon="12.3106831"><ele>515.3333333333333</ele><time>2026-05-01T08:56:00.466Z</time></trkpt><trkpt lat="43.2737129" lon="12.3108032"><ele>515.6666666666666</ele><time>2026-05-01T08:56:01.466Z</time></trkpt><trkpt lat="43.2736882" lon="12.3108955"><ele>516.0</ele><time>2026-05-01T08:56:02.467Z</time></trkpt><trkpt lat="43.2736818" lon="12.3109887"><ele>516.3333333333334</ele><time>2026-05-01T08:56:03.466Z</time></trkpt><trkpt lat="43.2736152" lon="12.3111305"><ele>516.6666666666667</ele><time>2026-05-01T08:56:05.467Z</time></trkpt><trkpt lat="43.2735618" lon="12.311186"><ele>517.0</ele><time>2026-05-01T08:56:06.467Z</time></trkpt><trkpt lat="43.2735007" lon="12.3112257"><ele>517.0</ele><time>2026-05-01T08:56:07.467Z</time></trkpt><trkpt lat="43.2734263" lon="12.3112646"><ele>517.0</ele><time>2026-05-01T08:56:08.467Z</time></trkpt><trkpt lat="43.2733531" lon="12.3112992"><ele>517.0</ele><time>2026-05-01T08:56:09.467Z</time></trkpt><trkpt lat="43.2732648" lon="12.3113269"><ele>517.0</ele><time>2026-05-01T08:56:10.467Z</time></trkpt><trkpt lat="43.2731803" lon="12.3113325"><ele>517.0</ele><time>2026-05-01T08:56:11.466Z</time></trkpt><trkpt lat="43.273108" lon="12.311322"><ele>517.0</ele><time>2026-05-01T08:56:12.467Z</time></trkpt><trkpt lat="43.2730259" lon="12.311297"><ele>517.8333333333334</ele><time>2026-05-01T08:56:13.466Z</time></trkpt><trkpt lat="43.2729446" lon="12.3112613"><ele>518.6666666666667</ele><time>2026-05-01T08:56:14.467Z</time></trkpt><trkpt lat="43.2728636" lon="12.3112201"><ele>519.5</ele><time>2026-05-01T08:56:15.467Z</time></trkpt><trkpt lat="43.2727796" lon="12.3111955"><ele>520.3333333333334</ele><time>2026-05-01T08:56:16.467Z</time></trkpt><trkpt lat="43.2726913" lon="12.3111863"><ele>521.1666666666666</ele><time>2026-05-01T08:56:17.467Z</time></trkpt><trkpt lat="43.2725977" lon="12.3112075"><ele>522.0</ele><time>2026-05-01T08:56:18.467Z</time></trkpt><trkpt lat="43.2725051" lon="12.3112386"><ele>522.0</ele><time>2026-05-01T08:56:19.467Z</time></trkpt><trkpt lat="43.2724204" lon="12.3112772"><ele>522.0</ele><time>2026-05-01T08:56:20.467Z</time></trkpt><trkpt lat="43.2723404" lon="12.3113276"><ele>522.0</ele><time>2026-05-01T08:56:21.467Z</time></trkpt><trkpt lat="43.2722608" lon="12.3113931"><ele>522.0</ele><time>2026-05-01T08:56:22.467Z</time></trkpt><trkpt lat="43.2721801" lon="12.3114793"><ele>522.0</ele><time>2026-05-01T08:56:23.467Z</time></trkpt><trkpt lat="43.2721014" lon="12.3115774"><ele>525.2</ele><time>2026-05-01T08:56:24.467Z</time></trkpt><trkpt lat="43.2720248" lon="12.3116721"><ele>528.4000000000001</ele><time>2026-05-01T08:56:25.467Z</time></trkpt><trkpt lat="43.2719491" lon="12.3117712"><ele>531.5999999999999</ele><time>2026-05-01T08:56:26.466Z</time></trkpt><trkpt lat="43.2718912" lon="12.3118795"><ele>534.8</ele><time>2026-05-01T08:56:27.467Z</time></trkpt><trkpt lat="43.271818" lon="12.3119878"><ele>538.0</ele><time>2026-05-01T08:56:28.466Z</time></trkpt><trkpt lat="43.2717423" lon="12.3120864"><ele>538.0</ele><time>2026-05-01T08:56:29.467Z</time></trkpt><trkpt lat="43.2716662" lon="12.3121796"><ele>538.0</ele><time>2026-05-01T08:56:30.467Z</time></trkpt><trkpt lat="43.2716018" lon="12.3122643"><ele>538.0</ele><time>2026-05-01T08:56:31.467Z</time></trkpt><trkpt lat="43.2715359" lon="12.3123375"><ele>538.0</ele><time>2026-05-01T08:56:32.467Z</time></trkpt><trkpt lat="43.2714665" lon="12.3124072"><ele>538.0</ele><time>2026-05-01T08:56:33.467Z</time></trkpt><trkpt lat="43.271385" lon="12.3124696"><ele>537.25</ele><time>2026-05-01T08:56:34.467Z</time></trkpt><trkpt lat="43.2712893" lon="12.3125273"><ele>536.5</ele><time>2026-05-01T08:56:35.467Z</time></trkpt><trkpt lat="43.2711902" lon="12.3125877"><ele>535.75</ele><time>2026-05-01T08:56:36.466Z</time></trkpt><trkpt lat="43.2710804" lon="12.3126649"><ele>535.0</ele><time>2026-05-01T08:56:37.467Z</time></trkpt><trkpt lat="43.2709802" lon="12.3127416"><ele>535.0</ele><time>2026-05-01T08:56:38.466Z</time></trkpt><trkpt lat="43.2708972" lon="12.3128023"><ele>535.0</ele><time>2026-05-01T08:56:39.467Z</time></trkpt><trkpt lat="43.2708409" lon="12.312846"><ele>535.0</ele><time>2026-05-01T08:56:40.467Z</time></trkpt><trkpt lat="43.2707727" lon="12.3129014"><ele>535.0</ele><time>2026-05-01T08:56:42.467Z</time></trkpt><trkpt lat="43.2707129" lon="12.3129756"><ele>535.0</ele><time>2026-05-01T08:56:45.467Z</time></trkpt><trkpt lat="43.2706553" lon="12.3130994"><ele>535.0</ele><time>2026-05-01T08:56:47.466Z</time></trkpt><trkpt lat="43.2706126" lon="12.3131893"><ele>535.8</ele><time>2026-05-01T08:56:48.466Z</time></trkpt><trkpt lat="43.2705682" lon="12.3132972"><ele>536.6</ele><time>2026-05-01T08:56:49.467Z</time></trkpt><trkpt lat="43.2705221" lon="12.313409"><ele>537.4</ele><time>2026-05-01T08:56:50.467Z</time></trkpt><trkpt lat="43.2704592" lon="12.3135202"><ele>538.2</ele><time>2026-05-01T08:56:51.467Z</time></trkpt><trkpt lat="43.2703872" lon="12.3136129"><ele>539.0</ele><time>2026-05-01T08:56:52.467Z</time></trkpt><trkpt lat="43.2703094" lon="12.3136828"><ele>539.0</ele><time>2026-05-01T08:56:53.467Z</time></trkpt><trkpt lat="43.270224" lon="12.3137324"><ele>539.0</ele><time>2026-05-01T08:56:54.467Z</time></trkpt><trkpt lat="43.2701274" lon="12.3137747"><ele>539.0</ele><time>2026-05-01T08:56:55.466Z</time></trkpt><trkpt lat="43.2700198" lon="12.3138255"><ele>539.0</ele><time>2026-05-01T08:56:56.467Z</time></trkpt><trkpt lat="43.2698921" lon="12.3138957"><ele>539.0</ele><time>2026-05-01T08:56:57.467Z</time></trkpt><trkpt lat="43.2697704" lon="12.3139754"><ele>539.0</ele><time>2026-05-01T08:56:58.467Z</time></trkpt><trkpt lat="43.2696738" lon="12.3140567"><ele>539.0</ele><time>2026-05-01T08:56:59.467Z</time></trkpt><trkpt lat="43.2695794" lon="12.3141215"><ele>539.0</ele><time>2026-05-01T08:57:00.467Z</time></trkpt><trkpt lat="43.2694837" lon="12.3141857"><ele>539.0</ele><time>2026-05-01T08:57:01.467Z</time></trkpt><trkpt lat="43.2693915" lon="12.3142256"><ele>539.0</ele><time>2026-05-01T08:57:02.467Z</time></trkpt><trkpt lat="43.2693093" lon="12.3142371"><ele>539.0</ele><time>2026-05-01T08:57:03.467Z</time></trkpt><trkpt lat="43.2692245" lon="12.3142333"><ele>539.0</ele><time>2026-05-01T08:57:04.466Z</time></trkpt><trkpt lat="43.2691361" lon="12.3142296"><ele>539.0</ele><time>2026-05-01T08:57:05.467Z</time></trkpt><trkpt lat="43.2690518" lon="12.3142303"><ele>539.0</ele><time>2026-05-01T08:57:06.467Z</time></trkpt><trkpt lat="43.268944" lon="12.314225"><ele>539.0</ele><time>2026-05-01T08:57:08.467Z</time></trkpt><trkpt lat="43.2688256" lon="12.3142294"><ele>542.4</ele><time>2026-05-01T08:57:10.467Z</time></trkpt><trkpt lat="43.2687531" lon="12.3142367"><ele>545.8</ele><time>2026-05-01T08:57:11.467Z</time></trkpt><trkpt lat="43.2686653" lon="12.3142461"><ele>549.2</ele><time>2026-05-01T08:57:12.467Z</time></trkpt><trkpt lat="43.2685638" lon="12.3142463"><ele>552.6</ele><time>2026-05-01T08:57:13.467Z</time></trkpt><trkpt lat="43.2684574" lon="12.3142372"><ele>556.0</ele><time>2026-05-01T08:57:14.467Z</time></trkpt><trkpt lat="43.2683711" lon="12.3142555"><ele>556.0</ele><time>2026-05-01T08:57:15.467Z</time></trkpt><trkpt lat="43.2683042" lon="12.314295"><ele>556.0</ele><time>2026-05-01T08:57:16.467Z</time></trkpt><trkpt lat="43.2682453" lon="12.3143645"><ele>556.0</ele><time>2026-05-01T08:57:17.467Z</time></trkpt><trkpt lat="43.2681863" lon="12.3144376"><ele>556.0</ele><time>2026-05-01T08:57:18.466Z</time></trkpt><trkpt lat="43.2681221" lon="12.3145247"><ele>556.0</ele><time>2026-05-01T08:57:19.467Z</time></trkpt><trkpt lat="43.268059" lon="12.3146192"><ele>556.0</ele><time>2026-05-01T08:57:20.467Z</time></trkpt><trkpt lat="43.2680089" lon="12.314702"><ele>555.0</ele><time>2026-05-01T08:57:21.467Z</time></trkpt><trkpt lat="43.2679074" lon="12.3147972"><ele>554.0</ele><time>2026-05-01T08:57:23.467Z</time></trkpt><trkpt lat="43.2678425" lon="12.3148255"><ele>553.0</ele><time>2026-05-01T08:57:24.467Z</time></trkpt><trkpt lat="43.2677775" lon="12.3148525"><ele>552.0</ele><time>2026-05-01T08:57:25.467Z</time></trkpt><trkpt lat="43.2676933" lon="12.3148757"><ele>551.0</ele><time>2026-05-01T08:57:26.467Z</time></trkpt><trkpt lat="43.2676064" lon="12.3148687"><ele>550.0</ele><time>2026-05-01T08:57:27.467Z</time></trkpt><trkpt lat="43.2675066" lon="12.314854"><ele>550.0</ele><time>2026-05-01T08:57:28.467Z</time></trkpt><trkpt lat="43.2674071" lon="12.3148462"><ele>550.0</ele><time>2026-05-01T08:57:29.467Z</time></trkpt><trkpt lat="43.2673144" lon="12.3148533"><ele>550.0</ele><time>2026-05-01T08:57:30.467Z</time></trkpt><trkpt lat="43.2672226" lon="12.3148594"><ele>550.0</ele><time>2026-05-01T08:57:31.467Z</time></trkpt><trkpt lat="43.2671309" lon="12.3148693"><ele>550.0</ele><time>2026-05-01T08:57:32.466Z</time></trkpt><trkpt lat="43.2670394" lon="12.3148629"><ele>549.2</ele><time>2026-05-01T08:57:33.466Z</time></trkpt><trkpt lat="43.2669502" lon="12.314856"><ele>548.4</ele><time>2026-05-01T08:57:34.467Z</time></trkpt><trkpt lat="43.2668513" lon="12.3148587"><ele>547.6</ele><time>2026-05-01T08:57:35.467Z</time></trkpt><trkpt lat="43.266751" lon="12.3148631"><ele>546.8</ele><time>2026-05-01T08:57:36.466Z</time></trkpt><trkpt lat="43.2666469" lon="12.3148656"><ele>546.0</ele><time>2026-05-01T08:57:37.467Z</time></trkpt><trkpt lat="43.2665434" lon="12.3148696"><ele>546.0</ele><time>2026-05-01T08:57:38.467Z</time></trkpt><trkpt lat="43.2664384" lon="12.3148716"><ele>546.0</ele><time>2026-05-01T08:57:39.467Z</time></trkpt><trkpt lat="43.2663357" lon="12.3148781"><ele>546.0</ele><time>2026-05-01T08:57:40.467Z</time></trkpt><trkpt lat="43.2662229" lon="12.3148894"><ele>546.0</ele><time>2026-05-01T08:57:41.467Z</time></trkpt><trkpt lat="43.266118" lon="12.3148988"><ele>546.0</ele><time>2026-05-01T08:57:42.467Z</time></trkpt><trkpt lat="43.2660123" lon="12.3149187"><ele>546.0</ele><time>2026-05-01T08:57:43.467Z</time></trkpt><trkpt lat="43.2659106" lon="12.3149397"><ele>546.0</ele><time>2026-05-01T08:57:44.466Z</time></trkpt><trkpt lat="43.2658144" lon="12.3149615"><ele>546.0</ele><time>2026-05-01T08:57:45.467Z</time></trkpt><trkpt lat="43.265729" lon="12.3149966"><ele>546.0</ele><time>2026-05-01T08:57:46.467Z</time></trkpt><trkpt lat="43.2656612" lon="12.3150319"><ele>546.0</ele><time>2026-05-01T08:57:47.467Z</time></trkpt><trkpt lat="43.2655367" lon="12.3150617"><ele>546.8</ele><time>2026-05-01T08:57:49.466Z</time></trkpt><trkpt lat="43.265413" lon="12.3150693"><ele>547.6</ele><time>2026-05-01T08:57:51.467Z</time></trkpt><trkpt lat="43.2652964" lon="12.3150323"><ele>548.4</ele><time>2026-05-01T08:57:53.467Z</time></trkpt><trkpt lat="43.2652363" lon="12.3149848"><ele>549.2</ele><time>2026-05-01T08:57:54.467Z</time></trkpt><trkpt lat="43.2651669" lon="12.3149444"><ele>550.0</ele><time>2026-05-01T08:57:55.467Z</time></trkpt><trkpt lat="43.2650847" lon="12.3149449"><ele>550.0</ele><time>2026-05-01T08:57:56.467Z</time></trkpt><trkpt lat="43.2650038" lon="12.3149618"><ele>550.0</ele><time>2026-05-01T08:57:57.467Z</time></trkpt><trkpt lat="43.2649167" lon="12.31497"><ele>550.0</ele><time>2026-05-01T08:57:58.467Z</time></trkpt><trkpt lat="43.264843" lon="12.3149673"><ele>550.0</ele><time>2026-05-01T08:57:59.467Z</time></trkpt><trkpt lat="43.2647691" lon="12.3149192"><ele>550.0</ele><time>2026-05-01T08:58:00.467Z</time></trkpt><trkpt lat="43.2646981" lon="12.3148516"><ele>550.0</ele><time>2026-05-01T08:58:01.467Z</time></trkpt><trkpt lat="43.2646209" lon="12.3147678"><ele>553.4</ele><time>2026-05-01T08:58:02.467Z</time></trkpt><trkpt lat="43.2645443" lon="12.3146871"><ele>556.8</ele><time>2026-05-01T08:58:03.467Z</time></trkpt><trkpt lat="43.2644519" lon="12.3146015"><ele>560.2</ele><time>2026-05-01T08:58:04.467Z</time></trkpt><trkpt lat="43.2643551" lon="12.3145308"><ele>563.6</ele><time>2026-05-01T08:58:05.467Z</time></trkpt><trkpt lat="43.2642525" lon="12.3144624"><ele>567.0</ele><time>2026-05-01T08:58:06.467Z</time></trkpt><trkpt lat="43.2641403" lon="12.3143891"><ele>567.0</ele><time>2026-05-01T08:58:07.467Z</time></trkpt><trkpt lat="43.2640241" lon="12.3143174"><ele>567.0</ele><time>2026-05-01T08:58:08.467Z</time></trkpt><trkpt lat="43.263918" lon="12.3142608"><ele>567.0</ele><time>2026-05-01T08:58:09.467Z</time></trkpt><trkpt lat="43.2638079" lon="12.3142156"><ele>567.0</ele><time>2026-05-01T08:58:10.466Z</time></trkpt><trkpt lat="43.2636911" lon="12.3141793"><ele>565.6</ele><time>2026-05-01T08:58:11.467Z</time></trkpt><trkpt lat="43.2635706" lon="12.3141441"><ele>564.2</ele><time>2026-05-01T08:58:12.466Z</time></trkpt><trkpt lat="43.2634639" lon="12.3141192"><ele>562.8</ele><time>2026-05-01T08:58:13.466Z</time></trkpt><trkpt lat="43.2633593" lon="12.3141002"><ele>561.4</ele><time>2026-05-01T08:58:14.467Z</time></trkpt><trkpt lat="43.2632566" lon="12.3141006"><ele>560.0</ele><time>2026-05-01T08:58:15.466Z</time></trkpt><trkpt lat="43.263158" lon="12.3141141"><ele>559.4</ele><time>2026-05-01T08:58:16.467Z</time></trkpt><trkpt lat="43.2630534" lon="12.3141399"><ele>558.8</ele><time>2026-05-01T08:58:17.466Z</time></trkpt><trkpt lat="43.2629556" lon="12.3141829"><ele>558.2</ele><time>2026-05-01T08:58:18.467Z</time></trkpt><trkpt lat="43.2628618" lon="12.3142232"><ele>557.6</ele><time>2026-05-01T08:58:19.467Z</time></trkpt><trkpt lat="43.2627726" lon="12.3142512"><ele>557.0</ele><time>2026-05-01T08:58:20.467Z</time></trkpt><trkpt lat="43.2626839" lon="12.3142658"><ele>557.0</ele><time>2026-05-01T08:58:21.467Z</time></trkpt><trkpt lat="43.2626005" lon="12.314256"><ele>557.0</ele><time>2026-05-01T08:58:22.467Z</time></trkpt><trkpt lat="43.262522" lon="12.3142237"><ele>557.0</ele><time>2026-05-01T08:58:23.467Z</time></trkpt><trkpt lat="43.2624382" lon="12.3141818"><ele>557.0</ele><time>2026-05-01T08:58:24.467Z</time></trkpt><trkpt lat="43.2623438" lon="12.3141477"><ele>557.0</ele><time>2026-05-01T08:58:25.467Z</time></trkpt><trkpt lat="43.2622322" lon="12.3141442"><ele>556.0</ele><time>2026-05-01T08:58:26.466Z</time></trkpt><trkpt lat="43.2621068" lon="12.314149"><ele>555.0</ele><time>2026-05-01T08:58:27.467Z</time></trkpt><trkpt lat="43.2619948" lon="12.3141564"><ele>554.0</ele><time>2026-05-01T08:58:28.467Z</time></trkpt><trkpt lat="43.2618882" lon="12.3141663"><ele>553.0</ele><time>2026-05-01T08:58:29.467Z</time></trkpt><trkpt lat="43.2617738" lon="12.3141834"><ele>553.0</ele><time>2026-05-01T08:58:30.466Z</time></trkpt><trkpt lat="43.2616726" lon="12.3142081"><ele>553.0</ele><time>2026-05-01T08:58:31.466Z</time></trkpt><trkpt lat="43.2615779" lon="12.3142461"><ele>553.0</ele><time>2026-05-01T08:58:32.466Z</time></trkpt><trkpt lat="43.2614754" lon="12.3142898"><ele>553.0</ele><time>2026-05-01T08:58:33.466Z</time></trkpt><trkpt lat="43.2613764" lon="12.3143292"><ele>553.0</ele><time>2026-05-01T08:58:34.467Z</time></trkpt><trkpt lat="43.2612837" lon="12.3143575"><ele>553.1999999999999</ele><time>2026-05-01T08:58:35.467Z</time></trkpt><trkpt lat="43.2611889" lon="12.3143758"><ele>553.4</ele><time>2026-05-01T08:58:36.467Z</time></trkpt><trkpt lat="43.2611" lon="12.3144022"><ele>553.5999999999999</ele><time>2026-05-01T08:58:37.466Z</time></trkpt><trkpt lat="43.2610053" lon="12.3144326"><ele>553.8</ele><time>2026-05-01T08:58:38.467Z</time></trkpt><trkpt lat="43.2609111" lon="12.3144517"><ele>554.0</ele><time>2026-05-01T08:58:39.467Z</time></trkpt><trkpt lat="43.2608091" lon="12.3144617"><ele>554.0</ele><time>2026-05-01T08:58:40.466Z</time></trkpt><trkpt lat="43.2607013" lon="12.3144795"><ele>554.0</ele><time>2026-05-01T08:58:41.466Z</time></trkpt><trkpt lat="43.2606005" lon="12.3145089"><ele>554.0</ele><time>2026-05-01T08:58:42.467Z</time></trkpt><trkpt lat="43.2605002" lon="12.3145516"><ele>554.0</ele><time>2026-05-01T08:58:43.466Z</time></trkpt><trkpt lat="43.2603995" lon="12.3145897"><ele>554.0</ele><time>2026-05-01T08:58:44.467Z</time></trkpt><trkpt lat="43.2603006" lon="12.3146185"><ele>554.4</ele><time>2026-05-01T08:58:45.467Z</time></trkpt><trkpt lat="43.2602015" lon="12.314654"><ele>554.8</ele><time>2026-05-01T08:58:46.467Z</time></trkpt><trkpt lat="43.2601051" lon="12.3146908"><ele>555.2</ele><time>2026-05-01T08:58:47.467Z</time></trkpt><trkpt lat="43.2600137" lon="12.3147215"><ele>555.6</ele><time>2026-05-01T08:58:48.467Z</time></trkpt><trkpt lat="43.2599145" lon="12.314736"><ele>556.0</ele><time>2026-05-01T08:58:49.466Z</time></trkpt><trkpt lat="43.2598262" lon="12.314751"><ele>550.2</ele><time>2026-05-01T08:58:50.467Z</time></trkpt><trkpt lat="43.2597379" lon="12.3147658"><ele>544.4000000000001</ele><time>2026-05-01T08:58:51.467Z</time></trkpt><trkpt lat="43.2596493" lon="12.3147659"><ele>538.6</ele><time>2026-05-01T08:58:52.467Z</time></trkpt><trkpt lat="43.2595536" lon="12.3147637"><ele>532.8000000000001</ele><time>2026-05-01T08:58:53.467Z</time></trkpt><trkpt lat="43.2594634" lon="12.3147775"><ele>527.0</ele><time>2026-05-01T08:58:54.466Z</time></trkpt><trkpt lat="43.2593717" lon="12.3147869"><ele>527.0</ele><time>2026-05-01T08:58:55.467Z</time></trkpt><trkpt lat="43.2592793" lon="12.3147975"><ele>527.0</ele><time>2026-05-01T08:58:56.467Z</time></trkpt><trkpt lat="43.2591866" lon="12.3148257"><ele>527.0</ele><time>2026-05-01T08:58:57.467Z</time></trkpt><trkpt lat="43.2590899" lon="12.3148708"><ele>527.0</ele><time>2026-05-01T08:58:58.467Z</time></trkpt><trkpt lat="43.2589949" lon="12.3149133"><ele>527.0</ele><time>2026-05-01T08:58:59.467Z</time></trkpt><trkpt lat="43.2589008" lon="12.3149424"><ele>527.4</ele><time>2026-05-01T08:59:00.467Z</time></trkpt><trkpt lat="43.2587988" lon="12.3149679"><ele>527.8000000000001</ele><time>2026-05-01T08:59:01.467Z</time></trkpt><trkpt lat="43.2586975" lon="12.3149957"><ele>528.2</ele><time>2026-05-01T08:59:02.467Z</time></trkpt><trkpt lat="43.2586046" lon="12.3150402"><ele>528.6</ele><time>2026-05-01T08:59:03.467Z</time></trkpt><trkpt lat="43.2585094" lon="12.3150835"><ele>529.0</ele><time>2026-05-01T08:59:04.466Z</time></trkpt><trkpt lat="43.2584189" lon="12.3151267"><ele>529.0</ele><time>2026-05-01T08:59:05.467Z</time></trkpt><trkpt lat="43.2583322" lon="12.3151645"><ele>529.0</ele><time>2026-05-01T08:59:06.466Z</time></trkpt><trkpt lat="43.258244" lon="12.3151926"><ele>529.0</ele><time>2026-05-01T08:59:07.467Z</time></trkpt><trkpt lat="43.2581639" lon="12.3152178"><ele>529.0</ele><time>2026-05-01T08:59:08.466Z</time></trkpt><trkpt lat="43.2580783" lon="12.3152194"><ele>529.0</ele><time>2026-05-01T08:59:09.467Z</time></trkpt><trkpt lat="43.258001" lon="12.3152174"><ele>529.0</ele><time>2026-05-01T08:59:10.467Z</time></trkpt><trkpt lat="43.2579321" lon="12.3151916"><ele>526.6</ele><time>2026-05-01T08:59:11.467Z</time></trkpt><trkpt lat="43.2578599" lon="12.315161"><ele>524.2</ele><time>2026-05-01T08:59:12.467Z</time></trkpt><trkpt lat="43.2577793" lon="12.3151086"><ele>521.8000000000001</ele><time>2026-05-01T08:59:13.467Z</time></trkpt><trkpt lat="43.2576883" lon="12.3150342"><ele>519.4</ele><time>2026-05-01T08:59:14.467Z</time></trkpt><trkpt lat="43.2575933" lon="12.3149471"><ele>517.0</ele><time>2026-05-01T08:59:15.467Z</time></trkpt><trkpt lat="43.2574947" lon="12.314864"><ele>517.0</ele><time>2026-05-01T08:59:16.466Z</time></trkpt><trkpt lat="43.257389" lon="12.3147827"><ele>517.0</ele><time>2026-05-01T08:59:17.466Z</time></trkpt><trkpt lat="43.2572708" lon="12.3147142"><ele>517.0</ele><time>2026-05-01T08:59:18.467Z</time></trkpt><trkpt lat="43.2571515" lon="12.3146529"><ele>517.0</ele><time>2026-05-01T08:59:19.467Z</time></trkpt><trkpt lat="43.2570396" lon="12.3145874"><ele>520.5</ele><time>2026-05-01T08:59:20.467Z</time></trkpt><trkpt lat="43.2569288" lon="12.3145173"><ele>524.0</ele><time>2026-05-01T08:59:21.467Z</time></trkpt><trkpt lat="43.2568201" lon="12.3144374"><ele>527.5</ele><time>2026-05-01T08:59:22.467Z</time></trkpt><trkpt lat="43.2567225" lon="12.3143668"><ele>531.0</ele><time>2026-05-01T08:59:23.466Z</time></trkpt><trkpt lat="43.2566259" lon="12.3142957"><ele>531.0</ele><time>2026-05-01T08:59:24.467Z</time></trkpt><trkpt lat="43.2565272" lon="12.3142443"><ele>531.0</ele><time>2026-05-01T08:59:25.467Z</time></trkpt><trkpt lat="43.2564288" lon="12.314208"><ele>531.0</ele><time>2026-05-01T08:59:26.467Z</time></trkpt><trkpt lat="43.256331" lon="12.3141909"><ele>531.0</ele><time>2026-05-01T08:59:27.467Z</time></trkpt><trkpt lat="43.2562365" lon="12.3141903"><ele>531.0</ele><time>2026-05-01T08:59:28.467Z</time></trkpt><trkpt lat="43.256153" lon="12.3142119"><ele>530.8333333333334</ele><time>2026-05-01T08:59:29.466Z</time></trkpt><trkpt lat="43.256069" lon="12.3142324"><ele>530.6666666666666</ele><time>2026-05-01T08:59:30.467Z</time></trkpt><trkpt lat="43.2560021" lon="12.3142751"><ele>530.5</ele><time>2026-05-01T08:59:31.466Z</time></trkpt><trkpt lat="43.2559442" lon="12.314332"><ele>530.3333333333333</ele><time>2026-05-01T08:59:32.467Z</time></trkpt><trkpt lat="43.2558845" lon="12.3144141"><ele>530.1666666666666</ele><time>2026-05-01T08:59:33.467Z</time></trkpt><trkpt lat="43.2558377" lon="12.3145188"><ele>530.0</ele><time>2026-05-01T08:59:34.466Z</time></trkpt><trkpt lat="43.2557945" lon="12.3146093"><ele>530.0</ele><time>2026-05-01T08:59:35.467Z</time></trkpt><trkpt lat="43.2557373" lon="12.3146968"><ele>530.0</ele><time>2026-05-01T08:59:36.467Z</time></trkpt><trkpt lat="43.2556699" lon="12.3147493"><ele>530.0</ele><time>2026-05-01T08:59:37.466Z</time></trkpt><trkpt lat="43.255602" lon="12.3147936"><ele>530.0</ele><time>2026-05-01T08:59:38.467Z</time></trkpt><trkpt lat="43.2555254" lon="12.3148233"><ele>530.0</ele><time>2026-05-01T08:59:39.467Z</time></trkpt><trkpt lat="43.2554495" lon="12.3148507"><ele>530.0</ele><time>2026-05-01T08:59:40.467Z</time></trkpt><trkpt lat="43.2553677" lon="12.3148865"><ele>528.3333333333333</ele><time>2026-05-01T08:59:41.467Z</time></trkpt><trkpt lat="43.2552958" lon="12.3149149"><ele>526.6666666666666</ele><time>2026-05-01T08:59:42.467Z</time></trkpt><trkpt lat="43.2552336" lon="12.3149374"><ele>525.0</ele><time>2026-05-01T08:59:43.466Z</time></trkpt><trkpt lat="43.2551344" lon="12.3149619"><ele>523.3333333333334</ele><time>2026-05-01T08:59:45.467Z</time></trkpt><trkpt lat="43.2550689" lon="12.3149404"><ele>521.6666666666667</ele><time>2026-05-01T08:59:47.467Z</time></trkpt><trkpt lat="43.254985" lon="12.3149598"><ele>520.0</ele><time>2026-05-01T09:00:31.467Z</time></trkpt><trkpt lat="43.2549252" lon="12.3150259"><ele>520.0</ele><time>2026-05-01T09:00:33.467Z</time></trkpt><trkpt lat="43.254816" lon="12.3151368"><ele>520.0</ele><time>2026-05-01T09:00:35.466Z</time></trkpt><trkpt lat="43.2547521" lon="12.3151999"><ele>520.0</ele><time>2026-05-01T09:00:36.467Z</time></trkpt><trkpt lat="43.2546845" lon="12.3152613"><ele>520.0</ele><time>2026-05-01T09:00:37.467Z</time></trkpt><trkpt lat="43.2546176" lon="12.3153282"><ele>520.0</ele><time>2026-05-01T09:00:38.467Z</time></trkpt><trkpt lat="43.2545496" lon="12.3153977"><ele>518.2</ele><time>2026-05-01T09:00:39.467Z</time></trkpt><trkpt lat="43.254479" lon="12.3154712"><ele>516.4</ele><time>2026-05-01T09:00:40.467Z</time></trkpt><trkpt lat="43.2544007" lon="12.3155472"><ele>514.6</ele><time>2026-05-01T09:00:41.467Z</time></trkpt><trkpt lat="43.2543175" lon="12.3156158"><ele>512.8</ele><time>2026-05-01T09:00:42.467Z</time></trkpt><trkpt lat="43.2542274" lon="12.3156831"><ele>511.0</ele><time>2026-05-01T09:00:43.467Z</time></trkpt><trkpt lat="43.2541327" lon="12.3157513"><ele>510.0</ele><time>2026-05-01T09:00:44.467Z</time></trkpt><trkpt lat="43.2540343" lon="12.3158295"><ele>509.0</ele><time>2026-05-01T09:00:45.466Z</time></trkpt><trkpt lat="43.2539295" lon="12.3159151"><ele>508.0</ele><time>2026-05-01T09:00:46.466Z</time></trkpt><trkpt lat="43.2538295" lon="12.3160183"><ele>507.0</ele><time>2026-05-01T09:00:47.467Z</time></trkpt><trkpt lat="43.2537355" lon="12.3161542"><ele>505.75</ele><time>2026-05-01T09:00:48.467Z</time></trkpt><trkpt lat="43.2536434" lon="12.31629"><ele>504.5</ele><time>2026-05-01T09:00:49.467Z</time></trkpt><trkpt lat="43.2535547" lon="12.3164245"><ele>503.25</ele><time>2026-05-01T09:00:50.466Z</time></trkpt><trkpt lat="43.253482" lon="12.3165564"><ele>502.0</ele><time>2026-05-01T09:00:51.467Z</time></trkpt><trkpt lat="43.2534067" lon="12.3166849"><ele>501.5</ele><time>2026-05-01T09:00:52.467Z</time></trkpt><trkpt lat="43.2533326" lon="12.3168142"><ele>501.0</ele><time>2026-05-01T09:00:53.467Z</time></trkpt><trkpt lat="43.2532725" lon="12.3169528"><ele>500.5</ele><time>2026-05-01T09:00:54.467Z</time></trkpt><trkpt lat="43.2532274" lon="12.3171069"><ele>500.0</ele><time>2026-05-01T09:00:55.466Z</time></trkpt><trkpt lat="43.2531942" lon="12.317263"><ele>498.0</ele><time>2026-05-01T09:00:56.467Z</time></trkpt><trkpt lat="43.2531763" lon="12.3174301"><ele>496.0</ele><time>2026-05-01T09:00:57.466Z</time></trkpt><trkpt lat="43.2531786" lon="12.3175905"><ele>494.0</ele><time>2026-05-01T09:00:58.467Z</time></trkpt><trkpt lat="43.2531922" lon="12.317734"><ele>492.0</ele><time>2026-05-01T09:00:59.467Z</time></trkpt><trkpt lat="43.2532071" lon="12.3178668"><ele>490.0</ele><time>2026-05-01T09:01:00.466Z</time></trkpt><trkpt lat="43.2532209" lon="12.3179758"><ele>489.00000000000006</ele><time>2026-05-01T09:01:01.466Z</time></trkpt><trkpt lat="43.2532159" lon="12.3180889"><ele>488.0</ele><time>2026-05-01T09:01:02.467Z</time></trkpt><trkpt lat="43.253197" lon="12.3181961"><ele>487.0</ele><time>2026-05-01T09:01:03.467Z</time></trkpt><trkpt lat="43.253167" lon="12.3183014"><ele>486.0</ele><time>2026-05-01T09:01:04.467Z</time></trkpt><trkpt lat="43.2531425" lon="12.3183856"><ele>485.00000000000006</ele><time>2026-05-01T09:01:05.466Z</time></trkpt><trkpt lat="43.2531404" lon="12.3185274"><ele>484.0</ele><time>2026-05-01T09:01:07.467Z</time></trkpt><trkpt lat="43.2531855" lon="12.3185901"><ele>484.00000000000006</ele><time>2026-05-01T09:01:08.467Z</time></trkpt><trkpt lat="43.2532488" lon="12.318608"><ele>484.0</ele><time>2026-05-01T09:01:09.466Z</time></trkpt><trkpt lat="43.2533042" lon="12.3185635"><ele>484.0</ele><time>2026-05-01T09:01:10.467Z</time></trkpt><trkpt lat="43.2533555" lon="12.3184824"><ele>484.0</ele><time>2026-05-01T09:01:11.467Z</time></trkpt><trkpt lat="43.2533855" lon="12.3183747"><ele>484.00000000000006</ele><time>2026-05-01T09:01:12.467Z</time></trkpt><trkpt lat="43.2533978" lon="12.3182299"><ele>484.0</ele><time>2026-05-01T09:01:13.467Z</time></trkpt><trkpt lat="43.2533936" lon="12.3180757"><ele>485.2</ele><time>2026-05-01T09:01:14.467Z</time></trkpt><trkpt lat="43.2533941" lon="12.3179269"><ele>486.4</ele><time>2026-05-01T09:01:15.467Z</time></trkpt><trkpt lat="43.2534092" lon="12.3178031"><ele>487.6</ele><time>2026-05-01T09:01:16.467Z</time></trkpt><trkpt lat="43.2534446" lon="12.3176872"><ele>488.8</ele><time>2026-05-01T09:01:17.467Z</time></trkpt><trkpt lat="43.253494" lon="12.3175807"><ele>490.0</ele><time>2026-05-01T09:01:18.467Z</time></trkpt><trkpt lat="43.2535754" lon="12.3174994"><ele>490.0</ele><time>2026-05-01T09:01:19.467Z</time></trkpt><trkpt lat="43.2536763" lon="12.3174243"><ele>490.0</ele><time>2026-05-01T09:01:20.467Z</time></trkpt><trkpt lat="43.2537836" lon="12.3173762"><ele>490.0</ele><time>2026-05-01T09:01:21.467Z</time></trkpt><trkpt lat="43.2539201" lon="12.3173381"><ele>490.0</ele><time>2026-05-01T09:01:22.466Z</time></trkpt><trkpt lat="43.2540487" lon="12.3173101"><ele>489.75</ele><time>2026-05-01T09:01:23.467Z</time></trkpt><trkpt lat="43.254178" lon="12.317278"><ele>489.5</ele><time>2026-05-01T09:01:24.467Z</time></trkpt><trkpt lat="43.2542931" lon="12.3172391"><ele>489.25</ele><time>2026-05-01T09:01:25.467Z</time></trkpt><trkpt lat="43.2544045" lon="12.3171904"><ele>489.0</ele><time>2026-05-01T09:01:26.467Z</time></trkpt><trkpt lat="43.2545099" lon="12.3171261"><ele>489.0</ele><time>2026-05-01T09:01:27.467Z</time></trkpt><trkpt lat="43.2546002" lon="12.3170653"><ele>489.0</ele><time>2026-05-01T09:01:28.467Z</time></trkpt><trkpt lat="43.254683" lon="12.3170124"><ele>489.0</ele><time>2026-05-01T09:01:29.467Z</time></trkpt><trkpt lat="43.2547614" lon="12.316993"><ele>489.0</ele><time>2026-05-01T09:01:30.467Z</time></trkpt><trkpt lat="43.2548416" lon="12.3170209"><ele>489.0</ele><time>2026-05-01T09:01:31.467Z</time></trkpt><trkpt lat="43.2549086" lon="12.3170801"><ele>489.0</ele><time>2026-05-01T09:01:32.467Z</time></trkpt><trkpt lat="43.2549685" lon="12.3171681"><ele>484.6</ele><time>2026-05-01T09:01:33.467Z</time></trkpt><trkpt lat="43.2550064" lon="12.3172887"><ele>480.2</ele><time>2026-05-01T09:01:34.467Z</time></trkpt><trkpt lat="43.2550275" lon="12.3174342"><ele>475.80000000000007</ele><time>2026-05-01T09:01:35.467Z</time></trkpt><trkpt lat="43.2550544" lon="12.3175648"><ele>471.40000000000003</ele><time>2026-05-01T09:01:36.467Z</time></trkpt><trkpt lat="43.2550974" lon="12.3176855"><ele>467.0</ele><time>2026-05-01T09:01:37.467Z</time></trkpt><trkpt lat="43.255167" lon="12.3177981"><ele>467.0</ele><time>2026-05-01T09:01:38.466Z</time></trkpt><trkpt lat="43.2552495" lon="12.3178837"><ele>467.00000000000006</ele><time>2026-05-01T09:01:39.466Z</time></trkpt><trkpt lat="43.2553548" lon="12.3179568"><ele>467.00000000000006</ele><time>2026-05-01T09:01:40.467Z</time></trkpt><trkpt lat="43.2554567" lon="12.3180236"><ele>467.0</ele><time>2026-05-01T09:01:41.467Z</time></trkpt><trkpt lat="43.2555563" lon="12.3180704"><ele>467.0</ele><time>2026-05-01T09:01:42.467Z</time></trkpt><trkpt lat="43.2556632" lon="12.3181066"><ele>467.0</ele><time>2026-05-01T09:01:43.467Z</time></trkpt><trkpt lat="43.2557668" lon="12.3181239"><ele>467.00000000000006</ele><time>2026-05-01T09:01:44.467Z</time></trkpt><trkpt lat="43.2558703" lon="12.3181156"><ele>467.00000000000006</ele><time>2026-05-01T09:01:45.467Z</time></trkpt><trkpt lat="43.2559725" lon="12.3180767"><ele>467.0</ele><time>2026-05-01T09:01:46.467Z</time></trkpt><trkpt lat="43.256071" lon="12.3180076"><ele>467.0</ele><time>2026-05-01T09:01:47.467Z</time></trkpt><trkpt lat="43.2561612" lon="12.3179305"><ele>467.0</ele><time>2026-05-01T09:01:48.467Z</time></trkpt><trkpt lat="43.2562316" lon="12.3178293"><ele>467.00000000000006</ele><time>2026-05-01T09:01:49.467Z</time></trkpt><trkpt lat="43.2562928" lon="12.3177206"><ele>467.00000000000006</ele><time>2026-05-01T09:01:50.466Z</time></trkpt><trkpt lat="43.2563341" lon="12.3176206"><ele>467.0</ele><time>2026-05-01T09:01:51.467Z</time></trkpt><trkpt lat="43.2563677" lon="12.3175235"><ele>467.0</ele><time>2026-05-01T09:01:52.467Z</time></trkpt><trkpt lat="43.2564222" lon="12.3173978"><ele>464.6</ele><time>2026-05-01T09:01:54.467Z</time></trkpt><trkpt lat="43.2565607" lon="12.3173682"><ele>462.20000000000005</ele><time>2026-05-01T09:01:56.467Z</time></trkpt><trkpt lat="43.2566371" lon="12.3174181"><ele>459.8</ele><time>2026-05-01T09:01:57.466Z</time></trkpt><trkpt lat="43.2567114" lon="12.3174811"><ele>457.4</ele><time>2026-05-01T09:01:58.467Z</time></trkpt><trkpt lat="43.2567802" lon="12.3175122"><ele>455.0</ele><time>2026-05-01T09:01:59.467Z</time></trkpt><trkpt lat="43.2568541" lon="12.3175069"><ele>455.0</ele><time>2026-05-01T09:02:00.467Z</time></trkpt><trkpt lat="43.2569653" lon="12.3175194"><ele>455.0</ele><time>2026-05-01T09:02:02.467Z</time></trkpt><trkpt lat="43.2569962" lon="12.3176257"><ele>455.0</ele><time>2026-05-01T09:02:04.467Z</time></trkpt><trkpt lat="43.2569089" lon="12.3177271"><ele>455.0</ele><time>2026-05-01T09:02:06.466Z</time></trkpt><trkpt lat="43.2568402" lon="12.3177201"><ele>455.0</ele><time>2026-05-01T09:02:07.467Z</time></trkpt><trkpt lat="43.2567612" lon="12.3177025"><ele>454.99999999999994</ele><time>2026-05-01T09:02:08.467Z</time></trkpt><trkpt lat="43.2566954" lon="12.3176797"><ele>455.0</ele><time>2026-05-01T09:02:09.467Z</time></trkpt><trkpt lat="43.2565931" lon="12.3177577"><ele>455.0</ele><time>2026-05-01T09:02:11.467Z</time></trkpt><trkpt lat="43.2565659" lon="12.3178551"><ele>455.0</ele><time>2026-05-01T09:02:12.466Z</time></trkpt><trkpt lat="43.25656" lon="12.3179646"><ele>454.99999999999994</ele><time>2026-05-01T09:02:13.467Z</time></trkpt><trkpt lat="43.2565601" lon="12.3180941"><ele>455.0</ele><time>2026-05-01T09:02:14.466Z</time></trkpt><trkpt lat="43.2565722" lon="12.3182518"><ele>452.2</ele><time>2026-05-01T09:02:15.467Z</time></trkpt><trkpt lat="43.2565817" lon="12.3184178"><ele>449.4</ele><time>2026-05-01T09:02:16.467Z</time></trkpt><trkpt lat="43.2565881" lon="12.3185693"><ele>446.6</ele><time>2026-05-01T09:02:17.466Z</time></trkpt><trkpt lat="43.2565857" lon="12.3187086"><ele>443.8</ele><time>2026-05-01T09:02:18.467Z</time></trkpt><trkpt lat="43.2565754" lon="12.3188293"><ele>441.0</ele><time>2026-05-01T09:02:19.467Z</time></trkpt><trkpt lat="43.2565503" lon="12.3189384"><ele>440.1666666666667</ele><time>2026-05-01T09:02:20.466Z</time></trkpt><trkpt lat="43.2565137" lon="12.3190328"><ele>439.33333333333337</ele><time>2026-05-01T09:02:21.466Z</time></trkpt><trkpt lat="43.2564543" lon="12.3191185"><ele>438.5</ele><time>2026-05-01T09:02:22.467Z</time></trkpt><trkpt lat="43.2563736" lon="12.3191939"><ele>437.6666666666667</ele><time>2026-05-01T09:02:23.467Z</time></trkpt><trkpt lat="43.2562916" lon="12.3192638"><ele>436.83333333333337</ele><time>2026-05-01T09:02:24.467Z</time></trkpt><trkpt lat="43.2562147" lon="12.3193249"><ele>436.0</ele><time>2026-05-01T09:02:25.467Z</time></trkpt><trkpt lat="43.2561485" lon="12.3193848"><ele>436.00000000000006</ele><time>2026-05-01T09:02:26.466Z</time></trkpt><trkpt lat="43.2560951" lon="12.3194559"><ele>436.0</ele><time>2026-05-01T09:02:27.467Z</time></trkpt><trkpt lat="43.2560513" lon="12.3195417"><ele>436.0</ele><time>2026-05-01T09:02:28.467Z</time></trkpt><trkpt lat="43.2560227" lon="12.3196513"><ele>436.0</ele><time>2026-05-01T09:02:29.466Z</time></trkpt><trkpt lat="43.2560187" lon="12.3197768"><ele>436.00000000000006</ele><time>2026-05-01T09:02:30.466Z</time></trkpt><trkpt lat="43.2560104" lon="12.3199073"><ele>436.0</ele><time>2026-05-01T09:02:31.466Z</time></trkpt><trkpt lat="43.2560076" lon="12.3200357"><ele>434.1666666666667</ele><time>2026-05-01T09:02:32.467Z</time></trkpt><trkpt lat="43.2560038" lon="12.3201587"><ele>432.33333333333337</ele><time>2026-05-01T09:02:33.467Z</time></trkpt><trkpt lat="43.2560056" lon="12.3202711"><ele>430.5</ele><time>2026-05-01T09:02:34.467Z</time></trkpt><trkpt lat="43.2560088" lon="12.3203834"><ele>428.66666666666663</ele><time>2026-05-01T09:02:35.467Z</time></trkpt><trkpt lat="43.2560061" lon="12.3204998"><ele>426.8333333333333</ele><time>2026-05-01T09:02:36.467Z</time></trkpt><trkpt lat="43.2560049" lon="12.3206128"><ele>425.0</ele><time>2026-05-01T09:02:37.467Z</time></trkpt><trkpt lat="43.2560003" lon="12.320724"><ele>424.16666666666663</ele><time>2026-05-01T09:02:38.467Z</time></trkpt><trkpt lat="43.2559926" lon="12.3208353"><ele>423.3333333333333</ele><time>2026-05-01T09:02:39.466Z</time></trkpt><trkpt lat="43.2559929" lon="12.3209439"><ele>422.5</ele><time>2026-05-01T09:02:40.467Z</time></trkpt><trkpt lat="43.2559923" lon="12.3210505"><ele>421.66666666666663</ele><time>2026-05-01T09:02:41.466Z</time></trkpt><trkpt lat="43.2559842" lon="12.3211631"><ele>420.8333333333333</ele><time>2026-05-01T09:02:42.467Z</time></trkpt><trkpt lat="43.2559679" lon="12.3212857"><ele>420.0</ele><time>2026-05-01T09:02:43.467Z</time></trkpt><trkpt lat="43.2559449" lon="12.3214014"><ele>420.0</ele><time>2026-05-01T09:02:44.467Z</time></trkpt><trkpt lat="43.2559129" lon="12.3215022"><ele>420.0</ele><time>2026-05-01T09:02:45.467Z</time></trkpt><trkpt lat="43.2558715" lon="12.3215989"><ele>420.0</ele><time>2026-05-01T09:02:46.466Z</time></trkpt><trkpt lat="43.25582" lon="12.3217002"><ele>420.0</ele><time>2026-05-01T09:02:47.467Z</time></trkpt><trkpt lat="43.2557642" lon="12.3218088"><ele>420.0</ele><time>2026-05-01T09:02:48.467Z</time></trkpt><trkpt lat="43.2557063" lon="12.3219177"><ele>420.0</ele><time>2026-05-01T09:02:49.466Z</time></trkpt><trkpt lat="43.2556465" lon="12.3220166"><ele>418.14285714285717</ele><time>2026-05-01T09:02:50.467Z</time></trkpt><trkpt lat="43.2555872" lon="12.3221033"><ele>416.2857142857143</ele><time>2026-05-01T09:02:51.467Z</time></trkpt><trkpt lat="43.2555299" lon="12.3221811"><ele>414.42857142857144</ele><time>2026-05-01T09:02:52.467Z</time></trkpt><trkpt lat="43.2554778" lon="12.322244"><ele>412.57142857142856</ele><time>2026-05-01T09:02:53.467Z</time></trkpt><trkpt lat="43.2554388" lon="12.3223248"><ele>410.7142857142857</ele><time>2026-05-01T09:02:54.467Z</time></trkpt><trkpt lat="43.2554217" lon="12.3224187"><ele>408.8571428571429</ele><time>2026-05-01T09:02:55.467Z</time></trkpt><trkpt lat="43.2554258" lon="12.3225087"><ele>407.0</ele><time>2026-05-01T09:02:56.467Z</time></trkpt><trkpt lat="43.2554418" lon="12.3225991"><ele>406.99999999999994</ele><time>2026-05-01T09:02:57.467Z</time></trkpt><trkpt lat="43.2554596" lon="12.3226914"><ele>407.0</ele><time>2026-05-01T09:02:58.467Z</time></trkpt><trkpt lat="43.2554805" lon="12.3227883"><ele>407.0</ele><time>2026-05-01T09:02:59.467Z</time></trkpt><trkpt lat="43.2555074" lon="12.3228929"><ele>407.0</ele><time>2026-05-01T09:03:00.467Z</time></trkpt><trkpt lat="43.2555452" lon="12.3230024"><ele>406.99999999999994</ele><time>2026-05-01T09:03:01.467Z</time></trkpt><trkpt lat="43.2555867" lon="12.3231072"><ele>407.0</ele><time>2026-05-01T09:03:02.467Z</time></trkpt><trkpt lat="43.2556235" lon="12.3232003"><ele>409.0</ele><time>2026-05-01T09:03:03.467Z</time></trkpt><trkpt lat="43.2556605" lon="12.3233522"><ele>411.0</ele><time>2026-05-01T09:03:05.467Z</time></trkpt><trkpt lat="43.2556901" lon="12.3234812"><ele>413.0</ele><time>2026-05-01T09:03:07.466Z</time></trkpt><trkpt lat="43.2557225" lon="12.3235568"><ele>415.0</ele><time>2026-05-01T09:03:09.467Z</time></trkpt><trkpt lat="43.2557601" lon="12.3236316"><ele>417.0</ele><time>2026-05-01T09:08:28.467Z</time></trkpt><trkpt lat="43.2558358" lon="12.323734"><ele>417.0</ele><time>2026-05-01T09:18:47.467Z</time></trkpt><trkpt lat="43.2558868" lon="12.3238821"><ele>417.0</ele><time>2026-05-01T09:18:49.467Z</time></trkpt><trkpt lat="43.2559117" lon="12.3240615"><ele>417.0</ele><time>2026-05-01T09:18:51.466Z</time></trkpt><trkpt lat="43.2559181" lon="12.3241713"><ele>417.0</ele><time>2026-05-01T09:18:52.467Z</time></trkpt><trkpt lat="43.2559186" lon="12.3242849"><ele>417.0</ele><time>2026-05-01T09:18:53.467Z</time></trkpt><trkpt lat="43.2559094" lon="12.3243921"><ele>416.8333333333333</ele><time>2026-05-01T09:18:54.467Z</time></trkpt><trkpt lat="43.2558824" lon="12.324489"><ele>416.66666666666663</ele><time>2026-05-01T09:18:55.466Z</time></trkpt><trkpt lat="43.255838" lon="12.3245833"><ele>416.5</ele><time>2026-05-01T09:18:56.467Z</time></trkpt><trkpt lat="43.2557831" lon="12.3246671"><ele>416.3333333333333</ele><time>2026-05-01T09:18:57.466Z</time></trkpt><trkpt lat="43.2557231" lon="12.3247466"><ele>416.16666666666663</ele><time>2026-05-01T09:18:58.466Z</time></trkpt><trkpt lat="43.2556651" lon="12.324827"><ele>416.0</ele><time>2026-05-01T09:18:59.467Z</time></trkpt><trkpt lat="43.2556143" lon="12.3249193"><ele>418.16666666666663</ele><time>2026-05-01T09:19:00.467Z</time></trkpt><trkpt lat="43.2555741" lon="12.3250179"><ele>420.3333333333333</ele><time>2026-05-01T09:19:01.467Z</time></trkpt><trkpt lat="43.2555478" lon="12.3251235"><ele>422.5</ele><time>2026-05-01T09:19:02.467Z</time></trkpt><trkpt lat="43.2555357" lon="12.3252362"><ele>424.66666666666663</ele><time>2026-05-01T09:19:03.467Z</time></trkpt><trkpt lat="43.2555452" lon="12.3253708"><ele>426.8333333333333</ele><time>2026-05-01T09:19:04.467Z</time></trkpt><trkpt lat="43.2555796" lon="12.3255055"><ele>429.0</ele><time>2026-05-01T09:19:05.467Z</time></trkpt><trkpt lat="43.25562" lon="12.3256361"><ele>427.6666666666667</ele><time>2026-05-01T09:19:06.467Z</time></trkpt><trkpt lat="43.2556514" lon="12.3257547"><ele>426.33333333333337</ele><time>2026-05-01T09:19:07.467Z</time></trkpt><trkpt lat="43.2556722" lon="12.3258702"><ele>425.0</ele><time>2026-05-01T09:19:08.467Z</time></trkpt><trkpt lat="43.2557072" lon="12.3259778"><ele>423.6666666666667</ele><time>2026-05-01T09:19:09.466Z</time></trkpt><trkpt lat="43.2557448" lon="12.3260818"><ele>422.33333333333337</ele><time>2026-05-01T09:19:10.467Z</time></trkpt><trkpt lat="43.2557867" lon="12.3261751"><ele>421.0</ele><time>2026-05-01T09:19:11.467Z</time></trkpt><trkpt lat="43.255841" lon="12.3262744"><ele>421.0</ele><time>2026-05-01T09:19:12.467Z</time></trkpt><trkpt lat="43.2558906" lon="12.3263921"><ele>421.0</ele><time>2026-05-01T09:19:13.467Z</time></trkpt><trkpt lat="43.2559379" lon="12.3265135"><ele>421.0</ele><time>2026-05-01T09:19:14.467Z</time></trkpt><trkpt lat="43.2559899" lon="12.3266275"><ele>421.0</ele><time>2026-05-01T09:19:15.467Z</time></trkpt><trkpt lat="43.2560418" lon="12.3267486"><ele>421.0</ele><time>2026-05-01T09:19:16.466Z</time></trkpt><trkpt lat="43.2560883" lon="12.3268769"><ele>422.8</ele><time>2026-05-01T09:19:17.467Z</time></trkpt><trkpt lat="43.2561263" lon="12.3270097"><ele>424.6</ele><time>2026-05-01T09:19:18.467Z</time></trkpt><trkpt lat="43.2561517" lon="12.3271508"><ele>426.4</ele><time>2026-05-01T09:19:19.466Z</time></trkpt><trkpt lat="43.2561806" lon="12.3272915"><ele>428.2</ele><time>2026-05-01T09:19:20.467Z</time></trkpt><trkpt lat="43.2561949" lon="12.3274303"><ele>430.0</ele><time>2026-05-01T09:19:21.467Z</time></trkpt><trkpt lat="43.2562" lon="12.3275657"><ele>430.0</ele><time>2026-05-01T09:19:22.466Z</time></trkpt><trkpt lat="43.2562123" lon="12.3277013"><ele>430.0</ele><time>2026-05-01T09:19:23.467Z</time></trkpt><trkpt lat="43.2562382" lon="12.3278382"><ele>430.0</ele><time>2026-05-01T09:19:24.467Z</time></trkpt><trkpt lat="43.2562643" lon="12.3279811"><ele>430.0</ele><time>2026-05-01T09:19:25.467Z</time></trkpt><trkpt lat="43.2562939" lon="12.328129"><ele>430.0</ele><time>2026-05-01T09:19:26.467Z</time></trkpt><trkpt lat="43.2563361" lon="12.328279"><ele>430.4</ele><time>2026-05-01T09:19:27.467Z</time></trkpt><trkpt lat="43.2563765" lon="12.328425"><ele>430.8</ele><time>2026-05-01T09:19:28.467Z</time></trkpt><trkpt lat="43.2564193" lon="12.3285677"><ele>431.20000000000005</ele><time>2026-05-01T09:19:29.466Z</time></trkpt><trkpt lat="43.2564647" lon="12.328708"><ele>431.6</ele><time>2026-05-01T09:19:30.467Z</time></trkpt><trkpt lat="43.2565086" lon="12.3288422"><ele>432.0</ele><time>2026-05-01T09:19:31.467Z</time></trkpt><trkpt lat="43.2565593" lon="12.3289784"><ele>432.0</ele><time>2026-05-01T09:19:32.467Z</time></trkpt><trkpt lat="43.2566107" lon="12.3291067"><ele>432.00000000000006</ele><time>2026-05-01T09:19:33.467Z</time></trkpt><trkpt lat="43.256672" lon="12.329224"><ele>432.00000000000006</ele><time>2026-05-01T09:19:34.467Z</time></trkpt><trkpt lat="43.2567377" lon="12.3293205"><ele>432.0</ele><time>2026-05-01T09:19:35.466Z</time></trkpt><trkpt lat="43.2568206" lon="12.3294005"><ele>432.0</ele><time>2026-05-01T09:19:36.467Z</time></trkpt><trkpt lat="43.2569145" lon="12.3294639"><ele>432.0</ele><time>2026-05-01T09:19:37.467Z</time></trkpt><trkpt lat="43.2570063" lon="12.3295217"><ele>432.00000000000006</ele><time>2026-05-01T09:19:38.467Z</time></trkpt><trkpt lat="43.2570979" lon="12.3295743"><ele>432.00000000000006</ele><time>2026-05-01T09:19:39.467Z</time></trkpt><trkpt lat="43.2571822" lon="12.3296305"><ele>432.0</ele><time>2026-05-01T09:19:40.466Z</time></trkpt><trkpt lat="43.2572509" lon="12.3296873"><ele>432.0</ele><time>2026-05-01T09:19:41.466Z</time></trkpt><trkpt lat="43.2573242" lon="12.3297523"><ele>432.6666666666667</ele><time>2026-05-01T09:19:42.466Z</time></trkpt><trkpt lat="43.2573953" lon="12.3298278"><ele>433.33333333333337</ele><time>2026-05-01T09:19:43.466Z</time></trkpt><trkpt lat="43.2574635" lon="12.3299066"><ele>434.0</ele><time>2026-05-01T09:19:44.467Z</time></trkpt><trkpt lat="43.2575172" lon="12.3299832"><ele>434.6666666666667</ele><time>2026-05-01T09:19:45.466Z</time></trkpt><trkpt lat="43.2575675" lon="12.3300668"><ele>435.33333333333337</ele><time>2026-05-01T09:19:46.467Z</time></trkpt><trkpt lat="43.2576129" lon="12.330146"><ele>436.0</ele><time>2026-05-01T09:19:47.467Z</time></trkpt><trkpt lat="43.2576592" lon="12.330223"><ele>436.0</ele><time>2026-05-01T09:19:48.467Z</time></trkpt><trkpt lat="43.2577138" lon="12.3303241"><ele>436.0</ele><time>2026-05-01T09:19:49.467Z</time></trkpt><trkpt lat="43.2577822" lon="12.3304277"><ele>436.0</ele><time>2026-05-01T09:19:50.467Z</time></trkpt><trkpt lat="43.2578548" lon="12.3305277"><ele>436.0</ele><time>2026-05-01T09:19:51.467Z</time></trkpt><trkpt lat="43.2579356" lon="12.3306128"><ele>436.0</ele><time>2026-05-01T09:19:52.467Z</time></trkpt><trkpt lat="43.2580105" lon="12.3306962"><ele>436.6</ele><time>2026-05-01T09:19:53.467Z</time></trkpt><trkpt lat="43.2580756" lon="12.3307985"><ele>437.20000000000005</ele><time>2026-05-01T09:19:54.467Z</time></trkpt><trkpt lat="43.2581396" lon="12.3309134"><ele>437.79999999999995</ele><time>2026-05-01T09:19:55.467Z</time></trkpt><trkpt lat="43.2581981" lon="12.3310261"><ele>438.4</ele><time>2026-05-01T09:19:56.467Z</time></trkpt><trkpt lat="43.2582425" lon="12.3311462"><ele>439.0</ele><time>2026-05-01T09:19:57.467Z</time></trkpt><trkpt lat="43.2582868" lon="12.3312573"><ele>439.00000000000006</ele><time>2026-05-01T09:19:58.467Z</time></trkpt><trkpt lat="43.2583068" lon="12.3313663"><ele>439.0</ele><time>2026-05-01T09:19:59.467Z</time></trkpt><trkpt lat="43.2583196" lon="12.331475"><ele>439.0</ele><time>2026-05-01T09:20:00.466Z</time></trkpt><trkpt lat="43.2583307" lon="12.3315876"><ele>439.0</ele><time>2026-05-01T09:20:01.467Z</time></trkpt><trkpt lat="43.2583401" lon="12.3316968"><ele>439.00000000000006</ele><time>2026-05-01T09:20:02.467Z</time></trkpt><trkpt lat="43.2583512" lon="12.331799"><ele>439.0</ele><time>2026-05-01T09:20:03.467Z</time></trkpt><trkpt lat="43.2583754" lon="12.3318895"><ele>438.33333333333337</ele><time>2026-05-01T09:20:04.467Z</time></trkpt><trkpt lat="43.2584049" lon="12.3319841"><ele>437.6666666666667</ele><time>2026-05-01T09:20:05.467Z</time></trkpt><trkpt lat="43.2584455" lon="12.3320707"><ele>437.0</ele><time>2026-05-01T09:20:06.467Z</time></trkpt><trkpt lat="43.2585121" lon="12.3321422"><ele>436.33333333333337</ele><time>2026-05-01T09:20:07.467Z</time></trkpt><trkpt lat="43.2585916" lon="12.3322119"><ele>435.6666666666667</ele><time>2026-05-01T09:20:08.467Z</time></trkpt><trkpt lat="43.2586873" lon="12.3322718"><ele>435.0</ele><time>2026-05-01T09:20:09.466Z</time></trkpt><trkpt lat="43.2587839" lon="12.3323108"><ele>432.2</ele><time>2026-05-01T09:20:10.467Z</time></trkpt><trkpt lat="43.2588817" lon="12.332365"><ele>429.4</ele><time>2026-05-01T09:20:11.466Z</time></trkpt><trkpt lat="43.2589789" lon="12.3324125"><ele>426.6</ele><time>2026-05-01T09:20:12.467Z</time></trkpt><trkpt lat="43.2590726" lon="12.3324324"><ele>423.8</ele><time>2026-05-01T09:20:13.467Z</time></trkpt><trkpt lat="43.2591681" lon="12.3324573"><ele>421.0</ele><time>2026-05-01T09:20:14.466Z</time></trkpt><trkpt lat="43.2592511" lon="12.3324796"><ele>421.00000000000006</ele><time>2026-05-01T09:20:15.466Z</time></trkpt><trkpt lat="43.2593374" lon="12.3325101"><ele>421.0</ele><time>2026-05-01T09:20:16.466Z</time></trkpt><trkpt lat="43.2594142" lon="12.3325664"><ele>421.0</ele><time>2026-05-01T09:20:17.467Z</time></trkpt><trkpt lat="43.2594854" lon="12.3326268"><ele>421.0</ele><time>2026-05-01T09:20:18.467Z</time></trkpt><trkpt lat="43.2595445" lon="12.3326967"><ele>421.00000000000006</ele><time>2026-05-01T09:20:19.467Z</time></trkpt><trkpt lat="43.2596043" lon="12.3327811"><ele>421.0</ele><time>2026-05-01T09:20:20.466Z</time></trkpt><trkpt lat="43.2596601" lon="12.3328765"><ele>421.00000000000006</ele><time>2026-05-01T09:20:21.467Z</time></trkpt><trkpt lat="43.2597095" lon="12.3329757"><ele>421.0</ele><time>2026-05-01T09:20:22.467Z</time></trkpt><trkpt lat="43.2597497" lon="12.33308"><ele>421.0</ele><time>2026-05-01T09:20:23.467Z</time></trkpt><trkpt lat="43.2597864" lon="12.3331738"><ele>421.0</ele><time>2026-05-01T09:20:24.467Z</time></trkpt><trkpt lat="43.2598061" lon="12.3332697"><ele>421.00000000000006</ele><time>2026-05-01T09:20:25.466Z</time></trkpt><trkpt lat="43.2598168" lon="12.3333681"><ele>421.0</ele><time>2026-05-01T09:20:26.467Z</time></trkpt><trkpt lat="43.2598152" lon="12.3334761"><ele>420.7142857142857</ele><time>2026-05-01T09:20:27.467Z</time></trkpt><trkpt lat="43.2598043" lon="12.3335798"><ele>420.42857142857144</ele><time>2026-05-01T09:20:28.466Z</time></trkpt><trkpt lat="43.2597817" lon="12.3336665"><ele>420.1428571428571</ele><time>2026-05-01T09:20:29.467Z</time></trkpt><trkpt lat="43.2597382" lon="12.3337364"><ele>419.8571428571429</ele><time>2026-05-01T09:20:30.467Z</time></trkpt><trkpt lat="43.2596953" lon="12.333808"><ele>419.57142857142856</ele><time>2026-05-01T09:20:31.467Z</time></trkpt><trkpt lat="43.259647" lon="12.3338731"><ele>419.2857142857143</ele><time>2026-05-01T09:20:32.467Z</time></trkpt><trkpt lat="43.2595989" lon="12.3339435"><ele>419.0</ele><time>2026-05-01T09:20:33.467Z</time></trkpt><trkpt lat="43.2595591" lon="12.3340272"><ele>421.49999999999994</ele><time>2026-05-01T09:20:34.467Z</time></trkpt><trkpt lat="43.2595302" lon="12.3341237"><ele>424.0</ele><time>2026-05-01T09:20:35.467Z</time></trkpt><trkpt lat="43.2595097" lon="12.3342399"><ele>426.5</ele><time>2026-05-01T09:20:36.466Z</time></trkpt><trkpt lat="43.2595008" lon="12.3343562"><ele>429.0</ele><time>2026-05-01T09:20:37.467Z</time></trkpt><trkpt lat="43.2594924" lon="12.3344553"><ele>431.49999999999994</ele><time>2026-05-01T09:20:38.467Z</time></trkpt><trkpt lat="43.2594876" lon="12.3345456"><ele>434.0</ele><time>2026-05-01T09:20:39.467Z</time></trkpt><trkpt lat="43.2594797" lon="12.3346938"><ele>438.4</ele><time>2026-05-01T09:20:41.467Z</time></trkpt><trkpt lat="43.259439" lon="12.3347804"><ele>442.79999999999995</ele><time>2026-05-01T09:20:43.467Z</time></trkpt><trkpt lat="43.2593531" lon="12.3348594"><ele>447.20000000000005</ele><time>2026-05-01T09:20:45.467Z</time></trkpt><trkpt lat="43.2592485" lon="12.33496"><ele>451.6</ele><time>2026-05-01T09:20:47.467Z</time></trkpt><trkpt lat="43.2591908" lon="12.3350297"><ele>456.0</ele><time>2026-05-01T09:20:48.467Z</time></trkpt><trkpt lat="43.2591442" lon="12.3351255"><ele>456.0</ele><time>2026-05-01T09:20:49.467Z</time></trkpt><trkpt lat="43.2590827" lon="12.3352513"><ele>456.0</ele><time>2026-05-01T09:20:50.467Z</time></trkpt><trkpt lat="43.2590203" lon="12.3353773"><ele>456.0</ele><time>2026-05-01T09:20:51.466Z</time></trkpt><trkpt lat="43.2589601" lon="12.3354902"><ele>456.0</ele><time>2026-05-01T09:20:52.467Z</time></trkpt><trkpt lat="43.258897" lon="12.3356073"><ele>456.0</ele><time>2026-05-01T09:20:53.467Z</time></trkpt><trkpt lat="43.2588405" lon="12.3357424"><ele>458.3333333333333</ele><time>2026-05-01T09:20:54.466Z</time></trkpt><trkpt lat="43.2588035" lon="12.3358923"><ele>460.66666666666663</ele><time>2026-05-01T09:20:55.466Z</time></trkpt><trkpt lat="43.2587707" lon="12.3360186"><ele>463.0</ele><time>2026-05-01T09:20:56.467Z</time></trkpt><trkpt lat="43.2587731" lon="12.3361308"><ele>465.3333333333333</ele><time>2026-05-01T09:20:57.467Z</time></trkpt><trkpt lat="43.2587929" lon="12.3362198"><ele>467.66666666666663</ele><time>2026-05-01T09:20:58.467Z</time></trkpt><trkpt lat="43.2588345" lon="12.3362957"><ele>470.0</ele><time>2026-05-01T09:20:59.466Z</time></trkpt><trkpt lat="43.2588897" lon="12.3363634"><ele>472.6</ele><time>2026-05-01T09:21:00.466Z</time></trkpt><trkpt lat="43.2589508" lon="12.3364312"><ele>475.2</ele><time>2026-05-01T09:21:01.467Z</time></trkpt><trkpt lat="43.2590188" lon="12.3365148"><ele>477.79999999999995</ele><time>2026-05-01T09:21:02.467Z</time></trkpt><trkpt lat="43.2591058" lon="12.3365838"><ele>480.4</ele><time>2026-05-01T09:21:03.467Z</time></trkpt><trkpt lat="43.2592099" lon="12.3366463"><ele>483.0</ele><time>2026-05-01T09:21:04.467Z</time></trkpt><trkpt lat="43.2593367" lon="12.3367189"><ele>483.25</ele><time>2026-05-01T09:21:05.467Z</time></trkpt><trkpt lat="43.2594553" lon="12.3367726"><ele>483.5</ele><time>2026-05-01T09:21:06.467Z</time></trkpt><trkpt lat="43.2595688" lon="12.336835"><ele>483.75</ele><time>2026-05-01T09:21:07.466Z</time></trkpt><trkpt lat="43.2596916" lon="12.3368929"><ele>484.0</ele><time>2026-05-01T09:21:08.467Z</time></trkpt><trkpt lat="43.2598277" lon="12.3369417"><ele>484.0</ele><time>2026-05-01T09:21:09.467Z</time></trkpt><trkpt lat="43.2599646" lon="12.3369697"><ele>484.0</ele><time>2026-05-01T09:21:10.466Z</time></trkpt><trkpt lat="43.2600929" lon="12.3369865"><ele>484.0</ele><time>2026-05-01T09:21:11.467Z</time></trkpt><trkpt lat="43.2602078" lon="12.3370087"><ele>484.0</ele><time>2026-05-01T09:21:12.467Z</time></trkpt><trkpt lat="43.2603287" lon="12.3370468"><ele>484.0</ele><time>2026-05-01T09:21:13.467Z</time></trkpt><trkpt lat="43.2604355" lon="12.3371144"><ele>484.0</ele><time>2026-05-01T09:21:14.466Z</time></trkpt><trkpt lat="43.2605443" lon="12.3372179"><ele>484.0</ele><time>2026-05-01T09:21:15.467Z</time></trkpt><trkpt lat="43.2606611" lon="12.3373387"><ele>484.0</ele><time>2026-05-01T09:21:16.467Z</time></trkpt><trkpt lat="43.2607653" lon="12.3374613"><ele>482.75</ele><time>2026-05-01T09:21:17.467Z</time></trkpt><trkpt lat="43.2608504" lon="12.3375798"><ele>481.5</ele><time>2026-05-01T09:21:18.467Z</time></trkpt><trkpt lat="43.2609089" lon="12.3377016"><ele>480.25</ele><time>2026-05-01T09:21:19.467Z</time></trkpt><trkpt lat="43.2609482" lon="12.3378467"><ele>479.0</ele><time>2026-05-01T09:21:20.467Z</time></trkpt><trkpt lat="43.260975" lon="12.338003"><ele>480.0</ele><time>2026-05-01T09:21:21.467Z</time></trkpt><trkpt lat="43.2609953" lon="12.3381823"><ele>481.0</ele><time>2026-05-01T09:21:22.467Z</time></trkpt><trkpt lat="43.2610208" lon="12.338384"><ele>482.0</ele><time>2026-05-01T09:21:23.466Z</time></trkpt><trkpt lat="43.2610474" lon="12.3385957"><ele>483.0</ele><time>2026-05-01T09:21:24.467Z</time></trkpt><trkpt lat="43.2610764" lon="12.3387779"><ele>482.0</ele><time>2026-05-01T09:21:25.466Z</time></trkpt><trkpt lat="43.2611055" lon="12.3389505"><ele>481.0</ele><time>2026-05-01T09:21:26.467Z</time></trkpt><trkpt lat="43.2611325" lon="12.3391077"><ele>480.0</ele><time>2026-05-01T09:21:27.467Z</time></trkpt><trkpt lat="43.2611671" lon="12.3392513"><ele>479.0</ele><time>2026-05-01T09:21:28.467Z</time></trkpt><trkpt lat="43.2611943" lon="12.339397"><ele>478.99999999999994</ele><time>2026-05-01T09:21:29.467Z</time></trkpt><trkpt lat="43.2612211" lon="12.339537"><ele>479.0</ele><time>2026-05-01T09:21:30.467Z</time></trkpt><trkpt lat="43.2612445" lon="12.3396552"><ele>479.0</ele><time>2026-05-01T09:21:31.467Z</time></trkpt><trkpt lat="43.2612552" lon="12.3397482"><ele>479.0</ele><time>2026-05-01T09:21:32.466Z</time></trkpt><trkpt lat="43.261271" lon="12.3398699"><ele>478.99999999999994</ele><time>2026-05-01T09:21:34.466Z</time></trkpt><trkpt lat="43.2612632" lon="12.339973"><ele>479.0</ele><time>2026-05-01T09:21:37.467Z</time></trkpt><trkpt lat="43.2611842" lon="12.3400363"><ele>478.79999999999995</ele><time>2026-05-01T09:21:56.467Z</time></trkpt><trkpt lat="43.2611043" lon="12.3401678"><ele>478.59999999999997</ele><time>2026-05-01T09:21:58.466Z</time></trkpt><trkpt lat="43.2610505" lon="12.3402482"><ele>478.4</ele><time>2026-05-01T09:21:59.467Z</time></trkpt><trkpt lat="43.2609856" lon="12.3403345"><ele>478.2</ele><time>2026-05-01T09:22:00.467Z</time></trkpt><trkpt lat="43.2609176" lon="12.3404117"><ele>478.0</ele><time>2026-05-01T09:22:01.467Z</time></trkpt><trkpt lat="43.2608423" lon="12.3404891"><ele>478.0</ele><time>2026-05-01T09:22:02.467Z</time></trkpt><trkpt lat="43.2607535" lon="12.3405477"><ele>477.99999999999994</ele><time>2026-05-01T09:22:03.467Z</time></trkpt><trkpt lat="43.2606623" lon="12.3405873"><ele>477.99999999999994</ele><time>2026-05-01T09:22:04.467Z</time></trkpt><trkpt lat="43.2605558" lon="12.3406162"><ele>478.0</ele><time>2026-05-01T09:22:05.467Z</time></trkpt><trkpt lat="43.2604439" lon="12.3406382"><ele>478.0</ele><time>2026-05-01T09:22:06.467Z</time></trkpt><trkpt lat="43.2603314" lon="12.3406624"><ele>479.2</ele><time>2026-05-01T09:22:07.467Z</time></trkpt><trkpt lat="43.2602229" lon="12.34068"><ele>480.4</ele><time>2026-05-01T09:22:08.466Z</time></trkpt><trkpt lat="43.2601165" lon="12.3406832"><ele>481.59999999999997</ele><time>2026-05-01T09:22:09.467Z</time></trkpt><trkpt lat="43.2600202" lon="12.3406697"><ele>482.79999999999995</ele><time>2026-05-01T09:22:10.467Z</time></trkpt><trkpt lat="43.2599201" lon="12.3406462"><ele>484.0</ele><time>2026-05-01T09:22:11.467Z</time></trkpt><trkpt lat="43.2598249" lon="12.3406344"><ele>479.6</ele><time>2026-05-01T09:22:12.467Z</time></trkpt><trkpt lat="43.2597328" lon="12.3406412"><ele>475.2</ele><time>2026-05-01T09:22:13.467Z</time></trkpt><trkpt lat="43.2596397" lon="12.3406766"><ele>470.80000000000007</ele><time>2026-05-01T09:22:14.467Z</time></trkpt><trkpt lat="43.2595534" lon="12.3407304"><ele>466.40000000000003</ele><time>2026-05-01T09:22:15.467Z</time></trkpt><trkpt lat="43.2594777" lon="12.3408035"><ele>462.0</ele><time>2026-05-01T09:22:16.467Z</time></trkpt><trkpt lat="43.2594084" lon="12.3408896"><ele>462.0</ele><time>2026-05-01T09:22:17.467Z</time></trkpt><trkpt lat="43.2593481" lon="12.341003"><ele>462.00000000000006</ele><time>2026-05-01T09:22:18.467Z</time></trkpt><trkpt lat="43.2593034" lon="12.3411283"><ele>462.00000000000006</ele><time>2026-05-01T09:22:19.467Z</time></trkpt><trkpt lat="43.2592692" lon="12.3412665"><ele>462.0</ele><time>2026-05-01T09:22:20.467Z</time></trkpt><trkpt lat="43.2592421" lon="12.3414175"><ele>462.0</ele><time>2026-05-01T09:22:21.466Z</time></trkpt><trkpt lat="43.2592351" lon="12.3415739"><ele>463.0</ele><time>2026-05-01T09:22:22.467Z</time></trkpt><trkpt lat="43.2592363" lon="12.3417325"><ele>464.0</ele><time>2026-05-01T09:22:23.467Z</time></trkpt><trkpt lat="43.2592418" lon="12.3419187"><ele>465.0</ele><time>2026-05-01T09:22:24.467Z</time></trkpt><trkpt lat="43.2592158" lon="12.3420793"><ele>466.0</ele><time>2026-05-01T09:22:25.467Z</time></trkpt><trkpt lat="43.2591807" lon="12.3422335"><ele>467.4</ele><time>2026-05-01T09:22:26.467Z</time></trkpt><trkpt lat="43.2591371" lon="12.3423761"><ele>468.8</ele><time>2026-05-01T09:22:27.467Z</time></trkpt><trkpt lat="43.2590772" lon="12.3425077"><ele>470.19999999999993</ele><time>2026-05-01T09:22:28.466Z</time></trkpt><trkpt lat="43.2590192" lon="12.3426358"><ele>471.59999999999997</ele><time>2026-05-01T09:22:29.467Z</time></trkpt><trkpt lat="43.258953" lon="12.3427599"><ele>473.0</ele><time>2026-05-01T09:22:30.466Z</time></trkpt><trkpt lat="43.2588762" lon="12.3428977"><ele>466.5</ele><time>2026-05-01T09:22:31.467Z</time></trkpt><trkpt lat="43.2588078" lon="12.3430344"><ele>460.0</ele><time>2026-05-01T09:22:32.467Z</time></trkpt><trkpt lat="43.2587449" lon="12.3431667"><ele>453.5</ele><time>2026-05-01T09:22:33.466Z</time></trkpt><trkpt lat="43.2586769" lon="12.343296"><ele>447.0</ele><time>2026-05-01T09:22:34.467Z</time></trkpt><trkpt lat="43.2586144" lon="12.3434295"><ele>447.0</ele><time>2026-05-01T09:22:35.467Z</time></trkpt><trkpt lat="43.2585662" lon="12.343566"><ele>447.0</ele><time>2026-05-01T09:22:36.466Z</time></trkpt><trkpt lat="43.2585343" lon="12.3437388"><ele>447.0</ele><time>2026-05-01T09:22:37.467Z</time></trkpt><trkpt lat="43.2585072" lon="12.3439085"><ele>447.0</ele><time>2026-05-01T09:22:38.467Z</time></trkpt><trkpt lat="43.2584796" lon="12.3440715"><ele>448.25</ele><time>2026-05-01T09:22:39.467Z</time></trkpt><trkpt lat="43.2584512" lon="12.3442422"><ele>449.5</ele><time>2026-05-01T09:22:40.467Z</time></trkpt><trkpt lat="43.2584155" lon="12.3444096"><ele>450.75</ele><time>2026-05-01T09:22:41.467Z</time></trkpt><trkpt lat="43.2583677" lon="12.3445657"><ele>452.0</ele><time>2026-05-01T09:22:42.466Z</time></trkpt><trkpt lat="43.2583101" lon="12.3447065"><ele>452.20000000000005</ele><time>2026-05-01T09:22:43.466Z</time></trkpt><trkpt lat="43.2582503" lon="12.3448422"><ele>452.40000000000003</ele><time>2026-05-01T09:22:44.466Z</time></trkpt><trkpt lat="43.2581948" lon="12.3449584"><ele>452.59999999999997</ele><time>2026-05-01T09:22:45.467Z</time></trkpt><trkpt lat="43.258155" lon="12.3450664"><ele>452.79999999999995</ele><time>2026-05-01T09:22:46.467Z</time></trkpt><trkpt lat="43.2581213" lon="12.3451717"><ele>453.0</ele><time>2026-05-01T09:22:47.467Z</time></trkpt><trkpt lat="43.2580883" lon="12.3452656"><ele>448.0</ele><time>2026-05-01T09:22:48.466Z</time></trkpt><trkpt lat="43.2580541" lon="12.3453621"><ele>443.0</ele><time>2026-05-01T09:22:49.466Z</time></trkpt><trkpt lat="43.2580238" lon="12.3454593"><ele>438.0</ele><time>2026-05-01T09:22:50.467Z</time></trkpt><trkpt lat="43.2579972" lon="12.3455484"><ele>433.0</ele><time>2026-05-01T09:22:51.466Z</time></trkpt><trkpt lat="43.2579681" lon="12.3456441"><ele>428.0</ele><time>2026-05-01T09:22:52.467Z</time></trkpt><trkpt lat="43.2579402" lon="12.3457408"><ele>423.0</ele><time>2026-05-01T09:22:53.467Z</time></trkpt><trkpt lat="43.2579094" lon="12.3458396"><ele>423.0</ele><time>2026-05-01T09:22:54.467Z</time></trkpt><trkpt lat="43.257876" lon="12.3459483"><ele>423.0</ele><time>2026-05-01T09:22:55.467Z</time></trkpt><trkpt lat="43.2578457" lon="12.3460599"><ele>423.0</ele><time>2026-05-01T09:22:56.467Z</time></trkpt><trkpt lat="43.2578165" lon="12.3461771"><ele>423.0</ele><time>2026-05-01T09:22:57.467Z</time></trkpt><trkpt lat="43.2577908" lon="12.3462859"><ele>423.0</ele><time>2026-05-01T09:22:58.466Z</time></trkpt><trkpt lat="43.2577729" lon="12.3463932"><ele>423.0</ele><time>2026-05-01T09:22:59.466Z</time></trkpt><trkpt lat="43.2577763" lon="12.3465027"><ele>422.5</ele><time>2026-05-01T09:23:00.467Z</time></trkpt><trkpt lat="43.2577971" lon="12.3466138"><ele>422.0</ele><time>2026-05-01T09:23:01.467Z</time></trkpt><trkpt lat="43.257819" lon="12.3467223"><ele>421.5</ele><time>2026-05-01T09:23:02.467Z</time></trkpt><trkpt lat="43.2578257" lon="12.3468361"><ele>421.0</ele><time>2026-05-01T09:23:03.466Z</time></trkpt><trkpt lat="43.2578048" lon="12.3469536"><ele>420.5</ele><time>2026-05-01T09:23:04.467Z</time></trkpt><trkpt lat="43.2577643" lon="12.3470744"><ele>420.0</ele><time>2026-05-01T09:23:05.467Z</time></trkpt><trkpt lat="43.2576877" lon="12.3471959"><ele>421.3333333333333</ele><time>2026-05-01T09:23:06.466Z</time></trkpt><trkpt lat="43.2576068" lon="12.3472837"><ele>422.66666666666663</ele><time>2026-05-01T09:23:07.467Z</time></trkpt><trkpt lat="43.2575378" lon="12.3473615"><ele>424.0</ele><time>2026-05-01T09:23:08.467Z</time></trkpt><trkpt lat="43.2574696" lon="12.3474323"><ele>425.3333333333333</ele><time>2026-05-01T09:23:09.467Z</time></trkpt><trkpt lat="43.2574049" lon="12.3474994"><ele>426.66666666666663</ele><time>2026-05-01T09:23:10.467Z</time></trkpt><trkpt lat="43.2573413" lon="12.3475651"><ele>428.0</ele><time>2026-05-01T09:23:11.466Z</time></trkpt><trkpt lat="43.2572751" lon="12.3476303"><ele>425.16666666666663</ele><time>2026-05-01T09:23:12.467Z</time></trkpt><trkpt lat="43.2572124" lon="12.3476908"><ele>422.3333333333333</ele><time>2026-05-01T09:23:13.467Z</time></trkpt><trkpt lat="43.2571415" lon="12.3477496"><ele>419.5</ele><time>2026-05-01T09:23:14.467Z</time></trkpt><trkpt lat="43.2570716" lon="12.3478171"><ele>416.66666666666663</ele><time>2026-05-01T09:23:15.466Z</time></trkpt><trkpt lat="43.2570072" lon="12.3479135"><ele>413.8333333333333</ele><time>2026-05-01T09:23:16.467Z</time></trkpt><trkpt lat="43.2569446" lon="12.3480199"><ele>411.0</ele><time>2026-05-01T09:23:17.467Z</time></trkpt><trkpt lat="43.2568814" lon="12.3481474"><ele>411.0</ele><time>2026-05-01T09:23:18.467Z</time></trkpt><trkpt lat="43.2568267" lon="12.3482738"><ele>411.0</ele><time>2026-05-01T09:23:19.466Z</time></trkpt><trkpt lat="43.256778" lon="12.3484172"><ele>411.0</ele><time>2026-05-01T09:23:20.466Z</time></trkpt><trkpt lat="43.2567482" lon="12.3485606"><ele>411.0</ele><time>2026-05-01T09:23:21.467Z</time></trkpt><trkpt lat="43.256732" lon="12.3486991"><ele>411.0</ele><time>2026-05-01T09:23:22.467Z</time></trkpt><trkpt lat="43.2567253" lon="12.3488201"><ele>411.42857142857144</ele><time>2026-05-01T09:23:23.466Z</time></trkpt><trkpt lat="43.2567183" lon="12.34891"><ele>411.85714285714283</ele><time>2026-05-01T09:23:24.467Z</time></trkpt><trkpt lat="43.2567087" lon="12.3490326"><ele>412.28571428571433</ele><time>2026-05-01T09:23:26.467Z</time></trkpt><trkpt lat="43.2566418" lon="12.3490775"><ele>412.7142857142857</ele><time>2026-05-01T09:23:29.466Z</time></trkpt><trkpt lat="43.2565646" lon="12.3490694"><ele>413.14285714285717</ele><time>2026-05-01T09:23:32.466Z</time></trkpt><trkpt lat="43.2565126" lon="12.3490102"><ele>413.5714285714286</ele><time>2026-05-01T09:23:35.467Z</time></trkpt><trkpt lat="43.2565773" lon="12.3489618"><ele>414.0</ele><time>2026-05-01T09:24:26.466Z</time></trkpt><trkpt lat="43.2566154" lon="12.3490424"><ele>414.0</ele><time>2026-05-01T09:24:34.467Z</time></trkpt><trkpt lat="43.2566935" lon="12.3490726"><ele>414.0</ele><time>2026-05-01T09:24:38.466Z</time></trkpt><trkpt lat="43.256724" lon="12.3491675"><ele>414.0</ele><time>2026-05-01T09:24:41.466Z</time></trkpt><trkpt lat="43.2567262" lon="12.3493143"><ele>414.0</ele><time>2026-05-01T09:24:43.467Z</time></trkpt><trkpt lat="43.2568008" lon="12.3494538"><ele>414.0</ele><time>2026-05-01T09:24:45.467Z</time></trkpt><trkpt lat="43.2568679" lon="12.3495237"><ele>414.0</ele><time>2026-05-01T09:24:46.467Z</time></trkpt><trkpt lat="43.2569387" lon="12.3496022"><ele>414.0</ele><time>2026-05-01T09:24:47.467Z</time></trkpt><trkpt lat="43.2570079" lon="12.3496754"><ele>414.0</ele><time>2026-05-01T09:24:48.467Z</time></trkpt><trkpt lat="43.257083" lon="12.3497473"><ele>414.0</ele><time>2026-05-01T09:24:49.467Z</time></trkpt><trkpt lat="43.257152" lon="12.34981"><ele>414.0</ele><time>2026-05-01T09:24:50.467Z</time></trkpt><trkpt lat="43.2572123" lon="12.3498734"><ele>414.0</ele><time>2026-05-01T09:24:51.466Z</time></trkpt><trkpt lat="43.257258" lon="12.3499529"><ele>412.8333333333333</ele><time>2026-05-01T09:24:52.467Z</time></trkpt><trkpt lat="43.257265" lon="12.3500405"><ele>411.66666666666663</ele><time>2026-05-01T09:24:53.467Z</time></trkpt><trkpt lat="43.2572439" lon="12.3501325"><ele>410.5</ele><time>2026-05-01T09:24:54.466Z</time></trkpt><trkpt lat="43.2571932" lon="12.3502021"><ele>409.3333333333333</ele><time>2026-05-01T09:24:55.466Z</time></trkpt><trkpt lat="43.2571067" lon="12.3502477"><ele>408.16666666666663</ele><time>2026-05-01T09:24:56.467Z</time></trkpt><trkpt lat="43.2569907" lon="12.3502676"><ele>407.0</ele><time>2026-05-01T09:24:57.467Z</time></trkpt><trkpt lat="43.2568614" lon="12.3502747"><ele>407.0</ele><time>2026-05-01T09:24:58.467Z</time></trkpt><trkpt lat="43.2567288" lon="12.3502726"><ele>407.0</ele><time>2026-05-01T09:24:59.467Z</time></trkpt><trkpt lat="43.2566084" lon="12.350268"><ele>407.0</ele><time>2026-05-01T09:25:00.467Z</time></trkpt><trkpt lat="43.256498" lon="12.3502592"><ele>407.0</ele><time>2026-05-01T09:25:01.467Z</time></trkpt><trkpt lat="43.2563874" lon="12.3502649"><ele>403.8</ele><time>2026-05-01T09:25:02.467Z</time></trkpt><trkpt lat="43.2562775" lon="12.3502833"><ele>400.6</ele><time>2026-05-01T09:25:03.467Z</time></trkpt><trkpt lat="43.2561678" lon="12.3503283"><ele>397.40000000000003</ele><time>2026-05-01T09:25:04.467Z</time></trkpt><trkpt lat="43.2560692" lon="12.3503882"><ele>394.20000000000005</ele><time>2026-05-01T09:25:05.466Z</time></trkpt><trkpt lat="43.2560063" lon="12.3504483"><ele>391.0</ele><time>2026-05-01T09:25:06.467Z</time></trkpt><trkpt lat="43.2559224" lon="12.3505162"><ele>392.57142857142856</ele><time>2026-05-01T09:25:08.467Z</time></trkpt><trkpt lat="43.255851" lon="12.3505549"><ele>394.1428571428571</ele><time>2026-05-01T09:25:10.467Z</time></trkpt><trkpt lat="43.2557904" lon="12.3505909"><ele>395.71428571428567</ele><time>2026-05-01T09:25:12.466Z</time></trkpt><trkpt lat="43.2557323" lon="12.3506266"><ele>397.2857142857143</ele><time>2026-05-01T09:25:14.466Z</time></trkpt><trkpt lat="43.255706" lon="12.3507058"><ele>398.8571428571429</ele><time>2026-05-01T09:25:18.466Z</time></trkpt><trkpt lat="43.2557864" lon="12.3507142"><ele>400.4285714285714</ele><time>2026-05-01T09:25:21.467Z</time></trkpt><trkpt lat="43.2558459" lon="12.3506788"><ele>402.0</ele><time>2026-05-01T09:25:22.467Z</time></trkpt><trkpt lat="43.2559089" lon="12.3506454"><ele>402.0</ele><time>2026-05-01T09:25:23.467Z</time></trkpt><trkpt lat="43.2560074" lon="12.350628"><ele>402.0</ele><time>2026-05-01T09:25:25.467Z</time></trkpt><trkpt lat="43.2560967" lon="12.3506998"><ele>402.0</ele><time>2026-05-01T09:25:27.467Z</time></trkpt><trkpt lat="43.2562151" lon="12.350782"><ele>402.0</ele><time>2026-05-01T09:25:29.467Z</time></trkpt><trkpt lat="43.2562851" lon="12.3508059"><ele>402.0</ele><time>2026-05-01T09:25:30.467Z</time></trkpt><trkpt lat="43.2563641" lon="12.3508282"><ele>402.0</ele><time>2026-05-01T09:25:31.467Z</time></trkpt><trkpt lat="43.2564496" lon="12.3508474"><ele>402.0</ele><time>2026-05-01T09:25:32.467Z</time></trkpt><trkpt lat="43.2565697" lon="12.3508703"><ele>402.0</ele><time>2026-05-01T09:25:33.467Z</time></trkpt><trkpt lat="43.2566843" lon="12.3508886"><ele>402.0</ele><time>2026-05-01T09:25:34.467Z</time></trkpt><trkpt lat="43.2567932" lon="12.3509191"><ele>402.0</ele><time>2026-05-01T09:25:35.466Z</time></trkpt><trkpt lat="43.2568873" lon="12.3509471"><ele>403.6666666666667</ele><time>2026-05-01T09:25:36.467Z</time></trkpt><trkpt lat="43.2569697" lon="12.3509789"><ele>405.33333333333337</ele><time>2026-05-01T09:25:37.467Z</time></trkpt><trkpt lat="43.2570526" lon="12.3510263"><ele>407.0</ele><time>2026-05-01T09:25:38.466Z</time></trkpt><trkpt lat="43.2571216" lon="12.3510832"><ele>408.6666666666667</ele><time>2026-05-01T09:25:39.467Z</time></trkpt><trkpt lat="43.2571882" lon="12.351139"><ele>410.33333333333337</ele><time>2026-05-01T09:25:40.467Z</time></trkpt><trkpt lat="43.2572532" lon="12.3511893"><ele>412.0</ele><time>2026-05-01T09:25:41.467Z</time></trkpt><trkpt lat="43.2573187" lon="12.3512377"><ele>412.6666666666667</ele><time>2026-05-01T09:25:42.467Z</time></trkpt><trkpt lat="43.2573788" lon="12.35129"><ele>413.33333333333337</ele><time>2026-05-01T09:25:43.467Z</time></trkpt><trkpt lat="43.2574111" lon="12.3514195"><ele>414.0</ele><time>2026-05-01T09:25:45.467Z</time></trkpt><trkpt lat="43.2573526" lon="12.3514847"><ele>414.66666666666663</ele><time>2026-05-01T09:25:46.467Z</time></trkpt><trkpt lat="43.257284" lon="12.3515308"><ele>415.3333333333333</ele><time>2026-05-01T09:25:47.467Z</time></trkpt><trkpt lat="43.2572007" lon="12.3515515"><ele>416.0</ele><time>2026-05-01T09:25:48.467Z</time></trkpt><trkpt lat="43.2571068" lon="12.3515749"><ele>415.99999999999994</ele><time>2026-05-01T09:25:49.467Z</time></trkpt><trkpt lat="43.2570056" lon="12.351596"><ele>416.0</ele><time>2026-05-01T09:25:50.466Z</time></trkpt><trkpt lat="43.2569114" lon="12.3516138"><ele>416.0</ele><time>2026-05-01T09:25:51.467Z</time></trkpt><trkpt lat="43.2568198" lon="12.3516391"><ele>416.0</ele><time>2026-05-01T09:25:52.467Z</time></trkpt><trkpt lat="43.2567464" lon="12.3516746"><ele>415.99999999999994</ele><time>2026-05-01T09:25:53.466Z</time></trkpt><trkpt lat="43.256679" lon="12.3517241"><ele>416.0</ele><time>2026-05-01T09:25:54.466Z</time></trkpt><trkpt lat="43.256624" lon="12.3517832"><ele>416.0</ele><time>2026-05-01T09:25:55.467Z</time></trkpt><trkpt lat="43.2565717" lon="12.3518627"><ele>416.0</ele><time>2026-05-01T09:25:56.467Z</time></trkpt><trkpt lat="43.25653" lon="12.3519559"><ele>416.0</ele><time>2026-05-01T09:25:57.467Z</time></trkpt><trkpt lat="43.256493" lon="12.3520416"><ele>416.0</ele><time>2026-05-01T09:25:58.467Z</time></trkpt><trkpt lat="43.2564675" lon="12.3521229"><ele>416.0</ele><time>2026-05-01T09:25:59.467Z</time></trkpt><trkpt lat="43.2564433" lon="12.3522043"><ele>416.0</ele><time>2026-05-01T09:26:00.467Z</time></trkpt><trkpt lat="43.2564258" lon="12.3522877"><ele>416.0</ele><time>2026-05-01T09:26:01.466Z</time></trkpt><trkpt lat="43.2564133" lon="12.3523812"><ele>415.99999999999994</ele><time>2026-05-01T09:26:03.467Z</time></trkpt><trkpt lat="43.2564238" lon="12.3522747"><ele>416.0</ele><time>2026-05-01T09:26:16.467Z</time></trkpt><trkpt lat="43.2564367" lon="12.352184"><ele>416.0</ele><time>2026-05-01T09:26:17.466Z</time></trkpt><trkpt lat="43.2564584" lon="12.3520882"><ele>416.0</ele><time>2026-05-01T09:26:18.467Z</time></trkpt><trkpt lat="43.2564934" lon="12.352007"><ele>415.99999999999994</ele><time>2026-05-01T09:26:19.467Z</time></trkpt><trkpt lat="43.2565308" lon="12.3519319"><ele>416.0</ele><time>2026-05-01T09:26:20.467Z</time></trkpt><trkpt lat="43.2566048" lon="12.351804"><ele>416.0</ele><time>2026-05-01T09:26:22.467Z</time></trkpt><trkpt lat="43.2566521" lon="12.351745"><ele>416.0</ele><time>2026-05-01T09:26:23.467Z</time></trkpt><trkpt lat="43.2567741" lon="12.3516831"><ele>416.0</ele><time>2026-05-01T09:26:25.467Z</time></trkpt><trkpt lat="43.2568686" lon="12.3516577"><ele>416.0</ele><time>2026-05-01T09:26:26.466Z</time></trkpt><trkpt lat="43.2569644" lon="12.3516447"><ele>416.0</ele><time>2026-05-01T09:26:27.467Z</time></trkpt><trkpt lat="43.2570544" lon="12.3516288"><ele>415.99999999999994</ele><time>2026-05-01T09:26:28.467Z</time></trkpt><trkpt lat="43.2571424" lon="12.3516122"><ele>416.0</ele><time>2026-05-01T09:26:29.467Z</time></trkpt><trkpt lat="43.2572196" lon="12.3515951"><ele>416.0</ele><time>2026-05-01T09:26:30.467Z</time></trkpt><trkpt lat="43.2572825" lon="12.3515612"><ele>416.0</ele><time>2026-05-01T09:26:31.467Z</time></trkpt><trkpt lat="43.257376" lon="12.3514413"><ele>415.99999999999994</ele><time>2026-05-01T09:26:33.467Z</time></trkpt><trkpt lat="43.2574031" lon="12.3513555"><ele>416.0</ele><time>2026-05-01T09:26:34.467Z</time></trkpt><trkpt lat="43.2574053" lon="12.3512684"><ele>415.20000000000005</ele><time>2026-05-01T09:26:35.467Z</time></trkpt><trkpt lat="43.2573438" lon="12.3511934"><ele>414.40000000000003</ele><time>2026-05-01T09:26:36.467Z</time></trkpt><trkpt lat="43.257242" lon="12.351117"><ele>413.6</ele><time>2026-05-01T09:26:37.467Z</time></trkpt><trkpt lat="43.2571429" lon="12.3510509"><ele>412.8</ele><time>2026-05-01T09:26:38.467Z</time></trkpt><trkpt lat="43.2570388" lon="12.3509893"><ele>412.0</ele><time>2026-05-01T09:26:39.467Z</time></trkpt><trkpt lat="43.2569203" lon="12.3509351"><ele>412.0</ele><time>2026-05-01T09:26:40.467Z</time></trkpt><trkpt lat="43.2567944" lon="12.3509013"><ele>412.0</ele><time>2026-05-01T09:26:41.467Z</time></trkpt><trkpt lat="43.2566623" lon="12.3508675"><ele>412.0</ele><time>2026-05-01T09:26:42.466Z</time></trkpt><trkpt lat="43.2565313" lon="12.3508402"><ele>412.0</ele><time>2026-05-01T09:26:43.466Z</time></trkpt><trkpt lat="43.2564108" lon="12.3508146"><ele>410.33333333333337</ele><time>2026-05-01T09:26:44.467Z</time></trkpt><trkpt lat="43.2563038" lon="12.3507874"><ele>408.6666666666667</ele><time>2026-05-01T09:26:45.466Z</time></trkpt><trkpt lat="43.256223" lon="12.3507489"><ele>407.0</ele><time>2026-05-01T09:26:46.467Z</time></trkpt><trkpt lat="43.2561522" lon="12.3507115"><ele>405.33333333333337</ele><time>2026-05-01T09:26:47.466Z</time></trkpt><trkpt lat="43.2560912" lon="12.3506694"><ele>403.6666666666667</ele><time>2026-05-01T09:26:48.467Z</time></trkpt><trkpt lat="43.2560074" lon="12.3505912"><ele>402.0</ele><time>2026-05-01T09:26:50.466Z</time></trkpt><trkpt lat="43.2560112" lon="12.3504928"><ele>403.0</ele><time>2026-05-01T09:26:52.466Z</time></trkpt><trkpt lat="43.2561023" lon="12.3503835"><ele>404.0</ele><time>2026-05-01T09:26:54.467Z</time></trkpt><trkpt lat="43.2561845" lon="12.3503456"><ele>405.0</ele><time>2026-05-01T09:26:55.467Z</time></trkpt><trkpt lat="43.2562869" lon="12.3503095"><ele>406.0</ele><time>2026-05-01T09:26:56.467Z</time></trkpt><trkpt lat="43.2563969" lon="12.3502873"><ele>407.0</ele><time>2026-05-01T09:26:57.467Z</time></trkpt><trkpt lat="43.2565144" lon="12.3502884"><ele>407.0</ele><time>2026-05-01T09:26:58.467Z</time></trkpt><trkpt lat="43.2566423" lon="12.3503038"><ele>407.0</ele><time>2026-05-01T09:26:59.467Z</time></trkpt><trkpt lat="43.2567674" lon="12.350311"><ele>407.0</ele><time>2026-05-01T09:27:00.467Z</time></trkpt><trkpt lat="43.2568922" lon="12.3503113"><ele>407.0</ele><time>2026-05-01T09:27:01.466Z</time></trkpt><trkpt lat="43.2569916" lon="12.3503016"><ele>406.99999999999994</ele><time>2026-05-01T09:27:02.466Z</time></trkpt><trkpt lat="43.2570698" lon="12.3502841"><ele>407.0</ele><time>2026-05-01T09:27:03.466Z</time></trkpt><trkpt lat="43.2571402" lon="12.3502483"><ele>407.0</ele><time>2026-05-01T09:27:04.466Z</time></trkpt><trkpt lat="43.2572075" lon="12.3501866"><ele>407.0</ele><time>2026-05-01T09:27:05.467Z</time></trkpt><trkpt lat="43.2572478" lon="12.3500981"><ele>406.99999999999994</ele><time>2026-05-01T09:27:06.466Z</time></trkpt><trkpt lat="43.2572426" lon="12.3499893"><ele>407.0</ele><time>2026-05-01T09:27:07.467Z</time></trkpt><trkpt lat="43.2572123" lon="12.3498826"><ele>407.0</ele><time>2026-05-01T09:27:08.467Z</time></trkpt><trkpt lat="43.2571549" lon="12.3497896"><ele>407.0</ele><time>2026-05-01T09:27:09.467Z</time></trkpt><trkpt lat="43.2570735" lon="12.3497066"><ele>407.0</ele><time>2026-05-01T09:27:10.467Z</time></trkpt><trkpt lat="43.2569835" lon="12.349628"><ele>407.0</ele><time>2026-05-01T09:27:11.467Z</time></trkpt><trkpt lat="43.2568947" lon="12.3495469"><ele>407.0</ele><time>2026-05-01T09:27:12.467Z</time></trkpt><trkpt lat="43.2568182" lon="12.3494692"><ele>408.16666666666663</ele><time>2026-05-01T09:27:13.467Z</time></trkpt><trkpt lat="43.2567588" lon="12.3493971"><ele>409.3333333333333</ele><time>2026-05-01T09:27:14.467Z</time></trkpt><trkpt lat="43.256722" lon="12.3493225"><ele>410.5</ele><time>2026-05-01T09:27:15.467Z</time></trkpt><trkpt lat="43.2566959" lon="12.3491691"><ele>411.66666666666663</ele><time>2026-05-01T09:27:17.467Z</time></trkpt><trkpt lat="43.2566833" lon="12.3490755"><ele>412.8333333333333</ele><time>2026-05-01T09:27:19.466Z</time></trkpt><trkpt lat="43.2566856" lon="12.3491933"><ele>414.0</ele><time>2026-05-01T09:29:02.466Z</time></trkpt><trkpt lat="43.2567072" lon="12.3493315"><ele>414.0</ele><time>2026-05-01T09:29:04.467Z</time></trkpt><trkpt lat="43.2567917" lon="12.3494847"><ele>414.0</ele><time>2026-05-01T09:29:06.466Z</time></trkpt><trkpt lat="43.2568588" lon="12.3495554"><ele>414.0</ele><time>2026-05-01T09:29:07.466Z</time></trkpt><trkpt lat="43.2569341" lon="12.3496196"><ele>414.0</ele><time>2026-05-01T09:29:08.466Z</time></trkpt><trkpt lat="43.2570094" lon="12.3496844"><ele>414.0</ele><time>2026-05-01T09:29:09.467Z</time></trkpt><trkpt lat="43.2570855" lon="12.3497516"><ele>412.8333333333333</ele><time>2026-05-01T09:29:10.467Z</time></trkpt><trkpt lat="43.2571502" lon="12.3498182"><ele>411.66666666666663</ele><time>2026-05-01T09:29:11.467Z</time></trkpt><trkpt lat="43.2572094" lon="12.3498911"><ele>410.5</ele><time>2026-05-01T09:29:12.467Z</time></trkpt><trkpt lat="43.2572443" lon="12.3499697"><ele>409.3333333333333</ele><time>2026-05-01T09:29:13.467Z</time></trkpt><trkpt lat="43.2572551" lon="12.350063"><ele>408.16666666666663</ele><time>2026-05-01T09:29:14.467Z</time></trkpt><trkpt lat="43.2571785" lon="12.3502052"><ele>407.0</ele><time>2026-05-01T09:29:16.467Z</time></trkpt><trkpt lat="43.2570985" lon="12.3502468"><ele>407.0</ele><time>2026-05-01T09:29:17.467Z</time></trkpt><trkpt lat="43.2569849" lon="12.3502757"><ele>407.0</ele><time>2026-05-01T09:29:18.467Z</time></trkpt><trkpt lat="43.2568544" lon="12.3502799"><ele>407.0</ele><time>2026-05-01T09:29:19.467Z</time></trkpt><trkpt lat="43.2567203" lon="12.3502745"><ele>407.0</ele><time>2026-05-01T09:29:20.467Z</time></trkpt><trkpt lat="43.2565941" lon="12.3502685"><ele>407.0</ele><time>2026-05-01T09:29:21.467Z</time></trkpt><trkpt lat="43.256479" lon="12.3502553"><ele>407.0</ele><time>2026-05-01T09:29:22.467Z</time></trkpt><trkpt lat="43.2563645" lon="12.3502535"><ele>407.0</ele><time>2026-05-01T09:29:23.467Z</time></trkpt><trkpt lat="43.2562578" lon="12.3502812"><ele>407.0</ele><time>2026-05-01T09:29:24.467Z</time></trkpt><trkpt lat="43.2561478" lon="12.3503301"><ele>406.0</ele><time>2026-05-01T09:29:25.467Z</time></trkpt><trkpt lat="43.2560456" lon="12.3504058"><ele>405.0</ele><time>2026-05-01T09:29:26.466Z</time></trkpt><trkpt lat="43.2559588" lon="12.3504818"><ele>404.0</ele><time>2026-05-01T09:29:27.467Z</time></trkpt><trkpt lat="43.2558641" lon="12.3505487"><ele>403.0</ele><time>2026-05-01T09:29:28.467Z</time></trkpt><trkpt lat="43.25576" lon="12.3506109"><ele>402.0</ele><time>2026-05-01T09:29:29.466Z</time></trkpt><trkpt lat="43.2556507" lon="12.3506666"><ele>400.0</ele><time>2026-05-01T09:29:30.467Z</time></trkpt><trkpt lat="43.2555437" lon="12.3507195"><ele>398.0</ele><time>2026-05-01T09:29:31.466Z</time></trkpt><trkpt lat="43.2554489" lon="12.3507584"><ele>396.0</ele><time>2026-05-01T09:29:32.467Z</time></trkpt><trkpt lat="43.2553652" lon="12.3507944"><ele>394.0</ele><time>2026-05-01T09:29:33.466Z</time></trkpt><trkpt lat="43.2552938" lon="12.3508252"><ele>392.0</ele><time>2026-05-01T09:29:34.467Z</time></trkpt><trkpt lat="43.2552282" lon="12.3508554"><ele>390.0</ele><time>2026-05-01T09:29:35.467Z</time></trkpt><trkpt lat="43.25513" lon="12.3509157"><ele>390.0</ele><time>2026-05-01T09:29:37.467Z</time></trkpt><trkpt lat="43.2550511" lon="12.3509813"><ele>390.0</ele><time>2026-05-01T09:29:39.466Z</time></trkpt><trkpt lat="43.254963" lon="12.3510865"><ele>390.0</ele><time>2026-05-01T09:29:41.467Z</time></trkpt><trkpt lat="43.2548777" lon="12.3512057"><ele>390.0</ele><time>2026-05-01T09:29:43.467Z</time></trkpt><trkpt lat="43.2548164" lon="12.3513338"><ele>390.0</ele><time>2026-05-01T09:29:45.467Z</time></trkpt><trkpt lat="43.2547673" lon="12.3514456"><ele>390.0</ele><time>2026-05-01T09:29:47.467Z</time></trkpt><trkpt lat="43.2547215" lon="12.3515269"><ele>390.0</ele><time>2026-05-01T09:29:50.466Z</time></trkpt><trkpt lat="43.2547096" lon="12.3514413"><ele>390.0</ele><time>2026-05-01T09:29:53.466Z</time></trkpt><trkpt lat="43.2547273" lon="12.3513358"><ele>390.0</ele><time>2026-05-01T09:29:55.467Z</time></trkpt><trkpt lat="43.2548004" lon="12.3512521"><ele>390.0</ele><time>2026-05-01T09:29:56.467Z</time></trkpt><trkpt lat="43.2548645" lon="12.3511609"><ele>390.0</ele><time>2026-05-01T09:29:57.467Z</time></trkpt><trkpt lat="43.2549374" lon="12.3510719"><ele>390.0</ele><time>2026-05-01T09:29:58.467Z</time></trkpt><trkpt lat="43.2550133" lon="12.3509965"><ele>390.0</ele><time>2026-05-01T09:29:59.467Z</time></trkpt><trkpt lat="43.2550992" lon="12.3509281"><ele>390.0</ele><time>2026-05-01T09:30:00.466Z</time></trkpt><trkpt lat="43.2552002" lon="12.3508652"><ele>390.0</ele><time>2026-05-01T09:30:01.467Z</time></trkpt><trkpt lat="43.2553053" lon="12.3508062"><ele>390.0</ele><time>2026-05-01T09:30:02.467Z</time></trkpt><trkpt lat="43.255421" lon="12.3507558"><ele>390.0</ele><time>2026-05-01T09:30:03.467Z</time></trkpt><trkpt lat="43.2555259" lon="12.3507167"><ele>390.0</ele><time>2026-05-01T09:30:04.467Z</time></trkpt><trkpt lat="43.255624" lon="12.3506788"><ele>390.0</ele><time>2026-05-01T09:30:05.467Z</time></trkpt><trkpt lat="43.2557138" lon="12.3506327"><ele>390.0</ele><time>2026-05-01T09:30:06.466Z</time></trkpt><trkpt lat="43.2557917" lon="12.3505867"><ele>390.0</ele><time>2026-05-01T09:30:07.466Z</time></trkpt><trkpt lat="43.2558626" lon="12.3505492"><ele>390.2</ele><time>2026-05-01T09:30:08.467Z</time></trkpt><trkpt lat="43.2559352" lon="12.3505011"><ele>390.4</ele><time>2026-05-01T09:30:09.467Z</time></trkpt><trkpt lat="43.2560103" lon="12.3504494"><ele>390.6</ele><time>2026-05-01T09:30:10.467Z</time></trkpt><trkpt lat="43.2560899" lon="12.3503892"><ele>390.8</ele><time>2026-05-01T09:30:11.466Z</time></trkpt><trkpt lat="43.2561805" lon="12.3503326"><ele>391.0</ele><time>2026-05-01T09:30:12.466Z</time></trkpt><trkpt lat="43.2562849" lon="12.3502959"><ele>391.0</ele><time>2026-05-01T09:30:13.467Z</time></trkpt><trkpt lat="43.2564025" lon="12.350284"><ele>391.0</ele><time>2026-05-01T09:30:14.467Z</time></trkpt><trkpt lat="43.2565322" lon="12.3502877"><ele>391.0</ele><time>2026-05-01T09:30:15.467Z</time></trkpt><trkpt lat="43.2566628" lon="12.3502955"><ele>391.0</ele><time>2026-05-01T09:30:16.467Z</time></trkpt><trkpt lat="43.2567942" lon="12.3502995"><ele>393.6666666666667</ele><time>2026-05-01T09:30:17.467Z</time></trkpt><trkpt lat="43.2569085" lon="12.350298"><ele>396.33333333333337</ele><time>2026-05-01T09:30:18.467Z</time></trkpt><trkpt lat="43.2570014" lon="12.3502934"><ele>399.0</ele><time>2026-05-01T09:30:19.466Z</time></trkpt><trkpt lat="43.2570856" lon="12.3502737"><ele>401.66666666666663</ele><time>2026-05-01T09:30:20.467Z</time></trkpt><trkpt lat="43.2571587" lon="12.3502369"><ele>404.3333333333333</ele><time>2026-05-01T09:30:21.467Z</time></trkpt><trkpt lat="43.2572181" lon="12.3501729"><ele>407.0</ele><time>2026-05-01T09:30:22.467Z</time></trkpt><trkpt lat="43.2572541" lon="12.3500869"><ele>406.99999999999994</ele><time>2026-05-01T09:30:23.466Z</time></trkpt><trkpt lat="43.2572566" lon="12.3499828"><ele>407.0</ele><time>2026-05-01T09:30:24.467Z</time></trkpt><trkpt lat="43.2572355" lon="12.3498753"><ele>407.0</ele><time>2026-05-01T09:30:25.467Z</time></trkpt><trkpt lat="43.2571881" lon="12.3497852"><ele>407.0</ele><time>2026-05-01T09:30:26.467Z</time></trkpt><trkpt lat="43.2571033" lon="12.349708"><ele>406.99999999999994</ele><time>2026-05-01T09:30:27.467Z</time></trkpt><trkpt lat="43.2570187" lon="12.3496272"><ele>407.0</ele><time>2026-05-01T09:30:28.467Z</time></trkpt><trkpt lat="43.2569203" lon="12.3495388"><ele>408.16666666666663</ele><time>2026-05-01T09:30:29.466Z</time></trkpt><trkpt lat="43.2568322" lon="12.3494582"><ele>409.3333333333333</ele><time>2026-05-01T09:30:30.467Z</time></trkpt><trkpt lat="43.2567704" lon="12.3493796"><ele>410.5</ele><time>2026-05-01T09:30:31.467Z</time></trkpt><trkpt lat="43.2567331" lon="12.349286"><ele>411.66666666666663</ele><time>2026-05-01T09:30:32.467Z</time></trkpt><trkpt lat="43.2567239" lon="12.3492001"><ele>412.8333333333333</ele><time>2026-05-01T09:30:33.467Z</time></trkpt><trkpt lat="43.2567036" lon="12.3490898"><ele>414.0</ele><time>2026-05-01T09:30:35.467Z</time></trkpt><trkpt lat="43.2566276" lon="12.3490667"><ele>414.0</ele><time>2026-05-01T09:30:38.467Z</time></trkpt><trkpt lat="43.2565599" lon="12.3490349"><ele>414.0</ele><time>2026-05-01T09:30:41.467Z</time></trkpt><trkpt lat="43.2565408" lon="12.3489124"><ele>414.0</ele><time>2026-05-01T09:30:43.466Z</time></trkpt><trkpt lat="43.2565476" lon="12.3487818"><ele>414.0</ele><time>2026-05-01T09:30:45.467Z</time></trkpt><trkpt lat="43.2565517" lon="12.3486589"><ele>414.0</ele><time>2026-05-01T09:30:47.467Z</time></trkpt><trkpt lat="43.2565514" lon="12.3485639"><ele>414.0</ele><time>2026-05-01T09:30:49.466Z</time></trkpt><trkpt lat="43.2565319" lon="12.3484548"><ele>413.5</ele><time>2026-05-01T09:30:52.467Z</time></trkpt><trkpt lat="43.2564711" lon="12.3484215"><ele>413.0</ele><time>2026-05-01T09:31:21.467Z</time></trkpt><trkpt lat="43.2564325" lon="12.348514"><ele>412.5</ele><time>2026-05-01T09:31:23.467Z</time></trkpt><trkpt lat="43.2564104" lon="12.3486169"><ele>412.0</ele><time>2026-05-01T09:31:25.466Z</time></trkpt><trkpt lat="43.2563987" lon="12.3487259"><ele>411.5</ele><time>2026-05-01T09:31:27.467Z</time></trkpt><trkpt lat="43.2563716" lon="12.3488559"><ele>411.0</ele><time>2026-05-01T09:31:29.466Z</time></trkpt><trkpt lat="43.2563468" lon="12.3489922"><ele>406.8</ele><time>2026-05-01T09:31:31.467Z</time></trkpt><trkpt lat="43.2563281" lon="12.349134"><ele>402.6</ele><time>2026-05-01T09:31:33.466Z</time></trkpt><trkpt lat="43.2563477" lon="12.3492599"><ele>398.4</ele><time>2026-05-01T09:31:35.466Z</time></trkpt><trkpt lat="43.2563843" lon="12.3493938"><ele>394.2</ele><time>2026-05-01T09:31:37.467Z</time></trkpt><trkpt lat="43.2564122" lon="12.3495019"><ele>390.0</ele><time>2026-05-01T09:31:39.467Z</time></trkpt><trkpt lat="43.2563723" lon="12.349617"><ele>390.0</ele><time>2026-05-01T09:31:42.467Z</time></trkpt><trkpt lat="43.2562879" lon="12.3496323"><ele>390.0</ele><time>2026-05-01T09:31:44.467Z</time></trkpt><trkpt lat="43.2562195" lon="12.3496417"><ele>390.0</ele><time>2026-05-01T09:31:45.466Z</time></trkpt><trkpt lat="43.2561525" lon="12.3496403"><ele>390.0</ele><time>2026-05-01T09:31:46.466Z</time></trkpt><trkpt lat="43.2560831" lon="12.3496327"><ele>390.0</ele><time>2026-05-01T09:31:47.466Z</time></trkpt><trkpt lat="43.2560066" lon="12.3496189"><ele>390.0</ele><time>2026-05-01T09:31:48.467Z</time></trkpt><trkpt lat="43.2559269" lon="12.3496133"><ele>390.0</ele><time>2026-05-01T09:31:49.467Z</time></trkpt><trkpt lat="43.2558483" lon="12.3496089"><ele>390.0</ele><time>2026-05-01T09:31:50.467Z</time></trkpt><trkpt lat="43.2557795" lon="12.3495926"><ele>390.0</ele><time>2026-05-01T09:31:51.467Z</time></trkpt><trkpt lat="43.2557166" lon="12.3495678"><ele>390.0</ele><time>2026-05-01T09:31:52.467Z</time></trkpt><trkpt lat="43.2556507" lon="12.3495492"><ele>390.0</ele><time>2026-05-01T09:31:53.467Z</time></trkpt><trkpt lat="43.2555349" lon="12.349533"><ele>390.0</ele><time>2026-05-01T09:31:55.467Z</time></trkpt><trkpt lat="43.2554261" lon="12.3495601"><ele>390.0</ele><time>2026-05-01T09:31:57.466Z</time></trkpt><trkpt lat="43.255324" lon="12.349615"><ele>387.8333333333333</ele><time>2026-05-01T09:31:59.467Z</time></trkpt><trkpt lat="43.2552217" lon="12.3496914"><ele>385.6666666666667</ele><time>2026-05-01T09:32:01.466Z</time></trkpt><trkpt lat="43.2551125" lon="12.3497626"><ele>383.5</ele><time>2026-05-01T09:32:03.467Z</time></trkpt><trkpt lat="43.2550523" lon="12.3497904"><ele>381.33333333333337</ele><time>2026-05-01T09:32:04.466Z</time></trkpt><trkpt lat="43.2549846" lon="12.3498227"><ele>379.1666666666667</ele><time>2026-05-01T09:32:05.467Z</time></trkpt><trkpt lat="43.2549167" lon="12.3498451"><ele>377.0</ele><time>2026-05-01T09:32:06.467Z</time></trkpt><trkpt lat="43.254843" lon="12.349858"><ele>374.1428571428571</ele><time>2026-05-01T09:32:07.467Z</time></trkpt><trkpt lat="43.2547685" lon="12.3498658"><ele>371.2857142857143</ele><time>2026-05-01T09:32:08.467Z</time></trkpt><trkpt lat="43.2546943" lon="12.3498716"><ele>368.42857142857144</ele><time>2026-05-01T09:32:09.467Z</time></trkpt><trkpt lat="43.254619" lon="12.3498686"><ele>365.57142857142856</ele><time>2026-05-01T09:32:10.466Z</time></trkpt><trkpt lat="43.2545529" lon="12.349848"><ele>362.7142857142857</ele><time>2026-05-01T09:32:11.467Z</time></trkpt><trkpt lat="43.2544831" lon="12.3498223"><ele>359.85714285714283</ele><time>2026-05-01T09:32:12.466Z</time></trkpt><trkpt lat="43.2544092" lon="12.3498027"><ele>357.0</ele><time>2026-05-01T09:32:13.466Z</time></trkpt><trkpt lat="43.2543387" lon="12.3497723"><ele>357.0</ele><time>2026-05-01T09:32:14.467Z</time></trkpt><trkpt lat="43.2542709" lon="12.3497626"><ele>357.0</ele><time>2026-05-01T09:32:15.467Z</time></trkpt><trkpt lat="43.2542035" lon="12.3497633"><ele>357.0</ele><time>2026-05-01T09:32:16.467Z</time></trkpt><trkpt lat="43.2541323" lon="12.3497549"><ele>357.0</ele><time>2026-05-01T09:32:17.467Z</time></trkpt><trkpt lat="43.2540153" lon="12.3497433"><ele>357.0</ele><time>2026-05-01T09:32:19.466Z</time></trkpt><trkpt lat="43.2539147" lon="12.3497406"><ele>357.0</ele><time>2026-05-01T09:32:21.467Z</time></trkpt><trkpt lat="43.2538324" lon="12.3496757"><ele>354.40000000000003</ele><time>2026-05-01T09:32:23.467Z</time></trkpt><trkpt lat="43.2537405" lon="12.3495708"><ele>351.8</ele><time>2026-05-01T09:32:25.466Z</time></trkpt><trkpt lat="43.2536632" lon="12.3494765"><ele>349.2</ele><time>2026-05-01T09:32:27.467Z</time></trkpt><trkpt lat="43.2535921" lon="12.3493364"><ele>346.6</ele><time>2026-05-01T09:32:29.467Z</time></trkpt><trkpt lat="43.2535572" lon="12.3492556"><ele>344.0</ele><time>2026-05-01T09:32:30.466Z</time></trkpt><trkpt lat="43.2535221" lon="12.3491732"><ele>344.0</ele><time>2026-05-01T09:32:31.466Z</time></trkpt><trkpt lat="43.253485" lon="12.34908"><ele>344.0</ele><time>2026-05-01T09:32:32.467Z</time></trkpt><trkpt lat="43.2534566" lon="12.3489987"><ele>344.0</ele><time>2026-05-01T09:32:33.466Z</time></trkpt><trkpt lat="43.2534096" lon="12.3488832"><ele>344.0</ele><time>2026-05-01T09:32:35.466Z</time></trkpt><trkpt lat="43.253315" lon="12.348794"><ele>344.0</ele><time>2026-05-01T09:32:38.467Z</time></trkpt><trkpt lat="43.2532299" lon="12.3488374"><ele>344.0</ele><time>2026-05-01T09:32:40.466Z</time></trkpt><trkpt lat="43.2531546" lon="12.3489827"><ele>344.0</ele><time>2026-05-01T09:32:42.466Z</time></trkpt><trkpt lat="43.2531284" lon="12.3490709"><ele>344.0</ele><time>2026-05-01T09:32:43.467Z</time></trkpt><trkpt lat="43.2531031" lon="12.3491788"><ele>344.0</ele><time>2026-05-01T09:32:44.467Z</time></trkpt><trkpt lat="43.2530754" lon="12.3492708"><ele>344.0</ele><time>2026-05-01T09:32:45.467Z</time></trkpt><trkpt lat="43.2530331" lon="12.3493498"><ele>344.0</ele><time>2026-05-01T09:32:46.467Z</time></trkpt><trkpt lat="43.2529885" lon="12.3494169"><ele>344.0</ele><time>2026-05-01T09:32:47.467Z</time></trkpt><trkpt lat="43.2528967" lon="12.3495246"><ele>339.83333333333337</ele><time>2026-05-01T09:32:49.467Z</time></trkpt><trkpt lat="43.2527843" lon="12.3495778"><ele>335.6666666666667</ele><time>2026-05-01T09:32:51.467Z</time></trkpt><trkpt lat="43.2527181" lon="12.3495691"><ele>331.5</ele><time>2026-05-01T09:32:52.467Z</time></trkpt><trkpt lat="43.2526487" lon="12.3495493"><ele>327.3333333333333</ele><time>2026-05-01T09:32:53.467Z</time></trkpt><trkpt lat="43.2525825" lon="12.3495146"><ele>323.16666666666663</ele><time>2026-05-01T09:32:54.466Z</time></trkpt><trkpt lat="43.2525162" lon="12.3494873"><ele>319.0</ele><time>2026-05-01T09:32:55.467Z</time></trkpt><trkpt lat="43.2524555" lon="12.3494575"><ele>319.0</ele><time>2026-05-01T09:32:56.467Z</time></trkpt><trkpt lat="43.2523357" lon="12.3494267"><ele>319.0</ele><time>2026-05-01T09:32:58.467Z</time></trkpt><trkpt lat="43.2522207" lon="12.3494327"><ele>319.0</ele><time>2026-05-01T09:33:00.467Z</time></trkpt><trkpt lat="43.2521236" lon="12.3494544"><ele>319.0</ele><time>2026-05-01T09:33:02.467Z</time></trkpt><trkpt lat="43.2520523" lon="12.3495398"><ele>319.0</ele><time>2026-05-01T09:33:04.467Z</time></trkpt><trkpt lat="43.2520632" lon="12.3496951"><ele>316.16666666666663</ele><time>2026-05-01T09:33:06.467Z</time></trkpt><trkpt lat="43.2520896" lon="12.3497788"><ele>313.3333333333333</ele><time>2026-05-01T09:33:07.466Z</time></trkpt><trkpt lat="43.2521345" lon="12.3499278"><ele>310.5</ele><time>2026-05-01T09:33:09.467Z</time></trkpt><trkpt lat="43.2521577" lon="12.3500436"><ele>307.6666666666667</ele><time>2026-05-01T09:33:11.467Z</time></trkpt><trkpt lat="43.2521147" lon="12.3501617"><ele>304.83333333333337</ele><time>2026-05-01T09:33:13.467Z</time></trkpt><trkpt lat="43.2520584" lon="12.350206"><ele>302.0</ele><time>2026-05-01T09:33:14.466Z</time></trkpt><trkpt lat="43.2519886" lon="12.3502303"><ele>302.0</ele><time>2026-05-01T09:33:15.466Z</time></trkpt><trkpt lat="43.2519178" lon="12.3502532"><ele>302.0</ele><time>2026-05-01T09:33:16.467Z</time></trkpt><trkpt lat="43.2518446" lon="12.3502596"><ele>302.0</ele><time>2026-05-01T09:33:17.466Z</time></trkpt><trkpt lat="43.251766" lon="12.3502568"><ele>302.0</ele><time>2026-05-01T09:33:18.467Z</time></trkpt><trkpt lat="43.2516844" lon="12.3502641"><ele>302.0</ele><time>2026-05-01T09:33:19.467Z</time></trkpt><trkpt lat="43.2516043" lon="12.3502735"><ele>302.0</ele><time>2026-05-01T09:33:20.467Z</time></trkpt><trkpt lat="43.2515301" lon="12.3502889"><ele>302.00000000000006</ele><time>2026-05-01T09:33:21.467Z</time></trkpt><trkpt lat="43.2514636" lon="12.3503089"><ele>302.0</ele><time>2026-05-01T09:33:22.467Z</time></trkpt><trkpt lat="43.2513955" lon="12.3503287"><ele>302.0</ele><time>2026-05-01T09:33:23.466Z</time></trkpt><trkpt lat="43.2513298" lon="12.3503458"><ele>302.0</ele><time>2026-05-01T09:33:24.467Z</time></trkpt><trkpt lat="43.251264" lon="12.3503583"><ele>302.0</ele><time>2026-05-01T09:33:25.467Z</time></trkpt><trkpt lat="43.2511944" lon="12.3503578"><ele>302.00000000000006</ele><time>2026-05-01T09:33:26.466Z</time></trkpt><trkpt lat="43.2511206" lon="12.3503374"><ele>302.0</ele><time>2026-05-01T09:33:27.467Z</time></trkpt><trkpt lat="43.2510386" lon="12.3503023"><ele>300.1666666666667</ele><time>2026-05-01T09:33:28.466Z</time></trkpt><trkpt lat="43.2509572" lon="12.3502704"><ele>298.33333333333337</ele><time>2026-05-01T09:33:29.466Z</time></trkpt><trkpt lat="43.2508788" lon="12.3502369"><ele>296.5</ele><time>2026-05-01T09:33:30.467Z</time></trkpt><trkpt lat="43.2507992" lon="12.3502113"><ele>294.6666666666667</ele><time>2026-05-01T09:33:31.467Z</time></trkpt><trkpt lat="43.2507177" lon="12.3502001"><ele>292.8333333333333</ele><time>2026-05-01T09:33:32.466Z</time></trkpt><trkpt lat="43.2506404" lon="12.3502053"><ele>291.0</ele><time>2026-05-01T09:33:33.467Z</time></trkpt><trkpt lat="43.2505662" lon="12.3502237"><ele>290.1428571428571</ele><time>2026-05-01T09:33:34.467Z</time></trkpt><trkpt lat="43.2504928" lon="12.3502576"><ele>289.2857142857143</ele><time>2026-05-01T09:33:35.467Z</time></trkpt><trkpt lat="43.250429" lon="12.3502965"><ele>288.42857142857144</ele><time>2026-05-01T09:33:36.467Z</time></trkpt><trkpt lat="43.2503559" lon="12.3503172"><ele>287.57142857142856</ele><time>2026-05-01T09:33:37.467Z</time></trkpt><trkpt lat="43.2502887" lon="12.3503116"><ele>286.7142857142857</ele><time>2026-05-01T09:33:38.467Z</time></trkpt><trkpt lat="43.2502242" lon="12.3502859"><ele>285.85714285714283</ele><time>2026-05-01T09:33:39.467Z</time></trkpt><trkpt lat="43.2501551" lon="12.3502668"><ele>285.0</ele><time>2026-05-01T09:33:40.466Z</time></trkpt><trkpt lat="43.2500851" lon="12.3502563"><ele>285.0</ele><time>2026-05-01T09:33:41.467Z</time></trkpt><trkpt lat="43.2500187" lon="12.3502501"><ele>285.0</ele><time>2026-05-01T09:33:42.467Z</time></trkpt><trkpt lat="43.2499496" lon="12.350255"><ele>285.0</ele><time>2026-05-01T09:33:43.466Z</time></trkpt><trkpt lat="43.2498802" lon="12.3502685"><ele>285.0</ele><time>2026-05-01T09:33:44.467Z</time></trkpt><trkpt lat="43.2498062" lon="12.3502626"><ele>285.0</ele><time>2026-05-01T09:33:45.467Z</time></trkpt><trkpt lat="43.249731" lon="12.3502567"><ele>285.0</ele><time>2026-05-01T09:33:46.467Z</time></trkpt><trkpt lat="43.249653" lon="12.3502393"><ele>285.0</ele><time>2026-05-01T09:33:47.467Z</time></trkpt><trkpt lat="43.2495758" lon="12.350225"><ele>283.57142857142856</ele><time>2026-05-01T09:33:48.466Z</time></trkpt><trkpt lat="43.2495041" lon="12.3502142"><ele>282.14285714285717</ele><time>2026-05-01T09:33:49.467Z</time></trkpt><trkpt lat="43.2494305" lon="12.3502031"><ele>280.7142857142857</ele><time>2026-05-01T09:33:50.467Z</time></trkpt><trkpt lat="43.2493552" lon="12.350191"><ele>279.2857142857143</ele><time>2026-05-01T09:33:51.467Z</time></trkpt><trkpt lat="43.2492811" lon="12.3501762"><ele>277.85714285714283</ele><time>2026-05-01T09:33:52.467Z</time></trkpt><trkpt lat="43.249208" lon="12.3501605"><ele>276.42857142857144</ele><time>2026-05-01T09:33:53.466Z</time></trkpt><trkpt lat="43.2491377" lon="12.3501528"><ele>275.0</ele><time>2026-05-01T09:33:54.467Z</time></trkpt><trkpt lat="43.2490682" lon="12.3501514"><ele>275.0</ele><time>2026-05-01T09:33:55.466Z</time></trkpt><trkpt lat="43.2489994" lon="12.3501487"><ele>275.0</ele><time>2026-05-01T09:33:56.467Z</time></trkpt><trkpt lat="43.2489343" lon="12.3501601"><ele>275.0</ele><time>2026-05-01T09:33:57.467Z</time></trkpt><trkpt lat="43.2488694" lon="12.3501855"><ele>275.0</ele><time>2026-05-01T09:33:58.467Z</time></trkpt><trkpt lat="43.248773" lon="12.3502766"><ele>275.0</ele><time>2026-05-01T09:34:00.467Z</time></trkpt><trkpt lat="43.2487087" lon="12.3503982"><ele>275.0</ele><time>2026-05-01T09:34:02.467Z</time></trkpt><trkpt lat="43.2486529" lon="12.3505304"><ele>272.83333333333337</ele><time>2026-05-01T09:34:04.467Z</time></trkpt><trkpt lat="43.2485677" lon="12.3506515"><ele>270.6666666666667</ele><time>2026-05-01T09:34:06.467Z</time></trkpt><trkpt lat="43.2485023" lon="12.3507026"><ele>268.5</ele><time>2026-05-01T09:34:07.466Z</time></trkpt><trkpt lat="43.2484416" lon="12.3507596"><ele>266.3333333333333</ele><time>2026-05-01T09:34:08.466Z</time></trkpt><trkpt lat="43.2483821" lon="12.3508125"><ele>264.16666666666663</ele><time>2026-05-01T09:34:09.466Z</time></trkpt><trkpt lat="43.2483264" lon="12.3508603"><ele>262.0</ele><time>2026-05-01T09:34:10.467Z</time></trkpt><trkpt lat="43.2482721" lon="12.3509108"><ele>262.0</ele><time>2026-05-01T09:34:11.467Z</time></trkpt><trkpt lat="43.2481551" lon="12.3509656"><ele>262.0</ele><time>2026-05-01T09:34:13.467Z</time></trkpt><trkpt lat="43.2480446" lon="12.3510111"><ele>262.0</ele><time>2026-05-01T09:34:15.467Z</time></trkpt><trkpt lat="43.2479762" lon="12.351067"><ele>262.0</ele><time>2026-05-01T09:34:17.467Z</time></trkpt><trkpt lat="43.2479073" lon="12.3511335"><ele>262.0</ele><time>2026-05-01T09:34:21.467Z</time></trkpt><trkpt lat="43.2478629" lon="12.3512109"><ele>262.5</ele><time>2026-05-01T09:34:23.466Z</time></trkpt><trkpt lat="43.2478451" lon="12.3513161"><ele>263.0</ele><time>2026-05-01T09:34:25.466Z</time></trkpt><trkpt lat="43.2478948" lon="12.3514775"><ele>263.5</ele><time>2026-05-01T09:34:27.467Z</time></trkpt><trkpt lat="43.2479365" lon="12.3515635"><ele>264.0</ele><time>2026-05-01T09:34:28.466Z</time></trkpt><trkpt lat="43.2479789" lon="12.3516448"><ele>264.5</ele><time>2026-05-01T09:34:29.467Z</time></trkpt><trkpt lat="43.2480221" lon="12.3517399"><ele>265.0</ele><time>2026-05-01T09:34:30.466Z</time></trkpt><trkpt lat="43.2480627" lon="12.3518413"><ele>264.66666666666663</ele><time>2026-05-01T09:34:31.467Z</time></trkpt><trkpt lat="43.2481062" lon="12.3519409"><ele>264.3333333333333</ele><time>2026-05-01T09:34:32.467Z</time></trkpt><trkpt lat="43.2481461" lon="12.3520548"><ele>264.0</ele><time>2026-05-01T09:34:33.467Z</time></trkpt><trkpt lat="43.2481876" lon="12.3521768"><ele>263.6666666666667</ele><time>2026-05-01T09:34:34.466Z</time></trkpt><trkpt lat="43.2482231" lon="12.3522719"><ele>263.33333333333337</ele><time>2026-05-01T09:34:35.466Z</time></trkpt><trkpt lat="43.2482476" lon="12.3523645"><ele>263.0</ele><time>2026-05-01T09:34:36.466Z</time></trkpt><trkpt lat="43.2482674" lon="12.3524602"><ele>263.0</ele><time>2026-05-01T09:34:37.467Z</time></trkpt><trkpt lat="43.248275" lon="12.3525729"><ele>263.0</ele><time>2026-05-01T09:34:38.467Z</time></trkpt><trkpt lat="43.2482795" lon="12.352688"><ele>263.0</ele><time>2026-05-01T09:34:39.466Z</time></trkpt><trkpt lat="43.2482904" lon="12.3528109"><ele>263.0</ele><time>2026-05-01T09:34:40.467Z</time></trkpt><trkpt lat="43.2483008" lon="12.3529384"><ele>263.0</ele><time>2026-05-01T09:34:41.466Z</time></trkpt><trkpt lat="43.248307" lon="12.3530549"><ele>263.0</ele><time>2026-05-01T09:34:42.466Z</time></trkpt><trkpt lat="43.2483103" lon="12.3531638"><ele>262.5</ele><time>2026-05-01T09:34:43.467Z</time></trkpt><trkpt lat="43.248306" lon="12.3532684"><ele>262.0</ele><time>2026-05-01T09:34:44.467Z</time></trkpt><trkpt lat="43.2482992" lon="12.3533843"><ele>261.5</ele><time>2026-05-01T09:34:45.467Z</time></trkpt><trkpt lat="43.2482893" lon="12.353495"><ele>261.0</ele><time>2026-05-01T09:34:46.467Z</time></trkpt><trkpt lat="43.2482649" lon="12.3536214"><ele>260.5</ele><time>2026-05-01T09:34:47.467Z</time></trkpt><trkpt lat="43.2482323" lon="12.3537616"><ele>260.0</ele><time>2026-05-01T09:34:48.466Z</time></trkpt><trkpt lat="43.2481964" lon="12.3538992"><ele>260.0</ele><time>2026-05-01T09:34:49.467Z</time></trkpt><trkpt lat="43.2481625" lon="12.3540374"><ele>260.0</ele><time>2026-05-01T09:34:50.467Z</time></trkpt><trkpt lat="43.2481294" lon="12.3541826"><ele>260.0</ele><time>2026-05-01T09:34:51.467Z</time></trkpt><trkpt lat="43.2481062" lon="12.3543168"><ele>260.0</ele><time>2026-05-01T09:34:52.466Z</time></trkpt><trkpt lat="43.2480889" lon="12.3544323"><ele>260.0</ele><time>2026-05-01T09:34:53.467Z</time></trkpt><trkpt lat="43.2480707" lon="12.3545466"><ele>260.5</ele><time>2026-05-01T09:34:54.467Z</time></trkpt><trkpt lat="43.248047" lon="12.3546562"><ele>261.0</ele><time>2026-05-01T09:34:55.467Z</time></trkpt><trkpt lat="43.2480254" lon="12.3547557"><ele>261.5</ele><time>2026-05-01T09:34:56.467Z</time></trkpt><trkpt lat="43.2480028" lon="12.3548612"><ele>262.0</ele><time>2026-05-01T09:34:57.466Z</time></trkpt><trkpt lat="43.2479895" lon="12.3549684"><ele>262.5</ele><time>2026-05-01T09:34:58.467Z</time></trkpt><trkpt lat="43.2479713" lon="12.3550644"><ele>263.0</ele><time>2026-05-01T09:34:59.467Z</time></trkpt><trkpt lat="43.247943" lon="12.3551639"><ele>261.6</ele><time>2026-05-01T09:35:00.467Z</time></trkpt><trkpt lat="43.2478924" lon="12.3552571"><ele>260.20000000000005</ele><time>2026-05-01T09:35:01.467Z</time></trkpt><trkpt lat="43.2478312" lon="12.3553524"><ele>258.8</ele><time>2026-05-01T09:35:02.467Z</time></trkpt><trkpt lat="43.247757" lon="12.3554489"><ele>257.40000000000003</ele><time>2026-05-01T09:35:03.467Z</time></trkpt><trkpt lat="43.2476732" lon="12.3555434"><ele>256.0</ele><time>2026-05-01T09:35:04.467Z</time></trkpt><trkpt lat="43.2475903" lon="12.3556366"><ele>256.0</ele><time>2026-05-01T09:35:05.467Z</time></trkpt><trkpt lat="43.2475091" lon="12.3557272"><ele>256.0</ele><time>2026-05-01T09:35:06.467Z</time></trkpt><trkpt lat="43.2474311" lon="12.3558027"><ele>256.0</ele><time>2026-05-01T09:35:07.466Z</time></trkpt><trkpt lat="43.2473528" lon="12.3558637"><ele>256.0</ele><time>2026-05-01T09:35:08.467Z</time></trkpt><trkpt lat="43.2472736" lon="12.3559273"><ele>256.0</ele><time>2026-05-01T09:35:09.466Z</time></trkpt><trkpt lat="43.2471811" lon="12.3559803"><ele>256.3333333333333</ele><time>2026-05-01T09:35:10.467Z</time></trkpt><trkpt lat="43.2470916" lon="12.3560355"><ele>256.66666666666663</ele><time>2026-05-01T09:35:11.467Z</time></trkpt><trkpt lat="43.2470213" lon="12.3560929"><ele>257.0</ele><time>2026-05-01T09:35:12.467Z</time></trkpt><trkpt lat="43.2469601" lon="12.3561464"><ele>257.3333333333333</ele><time>2026-05-01T09:35:13.466Z</time></trkpt><trkpt lat="43.2469028" lon="12.35622"><ele>257.6666666666667</ele><time>2026-05-01T09:35:14.467Z</time></trkpt><trkpt lat="43.2468435" lon="12.3563038"><ele>258.0</ele><time>2026-05-01T09:35:15.467Z</time></trkpt><trkpt lat="43.2467744" lon="12.3564032"><ele>258.0</ele><time>2026-05-01T09:35:16.467Z</time></trkpt><trkpt lat="43.2467104" lon="12.3565331"><ele>258.0</ele><time>2026-05-01T09:35:17.466Z</time></trkpt><trkpt lat="43.2466548" lon="12.3566673"><ele>258.0</ele><time>2026-05-01T09:35:18.466Z</time></trkpt><trkpt lat="43.2465896" lon="12.3568115"><ele>258.0</ele><time>2026-05-01T09:35:19.467Z</time></trkpt><trkpt lat="43.2465239" lon="12.3569315"><ele>259.8</ele><time>2026-05-01T09:35:20.467Z</time></trkpt><trkpt lat="43.24646" lon="12.3570439"><ele>261.6</ele><time>2026-05-01T09:35:21.467Z</time></trkpt><trkpt lat="43.2463935" lon="12.357142"><ele>263.4</ele><time>2026-05-01T09:35:22.467Z</time></trkpt><trkpt lat="43.2463139" lon="12.3572219"><ele>265.2</ele><time>2026-05-01T09:35:23.467Z</time></trkpt><trkpt lat="43.2462296" lon="12.3573041"><ele>267.0</ele><time>2026-05-01T09:35:24.467Z</time></trkpt><trkpt lat="43.2461599" lon="12.357376"><ele>267.0</ele><time>2026-05-01T09:35:25.467Z</time></trkpt><trkpt lat="43.2460855" lon="12.3574959"><ele>267.0</ele><time>2026-05-01T09:35:27.467Z</time></trkpt><trkpt lat="43.2460806" lon="12.3576284"><ele>267.0</ele><time>2026-05-01T09:35:29.467Z</time></trkpt><trkpt lat="43.2460982" lon="12.3577158"><ele>267.0</ele><time>2026-05-01T09:35:30.467Z</time></trkpt><trkpt lat="43.2461207" lon="12.3578051"><ele>267.0</ele><time>2026-05-01T09:35:31.467Z</time></trkpt><trkpt lat="43.246139" lon="12.3578966"><ele>267.0</ele><time>2026-05-01T09:35:32.467Z</time></trkpt><trkpt lat="43.2461566" lon="12.3579812"><ele>266.4</ele><time>2026-05-01T09:35:33.467Z</time></trkpt><trkpt lat="43.2462018" lon="12.3581264"><ele>265.79999999999995</ele><time>2026-05-01T09:35:35.467Z</time></trkpt><trkpt lat="43.2462407" lon="12.358243"><ele>265.2</ele><time>2026-05-01T09:35:37.467Z</time></trkpt><trkpt lat="43.2462864" lon="12.3583195"><ele>264.59999999999997</ele><time>2026-05-01T09:35:44.467Z</time></trkpt><trkpt lat="43.2463761" lon="12.3583773"><ele>264.0</ele><time>2026-05-01T09:35:47.467Z</time></trkpt><trkpt lat="43.2464839" lon="12.3584421"><ele>262.4</ele><time>2026-05-01T09:35:49.466Z</time></trkpt><trkpt lat="43.2465932" lon="12.3585134"><ele>260.79999999999995</ele><time>2026-05-01T09:35:51.467Z</time></trkpt><trkpt lat="43.2467091" lon="12.3586009"><ele>259.20000000000005</ele><time>2026-05-01T09:35:53.466Z</time></trkpt><trkpt lat="43.2467664" lon="12.3586468"><ele>257.6</ele><time>2026-05-01T09:35:54.467Z</time></trkpt><trkpt lat="43.2468221" lon="12.358689"><ele>256.0</ele><time>2026-05-01T09:35:55.467Z</time></trkpt><trkpt lat="43.246921" lon="12.3587669"><ele>255.4</ele><time>2026-05-01T09:35:57.466Z</time></trkpt><trkpt lat="43.2469795" lon="12.3588742"><ele>254.8</ele><time>2026-05-01T09:35:59.467Z</time></trkpt><trkpt lat="43.246969" lon="12.359027"><ele>254.20000000000002</ele><time>2026-05-01T09:36:01.466Z</time></trkpt><trkpt lat="43.2469253" lon="12.3591344"><ele>253.60000000000002</ele><time>2026-05-01T09:36:02.467Z</time></trkpt><trkpt lat="43.24688" lon="12.3592602"><ele>253.0</ele><time>2026-05-01T09:36:03.467Z</time></trkpt><trkpt lat="43.2468411" lon="12.3593966"><ele>253.0</ele><time>2026-05-01T09:36:04.467Z</time></trkpt><trkpt lat="43.2468089" lon="12.3595351"><ele>253.0</ele><time>2026-05-01T09:36:05.467Z</time></trkpt><trkpt lat="43.2467778" lon="12.3596723"><ele>253.0</ele><time>2026-05-01T09:36:06.466Z</time></trkpt><trkpt lat="43.246752" lon="12.3597994"><ele>253.0</ele><time>2026-05-01T09:36:07.467Z</time></trkpt><trkpt lat="43.246722" lon="12.3599077"><ele>253.0</ele><time>2026-05-01T09:36:08.467Z</time></trkpt><trkpt lat="43.2466859" lon="12.3600119"><ele>253.4</ele><time>2026-05-01T09:36:09.467Z</time></trkpt><trkpt lat="43.2466537" lon="12.3601146"><ele>253.8</ele><time>2026-05-01T09:36:10.466Z</time></trkpt><trkpt lat="43.2466441" lon="12.3602267"><ele>254.2</ele><time>2026-05-01T09:36:11.466Z</time></trkpt><trkpt lat="43.2466696" lon="12.36038"><ele>254.6</ele><time>2026-05-01T09:36:12.467Z</time></trkpt><trkpt lat="43.2466843" lon="12.3605251"><ele>255.0</ele><time>2026-05-01T09:36:13.467Z</time></trkpt><trkpt lat="43.2466885" lon="12.3606701"><ele>255.2</ele><time>2026-05-01T09:36:14.467Z</time></trkpt><trkpt lat="43.2466869" lon="12.3608204"><ele>255.4</ele><time>2026-05-01T09:36:15.466Z</time></trkpt><trkpt lat="43.2466816" lon="12.3609665"><ele>255.60000000000002</ele><time>2026-05-01T09:36:16.466Z</time></trkpt><trkpt lat="43.24669" lon="12.3611177"><ele>255.8</ele><time>2026-05-01T09:36:17.467Z</time></trkpt><trkpt lat="43.2467156" lon="12.3612644"><ele>256.0</ele><time>2026-05-01T09:36:18.466Z</time></trkpt><trkpt lat="43.2467569" lon="12.3614288"><ele>257.6</ele><time>2026-05-01T09:36:19.467Z</time></trkpt><trkpt lat="43.2468081" lon="12.3615793"><ele>259.20000000000005</ele><time>2026-05-01T09:36:20.466Z</time></trkpt><trkpt lat="43.2468672" lon="12.3617189"><ele>260.79999999999995</ele><time>2026-05-01T09:36:21.467Z</time></trkpt><trkpt lat="43.246917" lon="12.36186"><ele>262.4</ele><time>2026-05-01T09:36:22.467Z</time></trkpt><trkpt lat="43.246963" lon="12.3619755"><ele>264.0</ele><time>2026-05-01T09:36:23.467Z</time></trkpt><trkpt lat="43.2470263" lon="12.362086"><ele>264.0</ele><time>2026-05-01T09:36:24.466Z</time></trkpt><trkpt lat="43.2470926" lon="12.3621893"><ele>264.0</ele><time>2026-05-01T09:36:25.466Z</time></trkpt><trkpt lat="43.2471588" lon="12.3623152"><ele>264.0</ele><time>2026-05-01T09:36:26.467Z</time></trkpt><trkpt lat="43.2472251" lon="12.3624451"><ele>264.0</ele><time>2026-05-01T09:36:27.467Z</time></trkpt><trkpt lat="43.2472873" lon="12.3625811"><ele>264.0</ele><time>2026-05-01T09:36:28.467Z</time></trkpt><trkpt lat="43.2473391" lon="12.3627032"><ele>261.8</ele><time>2026-05-01T09:36:29.467Z</time></trkpt><trkpt lat="43.2473748" lon="12.3628311"><ele>259.59999999999997</ele><time>2026-05-01T09:36:30.467Z</time></trkpt><trkpt lat="43.247409" lon="12.3629617"><ele>257.4</ele><time>2026-05-01T09:36:31.467Z</time></trkpt><trkpt lat="43.2474512" lon="12.3630926"><ele>255.2</ele><time>2026-05-01T09:36:32.467Z</time></trkpt><trkpt lat="43.2474939" lon="12.3632228"><ele>253.0</ele><time>2026-05-01T09:36:33.467Z</time></trkpt><trkpt lat="43.2475351" lon="12.3633661"><ele>253.0</ele><time>2026-05-01T09:36:34.467Z</time></trkpt><trkpt lat="43.247573" lon="12.3635169"><ele>253.0</ele><time>2026-05-01T09:36:35.467Z</time></trkpt><trkpt lat="43.2476009" lon="12.363674"><ele>253.0</ele><time>2026-05-01T09:36:36.467Z</time></trkpt><trkpt lat="43.2476371" lon="12.3638352"><ele>253.0</ele><time>2026-05-01T09:36:37.467Z</time></trkpt><trkpt lat="43.2476645" lon="12.3639983"><ele>253.8</ele><time>2026-05-01T09:36:38.467Z</time></trkpt><trkpt lat="43.2476988" lon="12.3641544"><ele>254.60000000000002</ele><time>2026-05-01T09:36:39.467Z</time></trkpt><trkpt lat="43.2477215" lon="12.3642915"><ele>255.39999999999998</ele><time>2026-05-01T09:36:40.466Z</time></trkpt><trkpt lat="43.247742" lon="12.3644276"><ele>256.2</ele><time>2026-05-01T09:36:41.467Z</time></trkpt><trkpt lat="43.2477664" lon="12.3645478"><ele>257.0</ele><time>2026-05-01T09:36:42.467Z</time></trkpt><trkpt lat="43.2477985" lon="12.3646556"><ele>255.16666666666669</ele><time>2026-05-01T09:36:43.467Z</time></trkpt><trkpt lat="43.2478484" lon="12.3647671"><ele>253.33333333333334</ele><time>2026-05-01T09:36:44.467Z</time></trkpt><trkpt lat="43.2479256" lon="12.3648569"><ele>251.5</ele><time>2026-05-01T09:36:45.466Z</time></trkpt><trkpt lat="43.2480044" lon="12.3649231"><ele>249.66666666666669</ele><time>2026-05-01T09:36:46.466Z</time></trkpt><trkpt lat="43.2480803" lon="12.3649486"><ele>247.83333333333334</ele><time>2026-05-01T09:36:47.467Z</time></trkpt><trkpt lat="43.2481567" lon="12.3649537"><ele>246.0</ele><time>2026-05-01T09:36:48.467Z</time></trkpt><trkpt lat="43.2482265" lon="12.3649876"><ele>246.00000000000003</ele><time>2026-05-01T09:36:49.467Z</time></trkpt><trkpt lat="43.2482781" lon="12.3650419"><ele>246.0</ele><time>2026-05-01T09:36:50.467Z</time></trkpt><trkpt lat="43.2483242" lon="12.3651112"><ele>246.00000000000003</ele><time>2026-05-01T09:36:51.467Z</time></trkpt><trkpt lat="43.2483732" lon="12.3651903"><ele>246.00000000000003</ele><time>2026-05-01T09:36:52.467Z</time></trkpt><trkpt lat="43.2484169" lon="12.3652607"><ele>246.0</ele><time>2026-05-01T09:36:53.466Z</time></trkpt><trkpt lat="43.2484327" lon="12.3653517"><ele>246.00000000000003</ele><time>2026-05-01T09:36:54.467Z</time></trkpt><trkpt lat="43.2484414" lon="12.3654514"><ele>246.00000000000003</ele><time>2026-05-01T09:36:55.467Z</time></trkpt><trkpt lat="43.2484337" lon="12.3655496"><ele>247.0</ele><time>2026-05-01T09:36:56.466Z</time></trkpt><trkpt lat="43.2484321" lon="12.3656858"><ele>248.00000000000003</ele><time>2026-05-01T09:36:58.467Z</time></trkpt><trkpt lat="43.2484213" lon="12.3657781"><ele>249.00000000000003</ele><time>2026-05-01T09:37:00.467Z</time></trkpt><trkpt lat="43.2483984" lon="12.3658588"><ele>250.0</ele><time>2026-05-01T09:41:09.467Z</time></trkpt><trkpt lat="43.2483529" lon="12.3660197"><ele>251.0</ele><time>2026-05-01T09:41:11.467Z</time></trkpt><trkpt lat="43.2483539" lon="12.3661503"><ele>251.0</ele><time>2026-05-01T09:41:12.467Z</time></trkpt><trkpt lat="43.2483652" lon="12.3663312"><ele>251.0</ele><time>2026-05-01T09:41:13.466Z</time></trkpt><trkpt lat="43.2483694" lon="12.3665198"><ele>251.0</ele><time>2026-05-01T09:41:14.467Z</time></trkpt><trkpt lat="43.2483751" lon="12.3667164"><ele>251.0</ele><time>2026-05-01T09:41:15.466Z</time></trkpt><trkpt lat="43.2483775" lon="12.3669186"><ele>251.66666666666669</ele><time>2026-05-01T09:41:16.467Z</time></trkpt><trkpt lat="43.2483603" lon="12.3671453"><ele>252.33333333333331</ele><time>2026-05-01T09:41:17.466Z</time></trkpt><trkpt lat="43.248323" lon="12.3673722"><ele>253.0</ele><time>2026-05-01T09:41:18.467Z</time></trkpt><trkpt lat="43.2482795" lon="12.3675992"><ele>250.66666666666666</ele><time>2026-05-01T09:41:19.467Z</time></trkpt><trkpt lat="43.2482293" lon="12.3678246"><ele>248.33333333333331</ele><time>2026-05-01T09:41:20.467Z</time></trkpt><trkpt lat="43.2481783" lon="12.3680479"><ele>246.0</ele><time>2026-05-01T09:41:21.466Z</time></trkpt><trkpt lat="43.2481217" lon="12.3682769"><ele>253.0</ele><time>2026-05-01T09:41:22.467Z</time></trkpt><trkpt lat="43.2480663" lon="12.368505"><ele>260.0</ele><time>2026-05-01T09:41:23.467Z</time></trkpt><trkpt lat="43.2480094" lon="12.368728"><ele>267.0</ele><time>2026-05-01T09:41:24.467Z</time></trkpt><trkpt lat="43.2479566" lon="12.3689497"><ele>267.0</ele><time>2026-05-01T09:41:25.467Z</time></trkpt><trkpt lat="43.2479101" lon="12.3691738"><ele>267.0</ele><time>2026-05-01T09:41:26.466Z</time></trkpt><trkpt lat="43.2478847" lon="12.3694141"><ele>267.0</ele><time>2026-05-01T09:41:27.467Z</time></trkpt><trkpt lat="43.2478777" lon="12.3696552"><ele>263.6666666666667</ele><time>2026-05-01T09:41:28.467Z</time></trkpt><trkpt lat="43.2478783" lon="12.3699031"><ele>260.33333333333337</ele><time>2026-05-01T09:41:29.467Z</time></trkpt><trkpt lat="43.2478753" lon="12.370151"><ele>257.0</ele><time>2026-05-01T09:41:30.467Z</time></trkpt><trkpt lat="43.2478721" lon="12.3704096"><ele>254.0</ele><time>2026-05-01T09:41:31.467Z</time></trkpt><trkpt lat="43.2478768" lon="12.3706744"><ele>251.0</ele><time>2026-05-01T09:41:32.467Z</time></trkpt><trkpt lat="43.2478864" lon="12.3709424"><ele>248.0</ele><time>2026-05-01T09:41:33.466Z</time></trkpt><trkpt lat="43.2478923" lon="12.3712181"><ele>246.33333333333334</ele><time>2026-05-01T09:41:34.467Z</time></trkpt><trkpt lat="43.2478959" lon="12.3714975"><ele>244.66666666666669</ele><time>2026-05-01T09:41:35.466Z</time></trkpt><trkpt lat="43.2478974" lon="12.3717817"><ele>243.0</ele><time>2026-05-01T09:41:36.466Z</time></trkpt><trkpt lat="43.2479002" lon="12.3720574"><ele>243.0</ele><time>2026-05-01T09:41:37.467Z</time></trkpt><trkpt lat="43.2479059" lon="12.3723319"><ele>243.0</ele><time>2026-05-01T09:41:38.467Z</time></trkpt><trkpt lat="43.24791" lon="12.3726088"><ele>243.0</ele><time>2026-05-01T09:41:39.467Z</time></trkpt><trkpt lat="43.247913" lon="12.3728897"><ele>242.0</ele><time>2026-05-01T09:41:40.467Z</time></trkpt><trkpt lat="43.2479136" lon="12.373171"><ele>241.0</ele><time>2026-05-01T09:41:41.467Z</time></trkpt><trkpt lat="43.2479172" lon="12.3734549"><ele>240.0</ele><time>2026-05-01T09:41:42.467Z</time></trkpt><trkpt lat="43.2479218" lon="12.3737396"><ele>239.66666666666669</ele><time>2026-05-01T09:41:43.466Z</time></trkpt><trkpt lat="43.2479214" lon="12.3740233"><ele>239.33333333333334</ele><time>2026-05-01T09:41:44.467Z</time></trkpt><trkpt lat="43.2479241" lon="12.3743138"><ele>239.0</ele><time>2026-05-01T09:41:45.466Z</time></trkpt><trkpt lat="43.2479297" lon="12.3746082"><ele>239.0</ele><time>2026-05-01T09:41:46.467Z</time></trkpt><trkpt lat="43.2479312" lon="12.3748998"><ele>239.0</ele><time>2026-05-01T09:41:47.467Z</time></trkpt><trkpt lat="43.2479347" lon="12.3751953"><ele>239.0</ele><time>2026-05-01T09:41:48.467Z</time></trkpt><trkpt lat="43.2479372" lon="12.375489"><ele>239.0</ele><time>2026-05-01T09:41:49.467Z</time></trkpt><trkpt lat="43.247942" lon="12.3757838"><ele>239.0</ele><time>2026-05-01T09:41:50.467Z</time></trkpt><trkpt lat="43.2479545" lon="12.376083"><ele>239.0</ele><time>2026-05-01T09:41:51.467Z</time></trkpt><trkpt lat="43.2479794" lon="12.3763719"><ele>239.0</ele><time>2026-05-01T09:41:52.466Z</time></trkpt><trkpt lat="43.2480242" lon="12.3766452"><ele>239.0</ele><time>2026-05-01T09:41:53.467Z</time></trkpt><trkpt lat="43.2480915" lon="12.3769206"><ele>239.0</ele><time>2026-05-01T09:41:54.466Z</time></trkpt><trkpt lat="43.2481647" lon="12.3771915"><ele>237.33333333333334</ele><time>2026-05-01T09:41:55.466Z</time></trkpt><trkpt lat="43.248244" lon="12.377465"><ele>235.66666666666669</ele><time>2026-05-01T09:41:56.467Z</time></trkpt><trkpt lat="43.2483167" lon="12.3777391"><ele>234.0</ele><time>2026-05-01T09:41:57.467Z</time></trkpt><trkpt lat="43.2483878" lon="12.3780112"><ele>235.33333333333331</ele><time>2026-05-01T09:41:58.467Z</time></trkpt><trkpt lat="43.2484568" lon="12.3782799"><ele>236.66666666666666</ele><time>2026-05-01T09:41:59.467Z</time></trkpt><trkpt lat="43.2485322" lon="12.3785491"><ele>238.0</ele><time>2026-05-01T09:42:00.467Z</time></trkpt><trkpt lat="43.2486014" lon="12.378811"><ele>239.33333333333331</ele><time>2026-05-01T09:42:01.466Z</time></trkpt><trkpt lat="43.2486682" lon="12.3790597"><ele>240.66666666666669</ele><time>2026-05-01T09:42:02.466Z</time></trkpt><trkpt lat="43.2487406" lon="12.3793029"><ele>242.0</ele><time>2026-05-01T09:42:03.467Z</time></trkpt><trkpt lat="43.2488091" lon="12.379546"><ele>244.66666666666669</ele><time>2026-05-01T09:42:04.467Z</time></trkpt><trkpt lat="43.2488765" lon="12.3797914"><ele>247.33333333333331</ele><time>2026-05-01T09:42:05.467Z</time></trkpt><trkpt lat="43.2489439" lon="12.3800375"><ele>250.0</ele><time>2026-05-01T09:42:06.466Z</time></trkpt><trkpt lat="43.24902" lon="12.3802784"><ele>246.33333333333331</ele><time>2026-05-01T09:42:07.466Z</time></trkpt><trkpt lat="43.2491035" lon="12.3805102"><ele>242.66666666666669</ele><time>2026-05-01T09:42:08.467Z</time></trkpt><trkpt lat="43.2491996" lon="12.3807275"><ele>239.0</ele><time>2026-05-01T09:42:09.467Z</time></trkpt><trkpt lat="43.2493133" lon="12.3809351"><ele>239.0</ele><time>2026-05-01T09:42:10.466Z</time></trkpt><trkpt lat="43.2494397" lon="12.3811284"><ele>239.0</ele><time>2026-05-01T09:42:11.467Z</time></trkpt><trkpt lat="43.2495837" lon="12.3813079"><ele>239.0</ele><time>2026-05-01T09:42:12.466Z</time></trkpt><trkpt lat="43.2497372" lon="12.3814745"><ele>237.66666666666669</ele><time>2026-05-01T09:42:13.467Z</time></trkpt><trkpt lat="43.2499029" lon="12.3816322"><ele>236.33333333333331</ele><time>2026-05-01T09:42:14.466Z</time></trkpt><trkpt lat="43.2500806" lon="12.3817806"><ele>235.0</ele><time>2026-05-01T09:42:15.467Z</time></trkpt><trkpt lat="43.2502774" lon="12.3819041"><ele>235.0</ele><time>2026-05-01T09:42:16.467Z</time></trkpt><trkpt lat="43.2504819" lon="12.3819992"><ele>235.0</ele><time>2026-05-01T09:42:17.467Z</time></trkpt><trkpt lat="43.2506942" lon="12.382065"><ele>235.0</ele><time>2026-05-01T09:42:18.467Z</time></trkpt><trkpt lat="43.2509131" lon="12.3821076"><ele>233.5</ele><time>2026-05-01T09:42:19.467Z</time></trkpt><trkpt lat="43.2511366" lon="12.3821365"><ele>232.0</ele><time>2026-05-01T09:42:20.466Z</time></trkpt><trkpt lat="43.2513648" lon="12.3821494"><ele>231.0</ele><time>2026-05-01T09:42:21.467Z</time></trkpt><trkpt lat="43.2515863" lon="12.3821603"><ele>230.0</ele><time>2026-05-01T09:42:22.466Z</time></trkpt><trkpt lat="43.2518023" lon="12.3821769"><ele>229.0</ele><time>2026-05-01T09:42:23.467Z</time></trkpt><trkpt lat="43.252024" lon="12.3821924"><ele>234.0</ele><time>2026-05-01T09:42:24.467Z</time></trkpt><trkpt lat="43.2522502" lon="12.3822001"><ele>239.0</ele><time>2026-05-01T09:42:25.466Z</time></trkpt><trkpt lat="43.2524723" lon="12.3822114"><ele>244.0</ele><time>2026-05-01T09:42:26.466Z</time></trkpt><trkpt lat="43.252687" lon="12.3822222"><ele>244.0</ele><time>2026-05-01T09:42:27.467Z</time></trkpt><trkpt lat="43.2528899" lon="12.3822331"><ele>244.0</ele><time>2026-05-01T09:42:28.466Z</time></trkpt><trkpt lat="43.2530819" lon="12.3822419"><ele>244.0</ele><time>2026-05-01T09:42:29.467Z</time></trkpt><trkpt lat="43.253264" lon="12.3822517"><ele>239.33333333333331</ele><time>2026-05-01T09:42:30.467Z</time></trkpt><trkpt lat="43.2534362" lon="12.3822631"><ele>234.66666666666669</ele><time>2026-05-01T09:42:31.467Z</time></trkpt><trkpt lat="43.253602" lon="12.3822702"><ele>230.0</ele><time>2026-05-01T09:42:32.466Z</time></trkpt><trkpt lat="43.253763" lon="12.382277"><ele>230.0</ele><time>2026-05-01T09:42:33.466Z</time></trkpt><trkpt lat="43.2539246" lon="12.3822808"><ele>230.0</ele><time>2026-05-01T09:42:34.466Z</time></trkpt><trkpt lat="43.2540753" lon="12.38229"><ele>230.0</ele><time>2026-05-01T09:42:35.466Z</time></trkpt><trkpt lat="43.2542235" lon="12.382295"><ele>229.0</ele><time>2026-05-01T09:42:36.466Z</time></trkpt><trkpt lat="43.2543703" lon="12.3822947"><ele>228.0</ele><time>2026-05-01T09:42:37.467Z</time></trkpt><trkpt lat="43.2545142" lon="12.3823012"><ele>227.0</ele><time>2026-05-01T09:42:38.466Z</time></trkpt><trkpt lat="43.254657" lon="12.3822977"><ele>226.0</ele><time>2026-05-01T09:42:39.467Z</time></trkpt><trkpt lat="43.2547974" lon="12.3822735"><ele>225.66666666666666</ele><time>2026-05-01T09:42:40.466Z</time></trkpt><trkpt lat="43.2549423" lon="12.382223"><ele>225.33333333333331</ele><time>2026-05-01T09:42:41.466Z</time></trkpt><trkpt lat="43.2550857" lon="12.3821704"><ele>225.0</ele><time>2026-05-01T09:42:42.467Z</time></trkpt><trkpt lat="43.2552346" lon="12.3821137"><ele>225.33333333333331</ele><time>2026-05-01T09:42:43.467Z</time></trkpt><trkpt lat="43.2553859" lon="12.3820557"><ele>225.66666666666666</ele><time>2026-05-01T09:42:44.467Z</time></trkpt><trkpt lat="43.2555421" lon="12.3819908"><ele>226.0</ele><time>2026-05-01T09:42:45.467Z</time></trkpt><trkpt lat="43.2556945" lon="12.3819211"><ele>226.0</ele><time>2026-05-01T09:42:46.467Z</time></trkpt><trkpt lat="43.2558459" lon="12.3818547"><ele>226.0</ele><time>2026-05-01T09:42:47.467Z</time></trkpt><trkpt lat="43.2560026" lon="12.3817853"><ele>226.0</ele><time>2026-05-01T09:42:48.467Z</time></trkpt><trkpt lat="43.2561564" lon="12.3817184"><ele>226.0</ele><time>2026-05-01T09:42:49.467Z</time></trkpt><trkpt lat="43.2562973" lon="12.3816576"><ele>226.0</ele><time>2026-05-01T09:42:50.467Z</time></trkpt><trkpt lat="43.256423" lon="12.3816013"><ele>226.0</ele><time>2026-05-01T09:42:51.467Z</time></trkpt><trkpt lat="43.2565366" lon="12.3815638"><ele>226.0</ele><time>2026-05-01T09:42:52.467Z</time></trkpt><trkpt lat="43.2566348" lon="12.3815268"><ele>225.99999999999997</ele><time>2026-05-01T09:42:53.466Z</time></trkpt><trkpt lat="43.2567238" lon="12.381511"><ele>226.0</ele><time>2026-05-01T09:42:54.467Z</time></trkpt><trkpt lat="43.2567968" lon="12.3815133"><ele>226.0</ele><time>2026-05-01T09:42:55.467Z</time></trkpt><trkpt lat="43.2569135" lon="12.3814976"><ele>226.0</ele><time>2026-05-01T09:42:57.467Z</time></trkpt><trkpt lat="43.2569813" lon="12.3814538"><ele>225.99999999999997</ele><time>2026-05-01T09:42:59.467Z</time></trkpt><trkpt lat="43.2570695" lon="12.3814206"><ele>226.0</ele><time>2026-05-01T09:43:55.467Z</time></trkpt><trkpt lat="43.2571728" lon="12.3813405"><ele>226.0</ele><time>2026-05-01T09:43:57.466Z</time></trkpt><trkpt lat="43.2572563" lon="12.3812748"><ele>226.0</ele><time>2026-05-01T09:43:58.467Z</time></trkpt><trkpt lat="43.2573638" lon="12.3812235"><ele>226.0</ele><time>2026-05-01T09:43:59.467Z</time></trkpt><trkpt lat="43.2574893" lon="12.3811652"><ele>226.0</ele><time>2026-05-01T09:44:00.467Z</time></trkpt><trkpt lat="43.2576215" lon="12.3811126"><ele>226.0</ele><time>2026-05-01T09:44:01.467Z</time></trkpt><trkpt lat="43.2577608" lon="12.3810662"><ele>226.0</ele><time>2026-05-01T09:44:02.467Z</time></trkpt><trkpt lat="43.2579051" lon="12.3810314"><ele>226.0</ele><time>2026-05-01T09:44:03.466Z</time></trkpt><trkpt lat="43.2580378" lon="12.3810123"><ele>226.0</ele><time>2026-05-01T09:44:04.467Z</time></trkpt><trkpt lat="43.2581762" lon="12.3810103"><ele>226.0</ele><time>2026-05-01T09:44:05.467Z</time></trkpt><trkpt lat="43.2583185" lon="12.3810159"><ele>226.0</ele><time>2026-05-01T09:44:06.466Z</time></trkpt><trkpt lat="43.2584631" lon="12.3810241"><ele>226.0</ele><time>2026-05-01T09:44:07.466Z</time></trkpt><trkpt lat="43.2586036" lon="12.3810535"><ele>226.0</ele><time>2026-05-01T09:44:08.466Z</time></trkpt><trkpt lat="43.2587381" lon="12.3811015"><ele>226.0</ele><time>2026-05-01T09:44:09.467Z</time></trkpt><trkpt lat="43.2588668" lon="12.3811632"><ele>226.0</ele><time>2026-05-01T09:44:10.466Z</time></trkpt><trkpt lat="43.2589923" lon="12.3812361"><ele>226.0</ele><time>2026-05-01T09:44:11.467Z</time></trkpt><trkpt lat="43.2591158" lon="12.3813019"><ele>226.0</ele><time>2026-05-01T09:44:12.467Z</time></trkpt><trkpt lat="43.2592394" lon="12.3813657"><ele>226.5</ele><time>2026-05-01T09:44:13.467Z</time></trkpt><trkpt lat="43.2593673" lon="12.3814352"><ele>227.0</ele><time>2026-05-01T09:44:14.467Z</time></trkpt><trkpt lat="43.2594941" lon="12.3815033"><ele>227.5</ele><time>2026-05-01T09:44:15.466Z</time></trkpt><trkpt lat="43.259619" lon="12.3815703"><ele>228.0</ele><time>2026-05-01T09:44:16.467Z</time></trkpt><trkpt lat="43.2597333" lon="12.381636"><ele>227.0</ele><time>2026-05-01T09:44:17.467Z</time></trkpt><trkpt lat="43.2598457" lon="12.3816977"><ele>226.0</ele><time>2026-05-01T09:44:18.467Z</time></trkpt><trkpt lat="43.2599567" lon="12.3817526"><ele>225.0</ele><time>2026-05-01T09:44:19.466Z</time></trkpt><trkpt lat="43.2600656" lon="12.3818148"><ele>224.0</ele><time>2026-05-01T09:44:20.467Z</time></trkpt><trkpt lat="43.2601782" lon="12.3818775"><ele>224.0</ele><time>2026-05-01T09:44:21.467Z</time></trkpt><trkpt lat="43.2602836" lon="12.3819403"><ele>224.0</ele><time>2026-05-01T09:44:22.467Z</time></trkpt><trkpt lat="43.2603852" lon="12.3820122"><ele>224.0</ele><time>2026-05-01T09:44:23.466Z</time></trkpt><trkpt lat="43.2604838" lon="12.3821018"><ele>224.0</ele><time>2026-05-01T09:44:24.467Z</time></trkpt><trkpt lat="43.2605828" lon="12.3821893"><ele>224.0</ele><time>2026-05-01T09:44:25.467Z</time></trkpt><trkpt lat="43.2606824" lon="12.3822929"><ele>224.0</ele><time>2026-05-01T09:44:26.467Z</time></trkpt><trkpt lat="43.2607781" lon="12.3824065"><ele>224.0</ele><time>2026-05-01T09:44:27.467Z</time></trkpt><trkpt lat="43.2608737" lon="12.3825226"><ele>224.0</ele><time>2026-05-01T09:44:28.467Z</time></trkpt><trkpt lat="43.2609677" lon="12.3826369"><ele>224.0</ele><time>2026-05-01T09:44:29.467Z</time></trkpt><trkpt lat="43.2610665" lon="12.3827569"><ele>224.0</ele><time>2026-05-01T09:44:30.467Z</time></trkpt><trkpt lat="43.2611637" lon="12.3828689"><ele>224.0</ele><time>2026-05-01T09:44:31.467Z</time></trkpt><trkpt lat="43.2612625" lon="12.3829846"><ele>224.0</ele><time>2026-05-01T09:44:32.466Z</time></trkpt><trkpt lat="43.2613589" lon="12.3830944"><ele>224.75</ele><time>2026-05-01T09:44:33.466Z</time></trkpt><trkpt lat="43.2614492" lon="12.3832012"><ele>225.5</ele><time>2026-05-01T09:44:34.467Z</time></trkpt><trkpt lat="43.2615401" lon="12.3833044"><ele>226.25</ele><time>2026-05-01T09:44:35.466Z</time></trkpt><trkpt lat="43.2616329" lon="12.3834108"><ele>227.0</ele><time>2026-05-01T09:44:36.466Z</time></trkpt><trkpt lat="43.2617189" lon="12.3835153"><ele>227.0</ele><time>2026-05-01T09:44:37.466Z</time></trkpt><trkpt lat="43.2617959" lon="12.3836123"><ele>227.0</ele><time>2026-05-01T09:44:38.467Z</time></trkpt><trkpt lat="43.2618712" lon="12.383713"><ele>227.0</ele><time>2026-05-01T09:44:39.467Z</time></trkpt><trkpt lat="43.2619433" lon="12.3838152"><ele>227.0</ele><time>2026-05-01T09:44:40.467Z</time></trkpt><trkpt lat="43.2620147" lon="12.3839278"><ele>227.0</ele><time>2026-05-01T09:44:41.466Z</time></trkpt><trkpt lat="43.262084" lon="12.3840516"><ele>227.0</ele><time>2026-05-01T09:44:42.466Z</time></trkpt><trkpt lat="43.2621488" lon="12.3841842"><ele>227.0</ele><time>2026-05-01T09:44:43.467Z</time></trkpt><trkpt lat="43.262211" lon="12.3843178"><ele>227.0</ele><time>2026-05-01T09:44:44.466Z</time></trkpt><trkpt lat="43.2622639" lon="12.3844457"><ele>227.0</ele><time>2026-05-01T09:44:45.467Z</time></trkpt><trkpt lat="43.262317" lon="12.3845631"><ele>227.0</ele><time>2026-05-01T09:44:46.466Z</time></trkpt><trkpt lat="43.2623643" lon="12.3846761"><ele>228.00000000000003</ele><time>2026-05-01T09:44:47.467Z</time></trkpt><trkpt lat="43.2624122" lon="12.3847864"><ele>229.0</ele><time>2026-05-01T09:44:48.466Z</time></trkpt><trkpt lat="43.2624585" lon="12.3848959"><ele>230.0</ele><time>2026-05-01T09:44:49.467Z</time></trkpt><trkpt lat="43.2625055" lon="12.3850005"><ele>231.0</ele><time>2026-05-01T09:44:50.467Z</time></trkpt><trkpt lat="43.2625486" lon="12.3850968"><ele>232.00000000000003</ele><time>2026-05-01T09:44:51.466Z</time></trkpt><trkpt lat="43.262585" lon="12.3851844"><ele>233.0</ele><time>2026-05-01T09:44:52.467Z</time></trkpt><trkpt lat="43.2626251" lon="12.3852655"><ele>233.0</ele><time>2026-05-01T09:44:53.467Z</time></trkpt><trkpt lat="43.2626955" lon="12.3853991"><ele>233.0</ele><time>2026-05-01T09:44:55.467Z</time></trkpt><trkpt lat="43.2627331" lon="12.3854787"><ele>233.0</ele><time>2026-05-01T09:44:56.466Z</time></trkpt><trkpt lat="43.2627603" lon="12.3855658"><ele>233.0</ele><time>2026-05-01T09:44:57.467Z</time></trkpt><trkpt lat="43.2627937" lon="12.385667"><ele>233.0</ele><time>2026-05-01T09:44:59.467Z</time></trkpt><trkpt lat="43.2629128" lon="12.3857274"><ele>233.25</ele><time>2026-05-01T09:45:51.316Z</time></trkpt><trkpt lat="43.2627874" lon="12.3856917"><ele>233.5</ele><time>2026-05-01T09:46:20.341Z</time></trkpt><trkpt lat="43.2628457" lon="12.3857609"><ele>233.75</ele><time>2026-05-01T09:47:25.466Z</time></trkpt><trkpt lat="43.262929" lon="12.3859254"><ele>234.0</ele><time>2026-05-01T09:47:27.466Z</time></trkpt><trkpt lat="43.2629903" lon="12.3860441"><ele>234.0</ele><time>2026-05-01T09:47:28.467Z</time></trkpt><trkpt lat="43.2630518" lon="12.3861764"><ele>234.0</ele><time>2026-05-01T09:47:29.467Z</time></trkpt><trkpt lat="43.2631274" lon="12.3863178"><ele>234.0</ele><time>2026-05-01T09:47:30.466Z</time></trkpt><trkpt lat="43.2632002" lon="12.3864703"><ele>234.0</ele><time>2026-05-01T09:47:31.467Z</time></trkpt><trkpt lat="43.2632806" lon="12.3866354"><ele>234.0</ele><time>2026-05-01T09:47:32.467Z</time></trkpt><trkpt lat="43.2633609" lon="12.3868046"><ele>234.0</ele><time>2026-05-01T09:47:33.466Z</time></trkpt><trkpt lat="43.263437" lon="12.3869773"><ele>234.0</ele><time>2026-05-01T09:47:34.466Z</time></trkpt><trkpt lat="43.2635091" lon="12.3871428"><ele>234.0</ele><time>2026-05-01T09:47:35.466Z</time></trkpt><trkpt lat="43.2635749" lon="12.3873024"><ele>234.0</ele><time>2026-05-01T09:47:36.467Z</time></trkpt><trkpt lat="43.2636578" lon="12.387449"><ele>234.0</ele><time>2026-05-01T09:47:37.467Z</time></trkpt><trkpt lat="43.2637306" lon="12.3875968"><ele>234.0</ele><time>2026-05-01T09:47:38.467Z</time></trkpt><trkpt lat="43.2638139" lon="12.3877601"><ele>234.0</ele><time>2026-05-01T09:47:39.466Z</time></trkpt><trkpt lat="43.2639007" lon="12.3879306"><ele>235.25</ele><time>2026-05-01T09:47:40.467Z</time></trkpt><trkpt lat="43.2639795" lon="12.3880827"><ele>236.5</ele><time>2026-05-01T09:47:41.466Z</time></trkpt><trkpt lat="43.2640535" lon="12.3882242"><ele>237.75</ele><time>2026-05-01T09:47:42.467Z</time></trkpt><trkpt lat="43.2641219" lon="12.3883564"><ele>239.0</ele><time>2026-05-01T09:47:43.467Z</time></trkpt><trkpt lat="43.2641923" lon="12.3884818"><ele>239.0</ele><time>2026-05-01T09:47:44.467Z</time></trkpt><trkpt lat="43.2642648" lon="12.388606"><ele>239.0</ele><time>2026-05-01T09:47:45.467Z</time></trkpt><trkpt lat="43.2643429" lon="12.3887332"><ele>239.0</ele><time>2026-05-01T09:47:46.467Z</time></trkpt><trkpt lat="43.2644241" lon="12.3888676"><ele>239.0</ele><time>2026-05-01T09:47:47.466Z</time></trkpt><trkpt lat="43.2645047" lon="12.3890102"><ele>239.75</ele><time>2026-05-01T09:47:48.467Z</time></trkpt><trkpt lat="43.2645776" lon="12.3891616"><ele>240.5</ele><time>2026-05-01T09:47:49.466Z</time></trkpt><trkpt lat="43.2646598" lon="12.3893152"><ele>241.25</ele><time>2026-05-01T09:47:50.467Z</time></trkpt><trkpt lat="43.2647395" lon="12.389458"><ele>242.0</ele><time>2026-05-01T09:47:51.467Z</time></trkpt><trkpt lat="43.2647992" lon="12.3895818"><ele>243.0</ele><time>2026-05-01T09:47:52.467Z</time></trkpt><trkpt lat="43.2648501" lon="12.3896915"><ele>244.0</ele><time>2026-05-01T09:47:53.466Z</time></trkpt><trkpt lat="43.2648979" lon="12.3897906"><ele>245.0</ele><time>2026-05-01T09:47:54.467Z</time></trkpt><trkpt lat="43.2649248" lon="12.3898946"><ele>246.0</ele><time>2026-05-01T09:47:55.467Z</time></trkpt><trkpt lat="43.2649463" lon="12.3900232"><ele>247.0</ele><time>2026-05-01T09:47:56.466Z</time></trkpt><trkpt lat="43.2649443" lon="12.3901601"><ele>247.0</ele><time>2026-05-01T09:47:57.467Z</time></trkpt><trkpt lat="43.2649084" lon="12.3902897"><ele>247.0</ele><time>2026-05-01T09:47:58.467Z</time></trkpt><trkpt lat="43.2648468" lon="12.3904043"><ele>247.0</ele><time>2026-05-01T09:47:59.467Z</time></trkpt><trkpt lat="43.264769" lon="12.3905207"><ele>247.0</ele><time>2026-05-01T09:48:00.467Z</time></trkpt><trkpt lat="43.2646901" lon="12.3906295"><ele>247.0</ele><time>2026-05-01T09:48:01.467Z</time></trkpt><trkpt lat="43.2646041" lon="12.3907334"><ele>247.0</ele><time>2026-05-01T09:48:02.467Z</time></trkpt><trkpt lat="43.2645079" lon="12.3908347"><ele>247.0</ele><time>2026-05-01T09:48:03.466Z</time></trkpt><trkpt lat="43.2644105" lon="12.3909359"><ele>247.0</ele><time>2026-05-01T09:48:04.467Z</time></trkpt><trkpt lat="43.2643107" lon="12.3910435"><ele>247.0</ele><time>2026-05-01T09:48:05.466Z</time></trkpt><trkpt lat="43.2642086" lon="12.3911478"><ele>247.0</ele><time>2026-05-01T09:48:06.467Z</time></trkpt><trkpt lat="43.2641018" lon="12.3912438"><ele>247.0</ele><time>2026-05-01T09:48:07.467Z</time></trkpt><trkpt lat="43.2640008" lon="12.3913445"><ele>247.0</ele><time>2026-05-01T09:48:08.466Z</time></trkpt><trkpt lat="43.2639044" lon="12.3914502"><ele>247.0</ele><time>2026-05-01T09:48:09.467Z</time></trkpt><trkpt lat="43.2638085" lon="12.3915392"><ele>246.8</ele><time>2026-05-01T09:48:10.466Z</time></trkpt><trkpt lat="43.2637105" lon="12.3916171"><ele>246.6</ele><time>2026-05-01T09:48:11.467Z</time></trkpt><trkpt lat="43.2636207" lon="12.3916922"><ele>246.40000000000003</ele><time>2026-05-01T09:48:12.467Z</time></trkpt><trkpt lat="43.263524" lon="12.3917576"><ele>246.20000000000002</ele><time>2026-05-01T09:48:13.467Z</time></trkpt><trkpt lat="43.2634321" lon="12.3918283"><ele>246.0</ele><time>2026-05-01T09:48:14.467Z</time></trkpt><trkpt lat="43.2633372" lon="12.3918819"><ele>246.0</ele><time>2026-05-01T09:48:15.466Z</time></trkpt><trkpt lat="43.2632449" lon="12.3919469"><ele>246.00000000000003</ele><time>2026-05-01T09:48:16.467Z</time></trkpt><trkpt lat="43.2631426" lon="12.3919965"><ele>246.00000000000003</ele><time>2026-05-01T09:48:17.467Z</time></trkpt><trkpt lat="43.2630476" lon="12.3920508"><ele>246.0</ele><time>2026-05-01T09:48:18.467Z</time></trkpt><trkpt lat="43.2629528" lon="12.3920921"><ele>246.0</ele><time>2026-05-01T09:48:19.467Z</time></trkpt><trkpt lat="43.2628572" lon="12.392136"><ele>245.8</ele><time>2026-05-01T09:48:20.467Z</time></trkpt><trkpt lat="43.2627551" lon="12.39217"><ele>245.60000000000002</ele><time>2026-05-01T09:48:21.467Z</time></trkpt><trkpt lat="43.2626572" lon="12.3921864"><ele>245.4</ele><time>2026-05-01T09:48:22.466Z</time></trkpt><trkpt lat="43.2625482" lon="12.3921937"><ele>245.2</ele><time>2026-05-01T09:48:23.467Z</time></trkpt><trkpt lat="43.262437" lon="12.3922102"><ele>245.0</ele><time>2026-05-01T09:48:24.467Z</time></trkpt><trkpt lat="43.2623176" lon="12.3922365"><ele>244.6</ele><time>2026-05-01T09:48:25.466Z</time></trkpt><trkpt lat="43.2622027" lon="12.3922656"><ele>244.2</ele><time>2026-05-01T09:48:26.466Z</time></trkpt><trkpt lat="43.2620939" lon="12.3922915"><ele>243.8</ele><time>2026-05-01T09:48:27.466Z</time></trkpt><trkpt lat="43.2619962" lon="12.39232"><ele>243.4</ele><time>2026-05-01T09:48:28.467Z</time></trkpt><trkpt lat="43.2618886" lon="12.3923506"><ele>243.0</ele><time>2026-05-01T09:48:29.466Z</time></trkpt><trkpt lat="43.2617861" lon="12.3923801"><ele>243.0</ele><time>2026-05-01T09:48:30.466Z</time></trkpt><trkpt lat="43.2616893" lon="12.3924127"><ele>243.0</ele><time>2026-05-01T09:48:31.467Z</time></trkpt><trkpt lat="43.2615891" lon="12.3924486"><ele>243.0</ele><time>2026-05-01T09:48:32.467Z</time></trkpt><trkpt lat="43.2614926" lon="12.392484"><ele>243.0</ele><time>2026-05-01T09:48:33.467Z</time></trkpt><trkpt lat="43.2613876" lon="12.3925172"><ele>243.0</ele><time>2026-05-01T09:48:34.466Z</time></trkpt><trkpt lat="43.261285" lon="12.3925564"><ele>242.4</ele><time>2026-05-01T09:48:35.467Z</time></trkpt><trkpt lat="43.2611855" lon="12.3925871"><ele>241.8</ele><time>2026-05-01T09:48:36.467Z</time></trkpt><trkpt lat="43.2610833" lon="12.392605"><ele>241.2</ele><time>2026-05-01T09:48:37.466Z</time></trkpt><trkpt lat="43.2609736" lon="12.3926443"><ele>240.6</ele><time>2026-05-01T09:48:38.467Z</time></trkpt><trkpt lat="43.2608634" lon="12.3926733"><ele>240.0</ele><time>2026-05-01T09:48:39.467Z</time></trkpt><trkpt lat="43.2607462" lon="12.392688"><ele>240.0</ele><time>2026-05-01T09:48:40.466Z</time></trkpt><trkpt lat="43.260623" lon="12.3927031"><ele>240.0</ele><time>2026-05-01T09:48:41.466Z</time></trkpt><trkpt lat="43.2604986" lon="12.3927227"><ele>240.0</ele><time>2026-05-01T09:48:42.466Z</time></trkpt><trkpt lat="43.2603719" lon="12.3927487"><ele>240.0</ele><time>2026-05-01T09:48:43.466Z</time></trkpt><trkpt lat="43.2602411" lon="12.3927725"><ele>239.5</ele><time>2026-05-01T09:48:44.466Z</time></trkpt><trkpt lat="43.2601071" lon="12.3927987"><ele>239.0</ele><time>2026-05-01T09:48:45.467Z</time></trkpt><trkpt lat="43.2599685" lon="12.3928253"><ele>238.5</ele><time>2026-05-01T09:48:46.467Z</time></trkpt><trkpt lat="43.259827" lon="12.3928567"><ele>238.0</ele><time>2026-05-01T09:48:47.467Z</time></trkpt><trkpt lat="43.2596819" lon="12.3928817"><ele>238.0</ele><time>2026-05-01T09:48:48.467Z</time></trkpt><trkpt lat="43.2595275" lon="12.3929118"><ele>238.0</ele><time>2026-05-01T09:48:49.467Z</time></trkpt><trkpt lat="43.2593727" lon="12.3929368"><ele>238.0</ele><time>2026-05-01T09:48:50.467Z</time></trkpt><trkpt lat="43.2592192" lon="12.392959"><ele>238.0</ele><time>2026-05-01T09:48:51.467Z</time></trkpt><trkpt lat="43.2590585" lon="12.3929864"><ele>238.0</ele><time>2026-05-01T09:48:52.467Z</time></trkpt><trkpt lat="43.258886" lon="12.3930046"><ele>238.0</ele><time>2026-05-01T09:48:53.467Z</time></trkpt><trkpt lat="43.2587275" lon="12.393034"><ele>236.25</ele><time>2026-05-01T09:48:54.467Z</time></trkpt><trkpt lat="43.2585856" lon="12.3930701"><ele>234.5</ele><time>2026-05-01T09:48:55.467Z</time></trkpt><trkpt lat="43.2584505" lon="12.3931162"><ele>232.75</ele><time>2026-05-01T09:48:56.467Z</time></trkpt><trkpt lat="43.2583365" lon="12.3932071"><ele>231.0</ele><time>2026-05-01T09:48:57.466Z</time></trkpt><trkpt lat="43.2582316" lon="12.3933669"><ele>231.0</ele><time>2026-05-01T09:48:58.467Z</time></trkpt><trkpt lat="43.2581526" lon="12.393556"><ele>231.0</ele><time>2026-05-01T09:48:59.467Z</time></trkpt><trkpt lat="43.2581006" lon="12.3937775"><ele>231.0</ele><time>2026-05-01T09:49:00.466Z</time></trkpt><trkpt lat="43.258056" lon="12.3939946"><ele>232.0</ele><time>2026-05-01T09:49:01.467Z</time></trkpt><trkpt lat="43.2580046" lon="12.3942014"><ele>233.0</ele><time>2026-05-01T09:49:02.466Z</time></trkpt><trkpt lat="43.2579474" lon="12.3943975"><ele>234.0</ele><time>2026-05-01T09:49:03.467Z</time></trkpt><trkpt lat="43.2578847" lon="12.3945925"><ele>235.0</ele><time>2026-05-01T09:49:04.467Z</time></trkpt><trkpt lat="43.2578135" lon="12.394781"><ele>236.0</ele><time>2026-05-01T09:49:05.467Z</time></trkpt><trkpt lat="43.257733" lon="12.394972"><ele>237.0</ele><time>2026-05-01T09:49:06.467Z</time></trkpt><trkpt lat="43.2576449" lon="12.3951589"><ele>237.0</ele><time>2026-05-01T09:49:07.466Z</time></trkpt><trkpt lat="43.257564" lon="12.3953439"><ele>237.0</ele><time>2026-05-01T09:49:08.467Z</time></trkpt><trkpt lat="43.2574824" lon="12.3955106"><ele>237.0</ele><time>2026-05-01T09:49:09.466Z</time></trkpt><trkpt lat="43.2573957" lon="12.3956789"><ele>237.25</ele><time>2026-05-01T09:49:10.467Z</time></trkpt><trkpt lat="43.2573052" lon="12.3958406"><ele>237.5</ele><time>2026-05-01T09:49:11.467Z</time></trkpt><trkpt lat="43.257195" lon="12.3959744"><ele>237.75</ele><time>2026-05-01T09:49:12.467Z</time></trkpt><trkpt lat="43.2570737" lon="12.3960885"><ele>238.0</ele><time>2026-05-01T09:49:13.466Z</time></trkpt><trkpt lat="43.2569452" lon="12.3961916"><ele>238.0</ele><time>2026-05-01T09:49:14.467Z</time></trkpt><trkpt lat="43.2568257" lon="12.3962902"><ele>238.0</ele><time>2026-05-01T09:49:15.467Z</time></trkpt><trkpt lat="43.2567086" lon="12.3963995"><ele>238.0</ele><time>2026-05-01T09:49:16.467Z</time></trkpt><trkpt lat="43.2565903" lon="12.3965089"><ele>238.0</ele><time>2026-05-01T09:49:17.467Z</time></trkpt><trkpt lat="43.2564661" lon="12.3966142"><ele>237.75</ele><time>2026-05-01T09:49:18.467Z</time></trkpt><trkpt lat="43.2563486" lon="12.3967133"><ele>237.5</ele><time>2026-05-01T09:49:19.467Z</time></trkpt><trkpt lat="43.2562318" lon="12.3968085"><ele>237.25</ele><time>2026-05-01T09:49:20.466Z</time></trkpt><trkpt lat="43.2561203" lon="12.3969073"><ele>237.0</ele><time>2026-05-01T09:49:21.467Z</time></trkpt><trkpt lat="43.2560152" lon="12.3970074"><ele>237.0</ele><time>2026-05-01T09:49:22.467Z</time></trkpt><trkpt lat="43.255908" lon="12.3971127"><ele>237.0</ele><time>2026-05-01T09:49:23.467Z</time></trkpt><trkpt lat="43.2558058" lon="12.3972173"><ele>237.0</ele><time>2026-05-01T09:49:24.467Z</time></trkpt><trkpt lat="43.2557051" lon="12.3973237"><ele>237.0</ele><time>2026-05-01T09:49:25.467Z</time></trkpt><trkpt lat="43.2556107" lon="12.3974317"><ele>237.0</ele><time>2026-05-01T09:49:26.466Z</time></trkpt><trkpt lat="43.2555162" lon="12.397555"><ele>237.0</ele><time>2026-05-01T09:49:27.467Z</time></trkpt><trkpt lat="43.2554247" lon="12.3976828"><ele>237.0</ele><time>2026-05-01T09:49:28.467Z</time></trkpt><trkpt lat="43.2553258" lon="12.3978219"><ele>237.0</ele><time>2026-05-01T09:49:29.467Z</time></trkpt><trkpt lat="43.2552214" lon="12.3979608"><ele>238.0</ele><time>2026-05-01T09:49:30.467Z</time></trkpt><trkpt lat="43.2551095" lon="12.3981127"><ele>239.0</ele><time>2026-05-01T09:49:31.466Z</time></trkpt><trkpt lat="43.2549982" lon="12.3982811"><ele>240.0</ele><time>2026-05-01T09:49:32.467Z</time></trkpt><trkpt lat="43.2548872" lon="12.3984512"><ele>240.0</ele><time>2026-05-01T09:49:33.467Z</time></trkpt><trkpt lat="43.2547829" lon="12.3986123"><ele>240.0</ele><time>2026-05-01T09:49:34.467Z</time></trkpt><trkpt lat="43.2546848" lon="12.3987624"><ele>240.0</ele><time>2026-05-01T09:49:35.466Z</time></trkpt><trkpt lat="43.2545952" lon="12.3989024"><ele>240.0</ele><time>2026-05-01T09:49:36.467Z</time></trkpt><trkpt lat="43.2545049" lon="12.3990407"><ele>240.0</ele><time>2026-05-01T09:49:37.466Z</time></trkpt><trkpt lat="43.2544259" lon="12.3991715"><ele>240.0</ele><time>2026-05-01T09:49:38.467Z</time></trkpt><trkpt lat="43.2543671" lon="12.3992898"><ele>240.0</ele><time>2026-05-01T09:49:39.467Z</time></trkpt><trkpt lat="43.2543177" lon="12.3993791"><ele>240.0</ele><time>2026-05-01T09:49:40.467Z</time></trkpt><trkpt lat="43.2542563" lon="12.399448"><ele>240.0</ele><time>2026-05-01T09:49:41.467Z</time></trkpt><trkpt lat="43.2541904" lon="12.3995294"><ele>240.0</ele><time>2026-05-01T09:49:42.467Z</time></trkpt><trkpt lat="43.2540853" lon="12.3996025"><ele>240.0</ele><time>2026-05-01T09:49:43.467Z</time></trkpt><trkpt lat="43.253952" lon="12.3996681"><ele>240.0</ele><time>2026-05-01T09:49:44.467Z</time></trkpt><trkpt lat="43.2538119" lon="12.3997351"><ele>240.0</ele><time>2026-05-01T09:49:45.467Z</time></trkpt><trkpt lat="43.2536651" lon="12.3998125"><ele>240.33333333333331</ele><time>2026-05-01T09:49:46.467Z</time></trkpt><trkpt lat="43.2535157" lon="12.3998974"><ele>240.66666666666666</ele><time>2026-05-01T09:49:47.467Z</time></trkpt><trkpt lat="43.2533688" lon="12.399971"><ele>241.0</ele><time>2026-05-01T09:49:48.467Z</time></trkpt><trkpt lat="43.253228" lon="12.4000445"><ele>240.0</ele><time>2026-05-01T09:49:49.467Z</time></trkpt><trkpt lat="43.2530901" lon="12.4001148"><ele>239.0</ele><time>2026-05-01T09:49:50.467Z</time></trkpt><trkpt lat="43.2529471" lon="12.4001935"><ele>238.0</ele><time>2026-05-01T09:49:51.466Z</time></trkpt><trkpt lat="43.2528022" lon="12.4002739"><ele>238.0</ele><time>2026-05-01T09:49:52.467Z</time></trkpt><trkpt lat="43.252649" lon="12.4003553"><ele>238.0</ele><time>2026-05-01T09:49:53.466Z</time></trkpt><trkpt lat="43.2525007" lon="12.4004369"><ele>238.0</ele><time>2026-05-01T09:49:54.467Z</time></trkpt><trkpt lat="43.252356" lon="12.4005142"><ele>237.66666666666666</ele><time>2026-05-01T09:49:55.467Z</time></trkpt><trkpt lat="43.2522102" lon="12.4005915"><ele>237.33333333333331</ele><time>2026-05-01T09:49:56.467Z</time></trkpt><trkpt lat="43.2520597" lon="12.4006709"><ele>237.0</ele><time>2026-05-01T09:49:57.467Z</time></trkpt><trkpt lat="43.2519096" lon="12.4007555"><ele>237.0</ele><time>2026-05-01T09:49:58.467Z</time></trkpt><trkpt lat="43.2517636" lon="12.4008388"><ele>237.0</ele><time>2026-05-01T09:49:59.467Z</time></trkpt><trkpt lat="43.2516212" lon="12.4009164"><ele>237.0</ele><time>2026-05-01T09:50:00.467Z</time></trkpt><trkpt lat="43.2514788" lon="12.4009894"><ele>237.25</ele><time>2026-05-01T09:50:01.467Z</time></trkpt><trkpt lat="43.2513366" lon="12.4010674"><ele>237.5</ele><time>2026-05-01T09:50:02.467Z</time></trkpt><trkpt lat="43.2511978" lon="12.4011399"><ele>237.75</ele><time>2026-05-01T09:50:03.466Z</time></trkpt><trkpt lat="43.2510748" lon="12.4012056"><ele>238.0</ele><time>2026-05-01T09:50:04.467Z</time></trkpt><trkpt lat="43.2509643" lon="12.4012649"><ele>238.0</ele><time>2026-05-01T09:50:05.466Z</time></trkpt><trkpt lat="43.2508652" lon="12.4013156"><ele>238.0</ele><time>2026-05-01T09:50:06.466Z</time></trkpt><trkpt lat="43.25077" lon="12.401367"><ele>238.0</ele><time>2026-05-01T09:50:07.467Z</time></trkpt><trkpt lat="43.2506706" lon="12.4014085"><ele>238.0</ele><time>2026-05-01T09:50:08.466Z</time></trkpt><trkpt lat="43.2505668" lon="12.4014371"><ele>238.0</ele><time>2026-05-01T09:50:09.467Z</time></trkpt><trkpt lat="43.2504751" lon="12.4014591"><ele>237.83333333333331</ele><time>2026-05-01T09:50:10.467Z</time></trkpt><trkpt lat="43.2503981" lon="12.4014794"><ele>237.66666666666666</ele><time>2026-05-01T09:50:11.467Z</time></trkpt><trkpt lat="43.2503254" lon="12.4015002"><ele>237.5</ele><time>2026-05-01T09:50:12.467Z</time></trkpt><trkpt lat="43.2502583" lon="12.4015209"><ele>237.33333333333331</ele><time>2026-05-01T09:50:13.467Z</time></trkpt><trkpt lat="43.2501862" lon="12.4016174"><ele>237.16666666666666</ele><time>2026-05-01T09:50:15.466Z</time></trkpt><trkpt lat="43.2501979" lon="12.401705"><ele>237.0</ele><time>2026-05-01T09:50:16.467Z</time></trkpt><trkpt lat="43.2502154" lon="12.4018121"><ele>237.0</ele><time>2026-05-01T09:50:17.467Z</time></trkpt><trkpt lat="43.2502538" lon="12.4019552"><ele>237.0</ele><time>2026-05-01T09:50:18.467Z</time></trkpt><trkpt lat="43.2502872" lon="12.4021002"><ele>237.0</ele><time>2026-05-01T09:50:19.467Z</time></trkpt><trkpt lat="43.2503207" lon="12.4022594"><ele>237.0</ele><time>2026-05-01T09:50:20.467Z</time></trkpt><trkpt lat="43.2503509" lon="12.4024221"><ele>237.25</ele><time>2026-05-01T09:50:21.467Z</time></trkpt><trkpt lat="43.2503744" lon="12.4025812"><ele>237.5</ele><time>2026-05-01T09:50:22.466Z</time></trkpt><trkpt lat="43.2503976" lon="12.4027489"><ele>237.75</ele><time>2026-05-01T09:50:23.467Z</time></trkpt><trkpt lat="43.2504248" lon="12.40292"><ele>238.0</ele><time>2026-05-01T09:50:24.467Z</time></trkpt><trkpt lat="43.2504639" lon="12.4030927"><ele>238.5</ele><time>2026-05-01T09:50:25.467Z</time></trkpt><trkpt lat="43.2505135" lon="12.4032692"><ele>239.0</ele><time>2026-05-01T09:50:26.467Z</time></trkpt><trkpt lat="43.2505684" lon="12.4034448"><ele>239.5</ele><time>2026-05-01T09:50:27.466Z</time></trkpt><trkpt lat="43.2506218" lon="12.403615"><ele>240.0</ele><time>2026-05-01T09:50:28.467Z</time></trkpt><trkpt lat="43.2506761" lon="12.4037836"><ele>241.0</ele><time>2026-05-01T09:50:29.466Z</time></trkpt><trkpt lat="43.2507333" lon="12.403959"><ele>242.0</ele><time>2026-05-01T09:50:30.467Z</time></trkpt><trkpt lat="43.250784" lon="12.404136"><ele>243.0</ele><time>2026-05-01T09:50:31.467Z</time></trkpt><trkpt lat="43.2508372" lon="12.404315"><ele>244.0</ele><time>2026-05-01T09:50:32.466Z</time></trkpt><trkpt lat="43.25089" lon="12.4044924"><ele>244.0</ele><time>2026-05-01T09:50:33.467Z</time></trkpt><trkpt lat="43.2509336" lon="12.4046617"><ele>244.0</ele><time>2026-05-01T09:50:34.467Z</time></trkpt><trkpt lat="43.2509748" lon="12.4048115"><ele>244.0</ele><time>2026-05-01T09:50:35.467Z</time></trkpt><trkpt lat="43.2510124" lon="12.4049497"><ele>244.0</ele><time>2026-05-01T09:50:36.467Z</time></trkpt><trkpt lat="43.2510228" lon="12.4050843"><ele>245.0</ele><time>2026-05-01T09:50:37.466Z</time></trkpt><trkpt lat="43.2510029" lon="12.4052188"><ele>246.0</ele><time>2026-05-01T09:50:38.467Z</time></trkpt><trkpt lat="43.2509519" lon="12.4053574"><ele>247.0</ele><time>2026-05-01T09:50:39.467Z</time></trkpt><trkpt lat="43.2508754" lon="12.4054916"><ele>248.0</ele><time>2026-05-01T09:50:40.467Z</time></trkpt><trkpt lat="43.2508046" lon="12.405632"><ele>249.5</ele><time>2026-05-01T09:50:41.467Z</time></trkpt><trkpt lat="43.2507612" lon="12.4057753"><ele>251.0</ele><time>2026-05-01T09:50:42.467Z</time></trkpt><trkpt lat="43.250747" lon="12.4059267"><ele>252.5</ele><time>2026-05-01T09:50:43.467Z</time></trkpt><trkpt lat="43.2507676" lon="12.4060905"><ele>254.0</ele><time>2026-05-01T09:50:44.466Z</time></trkpt><trkpt lat="43.2508115" lon="12.4062609"><ele>254.33333333333334</ele><time>2026-05-01T09:50:45.467Z</time></trkpt><trkpt lat="43.2508753" lon="12.4064387"><ele>254.66666666666669</ele><time>2026-05-01T09:50:46.467Z</time></trkpt><trkpt lat="43.2509556" lon="12.4066188"><ele>255.0</ele><time>2026-05-01T09:50:47.466Z</time></trkpt><trkpt lat="43.2510454" lon="12.4067899"><ele>255.0</ele><time>2026-05-01T09:50:48.467Z</time></trkpt><trkpt lat="43.251141" lon="12.4069607"><ele>255.0</ele><time>2026-05-01T09:50:49.467Z</time></trkpt><trkpt lat="43.2512536" lon="12.4071212"><ele>255.0</ele><time>2026-05-01T09:50:50.467Z</time></trkpt><trkpt lat="43.2513767" lon="12.407262"><ele>258.5</ele><time>2026-05-01T09:50:51.467Z</time></trkpt><trkpt lat="43.2514868" lon="12.4073822"><ele>262.0</ele><time>2026-05-01T09:50:52.467Z</time></trkpt><trkpt lat="43.2516085" lon="12.4074911"><ele>265.5</ele><time>2026-05-01T09:50:53.467Z</time></trkpt><trkpt lat="43.2517474" lon="12.4075682"><ele>269.0</ele><time>2026-05-01T09:50:54.466Z</time></trkpt><trkpt lat="43.2518814" lon="12.407653"><ele>269.0</ele><time>2026-05-01T09:50:55.467Z</time></trkpt><trkpt lat="43.2520072" lon="12.4077418"><ele>269.0</ele><time>2026-05-01T09:50:56.466Z</time></trkpt><trkpt lat="43.2521253" lon="12.4078138"><ele>269.0</ele><time>2026-05-01T09:50:57.467Z</time></trkpt><trkpt lat="43.252249" lon="12.4078667"><ele>269.0</ele><time>2026-05-01T09:50:58.467Z</time></trkpt><trkpt lat="43.2523869" lon="12.4078838"><ele>271.75</ele><time>2026-05-01T09:50:59.467Z</time></trkpt><trkpt lat="43.2525318" lon="12.4078738"><ele>274.5</ele><time>2026-05-01T09:51:00.466Z</time></trkpt><trkpt lat="43.2526706" lon="12.4078336"><ele>277.25</ele><time>2026-05-01T09:51:01.467Z</time></trkpt><trkpt lat="43.2528203" lon="12.4078025"><ele>280.0</ele><time>2026-05-01T09:51:02.466Z</time></trkpt><trkpt lat="43.2529614" lon="12.4077599"><ele>280.0</ele><time>2026-05-01T09:51:03.467Z</time></trkpt><trkpt lat="43.2530959" lon="12.4077365"><ele>280.0</ele><time>2026-05-01T09:51:04.467Z</time></trkpt><trkpt lat="43.2532361" lon="12.4077288"><ele>280.0</ele><time>2026-05-01T09:51:05.467Z</time></trkpt><trkpt lat="43.2533752" lon="12.4077343"><ele>280.0</ele><time>2026-05-01T09:51:06.467Z</time></trkpt><trkpt lat="43.2535116" lon="12.407776"><ele>281.75</ele><time>2026-05-01T09:51:07.467Z</time></trkpt><trkpt lat="43.2536404" lon="12.4078496"><ele>283.5</ele><time>2026-05-01T09:51:08.467Z</time></trkpt><trkpt lat="43.253763" lon="12.4079457"><ele>285.25</ele><time>2026-05-01T09:51:09.466Z</time></trkpt><trkpt lat="43.2538791" lon="12.408034"><ele>287.0</ele><time>2026-05-01T09:51:10.466Z</time></trkpt><trkpt lat="43.2540005" lon="12.40812"><ele>291.0</ele><time>2026-05-01T09:51:11.466Z</time></trkpt><trkpt lat="43.2541209" lon="12.4081839"><ele>295.0</ele><time>2026-05-01T09:51:12.467Z</time></trkpt><trkpt lat="43.2542358" lon="12.4082508"><ele>299.0</ele><time>2026-05-01T09:51:13.467Z</time></trkpt><trkpt lat="43.2543546" lon="12.408316"><ele>303.0</ele><time>2026-05-01T09:51:14.467Z</time></trkpt><trkpt lat="43.2544757" lon="12.40838"><ele>303.0</ele><time>2026-05-01T09:51:15.466Z</time></trkpt><trkpt lat="43.2546071" lon="12.4084441"><ele>303.0</ele><time>2026-05-01T09:51:16.467Z</time></trkpt><trkpt lat="43.2547469" lon="12.4085191"><ele>303.0</ele><time>2026-05-01T09:51:17.467Z</time></trkpt><trkpt lat="43.2548898" lon="12.4086032"><ele>303.0</ele><time>2026-05-01T09:51:18.467Z</time></trkpt><trkpt lat="43.2550359" lon="12.4086786"><ele>305.3333333333333</ele><time>2026-05-01T09:51:19.467Z</time></trkpt><trkpt lat="43.255182" lon="12.408752"><ele>307.66666666666663</ele><time>2026-05-01T09:51:20.467Z</time></trkpt><trkpt lat="43.2553211" lon="12.408825"><ele>310.0</ele><time>2026-05-01T09:51:21.467Z</time></trkpt><trkpt lat="43.2554621" lon="12.4089003"><ele>312.5</ele><time>2026-05-01T09:51:22.467Z</time></trkpt><trkpt lat="43.2555966" lon="12.4089858"><ele>315.0</ele><time>2026-05-01T09:51:23.467Z</time></trkpt><trkpt lat="43.2557153" lon="12.4091082"><ele>317.5</ele><time>2026-05-01T09:51:24.467Z</time></trkpt><trkpt lat="43.2558178" lon="12.4092556"><ele>320.0</ele><time>2026-05-01T09:51:25.467Z</time></trkpt><trkpt lat="43.2558961" lon="12.4094192"><ele>320.0</ele><time>2026-05-01T09:51:26.467Z</time></trkpt><trkpt lat="43.255938" lon="12.4095952"><ele>320.0</ele><time>2026-05-01T09:51:27.466Z</time></trkpt><trkpt lat="43.2559518" lon="12.4097791"><ele>320.0</ele><time>2026-05-01T09:51:28.467Z</time></trkpt><trkpt lat="43.2559569" lon="12.409968"><ele>320.0</ele><time>2026-05-01T09:51:29.467Z</time></trkpt><trkpt lat="43.2559448" lon="12.4101698"><ele>322.0</ele><time>2026-05-01T09:51:30.467Z</time></trkpt><trkpt lat="43.2559329" lon="12.4103782"><ele>324.0</ele><time>2026-05-01T09:51:31.467Z</time></trkpt><trkpt lat="43.2559236" lon="12.4105819"><ele>326.0</ele><time>2026-05-01T09:51:32.467Z</time></trkpt><trkpt lat="43.2559119" lon="12.4107883"><ele>328.33333333333337</ele><time>2026-05-01T09:51:33.467Z</time></trkpt><trkpt lat="43.2558994" lon="12.4109958"><ele>330.6666666666667</ele><time>2026-05-01T09:51:34.466Z</time></trkpt><trkpt lat="43.2558898" lon="12.4112036"><ele>333.0</ele><time>2026-05-01T09:51:35.466Z</time></trkpt><trkpt lat="43.2559069" lon="12.4114116"><ele>335.0</ele><time>2026-05-01T09:51:36.467Z</time></trkpt><trkpt lat="43.2559477" lon="12.4116091"><ele>337.0</ele><time>2026-05-01T09:51:37.466Z</time></trkpt><trkpt lat="43.2560064" lon="12.4117998"><ele>339.0</ele><time>2026-05-01T09:51:38.467Z</time></trkpt><trkpt lat="43.2560773" lon="12.41198"><ele>341.0</ele><time>2026-05-01T09:51:39.467Z</time></trkpt><trkpt lat="43.2561764" lon="12.412145"><ele>343.0</ele><time>2026-05-01T09:51:40.467Z</time></trkpt><trkpt lat="43.2562911" lon="12.41229"><ele>345.0</ele><time>2026-05-01T09:51:41.466Z</time></trkpt><trkpt lat="43.2563998" lon="12.4124307"><ele>347.0</ele><time>2026-05-01T09:51:42.467Z</time></trkpt><trkpt lat="43.2565024" lon="12.4125607"><ele>349.0</ele><time>2026-05-01T09:51:43.467Z</time></trkpt><trkpt lat="43.2566137" lon="12.4126763"><ele>352.75</ele><time>2026-05-01T09:51:44.467Z</time></trkpt><trkpt lat="43.2567469" lon="12.412756"><ele>356.5</ele><time>2026-05-01T09:51:45.467Z</time></trkpt><trkpt lat="43.2568878" lon="12.412797"><ele>360.25</ele><time>2026-05-01T09:51:46.466Z</time></trkpt><trkpt lat="43.2570393" lon="12.4128164"><ele>364.0</ele><time>2026-05-01T09:51:47.466Z</time></trkpt><trkpt lat="43.2571868" lon="12.4128177"><ele>367.25</ele><time>2026-05-01T09:51:48.467Z</time></trkpt><trkpt lat="43.2573343" lon="12.4127848"><ele>370.5</ele><time>2026-05-01T09:51:49.467Z</time></trkpt><trkpt lat="43.2574833" lon="12.4127291"><ele>373.75</ele><time>2026-05-01T09:51:50.467Z</time></trkpt><trkpt lat="43.2576175" lon="12.4126695"><ele>377.0</ele><time>2026-05-01T09:51:51.466Z</time></trkpt><trkpt lat="43.2577387" lon="12.4126089"><ele>377.0</ele><time>2026-05-01T09:51:52.467Z</time></trkpt><trkpt lat="43.2578479" lon="12.412582"><ele>377.0</ele><time>2026-05-01T09:51:53.466Z</time></trkpt><trkpt lat="43.2579493" lon="12.412583"><ele>377.0</ele><time>2026-05-01T09:51:54.467Z</time></trkpt><trkpt lat="43.2580592" lon="12.4126159"><ele>377.0</ele><time>2026-05-01T09:51:55.466Z</time></trkpt><trkpt lat="43.2581747" lon="12.4126747"><ele>377.0</ele><time>2026-05-01T09:51:56.467Z</time></trkpt><trkpt lat="43.2582896" lon="12.4127371"><ele>379.0</ele><time>2026-05-01T09:51:57.467Z</time></trkpt><trkpt lat="43.258403" lon="12.4128024"><ele>381.0</ele><time>2026-05-01T09:51:58.467Z</time></trkpt><trkpt lat="43.2585051" lon="12.4128653"><ele>383.0</ele><time>2026-05-01T09:51:59.467Z</time></trkpt><trkpt lat="43.2586231" lon="12.412939"><ele>385.0</ele><time>2026-05-01T09:52:00.467Z</time></trkpt><trkpt lat="43.2587307" lon="12.4130445"><ele>386.5</ele><time>2026-05-01T09:52:01.466Z</time></trkpt><trkpt lat="43.2588364" lon="12.4131715"><ele>388.0</ele><time>2026-05-01T09:52:02.466Z</time></trkpt><trkpt lat="43.2589441" lon="12.4133077"><ele>389.5</ele><time>2026-05-01T09:52:03.466Z</time></trkpt><trkpt lat="43.259054" lon="12.4134362"><ele>391.0</ele><time>2026-05-01T09:52:04.467Z</time></trkpt><trkpt lat="43.2591759" lon="12.4135648"><ele>392.33333333333337</ele><time>2026-05-01T09:52:05.467Z</time></trkpt><trkpt lat="43.2593096" lon="12.413696"><ele>393.66666666666663</ele><time>2026-05-01T09:52:06.467Z</time></trkpt><trkpt lat="43.2594451" lon="12.4138227"><ele>395.0</ele><time>2026-05-01T09:52:07.466Z</time></trkpt><trkpt lat="43.2595797" lon="12.4139522"><ele>398.0</ele><time>2026-05-01T09:52:08.467Z</time></trkpt><trkpt lat="43.2597154" lon="12.4140785"><ele>401.0</ele><time>2026-05-01T09:52:09.467Z</time></trkpt><trkpt lat="43.2598534" lon="12.4142005"><ele>404.0</ele><time>2026-05-01T09:52:10.467Z</time></trkpt><trkpt lat="43.2599889" lon="12.4143278"><ele>406.0</ele><time>2026-05-01T09:52:11.466Z</time></trkpt><trkpt lat="43.2601227" lon="12.4144593"><ele>408.0</ele><time>2026-05-01T09:52:12.467Z</time></trkpt><trkpt lat="43.2602471" lon="12.4145877"><ele>410.0</ele><time>2026-05-01T09:52:13.467Z</time></trkpt><trkpt lat="43.2603622" lon="12.4147251"><ele>411.66666666666663</ele><time>2026-05-01T09:52:14.467Z</time></trkpt><trkpt lat="43.2604765" lon="12.4148597"><ele>413.33333333333337</ele><time>2026-05-01T09:52:15.466Z</time></trkpt><trkpt lat="43.2605943" lon="12.4149985"><ele>415.0</ele><time>2026-05-01T09:52:16.467Z</time></trkpt><trkpt lat="43.2607112" lon="12.4151373"><ele>417.33333333333337</ele><time>2026-05-01T09:52:17.467Z</time></trkpt><trkpt lat="43.2608297" lon="12.4152718"><ele>419.66666666666663</ele><time>2026-05-01T09:52:18.467Z</time></trkpt><trkpt lat="43.2609516" lon="12.4154129"><ele>422.0</ele><time>2026-05-01T09:52:19.467Z</time></trkpt><trkpt lat="43.2610767" lon="12.4155616"><ele>423.66666666666663</ele><time>2026-05-01T09:52:20.467Z</time></trkpt><trkpt lat="43.2612059" lon="12.4157093"><ele>425.33333333333337</ele><time>2026-05-01T09:52:21.467Z</time></trkpt><trkpt lat="43.2613313" lon="12.4158584"><ele>427.0</ele><time>2026-05-01T09:52:22.467Z</time></trkpt><trkpt lat="43.2614552" lon="12.4160009"><ele>430.75</ele><time>2026-05-01T09:52:23.467Z</time></trkpt><trkpt lat="43.2615624" lon="12.4161438"><ele>434.5</ele><time>2026-05-01T09:52:24.467Z</time></trkpt><trkpt lat="43.2616377" lon="12.4162915"><ele>438.25</ele><time>2026-05-01T09:52:25.467Z</time></trkpt><trkpt lat="43.2616744" lon="12.4164505"><ele>442.0</ele><time>2026-05-01T09:52:26.467Z</time></trkpt><trkpt lat="43.2616783" lon="12.4166265"><ele>443.75</ele><time>2026-05-01T09:52:27.467Z</time></trkpt><trkpt lat="43.261638" lon="12.4167896"><ele>445.5</ele><time>2026-05-01T09:52:28.467Z</time></trkpt><trkpt lat="43.2615858" lon="12.4169498"><ele>447.25</ele><time>2026-05-01T09:52:29.466Z</time></trkpt><trkpt lat="43.2615207" lon="12.4170998"><ele>449.0</ele><time>2026-05-01T09:52:30.467Z</time></trkpt><trkpt lat="43.26145" lon="12.4172532"><ele>448.2</ele><time>2026-05-01T09:52:31.466Z</time></trkpt><trkpt lat="43.2613887" lon="12.4174022"><ele>447.4</ele><time>2026-05-01T09:52:32.466Z</time></trkpt><trkpt lat="43.2613322" lon="12.4175339"><ele>446.6</ele><time>2026-05-01T09:52:33.467Z</time></trkpt><trkpt lat="43.2613269" lon="12.4176684"><ele>445.8</ele><time>2026-05-01T09:52:34.467Z</time></trkpt><trkpt lat="43.2613525" lon="12.4177959"><ele>445.0</ele><time>2026-05-01T09:52:35.467Z</time></trkpt><trkpt lat="43.2614012" lon="12.4179299"><ele>449.25</ele><time>2026-05-01T09:52:36.467Z</time></trkpt><trkpt lat="43.2614805" lon="12.4180341"><ele>453.5</ele><time>2026-05-01T09:52:37.466Z</time></trkpt><trkpt lat="43.2615923" lon="12.4181263"><ele>457.75</ele><time>2026-05-01T09:52:38.467Z</time></trkpt><trkpt lat="43.2617115" lon="12.4182054"><ele>462.0</ele><time>2026-05-01T09:52:39.466Z</time></trkpt><trkpt lat="43.261839" lon="12.4182877"><ele>462.0</ele><time>2026-05-01T09:52:40.467Z</time></trkpt><trkpt lat="43.2619648" lon="12.4183764"><ele>462.0</ele><time>2026-05-01T09:52:41.467Z</time></trkpt><trkpt lat="43.2620859" lon="12.4184792"><ele>462.0</ele><time>2026-05-01T09:52:42.467Z</time></trkpt><trkpt lat="43.2622117" lon="12.4185929"><ele>462.0</ele><time>2026-05-01T09:52:43.466Z</time></trkpt><trkpt lat="43.2623326" lon="12.4187115"><ele>464.33333333333337</ele><time>2026-05-01T09:52:44.467Z</time></trkpt><trkpt lat="43.2624572" lon="12.4188263"><ele>466.6666666666667</ele><time>2026-05-01T09:52:45.467Z</time></trkpt><trkpt lat="43.2625862" lon="12.4189349"><ele>469.0</ele><time>2026-05-01T09:52:46.467Z</time></trkpt><trkpt lat="43.2627217" lon="12.4190231"><ele>469.0</ele><time>2026-05-01T09:52:47.467Z</time></trkpt><trkpt lat="43.2628625" lon="12.4190878"><ele>469.0</ele><time>2026-05-01T09:52:48.467Z</time></trkpt><trkpt lat="43.2630049" lon="12.4191236"><ele>469.0</ele><time>2026-05-01T09:52:49.467Z</time></trkpt><trkpt lat="43.2631584" lon="12.4191413"><ele>469.0</ele><time>2026-05-01T09:52:50.466Z</time></trkpt><trkpt lat="43.263317" lon="12.4191662"><ele>474.6666666666667</ele><time>2026-05-01T09:52:51.467Z</time></trkpt><trkpt lat="43.2634718" lon="12.4191978"><ele>480.33333333333337</ele><time>2026-05-01T09:52:52.466Z</time></trkpt><trkpt lat="43.2636259" lon="12.4192537"><ele>486.0</ele><time>2026-05-01T09:52:53.467Z</time></trkpt><trkpt lat="43.2637767" lon="12.4193326"><ele>486.0</ele><time>2026-05-01T09:52:54.466Z</time></trkpt><trkpt lat="43.2639209" lon="12.4194245"><ele>486.0</ele><time>2026-05-01T09:52:55.467Z</time></trkpt><trkpt lat="43.2640627" lon="12.4195184"><ele>486.0</ele><time>2026-05-01T09:52:56.467Z</time></trkpt><trkpt lat="43.2642054" lon="12.4195858"><ele>484.25</ele><time>2026-05-01T09:52:57.467Z</time></trkpt><trkpt lat="43.2643429" lon="12.419658"><ele>482.5</ele><time>2026-05-01T09:52:58.467Z</time></trkpt><trkpt lat="43.264462" lon="12.4197549"><ele>480.75</ele><time>2026-05-01T09:52:59.467Z</time></trkpt><trkpt lat="43.2645541" lon="12.4198815"><ele>479.0</ele><time>2026-05-01T09:53:00.467Z</time></trkpt><trkpt lat="43.2646266" lon="12.4200244"><ele>479.0</ele><time>2026-05-01T09:53:01.467Z</time></trkpt><trkpt lat="43.2646906" lon="12.4201641"><ele>479.0</ele><time>2026-05-01T09:53:02.467Z</time></trkpt><trkpt lat="43.2647632" lon="12.4202798"><ele>479.0</ele><time>2026-05-01T09:53:03.467Z</time></trkpt><trkpt lat="43.264852" lon="12.4203712"><ele>479.0</ele><time>2026-05-01T09:53:04.466Z</time></trkpt><trkpt lat="43.2649643" lon="12.4204379"><ele>478.0</ele><time>2026-05-01T09:53:05.467Z</time></trkpt><trkpt lat="43.2651084" lon="12.4204785"><ele>477.0</ele><time>2026-05-01T09:53:06.467Z</time></trkpt><trkpt lat="43.2652695" lon="12.4205108"><ele>476.0</ele><time>2026-05-01T09:53:07.466Z</time></trkpt><trkpt lat="43.2654334" lon="12.4205415"><ele>476.0</ele><time>2026-05-01T09:53:08.466Z</time></trkpt><trkpt lat="43.2656028" lon="12.4205905"><ele>476.0</ele><time>2026-05-01T09:53:09.467Z</time></trkpt><trkpt lat="43.2657622" lon="12.4206545"><ele>476.0</ele><time>2026-05-01T09:53:10.467Z</time></trkpt><trkpt lat="43.2659273" lon="12.4207357"><ele>478.0</ele><time>2026-05-01T09:53:11.467Z</time></trkpt><trkpt lat="43.2660807" lon="12.4208538"><ele>480.0</ele><time>2026-05-01T09:53:12.467Z</time></trkpt><trkpt lat="43.2662093" lon="12.4209886"><ele>482.0</ele><time>2026-05-01T09:53:13.467Z</time></trkpt><trkpt lat="43.266325" lon="12.4211122"><ele>483.25</ele><time>2026-05-01T09:53:14.467Z</time></trkpt><trkpt lat="43.2664468" lon="12.4212138"><ele>484.5</ele><time>2026-05-01T09:53:15.467Z</time></trkpt><trkpt lat="43.266584" lon="12.4212859"><ele>485.75</ele><time>2026-05-01T09:53:16.467Z</time></trkpt><trkpt lat="43.2667361" lon="12.4213387"><ele>487.0</ele><time>2026-05-01T09:53:17.467Z</time></trkpt><trkpt lat="43.266891" lon="12.4213666"><ele>487.33333333333337</ele><time>2026-05-01T09:53:18.467Z</time></trkpt><trkpt lat="43.2670548" lon="12.4213862"><ele>487.66666666666663</ele><time>2026-05-01T09:53:19.467Z</time></trkpt><trkpt lat="43.2672173" lon="12.4214011"><ele>488.0</ele><time>2026-05-01T09:53:20.466Z</time></trkpt><trkpt lat="43.2673898" lon="12.4214101"><ele>491.66666666666663</ele><time>2026-05-01T09:53:21.467Z</time></trkpt><trkpt lat="43.2675676" lon="12.4214355"><ele>495.33333333333337</ele><time>2026-05-01T09:53:22.467Z</time></trkpt><trkpt lat="43.2677479" lon="12.4214642"><ele>499.0</ele><time>2026-05-01T09:53:23.467Z</time></trkpt><trkpt lat="43.2679228" lon="12.4214907"><ele>499.0</ele><time>2026-05-01T09:53:24.467Z</time></trkpt><trkpt lat="43.2680964" lon="12.4215114"><ele>499.0</ele><time>2026-05-01T09:53:25.466Z</time></trkpt><trkpt lat="43.268268" lon="12.421537"><ele>499.0</ele><time>2026-05-01T09:53:26.467Z</time></trkpt><trkpt lat="43.2684245" lon="12.4215694"><ele>501.75</ele><time>2026-05-01T09:53:27.467Z</time></trkpt><trkpt lat="43.2685653" lon="12.4216465"><ele>504.5</ele><time>2026-05-01T09:53:28.467Z</time></trkpt><trkpt lat="43.2686752" lon="12.4217648"><ele>507.25</ele><time>2026-05-01T09:53:29.467Z</time></trkpt><trkpt lat="43.2687542" lon="12.4219075"><ele>510.0</ele><time>2026-05-01T09:53:30.467Z</time></trkpt><trkpt lat="43.2688254" lon="12.4220685"><ele>508.5</ele><time>2026-05-01T09:53:31.467Z</time></trkpt><trkpt lat="43.2688956" lon="12.4222403"><ele>507.0</ele><time>2026-05-01T09:53:32.467Z</time></trkpt><trkpt lat="43.2689657" lon="12.4224185"><ele>505.5</ele><time>2026-05-01T09:53:33.467Z</time></trkpt><trkpt lat="43.2690385" lon="12.4225986"><ele>504.0</ele><time>2026-05-01T09:53:34.467Z</time></trkpt><trkpt lat="43.2691174" lon="12.4227809"><ele>510.66666666666663</ele><time>2026-05-01T09:53:35.467Z</time></trkpt><trkpt lat="43.2692059" lon="12.422955"><ele>517.3333333333333</ele><time>2026-05-01T09:53:36.467Z</time></trkpt><trkpt lat="43.2693187" lon="12.4231174"><ele>524.0</ele><time>2026-05-01T09:53:37.467Z</time></trkpt><trkpt lat="43.269442" lon="12.4232714"><ele>524.6666666666666</ele><time>2026-05-01T09:53:38.467Z</time></trkpt><trkpt lat="43.2695635" lon="12.4234307"><ele>525.3333333333334</ele><time>2026-05-01T09:53:39.467Z</time></trkpt><trkpt lat="43.2696955" lon="12.4235752"><ele>526.0</ele><time>2026-05-01T09:53:40.467Z</time></trkpt><trkpt lat="43.2698453" lon="12.4237047"><ele>524.6666666666667</ele><time>2026-05-01T09:53:41.466Z</time></trkpt><trkpt lat="43.2700044" lon="12.4238052"><ele>523.3333333333334</ele><time>2026-05-01T09:53:42.466Z</time></trkpt><trkpt lat="43.2701561" lon="12.4239073"><ele>522.0</ele><time>2026-05-01T09:53:43.467Z</time></trkpt><trkpt lat="43.2703068" lon="12.4239923"><ele>525.75</ele><time>2026-05-01T09:53:44.467Z</time></trkpt><trkpt lat="43.2704579" lon="12.4240531"><ele>529.5</ele><time>2026-05-01T09:53:45.467Z</time></trkpt><trkpt lat="43.2705971" lon="12.4240948"><ele>533.25</ele><time>2026-05-01T09:53:46.467Z</time></trkpt><trkpt lat="43.2707273" lon="12.4241445"><ele>537.0</ele><time>2026-05-01T09:53:47.466Z</time></trkpt><trkpt lat="43.2708342" lon="12.4242131"><ele>537.0</ele><time>2026-05-01T09:53:48.466Z</time></trkpt><trkpt lat="43.2709402" lon="12.4243091"><ele>537.0</ele><time>2026-05-01T09:53:49.467Z</time></trkpt><trkpt lat="43.271018" lon="12.4244443"><ele>537.0</ele><time>2026-05-01T09:53:50.467Z</time></trkpt><trkpt lat="43.2710819" lon="12.4246043"><ele>537.0</ele><time>2026-05-01T09:53:51.467Z</time></trkpt><trkpt lat="43.2711391" lon="12.4247994"><ele>543.0</ele><time>2026-05-01T09:53:52.467Z</time></trkpt><trkpt lat="43.2712145" lon="12.4250055"><ele>549.0</ele><time>2026-05-01T09:53:53.467Z</time></trkpt><trkpt lat="43.2713055" lon="12.4252046"><ele>555.0</ele><time>2026-05-01T09:53:54.467Z</time></trkpt><trkpt lat="43.2714035" lon="12.4253905"><ele>553.3333333333334</ele><time>2026-05-01T09:53:55.466Z</time></trkpt><trkpt lat="43.2715107" lon="12.4255714"><ele>551.6666666666667</ele><time>2026-05-01T09:53:56.467Z</time></trkpt><trkpt lat="43.2716273" lon="12.4257183"><ele>550.0</ele><time>2026-05-01T09:53:57.466Z</time></trkpt><trkpt lat="43.2717387" lon="12.4258477"><ele>550.0</ele><time>2026-05-01T09:53:58.467Z</time></trkpt><trkpt lat="43.2718352" lon="12.4259825"><ele>550.0</ele><time>2026-05-01T09:53:59.467Z</time></trkpt><trkpt lat="43.271924" lon="12.4261336"><ele>550.0</ele><time>2026-05-01T09:54:00.467Z</time></trkpt><trkpt lat="43.2720126" lon="12.4262989"><ele>550.0</ele><time>2026-05-01T09:54:01.466Z</time></trkpt><trkpt lat="43.2720889" lon="12.4264526"><ele>550.5</ele><time>2026-05-01T09:54:02.467Z</time></trkpt><trkpt lat="43.2721699" lon="12.4266052"><ele>551.0</ele><time>2026-05-01T09:54:03.467Z</time></trkpt><trkpt lat="43.2722563" lon="12.4267643"><ele>551.5</ele><time>2026-05-01T09:54:04.467Z</time></trkpt><trkpt lat="43.2723431" lon="12.4269186"><ele>552.0</ele><time>2026-05-01T09:54:05.466Z</time></trkpt><trkpt lat="43.2724279" lon="12.4270723"><ele>551.25</ele><time>2026-05-01T09:54:06.466Z</time></trkpt><trkpt lat="43.2725051" lon="12.4272371"><ele>550.5</ele><time>2026-05-01T09:54:07.467Z</time></trkpt><trkpt lat="43.2725751" lon="12.4274209"><ele>549.75</ele><time>2026-05-01T09:54:08.467Z</time></trkpt><trkpt lat="43.2726298" lon="12.4276134"><ele>549.0</ele><time>2026-05-01T09:54:09.467Z</time></trkpt><trkpt lat="43.2726783" lon="12.4277988"><ele>549.0</ele><time>2026-05-01T09:54:10.467Z</time></trkpt><trkpt lat="43.272726" lon="12.4279711"><ele>549.0</ele><time>2026-05-01T09:54:11.467Z</time></trkpt><trkpt lat="43.2727959" lon="12.4281242"><ele>549.0</ele><time>2026-05-01T09:54:12.466Z</time></trkpt><trkpt lat="43.272901" lon="12.4282529"><ele>549.0</ele><time>2026-05-01T09:54:13.466Z</time></trkpt><trkpt lat="43.2730239" lon="12.4283765"><ele>550.3333333333334</ele><time>2026-05-01T09:54:14.467Z</time></trkpt><trkpt lat="43.2731448" lon="12.4285097"><ele>551.6666666666667</ele><time>2026-05-01T09:54:15.467Z</time></trkpt><trkpt lat="43.2732625" lon="12.4286376"><ele>553.0</ele><time>2026-05-01T09:54:16.466Z</time></trkpt><trkpt lat="43.2733737" lon="12.4287693"><ele>556.5</ele><time>2026-05-01T09:54:17.466Z</time></trkpt><trkpt lat="43.2734847" lon="12.4288838"><ele>560.0</ele><time>2026-05-01T09:54:18.466Z</time></trkpt><trkpt lat="43.2735943" lon="12.4289901"><ele>563.5</ele><time>2026-05-01T09:54:19.466Z</time></trkpt><trkpt lat="43.2737206" lon="12.429082"><ele>567.0</ele><time>2026-05-01T09:54:20.466Z</time></trkpt><trkpt lat="43.2738617" lon="12.4291621"><ele>567.75</ele><time>2026-05-01T09:54:21.467Z</time></trkpt><trkpt lat="43.2739993" lon="12.4292374"><ele>568.5</ele><time>2026-05-01T09:54:22.467Z</time></trkpt><trkpt lat="43.2741307" lon="12.4293225"><ele>569.25</ele><time>2026-05-01T09:54:23.467Z</time></trkpt><trkpt lat="43.2742459" lon="12.429431"><ele>570.0</ele><time>2026-05-01T09:54:24.466Z</time></trkpt><trkpt lat="43.2743449" lon="12.4295654"><ele>572.75</ele><time>2026-05-01T09:54:25.467Z</time></trkpt><trkpt lat="43.2744233" lon="12.4297152"><ele>575.5</ele><time>2026-05-01T09:54:26.467Z</time></trkpt><trkpt lat="43.2745001" lon="12.4298747"><ele>578.25</ele><time>2026-05-01T09:54:27.467Z</time></trkpt><trkpt lat="43.2745746" lon="12.4300358"><ele>581.0</ele><time>2026-05-01T09:54:28.467Z</time></trkpt><trkpt lat="43.2746541" lon="12.4301937"><ele>581.0</ele><time>2026-05-01T09:54:29.467Z</time></trkpt><trkpt lat="43.2747411" lon="12.4303455"><ele>581.0</ele><time>2026-05-01T09:54:30.467Z</time></trkpt><trkpt lat="43.2748348" lon="12.4304939"><ele>581.0</ele><time>2026-05-01T09:54:31.467Z</time></trkpt><trkpt lat="43.2749371" lon="12.4306396"><ele>581.0</ele><time>2026-05-01T09:54:32.467Z</time></trkpt><trkpt lat="43.2750387" lon="12.430791"><ele>584.3333333333333</ele><time>2026-05-01T09:54:33.466Z</time></trkpt><trkpt lat="43.2751513" lon="12.430933"><ele>587.6666666666666</ele><time>2026-05-01T09:54:34.467Z</time></trkpt><trkpt lat="43.2752724" lon="12.4310449"><ele>591.0</ele><time>2026-05-01T09:54:35.467Z</time></trkpt><trkpt lat="43.27541" lon="12.4311377"><ele>591.0</ele><time>2026-05-01T09:54:36.467Z</time></trkpt><trkpt lat="43.2755617" lon="12.4312013"><ele>591.0</ele><time>2026-05-01T09:54:37.467Z</time></trkpt><trkpt lat="43.2757176" lon="12.4312369"><ele>591.0</ele><time>2026-05-01T09:54:38.467Z</time></trkpt><trkpt lat="43.2758752" lon="12.4312619"><ele>590.5</ele><time>2026-05-01T09:54:39.466Z</time></trkpt><trkpt lat="43.2760251" lon="12.431282"><ele>590.0</ele><time>2026-05-01T09:54:40.466Z</time></trkpt><trkpt lat="43.276174" lon="12.4313106"><ele>589.5</ele><time>2026-05-01T09:54:41.466Z</time></trkpt><trkpt lat="43.2763135" lon="12.4313562"><ele>589.0</ele><time>2026-05-01T09:54:42.467Z</time></trkpt><trkpt lat="43.2764434" lon="12.4313962"><ele>590.75</ele><time>2026-05-01T09:54:43.467Z</time></trkpt><trkpt lat="43.276572" lon="12.4314348"><ele>592.5</ele><time>2026-05-01T09:54:44.467Z</time></trkpt><trkpt lat="43.2766805" lon="12.431489"><ele>594.25</ele><time>2026-05-01T09:54:45.467Z</time></trkpt><trkpt lat="43.2767699" lon="12.4315637"><ele>596.0</ele><time>2026-05-01T09:54:46.467Z</time></trkpt><trkpt lat="43.2768422" lon="12.4316547"><ele>596.0</ele><time>2026-05-01T09:54:47.467Z</time></trkpt><trkpt lat="43.2768926" lon="12.4317681"><ele>596.0</ele><time>2026-05-01T09:54:48.466Z</time></trkpt><trkpt lat="43.2769423" lon="12.4318906"><ele>596.0</ele><time>2026-05-01T09:54:49.467Z</time></trkpt><trkpt lat="43.2769742" lon="12.4320239"><ele>596.0</ele><time>2026-05-01T09:54:50.467Z</time></trkpt><trkpt lat="43.2769961" lon="12.4321752"><ele>596.0</ele><time>2026-05-01T09:54:51.467Z</time></trkpt><trkpt lat="43.2770001" lon="12.4323213"><ele>596.0</ele><time>2026-05-01T09:54:52.467Z</time></trkpt><trkpt lat="43.2769914" lon="12.4324789"><ele>596.0</ele><time>2026-05-01T09:54:53.467Z</time></trkpt><trkpt lat="43.2769778" lon="12.4326399"><ele>596.0</ele><time>2026-05-01T09:54:54.467Z</time></trkpt><trkpt lat="43.2769607" lon="12.4327892"><ele>596.0</ele><time>2026-05-01T09:54:55.466Z</time></trkpt><trkpt lat="43.2769457" lon="12.4329299"><ele>596.0</ele><time>2026-05-01T09:54:56.467Z</time></trkpt><trkpt lat="43.2769299" lon="12.4330705"><ele>596.0</ele><time>2026-05-01T09:54:57.467Z</time></trkpt><trkpt lat="43.2769146" lon="12.4332163"><ele>596.0</ele><time>2026-05-01T09:54:58.466Z</time></trkpt><trkpt lat="43.2768915" lon="12.4333587"><ele>596.0</ele><time>2026-05-01T09:54:59.467Z</time></trkpt><trkpt lat="43.2768667" lon="12.4335109"><ele>596.0</ele><time>2026-05-01T09:55:00.467Z</time></trkpt><trkpt lat="43.2768336" lon="12.4336709"><ele>596.0</ele><time>2026-05-01T09:55:01.467Z</time></trkpt><trkpt lat="43.2768022" lon="12.4338348"><ele>595.25</ele><time>2026-05-01T09:55:02.467Z</time></trkpt><trkpt lat="43.2767679" lon="12.4340059"><ele>594.5</ele><time>2026-05-01T09:55:03.467Z</time></trkpt><trkpt lat="43.2767367" lon="12.4341791"><ele>593.75</ele><time>2026-05-01T09:55:04.466Z</time></trkpt><trkpt lat="43.2766919" lon="12.4343298"><ele>593.0</ele><time>2026-05-01T09:55:05.467Z</time></trkpt><trkpt lat="43.2766428" lon="12.4344844"><ele>594.25</ele><time>2026-05-01T09:55:06.466Z</time></trkpt><trkpt lat="43.2766013" lon="12.4346442"><ele>595.5</ele><time>2026-05-01T09:55:07.467Z</time></trkpt><trkpt lat="43.276578" lon="12.4348207"><ele>596.75</ele><time>2026-05-01T09:55:08.466Z</time></trkpt><trkpt lat="43.2765769" lon="12.4350066"><ele>598.0</ele><time>2026-05-01T09:55:09.467Z</time></trkpt><trkpt lat="43.2765814" lon="12.4351802"><ele>598.0</ele><time>2026-05-01T09:55:10.467Z</time></trkpt><trkpt lat="43.2765837" lon="12.4353503"><ele>598.0</ele><time>2026-05-01T09:55:11.467Z</time></trkpt><trkpt lat="43.2765634" lon="12.4354978"><ele>598.0</ele><time>2026-05-01T09:55:12.467Z</time></trkpt><trkpt lat="43.2765198" lon="12.4356343"><ele>598.0</ele><time>2026-05-01T09:55:13.467Z</time></trkpt><trkpt lat="43.2764772" lon="12.4357724"><ele>600.0</ele><time>2026-05-01T09:55:14.467Z</time></trkpt><trkpt lat="43.2764772" lon="12.4359303"><ele>602.0</ele><time>2026-05-01T09:55:15.466Z</time></trkpt><trkpt lat="43.2764891" lon="12.4360951"><ele>604.0</ele><time>2026-05-01T09:55:16.466Z</time></trkpt><trkpt lat="43.2765155" lon="12.4362555"><ele>606.0</ele><time>2026-05-01T09:55:17.467Z</time></trkpt><trkpt lat="43.2765411" lon="12.4364146"><ele>608.0</ele><time>2026-05-01T09:55:18.467Z</time></trkpt><trkpt lat="43.2765673" lon="12.4365658"><ele>610.0</ele><time>2026-05-01T09:55:19.466Z</time></trkpt><trkpt lat="43.2765942" lon="12.4367237"><ele>612.0</ele><time>2026-05-01T09:55:20.466Z</time></trkpt><trkpt lat="43.2766257" lon="12.4368821"><ele>614.0</ele><time>2026-05-01T09:55:21.467Z</time></trkpt><trkpt lat="43.2766515" lon="12.4370294"><ele>614.8</ele><time>2026-05-01T09:55:22.466Z</time></trkpt><trkpt lat="43.2766595" lon="12.4371723"><ele>615.5999999999999</ele><time>2026-05-01T09:55:23.467Z</time></trkpt><trkpt lat="43.2766515" lon="12.4373175"><ele>616.4</ele><time>2026-05-01T09:55:24.467Z</time></trkpt><trkpt lat="43.2766294" lon="12.437453"><ele>617.1999999999999</ele><time>2026-05-01T09:55:25.467Z</time></trkpt><trkpt lat="43.2766036" lon="12.4375674"><ele>618.0</ele><time>2026-05-01T09:55:26.466Z</time></trkpt><trkpt lat="43.2765834" lon="12.4376791"><ele>618.0</ele><time>2026-05-01T09:55:27.467Z</time></trkpt><trkpt lat="43.2765697" lon="12.4377777"><ele>618.0</ele><time>2026-05-01T09:55:28.467Z</time></trkpt><trkpt lat="43.2765343" lon="12.4378562"><ele>618.0</ele><time>2026-05-01T09:55:29.467Z</time></trkpt><trkpt lat="43.2764855" lon="12.4379256"><ele>618.0</ele><time>2026-05-01T09:55:30.466Z</time></trkpt><trkpt lat="43.2764179" lon="12.4379844"><ele>618.0</ele><time>2026-05-01T09:55:31.467Z</time></trkpt><trkpt lat="43.2763498" lon="12.4380419"><ele>618.0</ele><time>2026-05-01T09:55:32.466Z</time></trkpt><trkpt lat="43.2762866" lon="12.4381199"><ele>620.1666666666666</ele><time>2026-05-01T09:55:33.467Z</time></trkpt><trkpt lat="43.2762458" lon="12.4382027"><ele>622.3333333333334</ele><time>2026-05-01T09:55:34.466Z</time></trkpt><trkpt lat="43.2762252" lon="12.4382996"><ele>624.5</ele><time>2026-05-01T09:55:35.467Z</time></trkpt><trkpt lat="43.2762309" lon="12.438424"><ele>626.6666666666667</ele><time>2026-05-01T09:55:36.467Z</time></trkpt><trkpt lat="43.2762593" lon="12.4385436"><ele>628.8333333333334</ele><time>2026-05-01T09:55:37.467Z</time></trkpt><trkpt lat="43.2763008" lon="12.4386462"><ele>631.0</ele><time>2026-05-01T09:55:38.467Z</time></trkpt><trkpt lat="43.2763456" lon="12.4387544"><ele>630.0</ele><time>2026-05-01T09:55:39.467Z</time></trkpt><trkpt lat="43.2763706" lon="12.4388586"><ele>629.0</ele><time>2026-05-01T09:55:40.466Z</time></trkpt><trkpt lat="43.2763837" lon="12.4389648"><ele>628.0</ele><time>2026-05-01T09:55:41.467Z</time></trkpt><trkpt lat="43.2764054" lon="12.4390652"><ele>627.0</ele><time>2026-05-01T09:55:42.466Z</time></trkpt><trkpt lat="43.2764601" lon="12.4391641"><ele>626.0</ele><time>2026-05-01T09:55:43.466Z</time></trkpt><trkpt lat="43.276546" lon="12.4392463"><ele>625.0</ele><time>2026-05-01T09:55:44.467Z</time></trkpt><trkpt lat="43.2766432" lon="12.4393377"><ele>625.0</ele><time>2026-05-01T09:55:45.467Z</time></trkpt><trkpt lat="43.2767534" lon="12.4394314"><ele>625.0</ele><time>2026-05-01T09:55:46.467Z</time></trkpt><trkpt lat="43.2768549" lon="12.4395258"><ele>625.0</ele><time>2026-05-01T09:55:47.467Z</time></trkpt><trkpt lat="43.276933" lon="12.4396051"><ele>625.0</ele><time>2026-05-01T09:55:48.467Z</time></trkpt><trkpt lat="43.2770056" lon="12.4396961"><ele>625.0</ele><time>2026-05-01T09:55:49.467Z</time></trkpt><trkpt lat="43.2770705" lon="12.4398203"><ele>625.6</ele><time>2026-05-01T09:55:50.466Z</time></trkpt><trkpt lat="43.2771283" lon="12.4399459"><ele>626.2</ele><time>2026-05-01T09:55:51.467Z</time></trkpt><trkpt lat="43.2771956" lon="12.4400547"><ele>626.8</ele><time>2026-05-01T09:55:52.467Z</time></trkpt><trkpt lat="43.2772593" lon="12.4401781"><ele>627.4</ele><time>2026-05-01T09:55:53.466Z</time></trkpt><trkpt lat="43.277321" lon="12.4403119"><ele>628.0</ele><time>2026-05-01T09:55:54.467Z</time></trkpt><trkpt lat="43.2773643" lon="12.440457"><ele>631.0</ele><time>2026-05-01T09:55:55.467Z</time></trkpt><trkpt lat="43.277384" lon="12.440597"><ele>634.0</ele><time>2026-05-01T09:55:56.467Z</time></trkpt><trkpt lat="43.2773972" lon="12.4407218"><ele>637.0</ele><time>2026-05-01T09:55:57.467Z</time></trkpt><trkpt lat="43.2774128" lon="12.4408269"><ele>640.0</ele><time>2026-05-01T09:55:58.467Z</time></trkpt><trkpt lat="43.2774438" lon="12.4409408"><ele>643.0</ele><time>2026-05-01T09:55:59.467Z</time></trkpt><trkpt lat="43.2774837" lon="12.4410794"><ele>643.0</ele><time>2026-05-01T09:56:00.467Z</time></trkpt><trkpt lat="43.2775376" lon="12.4412189"><ele>643.0</ele><time>2026-05-01T09:56:01.466Z</time></trkpt><trkpt lat="43.2775935" lon="12.4413803"><ele>643.0</ele><time>2026-05-01T09:56:02.466Z</time></trkpt><trkpt lat="43.2776543" lon="12.4415391"><ele>643.0</ele><time>2026-05-01T09:56:03.467Z</time></trkpt><trkpt lat="43.2777223" lon="12.441678"><ele>641.6</ele><time>2026-05-01T09:56:04.467Z</time></trkpt><trkpt lat="43.2777836" lon="12.4418083"><ele>640.1999999999999</ele><time>2026-05-01T09:56:05.466Z</time></trkpt><trkpt lat="43.2778416" lon="12.4419195"><ele>638.8</ele><time>2026-05-01T09:56:06.467Z</time></trkpt><trkpt lat="43.2778854" lon="12.4420247"><ele>637.4</ele><time>2026-05-01T09:56:07.466Z</time></trkpt><trkpt lat="43.2779248" lon="12.4421301"><ele>636.0</ele><time>2026-05-01T09:56:08.467Z</time></trkpt><trkpt lat="43.2779501" lon="12.4422618"><ele>634.2</ele><time>2026-05-01T09:56:09.467Z</time></trkpt><trkpt lat="43.2779685" lon="12.4424026"><ele>632.4000000000001</ele><time>2026-05-01T09:56:10.467Z</time></trkpt><trkpt lat="43.2779758" lon="12.4425364"><ele>630.6</ele><time>2026-05-01T09:56:11.467Z</time></trkpt><trkpt lat="43.2779799" lon="12.4426797"><ele>628.8000000000001</ele><time>2026-05-01T09:56:12.467Z</time></trkpt><trkpt lat="43.2779583" lon="12.4428162"><ele>627.0</ele><time>2026-05-01T09:56:13.467Z</time></trkpt><trkpt lat="43.2779146" lon="12.4429346"><ele>627.2</ele><time>2026-05-01T09:56:14.467Z</time></trkpt><trkpt lat="43.2778528" lon="12.4430402"><ele>627.4000000000001</ele><time>2026-05-01T09:56:15.466Z</time></trkpt><trkpt lat="43.2778026" lon="12.4431373"><ele>627.5999999999999</ele><time>2026-05-01T09:56:16.467Z</time></trkpt><trkpt lat="43.2777761" lon="12.4432446"><ele>627.8</ele><time>2026-05-01T09:56:17.467Z</time></trkpt><trkpt lat="43.2777798" lon="12.4433687"><ele>628.0</ele><time>2026-05-01T09:56:18.466Z</time></trkpt><trkpt lat="43.2778144" lon="12.4435238"><ele>628.0</ele><time>2026-05-01T09:56:19.467Z</time></trkpt><trkpt lat="43.2778489" lon="12.4436678"><ele>628.0</ele><time>2026-05-01T09:56:20.467Z</time></trkpt><trkpt lat="43.2778696" lon="12.4438066"><ele>628.0</ele><time>2026-05-01T09:56:21.466Z</time></trkpt><trkpt lat="43.2778859" lon="12.4439479"><ele>628.0</ele><time>2026-05-01T09:56:22.467Z</time></trkpt><trkpt lat="43.2779042" lon="12.444079"><ele>628.0</ele><time>2026-05-01T09:56:23.466Z</time></trkpt><trkpt lat="43.2779293" lon="12.4442072"><ele>628.8</ele><time>2026-05-01T09:56:24.467Z</time></trkpt><trkpt lat="43.2779691" lon="12.4443334"><ele>629.5999999999999</ele><time>2026-05-01T09:56:25.466Z</time></trkpt><trkpt lat="43.2780194" lon="12.4444763"><ele>630.4000000000001</ele><time>2026-05-01T09:56:26.467Z</time></trkpt><trkpt lat="43.2780567" lon="12.4446225"><ele>631.2</ele><time>2026-05-01T09:56:27.466Z</time></trkpt><trkpt lat="43.2780862" lon="12.4447573"><ele>632.0</ele><time>2026-05-01T09:56:28.466Z</time></trkpt><trkpt lat="43.2780998" lon="12.4448912"><ele>632.6</ele><time>2026-05-01T09:56:29.467Z</time></trkpt><trkpt lat="43.2781141" lon="12.4450235"><ele>633.2</ele><time>2026-05-01T09:56:30.467Z</time></trkpt><trkpt lat="43.2781203" lon="12.4451669"><ele>633.8</ele><time>2026-05-01T09:56:31.467Z</time></trkpt><trkpt lat="43.2781239" lon="12.445303"><ele>634.4</ele><time>2026-05-01T09:56:32.467Z</time></trkpt><trkpt lat="43.2781433" lon="12.4454378"><ele>635.0</ele><time>2026-05-01T09:56:33.467Z</time></trkpt><trkpt lat="43.2781883" lon="12.4455719"><ele>633.8</ele><time>2026-05-01T09:56:34.467Z</time></trkpt><trkpt lat="43.2782396" lon="12.4457041"><ele>632.6</ele><time>2026-05-01T09:56:35.467Z</time></trkpt><trkpt lat="43.2782881" lon="12.4458268"><ele>631.4</ele><time>2026-05-01T09:56:36.467Z</time></trkpt><trkpt lat="43.2783297" lon="12.4459421"><ele>630.2</ele><time>2026-05-01T09:56:37.466Z</time></trkpt><trkpt lat="43.2783627" lon="12.446061"><ele>629.0</ele><time>2026-05-01T09:56:38.467Z</time></trkpt><trkpt lat="43.2783568" lon="12.4462052"><ele>628.4</ele><time>2026-05-01T09:56:39.466Z</time></trkpt><trkpt lat="43.2783406" lon="12.4463469"><ele>627.8</ele><time>2026-05-01T09:56:40.467Z</time></trkpt><trkpt lat="43.2783213" lon="12.446479"><ele>627.2</ele><time>2026-05-01T09:56:41.467Z</time></trkpt><trkpt lat="43.2782834" lon="12.4465891"><ele>626.6</ele><time>2026-05-01T09:56:42.466Z</time></trkpt><trkpt lat="43.2782288" lon="12.4466782"><ele>626.0</ele><time>2026-05-01T09:56:43.466Z</time></trkpt><trkpt lat="43.2781531" lon="12.4467284"><ele>625.5</ele><time>2026-05-01T09:56:44.467Z</time></trkpt><trkpt lat="43.2780722" lon="12.4467596"><ele>625.0</ele><time>2026-05-01T09:56:45.467Z</time></trkpt><trkpt lat="43.2779446" lon="12.4467841"><ele>624.5</ele><time>2026-05-01T09:56:46.466Z</time></trkpt><trkpt lat="43.2778176" lon="12.4468071"><ele>624.0</ele><time>2026-05-01T09:56:47.467Z</time></trkpt><trkpt lat="43.277697" lon="12.4468409"><ele>624.0</ele><time>2026-05-01T09:56:48.466Z</time></trkpt><trkpt lat="43.2775866" lon="12.4468735"><ele>624.0</ele><time>2026-05-01T09:56:49.467Z</time></trkpt><trkpt lat="43.2775002" lon="12.4469264"><ele>624.0</ele><time>2026-05-01T09:56:50.467Z</time></trkpt><trkpt lat="43.2774376" lon="12.4470412"><ele>624.0</ele><time>2026-05-01T09:56:51.466Z</time></trkpt><trkpt lat="43.2774038" lon="12.4471883"><ele>624.0</ele><time>2026-05-01T09:56:52.467Z</time></trkpt><trkpt lat="43.2773791" lon="12.4473597"><ele>626.75</ele><time>2026-05-01T09:56:53.466Z</time></trkpt><trkpt lat="43.2773817" lon="12.4475442"><ele>629.5</ele><time>2026-05-01T09:56:54.467Z</time></trkpt><trkpt lat="43.2773777" lon="12.447715"><ele>632.25</ele><time>2026-05-01T09:56:55.467Z</time></trkpt><trkpt lat="43.2773531" lon="12.4478809"><ele>635.0</ele><time>2026-05-01T09:56:56.467Z</time></trkpt><trkpt lat="43.2773215" lon="12.4480393"><ele>636.3333333333333</ele><time>2026-05-01T09:56:57.467Z</time></trkpt><trkpt lat="43.277278" lon="12.4481553"><ele>637.6666666666666</ele><time>2026-05-01T09:56:58.467Z</time></trkpt><trkpt lat="43.2772133" lon="12.4481992"><ele>639.0</ele><time>2026-05-01T09:56:59.467Z</time></trkpt><trkpt lat="43.2771392" lon="12.4482318"><ele>640.3333333333334</ele><time>2026-05-01T09:57:00.467Z</time></trkpt><trkpt lat="43.2770448" lon="12.4482232"><ele>641.6666666666667</ele><time>2026-05-01T09:57:01.467Z</time></trkpt><trkpt lat="43.2769371" lon="12.4482071"><ele>643.0</ele><time>2026-05-01T09:57:02.467Z</time></trkpt><trkpt lat="43.2768309" lon="12.4481903"><ele>643.5999999999999</ele><time>2026-05-01T09:57:03.467Z</time></trkpt><trkpt lat="43.2767351" lon="12.4481832"><ele>644.1999999999999</ele><time>2026-05-01T09:57:04.467Z</time></trkpt><trkpt lat="43.2766568" lon="12.4482184"><ele>644.8</ele><time>2026-05-01T09:57:05.466Z</time></trkpt><trkpt lat="43.2766472" lon="12.4484008"><ele>645.4</ele><time>2026-05-01T09:57:07.467Z</time></trkpt><trkpt lat="43.2766865" lon="12.4484945"><ele>646.0</ele><time>2026-05-01T09:57:08.466Z</time></trkpt><trkpt lat="43.2767473" lon="12.4485775"><ele>646.0</ele><time>2026-05-01T09:57:09.467Z</time></trkpt><trkpt lat="43.2768336" lon="12.448658"><ele>646.0</ele><time>2026-05-01T09:57:10.467Z</time></trkpt><trkpt lat="43.2769586" lon="12.4487201"><ele>646.0</ele><time>2026-05-01T09:57:11.467Z</time></trkpt><trkpt lat="43.2770676" lon="12.4487541"><ele>646.0</ele><time>2026-05-01T09:57:12.467Z</time></trkpt><trkpt lat="43.2771767" lon="12.4487983"><ele>648.4</ele><time>2026-05-01T09:57:13.467Z</time></trkpt><trkpt lat="43.2772788" lon="12.4488449"><ele>650.8</ele><time>2026-05-01T09:57:14.467Z</time></trkpt><trkpt lat="43.277361" lon="12.4489009"><ele>653.1999999999999</ele><time>2026-05-01T09:57:15.466Z</time></trkpt><trkpt lat="43.277447" lon="12.4489641"><ele>655.5999999999999</ele><time>2026-05-01T09:57:16.467Z</time></trkpt><trkpt lat="43.2775263" lon="12.4490535"><ele>658.0</ele><time>2026-05-01T09:57:17.467Z</time></trkpt><trkpt lat="43.2775932" lon="12.4491892"><ele>658.0</ele><time>2026-05-01T09:57:18.466Z</time></trkpt><trkpt lat="43.2776601" lon="12.4493084"><ele>658.0</ele><time>2026-05-01T09:57:19.467Z</time></trkpt><trkpt lat="43.2777235" lon="12.4494329"><ele>658.0</ele><time>2026-05-01T09:57:20.467Z</time></trkpt><trkpt lat="43.2777786" lon="12.4495442"><ele>658.0</ele><time>2026-05-01T09:57:21.467Z</time></trkpt><trkpt lat="43.2778493" lon="12.4496535"><ele>658.0</ele><time>2026-05-01T09:57:22.467Z</time></trkpt><trkpt lat="43.2779219" lon="12.4497713"><ele>657.5</ele><time>2026-05-01T09:57:23.466Z</time></trkpt><trkpt lat="43.278004" lon="12.4499131"><ele>657.0</ele><time>2026-05-01T09:57:24.467Z</time></trkpt><trkpt lat="43.2780962" lon="12.4500433"><ele>656.5</ele><time>2026-05-01T09:57:25.467Z</time></trkpt><trkpt lat="43.2781964" lon="12.4501929"><ele>656.0</ele><time>2026-05-01T09:57:26.466Z</time></trkpt><trkpt lat="43.2782949" lon="12.4503428"><ele>656.75</ele><time>2026-05-01T09:57:27.467Z</time></trkpt><trkpt lat="43.278391" lon="12.4505041"><ele>657.5</ele><time>2026-05-01T09:57:28.467Z</time></trkpt><trkpt lat="43.2784749" lon="12.4506521"><ele>658.25</ele><time>2026-05-01T09:57:29.467Z</time></trkpt><trkpt lat="43.278543" lon="12.450779"><ele>659.0</ele><time>2026-05-01T09:57:30.467Z</time></trkpt><trkpt lat="43.2786041" lon="12.4508929"><ele>659.0</ele><time>2026-05-01T09:57:31.467Z</time></trkpt><trkpt lat="43.2786607" lon="12.4510039"><ele>659.0</ele><time>2026-05-01T09:57:32.466Z</time></trkpt><trkpt lat="43.2787113" lon="12.4511239"><ele>659.0</ele><time>2026-05-01T09:57:33.467Z</time></trkpt><trkpt lat="43.2787491" lon="12.4512253"><ele>659.0</ele><time>2026-05-01T09:57:34.467Z</time></trkpt><trkpt lat="43.2787909" lon="12.451342"><ele>659.0</ele><time>2026-05-01T09:57:35.467Z</time></trkpt><trkpt lat="43.278843" lon="12.4514638"><ele>659.6</ele><time>2026-05-01T09:57:36.467Z</time></trkpt><trkpt lat="43.2788972" lon="12.4515908"><ele>660.2</ele><time>2026-05-01T09:57:37.467Z</time></trkpt><trkpt lat="43.278943" lon="12.4517198"><ele>660.8000000000001</ele><time>2026-05-01T09:57:38.467Z</time></trkpt><trkpt lat="43.2790041" lon="12.4518497"><ele>661.4000000000001</ele><time>2026-05-01T09:57:39.467Z</time></trkpt><trkpt lat="43.2790714" lon="12.4519825"><ele>662.0</ele><time>2026-05-01T09:57:40.467Z</time></trkpt><trkpt lat="43.2791551" lon="12.4521028"><ele>663.25</ele><time>2026-05-01T09:57:41.467Z</time></trkpt><trkpt lat="43.2792462" lon="12.4522178"><ele>664.5</ele><time>2026-05-01T09:57:42.467Z</time></trkpt><trkpt lat="43.2793533" lon="12.452336"><ele>665.75</ele><time>2026-05-01T09:57:43.466Z</time></trkpt><trkpt lat="43.279464" lon="12.4524521"><ele>667.0</ele><time>2026-05-01T09:57:44.467Z</time></trkpt><trkpt lat="43.2795737" lon="12.452575"><ele>667.0</ele><time>2026-05-01T09:57:45.467Z</time></trkpt><trkpt lat="43.2796787" lon="12.4526881"><ele>667.0</ele><time>2026-05-01T09:57:46.467Z</time></trkpt><trkpt lat="43.2797835" lon="12.4527929"><ele>667.0</ele><time>2026-05-01T09:57:47.467Z</time></trkpt><trkpt lat="43.2798889" lon="12.45289"><ele>667.0</ele><time>2026-05-01T09:57:48.467Z</time></trkpt><trkpt lat="43.2799946" lon="12.4529922"><ele>670.6</ele><time>2026-05-01T09:57:49.467Z</time></trkpt><trkpt lat="43.2800964" lon="12.4530883"><ele>674.2</ele><time>2026-05-01T09:57:50.467Z</time></trkpt><trkpt lat="43.2801891" lon="12.4531688"><ele>677.8</ele><time>2026-05-01T09:57:51.467Z</time></trkpt><trkpt lat="43.2802682" lon="12.4532406"><ele>681.4</ele><time>2026-05-01T09:57:52.467Z</time></trkpt><trkpt lat="43.2803486" lon="12.453317"><ele>685.0</ele><time>2026-05-01T09:57:53.467Z</time></trkpt><trkpt lat="43.28042" lon="12.4533994"><ele>685.0</ele><time>2026-05-01T09:57:54.467Z</time></trkpt><trkpt lat="43.2804853" lon="12.4534848"><ele>685.0</ele><time>2026-05-01T09:57:55.467Z</time></trkpt><trkpt lat="43.2805376" lon="12.4535719"><ele>685.0</ele><time>2026-05-01T09:57:56.467Z</time></trkpt><trkpt lat="43.2805821" lon="12.453658"><ele>685.0</ele><time>2026-05-01T09:57:57.467Z</time></trkpt><trkpt lat="43.2806125" lon="12.4537693"><ele>685.0</ele><time>2026-05-01T09:57:58.467Z</time></trkpt><trkpt lat="43.2806276" lon="12.4539217"><ele>685.0</ele><time>2026-05-01T09:57:59.467Z</time></trkpt><trkpt lat="43.2806471" lon="12.4540789"><ele>683.8</ele><time>2026-05-01T09:58:00.467Z</time></trkpt><trkpt lat="43.2806552" lon="12.454246"><ele>682.6</ele><time>2026-05-01T09:58:01.467Z</time></trkpt><trkpt lat="43.2806508" lon="12.454394"><ele>681.4000000000001</ele><time>2026-05-01T09:58:02.466Z</time></trkpt><trkpt lat="43.280651" lon="12.4545367"><ele>680.2</ele><time>2026-05-01T09:58:03.467Z</time></trkpt><trkpt lat="43.2806464" lon="12.4546717"><ele>679.0</ele><time>2026-05-01T09:58:04.467Z</time></trkpt><trkpt lat="43.2806469" lon="12.4548156"><ele>679.0</ele><time>2026-05-01T09:58:05.467Z</time></trkpt><trkpt lat="43.2806445" lon="12.4549702"><ele>679.0</ele><time>2026-05-01T09:58:06.466Z</time></trkpt><trkpt lat="43.280647" lon="12.4551291"><ele>679.0</ele><time>2026-05-01T09:58:07.467Z</time></trkpt><trkpt lat="43.2806527" lon="12.4552919"><ele>679.0</ele><time>2026-05-01T09:58:08.466Z</time></trkpt><trkpt lat="43.2806741" lon="12.4554514"><ele>678.4000000000001</ele><time>2026-05-01T09:58:09.467Z</time></trkpt><trkpt lat="43.2807067" lon="12.455598"><ele>677.8</ele><time>2026-05-01T09:58:10.467Z</time></trkpt><trkpt lat="43.2807551" lon="12.4557311"><ele>677.2</ele><time>2026-05-01T09:58:11.467Z</time></trkpt><trkpt lat="43.2808058" lon="12.4558555"><ele>676.5999999999999</ele><time>2026-05-01T09:58:12.467Z</time></trkpt><trkpt lat="43.2808548" lon="12.4559837"><ele>676.0</ele><time>2026-05-01T09:58:13.467Z</time></trkpt><trkpt lat="43.2809115" lon="12.4561057"><ele>676.0</ele><time>2026-05-01T09:58:14.467Z</time></trkpt><trkpt lat="43.2809747" lon="12.4562195"><ele>676.0</ele><time>2026-05-01T09:58:15.467Z</time></trkpt><trkpt lat="43.2810398" lon="12.4563284"><ele>676.0</ele><time>2026-05-01T09:58:16.467Z</time></trkpt><trkpt lat="43.2811034" lon="12.4564478"><ele>676.0</ele><time>2026-05-01T09:58:17.467Z</time></trkpt><trkpt lat="43.2811722" lon="12.4565649"><ele>676.0</ele><time>2026-05-01T09:58:18.467Z</time></trkpt><trkpt lat="43.2812455" lon="12.456674"><ele>675.3333333333334</ele><time>2026-05-01T09:58:19.467Z</time></trkpt><trkpt lat="43.281316" lon="12.4567776"><ele>674.6666666666667</ele><time>2026-05-01T09:58:20.467Z</time></trkpt><trkpt lat="43.2813814" lon="12.4568793"><ele>674.0</ele><time>2026-05-01T09:58:21.466Z</time></trkpt><trkpt lat="43.2814422" lon="12.456972"><ele>673.3333333333334</ele><time>2026-05-01T09:58:22.467Z</time></trkpt><trkpt lat="43.2814987" lon="12.4570489"><ele>672.6666666666666</ele><time>2026-05-01T09:58:23.467Z</time></trkpt><trkpt lat="43.2815505" lon="12.4571139"><ele>672.0</ele><time>2026-05-01T09:58:24.466Z</time></trkpt><trkpt lat="43.2816241" lon="12.4572099"><ele>673.6666666666666</ele><time>2026-05-01T09:58:26.466Z</time></trkpt><trkpt lat="43.2816799" lon="12.4573074"><ele>675.3333333333334</ele><time>2026-05-01T09:58:29.467Z</time></trkpt><trkpt lat="43.2816718" lon="12.4573949"><ele>677.0</ele><time>2026-05-01T09:59:27.466Z</time></trkpt><trkpt lat="43.28166" lon="12.4575566"><ele>678.6666666666667</ele><time>2026-05-01T09:59:29.467Z</time></trkpt><trkpt lat="43.2816509" lon="12.4576545"><ele>680.3333333333334</ele><time>2026-05-01T09:59:30.466Z</time></trkpt><trkpt lat="43.281642" lon="12.4577507"><ele>682.0</ele><time>2026-05-01T09:59:31.467Z</time></trkpt><trkpt lat="43.2816195" lon="12.457843"><ele>682.0</ele><time>2026-05-01T09:59:32.467Z</time></trkpt><trkpt lat="43.2815948" lon="12.4579317"><ele>682.0</ele><time>2026-05-01T09:59:33.466Z</time></trkpt><trkpt lat="43.2815651" lon="12.4580152"><ele>682.0</ele><time>2026-05-01T09:59:34.467Z</time></trkpt><trkpt lat="43.2815148" lon="12.4580987"><ele>682.0</ele><time>2026-05-01T09:59:35.467Z</time></trkpt><trkpt lat="43.2814516" lon="12.4581675"><ele>682.0</ele><time>2026-05-01T09:59:36.467Z</time></trkpt><trkpt lat="43.2813839" lon="12.458224"><ele>682.0</ele><time>2026-05-01T09:59:37.467Z</time></trkpt><trkpt lat="43.2813166" lon="12.4582632"><ele>682.0</ele><time>2026-05-01T09:59:38.467Z</time></trkpt><trkpt lat="43.28124" lon="12.4582929"><ele>683.0</ele><time>2026-05-01T09:59:39.467Z</time></trkpt><trkpt lat="43.2811566" lon="12.4583169"><ele>684.0</ele><time>2026-05-01T09:59:40.467Z</time></trkpt><trkpt lat="43.2810714" lon="12.4583385"><ele>685.0</ele><time>2026-05-01T09:59:41.467Z</time></trkpt><trkpt lat="43.2809864" lon="12.4583667"><ele>686.0</ele><time>2026-05-01T09:59:42.467Z</time></trkpt><trkpt lat="43.2809165" lon="12.4583813"><ele>687.0</ele><time>2026-05-01T09:59:43.466Z</time></trkpt><trkpt lat="43.280849" lon="12.4583937"><ele>688.0</ele><time>2026-05-01T09:59:44.467Z</time></trkpt><trkpt lat="43.2807185" lon="12.4584126"><ele>688.0000000000001</ele><time>2026-05-01T09:59:46.467Z</time></trkpt><trkpt lat="43.2806443" lon="12.458429"><ele>688.0</ele><time>2026-05-01T09:59:47.467Z</time></trkpt><trkpt lat="43.2805732" lon="12.4584286"><ele>688.0</ele><time>2026-05-01T09:59:48.467Z</time></trkpt><trkpt lat="43.2804992" lon="12.4584112"><ele>688.0</ele><time>2026-05-01T09:59:49.466Z</time></trkpt><trkpt lat="43.2804266" lon="12.4583917"><ele>688.0</ele><time>2026-05-01T09:59:50.466Z</time></trkpt><trkpt lat="43.280357" lon="12.4583565"><ele>688.0000000000001</ele><time>2026-05-01T09:59:51.467Z</time></trkpt><trkpt lat="43.280294" lon="12.4583236"><ele>688.0</ele><time>2026-05-01T09:59:52.467Z</time></trkpt><trkpt lat="43.2802238" lon="12.4582829"><ele>688.8333333333334</ele><time>2026-05-01T09:59:53.467Z</time></trkpt><trkpt lat="43.2801547" lon="12.4582568"><ele>689.6666666666667</ele><time>2026-05-01T09:59:54.467Z</time></trkpt><trkpt lat="43.2800678" lon="12.4582062"><ele>690.5</ele><time>2026-05-01T09:59:55.466Z</time></trkpt><trkpt lat="43.2799898" lon="12.4581803"><ele>691.3333333333334</ele><time>2026-05-01T09:59:56.467Z</time></trkpt><trkpt lat="43.2799248" lon="12.4581695"><ele>692.1666666666666</ele><time>2026-05-01T09:59:57.467Z</time></trkpt><trkpt lat="43.279817" lon="12.4581498"><ele>693.0</ele><time>2026-05-01T09:59:59.467Z</time></trkpt><trkpt lat="43.2797541" lon="12.4581337"><ele>690.0</ele><time>2026-05-01T10:00:01.466Z</time></trkpt><trkpt lat="43.2796743" lon="12.4581613"><ele>687.0</ele><time>2026-05-01T10:00:04.467Z</time></trkpt><trkpt lat="43.2796445" lon="12.4582614"><ele>684.0</ele><time>2026-05-01T10:00:06.467Z</time></trkpt><trkpt lat="43.2796226" lon="12.4583804"><ele>681.0</ele><time>2026-05-01T10:00:08.467Z</time></trkpt><trkpt lat="43.2796058" lon="12.458503"><ele>678.0</ele><time>2026-05-01T10:00:10.467Z</time></trkpt><trkpt lat="43.2795446" lon="12.4586236"><ele>675.0</ele><time>2026-05-01T10:00:12.467Z</time></trkpt><trkpt lat="43.2794887" lon="12.4586803"><ele>675.0</ele><time>2026-05-01T10:00:13.467Z</time></trkpt><trkpt lat="43.2794237" lon="12.458716"><ele>675.0</ele><time>2026-05-01T10:00:14.467Z</time></trkpt><trkpt lat="43.2793586" lon="12.458753"><ele>675.0</ele><time>2026-05-01T10:00:15.466Z</time></trkpt><trkpt lat="43.279296" lon="12.4587823"><ele>675.0</ele><time>2026-05-01T10:00:16.466Z</time></trkpt><trkpt lat="43.2791882" lon="12.4587641"><ele>675.0</ele><time>2026-05-01T10:00:18.466Z</time></trkpt><trkpt lat="43.2790843" lon="12.4586931"><ele>675.0</ele><time>2026-05-01T10:00:20.467Z</time></trkpt><trkpt lat="43.2789577" lon="12.4586471"><ele>674.0</ele><time>2026-05-01T10:00:22.467Z</time></trkpt><trkpt lat="43.2788341" lon="12.4586188"><ele>673.0</ele><time>2026-05-01T10:00:24.467Z</time></trkpt><trkpt lat="43.2787667" lon="12.4586082"><ele>672.0</ele><time>2026-05-01T10:00:25.467Z</time></trkpt><trkpt lat="43.2786486" lon="12.458612"><ele>671.0</ele><time>2026-05-01T10:00:27.467Z</time></trkpt><trkpt lat="43.2785842" lon="12.4586316"><ele>670.0</ele><time>2026-05-01T10:00:28.467Z</time></trkpt><trkpt lat="43.2785224" lon="12.4586659"><ele>669.0</ele><time>2026-05-01T10:00:29.467Z</time></trkpt><trkpt lat="43.2784591" lon="12.4586992"><ele>669.0</ele><time>2026-05-01T10:00:30.467Z</time></trkpt><trkpt lat="43.2783946" lon="12.4587484"><ele>669.0</ele><time>2026-05-01T10:00:31.466Z</time></trkpt><trkpt lat="43.2783201" lon="12.4588123"><ele>669.0</ele><time>2026-05-01T10:00:32.467Z</time></trkpt><trkpt lat="43.2782521" lon="12.4588733"><ele>669.0</ele><time>2026-05-01T10:00:33.467Z</time></trkpt><trkpt lat="43.2781978" lon="12.4589227"><ele>669.0</ele><time>2026-05-01T10:00:34.467Z</time></trkpt><trkpt lat="43.278099" lon="12.4589516"><ele>669.0</ele><time>2026-05-01T10:00:36.467Z</time></trkpt><trkpt lat="43.2780108" lon="12.4589751"><ele>669.6666666666666</ele><time>2026-05-01T10:00:38.467Z</time></trkpt><trkpt lat="43.2779375" lon="12.4590262"><ele>670.3333333333334</ele><time>2026-05-01T10:00:40.466Z</time></trkpt><trkpt lat="43.2778922" lon="12.4591283"><ele>671.0</ele><time>2026-05-01T10:00:42.467Z</time></trkpt><trkpt lat="43.2778801" lon="12.459245"><ele>671.6666666666667</ele><time>2026-05-01T10:00:44.467Z</time></trkpt><trkpt lat="43.2778892" lon="12.4593712"><ele>672.3333333333334</ele><time>2026-05-01T10:00:46.467Z</time></trkpt><trkpt lat="43.2778928" lon="12.4595091"><ele>673.0</ele><time>2026-05-01T10:00:48.467Z</time></trkpt><trkpt lat="43.2778759" lon="12.4596312"><ele>673.0</ele><time>2026-05-01T10:00:50.467Z</time></trkpt><trkpt lat="43.2778336" lon="12.4597686"><ele>673.0</ele><time>2026-05-01T10:00:52.467Z</time></trkpt><trkpt lat="43.2777668" lon="12.4599011"><ele>673.0</ele><time>2026-05-01T10:00:54.467Z</time></trkpt><trkpt lat="43.2776874" lon="12.4600201"><ele>673.0</ele><time>2026-05-01T10:00:56.467Z</time></trkpt><trkpt lat="43.2776417" lon="12.4600826"><ele>673.0</ele><time>2026-05-01T10:00:57.467Z</time></trkpt><trkpt lat="43.2775852" lon="12.4601249"><ele>673.0</ele><time>2026-05-01T10:00:58.466Z</time></trkpt><trkpt lat="43.2775209" lon="12.4601438"><ele>673.0</ele><time>2026-05-01T10:00:59.467Z</time></trkpt><trkpt lat="43.2774132" lon="12.4601899"><ele>673.0</ele><time>2026-05-01T10:01:01.467Z</time></trkpt><trkpt lat="43.2773492" lon="12.4602396"><ele>673.0</ele><time>2026-05-01T10:01:03.467Z</time></trkpt><trkpt lat="43.2772912" lon="12.4603227"><ele>673.0</ele><time>2026-05-01T10:01:05.467Z</time></trkpt><trkpt lat="43.2772403" lon="12.4604026"><ele>673.0</ele><time>2026-05-01T10:01:07.467Z</time></trkpt><trkpt lat="43.2771903" lon="12.460497"><ele>674.4</ele><time>2026-05-01T10:01:09.467Z</time></trkpt><trkpt lat="43.2771378" lon="12.4605633"><ele>675.8</ele><time>2026-05-01T10:01:10.467Z</time></trkpt><trkpt lat="43.2770775" lon="12.4606986"><ele>677.2</ele><time>2026-05-01T10:01:12.467Z</time></trkpt><trkpt lat="43.2769864" lon="12.4607661"><ele>678.6</ele><time>2026-05-01T10:01:14.467Z</time></trkpt><trkpt lat="43.2768691" lon="12.4607352"><ele>680.0</ele><time>2026-05-01T10:01:16.467Z</time></trkpt><trkpt lat="43.2767583" lon="12.460697"><ele>680.0</ele><time>2026-05-01T10:01:18.467Z</time></trkpt><trkpt lat="43.2766392" lon="12.4606439"><ele>680.0</ele><time>2026-05-01T10:01:20.467Z</time></trkpt><trkpt lat="43.2765537" lon="12.4605553"><ele>680.0</ele><time>2026-05-01T10:01:22.467Z</time></trkpt><trkpt lat="43.2764539" lon="12.4604706"><ele>680.0</ele><time>2026-05-01T10:01:24.467Z</time></trkpt><trkpt lat="43.2763455" lon="12.460431"><ele>678.4</ele><time>2026-05-01T10:01:26.467Z</time></trkpt><trkpt lat="43.2762276" lon="12.4604098"><ele>676.8</ele><time>2026-05-01T10:01:28.467Z</time></trkpt><trkpt lat="43.276112" lon="12.4603389"><ele>675.2</ele><time>2026-05-01T10:01:30.467Z</time></trkpt><trkpt lat="43.2760531" lon="12.4602647"><ele>673.6</ele><time>2026-05-01T10:01:31.466Z</time></trkpt><trkpt lat="43.2760088" lon="12.4601813"><ele>672.0</ele><time>2026-05-01T10:01:32.466Z</time></trkpt><trkpt lat="43.2759655" lon="12.4600863"><ele>672.0</ele><time>2026-05-01T10:01:33.466Z</time></trkpt><trkpt lat="43.2759296" lon="12.459997"><ele>672.0</ele><time>2026-05-01T10:01:34.467Z</time></trkpt><trkpt lat="43.2758965" lon="12.4599086"><ele>672.0</ele><time>2026-05-01T10:01:35.467Z</time></trkpt><trkpt lat="43.275867" lon="12.459819"><ele>672.0</ele><time>2026-05-01T10:01:36.467Z</time></trkpt><trkpt lat="43.2758389" lon="12.4597318"><ele>672.0</ele><time>2026-05-01T10:01:37.467Z</time></trkpt><trkpt lat="43.2758105" lon="12.4596497"><ele>672.0</ele><time>2026-05-01T10:01:38.467Z</time></trkpt><trkpt lat="43.2757855" lon="12.4595664"><ele>672.0</ele><time>2026-05-01T10:01:39.467Z</time></trkpt><trkpt lat="43.2757309" lon="12.4594341"><ele>670.6666666666666</ele><time>2026-05-01T10:01:41.467Z</time></trkpt><trkpt lat="43.2756585" lon="12.4593745"><ele>669.3333333333334</ele><time>2026-05-01T10:01:43.466Z</time></trkpt><trkpt lat="43.2755943" lon="12.4593491"><ele>668.0</ele><time>2026-05-01T10:01:46.467Z</time></trkpt><trkpt lat="43.2754986" lon="12.4594073"><ele>666.6666666666667</ele><time>2026-05-01T10:02:06.467Z</time></trkpt><trkpt lat="43.2754553" lon="12.4594809"><ele>665.3333333333334</ele><time>2026-05-01T10:02:07.466Z</time></trkpt><trkpt lat="43.2754076" lon="12.4595658"><ele>664.0</ele><time>2026-05-01T10:02:08.467Z</time></trkpt><trkpt lat="43.2753626" lon="12.4596476"><ele>663.1666666666667</ele><time>2026-05-01T10:02:09.467Z</time></trkpt><trkpt lat="43.2753315" lon="12.4597513"><ele>662.3333333333334</ele><time>2026-05-01T10:02:10.467Z</time></trkpt><trkpt lat="43.2753204" lon="12.4598437"><ele>661.5</ele><time>2026-05-01T10:02:11.466Z</time></trkpt><trkpt lat="43.2753146" lon="12.4600094"><ele>660.6666666666666</ele><time>2026-05-01T10:02:13.467Z</time></trkpt><trkpt lat="43.2753233" lon="12.460118"><ele>659.8333333333333</ele><time>2026-05-01T10:02:14.467Z</time></trkpt><trkpt lat="43.27535" lon="12.4602342"><ele>659.0</ele><time>2026-05-01T10:02:15.467Z</time></trkpt><trkpt lat="43.2753803" lon="12.4603184"><ele>659.0</ele><time>2026-05-01T10:02:16.467Z</time></trkpt><trkpt lat="43.2754194" lon="12.4604026"><ele>659.0</ele><time>2026-05-01T10:02:17.467Z</time></trkpt><trkpt lat="43.2754703" lon="12.4604925"><ele>659.0</ele><time>2026-05-01T10:02:18.467Z</time></trkpt><trkpt lat="43.2755216" lon="12.4606045"><ele>659.0</ele><time>2026-05-01T10:02:19.467Z</time></trkpt><trkpt lat="43.2755697" lon="12.4607193"><ele>659.0</ele><time>2026-05-01T10:02:20.467Z</time></trkpt><trkpt lat="43.2756239" lon="12.4608377"><ele>660.2</ele><time>2026-05-01T10:02:21.467Z</time></trkpt><trkpt lat="43.2756981" lon="12.4609469"><ele>661.4000000000001</ele><time>2026-05-01T10:02:22.467Z</time></trkpt><trkpt lat="43.2757658" lon="12.4610437"><ele>662.6</ele><time>2026-05-01T10:02:23.467Z</time></trkpt><trkpt lat="43.2758203" lon="12.4611474"><ele>663.8</ele><time>2026-05-01T10:02:24.467Z</time></trkpt><trkpt lat="43.2758684" lon="12.4612532"><ele>665.0</ele><time>2026-05-01T10:02:25.467Z</time></trkpt><trkpt lat="43.2759197" lon="12.4613638"><ele>665.0</ele><time>2026-05-01T10:02:26.467Z</time></trkpt><trkpt lat="43.2759586" lon="12.4614642"><ele>665.0</ele><time>2026-05-01T10:02:27.467Z</time></trkpt><trkpt lat="43.2759845" lon="12.4615774"><ele>665.0</ele><time>2026-05-01T10:02:28.466Z</time></trkpt><trkpt lat="43.2760013" lon="12.4617019"><ele>665.0</ele><time>2026-05-01T10:02:29.467Z</time></trkpt><trkpt lat="43.2760197" lon="12.4618328"><ele>665.0</ele><time>2026-05-01T10:02:30.467Z</time></trkpt><trkpt lat="43.2760464" lon="12.4619587"><ele>665.0</ele><time>2026-05-01T10:02:31.467Z</time></trkpt><trkpt lat="43.2760676" lon="12.4620862"><ele>665.0</ele><time>2026-05-01T10:02:32.466Z</time></trkpt><trkpt lat="43.2760858" lon="12.4622064"><ele>665.0</ele><time>2026-05-01T10:02:33.466Z</time></trkpt><trkpt lat="43.2761001" lon="12.462324"><ele>665.0</ele><time>2026-05-01T10:02:34.467Z</time></trkpt><trkpt lat="43.2761158" lon="12.4624317"><ele>665.0</ele><time>2026-05-01T10:02:35.467Z</time></trkpt><trkpt lat="43.2761249" lon="12.4625295"><ele>665.0</ele><time>2026-05-01T10:02:36.467Z</time></trkpt><trkpt lat="43.2761132" lon="12.4626204"><ele>666.2</ele><time>2026-05-01T10:02:37.467Z</time></trkpt><trkpt lat="43.27605" lon="12.4627673"><ele>667.4</ele><time>2026-05-01T10:02:39.466Z</time></trkpt><trkpt lat="43.2759994" lon="12.4628331"><ele>668.5999999999999</ele><time>2026-05-01T10:02:40.466Z</time></trkpt><trkpt lat="43.2759143" lon="12.4628751"><ele>669.8</ele><time>2026-05-01T10:02:42.467Z</time></trkpt><trkpt lat="43.2757978" lon="12.4628621"><ele>671.0</ele><time>2026-05-01T10:02:44.466Z</time></trkpt><trkpt lat="43.2757073" lon="12.462886"><ele>671.8</ele><time>2026-05-01T10:02:45.467Z</time></trkpt><trkpt lat="43.2755897" lon="12.4629229"><ele>672.5999999999999</ele><time>2026-05-01T10:02:46.467Z</time></trkpt><trkpt lat="43.275485" lon="12.4629686"><ele>673.4</ele><time>2026-05-01T10:02:47.467Z</time></trkpt><trkpt lat="43.275407" lon="12.4630182"><ele>674.2</ele><time>2026-05-01T10:02:48.467Z</time></trkpt><trkpt lat="43.2753412" lon="12.4630838"><ele>675.0</ele><time>2026-05-01T10:02:49.467Z</time></trkpt><trkpt lat="43.2752748" lon="12.4631641"><ele>675.0</ele><time>2026-05-01T10:02:50.467Z</time></trkpt><trkpt lat="43.2752103" lon="12.4632407"><ele>675.0</ele><time>2026-05-01T10:02:51.466Z</time></trkpt><trkpt lat="43.2751485" lon="12.4633147"><ele>675.0</ele><time>2026-05-01T10:02:52.466Z</time></trkpt><trkpt lat="43.2750719" lon="12.4633933"><ele>675.0</ele><time>2026-05-01T10:02:53.466Z</time></trkpt><trkpt lat="43.2750012" lon="12.4634662"><ele>675.0</ele><time>2026-05-01T10:02:54.467Z</time></trkpt><trkpt lat="43.2749234" lon="12.4635233"><ele>675.0</ele><time>2026-05-01T10:02:55.467Z</time></trkpt><trkpt lat="43.2748503" lon="12.4635784"><ele>675.0</ele><time>2026-05-01T10:02:56.467Z</time></trkpt><trkpt lat="43.2747921" lon="12.4636372"><ele>675.0</ele><time>2026-05-01T10:02:57.466Z</time></trkpt><trkpt lat="43.2747632" lon="12.4637156"><ele>675.0</ele><time>2026-05-01T10:02:58.467Z</time></trkpt><trkpt lat="43.2747621" lon="12.4638777"><ele>675.0</ele><time>2026-05-01T10:03:00.466Z</time></trkpt><trkpt lat="43.2747774" lon="12.463975"><ele>675.0</ele><time>2026-05-01T10:03:01.467Z</time></trkpt><trkpt lat="43.2747956" lon="12.4640732"><ele>675.0</ele><time>2026-05-01T10:03:02.467Z</time></trkpt><trkpt lat="43.2748333" lon="12.4642514"><ele>675.5</ele><time>2026-05-01T10:03:04.466Z</time></trkpt><trkpt lat="43.2748548" lon="12.4643535"><ele>676.0</ele><time>2026-05-01T10:03:05.466Z</time></trkpt><trkpt lat="43.2748877" lon="12.4644636"><ele>676.5</ele><time>2026-05-01T10:03:06.467Z</time></trkpt><trkpt lat="43.2749178" lon="12.464561"><ele>677.0</ele><time>2026-05-01T10:03:07.467Z</time></trkpt><trkpt lat="43.2749421" lon="12.4646648"><ele>677.5</ele><time>2026-05-01T10:03:08.466Z</time></trkpt><trkpt lat="43.2749619" lon="12.4647543"><ele>678.0</ele><time>2026-05-01T10:03:09.467Z</time></trkpt><trkpt lat="43.2749755" lon="12.4648451"><ele>678.0</ele><time>2026-05-01T10:03:11.467Z</time></trkpt><trkpt lat="43.2750104" lon="12.4649172"><ele>678.0</ele><time>2026-05-01T10:03:15.467Z</time></trkpt><trkpt lat="43.2750551" lon="12.4649898"><ele>678.0</ele><time>2026-05-01T10:03:17.467Z</time></trkpt><trkpt lat="43.2750909" lon="12.4650729"><ele>678.0</ele><time>2026-05-01T10:03:48.466Z</time></trkpt><trkpt lat="43.2751482" lon="12.465155"><ele>678.0</ele><time>2026-05-01T10:03:53.465Z</time></trkpt><trkpt lat="43.2752354" lon="12.4652408"><ele>678.0</ele><time>2026-05-01T10:03:55.465Z</time></trkpt><trkpt lat="43.2753175" lon="12.4653486"><ele>678.2</ele><time>2026-05-01T10:03:57.465Z</time></trkpt><trkpt lat="43.275408" lon="12.4654568"><ele>678.4</ele><time>2026-05-01T10:03:59.465Z</time></trkpt><trkpt lat="43.275462" lon="12.4655964"><ele>678.6</ele><time>2026-05-01T10:04:01.466Z</time></trkpt><trkpt lat="43.2754612" lon="12.4657342"><ele>678.8000000000001</ele><time>2026-05-01T10:04:03.465Z</time></trkpt><trkpt lat="43.2753998" lon="12.4658584"><ele>679.0</ele><time>2026-05-01T10:04:05.466Z</time></trkpt><trkpt lat="43.2753295" lon="12.4659504"><ele>679.0</ele><time>2026-05-01T10:04:07.465Z</time></trkpt><trkpt lat="43.2752668" lon="12.4660107"><ele>679.0</ele><time>2026-05-01T10:04:09.465Z</time></trkpt><trkpt lat="43.2751961" lon="12.4660633"><ele>679.0</ele><time>2026-05-01T10:04:11.466Z</time></trkpt><trkpt lat="43.2751424" lon="12.4661293"><ele>679.0</ele><time>2026-05-01T10:04:13.466Z</time></trkpt><trkpt lat="43.2750763" lon="12.4661439"><ele>679.0</ele><time>2026-05-01T10:04:15.466Z</time></trkpt><trkpt lat="43.2750325" lon="12.4660371"><ele>679.0</ele><time>2026-05-01T10:04:26.466Z</time></trkpt><trkpt lat="43.2749894" lon="12.465926"><ele>679.0</ele><time>2026-05-01T10:04:28.465Z</time></trkpt><trkpt lat="43.2749195" lon="12.4658411"><ele>679.0</ele><time>2026-05-01T10:04:30.465Z</time></trkpt><trkpt lat="43.2747854" lon="12.4658168"><ele>679.0</ele><time>2026-05-01T10:04:32.466Z</time></trkpt><trkpt lat="43.2746983" lon="12.4658327"><ele>679.0</ele><time>2026-05-01T10:04:33.466Z</time></trkpt><trkpt lat="43.2746083" lon="12.4658381"><ele>679.0</ele><time>2026-05-01T10:04:34.466Z</time></trkpt><trkpt lat="43.2745206" lon="12.4658216"><ele>679.8333333333334</ele><time>2026-05-01T10:04:35.466Z</time></trkpt><trkpt lat="43.2744324" lon="12.4658092"><ele>680.6666666666667</ele><time>2026-05-01T10:04:36.466Z</time></trkpt><trkpt lat="43.2743557" lon="12.4657982"><ele>681.5</ele><time>2026-05-01T10:04:37.466Z</time></trkpt><trkpt lat="43.2742926" lon="12.4658054"><ele>682.3333333333334</ele><time>2026-05-01T10:04:38.465Z</time></trkpt><trkpt lat="43.2742124" lon="12.4659341"><ele>683.1666666666666</ele><time>2026-05-01T10:04:40.466Z</time></trkpt><trkpt lat="43.2741895" lon="12.466061"><ele>684.0</ele><time>2026-05-01T10:04:41.466Z</time></trkpt><trkpt lat="43.2741692" lon="12.4661679"><ele>684.6</ele><time>2026-05-01T10:04:42.465Z</time></trkpt><trkpt lat="43.2741521" lon="12.4662881"><ele>685.2</ele><time>2026-05-01T10:04:43.465Z</time></trkpt><trkpt lat="43.2741308" lon="12.4664166"><ele>685.8000000000001</ele><time>2026-05-01T10:04:44.465Z</time></trkpt><trkpt lat="43.2741039" lon="12.4665505"><ele>686.4000000000001</ele><time>2026-05-01T10:04:45.466Z</time></trkpt><trkpt lat="43.2740665" lon="12.4666773"><ele>687.0</ele><time>2026-05-01T10:04:46.466Z</time></trkpt><trkpt lat="43.2740124" lon="12.4667894"><ele>687.0</ele><time>2026-05-01T10:04:47.466Z</time></trkpt><trkpt lat="43.2739522" lon="12.4668733"><ele>687.0</ele><time>2026-05-01T10:04:48.466Z</time></trkpt><trkpt lat="43.2738915" lon="12.4669422"><ele>687.0</ele><time>2026-05-01T10:04:49.466Z</time></trkpt><trkpt lat="43.273839" lon="12.4669937"><ele>687.0</ele><time>2026-05-01T10:04:50.465Z</time></trkpt><trkpt lat="43.2737501" lon="12.4671171"><ele>687.0</ele><time>2026-05-01T10:04:52.466Z</time></trkpt><trkpt lat="43.2737071" lon="12.4672087"><ele>687.0</ele><time>2026-05-01T10:04:53.466Z</time></trkpt><trkpt lat="43.2736672" lon="12.4673011"><ele>687.1666666666666</ele><time>2026-05-01T10:04:54.466Z</time></trkpt><trkpt lat="43.2736377" lon="12.4673844"><ele>687.3333333333334</ele><time>2026-05-01T10:04:55.465Z</time></trkpt><trkpt lat="43.2735861" lon="12.4675263"><ele>687.5</ele><time>2026-05-01T10:04:57.465Z</time></trkpt><trkpt lat="43.2735274" lon="12.467676"><ele>687.6666666666667</ele><time>2026-05-01T10:04:59.466Z</time></trkpt><trkpt lat="43.2734919" lon="12.4677527"><ele>687.8333333333334</ele><time>2026-05-01T10:05:00.466Z</time></trkpt><trkpt lat="43.2734571" lon="12.4678371"><ele>688.0</ele><time>2026-05-01T10:05:01.466Z</time></trkpt><trkpt lat="43.273432" lon="12.4679174"><ele>686.5999999999999</ele><time>2026-05-01T10:05:02.466Z</time></trkpt><trkpt lat="43.2734005" lon="12.4680837"><ele>685.1999999999999</ele><time>2026-05-01T10:05:04.466Z</time></trkpt><trkpt lat="43.2733841" lon="12.4681673"><ele>683.8</ele><time>2026-05-01T10:05:05.466Z</time></trkpt><trkpt lat="43.2733728" lon="12.468337"><ele>682.4</ele><time>2026-05-01T10:05:07.465Z</time></trkpt><trkpt lat="43.273361" lon="12.4684864"><ele>681.0</ele><time>2026-05-01T10:05:09.466Z</time></trkpt><trkpt lat="43.2733715" lon="12.4685774"><ele>681.0</ele><time>2026-05-01T10:05:10.466Z</time></trkpt><trkpt lat="43.2734046" lon="12.4686882"><ele>681.0</ele><time>2026-05-01T10:05:11.466Z</time></trkpt><trkpt lat="43.273441" lon="12.4688143"><ele>681.0</ele><time>2026-05-01T10:05:12.466Z</time></trkpt><trkpt lat="43.2734744" lon="12.4689435"><ele>681.0</ele><time>2026-05-01T10:05:13.466Z</time></trkpt><trkpt lat="43.2735233" lon="12.4690678"><ele>681.0</ele><time>2026-05-01T10:05:14.466Z</time></trkpt><trkpt lat="43.273571" lon="12.4691714"><ele>680.8333333333334</ele><time>2026-05-01T10:05:15.466Z</time></trkpt><trkpt lat="43.2736268" lon="12.4692551"><ele>680.6666666666666</ele><time>2026-05-01T10:05:16.465Z</time></trkpt><trkpt lat="43.2736985" lon="12.4693127"><ele>680.5</ele><time>2026-05-01T10:05:17.466Z</time></trkpt><trkpt lat="43.2737863" lon="12.4693771"><ele>680.3333333333333</ele><time>2026-05-01T10:05:18.466Z</time></trkpt><trkpt lat="43.2738605" lon="12.4694433"><ele>680.1666666666666</ele><time>2026-05-01T10:05:19.465Z</time></trkpt><trkpt lat="43.2739139" lon="12.4695158"><ele>680.0</ele><time>2026-05-01T10:05:20.466Z</time></trkpt><trkpt lat="43.2739485" lon="12.4696029"><ele>680.6</ele><time>2026-05-01T10:05:21.465Z</time></trkpt><trkpt lat="43.2739827" lon="12.4697095"><ele>681.2</ele><time>2026-05-01T10:05:22.465Z</time></trkpt><trkpt lat="43.2740254" lon="12.4698467"><ele>681.8</ele><time>2026-05-01T10:05:23.466Z</time></trkpt><trkpt lat="43.2740754" lon="12.4699689"><ele>682.4</ele><time>2026-05-01T10:05:24.466Z</time></trkpt><trkpt lat="43.2741185" lon="12.4700812"><ele>683.0</ele><time>2026-05-01T10:05:25.466Z</time></trkpt><trkpt lat="43.2741456" lon="12.4701965"><ele>683.0</ele><time>2026-05-01T10:05:26.466Z</time></trkpt><trkpt lat="43.2741513" lon="12.4703266"><ele>683.0</ele><time>2026-05-01T10:05:27.466Z</time></trkpt><trkpt lat="43.2741492" lon="12.4704625"><ele>683.0</ele><time>2026-05-01T10:05:28.466Z</time></trkpt><trkpt lat="43.2741477" lon="12.470602"><ele>683.0</ele><time>2026-05-01T10:05:29.466Z</time></trkpt><trkpt lat="43.2741487" lon="12.470737"><ele>683.0</ele><time>2026-05-01T10:05:30.466Z</time></trkpt><trkpt lat="43.2741381" lon="12.470865"><ele>683.0</ele><time>2026-05-01T10:05:31.466Z</time></trkpt><trkpt lat="43.2741295" lon="12.4709775"><ele>683.0</ele><time>2026-05-01T10:05:32.466Z</time></trkpt><trkpt lat="43.2741034" lon="12.4710751"><ele>683.0</ele><time>2026-05-01T10:05:33.466Z</time></trkpt><trkpt lat="43.2740433" lon="12.4711295"><ele>683.0</ele><time>2026-05-01T10:05:34.466Z</time></trkpt><trkpt lat="43.2739713" lon="12.4711888"><ele>683.0</ele><time>2026-05-01T10:05:35.465Z</time></trkpt><trkpt lat="43.2738775" lon="12.4712433"><ele>683.0</ele><time>2026-05-01T10:05:36.466Z</time></trkpt><trkpt lat="43.2737691" lon="12.4712675"><ele>683.5</ele><time>2026-05-01T10:05:37.466Z</time></trkpt><trkpt lat="43.2736561" lon="12.4712776"><ele>684.0</ele><time>2026-05-01T10:05:38.466Z</time></trkpt><trkpt lat="43.2735546" lon="12.4712877"><ele>684.5</ele><time>2026-05-01T10:05:39.466Z</time></trkpt><trkpt lat="43.2734674" lon="12.4713088"><ele>685.0</ele><time>2026-05-01T10:05:40.466Z</time></trkpt><trkpt lat="43.2734041" lon="12.4713311"><ele>685.5</ele><time>2026-05-01T10:05:41.466Z</time></trkpt><trkpt lat="43.2733452" lon="12.4713666"><ele>686.0</ele><time>2026-05-01T10:05:43.466Z</time></trkpt><trkpt lat="43.273373" lon="12.4714849"><ele>686.0</ele><time>2026-05-01T10:05:55.465Z</time></trkpt><trkpt lat="43.2734328" lon="12.4715396"><ele>686.0</ele><time>2026-05-01T10:05:57.465Z</time></trkpt><trkpt lat="43.2735172" lon="12.4716369"><ele>686.0</ele><time>2026-05-01T10:06:50.466Z</time></trkpt><trkpt lat="43.2735691" lon="12.4717018"><ele>686.0</ele><time>2026-05-01T10:06:51.466Z</time></trkpt><trkpt lat="43.2736381" lon="12.4717782"><ele>686.0</ele><time>2026-05-01T10:06:52.465Z</time></trkpt><trkpt lat="43.2737285" lon="12.4718788"><ele>686.0</ele><time>2026-05-01T10:06:53.466Z</time></trkpt><trkpt lat="43.2738184" lon="12.4719962"><ele>686.0</ele><time>2026-05-01T10:06:54.466Z</time></trkpt><trkpt lat="43.273922" lon="12.4721412"><ele>686.0</ele><time>2026-05-01T10:06:55.466Z</time></trkpt><trkpt lat="43.2740318" lon="12.4723096"><ele>686.0</ele><time>2026-05-01T10:06:56.466Z</time></trkpt><trkpt lat="43.2741518" lon="12.4724858"><ele>686.0</ele><time>2026-05-01T10:06:57.465Z</time></trkpt><trkpt lat="43.2742725" lon="12.4726667"><ele>686.0</ele><time>2026-05-01T10:06:58.466Z</time></trkpt><trkpt lat="43.2743852" lon="12.472838"><ele>686.0</ele><time>2026-05-01T10:06:59.466Z</time></trkpt><trkpt lat="43.2744761" lon="12.4729931"><ele>686.0</ele><time>2026-05-01T10:07:00.466Z</time></trkpt><trkpt lat="43.2745577" lon="12.473142"><ele>686.0</ele><time>2026-05-01T10:07:01.466Z</time></trkpt><trkpt lat="43.2746342" lon="12.4732994"><ele>686.0</ele><time>2026-05-01T10:07:02.465Z</time></trkpt><trkpt lat="43.274715" lon="12.4734227"><ele>686.0</ele><time>2026-05-01T10:07:03.466Z</time></trkpt><trkpt lat="43.2747765" lon="12.4735417"><ele>686.0</ele><time>2026-05-01T10:07:04.466Z</time></trkpt><trkpt lat="43.2748496" lon="12.4736509"><ele>686.0</ele><time>2026-05-01T10:07:05.466Z</time></trkpt><trkpt lat="43.2749376" lon="12.4737794"><ele>686.0</ele><time>2026-05-01T10:07:06.466Z</time></trkpt><trkpt lat="43.2750275" lon="12.4739172"><ele>686.0</ele><time>2026-05-01T10:07:07.465Z</time></trkpt><trkpt lat="43.2751195" lon="12.4740537"><ele>686.0</ele><time>2026-05-01T10:07:08.466Z</time></trkpt><trkpt lat="43.2752087" lon="12.4741905"><ele>686.0</ele><time>2026-05-01T10:07:09.466Z</time></trkpt><trkpt lat="43.2752967" lon="12.4743246"><ele>686.0</ele><time>2026-05-01T10:07:10.466Z</time></trkpt><trkpt lat="43.2753833" lon="12.4744488"><ele>686.0</ele><time>2026-05-01T10:07:11.466Z</time></trkpt><trkpt lat="43.275461" lon="12.4745659"><ele>686.0</ele><time>2026-05-01T10:07:12.465Z</time></trkpt><trkpt lat="43.2755372" lon="12.4746747"><ele>686.0</ele><time>2026-05-01T10:07:13.466Z</time></trkpt><trkpt lat="43.2756068" lon="12.4747856"><ele>686.0</ele><time>2026-05-01T10:07:14.466Z</time></trkpt><trkpt lat="43.2756714" lon="12.4748965"><ele>686.0</ele><time>2026-05-01T10:07:15.466Z</time></trkpt><trkpt lat="43.2757382" lon="12.475017"><ele>686.0</ele><time>2026-05-01T10:07:16.466Z</time></trkpt><trkpt lat="43.2758068" lon="12.4751487"><ele>686.25</ele><time>2026-05-01T10:07:17.466Z</time></trkpt><trkpt lat="43.275876" lon="12.4752908"><ele>686.5</ele><time>2026-05-01T10:07:18.466Z</time></trkpt><trkpt lat="43.2759476" lon="12.4754376"><ele>686.75</ele><time>2026-05-01T10:07:19.465Z</time></trkpt><trkpt lat="43.2760243" lon="12.4755901"><ele>687.0</ele><time>2026-05-01T10:07:20.465Z</time></trkpt><trkpt lat="43.2761037" lon="12.4757505"><ele>686.0</ele><time>2026-05-01T10:07:21.466Z</time></trkpt><trkpt lat="43.2761853" lon="12.4759274"><ele>685.0</ele><time>2026-05-01T10:07:22.466Z</time></trkpt><trkpt lat="43.2762764" lon="12.4761175"><ele>684.0</ele><time>2026-05-01T10:07:23.466Z</time></trkpt><trkpt lat="43.276386" lon="12.4763169"><ele>681.6666666666666</ele><time>2026-05-01T10:07:24.466Z</time></trkpt><trkpt lat="43.2764994" lon="12.4765246"><ele>679.3333333333333</ele><time>2026-05-01T10:07:25.466Z</time></trkpt><trkpt lat="43.2766176" lon="12.4767348"><ele>677.0</ele><time>2026-05-01T10:07:26.466Z</time></trkpt><trkpt lat="43.2767373" lon="12.4769513"><ele>677.0</ele><time>2026-05-01T10:07:27.466Z</time></trkpt><trkpt lat="43.2768614" lon="12.4771706"><ele>677.0</ele><time>2026-05-01T10:07:28.466Z</time></trkpt><trkpt lat="43.2769771" lon="12.4773788"><ele>677.0</ele><time>2026-05-01T10:07:29.466Z</time></trkpt><trkpt lat="43.277091" lon="12.477587"><ele>677.0</ele><time>2026-05-01T10:07:30.465Z</time></trkpt><trkpt lat="43.2772041" lon="12.4777891"><ele>677.0</ele><time>2026-05-01T10:07:31.466Z</time></trkpt><trkpt lat="43.2773255" lon="12.4779988"><ele>677.0</ele><time>2026-05-01T10:07:32.466Z</time></trkpt><trkpt lat="43.2774498" lon="12.4782082"><ele>677.3333333333333</ele><time>2026-05-01T10:07:33.466Z</time></trkpt><trkpt lat="43.2775772" lon="12.4784117"><ele>677.6666666666666</ele><time>2026-05-01T10:07:34.466Z</time></trkpt><trkpt lat="43.2777069" lon="12.478608"><ele>678.0</ele><time>2026-05-01T10:07:35.466Z</time></trkpt><trkpt lat="43.2778443" lon="12.4787973"><ele>678.3333333333334</ele><time>2026-05-01T10:07:36.466Z</time></trkpt><trkpt lat="43.2779849" lon="12.4789785"><ele>678.6666666666667</ele><time>2026-05-01T10:07:37.465Z</time></trkpt><trkpt lat="43.2781269" lon="12.479152"><ele>679.0</ele><time>2026-05-01T10:07:38.465Z</time></trkpt><trkpt lat="43.2782711" lon="12.4793244"><ele>681.6666666666667</ele><time>2026-05-01T10:07:39.466Z</time></trkpt><trkpt lat="43.2784046" lon="12.4794902"><ele>684.3333333333334</ele><time>2026-05-01T10:07:40.466Z</time></trkpt><trkpt lat="43.2785303" lon="12.4796544"><ele>687.0</ele><time>2026-05-01T10:07:41.466Z</time></trkpt><trkpt lat="43.2786515" lon="12.4798274"><ele>687.0</ele><time>2026-05-01T10:07:42.466Z</time></trkpt><trkpt lat="43.2787733" lon="12.4800105"><ele>687.0</ele><time>2026-05-01T10:07:43.466Z</time></trkpt><trkpt lat="43.2788893" lon="12.480205"><ele>687.0</ele><time>2026-05-01T10:07:44.466Z</time></trkpt><trkpt lat="43.2790031" lon="12.4804023"><ele>689.6666666666666</ele><time>2026-05-01T10:07:45.466Z</time></trkpt><trkpt lat="43.2791148" lon="12.4805879"><ele>692.3333333333333</ele><time>2026-05-01T10:07:46.465Z</time></trkpt><trkpt lat="43.2792265" lon="12.4807673"><ele>695.0</ele><time>2026-05-01T10:07:47.466Z</time></trkpt><trkpt lat="43.2793369" lon="12.4809406"><ele>695.0</ele><time>2026-05-01T10:07:48.466Z</time></trkpt><trkpt lat="43.279431" lon="12.4811091"><ele>695.0</ele><time>2026-05-01T10:07:49.466Z</time></trkpt><trkpt lat="43.2795152" lon="12.4812877"><ele>695.0</ele><time>2026-05-01T10:07:50.465Z</time></trkpt><trkpt lat="43.2795905" lon="12.4814641"><ele>697.25</ele><time>2026-05-01T10:07:51.465Z</time></trkpt><trkpt lat="43.2796527" lon="12.4816544"><ele>699.5</ele><time>2026-05-01T10:07:52.465Z</time></trkpt><trkpt lat="43.27971" lon="12.4818429"><ele>701.75</ele><time>2026-05-01T10:07:53.466Z</time></trkpt><trkpt lat="43.2797488" lon="12.4820085"><ele>704.0</ele><time>2026-05-01T10:07:54.465Z</time></trkpt><trkpt lat="43.2797798" lon="12.4821597"><ele>705.25</ele><time>2026-05-01T10:07:55.466Z</time></trkpt><trkpt lat="43.2798386" lon="12.4822837"><ele>706.5</ele><time>2026-05-01T10:07:56.466Z</time></trkpt><trkpt lat="43.2799225" lon="12.4824005"><ele>707.75</ele><time>2026-05-01T10:07:57.465Z</time></trkpt><trkpt lat="43.2800422" lon="12.4824977"><ele>709.0</ele><time>2026-05-01T10:07:58.466Z</time></trkpt><trkpt lat="43.2801805" lon="12.4825892"><ele>709.0</ele><time>2026-05-01T10:07:59.465Z</time></trkpt><trkpt lat="43.2803135" lon="12.4826812"><ele>709.0</ele><time>2026-05-01T10:08:00.465Z</time></trkpt><trkpt lat="43.2804447" lon="12.4827723"><ele>709.0</ele><time>2026-05-01T10:08:01.465Z</time></trkpt><trkpt lat="43.2805825" lon="12.4828469"><ele>709.0</ele><time>2026-05-01T10:08:02.466Z</time></trkpt><trkpt lat="43.2807238" lon="12.4828901"><ele>708.75</ele><time>2026-05-01T10:08:03.466Z</time></trkpt><trkpt lat="43.2808702" lon="12.4829142"><ele>708.5</ele><time>2026-05-01T10:08:04.466Z</time></trkpt><trkpt lat="43.2810074" lon="12.4829547"><ele>708.25</ele><time>2026-05-01T10:08:05.466Z</time></trkpt><trkpt lat="43.2811332" lon="12.4830458"><ele>708.0</ele><time>2026-05-01T10:08:06.465Z</time></trkpt><trkpt lat="43.2812496" lon="12.4831542"><ele>712.25</ele><time>2026-05-01T10:08:07.466Z</time></trkpt><trkpt lat="43.2813571" lon="12.4832626"><ele>716.5</ele><time>2026-05-01T10:08:08.465Z</time></trkpt><trkpt lat="43.2814626" lon="12.483379"><ele>720.75</ele><time>2026-05-01T10:08:09.466Z</time></trkpt><trkpt lat="43.281559" lon="12.4835136"><ele>725.0</ele><time>2026-05-01T10:08:10.466Z</time></trkpt><trkpt lat="43.2816399" lon="12.4836527"><ele>732.5</ele><time>2026-05-01T10:08:11.466Z</time></trkpt><trkpt lat="43.2817267" lon="12.4837873"><ele>740.0</ele><time>2026-05-01T10:08:12.466Z</time></trkpt><trkpt lat="43.2818233" lon="12.4838994"><ele>747.5</ele><time>2026-05-01T10:08:13.466Z</time></trkpt><trkpt lat="43.2819111" lon="12.4840048"><ele>755.0</ele><time>2026-05-01T10:08:14.466Z</time></trkpt><trkpt lat="43.2819986" lon="12.4840922"><ele>755.0</ele><time>2026-05-01T10:08:15.465Z</time></trkpt><trkpt lat="43.2820794" lon="12.4841701"><ele>755.0</ele><time>2026-05-01T10:08:16.465Z</time></trkpt><trkpt lat="43.2821546" lon="12.4842086"><ele>755.0</ele><time>2026-05-01T10:08:17.466Z</time></trkpt><trkpt lat="43.2822242" lon="12.4842303"><ele>755.0</ele><time>2026-05-01T10:08:18.465Z</time></trkpt><trkpt lat="43.2823009" lon="12.4842034"><ele>755.0</ele><time>2026-05-01T10:08:19.465Z</time></trkpt><trkpt lat="43.2823572" lon="12.4841318"><ele>755.0</ele><time>2026-05-01T10:08:20.465Z</time></trkpt><trkpt lat="43.2823837" lon="12.4839952"><ele>754.5</ele><time>2026-05-01T10:08:21.466Z</time></trkpt><trkpt lat="43.2823501" lon="12.4838424"><ele>754.0</ele><time>2026-05-01T10:08:22.466Z</time></trkpt><trkpt lat="43.2822892" lon="12.4836897"><ele>753.5</ele><time>2026-05-01T10:08:23.466Z</time></trkpt><trkpt lat="43.2822358" lon="12.483544"><ele>753.0</ele><time>2026-05-01T10:08:24.465Z</time></trkpt><trkpt lat="43.2821967" lon="12.4833883"><ele>753.0</ele><time>2026-05-01T10:08:25.466Z</time></trkpt><trkpt lat="43.2821834" lon="12.4832458"><ele>753.0</ele><time>2026-05-01T10:08:26.466Z</time></trkpt><trkpt lat="43.2821981" lon="12.4831305"><ele>753.0</ele><time>2026-05-01T10:08:27.465Z</time></trkpt><trkpt lat="43.2822404" lon="12.4830445"><ele>753.0</ele><time>2026-05-01T10:08:28.465Z</time></trkpt><trkpt lat="43.2823221" lon="12.482997"><ele>753.0</ele><time>2026-05-01T10:08:29.465Z</time></trkpt><trkpt lat="43.2824102" lon="12.4829801"><ele>753.0</ele><time>2026-05-01T10:08:30.465Z</time></trkpt><trkpt lat="43.2825134" lon="12.4829876"><ele>753.0</ele><time>2026-05-01T10:08:31.465Z</time></trkpt><trkpt lat="43.2826092" lon="12.4830082"><ele>753.0</ele><time>2026-05-01T10:08:32.466Z</time></trkpt><trkpt lat="43.2827064" lon="12.4830181"><ele>753.0</ele><time>2026-05-01T10:08:33.465Z</time></trkpt><trkpt lat="43.2828097" lon="12.4830151"><ele>753.0</ele><time>2026-05-01T10:08:34.466Z</time></trkpt><trkpt lat="43.2829112" lon="12.4830163"><ele>753.0</ele><time>2026-05-01T10:08:35.466Z</time></trkpt><trkpt lat="43.2830209" lon="12.4830385"><ele>755.5999999999999</ele><time>2026-05-01T10:08:36.466Z</time></trkpt><trkpt lat="43.2831305" lon="12.4830847"><ele>758.1999999999999</ele><time>2026-05-01T10:08:37.465Z</time></trkpt><trkpt lat="43.2832168" lon="12.4831784"><ele>760.8</ele><time>2026-05-01T10:08:38.466Z</time></trkpt><trkpt lat="43.2832883" lon="12.4832849"><ele>763.4</ele><time>2026-05-01T10:08:39.466Z</time></trkpt><trkpt lat="43.2833591" lon="12.4833813"><ele>766.0</ele><time>2026-05-01T10:08:40.466Z</time></trkpt><trkpt lat="43.2834332" lon="12.4834597"><ele>766.0</ele><time>2026-05-01T10:08:41.465Z</time></trkpt><trkpt lat="43.2834802" lon="12.4835565"><ele>766.0</ele><time>2026-05-01T10:08:42.466Z</time></trkpt><trkpt lat="43.2834835" lon="12.4836742"><ele>766.0</ele><time>2026-05-01T10:08:43.466Z</time></trkpt><trkpt lat="43.2834555" lon="12.4838129"><ele>766.0</ele><time>2026-05-01T10:08:44.465Z</time></trkpt><trkpt lat="43.2834007" lon="12.483948"><ele>766.0</ele><time>2026-05-01T10:08:45.466Z</time></trkpt><trkpt lat="43.2833415" lon="12.4840717"><ele>767.75</ele><time>2026-05-01T10:08:46.466Z</time></trkpt><trkpt lat="43.2832778" lon="12.4842011"><ele>769.5</ele><time>2026-05-01T10:08:47.465Z</time></trkpt><trkpt lat="43.2832268" lon="12.4843418"><ele>771.25</ele><time>2026-05-01T10:08:48.465Z</time></trkpt><trkpt lat="43.2831994" lon="12.4844994"><ele>773.0</ele><time>2026-05-01T10:08:49.465Z</time></trkpt><trkpt lat="43.2831912" lon="12.4846776"><ele>775.0</ele><time>2026-05-01T10:08:50.466Z</time></trkpt><trkpt lat="43.283196" lon="12.484864"><ele>777.0</ele><time>2026-05-01T10:08:51.466Z</time></trkpt><trkpt lat="43.2832173" lon="12.4850414"><ele>779.0</ele><time>2026-05-01T10:08:52.466Z</time></trkpt><trkpt lat="43.2832365" lon="12.4852175"><ele>781.0</ele><time>2026-05-01T10:08:53.466Z</time></trkpt><trkpt lat="43.2832381" lon="12.4853962"><ele>782.0</ele><time>2026-05-01T10:08:54.465Z</time></trkpt><trkpt lat="43.2832066" lon="12.4855655"><ele>783.0</ele><time>2026-05-01T10:08:55.465Z</time></trkpt><trkpt lat="43.2831353" lon="12.485722"><ele>784.0</ele><time>2026-05-01T10:08:56.466Z</time></trkpt><trkpt lat="43.2830568" lon="12.4858499"><ele>785.0</ele><time>2026-05-01T10:08:57.466Z</time></trkpt><trkpt lat="43.2830111" lon="12.4859473"><ele>785.0000000000001</ele><time>2026-05-01T10:08:58.466Z</time></trkpt><trkpt lat="43.2829881" lon="12.4860314"><ele>785.0</ele><time>2026-05-01T10:08:59.466Z</time></trkpt><trkpt lat="43.283009" lon="12.4861257"><ele>785.0</ele><time>2026-05-01T10:09:00.465Z</time></trkpt><trkpt lat="43.2830697" lon="12.4862233"><ele>785.0</ele><time>2026-05-01T10:09:01.465Z</time></trkpt><trkpt lat="43.283158" lon="12.4862976"><ele>785.0000000000001</ele><time>2026-05-01T10:09:02.466Z</time></trkpt><trkpt lat="43.2832564" lon="12.4863624"><ele>785.0</ele><time>2026-05-01T10:09:03.466Z</time></trkpt><trkpt lat="43.2833552" lon="12.486416"><ele>788.75</ele><time>2026-05-01T10:09:04.466Z</time></trkpt><trkpt lat="43.2834581" lon="12.4864775"><ele>792.5</ele><time>2026-05-01T10:09:05.466Z</time></trkpt><trkpt lat="43.2835726" lon="12.4865434"><ele>796.25</ele><time>2026-05-01T10:09:06.466Z</time></trkpt><trkpt lat="43.2836879" lon="12.4866108"><ele>800.0</ele><time>2026-05-01T10:09:07.466Z</time></trkpt><trkpt lat="43.2837962" lon="12.4866838"><ele>800.0</ele><time>2026-05-01T10:09:08.465Z</time></trkpt><trkpt lat="43.283904" lon="12.4867609"><ele>800.0</ele><time>2026-05-01T10:09:09.466Z</time></trkpt><trkpt lat="43.2840153" lon="12.4868366"><ele>800.0</ele><time>2026-05-01T10:09:10.466Z</time></trkpt><trkpt lat="43.2841366" lon="12.486906"><ele>800.0</ele><time>2026-05-01T10:09:11.466Z</time></trkpt><trkpt lat="43.2842682" lon="12.4869629"><ele>802.0</ele><time>2026-05-01T10:09:12.466Z</time></trkpt><trkpt lat="43.2844067" lon="12.4870051"><ele>804.0</ele><time>2026-05-01T10:09:13.466Z</time></trkpt><trkpt lat="43.2845485" lon="12.4870406"><ele>806.0</ele><time>2026-05-01T10:09:14.466Z</time></trkpt><trkpt lat="43.2846877" lon="12.4870878"><ele>808.0</ele><time>2026-05-01T10:09:15.466Z</time></trkpt><trkpt lat="43.2848236" lon="12.4871619"><ele>808.5</ele><time>2026-05-01T10:09:16.466Z</time></trkpt><trkpt lat="43.2849562" lon="12.4872529"><ele>809.0</ele><time>2026-05-01T10:09:17.466Z</time></trkpt><trkpt lat="43.285083" lon="12.4873572"><ele>809.5</ele><time>2026-05-01T10:09:18.465Z</time></trkpt><trkpt lat="43.2852027" lon="12.4874588"><ele>810.0</ele><time>2026-05-01T10:09:19.466Z</time></trkpt><trkpt lat="43.2853076" lon="12.4875415"><ele>810.0</ele><time>2026-05-01T10:09:20.465Z</time></trkpt><trkpt lat="43.2854017" lon="12.4876275"><ele>810.0</ele><time>2026-05-01T10:09:21.465Z</time></trkpt><trkpt lat="43.2854654" lon="12.4877424"><ele>810.0</ele><time>2026-05-01T10:09:22.466Z</time></trkpt><trkpt lat="43.2855204" lon="12.4878815"><ele>810.0</ele><time>2026-05-01T10:09:23.465Z</time></trkpt><trkpt lat="43.2855823" lon="12.4880178"><ele>814.0</ele><time>2026-05-01T10:09:24.466Z</time></trkpt><trkpt lat="43.2856782" lon="12.4881182"><ele>818.0</ele><time>2026-05-01T10:09:25.466Z</time></trkpt><trkpt lat="43.2858144" lon="12.4881775"><ele>822.0</ele><time>2026-05-01T10:09:26.466Z</time></trkpt><trkpt lat="43.2859741" lon="12.4882134"><ele>826.0</ele><time>2026-05-01T10:09:27.465Z</time></trkpt><trkpt lat="43.286131" lon="12.4882291"><ele>826.0</ele><time>2026-05-01T10:09:28.466Z</time></trkpt><trkpt lat="43.2862752" lon="12.4882404"><ele>826.0</ele><time>2026-05-01T10:09:29.466Z</time></trkpt><trkpt lat="43.2864127" lon="12.4882618"><ele>826.0</ele><time>2026-05-01T10:09:30.466Z</time></trkpt><trkpt lat="43.2865378" lon="12.4882995"><ele>826.0</ele><time>2026-05-01T10:09:31.466Z</time></trkpt><trkpt lat="43.2866576" lon="12.4883394"><ele>827.0</ele><time>2026-05-01T10:09:32.465Z</time></trkpt><trkpt lat="43.2867786" lon="12.488375"><ele>828.0</ele><time>2026-05-01T10:09:33.466Z</time></trkpt><trkpt lat="43.2868822" lon="12.4884324"><ele>829.0</ele><time>2026-05-01T10:09:34.466Z</time></trkpt><trkpt lat="43.2869648" lon="12.4885255"><ele>830.0</ele><time>2026-05-01T10:09:35.466Z</time></trkpt><trkpt lat="43.287005" lon="12.488656"><ele>831.0</ele><time>2026-05-01T10:09:36.466Z</time></trkpt><trkpt lat="43.2870003" lon="12.4887995"><ele>832.0</ele><time>2026-05-01T10:09:37.465Z</time></trkpt><trkpt lat="43.2869858" lon="12.4889558"><ele>833.0</ele><time>2026-05-01T10:09:38.465Z</time></trkpt><trkpt lat="43.2869698" lon="12.4891097"><ele>834.0</ele><time>2026-05-01T10:09:39.466Z</time></trkpt><trkpt lat="43.2869948" lon="12.489256"><ele>835.0</ele><time>2026-05-01T10:09:40.466Z</time></trkpt><trkpt lat="43.2870572" lon="12.4893816"><ele>836.0</ele><time>2026-05-01T10:09:41.466Z</time></trkpt><trkpt lat="43.2871585" lon="12.4894606"><ele>836.75</ele><time>2026-05-01T10:09:42.466Z</time></trkpt><trkpt lat="43.2872725" lon="12.4895295"><ele>837.5</ele><time>2026-05-01T10:09:43.466Z</time></trkpt><trkpt lat="43.2873742" lon="12.4895816"><ele>838.25</ele><time>2026-05-01T10:09:44.465Z</time></trkpt><trkpt lat="43.2874425" lon="12.489679"><ele>839.0</ele><time>2026-05-01T10:09:45.466Z</time></trkpt><trkpt lat="43.2875163" lon="12.4898167"><ele>839.0</ele><time>2026-05-01T10:09:46.466Z</time></trkpt><trkpt lat="43.2875967" lon="12.4899381"><ele>839.0</ele><time>2026-05-01T10:09:47.466Z</time></trkpt><trkpt lat="43.2876905" lon="12.4900125"><ele>839.0</ele><time>2026-05-01T10:09:48.466Z</time></trkpt><trkpt lat="43.2877915" lon="12.4900664"><ele>839.0</ele><time>2026-05-01T10:09:49.466Z</time></trkpt><trkpt lat="43.2879015" lon="12.4901033"><ele>839.0</ele><time>2026-05-01T10:09:50.466Z</time></trkpt><trkpt lat="43.2880283" lon="12.4900995"><ele>837.5</ele><time>2026-05-01T10:09:51.466Z</time></trkpt><trkpt lat="43.2881643" lon="12.4900761"><ele>836.0</ele><time>2026-05-01T10:09:52.466Z</time></trkpt><trkpt lat="43.2882975" lon="12.4900354"><ele>834.5</ele><time>2026-05-01T10:09:53.466Z</time></trkpt><trkpt lat="43.28843" lon="12.490008"><ele>833.0</ele><time>2026-05-01T10:09:54.466Z</time></trkpt><trkpt lat="43.2885514" lon="12.4900364"><ele>833.0</ele><time>2026-05-01T10:09:55.466Z</time></trkpt><trkpt lat="43.2886639" lon="12.4900784"><ele>833.0</ele><time>2026-05-01T10:09:56.465Z</time></trkpt><trkpt lat="43.2887761" lon="12.490124"><ele>833.0</ele><time>2026-05-01T10:09:57.465Z</time></trkpt><trkpt lat="43.2888997" lon="12.4901154"><ele>833.0</ele><time>2026-05-01T10:09:58.466Z</time></trkpt><trkpt lat="43.289027" lon="12.4901098"><ele>833.0</ele><time>2026-05-01T10:09:59.466Z</time></trkpt><trkpt lat="43.2891503" lon="12.4900994"><ele>833.0</ele><time>2026-05-01T10:10:00.465Z</time></trkpt><trkpt lat="43.2892623" lon="12.4900991"><ele>833.0</ele><time>2026-05-01T10:10:01.466Z</time></trkpt><trkpt lat="43.2893573" lon="12.4901131"><ele>833.0</ele><time>2026-05-01T10:10:02.465Z</time></trkpt><trkpt lat="43.2894429" lon="12.490144"><ele>833.0</ele><time>2026-05-01T10:10:03.466Z</time></trkpt><trkpt lat="43.2895291" lon="12.4901807"><ele>833.0</ele><time>2026-05-01T10:10:04.466Z</time></trkpt><trkpt lat="43.2896135" lon="12.4902464"><ele>833.0</ele><time>2026-05-01T10:10:05.465Z</time></trkpt><trkpt lat="43.2896878" lon="12.4903371"><ele>833.0</ele><time>2026-05-01T10:10:06.466Z</time></trkpt><trkpt lat="43.289731" lon="12.4904563"><ele>833.0</ele><time>2026-05-01T10:10:07.466Z</time></trkpt><trkpt lat="43.2897701" lon="12.490572"><ele>833.0</ele><time>2026-05-01T10:10:08.465Z</time></trkpt><trkpt lat="43.289824" lon="12.4906746"><ele>834.0</ele><time>2026-05-01T10:10:09.466Z</time></trkpt><trkpt lat="43.2898954" lon="12.4907594"><ele>835.0</ele><time>2026-05-01T10:10:10.466Z</time></trkpt><trkpt lat="43.2899646" lon="12.4908395"><ele>836.0</ele><time>2026-05-01T10:10:11.466Z</time></trkpt><trkpt lat="43.2900437" lon="12.490913"><ele>837.0</ele><time>2026-05-01T10:10:12.466Z</time></trkpt><trkpt lat="43.2901285" lon="12.4909846"><ele>838.0</ele><time>2026-05-01T10:10:13.466Z</time></trkpt><trkpt lat="43.2902028" lon="12.4910421"><ele>838.0</ele><time>2026-05-01T10:10:14.466Z</time></trkpt><trkpt lat="43.2902608" lon="12.4911268"><ele>838.0</ele><time>2026-05-01T10:10:15.465Z</time></trkpt><trkpt lat="43.2902834" lon="12.4912399"><ele>838.0</ele><time>2026-05-01T10:10:16.466Z</time></trkpt><trkpt lat="43.2902593" lon="12.4913674"><ele>838.0</ele><time>2026-05-01T10:10:17.466Z</time></trkpt><trkpt lat="43.2902036" lon="12.4914917"><ele>838.0</ele><time>2026-05-01T10:10:18.466Z</time></trkpt><trkpt lat="43.2901283" lon="12.4916023"><ele>838.5999999999999</ele><time>2026-05-01T10:10:19.466Z</time></trkpt><trkpt lat="43.2900557" lon="12.4917117"><ele>839.1999999999999</ele><time>2026-05-01T10:10:20.466Z</time></trkpt><trkpt lat="43.28999" lon="12.4918293"><ele>839.8</ele><time>2026-05-01T10:10:21.466Z</time></trkpt><trkpt lat="43.2899468" lon="12.491978"><ele>840.4</ele><time>2026-05-01T10:10:22.466Z</time></trkpt><trkpt lat="43.2899138" lon="12.4921279"><ele>841.0</ele><time>2026-05-01T10:10:23.466Z</time></trkpt><trkpt lat="43.2898841" lon="12.492288"><ele>842.0</ele><time>2026-05-01T10:10:24.466Z</time></trkpt><trkpt lat="43.2898302" lon="12.4924168"><ele>843.0</ele><time>2026-05-01T10:10:25.465Z</time></trkpt><trkpt lat="43.2897631" lon="12.4925336"><ele>844.0</ele><time>2026-05-01T10:10:26.466Z</time></trkpt><trkpt lat="43.2896989" lon="12.4926384"><ele>845.0</ele><time>2026-05-01T10:10:27.465Z</time></trkpt><trkpt lat="43.2896713" lon="12.4927695"><ele>846.0</ele><time>2026-05-01T10:10:28.466Z</time></trkpt><trkpt lat="43.289689" lon="12.4928992"><ele>845.25</ele><time>2026-05-01T10:10:29.466Z</time></trkpt><trkpt lat="43.2897568" lon="12.4930121"><ele>844.5</ele><time>2026-05-01T10:10:30.465Z</time></trkpt><trkpt lat="43.2898297" lon="12.4931375"><ele>843.75</ele><time>2026-05-01T10:10:31.466Z</time></trkpt><trkpt lat="43.289847" lon="12.4932988"><ele>843.0</ele><time>2026-05-01T10:10:32.466Z</time></trkpt><trkpt lat="43.2898382" lon="12.4934775"><ele>843.0</ele><time>2026-05-01T10:10:33.466Z</time></trkpt><trkpt lat="43.289806" lon="12.4936581"><ele>843.0</ele><time>2026-05-01T10:10:34.465Z</time></trkpt><trkpt lat="43.2897702" lon="12.4938362"><ele>843.0</ele><time>2026-05-01T10:10:35.466Z</time></trkpt><trkpt lat="43.2897486" lon="12.4940225"><ele>843.0</ele><time>2026-05-01T10:10:36.466Z</time></trkpt><trkpt lat="43.2897494" lon="12.4942104"><ele>838.5999999999999</ele><time>2026-05-01T10:10:37.466Z</time></trkpt><trkpt lat="43.2897434" lon="12.4943768"><ele>834.1999999999999</ele><time>2026-05-01T10:10:38.466Z</time></trkpt><trkpt lat="43.2897128" lon="12.494515"><ele>829.8</ele><time>2026-05-01T10:10:39.465Z</time></trkpt><trkpt lat="43.2896855" lon="12.4946424"><ele>825.4</ele><time>2026-05-01T10:10:40.466Z</time></trkpt><trkpt lat="43.2896932" lon="12.494765"><ele>821.0</ele><time>2026-05-01T10:10:41.466Z</time></trkpt><trkpt lat="43.2897585" lon="12.4948654"><ele>824.5</ele><time>2026-05-01T10:10:42.466Z</time></trkpt><trkpt lat="43.2898533" lon="12.4949733"><ele>828.0</ele><time>2026-05-01T10:10:43.466Z</time></trkpt><trkpt lat="43.2899735" lon="12.495049"><ele>831.5</ele><time>2026-05-01T10:10:44.465Z</time></trkpt><trkpt lat="43.2901043" lon="12.4951251"><ele>835.0</ele><time>2026-05-01T10:10:45.466Z</time></trkpt><trkpt lat="43.2902355" lon="12.4952115"><ele>835.0</ele><time>2026-05-01T10:10:46.465Z</time></trkpt><trkpt lat="43.2903538" lon="12.4953248"><ele>835.0</ele><time>2026-05-01T10:10:47.466Z</time></trkpt><trkpt lat="43.2904533" lon="12.4954599"><ele>835.0</ele><time>2026-05-01T10:10:48.465Z</time></trkpt><trkpt lat="43.2905399" lon="12.4955935"><ele>835.0</ele><time>2026-05-01T10:10:49.466Z</time></trkpt><trkpt lat="43.2906201" lon="12.495721"><ele>830.75</ele><time>2026-05-01T10:10:50.466Z</time></trkpt><trkpt lat="43.2907084" lon="12.49583"><ele>826.5</ele><time>2026-05-01T10:10:51.465Z</time></trkpt><trkpt lat="43.2908102" lon="12.4958951"><ele>822.25</ele><time>2026-05-01T10:10:52.466Z</time></trkpt><trkpt lat="43.2909272" lon="12.4958989"><ele>818.0</ele><time>2026-05-01T10:10:53.466Z</time></trkpt><trkpt lat="43.2910509" lon="12.4958519"><ele>818.0</ele><time>2026-05-01T10:10:54.466Z</time></trkpt><trkpt lat="43.2911713" lon="12.4958235"><ele>818.0</ele><time>2026-05-01T10:10:55.466Z</time></trkpt><trkpt lat="43.2912755" lon="12.4958128"><ele>818.0</ele><time>2026-05-01T10:10:56.465Z</time></trkpt><trkpt lat="43.2913677" lon="12.4958512"><ele>818.0</ele><time>2026-05-01T10:10:57.465Z</time></trkpt><trkpt lat="43.2914291" lon="12.4959429"><ele>818.0</ele><time>2026-05-01T10:10:58.466Z</time></trkpt><trkpt lat="43.2914771" lon="12.4960863"><ele>818.2</ele><time>2026-05-01T10:10:59.466Z</time></trkpt><trkpt lat="43.2915078" lon="12.4962373"><ele>818.4</ele><time>2026-05-01T10:11:00.465Z</time></trkpt><trkpt lat="43.2915302" lon="12.496386"><ele>818.6</ele><time>2026-05-01T10:11:01.466Z</time></trkpt><trkpt lat="43.2915351" lon="12.4965362"><ele>818.8000000000001</ele><time>2026-05-01T10:11:02.465Z</time></trkpt><trkpt lat="43.291505" lon="12.4966854"><ele>819.0</ele><time>2026-05-01T10:11:03.465Z</time></trkpt><trkpt lat="43.2914658" lon="12.4968187"><ele>817.5</ele><time>2026-05-01T10:11:04.466Z</time></trkpt><trkpt lat="43.2914394" lon="12.4969482"><ele>816.0</ele><time>2026-05-01T10:11:05.465Z</time></trkpt><trkpt lat="43.2914591" lon="12.4970997"><ele>814.5</ele><time>2026-05-01T10:11:06.465Z</time></trkpt><trkpt lat="43.2915287" lon="12.4972554"><ele>813.0</ele><time>2026-05-01T10:11:07.466Z</time></trkpt><trkpt lat="43.291584" lon="12.4974325"><ele>811.0</ele><time>2026-05-01T10:11:08.466Z</time></trkpt><trkpt lat="43.2916104" lon="12.4976214"><ele>809.0</ele><time>2026-05-01T10:11:09.466Z</time></trkpt><trkpt lat="43.2916395" lon="12.4978186"><ele>807.0</ele><time>2026-05-01T10:11:10.466Z</time></trkpt><trkpt lat="43.2916844" lon="12.4979929"><ele>805.0</ele><time>2026-05-01T10:11:11.466Z</time></trkpt><trkpt lat="43.2917401" lon="12.4981524"><ele>803.25</ele><time>2026-05-01T10:11:12.465Z</time></trkpt><trkpt lat="43.2917806" lon="12.4983095"><ele>801.5</ele><time>2026-05-01T10:11:13.465Z</time></trkpt><trkpt lat="43.2918162" lon="12.4984655"><ele>799.75</ele><time>2026-05-01T10:11:14.466Z</time></trkpt><trkpt lat="43.291854" lon="12.498621"><ele>798.0</ele><time>2026-05-01T10:11:15.466Z</time></trkpt><trkpt lat="43.2919168" lon="12.498771"><ele>794.0</ele><time>2026-05-01T10:11:16.466Z</time></trkpt><trkpt lat="43.2919902" lon="12.4989138"><ele>790.0</ele><time>2026-05-01T10:11:17.465Z</time></trkpt><trkpt lat="43.2920687" lon="12.499051"><ele>786.0</ele><time>2026-05-01T10:11:18.465Z</time></trkpt><trkpt lat="43.2921379" lon="12.4991812"><ele>782.0</ele><time>2026-05-01T10:11:19.465Z</time></trkpt><trkpt lat="43.292198" lon="12.4993089"><ele>785.0</ele><time>2026-05-01T10:11:20.465Z</time></trkpt><trkpt lat="43.292257" lon="12.4994274"><ele>788.0</ele><time>2026-05-01T10:11:21.465Z</time></trkpt><trkpt lat="43.292319" lon="12.4995257"><ele>791.0</ele><time>2026-05-01T10:11:22.466Z</time></trkpt><trkpt lat="43.2924044" lon="12.4995641"><ele>794.0</ele><time>2026-05-01T10:11:23.465Z</time></trkpt><trkpt lat="43.2925069" lon="12.4995552"><ele>797.0</ele><time>2026-05-01T10:11:24.466Z</time></trkpt><trkpt lat="43.2925969" lon="12.4994955"><ele>797.0000000000001</ele><time>2026-05-01T10:11:25.465Z</time></trkpt><trkpt lat="43.2926671" lon="12.4993944"><ele>797.0</ele><time>2026-05-01T10:11:26.466Z</time></trkpt><trkpt lat="43.2927234" lon="12.4993056"><ele>797.0</ele><time>2026-05-01T10:11:27.466Z</time></trkpt><trkpt lat="43.2927965" lon="12.4992462"><ele>797.0</ele><time>2026-05-01T10:11:28.465Z</time></trkpt><trkpt lat="43.2928826" lon="12.4992275"><ele>797.0000000000001</ele><time>2026-05-01T10:11:29.466Z</time></trkpt><trkpt lat="43.2929559" lon="12.4992677"><ele>797.0</ele><time>2026-05-01T10:11:30.465Z</time></trkpt><trkpt lat="43.2930134" lon="12.4993682"><ele>797.0</ele><time>2026-05-01T10:11:31.465Z</time></trkpt><trkpt lat="43.2930473" lon="12.4995055"><ele>797.0</ele><time>2026-05-01T10:11:32.466Z</time></trkpt><trkpt lat="43.2930769" lon="12.4996621"><ele>797.0</ele><time>2026-05-01T10:11:33.466Z</time></trkpt><trkpt lat="43.2930994" lon="12.4998247"><ele>797.0</ele><time>2026-05-01T10:11:34.466Z</time></trkpt><trkpt lat="43.293126" lon="12.4999984"><ele>794.0</ele><time>2026-05-01T10:11:35.466Z</time></trkpt><trkpt lat="43.2931695" lon="12.5001697"><ele>791.0</ele><time>2026-05-01T10:11:36.466Z</time></trkpt><trkpt lat="43.2932124" lon="12.5003204"><ele>788.0</ele><time>2026-05-01T10:11:37.465Z</time></trkpt><trkpt lat="43.2932659" lon="12.5004716"><ele>785.0</ele><time>2026-05-01T10:11:38.466Z</time></trkpt><trkpt lat="43.293346" lon="12.5006043"><ele>781.0</ele><time>2026-05-01T10:11:39.466Z</time></trkpt><trkpt lat="43.2934409" lon="12.5007157"><ele>777.0</ele><time>2026-05-01T10:11:40.466Z</time></trkpt><trkpt lat="43.293543" lon="12.5008265"><ele>773.0</ele><time>2026-05-01T10:11:41.466Z</time></trkpt><trkpt lat="43.2936469" lon="12.500921"><ele>769.0</ele><time>2026-05-01T10:11:42.466Z</time></trkpt><trkpt lat="43.2937487" lon="12.501013"><ele>769.0</ele><time>2026-05-01T10:11:43.466Z</time></trkpt><trkpt lat="43.2938365" lon="12.5011146"><ele>769.0</ele><time>2026-05-01T10:11:44.466Z</time></trkpt><trkpt lat="43.2939129" lon="12.5012331"><ele>769.0</ele><time>2026-05-01T10:11:45.466Z</time></trkpt><trkpt lat="43.2939934" lon="12.5013396"><ele>769.0</ele><time>2026-05-01T10:11:46.466Z</time></trkpt><trkpt lat="43.2940905" lon="12.5014207"><ele>767.25</ele><time>2026-05-01T10:11:47.466Z</time></trkpt><trkpt lat="43.2942078" lon="12.5014424"><ele>765.5</ele><time>2026-05-01T10:11:48.466Z</time></trkpt><trkpt lat="43.2943258" lon="12.5014603"><ele>763.75</ele><time>2026-05-01T10:11:49.465Z</time></trkpt><trkpt lat="43.29443" lon="12.5015264"><ele>762.0</ele><time>2026-05-01T10:11:50.465Z</time></trkpt><trkpt lat="43.2945158" lon="12.5016404"><ele>762.0</ele><time>2026-05-01T10:11:51.466Z</time></trkpt><trkpt lat="43.2945758" lon="12.5017638"><ele>762.0</ele><time>2026-05-01T10:11:52.466Z</time></trkpt><trkpt lat="43.2946389" lon="12.501873"><ele>762.0</ele><time>2026-05-01T10:11:53.466Z</time></trkpt><trkpt lat="43.2947297" lon="12.5019531"><ele>762.0</ele><time>2026-05-01T10:11:54.465Z</time></trkpt><trkpt lat="43.294842" lon="12.5020081"><ele>762.0</ele><time>2026-05-01T10:11:55.466Z</time></trkpt><trkpt lat="43.2949607" lon="12.5020623"><ele>762.25</ele><time>2026-05-01T10:11:56.465Z</time></trkpt><trkpt lat="43.2950794" lon="12.5021211"><ele>762.5</ele><time>2026-05-01T10:11:57.466Z</time></trkpt><trkpt lat="43.2951979" lon="12.5021909"><ele>762.75</ele><time>2026-05-01T10:11:58.465Z</time></trkpt><trkpt lat="43.2953149" lon="12.5022723"><ele>763.0</ele><time>2026-05-01T10:11:59.466Z</time></trkpt><trkpt lat="43.2954327" lon="12.502364"><ele>763.0</ele><time>2026-05-01T10:12:00.465Z</time></trkpt><trkpt lat="43.2955502" lon="12.5024581"><ele>763.0</ele><time>2026-05-01T10:12:01.465Z</time></trkpt><trkpt lat="43.2956607" lon="12.5025562"><ele>763.0</ele><time>2026-05-01T10:12:02.466Z</time></trkpt><trkpt lat="43.2957675" lon="12.5026515"><ele>763.0</ele><time>2026-05-01T10:12:03.466Z</time></trkpt><trkpt lat="43.2958688" lon="12.502762"><ele>760.5</ele><time>2026-05-01T10:12:04.466Z</time></trkpt><trkpt lat="43.2959512" lon="12.5028916"><ele>758.0</ele><time>2026-05-01T10:12:05.466Z</time></trkpt><trkpt lat="43.296014" lon="12.5030288"><ele>755.5</ele><time>2026-05-01T10:12:06.466Z</time></trkpt><trkpt lat="43.2960685" lon="12.5031668"><ele>753.0</ele><time>2026-05-01T10:12:07.465Z</time></trkpt><trkpt lat="43.2961416" lon="12.5032789"><ele>751.25</ele><time>2026-05-01T10:12:08.465Z</time></trkpt><trkpt lat="43.2962483" lon="12.5033572"><ele>749.5</ele><time>2026-05-01T10:12:09.466Z</time></trkpt><trkpt lat="43.2963679" lon="12.5034276"><ele>747.75</ele><time>2026-05-01T10:12:10.466Z</time></trkpt><trkpt lat="43.2964732" lon="12.5035186"><ele>746.0</ele><time>2026-05-01T10:12:11.465Z</time></trkpt><trkpt lat="43.2965612" lon="12.5036338"><ele>751.75</ele><time>2026-05-01T10:12:12.466Z</time></trkpt><trkpt lat="43.2966411" lon="12.5037628"><ele>757.5</ele><time>2026-05-01T10:12:13.466Z</time></trkpt><trkpt lat="43.2967215" lon="12.5038596"><ele>763.25</ele><time>2026-05-01T10:12:14.466Z</time></trkpt><trkpt lat="43.2968312" lon="12.5039507"><ele>769.0</ele><time>2026-05-01T10:12:15.465Z</time></trkpt><trkpt lat="43.2969621" lon="12.5040317"><ele>769.0</ele><time>2026-05-01T10:12:16.466Z</time></trkpt><trkpt lat="43.2970997" lon="12.5041101"><ele>769.0</ele><time>2026-05-01T10:12:17.466Z</time></trkpt><trkpt lat="43.2972452" lon="12.5041838"><ele>769.0</ele><time>2026-05-01T10:12:18.466Z</time></trkpt><trkpt lat="43.2973848" lon="12.5042464"><ele>764.25</ele><time>2026-05-01T10:12:19.466Z</time></trkpt><trkpt lat="43.297533" lon="12.504295"><ele>759.5</ele><time>2026-05-01T10:12:20.466Z</time></trkpt><trkpt lat="43.2976829" lon="12.5043087"><ele>754.75</ele><time>2026-05-01T10:12:21.466Z</time></trkpt><trkpt lat="43.297822" lon="12.5042979"><ele>750.0</ele><time>2026-05-01T10:12:22.465Z</time></trkpt><trkpt lat="43.2979738" lon="12.5042723"><ele>747.25</ele><time>2026-05-01T10:12:23.466Z</time></trkpt><trkpt lat="43.2980966" lon="12.5042756"><ele>744.5</ele><time>2026-05-01T10:12:24.466Z</time></trkpt><trkpt lat="43.2982201" lon="12.5043242"><ele>741.75</ele><time>2026-05-01T10:12:25.465Z</time></trkpt><trkpt lat="43.298349" lon="12.5043956"><ele>739.0</ele><time>2026-05-01T10:12:26.466Z</time></trkpt><trkpt lat="43.2984806" lon="12.5044704"><ele>739.0</ele><time>2026-05-01T10:12:27.466Z</time></trkpt><trkpt lat="43.2986156" lon="12.5045474"><ele>739.0</ele><time>2026-05-01T10:12:28.465Z</time></trkpt><trkpt lat="43.2987454" lon="12.5046209"><ele>739.0</ele><time>2026-05-01T10:12:29.466Z</time></trkpt><trkpt lat="43.2988806" lon="12.5046893"><ele>739.0</ele><time>2026-05-01T10:12:30.466Z</time></trkpt><trkpt lat="43.2990225" lon="12.504769"><ele>740.0</ele><time>2026-05-01T10:12:31.466Z</time></trkpt><trkpt lat="43.299165" lon="12.5048446"><ele>741.0</ele><time>2026-05-01T10:12:32.466Z</time></trkpt><trkpt lat="43.2993095" lon="12.5049184"><ele>742.0</ele><time>2026-05-01T10:12:33.466Z</time></trkpt><trkpt lat="43.2994541" lon="12.5049934"><ele>742.0</ele><time>2026-05-01T10:12:34.466Z</time></trkpt><trkpt lat="43.2995928" lon="12.505069"><ele>742.0</ele><time>2026-05-01T10:12:35.465Z</time></trkpt><trkpt lat="43.2997311" lon="12.5051486"><ele>742.0</ele><time>2026-05-01T10:12:36.466Z</time></trkpt><trkpt lat="43.2998702" lon="12.5052286"><ele>740.3333333333334</ele><time>2026-05-01T10:12:37.465Z</time></trkpt><trkpt lat="43.3000134" lon="12.5053067"><ele>738.6666666666666</ele><time>2026-05-01T10:12:38.466Z</time></trkpt><trkpt lat="43.3001615" lon="12.5053875"><ele>737.0</ele><time>2026-05-01T10:12:39.466Z</time></trkpt><trkpt lat="43.3003097" lon="12.5054683"><ele>736.6666666666666</ele><time>2026-05-01T10:12:40.466Z</time></trkpt><trkpt lat="43.3004538" lon="12.5055517"><ele>736.3333333333334</ele><time>2026-05-01T10:12:41.465Z</time></trkpt><trkpt lat="43.3005966" lon="12.5056445"><ele>736.0</ele><time>2026-05-01T10:12:42.466Z</time></trkpt><trkpt lat="43.3007338" lon="12.5057411"><ele>736.0</ele><time>2026-05-01T10:12:43.466Z</time></trkpt><trkpt lat="43.3008547" lon="12.5058584"><ele>736.0</ele><time>2026-05-01T10:12:44.466Z</time></trkpt><trkpt lat="43.3009659" lon="12.5059782"><ele>736.0</ele><time>2026-05-01T10:12:45.466Z</time></trkpt><trkpt lat="43.3010549" lon="12.5060862"><ele>736.0</ele><time>2026-05-01T10:12:46.465Z</time></trkpt><trkpt lat="43.3011478" lon="12.5061629"><ele>736.0</ele><time>2026-05-01T10:12:47.465Z</time></trkpt><trkpt lat="43.3012542" lon="12.5061802"><ele>736.0</ele><time>2026-05-01T10:12:48.466Z</time></trkpt><trkpt lat="43.3013428" lon="12.5061253"><ele>736.0</ele><time>2026-05-01T10:12:49.466Z</time></trkpt><trkpt lat="43.3014366" lon="12.5060482"><ele>736.0</ele><time>2026-05-01T10:12:50.466Z</time></trkpt><trkpt lat="43.3015369" lon="12.5059634"><ele>736.0</ele><time>2026-05-01T10:12:51.466Z</time></trkpt><trkpt lat="43.301634" lon="12.5059377"><ele>736.5</ele><time>2026-05-01T10:12:52.465Z</time></trkpt><trkpt lat="43.3017291" lon="12.5059761"><ele>737.0</ele><time>2026-05-01T10:12:53.465Z</time></trkpt><trkpt lat="43.3018338" lon="12.5060269"><ele>737.5</ele><time>2026-05-01T10:12:54.465Z</time></trkpt><trkpt lat="43.3019429" lon="12.5060846"><ele>738.0</ele><time>2026-05-01T10:12:55.466Z</time></trkpt><trkpt lat="43.3020595" lon="12.5061452"><ele>738.0</ele><time>2026-05-01T10:12:56.466Z</time></trkpt><trkpt lat="43.3021852" lon="12.5061856"><ele>738.0</ele><time>2026-05-01T10:12:57.466Z</time></trkpt><trkpt lat="43.3023215" lon="12.5062075"><ele>738.0</ele><time>2026-05-01T10:12:58.466Z</time></trkpt><trkpt lat="43.30245" lon="12.50621"><ele>738.0</ele><time>2026-05-01T10:12:59.466Z</time></trkpt><trkpt lat="43.3025764" lon="12.5062047"><ele>738.0</ele><time>2026-05-01T10:13:00.465Z</time></trkpt><trkpt lat="43.3027018" lon="12.5061773"><ele>738.0</ele><time>2026-05-01T10:13:01.466Z</time></trkpt><trkpt lat="43.3028117" lon="12.5061141"><ele>738.0</ele><time>2026-05-01T10:13:02.466Z</time></trkpt><trkpt lat="43.3029208" lon="12.5060487"><ele>738.0</ele><time>2026-05-01T10:13:03.466Z</time></trkpt><trkpt lat="43.3030294" lon="12.5060237"><ele>736.75</ele><time>2026-05-01T10:13:04.466Z</time></trkpt><trkpt lat="43.3031423" lon="12.5060618"><ele>735.5</ele><time>2026-05-01T10:13:05.466Z</time></trkpt><trkpt lat="43.3032521" lon="12.5061299"><ele>734.25</ele><time>2026-05-01T10:13:06.466Z</time></trkpt><trkpt lat="43.3033674" lon="12.5062002"><ele>733.0</ele><time>2026-05-01T10:13:07.465Z</time></trkpt><trkpt lat="43.3034831" lon="12.5062589"><ele>733.0</ele><time>2026-05-01T10:13:08.466Z</time></trkpt><trkpt lat="43.3036058" lon="12.5062519"><ele>733.0</ele><time>2026-05-01T10:13:09.465Z</time></trkpt><trkpt lat="43.3037403" lon="12.5062185"><ele>733.0</ele><time>2026-05-01T10:13:10.466Z</time></trkpt><trkpt lat="43.3038709" lon="12.5061576"><ele>733.0</ele><time>2026-05-01T10:13:11.466Z</time></trkpt><trkpt lat="43.303994" lon="12.5060757"><ele>733.5</ele><time>2026-05-01T10:13:12.465Z</time></trkpt><trkpt lat="43.3041164" lon="12.5059889"><ele>734.0</ele><time>2026-05-01T10:13:13.466Z</time></trkpt><trkpt lat="43.3042363" lon="12.5058992"><ele>734.5</ele><time>2026-05-01T10:13:14.466Z</time></trkpt><trkpt lat="43.3043598" lon="12.5058139"><ele>735.0</ele><time>2026-05-01T10:13:15.466Z</time></trkpt><trkpt lat="43.3044849" lon="12.5057309"><ele>735.0</ele><time>2026-05-01T10:13:16.466Z</time></trkpt><trkpt lat="43.3046163" lon="12.5056673"><ele>735.0</ele><time>2026-05-01T10:13:17.465Z</time></trkpt><trkpt lat="43.3047489" lon="12.5056281"><ele>735.0</ele><time>2026-05-01T10:13:18.466Z</time></trkpt><trkpt lat="43.3048841" lon="12.5056613"><ele>735.0</ele><time>2026-05-01T10:13:19.465Z</time></trkpt><trkpt lat="43.305013" lon="12.5057328"><ele>735.75</ele><time>2026-05-01T10:13:20.466Z</time></trkpt><trkpt lat="43.305143" lon="12.5058207"><ele>736.5</ele><time>2026-05-01T10:13:21.466Z</time></trkpt><trkpt lat="43.3052708" lon="12.5058962"><ele>737.25</ele><time>2026-05-01T10:13:22.465Z</time></trkpt><trkpt lat="43.3053933" lon="12.5059793"><ele>738.0</ele><time>2026-05-01T10:13:23.465Z</time></trkpt><trkpt lat="43.3055118" lon="12.5060599"><ele>738.75</ele><time>2026-05-01T10:13:24.466Z</time></trkpt><trkpt lat="43.3056318" lon="12.5061542"><ele>739.5</ele><time>2026-05-01T10:13:25.466Z</time></trkpt><trkpt lat="43.3057479" lon="12.5062362"><ele>740.25</ele><time>2026-05-01T10:13:26.466Z</time></trkpt><trkpt lat="43.3058703" lon="12.5063049"><ele>741.0</ele><time>2026-05-01T10:13:27.466Z</time></trkpt><trkpt lat="43.3059903" lon="12.5063337"><ele>741.0</ele><time>2026-05-01T10:13:28.466Z</time></trkpt><trkpt lat="43.3061103" lon="12.5063001"><ele>741.0</ele><time>2026-05-01T10:13:29.466Z</time></trkpt><trkpt lat="43.3062227" lon="12.5062103"><ele>741.0</ele><time>2026-05-01T10:13:30.465Z</time></trkpt><trkpt lat="43.3063203" lon="12.5060892"><ele>741.0</ele><time>2026-05-01T10:13:31.466Z</time></trkpt><trkpt lat="43.3064113" lon="12.5059613"><ele>739.25</ele><time>2026-05-01T10:13:32.466Z</time></trkpt><trkpt lat="43.3065007" lon="12.5058262"><ele>737.5</ele><time>2026-05-01T10:13:33.465Z</time></trkpt><trkpt lat="43.3065911" lon="12.5056883"><ele>735.75</ele><time>2026-05-01T10:13:34.466Z</time></trkpt><trkpt lat="43.3066774" lon="12.5055401"><ele>734.0</ele><time>2026-05-01T10:13:35.466Z</time></trkpt><trkpt lat="43.3067559" lon="12.5053825"><ele>734.0</ele><time>2026-05-01T10:13:36.465Z</time></trkpt><trkpt lat="43.3068262" lon="12.5052184"><ele>734.0</ele><time>2026-05-01T10:13:37.466Z</time></trkpt><trkpt lat="43.3068903" lon="12.50506"><ele>734.0</ele><time>2026-05-01T10:13:38.466Z</time></trkpt><trkpt lat="43.3069634" lon="12.504929"><ele>734.0</ele><time>2026-05-01T10:13:39.465Z</time></trkpt><trkpt lat="43.3070487" lon="12.504824"><ele>734.0</ele><time>2026-05-01T10:13:40.466Z</time></trkpt><trkpt lat="43.3071562" lon="12.5047525"><ele>734.0</ele><time>2026-05-01T10:13:41.466Z</time></trkpt><trkpt lat="43.3072723" lon="12.5047028"><ele>734.0</ele><time>2026-05-01T10:13:42.465Z</time></trkpt><trkpt lat="43.3073956" lon="12.5046546"><ele>734.0</ele><time>2026-05-01T10:13:43.466Z</time></trkpt><trkpt lat="43.3075272" lon="12.5046168"><ele>736.25</ele><time>2026-05-01T10:13:44.466Z</time></trkpt><trkpt lat="43.307663" lon="12.5045976"><ele>738.5</ele><time>2026-05-01T10:13:45.465Z</time></trkpt><trkpt lat="43.307801" lon="12.5046065"><ele>740.75</ele><time>2026-05-01T10:13:46.466Z</time></trkpt><trkpt lat="43.3079395" lon="12.5046491"><ele>743.0</ele><time>2026-05-01T10:13:47.466Z</time></trkpt><trkpt lat="43.3080801" lon="12.5047358"><ele>743.0</ele><time>2026-05-01T10:13:48.466Z</time></trkpt><trkpt lat="43.3082078" lon="12.504833"><ele>743.0</ele><time>2026-05-01T10:13:49.466Z</time></trkpt><trkpt lat="43.3083073" lon="12.5049742"><ele>743.0</ele><time>2026-05-01T10:13:50.466Z</time></trkpt><trkpt lat="43.3083829" lon="12.5051383"><ele>743.0</ele><time>2026-05-01T10:13:51.465Z</time></trkpt><trkpt lat="43.3084391" lon="12.5052806"><ele>743.0</ele><time>2026-05-01T10:13:52.466Z</time></trkpt><trkpt lat="43.3085101" lon="12.5054008"><ele>743.0</ele><time>2026-05-01T10:13:53.465Z</time></trkpt><trkpt lat="43.3085944" lon="12.5055103"><ele>743.0</ele><time>2026-05-01T10:13:54.466Z</time></trkpt><trkpt lat="43.3087005" lon="12.5056001"><ele>743.0</ele><time>2026-05-01T10:13:55.465Z</time></trkpt><trkpt lat="43.3088244" lon="12.5056434"><ele>745.5</ele><time>2026-05-01T10:13:56.466Z</time></trkpt><trkpt lat="43.3089631" lon="12.5056263"><ele>748.0</ele><time>2026-05-01T10:13:57.466Z</time></trkpt><trkpt lat="43.3091025" lon="12.5055798"><ele>750.5</ele><time>2026-05-01T10:13:58.466Z</time></trkpt><trkpt lat="43.3092348" lon="12.5055401"><ele>753.0</ele><time>2026-05-01T10:13:59.466Z</time></trkpt><trkpt lat="43.3093643" lon="12.5055066"><ele>753.0</ele><time>2026-05-01T10:14:00.466Z</time></trkpt><trkpt lat="43.3095023" lon="12.505478"><ele>753.0</ele><time>2026-05-01T10:14:01.466Z</time></trkpt><trkpt lat="43.3096339" lon="12.5054551"><ele>753.0</ele><time>2026-05-01T10:14:02.466Z</time></trkpt><trkpt lat="43.3097749" lon="12.5054406"><ele>753.0</ele><time>2026-05-01T10:14:03.466Z</time></trkpt><trkpt lat="43.3099161" lon="12.5054194"><ele>753.25</ele><time>2026-05-01T10:14:04.466Z</time></trkpt><trkpt lat="43.3100584" lon="12.5053942"><ele>753.5</ele><time>2026-05-01T10:14:05.466Z</time></trkpt><trkpt lat="43.3102002" lon="12.505385"><ele>753.75</ele><time>2026-05-01T10:14:06.466Z</time></trkpt><trkpt lat="43.310343" lon="12.5053998"><ele>754.0</ele><time>2026-05-01T10:14:07.466Z</time></trkpt><trkpt lat="43.3104796" lon="12.5054358"><ele>753.25</ele><time>2026-05-01T10:14:08.465Z</time></trkpt><trkpt lat="43.3106052" lon="12.5054646"><ele>752.5</ele><time>2026-05-01T10:14:09.466Z</time></trkpt><trkpt lat="43.3107292" lon="12.5054931"><ele>751.75</ele><time>2026-05-01T10:14:10.466Z</time></trkpt><trkpt lat="43.3108537" lon="12.5054981"><ele>751.0</ele><time>2026-05-01T10:14:11.466Z</time></trkpt><trkpt lat="43.3109917" lon="12.5054764"><ele>751.0</ele><time>2026-05-01T10:14:12.466Z</time></trkpt><trkpt lat="43.3111413" lon="12.505415"><ele>751.0</ele><time>2026-05-01T10:14:13.465Z</time></trkpt><trkpt lat="43.3112929" lon="12.5053495"><ele>751.0</ele><time>2026-05-01T10:14:14.466Z</time></trkpt><trkpt lat="43.3114322" lon="12.5052788"><ele>750.0</ele><time>2026-05-01T10:14:15.465Z</time></trkpt><trkpt lat="43.3115711" lon="12.5052144"><ele>749.0</ele><time>2026-05-01T10:14:16.466Z</time></trkpt><trkpt lat="43.3116952" lon="12.5051792"><ele>748.0</ele><time>2026-05-01T10:14:17.466Z</time></trkpt><trkpt lat="43.3118069" lon="12.5052447"><ele>747.0</ele><time>2026-05-01T10:14:18.466Z</time></trkpt><trkpt lat="43.3118964" lon="12.5053565"><ele>748.0</ele><time>2026-05-01T10:14:19.466Z</time></trkpt><trkpt lat="43.3119886" lon="12.5054681"><ele>749.0</ele><time>2026-05-01T10:14:20.465Z</time></trkpt><trkpt lat="43.3120871" lon="12.5055742"><ele>750.0</ele><time>2026-05-01T10:14:21.465Z</time></trkpt><trkpt lat="43.3121976" lon="12.5056776"><ele>751.0</ele><time>2026-05-01T10:14:22.465Z</time></trkpt><trkpt lat="43.3123108" lon="12.5057595"><ele>748.75</ele><time>2026-05-01T10:14:23.465Z</time></trkpt><trkpt lat="43.3124307" lon="12.5058322"><ele>746.5</ele><time>2026-05-01T10:14:24.466Z</time></trkpt><trkpt lat="43.3125445" lon="12.5059101"><ele>744.25</ele><time>2026-05-01T10:14:25.465Z</time></trkpt><trkpt lat="43.3126562" lon="12.506003"><ele>742.0</ele><time>2026-05-01T10:14:26.465Z</time></trkpt><trkpt lat="43.3127571" lon="12.5061106"><ele>742.0</ele><time>2026-05-01T10:14:27.466Z</time></trkpt><trkpt lat="43.3128503" lon="12.5062327"><ele>742.0</ele><time>2026-05-01T10:14:28.466Z</time></trkpt><trkpt lat="43.3129399" lon="12.5063498"><ele>742.0</ele><time>2026-05-01T10:14:29.465Z</time></trkpt><trkpt lat="43.3130388" lon="12.5064455"><ele>742.0</ele><time>2026-05-01T10:14:30.465Z</time></trkpt><trkpt lat="43.3131446" lon="12.5065316"><ele>740.75</ele><time>2026-05-01T10:14:31.466Z</time></trkpt><trkpt lat="43.3132558" lon="12.5066057"><ele>739.5</ele><time>2026-05-01T10:14:32.466Z</time></trkpt><trkpt lat="43.313369" lon="12.506685"><ele>738.25</ele><time>2026-05-01T10:14:33.466Z</time></trkpt><trkpt lat="43.3134846" lon="12.5067672"><ele>737.0</ele><time>2026-05-01T10:14:34.466Z</time></trkpt><trkpt lat="43.3135805" lon="12.506859"><ele>737.0</ele><time>2026-05-01T10:14:35.466Z</time></trkpt><trkpt lat="43.3136655" lon="12.5069547"><ele>737.0</ele><time>2026-05-01T10:14:36.465Z</time></trkpt><trkpt lat="43.3137299" lon="12.5070446"><ele>737.0</ele><time>2026-05-01T10:14:37.466Z</time></trkpt><trkpt lat="43.3137847" lon="12.5071297"><ele>737.0</ele><time>2026-05-01T10:14:38.466Z</time></trkpt><trkpt lat="43.3138334" lon="12.5072012"><ele>737.0</ele><time>2026-05-01T10:14:39.466Z</time></trkpt><trkpt lat="43.3139119" lon="12.5073011"><ele>735.8</ele><time>2026-05-01T10:14:41.466Z</time></trkpt><trkpt lat="43.3139768" lon="12.507298"><ele>734.6</ele><time>2026-05-01T10:14:43.466Z</time></trkpt><trkpt lat="43.3140315" lon="12.5071891"><ele>733.4</ele><time>2026-05-01T10:14:45.465Z</time></trkpt><trkpt lat="43.3140298" lon="12.5069981"><ele>732.1999999999999</ele><time>2026-05-01T10:14:47.466Z</time></trkpt><trkpt lat="43.3140213" lon="12.5068883"><ele>731.0</ele><time>2026-05-01T10:14:48.465Z</time></trkpt><trkpt lat="43.3140256" lon="12.5067934"><ele>730.0</ele><time>2026-05-01T10:14:49.466Z</time></trkpt><trkpt lat="43.3140259" lon="12.5066976"><ele>729.0</ele><time>2026-05-01T10:14:50.466Z</time></trkpt><trkpt lat="43.3140257" lon="12.5065987"><ele>728.0</ele><time>2026-05-01T10:14:51.465Z</time></trkpt><trkpt lat="43.3140386" lon="12.5064969"><ele>727.0</ele><time>2026-05-01T10:14:52.466Z</time></trkpt><trkpt lat="43.3140739" lon="12.5063977"><ele>726.0</ele><time>2026-05-01T10:14:53.466Z</time></trkpt><trkpt lat="43.3141229" lon="12.5062949"><ele>725.0</ele><time>2026-05-01T10:14:54.466Z</time></trkpt><trkpt lat="43.3141611" lon="12.5061973"><ele>724.1666666666666</ele><time>2026-05-01T10:14:55.466Z</time></trkpt><trkpt lat="43.3141863" lon="12.5060977"><ele>723.3333333333333</ele><time>2026-05-01T10:14:56.466Z</time></trkpt><trkpt lat="43.3141993" lon="12.5059885"><ele>722.5</ele><time>2026-05-01T10:14:57.465Z</time></trkpt><trkpt lat="43.3142031" lon="12.5058753"><ele>721.6666666666666</ele><time>2026-05-01T10:14:58.466Z</time></trkpt><trkpt lat="43.314211" lon="12.5057496"><ele>720.8333333333334</ele><time>2026-05-01T10:14:59.466Z</time></trkpt><trkpt lat="43.3142281" lon="12.5056047"><ele>720.0</ele><time>2026-05-01T10:15:00.465Z</time></trkpt><trkpt lat="43.3142528" lon="12.5054592"><ele>719.4</ele><time>2026-05-01T10:15:01.465Z</time></trkpt><trkpt lat="43.3142833" lon="12.5053241"><ele>718.8</ele><time>2026-05-01T10:15:02.466Z</time></trkpt><trkpt lat="43.314316" lon="12.5051926"><ele>718.2</ele><time>2026-05-01T10:15:03.465Z</time></trkpt><trkpt lat="43.3143574" lon="12.5050581"><ele>717.6</ele><time>2026-05-01T10:15:04.466Z</time></trkpt><trkpt lat="43.3143872" lon="12.5049218"><ele>717.0</ele><time>2026-05-01T10:15:05.465Z</time></trkpt><trkpt lat="43.3144058" lon="12.5047692"><ele>717.0</ele><time>2026-05-01T10:15:06.466Z</time></trkpt><trkpt lat="43.314409" lon="12.5046058"><ele>717.0</ele><time>2026-05-01T10:15:07.465Z</time></trkpt><trkpt lat="43.3143977" lon="12.5044316"><ele>717.0</ele><time>2026-05-01T10:15:08.466Z</time></trkpt><trkpt lat="43.314379" lon="12.5042525"><ele>717.0</ele><time>2026-05-01T10:15:09.466Z</time></trkpt><trkpt lat="43.3143511" lon="12.5040543"><ele>715.75</ele><time>2026-05-01T10:15:10.465Z</time></trkpt><trkpt lat="43.3143242" lon="12.5038557"><ele>714.5</ele><time>2026-05-01T10:15:11.466Z</time></trkpt><trkpt lat="43.3143019" lon="12.5036552"><ele>713.25</ele><time>2026-05-01T10:15:12.465Z</time></trkpt><trkpt lat="43.3142782" lon="12.5034544"><ele>712.0</ele><time>2026-05-01T10:15:13.466Z</time></trkpt><trkpt lat="43.3142569" lon="12.5032595"><ele>712.0</ele><time>2026-05-01T10:15:14.466Z</time></trkpt><trkpt lat="43.3142359" lon="12.5030655"><ele>712.0</ele><time>2026-05-01T10:15:15.466Z</time></trkpt><trkpt lat="43.3142132" lon="12.5028695"><ele>712.0</ele><time>2026-05-01T10:15:16.466Z</time></trkpt><trkpt lat="43.3141908" lon="12.502696"><ele>712.0</ele><time>2026-05-01T10:15:17.466Z</time></trkpt><trkpt lat="43.3141644" lon="12.5025469"><ele>712.2</ele><time>2026-05-01T10:15:18.466Z</time></trkpt><trkpt lat="43.3141438" lon="12.5024143"><ele>712.4000000000001</ele><time>2026-05-01T10:15:19.465Z</time></trkpt><trkpt lat="43.3141153" lon="12.5022878"><ele>712.5999999999999</ele><time>2026-05-01T10:15:20.466Z</time></trkpt><trkpt lat="43.314091" lon="12.5021594"><ele>712.8</ele><time>2026-05-01T10:15:21.465Z</time></trkpt><trkpt lat="43.3140723" lon="12.5020329"><ele>713.0</ele><time>2026-05-01T10:15:22.465Z</time></trkpt><trkpt lat="43.3140689" lon="12.5018942"><ele>712.5</ele><time>2026-05-01T10:15:23.466Z</time></trkpt><trkpt lat="43.3140873" lon="12.5017478"><ele>712.0</ele><time>2026-05-01T10:15:24.466Z</time></trkpt><trkpt lat="43.3140998" lon="12.5015916"><ele>711.5</ele><time>2026-05-01T10:15:25.466Z</time></trkpt><trkpt lat="43.3141114" lon="12.5014203"><ele>711.0</ele><time>2026-05-01T10:15:26.466Z</time></trkpt><trkpt lat="43.3141136" lon="12.5012584"><ele>709.5</ele><time>2026-05-01T10:15:27.465Z</time></trkpt><trkpt lat="43.3141046" lon="12.5011001"><ele>708.0</ele><time>2026-05-01T10:15:28.466Z</time></trkpt><trkpt lat="43.3140994" lon="12.5009478"><ele>706.5</ele><time>2026-05-01T10:15:29.466Z</time></trkpt><trkpt lat="43.3141072" lon="12.5007878"><ele>705.0</ele><time>2026-05-01T10:15:30.466Z</time></trkpt><trkpt lat="43.3141314" lon="12.5006205"><ele>705.0</ele><time>2026-05-01T10:15:31.465Z</time></trkpt><trkpt lat="43.3141772" lon="12.5004649"><ele>705.0</ele><time>2026-05-01T10:15:32.466Z</time></trkpt><trkpt lat="43.3142419" lon="12.5003333"><ele>705.0</ele><time>2026-05-01T10:15:33.466Z</time></trkpt><trkpt lat="43.3142965" lon="12.500212"><ele>705.0</ele><time>2026-05-01T10:15:34.466Z</time></trkpt><trkpt lat="43.3143209" lon="12.5000919"><ele>705.0</ele><time>2026-05-01T10:15:35.466Z</time></trkpt><trkpt lat="43.3143221" lon="12.4999717"><ele>703.8</ele><time>2026-05-01T10:15:36.466Z</time></trkpt><trkpt lat="43.3142987" lon="12.4998566"><ele>702.6</ele><time>2026-05-01T10:15:37.466Z</time></trkpt><trkpt lat="43.3142528" lon="12.4997505"><ele>701.4000000000001</ele><time>2026-05-01T10:15:38.466Z</time></trkpt><trkpt lat="43.3142038" lon="12.4996369"><ele>700.2</ele><time>2026-05-01T10:15:39.466Z</time></trkpt><trkpt lat="43.3141598" lon="12.4994999"><ele>699.0</ele><time>2026-05-01T10:15:40.465Z</time></trkpt><trkpt lat="43.3141409" lon="12.4993373"><ele>698.5</ele><time>2026-05-01T10:15:41.466Z</time></trkpt><trkpt lat="43.3141468" lon="12.4991682"><ele>698.0</ele><time>2026-05-01T10:15:42.466Z</time></trkpt><trkpt lat="43.3141535" lon="12.4989985"><ele>697.5</ele><time>2026-05-01T10:15:43.466Z</time></trkpt><trkpt lat="43.3141561" lon="12.4988274"><ele>697.0</ele><time>2026-05-01T10:15:44.466Z</time></trkpt><trkpt lat="43.3141469" lon="12.4986607"><ele>696.8</ele><time>2026-05-01T10:15:45.466Z</time></trkpt><trkpt lat="43.3141342" lon="12.4985084"><ele>696.6</ele><time>2026-05-01T10:15:46.466Z</time></trkpt><trkpt lat="43.3141215" lon="12.4983639"><ele>696.4</ele><time>2026-05-01T10:15:47.466Z</time></trkpt><trkpt lat="43.3141093" lon="12.4982365"><ele>696.1999999999999</ele><time>2026-05-01T10:15:48.465Z</time></trkpt><trkpt lat="43.3141123" lon="12.4981254"><ele>696.0</ele><time>2026-05-01T10:15:49.466Z</time></trkpt><trkpt lat="43.3141404" lon="12.4980295"><ele>696.0</ele><time>2026-05-01T10:15:50.466Z</time></trkpt><trkpt lat="43.3141978" lon="12.4979378"><ele>696.0</ele><time>2026-05-01T10:15:51.465Z</time></trkpt><trkpt lat="43.3142894" lon="12.4978719"><ele>696.0</ele><time>2026-05-01T10:15:52.466Z</time></trkpt><trkpt lat="43.314389" lon="12.4978314"><ele>696.0</ele><time>2026-05-01T10:15:53.466Z</time></trkpt><trkpt lat="43.3144958" lon="12.497811"><ele>696.0</ele><time>2026-05-01T10:15:54.466Z</time></trkpt><trkpt lat="43.3146077" lon="12.497815"><ele>694.5999999999999</ele><time>2026-05-01T10:15:55.466Z</time></trkpt><trkpt lat="43.3147097" lon="12.4978372"><ele>693.2</ele><time>2026-05-01T10:15:56.466Z</time></trkpt><trkpt lat="43.314806" lon="12.4978664"><ele>691.8</ele><time>2026-05-01T10:15:57.466Z</time></trkpt><trkpt lat="43.3149064" lon="12.4978925"><ele>690.4000000000001</ele><time>2026-05-01T10:15:58.467Z</time></trkpt><trkpt lat="43.3150014" lon="12.4979022"><ele>689.0</ele><time>2026-05-01T10:15:59.467Z</time></trkpt><trkpt lat="43.3150912" lon="12.4978939"><ele>688.5</ele><time>2026-05-01T10:16:00.467Z</time></trkpt><trkpt lat="43.3151666" lon="12.497864"><ele>688.0</ele><time>2026-05-01T10:16:01.467Z</time></trkpt><trkpt lat="43.3152425" lon="12.4978068"><ele>687.5</ele><time>2026-05-01T10:16:02.467Z</time></trkpt><trkpt lat="43.3153103" lon="12.4977292"><ele>687.0</ele><time>2026-05-01T10:16:03.467Z</time></trkpt><trkpt lat="43.315379" lon="12.497642"><ele>686.5</ele><time>2026-05-01T10:16:04.467Z</time></trkpt><trkpt lat="43.3154375" lon="12.4975478"><ele>686.0</ele><time>2026-05-01T10:16:05.467Z</time></trkpt><trkpt lat="43.3154809" lon="12.4974448"><ele>686.0</ele><time>2026-05-01T10:16:06.467Z</time></trkpt><trkpt lat="43.315528" lon="12.4973384"><ele>686.0</ele><time>2026-05-01T10:16:07.466Z</time></trkpt><trkpt lat="43.3155764" lon="12.4972398"><ele>686.0</ele><time>2026-05-01T10:16:08.466Z</time></trkpt><trkpt lat="43.3156234" lon="12.4971548"><ele>686.0</ele><time>2026-05-01T10:16:09.466Z</time></trkpt><trkpt lat="43.3156813" lon="12.4970657"><ele>686.0</ele><time>2026-05-01T10:16:10.466Z</time></trkpt><trkpt lat="43.3157496" lon="12.4969871"><ele>686.0</ele><time>2026-05-01T10:16:11.467Z</time></trkpt><trkpt lat="43.3158229" lon="12.4969325"><ele>684.5</ele><time>2026-05-01T10:16:12.467Z</time></trkpt><trkpt lat="43.3158947" lon="12.4969007"><ele>683.0</ele><time>2026-05-01T10:16:13.467Z</time></trkpt><trkpt lat="43.3159542" lon="12.4968656"><ele>681.5</ele><time>2026-05-01T10:16:14.466Z</time></trkpt><trkpt lat="43.3160089" lon="12.4968129"><ele>680.0</ele><time>2026-05-01T10:16:15.466Z</time></trkpt><trkpt lat="43.3160594" lon="12.4967412"><ele>678.5</ele><time>2026-05-01T10:16:16.467Z</time></trkpt><trkpt lat="43.3160707" lon="12.49662"><ele>677.0</ele><time>2026-05-01T10:16:17.466Z</time></trkpt><trkpt lat="43.3160568" lon="12.4964897"><ele>677.0</ele><time>2026-05-01T10:16:18.467Z</time></trkpt><trkpt lat="43.316037" lon="12.4963629"><ele>677.0</ele><time>2026-05-01T10:16:19.467Z</time></trkpt><trkpt lat="43.3160268" lon="12.4962425"><ele>677.0</ele><time>2026-05-01T10:16:20.466Z</time></trkpt><trkpt lat="43.3160195" lon="12.4961221"><ele>677.0</ele><time>2026-05-01T10:16:21.467Z</time></trkpt><trkpt lat="43.3160244" lon="12.4960024"><ele>677.0</ele><time>2026-05-01T10:16:22.466Z</time></trkpt><trkpt lat="43.3160527" lon="12.495878"><ele>675.5</ele><time>2026-05-01T10:16:23.467Z</time></trkpt><trkpt lat="43.316092" lon="12.4957698"><ele>674.0</ele><time>2026-05-01T10:16:24.467Z</time></trkpt><trkpt lat="43.3161345" lon="12.4956744"><ele>672.5</ele><time>2026-05-01T10:16:25.467Z</time></trkpt><trkpt lat="43.3161726" lon="12.4955934"><ele>671.0</ele><time>2026-05-01T10:16:26.467Z</time></trkpt><trkpt lat="43.3162282" lon="12.4954667"><ele>669.5</ele><time>2026-05-01T10:16:28.467Z</time></trkpt><trkpt lat="43.3162992" lon="12.4953747"><ele>668.0</ele><time>2026-05-01T10:16:30.467Z</time></trkpt><trkpt lat="43.3163994" lon="12.495329"><ele>667.5999999999999</ele><time>2026-05-01T10:16:32.467Z</time></trkpt><trkpt lat="43.3165012" lon="12.4953337"><ele>667.1999999999999</ele><time>2026-05-01T10:16:34.466Z</time></trkpt><trkpt lat="43.3165942" lon="12.4953549"><ele>666.8</ele><time>2026-05-01T10:16:36.467Z</time></trkpt><trkpt lat="43.3166781" lon="12.4953754"><ele>666.4</ele><time>2026-05-01T10:16:38.467Z</time></trkpt><trkpt lat="43.3167814" lon="12.4954009"><ele>666.0</ele><time>2026-05-01T10:16:40.466Z</time></trkpt><trkpt lat="43.3168512" lon="12.4954204"><ele>667.1666666666666</ele><time>2026-05-01T10:16:41.467Z</time></trkpt><trkpt lat="43.3169293" lon="12.4954401"><ele>668.3333333333334</ele><time>2026-05-01T10:16:42.467Z</time></trkpt><trkpt lat="43.3170195" lon="12.4954657"><ele>669.5</ele><time>2026-05-01T10:16:43.467Z</time></trkpt><trkpt lat="43.317108" lon="12.4954897"><ele>670.6666666666667</ele><time>2026-05-01T10:16:44.467Z</time></trkpt><trkpt lat="43.3171944" lon="12.49552"><ele>671.8333333333334</ele><time>2026-05-01T10:16:45.467Z</time></trkpt><trkpt lat="43.3172776" lon="12.4955623"><ele>673.0</ele><time>2026-05-01T10:16:46.467Z</time></trkpt><trkpt lat="43.3173571" lon="12.4956233"><ele>670.5</ele><time>2026-05-01T10:16:47.467Z</time></trkpt><trkpt lat="43.3174273" lon="12.4956933"><ele>668.0</ele><time>2026-05-01T10:16:48.467Z</time></trkpt><trkpt lat="43.3174866" lon="12.4957697"><ele>665.5</ele><time>2026-05-01T10:16:49.467Z</time></trkpt><trkpt lat="43.3175453" lon="12.4958447"><ele>663.0</ele><time>2026-05-01T10:16:50.467Z</time></trkpt><trkpt lat="43.3175954" lon="12.4959109"><ele>660.5</ele><time>2026-05-01T10:16:51.467Z</time></trkpt><trkpt lat="43.3176408" lon="12.495979"><ele>658.0</ele><time>2026-05-01T10:16:52.467Z</time></trkpt><trkpt lat="43.3176888" lon="12.4960457"><ele>658.0</ele><time>2026-05-01T10:16:53.467Z</time></trkpt><trkpt lat="43.3177457" lon="12.4961045"><ele>658.0</ele><time>2026-05-01T10:16:54.467Z</time></trkpt><trkpt lat="43.31781" lon="12.4961583"><ele>658.0</ele><time>2026-05-01T10:16:55.467Z</time></trkpt><trkpt lat="43.3178866" lon="12.4962023"><ele>658.0</ele><time>2026-05-01T10:16:56.467Z</time></trkpt><trkpt lat="43.3179727" lon="12.4962278"><ele>658.0</ele><time>2026-05-01T10:16:57.467Z</time></trkpt><trkpt lat="43.3180555" lon="12.4962294"><ele>658.0</ele><time>2026-05-01T10:16:58.467Z</time></trkpt><trkpt lat="43.3181429" lon="12.4962077"><ele>654.0</ele><time>2026-05-01T10:16:59.467Z</time></trkpt><trkpt lat="43.3182355" lon="12.4961749"><ele>650.0</ele><time>2026-05-01T10:17:00.467Z</time></trkpt><trkpt lat="43.3183321" lon="12.4961124"><ele>646.0</ele><time>2026-05-01T10:17:01.467Z</time></trkpt><trkpt lat="43.3184439" lon="12.4960267"><ele>642.0</ele><time>2026-05-01T10:17:02.467Z</time></trkpt><trkpt lat="43.3185717" lon="12.4959336"><ele>642.0</ele><time>2026-05-01T10:17:03.466Z</time></trkpt><trkpt lat="43.31871" lon="12.4958548"><ele>642.0</ele><time>2026-05-01T10:17:04.467Z</time></trkpt><trkpt lat="43.3188465" lon="12.4957891"><ele>642.0</ele><time>2026-05-01T10:17:05.467Z</time></trkpt><trkpt lat="43.3189832" lon="12.4957333"><ele>642.0</ele><time>2026-05-01T10:17:06.467Z</time></trkpt><trkpt lat="43.3191085" lon="12.4956901"><ele>639.25</ele><time>2026-05-01T10:17:07.466Z</time></trkpt><trkpt lat="43.3192397" lon="12.4956527"><ele>636.5</ele><time>2026-05-01T10:17:08.467Z</time></trkpt><trkpt lat="43.3193731" lon="12.4956271"><ele>633.75</ele><time>2026-05-01T10:17:09.466Z</time></trkpt><trkpt lat="43.3195107" lon="12.4956137"><ele>631.0</ele><time>2026-05-01T10:17:10.467Z</time></trkpt><trkpt lat="43.3196472" lon="12.4956013"><ele>630.25</ele><time>2026-05-01T10:17:11.466Z</time></trkpt><trkpt lat="43.3197863" lon="12.4955919"><ele>629.5</ele><time>2026-05-01T10:17:12.467Z</time></trkpt><trkpt lat="43.3199216" lon="12.4955804"><ele>628.75</ele><time>2026-05-01T10:17:13.467Z</time></trkpt><trkpt lat="43.3200521" lon="12.4955656"><ele>628.0</ele><time>2026-05-01T10:17:14.467Z</time></trkpt><trkpt lat="43.3201768" lon="12.4955491"><ele>628.0</ele><time>2026-05-01T10:17:15.466Z</time></trkpt><trkpt lat="43.3203033" lon="12.4955209"><ele>628.0</ele><time>2026-05-01T10:17:16.467Z</time></trkpt><trkpt lat="43.3204278" lon="12.4955007"><ele>628.0</ele><time>2026-05-01T10:17:17.467Z</time></trkpt><trkpt lat="43.3205545" lon="12.4954759"><ele>628.0</ele><time>2026-05-01T10:17:18.467Z</time></trkpt><trkpt lat="43.3206875" lon="12.4954486"><ele>626.75</ele><time>2026-05-01T10:17:19.466Z</time></trkpt><trkpt lat="43.3208183" lon="12.4954389"><ele>625.5</ele><time>2026-05-01T10:17:20.466Z</time></trkpt><trkpt lat="43.320953" lon="12.4954573"><ele>624.25</ele><time>2026-05-01T10:17:21.467Z</time></trkpt><trkpt lat="43.3210838" lon="12.4954983"><ele>623.0</ele><time>2026-05-01T10:17:22.467Z</time></trkpt><trkpt lat="43.3211996" lon="12.4955506"><ele>623.0</ele><time>2026-05-01T10:17:23.467Z</time></trkpt><trkpt lat="43.321298" lon="12.4956139"><ele>623.0</ele><time>2026-05-01T10:17:24.466Z</time></trkpt><trkpt lat="43.3213897" lon="12.4956731"><ele>623.0</ele><time>2026-05-01T10:17:25.466Z</time></trkpt><trkpt lat="43.3214823" lon="12.4957144"><ele>623.0</ele><time>2026-05-01T10:17:26.466Z</time></trkpt><trkpt lat="43.3215705" lon="12.4957251"><ele>623.0</ele><time>2026-05-01T10:17:27.467Z</time></trkpt><trkpt lat="43.3216584" lon="12.4957179"><ele>621.5</ele><time>2026-05-01T10:17:28.466Z</time></trkpt><trkpt lat="43.3217501" lon="12.4956977"><ele>620.0</ele><time>2026-05-01T10:17:29.467Z</time></trkpt><trkpt lat="43.3218434" lon="12.4956485"><ele>618.5</ele><time>2026-05-01T10:17:30.466Z</time></trkpt><trkpt lat="43.3219582" lon="12.4955673"><ele>617.0</ele><time>2026-05-01T10:17:31.467Z</time></trkpt><trkpt lat="43.322077" lon="12.495452"><ele>617.6666666666666</ele><time>2026-05-01T10:17:32.467Z</time></trkpt><trkpt lat="43.3222024" lon="12.4953464"><ele>618.3333333333334</ele><time>2026-05-01T10:17:33.466Z</time></trkpt><trkpt lat="43.3223377" lon="12.4952344"><ele>619.0</ele><time>2026-05-01T10:17:34.466Z</time></trkpt><trkpt lat="43.3224756" lon="12.4951178"><ele>617.3333333333334</ele><time>2026-05-01T10:17:35.467Z</time></trkpt><trkpt lat="43.322619" lon="12.4949951"><ele>615.6666666666666</ele><time>2026-05-01T10:17:36.467Z</time></trkpt><trkpt lat="43.3227621" lon="12.4948668"><ele>614.0</ele><time>2026-05-01T10:17:37.467Z</time></trkpt><trkpt lat="43.3229047" lon="12.4947513"><ele>614.0</ele><time>2026-05-01T10:17:38.467Z</time></trkpt><trkpt lat="43.3230517" lon="12.4946394"><ele>614.0</ele><time>2026-05-01T10:17:39.466Z</time></trkpt><trkpt lat="43.3232018" lon="12.4945375"><ele>614.0</ele><time>2026-05-01T10:17:40.467Z</time></trkpt><trkpt lat="43.3233554" lon="12.4944534"><ele>613.6666666666666</ele><time>2026-05-01T10:17:41.466Z</time></trkpt><trkpt lat="43.3235217" lon="12.4943768"><ele>613.3333333333334</ele><time>2026-05-01T10:17:42.467Z</time></trkpt><trkpt lat="43.3236909" lon="12.4942981"><ele>613.0</ele><time>2026-05-01T10:17:43.467Z</time></trkpt><trkpt lat="43.3238536" lon="12.4942063"><ele>614.6666666666667</ele><time>2026-05-01T10:17:44.467Z</time></trkpt><trkpt lat="43.3240104" lon="12.4941026"><ele>616.3333333333334</ele><time>2026-05-01T10:17:45.466Z</time></trkpt><trkpt lat="43.3241579" lon="12.493996"><ele>618.0</ele><time>2026-05-01T10:17:46.467Z</time></trkpt><trkpt lat="43.3242809" lon="12.4938735"><ele>618.25</ele><time>2026-05-01T10:17:47.466Z</time></trkpt><trkpt lat="43.3243837" lon="12.4937331"><ele>618.5</ele><time>2026-05-01T10:17:48.466Z</time></trkpt><trkpt lat="43.3244684" lon="12.4935992"><ele>618.75</ele><time>2026-05-01T10:17:49.467Z</time></trkpt><trkpt lat="43.3245441" lon="12.4934889"><ele>619.0</ele><time>2026-05-01T10:17:50.466Z</time></trkpt><trkpt lat="43.3246194" lon="12.4934102"><ele>619.0</ele><time>2026-05-01T10:17:51.467Z</time></trkpt><trkpt lat="43.3247083" lon="12.4933555"><ele>619.0</ele><time>2026-05-01T10:17:52.466Z</time></trkpt><trkpt lat="43.3248084" lon="12.4933227"><ele>619.0</ele><time>2026-05-01T10:17:53.466Z</time></trkpt><trkpt lat="43.3249241" lon="12.4932961"><ele>619.0</ele><time>2026-05-01T10:17:54.467Z</time></trkpt><trkpt lat="43.3250546" lon="12.4932819"><ele>619.0</ele><time>2026-05-01T10:17:55.467Z</time></trkpt><trkpt lat="43.3251911" lon="12.4932718"><ele>618.75</ele><time>2026-05-01T10:17:56.466Z</time></trkpt><trkpt lat="43.3253316" lon="12.4932531"><ele>618.5</ele><time>2026-05-01T10:17:57.467Z</time></trkpt><trkpt lat="43.3254772" lon="12.4932366"><ele>618.25</ele><time>2026-05-01T10:17:58.467Z</time></trkpt><trkpt lat="43.3256174" lon="12.4932136"><ele>618.0</ele><time>2026-05-01T10:17:59.466Z</time></trkpt><trkpt lat="43.3257584" lon="12.49319"><ele>617.5</ele><time>2026-05-01T10:18:00.467Z</time></trkpt><trkpt lat="43.3258971" lon="12.4931623"><ele>617.0</ele><time>2026-05-01T10:18:01.466Z</time></trkpt><trkpt lat="43.3260326" lon="12.4931486"><ele>616.5</ele><time>2026-05-01T10:18:02.467Z</time></trkpt><trkpt lat="43.3261641" lon="12.4931517"><ele>616.0</ele><time>2026-05-01T10:18:03.467Z</time></trkpt><trkpt lat="43.3262947" lon="12.4931658"><ele>617.25</ele><time>2026-05-01T10:18:04.467Z</time></trkpt><trkpt lat="43.3264236" lon="12.4931891"><ele>618.5</ele><time>2026-05-01T10:18:05.467Z</time></trkpt><trkpt lat="43.3265346" lon="12.4932095"><ele>619.75</ele><time>2026-05-01T10:18:06.467Z</time></trkpt><trkpt lat="43.3266447" lon="12.4932144"><ele>621.0</ele><time>2026-05-01T10:18:07.467Z</time></trkpt><trkpt lat="43.3267506" lon="12.4931832"><ele>621.0</ele><time>2026-05-01T10:18:08.467Z</time></trkpt><trkpt lat="43.3268543" lon="12.4931363"><ele>621.0</ele><time>2026-05-01T10:18:09.467Z</time></trkpt><trkpt lat="43.3269578" lon="12.4930684"><ele>621.0</ele><time>2026-05-01T10:18:10.467Z</time></trkpt><trkpt lat="43.3270705" lon="12.4929739"><ele>621.0</ele><time>2026-05-01T10:18:11.467Z</time></trkpt><trkpt lat="43.3271867" lon="12.4928808"><ele>623.25</ele><time>2026-05-01T10:18:12.467Z</time></trkpt><trkpt lat="43.3273051" lon="12.4927904"><ele>625.5</ele><time>2026-05-01T10:18:13.466Z</time></trkpt><trkpt lat="43.327424" lon="12.4927024"><ele>627.75</ele><time>2026-05-01T10:18:14.467Z</time></trkpt><trkpt lat="43.3275297" lon="12.4926277"><ele>630.0</ele><time>2026-05-01T10:18:15.467Z</time></trkpt><trkpt lat="43.3276235" lon="12.4925719"><ele>630.0</ele><time>2026-05-01T10:18:16.467Z</time></trkpt><trkpt lat="43.3276991" lon="12.4925217"><ele>630.0</ele><time>2026-05-01T10:18:17.467Z</time></trkpt><trkpt lat="43.3277766" lon="12.492471"><ele>630.0</ele><time>2026-05-01T10:18:18.467Z</time></trkpt><trkpt lat="43.3278688" lon="12.492431"><ele>630.0</ele><time>2026-05-01T10:18:19.467Z</time></trkpt><trkpt lat="43.3279711" lon="12.4923829"><ele>630.0</ele><time>2026-05-01T10:18:20.467Z</time></trkpt><trkpt lat="43.3280789" lon="12.4923203"><ele>630.0</ele><time>2026-05-01T10:18:21.467Z</time></trkpt><trkpt lat="43.3281945" lon="12.4922541"><ele>630.0</ele><time>2026-05-01T10:18:22.467Z</time></trkpt><trkpt lat="43.3283037" lon="12.4921829"><ele>630.0</ele><time>2026-05-01T10:18:23.467Z</time></trkpt><trkpt lat="43.3284111" lon="12.4921203"><ele>630.0</ele><time>2026-05-01T10:18:24.466Z</time></trkpt><trkpt lat="43.3285087" lon="12.4920613"><ele>629.2</ele><time>2026-05-01T10:18:25.466Z</time></trkpt><trkpt lat="43.3285985" lon="12.4920121"><ele>628.4</ele><time>2026-05-01T10:18:26.467Z</time></trkpt><trkpt lat="43.3286865" lon="12.4919606"><ele>627.6</ele><time>2026-05-01T10:18:27.467Z</time></trkpt><trkpt lat="43.3287779" lon="12.4918989"><ele>626.8</ele><time>2026-05-01T10:18:28.467Z</time></trkpt><trkpt lat="43.3288765" lon="12.4918208"><ele>626.0</ele><time>2026-05-01T10:18:29.466Z</time></trkpt><trkpt lat="43.3289744" lon="12.4917389"><ele>626.0</ele><time>2026-05-01T10:18:30.466Z</time></trkpt><trkpt lat="43.3290676" lon="12.4916644"><ele>626.0</ele><time>2026-05-01T10:18:31.467Z</time></trkpt><trkpt lat="43.329164" lon="12.4916068"><ele>626.0</ele><time>2026-05-01T10:18:32.467Z</time></trkpt><trkpt lat="43.3292604" lon="12.4915579"><ele>626.0</ele><time>2026-05-01T10:18:33.467Z</time></trkpt><trkpt lat="43.3293549" lon="12.4915245"><ele>626.0</ele><time>2026-05-01T10:18:34.467Z</time></trkpt><trkpt lat="43.3294487" lon="12.4915049"><ele>626.0</ele><time>2026-05-01T10:18:35.467Z</time></trkpt><trkpt lat="43.3295373" lon="12.4915076"><ele>626.0</ele><time>2026-05-01T10:18:36.467Z</time></trkpt><trkpt lat="43.3296234" lon="12.4915523"><ele>626.0</ele><time>2026-05-01T10:18:37.467Z</time></trkpt><trkpt lat="43.3296982" lon="12.4916385"><ele>626.0</ele><time>2026-05-01T10:18:38.466Z</time></trkpt><trkpt lat="43.3297607" lon="12.4917554"><ele>626.0</ele><time>2026-05-01T10:18:39.467Z</time></trkpt><trkpt lat="43.3298075" lon="12.4918844"><ele>624.8</ele><time>2026-05-01T10:18:40.467Z</time></trkpt><trkpt lat="43.3298387" lon="12.4920082"><ele>623.6</ele><time>2026-05-01T10:18:41.467Z</time></trkpt><trkpt lat="43.3298514" lon="12.4921202"><ele>622.4</ele><time>2026-05-01T10:18:42.466Z</time></trkpt><trkpt lat="43.329858" lon="12.4922188"><ele>621.2</ele><time>2026-05-01T10:18:43.466Z</time></trkpt><trkpt lat="43.3299448" lon="12.4923754"><ele>620.0</ele><time>2026-05-01T10:18:45.467Z</time></trkpt><trkpt lat="43.3300365" lon="12.4924027"><ele>618.25</ele><time>2026-05-01T10:18:46.467Z</time></trkpt><trkpt lat="43.3301451" lon="12.4924029"><ele>616.5</ele><time>2026-05-01T10:18:47.467Z</time></trkpt><trkpt lat="43.3302628" lon="12.4924053"><ele>614.75</ele><time>2026-05-01T10:18:48.467Z</time></trkpt><trkpt lat="43.3303958" lon="12.4924099"><ele>613.0</ele><time>2026-05-01T10:18:49.467Z</time></trkpt><trkpt lat="43.3305388" lon="12.4924372"><ele>613.3333333333334</ele><time>2026-05-01T10:18:50.466Z</time></trkpt><trkpt lat="43.3306831" lon="12.4925076"><ele>613.6666666666666</ele><time>2026-05-01T10:18:51.467Z</time></trkpt><trkpt lat="43.3308317" lon="12.4925906"><ele>614.0</ele><time>2026-05-01T10:18:52.467Z</time></trkpt><trkpt lat="43.3309767" lon="12.49267"><ele>614.0</ele><time>2026-05-01T10:18:53.466Z</time></trkpt><trkpt lat="43.3311009" lon="12.4927152"><ele>614.0</ele><time>2026-05-01T10:18:54.467Z</time></trkpt><trkpt lat="43.3312016" lon="12.4927351"><ele>614.0</ele><time>2026-05-01T10:18:55.467Z</time></trkpt><trkpt lat="43.3313029" lon="12.4927555"><ele>614.0</ele><time>2026-05-01T10:18:56.467Z</time></trkpt><trkpt lat="43.3314116" lon="12.4927509"><ele>614.0</ele><time>2026-05-01T10:18:57.467Z</time></trkpt><trkpt lat="43.3315218" lon="12.4927269"><ele>613.8</ele><time>2026-05-01T10:18:58.466Z</time></trkpt><trkpt lat="43.3316284" lon="12.4926944"><ele>613.5999999999999</ele><time>2026-05-01T10:18:59.467Z</time></trkpt><trkpt lat="43.3317284" lon="12.4926487"><ele>613.4</ele><time>2026-05-01T10:19:00.467Z</time></trkpt><trkpt lat="43.3318183" lon="12.4925762"><ele>613.1999999999999</ele><time>2026-05-01T10:19:01.467Z</time></trkpt><trkpt lat="43.3319056" lon="12.4924897"><ele>613.0</ele><time>2026-05-01T10:19:02.467Z</time></trkpt><trkpt lat="43.3320014" lon="12.4924265"><ele>613.0</ele><time>2026-05-01T10:19:03.466Z</time></trkpt><trkpt lat="43.3321135" lon="12.4924125"><ele>613.0</ele><time>2026-05-01T10:19:04.467Z</time></trkpt><trkpt lat="43.3322262" lon="12.4924273"><ele>613.0</ele><time>2026-05-01T10:19:05.467Z</time></trkpt><trkpt lat="43.3323387" lon="12.4924823"><ele>613.0</ele><time>2026-05-01T10:19:06.467Z</time></trkpt><trkpt lat="43.3324444" lon="12.4925598"><ele>614.0</ele><time>2026-05-01T10:19:07.467Z</time></trkpt><trkpt lat="43.3325453" lon="12.4926529"><ele>615.0</ele><time>2026-05-01T10:19:08.466Z</time></trkpt><trkpt lat="43.3326378" lon="12.4927348"><ele>616.0</ele><time>2026-05-01T10:19:09.467Z</time></trkpt><trkpt lat="43.3327229" lon="12.4928035"><ele>617.0</ele><time>2026-05-01T10:19:10.467Z</time></trkpt><trkpt lat="43.3328058" lon="12.4928617"><ele>618.0</ele><time>2026-05-01T10:19:11.467Z</time></trkpt><trkpt lat="43.3328853" lon="12.4929173"><ele>618.3333333333334</ele><time>2026-05-01T10:19:12.466Z</time></trkpt><trkpt lat="43.332967" lon="12.492963"><ele>618.6666666666666</ele><time>2026-05-01T10:19:13.467Z</time></trkpt><trkpt lat="43.3330477" lon="12.4930062"><ele>619.0</ele><time>2026-05-01T10:19:14.467Z</time></trkpt><trkpt lat="43.3331278" lon="12.4930532"><ele>619.3333333333333</ele><time>2026-05-01T10:19:15.467Z</time></trkpt><trkpt lat="43.3332063" lon="12.4931008"><ele>619.6666666666666</ele><time>2026-05-01T10:19:16.467Z</time></trkpt><trkpt lat="43.3332712" lon="12.4931425"><ele>620.0</ele><time>2026-05-01T10:19:17.466Z</time></trkpt><trkpt lat="43.3333571" lon="12.4931935"><ele>623.0</ele><time>2026-05-01T10:19:19.466Z</time></trkpt><trkpt lat="43.3334041" lon="12.4930832"><ele>626.0</ele><time>2026-05-01T10:19:22.467Z</time></trkpt><trkpt lat="43.3334239" lon="12.4929202"><ele>629.0</ele><time>2026-05-01T10:19:24.467Z</time></trkpt><trkpt lat="43.3334324" lon="12.4928169"><ele>632.0</ele><time>2026-05-01T10:19:25.467Z</time></trkpt><trkpt lat="43.3334501" lon="12.492701"><ele>635.0</ele><time>2026-05-01T10:19:26.467Z</time></trkpt><trkpt lat="43.3334636" lon="12.4925721"><ele>635.2</ele><time>2026-05-01T10:19:27.467Z</time></trkpt><trkpt lat="43.3334893" lon="12.4924384"><ele>635.4</ele><time>2026-05-01T10:19:28.467Z</time></trkpt><trkpt lat="43.3335125" lon="12.4923115"><ele>635.6</ele><time>2026-05-01T10:19:29.466Z</time></trkpt><trkpt lat="43.3335394" lon="12.4921779"><ele>635.8</ele><time>2026-05-01T10:19:30.467Z</time></trkpt><trkpt lat="43.3335566" lon="12.4920281"><ele>636.0</ele><time>2026-05-01T10:19:31.467Z</time></trkpt><trkpt lat="43.3335692" lon="12.4918707"><ele>636.0</ele><time>2026-05-01T10:19:32.467Z</time></trkpt><trkpt lat="43.3335753" lon="12.491703"><ele>636.0</ele><time>2026-05-01T10:19:33.466Z</time></trkpt><trkpt lat="43.3335795" lon="12.4915265"><ele>636.0</ele><time>2026-05-01T10:19:34.466Z</time></trkpt><trkpt lat="43.333581" lon="12.4913545"><ele>636.0</ele><time>2026-05-01T10:19:35.467Z</time></trkpt><trkpt lat="43.3335772" lon="12.4911948"><ele>636.0</ele><time>2026-05-01T10:19:36.467Z</time></trkpt><trkpt lat="43.3335748" lon="12.4910348"><ele>636.0</ele><time>2026-05-01T10:19:37.466Z</time></trkpt><trkpt lat="43.3335732" lon="12.4908776"><ele>636.0</ele><time>2026-05-01T10:19:38.466Z</time></trkpt><trkpt lat="43.3335674" lon="12.4907202"><ele>636.0</ele><time>2026-05-01T10:19:39.466Z</time></trkpt><trkpt lat="43.3335604" lon="12.4905798"><ele>636.0</ele><time>2026-05-01T10:19:40.466Z</time></trkpt><trkpt lat="43.3335825" lon="12.4904793"><ele>636.6</ele><time>2026-05-01T10:19:41.467Z</time></trkpt><trkpt lat="43.3336248" lon="12.4903751"><ele>637.2</ele><time>2026-05-01T10:19:42.467Z</time></trkpt><trkpt lat="43.3336831" lon="12.4902807"><ele>637.8</ele><time>2026-05-01T10:19:43.467Z</time></trkpt><trkpt lat="43.3337387" lon="12.4901526"><ele>638.4</ele><time>2026-05-01T10:19:44.467Z</time></trkpt><trkpt lat="43.3337909" lon="12.4900095"><ele>639.0</ele><time>2026-05-01T10:19:45.467Z</time></trkpt><trkpt lat="43.3338528" lon="12.4898629"><ele>642.75</ele><time>2026-05-01T10:19:46.467Z</time></trkpt><trkpt lat="43.3339163" lon="12.4897123"><ele>646.5</ele><time>2026-05-01T10:19:47.466Z</time></trkpt><trkpt lat="43.3339714" lon="12.4895628"><ele>650.25</ele><time>2026-05-01T10:19:48.467Z</time></trkpt><trkpt lat="43.3340105" lon="12.4894121"><ele>654.0</ele><time>2026-05-01T10:19:49.466Z</time></trkpt><trkpt lat="43.3340458" lon="12.489265"><ele>655.5</ele><time>2026-05-01T10:19:50.467Z</time></trkpt><trkpt lat="43.3340616" lon="12.4890935"><ele>657.0</ele><time>2026-05-01T10:19:51.466Z</time></trkpt><trkpt lat="43.3340669" lon="12.4889136"><ele>658.5</ele><time>2026-05-01T10:19:52.466Z</time></trkpt><trkpt lat="43.3340676" lon="12.4887323"><ele>660.0</ele><time>2026-05-01T10:19:53.467Z</time></trkpt><trkpt lat="43.3340928" lon="12.48854"><ele>659.5</ele><time>2026-05-01T10:19:54.466Z</time></trkpt><trkpt lat="43.3341147" lon="12.4883461"><ele>659.0</ele><time>2026-05-01T10:19:55.467Z</time></trkpt><trkpt lat="43.3341332" lon="12.4881828"><ele>658.5</ele><time>2026-05-01T10:19:56.466Z</time></trkpt><trkpt lat="43.33414" lon="12.4880333"><ele>658.0</ele><time>2026-05-01T10:19:57.466Z</time></trkpt><trkpt lat="43.3341516" lon="12.487925"><ele>658.0</ele><time>2026-05-01T10:19:58.466Z</time></trkpt><trkpt lat="43.3341774" lon="12.4878342"><ele>658.0</ele><time>2026-05-01T10:19:59.467Z</time></trkpt><trkpt lat="43.3342495" lon="12.4877168"><ele>658.0</ele><time>2026-05-01T10:20:01.466Z</time></trkpt><trkpt lat="43.3343514" lon="12.48765"><ele>658.0</ele><time>2026-05-01T10:20:03.467Z</time></trkpt><trkpt lat="43.3344168" lon="12.4876178"><ele>658.0</ele><time>2026-05-01T10:20:04.466Z</time></trkpt><trkpt lat="43.3344805" lon="12.4875813"><ele>658.0</ele><time>2026-05-01T10:20:05.467Z</time></trkpt><trkpt lat="43.3345445" lon="12.4875511"><ele>658.0</ele><time>2026-05-01T10:20:06.467Z</time></trkpt><trkpt lat="43.3345983" lon="12.4875038"><ele>658.0</ele><time>2026-05-01T10:20:07.467Z</time></trkpt><trkpt lat="43.3346489" lon="12.4874474"><ele>658.0</ele><time>2026-05-01T10:20:08.467Z</time></trkpt><trkpt lat="43.3347104" lon="12.4873931"><ele>658.0</ele><time>2026-05-01T10:20:09.467Z</time></trkpt><trkpt lat="43.334772" lon="12.4873421"><ele>658.0</ele><time>2026-05-01T10:20:10.467Z</time></trkpt><trkpt lat="43.3348404" lon="12.4873002"><ele>658.0</ele><time>2026-05-01T10:20:11.467Z</time></trkpt><trkpt lat="43.3349051" lon="12.4872668"><ele>658.0</ele><time>2026-05-01T10:20:12.466Z</time></trkpt><trkpt lat="43.3349751" lon="12.4872448"><ele>660.8</ele><time>2026-05-01T10:20:13.467Z</time></trkpt><trkpt lat="43.3350505" lon="12.4872278"><ele>663.5999999999999</ele><time>2026-05-01T10:20:14.467Z</time></trkpt><trkpt lat="43.3351289" lon="12.4872194"><ele>666.4000000000001</ele><time>2026-05-01T10:20:15.466Z</time></trkpt><trkpt lat="43.3352364" lon="12.4872274"><ele>669.2</ele><time>2026-05-01T10:20:16.467Z</time></trkpt><trkpt lat="43.3353534" lon="12.4872376"><ele>672.0</ele><time>2026-05-01T10:20:17.466Z</time></trkpt><trkpt lat="43.3354741" lon="12.4872389"><ele>671.4000000000001</ele><time>2026-05-01T10:20:18.466Z</time></trkpt><trkpt lat="43.3355831" lon="12.4872138"><ele>670.8000000000001</ele><time>2026-05-01T10:20:19.467Z</time></trkpt><trkpt lat="43.3356817" lon="12.487172"><ele>670.2</ele><time>2026-05-01T10:20:20.467Z</time></trkpt><trkpt lat="43.3357749" lon="12.487135"><ele>669.6</ele><time>2026-05-01T10:20:21.467Z</time></trkpt><trkpt lat="43.3358682" lon="12.4871059"><ele>669.0</ele><time>2026-05-01T10:20:22.466Z</time></trkpt><trkpt lat="43.3359559" lon="12.4870946"><ele>669.0</ele><time>2026-05-01T10:20:23.467Z</time></trkpt><trkpt lat="43.3360387" lon="12.4871086"><ele>669.0</ele><time>2026-05-01T10:20:24.467Z</time></trkpt><trkpt lat="43.3361252" lon="12.4871373"><ele>669.0</ele><time>2026-05-01T10:20:25.467Z</time></trkpt><trkpt lat="43.3362372" lon="12.4871634"><ele>669.0</ele><time>2026-05-01T10:20:26.467Z</time></trkpt><trkpt lat="43.3363449" lon="12.4871782"><ele>669.0</ele><time>2026-05-01T10:20:27.467Z</time></trkpt><trkpt lat="43.3364595" lon="12.4872064"><ele>668.5</ele><time>2026-05-01T10:20:28.466Z</time></trkpt><trkpt lat="43.3365821" lon="12.4872375"><ele>668.0</ele><time>2026-05-01T10:20:29.466Z</time></trkpt><trkpt lat="43.3367039" lon="12.4872454"><ele>667.5</ele><time>2026-05-01T10:20:30.467Z</time></trkpt><trkpt lat="43.3368227" lon="12.487227"><ele>667.0</ele><time>2026-05-01T10:20:31.467Z</time></trkpt><trkpt lat="43.3369277" lon="12.487167"><ele>667.8</ele><time>2026-05-01T10:20:32.467Z</time></trkpt><trkpt lat="43.3370212" lon="12.4870909"><ele>668.6</ele><time>2026-05-01T10:20:33.467Z</time></trkpt><trkpt lat="43.3371101" lon="12.4870133"><ele>669.4</ele><time>2026-05-01T10:20:34.467Z</time></trkpt><trkpt lat="43.3371947" lon="12.486934"><ele>670.1999999999999</ele><time>2026-05-01T10:20:35.467Z</time></trkpt><trkpt lat="43.3372687" lon="12.4868774"><ele>671.0</ele><time>2026-05-01T10:20:36.467Z</time></trkpt><trkpt lat="43.3373325" lon="12.4867978"><ele>671.0</ele><time>2026-05-01T10:20:37.467Z</time></trkpt><trkpt lat="43.3373848" lon="12.4866972"><ele>671.0</ele><time>2026-05-01T10:20:38.466Z</time></trkpt><trkpt lat="43.3374261" lon="12.4865906"><ele>671.0</ele><time>2026-05-01T10:20:39.467Z</time></trkpt><trkpt lat="43.3374665" lon="12.4864664"><ele>671.0</ele><time>2026-05-01T10:20:40.467Z</time></trkpt><trkpt lat="43.3375222" lon="12.4863671"><ele>671.0</ele><time>2026-05-01T10:20:41.467Z</time></trkpt><trkpt lat="43.337582" lon="12.4862869"><ele>671.0</ele><time>2026-05-01T10:20:42.467Z</time></trkpt><trkpt lat="43.3376616" lon="12.486219"><ele>671.0</ele><time>2026-05-01T10:20:43.467Z</time></trkpt><trkpt lat="43.3377646" lon="12.4861448"><ele>671.0</ele><time>2026-05-01T10:20:44.466Z</time></trkpt><trkpt lat="43.3378976" lon="12.4860912"><ele>671.0</ele><time>2026-05-01T10:20:45.466Z</time></trkpt><trkpt lat="43.3380237" lon="12.4860458"><ele>671.0</ele><time>2026-05-01T10:20:46.467Z</time></trkpt><trkpt lat="43.3381644" lon="12.485979"><ele>671.0</ele><time>2026-05-01T10:20:47.466Z</time></trkpt><trkpt lat="43.3383169" lon="12.4859132"><ele>671.0</ele><time>2026-05-01T10:20:48.467Z</time></trkpt><trkpt lat="43.3384586" lon="12.4858452"><ele>671.0</ele><time>2026-05-01T10:20:49.467Z</time></trkpt><trkpt lat="43.3385858" lon="12.4857807"><ele>671.0</ele><time>2026-05-01T10:20:50.466Z</time></trkpt><trkpt lat="43.338691" lon="12.4857163"><ele>671.0</ele><time>2026-05-01T10:20:51.467Z</time></trkpt><trkpt lat="43.3387746" lon="12.4856561"><ele>671.0</ele><time>2026-05-01T10:20:52.467Z</time></trkpt><trkpt lat="43.3388597" lon="12.4855763"><ele>671.0</ele><time>2026-05-01T10:20:53.467Z</time></trkpt><trkpt lat="43.338945" lon="12.4854741"><ele>670.5</ele><time>2026-05-01T10:20:54.467Z</time></trkpt><trkpt lat="43.3390397" lon="12.485363"><ele>670.0</ele><time>2026-05-01T10:20:55.467Z</time></trkpt><trkpt lat="43.3391328" lon="12.4852372"><ele>669.5</ele><time>2026-05-01T10:20:56.467Z</time></trkpt><trkpt lat="43.3392237" lon="12.4851237"><ele>669.0</ele><time>2026-05-01T10:20:57.467Z</time></trkpt><trkpt lat="43.3393141" lon="12.4850206"><ele>669.0</ele><time>2026-05-01T10:20:58.467Z</time></trkpt><trkpt lat="43.3393982" lon="12.4849246"><ele>669.0</ele><time>2026-05-01T10:20:59.467Z</time></trkpt><trkpt lat="43.3394839" lon="12.4848371"><ele>669.0</ele><time>2026-05-01T10:21:00.467Z</time></trkpt><trkpt lat="43.3395776" lon="12.4847838"><ele>669.0</ele><time>2026-05-01T10:21:01.467Z</time></trkpt><trkpt lat="43.3396821" lon="12.484752"><ele>669.0</ele><time>2026-05-01T10:21:02.467Z</time></trkpt><trkpt lat="43.3397966" lon="12.4847198"><ele>668.0</ele><time>2026-05-01T10:21:03.467Z</time></trkpt><trkpt lat="43.339905" lon="12.4846936"><ele>667.0</ele><time>2026-05-01T10:21:04.467Z</time></trkpt><trkpt lat="43.3400059" lon="12.4846945"><ele>666.0</ele><time>2026-05-01T10:21:05.467Z</time></trkpt><trkpt lat="43.3401089" lon="12.4847011"><ele>665.0</ele><time>2026-05-01T10:21:06.467Z</time></trkpt><trkpt lat="43.3402098" lon="12.4846997"><ele>664.0</ele><time>2026-05-01T10:21:07.467Z</time></trkpt><trkpt lat="43.340303" lon="12.4846805"><ele>664.0</ele><time>2026-05-01T10:21:08.467Z</time></trkpt><trkpt lat="43.3403912" lon="12.4846533"><ele>664.0</ele><time>2026-05-01T10:21:09.467Z</time></trkpt><trkpt lat="43.3404812" lon="12.4846167"><ele>664.0</ele><time>2026-05-01T10:21:10.467Z</time></trkpt><trkpt lat="43.3405631" lon="12.484586"><ele>664.0</ele><time>2026-05-01T10:21:11.467Z</time></trkpt><trkpt lat="43.340634" lon="12.484563"><ele>664.0</ele><time>2026-05-01T10:21:12.467Z</time></trkpt><trkpt lat="43.3406983" lon="12.4845345"><ele>664.0</ele><time>2026-05-01T10:21:13.467Z</time></trkpt><trkpt lat="43.3407623" lon="12.4845161"><ele>664.8000000000001</ele><time>2026-05-01T10:21:14.467Z</time></trkpt><trkpt lat="43.3408534" lon="12.4844916"><ele>665.6</ele><time>2026-05-01T10:21:16.466Z</time></trkpt><trkpt lat="43.3409447" lon="12.4844725"><ele>666.4</ele><time>2026-05-01T10:22:56.466Z</time></trkpt><trkpt lat="43.3410348" lon="12.4844201"><ele>667.2</ele><time>2026-05-01T10:22:58.467Z</time></trkpt><trkpt lat="43.34116" lon="12.4843502"><ele>668.0</ele><time>2026-05-01T10:23:00.467Z</time></trkpt><trkpt lat="43.3412434" lon="12.4843408"><ele>668.0</ele><time>2026-05-01T10:23:01.466Z</time></trkpt><trkpt lat="43.3413302" lon="12.4843244"><ele>668.0</ele><time>2026-05-01T10:23:02.467Z</time></trkpt><trkpt lat="43.3414205" lon="12.484315"><ele>668.0</ele><time>2026-05-01T10:23:03.467Z</time></trkpt><trkpt lat="43.3415159" lon="12.4843048"><ele>668.0</ele><time>2026-05-01T10:23:04.466Z</time></trkpt><trkpt lat="43.3416209" lon="12.4842885"><ele>668.0</ele><time>2026-05-01T10:23:05.467Z</time></trkpt><trkpt lat="43.3417303" lon="12.484251"><ele>669.2</ele><time>2026-05-01T10:23:06.467Z</time></trkpt><trkpt lat="43.3418376" lon="12.4841792"><ele>670.4</ele><time>2026-05-01T10:23:07.467Z</time></trkpt><trkpt lat="43.3419368" lon="12.4841051"><ele>671.6</ele><time>2026-05-01T10:23:08.467Z</time></trkpt><trkpt lat="43.3420083" lon="12.4840441"><ele>672.8000000000001</ele><time>2026-05-01T10:23:09.467Z</time></trkpt><trkpt lat="43.342064" lon="12.4839943"><ele>674.0</ele><time>2026-05-01T10:23:10.467Z</time></trkpt><trkpt lat="43.3421733" lon="12.4839058"><ele>675.0</ele><time>2026-05-01T10:23:12.467Z</time></trkpt><trkpt lat="43.342223" lon="12.4838526"><ele>676.0</ele><time>2026-05-01T10:23:13.466Z</time></trkpt><trkpt lat="43.3422755" lon="12.4837876"><ele>677.0</ele><time>2026-05-01T10:23:14.467Z</time></trkpt><trkpt lat="43.342324" lon="12.4836977"><ele>678.0</ele><time>2026-05-01T10:23:15.467Z</time></trkpt><trkpt lat="43.3423597" lon="12.4836153"><ele>679.0</ele><time>2026-05-01T10:23:16.467Z</time></trkpt><trkpt lat="43.3424046" lon="12.483485"><ele>680.0</ele><time>2026-05-01T10:23:18.467Z</time></trkpt><trkpt lat="43.342429" lon="12.4833767"><ele>679.6666666666666</ele><time>2026-05-01T10:23:20.467Z</time></trkpt><trkpt lat="43.3424517" lon="12.4832826"><ele>679.3333333333333</ele><time>2026-05-01T10:23:22.466Z</time></trkpt><trkpt lat="43.3424765" lon="12.4831826"><ele>679.0</ele><time>2026-05-01T10:23:24.467Z</time></trkpt><trkpt lat="43.3424665" lon="12.4830703"><ele>678.6666666666666</ele><time>2026-05-01T10:23:26.467Z</time></trkpt><trkpt lat="43.3424649" lon="12.4829628"><ele>678.3333333333334</ele><time>2026-05-01T10:23:28.467Z</time></trkpt><trkpt lat="43.3424761" lon="12.4828651"><ele>678.0</ele><time>2026-05-01T10:23:30.467Z</time></trkpt><trkpt lat="43.3425092" lon="12.4827683"><ele>678.0</ele><time>2026-05-01T10:23:33.467Z</time></trkpt><trkpt lat="43.3425985" lon="12.4826523"><ele>678.0</ele><time>2026-05-01T10:23:35.466Z</time></trkpt><trkpt lat="43.3427224" lon="12.4826373"><ele>678.0</ele><time>2026-05-01T10:23:37.467Z</time></trkpt><trkpt lat="43.3427912" lon="12.4826515"><ele>678.0</ele><time>2026-05-01T10:23:38.466Z</time></trkpt><trkpt lat="43.3428717" lon="12.4826732"><ele>678.0</ele><time>2026-05-01T10:23:39.467Z</time></trkpt><trkpt lat="43.342956" lon="12.4826945"><ele>678.0</ele><time>2026-05-01T10:23:40.466Z</time></trkpt><trkpt lat="43.3430457" lon="12.4827101"><ele>678.0</ele><time>2026-05-01T10:23:41.467Z</time></trkpt><trkpt lat="43.3431368" lon="12.4827203"><ele>678.0</ele><time>2026-05-01T10:23:42.466Z</time></trkpt><trkpt lat="43.3432194" lon="12.4827223"><ele>678.0</ele><time>2026-05-01T10:23:43.467Z</time></trkpt><trkpt lat="43.3432986" lon="12.482714"><ele>678.0</ele><time>2026-05-01T10:23:44.467Z</time></trkpt><trkpt lat="43.343378" lon="12.4827061"><ele>678.0</ele><time>2026-05-01T10:23:45.467Z</time></trkpt><trkpt lat="43.3434636" lon="12.4827275"><ele>676.0</ele><time>2026-05-01T10:23:46.467Z</time></trkpt><trkpt lat="43.3435514" lon="12.4827703"><ele>674.0</ele><time>2026-05-01T10:23:47.467Z</time></trkpt><trkpt lat="43.3436385" lon="12.4828086"><ele>672.0</ele><time>2026-05-01T10:23:48.467Z</time></trkpt><trkpt lat="43.3437257" lon="12.4828325"><ele>670.0</ele><time>2026-05-01T10:23:49.466Z</time></trkpt><trkpt lat="43.3438206" lon="12.4828432"><ele>668.0</ele><time>2026-05-01T10:23:50.467Z</time></trkpt><trkpt lat="43.3439156" lon="12.4828392"><ele>666.0</ele><time>2026-05-01T10:23:51.467Z</time></trkpt><trkpt lat="43.3440063" lon="12.4828147"><ele>664.0</ele><time>2026-05-01T10:23:52.467Z</time></trkpt><trkpt lat="43.3440884" lon="12.4827705"><ele>662.0</ele><time>2026-05-01T10:23:53.467Z</time></trkpt><trkpt lat="43.3441788" lon="12.4827117"><ele>660.0</ele><time>2026-05-01T10:23:54.467Z</time></trkpt><trkpt lat="43.3442712" lon="12.4826306"><ele>658.0</ele><time>2026-05-01T10:23:55.467Z</time></trkpt><trkpt lat="43.3443697" lon="12.4825501"><ele>658.0</ele><time>2026-05-01T10:23:56.466Z</time></trkpt><trkpt lat="43.3444638" lon="12.482475"><ele>658.0</ele><time>2026-05-01T10:23:57.467Z</time></trkpt><trkpt lat="43.3445527" lon="12.4823961"><ele>658.0</ele><time>2026-05-01T10:23:58.467Z</time></trkpt><trkpt lat="43.3446447" lon="12.4823316"><ele>658.0</ele><time>2026-05-01T10:23:59.467Z</time></trkpt><trkpt lat="43.3447385" lon="12.4822886"><ele>658.0</ele><time>2026-05-01T10:24:00.466Z</time></trkpt><trkpt lat="43.3448402" lon="12.4822522"><ele>657.4</ele><time>2026-05-01T10:24:01.467Z</time></trkpt><trkpt lat="43.3449398" lon="12.4822204"><ele>656.8</ele><time>2026-05-01T10:24:02.467Z</time></trkpt><trkpt lat="43.345033" lon="12.4821865"><ele>656.2</ele><time>2026-05-01T10:24:03.466Z</time></trkpt><trkpt lat="43.3451177" lon="12.4821547"><ele>655.6</ele><time>2026-05-01T10:24:04.467Z</time></trkpt><trkpt lat="43.3452041" lon="12.4821238"><ele>655.0</ele><time>2026-05-01T10:24:05.467Z</time></trkpt><trkpt lat="43.3452893" lon="12.4820795"><ele>655.0</ele><time>2026-05-01T10:24:06.467Z</time></trkpt><trkpt lat="43.3453689" lon="12.4820238"><ele>655.0</ele><time>2026-05-01T10:24:07.466Z</time></trkpt><trkpt lat="43.3454456" lon="12.4819479"><ele>655.0</ele><time>2026-05-01T10:24:08.467Z</time></trkpt><trkpt lat="43.3455147" lon="12.4818623"><ele>655.0</ele><time>2026-05-01T10:24:09.467Z</time></trkpt><trkpt lat="43.3455816" lon="12.4817586"><ele>655.0</ele><time>2026-05-01T10:24:10.467Z</time></trkpt><trkpt lat="43.3456489" lon="12.4816503"><ele>650.6</ele><time>2026-05-01T10:24:11.467Z</time></trkpt><trkpt lat="43.3457105" lon="12.481536"><ele>646.2</ele><time>2026-05-01T10:24:12.467Z</time></trkpt><trkpt lat="43.3457729" lon="12.4814297"><ele>641.8</ele><time>2026-05-01T10:24:13.466Z</time></trkpt><trkpt lat="43.3458347" lon="12.4813268"><ele>637.4</ele><time>2026-05-01T10:24:14.467Z</time></trkpt><trkpt lat="43.3458931" lon="12.4812198"><ele>633.0</ele><time>2026-05-01T10:24:15.467Z</time></trkpt><trkpt lat="43.3459446" lon="12.4810989"><ele>632.5</ele><time>2026-05-01T10:24:16.466Z</time></trkpt><trkpt lat="43.3459954" lon="12.4809647"><ele>632.0</ele><time>2026-05-01T10:24:17.467Z</time></trkpt><trkpt lat="43.346041" lon="12.4808127"><ele>631.5</ele><time>2026-05-01T10:24:18.467Z</time></trkpt><trkpt lat="43.3460941" lon="12.480618"><ele>631.0</ele><time>2026-05-01T10:24:19.466Z</time></trkpt><trkpt lat="43.3461408" lon="12.4804122"><ele>629.0</ele><time>2026-05-01T10:24:20.466Z</time></trkpt><trkpt lat="43.3461837" lon="12.4801882"><ele>627.0</ele><time>2026-05-01T10:24:21.466Z</time></trkpt><trkpt lat="43.346235" lon="12.4799623"><ele>625.0</ele><time>2026-05-01T10:24:22.467Z</time></trkpt><trkpt lat="43.3462865" lon="12.4797456"><ele>623.0</ele><time>2026-05-01T10:24:23.467Z</time></trkpt><trkpt lat="43.3463483" lon="12.4795193"><ele>621.0</ele><time>2026-05-01T10:24:24.466Z</time></trkpt><trkpt lat="43.3464066" lon="12.479297"><ele>619.0</ele><time>2026-05-01T10:24:25.466Z</time></trkpt><trkpt lat="43.3464645" lon="12.4790753"><ele>619.0</ele><time>2026-05-01T10:24:26.466Z</time></trkpt><trkpt lat="43.3465108" lon="12.4788671"><ele>619.0</ele><time>2026-05-01T10:24:27.467Z</time></trkpt><trkpt lat="43.3465377" lon="12.4786553"><ele>619.0</ele><time>2026-05-01T10:24:28.466Z</time></trkpt><trkpt lat="43.3465409" lon="12.4784558"><ele>621.25</ele><time>2026-05-01T10:24:29.467Z</time></trkpt><trkpt lat="43.3465359" lon="12.4782454"><ele>623.5</ele><time>2026-05-01T10:24:30.467Z</time></trkpt><trkpt lat="43.3465309" lon="12.4780553"><ele>625.75</ele><time>2026-05-01T10:24:31.467Z</time></trkpt><trkpt lat="43.3465411" lon="12.4778664"><ele>628.0</ele><time>2026-05-01T10:24:32.467Z</time></trkpt><trkpt lat="43.3465404" lon="12.4776681"><ele>627.25</ele><time>2026-05-01T10:24:33.466Z</time></trkpt><trkpt lat="43.3465418" lon="12.477464"><ele>626.5</ele><time>2026-05-01T10:24:34.467Z</time></trkpt><trkpt lat="43.3465439" lon="12.4772753"><ele>625.75</ele><time>2026-05-01T10:24:35.467Z</time></trkpt><trkpt lat="43.3465618" lon="12.4771183"><ele>625.0</ele><time>2026-05-01T10:24:36.467Z</time></trkpt><trkpt lat="43.3466111" lon="12.4770007"><ele>625.0</ele><time>2026-05-01T10:24:37.467Z</time></trkpt><trkpt lat="43.3466803" lon="12.4769248"><ele>625.0</ele><time>2026-05-01T10:24:38.467Z</time></trkpt><trkpt lat="43.3467788" lon="12.476842"><ele>625.0</ele><time>2026-05-01T10:24:39.467Z</time></trkpt><trkpt lat="43.3468834" lon="12.4767614"><ele>625.0</ele><time>2026-05-01T10:24:40.467Z</time></trkpt><trkpt lat="43.3469792" lon="12.4766819"><ele>625.0</ele><time>2026-05-01T10:24:41.467Z</time></trkpt><trkpt lat="43.3470765" lon="12.4766097"><ele>625.0</ele><time>2026-05-01T10:24:42.467Z</time></trkpt><trkpt lat="43.3471723" lon="12.47654"><ele>625.0</ele><time>2026-05-01T10:24:43.467Z</time></trkpt><trkpt lat="43.3472689" lon="12.4764722"><ele>625.0</ele><time>2026-05-01T10:24:44.467Z</time></trkpt><trkpt lat="43.3473565" lon="12.4764026"><ele>625.0</ele><time>2026-05-01T10:24:45.467Z</time></trkpt><trkpt lat="43.3474405" lon="12.4763405"><ele>625.0</ele><time>2026-05-01T10:24:46.467Z</time></trkpt><trkpt lat="43.347516" lon="12.4762816"><ele>624.2</ele><time>2026-05-01T10:24:47.467Z</time></trkpt><trkpt lat="43.3475813" lon="12.476228"><ele>623.4</ele><time>2026-05-01T10:24:48.467Z</time></trkpt><trkpt lat="43.3476771" lon="12.4761372"><ele>622.6</ele><time>2026-05-01T10:24:50.467Z</time></trkpt><trkpt lat="43.3477653" lon="12.4760429"><ele>621.8</ele><time>2026-05-01T10:24:52.466Z</time></trkpt><trkpt lat="43.3478272" lon="12.4759791"><ele>621.0</ele><time>2026-05-01T10:24:53.466Z</time></trkpt><trkpt lat="43.3478994" lon="12.4759144"><ele>621.0</ele><time>2026-05-01T10:24:54.467Z</time></trkpt><trkpt lat="43.3479788" lon="12.4758362"><ele>621.0</ele><time>2026-05-01T10:24:55.467Z</time></trkpt><trkpt lat="43.3480812" lon="12.4757409"><ele>621.0</ele><time>2026-05-01T10:24:56.467Z</time></trkpt><trkpt lat="43.3481811" lon="12.4756609"><ele>621.0</ele><time>2026-05-01T10:24:57.467Z</time></trkpt><trkpt lat="43.3482858" lon="12.4755848"><ele>623.0</ele><time>2026-05-01T10:24:58.467Z</time></trkpt><trkpt lat="43.3483852" lon="12.4755198"><ele>625.0</ele><time>2026-05-01T10:24:59.467Z</time></trkpt><trkpt lat="43.3484819" lon="12.4754741"><ele>627.0</ele><time>2026-05-01T10:25:00.467Z</time></trkpt><trkpt lat="43.3485781" lon="12.4754512"><ele>629.0</ele><time>2026-05-01T10:25:01.467Z</time></trkpt><trkpt lat="43.3486723" lon="12.4754583"><ele>631.0</ele><time>2026-05-01T10:25:02.467Z</time></trkpt><trkpt lat="43.3487757" lon="12.4755006"><ele>632.25</ele><time>2026-05-01T10:25:03.467Z</time></trkpt><trkpt lat="43.3488871" lon="12.4755682"><ele>633.5</ele><time>2026-05-01T10:25:04.467Z</time></trkpt><trkpt lat="43.3489975" lon="12.4756632"><ele>634.75</ele><time>2026-05-01T10:25:05.467Z</time></trkpt><trkpt lat="43.3491091" lon="12.4757555"><ele>636.0</ele><time>2026-05-01T10:25:06.467Z</time></trkpt><trkpt lat="43.3492326" lon="12.4758193"><ele>636.0</ele><time>2026-05-01T10:25:07.467Z</time></trkpt><trkpt lat="43.3493472" lon="12.4758497"><ele>636.0</ele><time>2026-05-01T10:25:08.466Z</time></trkpt><trkpt lat="43.34946" lon="12.4758488"><ele>636.0</ele><time>2026-05-01T10:25:09.467Z</time></trkpt><trkpt lat="43.349573" lon="12.4758101"><ele>636.0</ele><time>2026-05-01T10:25:10.467Z</time></trkpt><trkpt lat="43.3496955" lon="12.4757392"><ele>636.6</ele><time>2026-05-01T10:25:11.466Z</time></trkpt><trkpt lat="43.3498078" lon="12.4756554"><ele>637.2</ele><time>2026-05-01T10:25:12.466Z</time></trkpt><trkpt lat="43.3499067" lon="12.4756058"><ele>637.8</ele><time>2026-05-01T10:25:13.467Z</time></trkpt><trkpt lat="43.3499907" lon="12.4755903"><ele>638.4</ele><time>2026-05-01T10:25:14.466Z</time></trkpt><trkpt lat="43.3500931" lon="12.4756138"><ele>639.0</ele><time>2026-05-01T10:25:15.467Z</time></trkpt><trkpt lat="43.350207" lon="12.4756676"><ele>639.0</ele><time>2026-05-01T10:25:16.467Z</time></trkpt><trkpt lat="43.350311" lon="12.4757113"><ele>639.0</ele><time>2026-05-01T10:25:17.466Z</time></trkpt><trkpt lat="43.350398" lon="12.4757504"><ele>639.0</ele><time>2026-05-01T10:25:18.467Z</time></trkpt><trkpt lat="43.35048" lon="12.4757749"><ele>639.0</ele><time>2026-05-01T10:25:19.467Z</time></trkpt><trkpt lat="43.3505556" lon="12.4757887"><ele>639.0</ele><time>2026-05-01T10:25:20.466Z</time></trkpt><trkpt lat="43.3506358" lon="12.4757713"><ele>639.0</ele><time>2026-05-01T10:25:21.467Z</time></trkpt><trkpt lat="43.3507192" lon="12.4757217"><ele>636.5</ele><time>2026-05-01T10:25:22.467Z</time></trkpt><trkpt lat="43.3508005" lon="12.4756317"><ele>634.0</ele><time>2026-05-01T10:25:23.467Z</time></trkpt><trkpt lat="43.3508833" lon="12.4754967"><ele>631.5</ele><time>2026-05-01T10:25:24.467Z</time></trkpt><trkpt lat="43.3509662" lon="12.4753414"><ele>629.0</ele><time>2026-05-01T10:25:25.467Z</time></trkpt><trkpt lat="43.3510559" lon="12.4751869"><ele>628.75</ele><time>2026-05-01T10:25:26.467Z</time></trkpt><trkpt lat="43.3511589" lon="12.4750436"><ele>628.5</ele><time>2026-05-01T10:25:27.467Z</time></trkpt><trkpt lat="43.3512673" lon="12.4749172"><ele>628.25</ele><time>2026-05-01T10:25:28.467Z</time></trkpt><trkpt lat="43.3513778" lon="12.4748266"><ele>628.0</ele><time>2026-05-01T10:25:29.467Z</time></trkpt><trkpt lat="43.3514894" lon="12.4747404"><ele>627.75</ele><time>2026-05-01T10:25:30.467Z</time></trkpt><trkpt lat="43.3516002" lon="12.4746621"><ele>627.5</ele><time>2026-05-01T10:25:31.467Z</time></trkpt><trkpt lat="43.3517075" lon="12.4745901"><ele>627.25</ele><time>2026-05-01T10:25:32.467Z</time></trkpt><trkpt lat="43.3518192" lon="12.4745087"><ele>627.0</ele><time>2026-05-01T10:25:33.467Z</time></trkpt><trkpt lat="43.3519421" lon="12.4744262"><ele>627.0</ele><time>2026-05-01T10:25:34.467Z</time></trkpt><trkpt lat="43.3520646" lon="12.4743464"><ele>627.0</ele><time>2026-05-01T10:25:35.467Z</time></trkpt><trkpt lat="43.3521899" lon="12.474257"><ele>627.0</ele><time>2026-05-01T10:25:36.466Z</time></trkpt><trkpt lat="43.3523158" lon="12.4741483"><ele>627.0</ele><time>2026-05-01T10:25:37.467Z</time></trkpt><trkpt lat="43.3524534" lon="12.4740399"><ele>624.6666666666666</ele><time>2026-05-01T10:25:38.466Z</time></trkpt><trkpt lat="43.3525879" lon="12.4739328"><ele>622.3333333333333</ele><time>2026-05-01T10:25:39.466Z</time></trkpt><trkpt lat="43.3527253" lon="12.4738209"><ele>620.0</ele><time>2026-05-01T10:25:40.467Z</time></trkpt><trkpt lat="43.352858" lon="12.4737131"><ele>618.5</ele><time>2026-05-01T10:25:41.467Z</time></trkpt><trkpt lat="43.3529869" lon="12.4736167"><ele>617.0</ele><time>2026-05-01T10:25:42.467Z</time></trkpt><trkpt lat="43.3531126" lon="12.4735155"><ele>615.5</ele><time>2026-05-01T10:25:43.467Z</time></trkpt><trkpt lat="43.3532349" lon="12.4734225"><ele>614.0</ele><time>2026-05-01T10:25:44.466Z</time></trkpt><trkpt lat="43.3533646" lon="12.4733292"><ele>614.0</ele><time>2026-05-01T10:25:45.466Z</time></trkpt><trkpt lat="43.3534969" lon="12.473252"><ele>614.0</ele><time>2026-05-01T10:25:46.467Z</time></trkpt><trkpt lat="43.3536376" lon="12.473189"><ele>614.0</ele><time>2026-05-01T10:25:47.467Z</time></trkpt><trkpt lat="43.3537823" lon="12.4731558"><ele>614.0</ele><time>2026-05-01T10:25:48.467Z</time></trkpt><trkpt lat="43.353925" lon="12.4731351"><ele>616.25</ele><time>2026-05-01T10:25:49.467Z</time></trkpt><trkpt lat="43.3540452" lon="12.4730992"><ele>618.5</ele><time>2026-05-01T10:25:50.467Z</time></trkpt><trkpt lat="43.3541545" lon="12.4730793"><ele>620.75</ele><time>2026-05-01T10:25:51.467Z</time></trkpt><trkpt lat="43.3542626" lon="12.4730537"><ele>623.0</ele><time>2026-05-01T10:25:52.467Z</time></trkpt><trkpt lat="43.3543752" lon="12.4730622"><ele>623.0</ele><time>2026-05-01T10:25:53.467Z</time></trkpt><trkpt lat="43.3544933" lon="12.4730885"><ele>623.0</ele><time>2026-05-01T10:25:54.467Z</time></trkpt><trkpt lat="43.354605" lon="12.4731131"><ele>623.0</ele><time>2026-05-01T10:25:55.467Z</time></trkpt><trkpt lat="43.3547215" lon="12.4731306"><ele>623.0</ele><time>2026-05-01T10:25:56.467Z</time></trkpt><trkpt lat="43.3548341" lon="12.4731259"><ele>625.75</ele><time>2026-05-01T10:25:57.467Z</time></trkpt><trkpt lat="43.3549509" lon="12.4731038"><ele>628.5</ele><time>2026-05-01T10:25:58.467Z</time></trkpt><trkpt lat="43.3550676" lon="12.47307"><ele>631.25</ele><time>2026-05-01T10:25:59.467Z</time></trkpt><trkpt lat="43.35518" lon="12.4730281"><ele>634.0</ele><time>2026-05-01T10:26:00.467Z</time></trkpt><trkpt lat="43.3552944" lon="12.4729877"><ele>637.75</ele><time>2026-05-01T10:26:01.467Z</time></trkpt><trkpt lat="43.3554114" lon="12.4729315"><ele>641.5</ele><time>2026-05-01T10:26:02.467Z</time></trkpt><trkpt lat="43.3555397" lon="12.4728736"><ele>645.25</ele><time>2026-05-01T10:26:03.467Z</time></trkpt><trkpt lat="43.3556694" lon="12.4728237"><ele>649.0</ele><time>2026-05-01T10:26:04.467Z</time></trkpt><trkpt lat="43.3557963" lon="12.4727845"><ele>648.25</ele><time>2026-05-01T10:26:05.467Z</time></trkpt><trkpt lat="43.3559122" lon="12.4727825"><ele>647.5</ele><time>2026-05-01T10:26:06.467Z</time></trkpt><trkpt lat="43.3560233" lon="12.4728262"><ele>646.75</ele><time>2026-05-01T10:26:07.467Z</time></trkpt><trkpt lat="43.3561431" lon="12.4728889"><ele>646.0</ele><time>2026-05-01T10:26:08.466Z</time></trkpt><trkpt lat="43.3562653" lon="12.4729642"><ele>648.25</ele><time>2026-05-01T10:26:09.466Z</time></trkpt><trkpt lat="43.3563901" lon="12.473032"><ele>650.5</ele><time>2026-05-01T10:26:10.467Z</time></trkpt><trkpt lat="43.3565244" lon="12.4731044"><ele>652.75</ele><time>2026-05-01T10:26:11.466Z</time></trkpt><trkpt lat="43.3566607" lon="12.4731848"><ele>655.0</ele><time>2026-05-01T10:26:12.467Z</time></trkpt><trkpt lat="43.3567936" lon="12.4732639"><ele>655.0</ele><time>2026-05-01T10:26:13.467Z</time></trkpt><trkpt lat="43.3569246" lon="12.4733454"><ele>655.0</ele><time>2026-05-01T10:26:14.467Z</time></trkpt><trkpt lat="43.3570554" lon="12.4734253"><ele>655.0</ele><time>2026-05-01T10:26:15.467Z</time></trkpt><trkpt lat="43.3571932" lon="12.4734979"><ele>655.0</ele><time>2026-05-01T10:26:16.467Z</time></trkpt><trkpt lat="43.3573301" lon="12.4735637"><ele>656.25</ele><time>2026-05-01T10:26:17.467Z</time></trkpt><trkpt lat="43.3574672" lon="12.4736238"><ele>657.5</ele><time>2026-05-01T10:26:18.467Z</time></trkpt><trkpt lat="43.3575986" lon="12.4736585"><ele>658.75</ele><time>2026-05-01T10:26:19.467Z</time></trkpt><trkpt lat="43.3577427" lon="12.4736786"><ele>660.0</ele><time>2026-05-01T10:26:20.467Z</time></trkpt><trkpt lat="43.357897" lon="12.4736842"><ele>659.0</ele><time>2026-05-01T10:26:21.467Z</time></trkpt><trkpt lat="43.3580548" lon="12.4736841"><ele>658.0</ele><time>2026-05-01T10:26:22.467Z</time></trkpt><trkpt lat="43.3582155" lon="12.4736824"><ele>657.0</ele><time>2026-05-01T10:26:23.467Z</time></trkpt><trkpt lat="43.358368" lon="12.4736874"><ele>657.0</ele><time>2026-05-01T10:26:24.467Z</time></trkpt><trkpt lat="43.3585127" lon="12.4736824"><ele>657.0</ele><time>2026-05-01T10:26:25.467Z</time></trkpt><trkpt lat="43.3586491" lon="12.473682"><ele>657.0</ele><time>2026-05-01T10:26:26.467Z</time></trkpt><trkpt lat="43.3587829" lon="12.4736786"><ele>657.0</ele><time>2026-05-01T10:26:27.467Z</time></trkpt><trkpt lat="43.358912" lon="12.4736705"><ele>655.25</ele><time>2026-05-01T10:26:28.467Z</time></trkpt><trkpt lat="43.3590402" lon="12.4736715"><ele>653.5</ele><time>2026-05-01T10:26:29.467Z</time></trkpt><trkpt lat="43.359164" lon="12.4736668"><ele>651.75</ele><time>2026-05-01T10:26:30.466Z</time></trkpt><trkpt lat="43.359292" lon="12.4736548"><ele>650.0</ele><time>2026-05-01T10:26:31.467Z</time></trkpt><trkpt lat="43.3594203" lon="12.4736433"><ele>650.0</ele><time>2026-05-01T10:26:32.467Z</time></trkpt><trkpt lat="43.3595415" lon="12.4736441"><ele>650.0</ele><time>2026-05-01T10:26:33.467Z</time></trkpt><trkpt lat="43.3596488" lon="12.473673"><ele>650.0</ele><time>2026-05-01T10:26:34.466Z</time></trkpt><trkpt lat="43.3597327" lon="12.4737418"><ele>650.0</ele><time>2026-05-01T10:26:35.466Z</time></trkpt><trkpt lat="43.3597814" lon="12.4738373"><ele>650.0</ele><time>2026-05-01T10:26:36.466Z</time></trkpt><trkpt lat="43.3598048" lon="12.4739406"><ele>649.2</ele><time>2026-05-01T10:26:37.467Z</time></trkpt><trkpt lat="43.3598093" lon="12.4740639"><ele>648.4</ele><time>2026-05-01T10:26:38.467Z</time></trkpt><trkpt lat="43.3598208" lon="12.474195"><ele>647.5999999999999</ele><time>2026-05-01T10:26:39.467Z</time></trkpt><trkpt lat="43.3598462" lon="12.4743293"><ele>646.8</ele><time>2026-05-01T10:26:40.467Z</time></trkpt><trkpt lat="43.3598792" lon="12.474462"><ele>646.0</ele><time>2026-05-01T10:26:41.467Z</time></trkpt><trkpt lat="43.3599127" lon="12.4746069"><ele>643.75</ele><time>2026-05-01T10:26:42.467Z</time></trkpt><trkpt lat="43.3599414" lon="12.4747644"><ele>641.5</ele><time>2026-05-01T10:26:43.466Z</time></trkpt><trkpt lat="43.3599736" lon="12.4749156"><ele>639.25</ele><time>2026-05-01T10:26:44.466Z</time></trkpt><trkpt lat="43.3600271" lon="12.4750638"><ele>637.0</ele><time>2026-05-01T10:26:45.467Z</time></trkpt><trkpt lat="43.3601048" lon="12.4752081"><ele>637.0</ele><time>2026-05-01T10:26:46.467Z</time></trkpt><trkpt lat="43.3601829" lon="12.4753512"><ele>637.0</ele><time>2026-05-01T10:26:47.466Z</time></trkpt><trkpt lat="43.3602581" lon="12.4754865"><ele>637.0</ele><time>2026-05-01T10:26:48.467Z</time></trkpt><trkpt lat="43.3603146" lon="12.4756541"><ele>637.0</ele><time>2026-05-01T10:26:49.467Z</time></trkpt><trkpt lat="43.360365" lon="12.4757981"><ele>636.6</ele><time>2026-05-01T10:26:50.467Z</time></trkpt><trkpt lat="43.3604146" lon="12.4759371"><ele>636.2</ele><time>2026-05-01T10:26:51.467Z</time></trkpt><trkpt lat="43.3604628" lon="12.4760741"><ele>635.8</ele><time>2026-05-01T10:26:52.466Z</time></trkpt><trkpt lat="43.3605352" lon="12.4761706"><ele>635.4</ele><time>2026-05-01T10:26:53.466Z</time></trkpt><trkpt lat="43.3606551" lon="12.4762197"><ele>635.0</ele><time>2026-05-01T10:26:54.467Z</time></trkpt><trkpt lat="43.3607676" lon="12.4762812"><ele>632.5</ele><time>2026-05-01T10:26:55.467Z</time></trkpt><trkpt lat="43.3608814" lon="12.4763604"><ele>630.0</ele><time>2026-05-01T10:26:56.467Z</time></trkpt><trkpt lat="43.3609928" lon="12.476448"><ele>627.5</ele><time>2026-05-01T10:26:57.467Z</time></trkpt><trkpt lat="43.3611076" lon="12.4765481"><ele>625.0</ele><time>2026-05-01T10:26:58.467Z</time></trkpt><trkpt lat="43.3612072" lon="12.4766503"><ele>625.0</ele><time>2026-05-01T10:26:59.467Z</time></trkpt><trkpt lat="43.3613013" lon="12.4767443"><ele>625.0</ele><time>2026-05-01T10:27:00.466Z</time></trkpt><trkpt lat="43.3613901" lon="12.4768358"><ele>625.0</ele><time>2026-05-01T10:27:01.467Z</time></trkpt><trkpt lat="43.3614706" lon="12.4769261"><ele>625.0</ele><time>2026-05-01T10:27:02.467Z</time></trkpt><trkpt lat="43.3615744" lon="12.476989"><ele>625.0</ele><time>2026-05-01T10:27:03.466Z</time></trkpt><trkpt lat="43.3616911" lon="12.4770453"><ele>622.75</ele><time>2026-05-01T10:27:04.467Z</time></trkpt><trkpt lat="43.3618212" lon="12.4770929"><ele>620.5</ele><time>2026-05-01T10:27:05.467Z</time></trkpt><trkpt lat="43.3619479" lon="12.4771367"><ele>618.25</ele><time>2026-05-01T10:27:06.467Z</time></trkpt><trkpt lat="43.3620695" lon="12.4772"><ele>616.0</ele><time>2026-05-01T10:27:07.466Z</time></trkpt><trkpt lat="43.362196" lon="12.4772596"><ele>614.0</ele><time>2026-05-01T10:27:08.466Z</time></trkpt><trkpt lat="43.3623324" lon="12.4773237"><ele>612.0</ele><time>2026-05-01T10:27:09.466Z</time></trkpt><trkpt lat="43.3624737" lon="12.4774054"><ele>610.0</ele><time>2026-05-01T10:27:10.467Z</time></trkpt><trkpt lat="43.362609" lon="12.4774895"><ele>608.0</ele><time>2026-05-01T10:27:11.467Z</time></trkpt><trkpt lat="43.3627334" lon="12.4775627"><ele>608.0</ele><time>2026-05-01T10:27:12.467Z</time></trkpt><trkpt lat="43.3628466" lon="12.4776325"><ele>608.0</ele><time>2026-05-01T10:27:13.466Z</time></trkpt><trkpt lat="43.3629539" lon="12.4776975"><ele>608.0</ele><time>2026-05-01T10:27:14.467Z</time></trkpt><trkpt lat="43.3630559" lon="12.4777622"><ele>608.0</ele><time>2026-05-01T10:27:15.467Z</time></trkpt><trkpt lat="43.363159" lon="12.4778248"><ele>605.75</ele><time>2026-05-01T10:27:16.467Z</time></trkpt><trkpt lat="43.3632744" lon="12.4778854"><ele>603.5</ele><time>2026-05-01T10:27:17.467Z</time></trkpt><trkpt lat="43.3633858" lon="12.4779538"><ele>601.25</ele><time>2026-05-01T10:27:18.467Z</time></trkpt><trkpt lat="43.3634935" lon="12.47802"><ele>599.0</ele><time>2026-05-01T10:27:19.467Z</time></trkpt><trkpt lat="43.363593" lon="12.4780874"><ele>598.75</ele><time>2026-05-01T10:27:20.467Z</time></trkpt><trkpt lat="43.3636893" lon="12.4781512"><ele>598.5</ele><time>2026-05-01T10:27:21.467Z</time></trkpt><trkpt lat="43.3637833" lon="12.4782282"><ele>598.25</ele><time>2026-05-01T10:27:22.466Z</time></trkpt><trkpt lat="43.3638723" lon="12.4783229"><ele>598.0</ele><time>2026-05-01T10:27:23.467Z</time></trkpt><trkpt lat="43.363945" lon="12.4784593"><ele>598.0</ele><time>2026-05-01T10:27:24.467Z</time></trkpt><trkpt lat="43.3639959" lon="12.478599"><ele>598.0</ele><time>2026-05-01T10:27:25.466Z</time></trkpt><trkpt lat="43.3640341" lon="12.4787296"><ele>598.0</ele><time>2026-05-01T10:27:26.467Z</time></trkpt><trkpt lat="43.3640772" lon="12.4788505"><ele>598.0</ele><time>2026-05-01T10:27:27.466Z</time></trkpt><trkpt lat="43.3641195" lon="12.47898"><ele>598.0</ele><time>2026-05-01T10:27:28.467Z</time></trkpt><trkpt lat="43.364141" lon="12.4791117"><ele>598.0</ele><time>2026-05-01T10:27:29.467Z</time></trkpt><trkpt lat="43.3641204" lon="12.4792489"><ele>598.0</ele><time>2026-05-01T10:27:30.467Z</time></trkpt><trkpt lat="43.3640399" lon="12.4793926"><ele>598.0</ele><time>2026-05-01T10:27:31.467Z</time></trkpt><trkpt lat="43.3639574" lon="12.4795156"><ele>598.0</ele><time>2026-05-01T10:27:32.467Z</time></trkpt><trkpt lat="43.3638859" lon="12.4796377"><ele>596.6</ele><time>2026-05-01T10:27:33.466Z</time></trkpt><trkpt lat="43.3638175" lon="12.4797633"><ele>595.1999999999999</ele><time>2026-05-01T10:27:34.466Z</time></trkpt><trkpt lat="43.36375" lon="12.4798834"><ele>593.8</ele><time>2026-05-01T10:27:35.467Z</time></trkpt><trkpt lat="43.3636781" lon="12.4799865"><ele>592.4</ele><time>2026-05-01T10:27:36.467Z</time></trkpt><trkpt lat="43.363597" lon="12.4800649"><ele>591.0</ele><time>2026-05-01T10:27:37.467Z</time></trkpt><trkpt lat="43.3635052" lon="12.4801288"><ele>591.0</ele><time>2026-05-01T10:27:38.466Z</time></trkpt><trkpt lat="43.3634088" lon="12.4801838"><ele>591.0</ele><time>2026-05-01T10:27:39.467Z</time></trkpt><trkpt lat="43.3633128" lon="12.4802421"><ele>591.0</ele><time>2026-05-01T10:27:40.467Z</time></trkpt><trkpt lat="43.3632211" lon="12.4802986"><ele>591.0</ele><time>2026-05-01T10:27:41.466Z</time></trkpt><trkpt lat="43.3631351" lon="12.4803577"><ele>591.0</ele><time>2026-05-01T10:27:42.467Z</time></trkpt><trkpt lat="43.3630544" lon="12.4804222"><ele>589.5</ele><time>2026-05-01T10:27:43.467Z</time></trkpt><trkpt lat="43.3629786" lon="12.4804823"><ele>588.0</ele><time>2026-05-01T10:27:44.467Z</time></trkpt><trkpt lat="43.3629148" lon="12.4805496"><ele>586.5</ele><time>2026-05-01T10:27:45.467Z</time></trkpt><trkpt lat="43.3628679" lon="12.4806219"><ele>585.0</ele><time>2026-05-01T10:27:46.467Z</time></trkpt><trkpt lat="43.362817" lon="12.4806993"><ele>583.5</ele><time>2026-05-01T10:27:47.467Z</time></trkpt><trkpt lat="43.3627619" lon="12.4807697"><ele>582.0</ele><time>2026-05-01T10:27:48.467Z</time></trkpt><trkpt lat="43.3627" lon="12.4808086"><ele>582.0</ele><time>2026-05-01T10:27:49.467Z</time></trkpt><trkpt lat="43.362629" lon="12.4808294"><ele>582.0</ele><time>2026-05-01T10:27:50.467Z</time></trkpt><trkpt lat="43.3625391" lon="12.4808407"><ele>582.0</ele><time>2026-05-01T10:27:51.467Z</time></trkpt><trkpt lat="43.362443" lon="12.4808449"><ele>582.0</ele><time>2026-05-01T10:27:52.466Z</time></trkpt><trkpt lat="43.3623431" lon="12.4808437"><ele>582.0</ele><time>2026-05-01T10:27:53.466Z</time></trkpt><trkpt lat="43.3622413" lon="12.4808339"><ele>581.6666666666666</ele><time>2026-05-01T10:27:54.466Z</time></trkpt><trkpt lat="43.3621408" lon="12.4808236"><ele>581.3333333333334</ele><time>2026-05-01T10:27:55.467Z</time></trkpt><trkpt lat="43.3620462" lon="12.4808066"><ele>581.0</ele><time>2026-05-01T10:27:56.467Z</time></trkpt><trkpt lat="43.3619634" lon="12.4807935"><ele>580.6666666666667</ele><time>2026-05-01T10:27:57.467Z</time></trkpt><trkpt lat="43.3618928" lon="12.4807926"><ele>580.3333333333334</ele><time>2026-05-01T10:27:58.467Z</time></trkpt><trkpt lat="43.3618218" lon="12.480823"><ele>580.0</ele><time>2026-05-01T10:27:59.467Z</time></trkpt><trkpt lat="43.3617682" lon="12.4808907"><ele>580.0</ele><time>2026-05-01T10:28:00.466Z</time></trkpt><trkpt lat="43.3617304" lon="12.4809761"><ele>580.0</ele><time>2026-05-01T10:28:01.467Z</time></trkpt><trkpt lat="43.3617122" lon="12.4810721"><ele>580.0</ele><time>2026-05-01T10:28:02.466Z</time></trkpt><trkpt lat="43.3617119" lon="12.4811933"><ele>580.0</ele><time>2026-05-01T10:28:03.467Z</time></trkpt><trkpt lat="43.3617095" lon="12.481316"><ele>580.0</ele><time>2026-05-01T10:28:04.467Z</time></trkpt><trkpt lat="43.3617085" lon="12.4814435"><ele>580.0</ele><time>2026-05-01T10:28:05.466Z</time></trkpt><trkpt lat="43.3617044" lon="12.4815639"><ele>580.1666666666667</ele><time>2026-05-01T10:28:06.467Z</time></trkpt><trkpt lat="43.3617004" lon="12.4816749"><ele>580.3333333333334</ele><time>2026-05-01T10:28:07.467Z</time></trkpt><trkpt lat="43.3616929" lon="12.4817838"><ele>580.5</ele><time>2026-05-01T10:28:08.467Z</time></trkpt><trkpt lat="43.3616833" lon="12.4818898"><ele>580.6666666666666</ele><time>2026-05-01T10:28:09.467Z</time></trkpt><trkpt lat="43.3616744" lon="12.4819901"><ele>580.8333333333333</ele><time>2026-05-01T10:28:10.467Z</time></trkpt><trkpt lat="43.3616651" lon="12.4820937"><ele>581.0</ele><time>2026-05-01T10:28:11.467Z</time></trkpt><trkpt lat="43.3616585" lon="12.4822074"><ele>579.6</ele><time>2026-05-01T10:28:12.467Z</time></trkpt><trkpt lat="43.3616488" lon="12.4823337"><ele>578.2</ele><time>2026-05-01T10:28:13.467Z</time></trkpt><trkpt lat="43.3616347" lon="12.4824682"><ele>576.8</ele><time>2026-05-01T10:28:14.467Z</time></trkpt><trkpt lat="43.3616108" lon="12.4826201"><ele>575.4</ele><time>2026-05-01T10:28:15.467Z</time></trkpt><trkpt lat="43.3615893" lon="12.4827684"><ele>574.0</ele><time>2026-05-01T10:28:16.467Z</time></trkpt><trkpt lat="43.3615616" lon="12.4829264"><ele>571.25</ele><time>2026-05-01T10:28:17.467Z</time></trkpt><trkpt lat="43.3615182" lon="12.4830852"><ele>568.5</ele><time>2026-05-01T10:28:18.467Z</time></trkpt><trkpt lat="43.3614686" lon="12.4832403"><ele>565.75</ele><time>2026-05-01T10:28:19.466Z</time></trkpt><trkpt lat="43.3614174" lon="12.4833903"><ele>563.0</ele><time>2026-05-01T10:28:20.466Z</time></trkpt><trkpt lat="43.3613733" lon="12.483553"><ele>563.0</ele><time>2026-05-01T10:28:21.466Z</time></trkpt><trkpt lat="43.3613266" lon="12.4837114"><ele>563.0</ele><time>2026-05-01T10:28:22.466Z</time></trkpt><trkpt lat="43.3612832" lon="12.4838689"><ele>563.0</ele><time>2026-05-01T10:28:23.467Z</time></trkpt><trkpt lat="43.3612371" lon="12.4840215"><ele>563.0</ele><time>2026-05-01T10:28:24.467Z</time></trkpt><trkpt lat="43.3611906" lon="12.4841878"><ele>563.0</ele><time>2026-05-01T10:28:25.467Z</time></trkpt><trkpt lat="43.3611564" lon="12.4843728"><ele>563.0</ele><time>2026-05-01T10:28:26.467Z</time></trkpt><trkpt lat="43.3611396" lon="12.4845765"><ele>563.0</ele><time>2026-05-01T10:28:27.466Z</time></trkpt><trkpt lat="43.3611489" lon="12.4847831"><ele>563.0</ele><time>2026-05-01T10:28:28.467Z</time></trkpt><trkpt lat="43.3611748" lon="12.4849874"><ele>559.75</ele><time>2026-05-01T10:28:29.467Z</time></trkpt><trkpt lat="43.361197" lon="12.4851956"><ele>556.5</ele><time>2026-05-01T10:28:30.467Z</time></trkpt><trkpt lat="43.3612029" lon="12.4854024"><ele>553.25</ele><time>2026-05-01T10:28:31.467Z</time></trkpt><trkpt lat="43.3611963" lon="12.4855938"><ele>550.0</ele><time>2026-05-01T10:28:32.466Z</time></trkpt><trkpt lat="43.3611822" lon="12.485767"><ele>547.8</ele><time>2026-05-01T10:28:33.466Z</time></trkpt><trkpt lat="43.361179" lon="12.4859327"><ele>545.6</ele><time>2026-05-01T10:28:34.467Z</time></trkpt><trkpt lat="43.3611824" lon="12.4860726"><ele>543.4</ele><time>2026-05-01T10:28:35.467Z</time></trkpt><trkpt lat="43.3611994" lon="12.4862033"><ele>541.2</ele><time>2026-05-01T10:28:36.467Z</time></trkpt><trkpt lat="43.3612234" lon="12.4863465"><ele>539.0</ele><time>2026-05-01T10:28:37.467Z</time></trkpt><trkpt lat="43.3612511" lon="12.4864926"><ele>535.25</ele><time>2026-05-01T10:28:38.467Z</time></trkpt><trkpt lat="43.3612801" lon="12.486636"><ele>531.5</ele><time>2026-05-01T10:28:39.467Z</time></trkpt><trkpt lat="43.3613116" lon="12.4867874"><ele>527.75</ele><time>2026-05-01T10:28:40.467Z</time></trkpt><trkpt lat="43.3613435" lon="12.486949"><ele>524.0</ele><time>2026-05-01T10:28:41.466Z</time></trkpt><trkpt lat="43.3613739" lon="12.4870995"><ele>524.0</ele><time>2026-05-01T10:28:42.467Z</time></trkpt><trkpt lat="43.3614012" lon="12.4872397"><ele>524.0</ele><time>2026-05-01T10:28:43.467Z</time></trkpt><trkpt lat="43.3614206" lon="12.487374"><ele>524.0</ele><time>2026-05-01T10:28:44.467Z</time></trkpt><trkpt lat="43.3614496" lon="12.4875068"><ele>524.0</ele><time>2026-05-01T10:28:45.466Z</time></trkpt><trkpt lat="43.3614714" lon="12.4876316"><ele>524.0</ele><time>2026-05-01T10:28:46.466Z</time></trkpt><trkpt lat="43.3614992" lon="12.4877594"><ele>524.0</ele><time>2026-05-01T10:28:47.466Z</time></trkpt><trkpt lat="43.3615002" lon="12.4878884"><ele>524.0</ele><time>2026-05-01T10:28:48.467Z</time></trkpt><trkpt lat="43.3614988" lon="12.4880208"><ele>524.0</ele><time>2026-05-01T10:28:49.467Z</time></trkpt><trkpt lat="43.3614957" lon="12.4881361"><ele>524.0</ele><time>2026-05-01T10:28:50.467Z</time></trkpt><trkpt lat="43.3615033" lon="12.4882389"><ele>524.0</ele><time>2026-05-01T10:28:51.467Z</time></trkpt><trkpt lat="43.3615478" lon="12.4883383"><ele>524.0</ele><time>2026-05-01T10:28:52.467Z</time></trkpt><trkpt lat="43.3616229" lon="12.4884286"><ele>522.0</ele><time>2026-05-01T10:28:53.467Z</time></trkpt><trkpt lat="43.3617091" lon="12.4885073"><ele>520.0</ele><time>2026-05-01T10:28:54.466Z</time></trkpt><trkpt lat="43.3617925" lon="12.488586"><ele>518.0</ele><time>2026-05-01T10:28:55.466Z</time></trkpt><trkpt lat="43.361887" lon="12.4886515"><ele>516.0</ele><time>2026-05-01T10:28:56.466Z</time></trkpt><trkpt lat="43.3619865" lon="12.488686"><ele>514.0</ele><time>2026-05-01T10:28:57.466Z</time></trkpt><trkpt lat="43.3620926" lon="12.4886934"><ele>514.0</ele><time>2026-05-01T10:28:58.466Z</time></trkpt><trkpt lat="43.3621873" lon="12.4886819"><ele>514.0</ele><time>2026-05-01T10:28:59.467Z</time></trkpt><trkpt lat="43.3622662" lon="12.4886703"><ele>514.0</ele><time>2026-05-01T10:29:00.467Z</time></trkpt><trkpt lat="43.3623447" lon="12.4886889"><ele>514.0</ele><time>2026-05-01T10:29:01.466Z</time></trkpt><trkpt lat="43.3623994" lon="12.4887593"><ele>514.0</ele><time>2026-05-01T10:29:02.467Z</time></trkpt><trkpt lat="43.3624245" lon="12.4888719"><ele>514.0</ele><time>2026-05-01T10:29:03.467Z</time></trkpt><trkpt lat="43.3624345" lon="12.4890203"><ele>509.0</ele><time>2026-05-01T10:29:04.467Z</time></trkpt><trkpt lat="43.3624305" lon="12.4891675"><ele>504.0</ele><time>2026-05-01T10:29:05.466Z</time></trkpt><trkpt lat="43.3624106" lon="12.4893148"><ele>499.0</ele><time>2026-05-01T10:29:06.466Z</time></trkpt><trkpt lat="43.3623547" lon="12.4894261"><ele>494.0</ele><time>2026-05-01T10:29:07.467Z</time></trkpt><trkpt lat="43.3622728" lon="12.4895295"><ele>489.0</ele><time>2026-05-01T10:29:08.466Z</time></trkpt><trkpt lat="43.3621798" lon="12.4896248"><ele>487.5</ele><time>2026-05-01T10:29:09.467Z</time></trkpt><trkpt lat="43.3620916" lon="12.4897273"><ele>486.0</ele><time>2026-05-01T10:29:10.467Z</time></trkpt><trkpt lat="43.3620294" lon="12.4898603"><ele>484.5</ele><time>2026-05-01T10:29:11.467Z</time></trkpt><trkpt lat="43.3619906" lon="12.4900281"><ele>483.0</ele><time>2026-05-01T10:29:12.467Z</time></trkpt><trkpt lat="43.3620011" lon="12.4901969"><ele>483.0</ele><time>2026-05-01T10:29:13.467Z</time></trkpt><trkpt lat="43.3620292" lon="12.4903639"><ele>483.0</ele><time>2026-05-01T10:29:14.467Z</time></trkpt><trkpt lat="43.3620487" lon="12.4905295"><ele>483.0</ele><time>2026-05-01T10:29:15.467Z</time></trkpt><trkpt lat="43.3620623" lon="12.4906929"><ele>483.0</ele><time>2026-05-01T10:29:16.467Z</time></trkpt><trkpt lat="43.3620636" lon="12.4908488"><ele>481.2</ele><time>2026-05-01T10:29:17.467Z</time></trkpt><trkpt lat="43.3620702" lon="12.4909964"><ele>479.4</ele><time>2026-05-01T10:29:18.466Z</time></trkpt><trkpt lat="43.3620926" lon="12.4911361"><ele>477.59999999999997</ele><time>2026-05-01T10:29:19.466Z</time></trkpt><trkpt lat="43.3621211" lon="12.4912752"><ele>475.79999999999995</ele><time>2026-05-01T10:29:20.466Z</time></trkpt><trkpt lat="43.3621386" lon="12.4914217"><ele>474.0</ele><time>2026-05-01T10:29:21.466Z</time></trkpt><trkpt lat="43.3621406" lon="12.4915702"><ele>472.25</ele><time>2026-05-01T10:29:22.467Z</time></trkpt><trkpt lat="43.3621171" lon="12.491722"><ele>470.5</ele><time>2026-05-01T10:29:23.467Z</time></trkpt><trkpt lat="43.362075" lon="12.4918669"><ele>468.75</ele><time>2026-05-01T10:29:24.467Z</time></trkpt><trkpt lat="43.362019" lon="12.4920085"><ele>467.0</ele><time>2026-05-01T10:29:25.466Z</time></trkpt><trkpt lat="43.3619551" lon="12.4921474"><ele>465.40000000000003</ele><time>2026-05-01T10:29:26.466Z</time></trkpt><trkpt lat="43.3619043" lon="12.4922831"><ele>463.80000000000007</ele><time>2026-05-01T10:29:27.466Z</time></trkpt><trkpt lat="43.3618584" lon="12.4924168"><ele>462.2</ele><time>2026-05-01T10:29:28.467Z</time></trkpt><trkpt lat="43.3618253" lon="12.4925451"><ele>460.6</ele><time>2026-05-01T10:29:29.466Z</time></trkpt><trkpt lat="43.3618055" lon="12.4926756"><ele>459.0</ele><time>2026-05-01T10:29:30.466Z</time></trkpt><trkpt lat="43.3618074" lon="12.4928015"><ele>459.0</ele><time>2026-05-01T10:29:31.467Z</time></trkpt><trkpt lat="43.3618061" lon="12.4929211"><ele>459.0</ele><time>2026-05-01T10:29:32.467Z</time></trkpt><trkpt lat="43.3618067" lon="12.4930521"><ele>459.0</ele><time>2026-05-01T10:29:33.466Z</time></trkpt><trkpt lat="43.3617973" lon="12.4931931"><ele>459.0</ele><time>2026-05-01T10:29:34.467Z</time></trkpt><trkpt lat="43.3617781" lon="12.4933307"><ele>459.0</ele><time>2026-05-01T10:29:35.466Z</time></trkpt><trkpt lat="43.3617579" lon="12.4934446"><ele>457.5</ele><time>2026-05-01T10:29:36.467Z</time></trkpt><trkpt lat="43.3617399" lon="12.4935583"><ele>456.0</ele><time>2026-05-01T10:29:37.467Z</time></trkpt><trkpt lat="43.3617495" lon="12.4936595"><ele>454.5</ele><time>2026-05-01T10:29:38.467Z</time></trkpt><trkpt lat="43.3617742" lon="12.4937533"><ele>453.0</ele><time>2026-05-01T10:29:39.467Z</time></trkpt><trkpt lat="43.3618362" lon="12.4938118"><ele>451.5</ele><time>2026-05-01T10:29:40.467Z</time></trkpt><trkpt lat="43.3619185" lon="12.4938047"><ele>450.0</ele><time>2026-05-01T10:29:41.466Z</time></trkpt><trkpt lat="43.3619877" lon="12.4937749"><ele>450.0</ele><time>2026-05-01T10:29:42.467Z</time></trkpt><trkpt lat="43.3620685" lon="12.4937105"><ele>450.0</ele><time>2026-05-01T10:29:43.467Z</time></trkpt><trkpt lat="43.362119" lon="12.493603"><ele>450.0</ele><time>2026-05-01T10:29:44.467Z</time></trkpt><trkpt lat="43.3621442" lon="12.4934889"><ele>450.0</ele><time>2026-05-01T10:29:45.466Z</time></trkpt><trkpt lat="43.362184" lon="12.4933837"><ele>450.0</ele><time>2026-05-01T10:29:46.467Z</time></trkpt><trkpt lat="43.3622425" lon="12.4932879"><ele>449.5</ele><time>2026-05-01T10:29:47.466Z</time></trkpt><trkpt lat="43.3623111" lon="12.4931956"><ele>449.0</ele><time>2026-05-01T10:29:48.467Z</time></trkpt><trkpt lat="43.3624047" lon="12.4931111"><ele>448.5</ele><time>2026-05-01T10:29:49.467Z</time></trkpt><trkpt lat="43.3625234" lon="12.4930218"><ele>448.0</ele><time>2026-05-01T10:29:50.467Z</time></trkpt><trkpt lat="43.3626326" lon="12.492913"><ele>448.0</ele><time>2026-05-01T10:29:51.467Z</time></trkpt><trkpt lat="43.3627381" lon="12.4928168"><ele>448.0</ele><time>2026-05-01T10:29:52.467Z</time></trkpt><trkpt lat="43.3628545" lon="12.4927351"><ele>448.0</ele><time>2026-05-01T10:29:53.467Z</time></trkpt><trkpt lat="43.362969" lon="12.4926617"><ele>448.0</ele><time>2026-05-01T10:29:54.467Z</time></trkpt><trkpt lat="43.3630922" lon="12.4925995"><ele>444.5</ele><time>2026-05-01T10:29:55.466Z</time></trkpt><trkpt lat="43.3632022" lon="12.4925465"><ele>441.0</ele><time>2026-05-01T10:29:56.466Z</time></trkpt><trkpt lat="43.3633114" lon="12.4924997"><ele>437.5</ele><time>2026-05-01T10:29:57.466Z</time></trkpt><trkpt lat="43.3634114" lon="12.4924441"><ele>434.0</ele><time>2026-05-01T10:29:58.467Z</time></trkpt><trkpt lat="43.3635047" lon="12.4923606"><ele>434.0</ele><time>2026-05-01T10:29:59.467Z</time></trkpt><trkpt lat="43.3635691" lon="12.4922811"><ele>434.0</ele><time>2026-05-01T10:30:00.467Z</time></trkpt><trkpt lat="43.3636311" lon="12.4922217"><ele>434.0</ele><time>2026-05-01T10:30:01.467Z</time></trkpt><trkpt lat="43.3637219" lon="12.492243"><ele>434.0</ele><time>2026-05-01T10:30:03.467Z</time></trkpt><trkpt lat="43.3637288" lon="12.4924027"><ele>434.0</ele><time>2026-05-01T10:30:05.466Z</time></trkpt><trkpt lat="43.363691" lon="12.4925297"><ele>434.0</ele><time>2026-05-01T10:30:06.467Z</time></trkpt><trkpt lat="43.3636379" lon="12.4926767"><ele>434.0</ele><time>2026-05-01T10:30:07.466Z</time></trkpt><trkpt lat="43.3635652" lon="12.4928137"><ele>434.0</ele><time>2026-05-01T10:30:08.467Z</time></trkpt><trkpt lat="43.3634858" lon="12.492959"><ele>434.0</ele><time>2026-05-01T10:30:09.467Z</time></trkpt><trkpt lat="43.3634078" lon="12.493124"><ele>430.25</ele><time>2026-05-01T10:30:10.466Z</time></trkpt><trkpt lat="43.3633281" lon="12.4932926"><ele>426.5</ele><time>2026-05-01T10:30:11.466Z</time></trkpt><trkpt lat="43.3632597" lon="12.4934638"><ele>422.75</ele><time>2026-05-01T10:30:12.467Z</time></trkpt><trkpt lat="43.3632063" lon="12.493653"><ele>419.0</ele><time>2026-05-01T10:30:13.467Z</time></trkpt><trkpt lat="43.3631605" lon="12.493886"><ele>415.0</ele><time>2026-05-01T10:30:14.467Z</time></trkpt><trkpt lat="43.3631258" lon="12.4941424"><ele>411.0</ele><time>2026-05-01T10:30:15.466Z</time></trkpt><trkpt lat="43.3630793" lon="12.4943911"><ele>407.0</ele><time>2026-05-01T10:30:16.466Z</time></trkpt><trkpt lat="43.3630392" lon="12.494625"><ele>408.25</ele><time>2026-05-01T10:30:17.467Z</time></trkpt><trkpt lat="43.3630087" lon="12.4948453"><ele>409.5</ele><time>2026-05-01T10:30:18.467Z</time></trkpt><trkpt lat="43.3629895" lon="12.4950414"><ele>410.75</ele><time>2026-05-01T10:30:19.466Z</time></trkpt><trkpt lat="43.3629713" lon="12.4951996"><ele>412.0</ele><time>2026-05-01T10:30:20.466Z</time></trkpt><trkpt lat="43.3629524" lon="12.4953476"><ele>411.6666666666667</ele><time>2026-05-01T10:30:21.467Z</time></trkpt><trkpt lat="43.3629281" lon="12.495465"><ele>411.33333333333337</ele><time>2026-05-01T10:30:22.466Z</time></trkpt><trkpt lat="43.3629051" lon="12.4955569"><ele>411.0</ele><time>2026-05-01T10:30:23.466Z</time></trkpt><trkpt lat="43.3629004" lon="12.4956679"><ele>410.66666666666663</ele><time>2026-05-01T10:30:24.466Z</time></trkpt><trkpt lat="43.3629203" lon="12.4957922"><ele>410.3333333333333</ele><time>2026-05-01T10:30:25.466Z</time></trkpt><trkpt lat="43.3629634" lon="12.4959284"><ele>410.0</ele><time>2026-05-01T10:30:26.467Z</time></trkpt><trkpt lat="43.3630202" lon="12.4960782"><ele>408.8</ele><time>2026-05-01T10:30:27.467Z</time></trkpt><trkpt lat="43.3630923" lon="12.496222"><ele>407.6</ele><time>2026-05-01T10:30:28.467Z</time></trkpt><trkpt lat="43.3631681" lon="12.4963478"><ele>406.4</ele><time>2026-05-01T10:30:29.466Z</time></trkpt><trkpt lat="43.3632328" lon="12.4964502"><ele>405.2</ele><time>2026-05-01T10:30:30.467Z</time></trkpt><trkpt lat="43.3632796" lon="12.4965254"><ele>404.0</ele><time>2026-05-01T10:30:31.467Z</time></trkpt><trkpt lat="43.3633493" lon="12.4966506"><ele>404.0</ele><time>2026-05-01T10:30:33.467Z</time></trkpt><trkpt lat="43.3633556" lon="12.4967958"><ele>404.0</ele><time>2026-05-01T10:30:35.467Z</time></trkpt><trkpt lat="43.3633936" lon="12.4969688"><ele>404.0</ele><time>2026-05-01T10:30:37.467Z</time></trkpt><trkpt lat="43.3634374" lon="12.4970845"><ele>404.0</ele><time>2026-05-01T10:30:38.467Z</time></trkpt><trkpt lat="43.3634723" lon="12.4972043"><ele>404.0</ele><time>2026-05-01T10:30:39.467Z</time></trkpt><trkpt lat="43.3635067" lon="12.4973242"><ele>403.79999999999995</ele><time>2026-05-01T10:30:40.467Z</time></trkpt><trkpt lat="43.3635617" lon="12.4974426"><ele>403.59999999999997</ele><time>2026-05-01T10:30:41.467Z</time></trkpt><trkpt lat="43.3636407" lon="12.4975579"><ele>403.4</ele><time>2026-05-01T10:30:42.467Z</time></trkpt><trkpt lat="43.363726" lon="12.4976688"><ele>403.2</ele><time>2026-05-01T10:30:43.467Z</time></trkpt><trkpt lat="43.3637998" lon="12.4977656"><ele>403.0</ele><time>2026-05-01T10:30:44.466Z</time></trkpt><trkpt lat="43.3638652" lon="12.4978616"><ele>403.59999999999997</ele><time>2026-05-01T10:30:45.467Z</time></trkpt><trkpt lat="43.363921" lon="12.4979651"><ele>404.2</ele><time>2026-05-01T10:30:46.466Z</time></trkpt><trkpt lat="43.3639675" lon="12.4980951"><ele>404.8</ele><time>2026-05-01T10:30:47.467Z</time></trkpt><trkpt lat="43.364016" lon="12.4982189"><ele>405.4</ele><time>2026-05-01T10:30:48.467Z</time></trkpt><trkpt lat="43.3640714" lon="12.498337"><ele>406.0</ele><time>2026-05-01T10:30:49.467Z</time></trkpt><trkpt lat="43.3641322" lon="12.4984519"><ele>406.0</ele><time>2026-05-01T10:30:50.467Z</time></trkpt><trkpt lat="43.3642029" lon="12.498569"><ele>406.0</ele><time>2026-05-01T10:30:51.466Z</time></trkpt><trkpt lat="43.3642788" lon="12.4986844"><ele>406.0</ele><time>2026-05-01T10:30:52.466Z</time></trkpt><trkpt lat="43.3643609" lon="12.4987889"><ele>406.0</ele><time>2026-05-01T10:30:53.467Z</time></trkpt><trkpt lat="43.3644487" lon="12.4988895"><ele>405.5</ele><time>2026-05-01T10:30:54.467Z</time></trkpt><trkpt lat="43.3645398" lon="12.498985"><ele>405.0</ele><time>2026-05-01T10:30:55.466Z</time></trkpt><trkpt lat="43.3646399" lon="12.4990901"><ele>404.5</ele><time>2026-05-01T10:30:56.466Z</time></trkpt><trkpt lat="43.3647416" lon="12.4991885"><ele>404.0</ele><time>2026-05-01T10:30:57.467Z</time></trkpt><trkpt lat="43.3648516" lon="12.4992746"><ele>403.5</ele><time>2026-05-01T10:30:58.467Z</time></trkpt><trkpt lat="43.364965" lon="12.4993488"><ele>403.0</ele><time>2026-05-01T10:30:59.466Z</time></trkpt><trkpt lat="43.3650781" lon="12.4994184"><ele>402.5</ele><time>2026-05-01T10:31:00.467Z</time></trkpt><trkpt lat="43.3651851" lon="12.4994797"><ele>402.0</ele><time>2026-05-01T10:31:01.467Z</time></trkpt><trkpt lat="43.3652823" lon="12.4995421"><ele>402.0</ele><time>2026-05-01T10:31:02.467Z</time></trkpt><trkpt lat="43.3653881" lon="12.4996115"><ele>402.0</ele><time>2026-05-01T10:31:03.467Z</time></trkpt><trkpt lat="43.3655001" lon="12.4997034"><ele>402.0</ele><time>2026-05-01T10:31:04.466Z</time></trkpt><trkpt lat="43.3656047" lon="12.499808"><ele>402.0</ele><time>2026-05-01T10:31:05.467Z</time></trkpt><trkpt lat="43.3657023" lon="12.4999231"><ele>401.0</ele><time>2026-05-01T10:31:06.466Z</time></trkpt><trkpt lat="43.3657866" lon="12.5000472"><ele>400.0</ele><time>2026-05-01T10:31:07.467Z</time></trkpt><trkpt lat="43.3658629" lon="12.5001813"><ele>399.0</ele><time>2026-05-01T10:31:08.467Z</time></trkpt><trkpt lat="43.3659362" lon="12.5003238"><ele>398.0</ele><time>2026-05-01T10:31:09.467Z</time></trkpt><trkpt lat="43.3660107" lon="12.5004866"><ele>398.0</ele><time>2026-05-01T10:31:10.467Z</time></trkpt><trkpt lat="43.3660902" lon="12.5006463"><ele>398.0</ele><time>2026-05-01T10:31:11.466Z</time></trkpt><trkpt lat="43.3661754" lon="12.5008214"><ele>398.0</ele><time>2026-05-01T10:31:12.467Z</time></trkpt><trkpt lat="43.3662697" lon="12.5010027"><ele>398.0</ele><time>2026-05-01T10:31:13.467Z</time></trkpt><trkpt lat="43.3663596" lon="12.5011814"><ele>398.0</ele><time>2026-05-01T10:31:14.467Z</time></trkpt><trkpt lat="43.3664486" lon="12.5013528"><ele>398.0</ele><time>2026-05-01T10:31:15.466Z</time></trkpt><trkpt lat="43.3665355" lon="12.5015252"><ele>398.25</ele><time>2026-05-01T10:31:16.467Z</time></trkpt><trkpt lat="43.3666252" lon="12.5016965"><ele>398.5</ele><time>2026-05-01T10:31:17.467Z</time></trkpt><trkpt lat="43.3667153" lon="12.5018698"><ele>398.75</ele><time>2026-05-01T10:31:18.467Z</time></trkpt><trkpt lat="43.366791" lon="12.5020189"><ele>399.0</ele><time>2026-05-01T10:31:19.466Z</time></trkpt><trkpt lat="43.3668559" lon="12.5021598"><ele>399.6</ele><time>2026-05-01T10:31:20.467Z</time></trkpt><trkpt lat="43.3669163" lon="12.5022822"><ele>400.2</ele><time>2026-05-01T10:31:21.467Z</time></trkpt><trkpt lat="43.3669578" lon="12.5024076"><ele>400.8</ele><time>2026-05-01T10:31:22.467Z</time></trkpt><trkpt lat="43.3669833" lon="12.5025406"><ele>401.40000000000003</ele><time>2026-05-01T10:31:23.467Z</time></trkpt><trkpt lat="43.3669985" lon="12.5026971"><ele>402.0</ele><time>2026-05-01T10:31:24.467Z</time></trkpt><trkpt lat="43.3670072" lon="12.5028605"><ele>402.20000000000005</ele><time>2026-05-01T10:31:25.467Z</time></trkpt><trkpt lat="43.367017" lon="12.5030187"><ele>402.4</ele><time>2026-05-01T10:31:26.467Z</time></trkpt><trkpt lat="43.3670259" lon="12.5031794"><ele>402.6</ele><time>2026-05-01T10:31:27.467Z</time></trkpt><trkpt lat="43.367032" lon="12.503328"><ele>402.79999999999995</ele><time>2026-05-01T10:31:28.466Z</time></trkpt><trkpt lat="43.3670341" lon="12.5034708"><ele>403.0</ele><time>2026-05-01T10:31:29.467Z</time></trkpt><trkpt lat="43.3670221" lon="12.5036013"><ele>403.0</ele><time>2026-05-01T10:31:30.467Z</time></trkpt><trkpt lat="43.3669964" lon="12.5037202"><ele>403.0</ele><time>2026-05-01T10:31:31.467Z</time></trkpt><trkpt lat="43.3669465" lon="12.5038186"><ele>403.0</ele><time>2026-05-01T10:31:32.466Z</time></trkpt><trkpt lat="43.366864" lon="12.5039355"><ele>403.0</ele><time>2026-05-01T10:31:33.467Z</time></trkpt><trkpt lat="43.36677" lon="12.5040725"><ele>403.0</ele><time>2026-05-01T10:31:34.467Z</time></trkpt><trkpt lat="43.3666576" lon="12.5042094"><ele>403.0</ele><time>2026-05-01T10:31:35.466Z</time></trkpt><trkpt lat="43.3665312" lon="12.5043671"><ele>403.0</ele><time>2026-05-01T10:31:36.467Z</time></trkpt><trkpt lat="43.3664031" lon="12.5045143"><ele>403.0</ele><time>2026-05-01T10:31:37.467Z</time></trkpt><trkpt lat="43.3662766" lon="12.504669"><ele>403.33333333333337</ele><time>2026-05-01T10:31:38.466Z</time></trkpt><trkpt lat="43.3661496" lon="12.5048151"><ele>403.66666666666663</ele><time>2026-05-01T10:31:39.467Z</time></trkpt><trkpt lat="43.3660324" lon="12.5049568"><ele>404.0</ele><time>2026-05-01T10:31:40.467Z</time></trkpt><trkpt lat="43.3659176" lon="12.5050944"><ele>404.0</ele><time>2026-05-01T10:31:41.467Z</time></trkpt><trkpt lat="43.3658062" lon="12.5052293"><ele>404.0</ele><time>2026-05-01T10:31:42.467Z</time></trkpt><trkpt lat="43.3656909" lon="12.5053654"><ele>404.0</ele><time>2026-05-01T10:31:43.467Z</time></trkpt><trkpt lat="43.3655814" lon="12.5054959"><ele>404.0</ele><time>2026-05-01T10:31:44.467Z</time></trkpt><trkpt lat="43.3654799" lon="12.5056255"><ele>403.75</ele><time>2026-05-01T10:31:45.467Z</time></trkpt><trkpt lat="43.3653812" lon="12.5057505"><ele>403.5</ele><time>2026-05-01T10:31:46.467Z</time></trkpt><trkpt lat="43.3652794" lon="12.5058679"><ele>403.25</ele><time>2026-05-01T10:31:47.467Z</time></trkpt><trkpt lat="43.3651804" lon="12.5059806"><ele>403.0</ele><time>2026-05-01T10:31:48.467Z</time></trkpt><trkpt lat="43.3650743" lon="12.5060761"><ele>403.0</ele><time>2026-05-01T10:31:49.467Z</time></trkpt><trkpt lat="43.3649623" lon="12.5061777"><ele>403.0</ele><time>2026-05-01T10:31:50.467Z</time></trkpt><trkpt lat="43.3648481" lon="12.5062812"><ele>403.0</ele><time>2026-05-01T10:31:51.467Z</time></trkpt><trkpt lat="43.364742" lon="12.506386"><ele>403.0</ele><time>2026-05-01T10:31:52.466Z</time></trkpt><trkpt lat="43.3646496" lon="12.5064823"><ele>403.0</ele><time>2026-05-01T10:31:53.467Z</time></trkpt><trkpt lat="43.3645585" lon="12.5065671"><ele>403.0</ele><time>2026-05-01T10:31:54.467Z</time></trkpt><trkpt lat="43.3644678" lon="12.506636"><ele>403.0</ele><time>2026-05-01T10:31:55.467Z</time></trkpt><trkpt lat="43.3643753" lon="12.5066998"><ele>403.0</ele><time>2026-05-01T10:31:56.467Z</time></trkpt><trkpt lat="43.3642773" lon="12.5067645"><ele>403.0</ele><time>2026-05-01T10:31:57.467Z</time></trkpt><trkpt lat="43.3641794" lon="12.5068303"><ele>403.00000000000006</ele><time>2026-05-01T10:31:58.466Z</time></trkpt><trkpt lat="43.3640919" lon="12.5068897"><ele>403.0</ele><time>2026-05-01T10:31:59.467Z</time></trkpt><trkpt lat="43.364031" lon="12.5069465"><ele>403.0</ele><time>2026-05-01T10:32:00.467Z</time></trkpt><trkpt lat="43.3639833" lon="12.5070038"><ele>403.0</ele><time>2026-05-01T10:32:01.466Z</time></trkpt><trkpt lat="43.3639134" lon="12.5071585"><ele>403.00000000000006</ele><time>2026-05-01T10:32:03.467Z</time></trkpt><trkpt lat="43.3638858" lon="12.5072549"><ele>403.0</ele><time>2026-05-01T10:32:04.467Z</time></trkpt><trkpt lat="43.3638658" lon="12.507353"><ele>402.83333333333337</ele><time>2026-05-01T10:32:05.467Z</time></trkpt><trkpt lat="43.3638533" lon="12.5074545"><ele>402.6666666666667</ele><time>2026-05-01T10:32:06.467Z</time></trkpt><trkpt lat="43.3638478" lon="12.5075576"><ele>402.5</ele><time>2026-05-01T10:32:07.467Z</time></trkpt><trkpt lat="43.3638523" lon="12.5076607"><ele>402.33333333333337</ele><time>2026-05-01T10:32:08.467Z</time></trkpt><trkpt lat="43.3638637" lon="12.5077601"><ele>402.1666666666667</ele><time>2026-05-01T10:32:09.467Z</time></trkpt><trkpt lat="43.363872" lon="12.5078513"><ele>402.0</ele><time>2026-05-01T10:32:10.466Z</time></trkpt><trkpt lat="43.3638924" lon="12.5080145"><ele>402.40000000000003</ele><time>2026-05-01T10:32:12.467Z</time></trkpt><trkpt lat="43.3639077" lon="12.5081668"><ele>402.8</ele><time>2026-05-01T10:32:14.467Z</time></trkpt><trkpt lat="43.3639037" lon="12.5082539"><ele>403.2</ele><time>2026-05-01T10:32:15.467Z</time></trkpt><trkpt lat="43.363893" lon="12.5084088"><ele>403.6</ele><time>2026-05-01T10:32:17.467Z</time></trkpt><trkpt lat="43.3638899" lon="12.5085128"><ele>404.0</ele><time>2026-05-01T10:32:19.467Z</time></trkpt><trkpt lat="43.3638883" lon="12.5086468"><ele>404.16666666666663</ele><time>2026-05-01T10:32:34.467Z</time></trkpt><trkpt lat="43.363886" lon="12.5087444"><ele>404.3333333333333</ele><time>2026-05-01T10:32:35.467Z</time></trkpt><trkpt lat="43.363888" lon="12.5088595"><ele>404.5</ele><time>2026-05-01T10:32:36.467Z</time></trkpt><trkpt lat="43.3638878" lon="12.5089666"><ele>404.66666666666663</ele><time>2026-05-01T10:32:37.467Z</time></trkpt><trkpt lat="43.3638803" lon="12.5090686"><ele>404.8333333333333</ele><time>2026-05-01T10:32:38.467Z</time></trkpt><trkpt lat="43.3638681" lon="12.509184"><ele>405.0</ele><time>2026-05-01T10:32:39.466Z</time></trkpt><trkpt lat="43.363838" lon="12.5093052"><ele>405.0</ele><time>2026-05-01T10:32:40.467Z</time></trkpt><trkpt lat="43.3637834" lon="12.5094204"><ele>405.0</ele><time>2026-05-01T10:32:41.467Z</time></trkpt><trkpt lat="43.3637285" lon="12.5095478"><ele>405.0</ele><time>2026-05-01T10:32:42.467Z</time></trkpt><trkpt lat="43.3636688" lon="12.509684"><ele>405.0</ele><time>2026-05-01T10:32:43.467Z</time></trkpt><trkpt lat="43.3636081" lon="12.5098238"><ele>405.0</ele><time>2026-05-01T10:32:44.466Z</time></trkpt><trkpt lat="43.363551" lon="12.5099623"><ele>405.2</ele><time>2026-05-01T10:32:45.467Z</time></trkpt><trkpt lat="43.3634942" lon="12.5100971"><ele>405.4</ele><time>2026-05-01T10:32:46.467Z</time></trkpt><trkpt lat="43.3634395" lon="12.5102277"><ele>405.6</ele><time>2026-05-01T10:32:47.467Z</time></trkpt><trkpt lat="43.3633877" lon="12.5103539"><ele>405.8</ele><time>2026-05-01T10:32:48.466Z</time></trkpt><trkpt lat="43.3633415" lon="12.5104819"><ele>406.0</ele><time>2026-05-01T10:32:49.467Z</time></trkpt><trkpt lat="43.3633006" lon="12.5106099"><ele>406.6</ele><time>2026-05-01T10:32:50.467Z</time></trkpt><trkpt lat="43.3632776" lon="12.5107351"><ele>407.20000000000005</ele><time>2026-05-01T10:32:51.466Z</time></trkpt><trkpt lat="43.363264" lon="12.510861"><ele>407.79999999999995</ele><time>2026-05-01T10:32:52.467Z</time></trkpt><trkpt lat="43.3632629" lon="12.5109865"><ele>408.4</ele><time>2026-05-01T10:32:53.467Z</time></trkpt><trkpt lat="43.363283" lon="12.5111033"><ele>409.0</ele><time>2026-05-01T10:32:54.467Z</time></trkpt><trkpt lat="43.363325" lon="12.5112163"><ele>408.6</ele><time>2026-05-01T10:32:55.467Z</time></trkpt><trkpt lat="43.3633901" lon="12.5113296"><ele>408.2</ele><time>2026-05-01T10:32:56.467Z</time></trkpt><trkpt lat="43.3634595" lon="12.5114342"><ele>407.8</ele><time>2026-05-01T10:32:57.467Z</time></trkpt><trkpt lat="43.3635285" lon="12.5115174"><ele>407.40000000000003</ele><time>2026-05-01T10:32:58.467Z</time></trkpt><trkpt lat="43.3635857" lon="12.5115977"><ele>407.0</ele><time>2026-05-01T10:32:59.467Z</time></trkpt><trkpt lat="43.3636323" lon="12.5116822"><ele>406.99999999999994</ele><time>2026-05-01T10:33:00.466Z</time></trkpt><trkpt lat="43.3636211" lon="12.5118477"><ele>407.0</ele><time>2026-05-01T10:33:02.467Z</time></trkpt><trkpt lat="43.3635886" lon="12.5119279"><ele>407.0</ele><time>2026-05-01T10:33:03.467Z</time></trkpt><trkpt lat="43.3635343" lon="12.5119969"><ele>407.0</ele><time>2026-05-01T10:33:04.467Z</time></trkpt><trkpt lat="43.3634725" lon="12.5120675"><ele>406.99999999999994</ele><time>2026-05-01T10:33:05.467Z</time></trkpt><trkpt lat="43.3634111" lon="12.5121366"><ele>407.0</ele><time>2026-05-01T10:33:06.467Z</time></trkpt><trkpt lat="43.3633392" lon="12.5122026"><ele>406.8333333333333</ele><time>2026-05-01T10:33:07.467Z</time></trkpt><trkpt lat="43.363267" lon="12.5122599"><ele>406.66666666666663</ele><time>2026-05-01T10:33:08.466Z</time></trkpt><trkpt lat="43.3632021" lon="12.5123331"><ele>406.5</ele><time>2026-05-01T10:33:09.466Z</time></trkpt><trkpt lat="43.3631406" lon="12.5124206"><ele>406.33333333333337</ele><time>2026-05-01T10:33:10.467Z</time></trkpt><trkpt lat="43.3630817" lon="12.5125189"><ele>406.1666666666667</ele><time>2026-05-01T10:33:11.467Z</time></trkpt><trkpt lat="43.3630323" lon="12.5126175"><ele>406.0</ele><time>2026-05-01T10:33:12.467Z</time></trkpt><trkpt lat="43.363" lon="12.5127123"><ele>406.0</ele><time>2026-05-01T10:33:13.467Z</time></trkpt><trkpt lat="43.36299" lon="12.5128009"><ele>406.0</ele><time>2026-05-01T10:33:14.467Z</time></trkpt><trkpt lat="43.3630313" lon="12.5129123"><ele>406.0</ele><time>2026-05-01T10:33:16.467Z</time></trkpt><trkpt lat="43.363093" lon="12.5129725"><ele>406.0</ele><time>2026-05-01T10:33:17.467Z</time></trkpt><trkpt lat="43.3631841" lon="12.513057"><ele>406.0</ele><time>2026-05-01T10:33:18.466Z</time></trkpt><trkpt lat="43.3632864" lon="12.5131479"><ele>406.0</ele><time>2026-05-01T10:33:19.466Z</time></trkpt><trkpt lat="43.363388" lon="12.5132612"><ele>406.0</ele><time>2026-05-01T10:33:20.467Z</time></trkpt><trkpt lat="43.3634967" lon="12.5133907"><ele>406.0</ele><time>2026-05-01T10:33:21.467Z</time></trkpt><trkpt lat="43.3636091" lon="12.5135295"><ele>406.0</ele><time>2026-05-01T10:33:22.467Z</time></trkpt><trkpt lat="43.3637217" lon="12.513669"><ele>406.20000000000005</ele><time>2026-05-01T10:33:23.466Z</time></trkpt><trkpt lat="43.363822" lon="12.5137934"><ele>406.40000000000003</ele><time>2026-05-01T10:33:24.467Z</time></trkpt><trkpt lat="43.3639063" lon="12.5138902"><ele>406.6</ele><time>2026-05-01T10:33:25.466Z</time></trkpt><trkpt lat="43.3639817" lon="12.5139747"><ele>406.8</ele><time>2026-05-01T10:33:26.467Z</time></trkpt><trkpt lat="43.3640558" lon="12.5140476"><ele>407.0</ele><time>2026-05-01T10:33:27.467Z</time></trkpt><trkpt lat="43.3641271" lon="12.5140977"><ele>407.0</ele><time>2026-05-01T10:33:28.466Z</time></trkpt><trkpt lat="43.3642259" lon="12.5141302"><ele>407.0</ele><time>2026-05-01T10:33:29.466Z</time></trkpt><trkpt lat="43.3643302" lon="12.514154"><ele>407.0</ele><time>2026-05-01T10:33:30.467Z</time></trkpt><trkpt lat="43.3644221" lon="12.514202"><ele>407.0</ele><time>2026-05-01T10:33:31.467Z</time></trkpt><trkpt lat="43.3645171" lon="12.5142831"><ele>407.0</ele><time>2026-05-01T10:33:32.466Z</time></trkpt><trkpt lat="43.3646311" lon="12.5143983"><ele>406.75</ele><time>2026-05-01T10:33:33.467Z</time></trkpt><trkpt lat="43.3647464" lon="12.5145126"><ele>406.5</ele><time>2026-05-01T10:33:34.466Z</time></trkpt><trkpt lat="43.3648593" lon="12.5146282"><ele>406.25</ele><time>2026-05-01T10:33:35.467Z</time></trkpt><trkpt lat="43.3649647" lon="12.5147319"><ele>406.0</ele><time>2026-05-01T10:33:36.466Z</time></trkpt><trkpt lat="43.3650727" lon="12.5148611"><ele>405.8</ele><time>2026-05-01T10:33:37.467Z</time></trkpt><trkpt lat="43.3651794" lon="12.5149671"><ele>405.6</ele><time>2026-05-01T10:33:38.467Z</time></trkpt><trkpt lat="43.3652668" lon="12.5150604"><ele>405.4</ele><time>2026-05-01T10:33:39.467Z</time></trkpt><trkpt lat="43.3653371" lon="12.5151392"><ele>405.2</ele><time>2026-05-01T10:33:40.466Z</time></trkpt><trkpt lat="43.3654001" lon="12.5152056"><ele>405.0</ele><time>2026-05-01T10:33:41.466Z</time></trkpt><trkpt lat="43.3654462" lon="12.5152851"><ele>405.0</ele><time>2026-05-01T10:33:42.467Z</time></trkpt><trkpt lat="43.365483" lon="12.5153983"><ele>405.0</ele><time>2026-05-01T10:33:43.467Z</time></trkpt><trkpt lat="43.3655331" lon="12.5155417"><ele>405.0</ele><time>2026-05-01T10:33:44.467Z</time></trkpt><trkpt lat="43.3656024" lon="12.5156846"><ele>405.0</ele><time>2026-05-01T10:33:45.467Z</time></trkpt><trkpt lat="43.3656897" lon="12.5158007"><ele>405.4</ele><time>2026-05-01T10:33:46.467Z</time></trkpt><trkpt lat="43.3657808" lon="12.5159031"><ele>405.8</ele><time>2026-05-01T10:33:47.467Z</time></trkpt><trkpt lat="43.3658593" lon="12.5159983"><ele>406.20000000000005</ele><time>2026-05-01T10:33:48.466Z</time></trkpt><trkpt lat="43.3659175" lon="12.5160804"><ele>406.6</ele><time>2026-05-01T10:33:49.467Z</time></trkpt><trkpt lat="43.3659575" lon="12.5161683"><ele>407.0</ele><time>2026-05-01T10:33:50.467Z</time></trkpt><trkpt lat="43.3659745" lon="12.5162808"><ele>407.3333333333333</ele><time>2026-05-01T10:33:51.467Z</time></trkpt><trkpt lat="43.3659772" lon="12.5163964"><ele>407.66666666666663</ele><time>2026-05-01T10:33:52.467Z</time></trkpt><trkpt lat="43.3659889" lon="12.5164992"><ele>408.0</ele><time>2026-05-01T10:33:53.467Z</time></trkpt><trkpt lat="43.3660221" lon="12.5165867"><ele>408.33333333333337</ele><time>2026-05-01T10:33:54.467Z</time></trkpt><trkpt lat="43.3660823" lon="12.516669"><ele>408.6666666666667</ele><time>2026-05-01T10:33:55.467Z</time></trkpt><trkpt lat="43.366147" lon="12.5167438"><ele>409.0</ele><time>2026-05-01T10:33:56.466Z</time></trkpt><trkpt lat="43.3662023" lon="12.5167989"><ele>409.00000000000006</ele><time>2026-05-01T10:33:57.467Z</time></trkpt><trkpt lat="43.3662702" lon="12.5168607"><ele>409.0</ele><time>2026-05-01T10:34:00.467Z</time></trkpt><trkpt lat="43.3663133" lon="12.5169467"><ele>409.0</ele><time>2026-05-01T10:34:04.467Z</time></trkpt><trkpt lat="43.3663667" lon="12.5170144"><ele>409.0</ele><time>2026-05-01T10:34:07.467Z</time></trkpt><trkpt lat="43.3663115" lon="12.5170584"><ele>409.00000000000006</ele><time>2026-05-01T10:34:11.466Z</time></trkpt><trkpt lat="43.3663296" lon="12.5169676"><ele>409.0</ele><time>2026-05-01T10:34:15.466Z</time></trkpt><trkpt lat="43.3664157" lon="12.516947"><ele>408.75</ele><time>2026-05-01T10:34:45.467Z</time></trkpt><trkpt lat="43.366476" lon="12.5168372"><ele>408.5</ele><time>2026-05-01T10:34:46.466Z</time></trkpt><trkpt lat="43.3665466" lon="12.5166922"><ele>408.25</ele><time>2026-05-01T10:34:47.467Z</time></trkpt><trkpt lat="43.3666223" lon="12.5165145"><ele>408.0</ele><time>2026-05-01T10:34:48.467Z</time></trkpt><trkpt lat="43.3666939" lon="12.5163482"><ele>407.25</ele><time>2026-05-01T10:34:49.467Z</time></trkpt><trkpt lat="43.3667712" lon="12.5162096"><ele>406.5</ele><time>2026-05-01T10:34:50.466Z</time></trkpt><trkpt lat="43.3668554" lon="12.5160713"><ele>405.75</ele><time>2026-05-01T10:34:51.467Z</time></trkpt><trkpt lat="43.3669432" lon="12.515915"><ele>405.0</ele><time>2026-05-01T10:34:52.467Z</time></trkpt><trkpt lat="43.3670221" lon="12.5157643"><ele>405.0</ele><time>2026-05-01T10:34:53.467Z</time></trkpt><trkpt lat="43.3670901" lon="12.5156213"><ele>405.0</ele><time>2026-05-01T10:34:54.467Z</time></trkpt><trkpt lat="43.3671493" lon="12.5154817"><ele>405.0</ele><time>2026-05-01T10:34:55.467Z</time></trkpt><trkpt lat="43.3672104" lon="12.5153445"><ele>405.0</ele><time>2026-05-01T10:34:56.466Z</time></trkpt><trkpt lat="43.3672781" lon="12.5152036"><ele>404.75</ele><time>2026-05-01T10:34:57.467Z</time></trkpt><trkpt lat="43.3673486" lon="12.5150552"><ele>404.5</ele><time>2026-05-01T10:34:58.467Z</time></trkpt><trkpt lat="43.3674275" lon="12.5149061"><ele>404.25</ele><time>2026-05-01T10:34:59.466Z</time></trkpt><trkpt lat="43.3675035" lon="12.5147644"><ele>404.0</ele><time>2026-05-01T10:35:00.466Z</time></trkpt><trkpt lat="43.3675802" lon="12.5146234"><ele>403.2</ele><time>2026-05-01T10:35:01.466Z</time></trkpt><trkpt lat="43.3676486" lon="12.5144891"><ele>402.4</ele><time>2026-05-01T10:35:02.467Z</time></trkpt><trkpt lat="43.3677215" lon="12.5143679"><ele>401.6</ele><time>2026-05-01T10:35:03.467Z</time></trkpt><trkpt lat="43.36779" lon="12.5142522"><ele>400.8</ele><time>2026-05-01T10:35:04.467Z</time></trkpt><trkpt lat="43.3678565" lon="12.5141444"><ele>400.0</ele><time>2026-05-01T10:35:05.467Z</time></trkpt><trkpt lat="43.3679189" lon="12.5140223"><ele>400.0</ele><time>2026-05-01T10:35:06.467Z</time></trkpt><trkpt lat="43.3679856" lon="12.5138827"><ele>400.0</ele><time>2026-05-01T10:35:07.467Z</time></trkpt><trkpt lat="43.3680643" lon="12.5137333"><ele>400.0</ele><time>2026-05-01T10:35:08.467Z</time></trkpt><trkpt lat="43.3681466" lon="12.5135938"><ele>400.0</ele><time>2026-05-01T10:35:09.466Z</time></trkpt><trkpt lat="43.3682227" lon="12.5134613"><ele>400.75</ele><time>2026-05-01T10:35:10.467Z</time></trkpt><trkpt lat="43.3682964" lon="12.5133368"><ele>401.5</ele><time>2026-05-01T10:35:11.467Z</time></trkpt><trkpt lat="43.3683691" lon="12.5132167"><ele>402.25</ele><time>2026-05-01T10:35:12.467Z</time></trkpt><trkpt lat="43.3684384" lon="12.5130935"><ele>403.0</ele><time>2026-05-01T10:35:13.466Z</time></trkpt><trkpt lat="43.3685059" lon="12.5129712"><ele>402.79999999999995</ele><time>2026-05-01T10:35:14.466Z</time></trkpt><trkpt lat="43.3685744" lon="12.5128464"><ele>402.6</ele><time>2026-05-01T10:35:15.466Z</time></trkpt><trkpt lat="43.3686455" lon="12.5127286"><ele>402.4</ele><time>2026-05-01T10:35:16.467Z</time></trkpt><trkpt lat="43.3687114" lon="12.5126198"><ele>402.20000000000005</ele><time>2026-05-01T10:35:17.467Z</time></trkpt><trkpt lat="43.3687658" lon="12.5125206"><ele>402.0</ele><time>2026-05-01T10:35:18.467Z</time></trkpt><trkpt lat="43.3688044" lon="12.5124315"><ele>402.0</ele><time>2026-05-01T10:35:19.466Z</time></trkpt><trkpt lat="43.3688285" lon="12.5123481"><ele>402.0</ele><time>2026-05-01T10:35:20.467Z</time></trkpt><trkpt lat="43.3688104" lon="12.5121955"><ele>402.0</ele><time>2026-05-01T10:35:22.467Z</time></trkpt><trkpt lat="43.3687705" lon="12.5121139"><ele>402.0</ele><time>2026-05-01T10:35:23.466Z</time></trkpt><trkpt lat="43.3687055" lon="12.512013"><ele>402.0</ele><time>2026-05-01T10:35:24.466Z</time></trkpt><trkpt lat="43.3686241" lon="12.5119032"><ele>402.3333333333333</ele><time>2026-05-01T10:35:25.466Z</time></trkpt><trkpt lat="43.3685542" lon="12.511786"><ele>402.66666666666663</ele><time>2026-05-01T10:35:26.467Z</time></trkpt><trkpt lat="43.3685031" lon="12.5116823"><ele>403.0</ele><time>2026-05-01T10:35:27.467Z</time></trkpt><trkpt lat="43.3684583" lon="12.5116012"><ele>403.3333333333333</ele><time>2026-05-01T10:35:28.466Z</time></trkpt><trkpt lat="43.3684299" lon="12.511519"><ele>403.66666666666663</ele><time>2026-05-01T10:35:29.467Z</time></trkpt><trkpt lat="43.3684332" lon="12.5114085"><ele>404.0</ele><time>2026-05-01T10:35:31.467Z</time></trkpt><trkpt lat="43.368509" lon="12.5113587"><ele>403.99999999999994</ele><time>2026-05-01T10:35:34.467Z</time></trkpt><trkpt lat="43.3685941" lon="12.5114183"><ele>404.0</ele><time>2026-05-01T10:35:36.467Z</time></trkpt><trkpt lat="43.3686405" lon="12.5114859"><ele>404.0</ele><time>2026-05-01T10:35:37.466Z</time></trkpt><trkpt lat="43.3686883" lon="12.5115777"><ele>404.0</ele><time>2026-05-01T10:35:38.466Z</time></trkpt><trkpt lat="43.3687416" lon="12.5116817"><ele>403.99999999999994</ele><time>2026-05-01T10:35:39.467Z</time></trkpt><trkpt lat="43.3687964" lon="12.5117856"><ele>404.0</ele><time>2026-05-01T10:35:40.467Z</time></trkpt><trkpt lat="43.3688483" lon="12.5118908"><ele>403.4</ele><time>2026-05-01T10:35:41.467Z</time></trkpt><trkpt lat="43.3689038" lon="12.5119969"><ele>402.79999999999995</ele><time>2026-05-01T10:35:42.467Z</time></trkpt><trkpt lat="43.3689712" lon="12.512103"><ele>402.20000000000005</ele><time>2026-05-01T10:35:43.467Z</time></trkpt><trkpt lat="43.3690401" lon="12.512207"><ele>401.6</ele><time>2026-05-01T10:35:44.467Z</time></trkpt><trkpt lat="43.3690966" lon="12.5123004"><ele>401.0</ele><time>2026-05-01T10:35:45.467Z</time></trkpt><trkpt lat="43.3691458" lon="12.5123912"><ele>401.0</ele><time>2026-05-01T10:35:46.466Z</time></trkpt><trkpt lat="43.3691837" lon="12.5124903"><ele>401.0</ele><time>2026-05-01T10:35:47.467Z</time></trkpt><trkpt lat="43.3692091" lon="12.5125988"><ele>401.0</ele><time>2026-05-01T10:35:48.467Z</time></trkpt><trkpt lat="43.3692274" lon="12.5127138"><ele>401.0</ele><time>2026-05-01T10:35:49.467Z</time></trkpt><trkpt lat="43.3692588" lon="12.5128462"><ele>401.0</ele><time>2026-05-01T10:35:50.467Z</time></trkpt><trkpt lat="43.369319" lon="12.5129857"><ele>401.25</ele><time>2026-05-01T10:35:51.467Z</time></trkpt><trkpt lat="43.3694039" lon="12.513113"><ele>401.5</ele><time>2026-05-01T10:35:52.467Z</time></trkpt><trkpt lat="43.3694994" lon="12.5132362"><ele>401.75</ele><time>2026-05-01T10:35:53.467Z</time></trkpt><trkpt lat="43.3695976" lon="12.5133582"><ele>402.0</ele><time>2026-05-01T10:35:54.467Z</time></trkpt><trkpt lat="43.3696938" lon="12.513483"><ele>402.0</ele><time>2026-05-01T10:35:55.467Z</time></trkpt><trkpt lat="43.369785" lon="12.5135935"><ele>402.0</ele><time>2026-05-01T10:35:56.467Z</time></trkpt><trkpt lat="43.3698753" lon="12.5137002"><ele>402.0</ele><time>2026-05-01T10:35:57.467Z</time></trkpt><trkpt lat="43.3699699" lon="12.5138028"><ele>402.0</ele><time>2026-05-01T10:35:58.467Z</time></trkpt><trkpt lat="43.3700678" lon="12.5138942"><ele>402.25</ele><time>2026-05-01T10:35:59.467Z</time></trkpt><trkpt lat="43.3701689" lon="12.5139704"><ele>402.5</ele><time>2026-05-01T10:36:00.467Z</time></trkpt><trkpt lat="43.3702759" lon="12.5140472"><ele>402.75</ele><time>2026-05-01T10:36:01.467Z</time></trkpt><trkpt lat="43.3703835" lon="12.5141177"><ele>403.0</ele><time>2026-05-01T10:36:02.467Z</time></trkpt><trkpt lat="43.3704895" lon="12.5141887"><ele>402.75</ele><time>2026-05-01T10:36:03.466Z</time></trkpt><trkpt lat="43.370591" lon="12.5142634"><ele>402.5</ele><time>2026-05-01T10:36:04.467Z</time></trkpt><trkpt lat="43.3706943" lon="12.5143378"><ele>402.25</ele><time>2026-05-01T10:36:05.467Z</time></trkpt><trkpt lat="43.3708032" lon="12.514415"><ele>402.0</ele><time>2026-05-01T10:36:06.467Z</time></trkpt><trkpt lat="43.3709101" lon="12.5144909"><ele>402.0</ele><time>2026-05-01T10:36:07.467Z</time></trkpt><trkpt lat="43.3710053" lon="12.5145611"><ele>402.0</ele><time>2026-05-01T10:36:08.466Z</time></trkpt><trkpt lat="43.3710926" lon="12.514646"><ele>402.0</ele><time>2026-05-01T10:36:09.466Z</time></trkpt><trkpt lat="43.3711731" lon="12.514749"><ele>402.0</ele><time>2026-05-01T10:36:10.467Z</time></trkpt><trkpt lat="43.3712519" lon="12.5148618"><ele>402.0</ele><time>2026-05-01T10:36:11.467Z</time></trkpt><trkpt lat="43.3713292" lon="12.5149765"><ele>402.0</ele><time>2026-05-01T10:36:12.467Z</time></trkpt><trkpt lat="43.3714084" lon="12.5150946"><ele>402.0</ele><time>2026-05-01T10:36:13.466Z</time></trkpt><trkpt lat="43.3714921" lon="12.5152122"><ele>402.0</ele><time>2026-05-01T10:36:14.467Z</time></trkpt><trkpt lat="43.3715778" lon="12.5153355"><ele>402.0</ele><time>2026-05-01T10:36:15.467Z</time></trkpt><trkpt lat="43.371667" lon="12.5154619"><ele>402.75</ele><time>2026-05-01T10:36:16.466Z</time></trkpt><trkpt lat="43.3717581" lon="12.5155957"><ele>403.5</ele><time>2026-05-01T10:36:17.467Z</time></trkpt><trkpt lat="43.3718521" lon="12.5157325"><ele>404.25</ele><time>2026-05-01T10:36:18.467Z</time></trkpt><trkpt lat="43.3719399" lon="12.5158627"><ele>405.0</ele><time>2026-05-01T10:36:19.466Z</time></trkpt><trkpt lat="43.3720236" lon="12.5159882"><ele>405.0</ele><time>2026-05-01T10:36:20.467Z</time></trkpt><trkpt lat="43.3721036" lon="12.5161148"><ele>405.0</ele><time>2026-05-01T10:36:21.466Z</time></trkpt><trkpt lat="43.3721838" lon="12.5162384"><ele>405.0</ele><time>2026-05-01T10:36:22.467Z</time></trkpt><trkpt lat="43.3722595" lon="12.5163477"><ele>405.0</ele><time>2026-05-01T10:36:23.466Z</time></trkpt><trkpt lat="43.3723372" lon="12.5164541"><ele>405.57142857142856</ele><time>2026-05-01T10:36:24.466Z</time></trkpt><trkpt lat="43.3724056" lon="12.5165385"><ele>406.1428571428571</ele><time>2026-05-01T10:36:25.467Z</time></trkpt><trkpt lat="43.372453" lon="12.5166055"><ele>406.71428571428567</ele><time>2026-05-01T10:36:26.466Z</time></trkpt><trkpt lat="43.3724945" lon="12.5166847"><ele>407.2857142857143</ele><time>2026-05-01T10:36:28.467Z</time></trkpt><trkpt lat="43.3724619" lon="12.5167727"><ele>407.8571428571429</ele><time>2026-05-01T10:36:30.467Z</time></trkpt><trkpt lat="43.3724056" lon="12.5168132"><ele>408.4285714285714</ele><time>2026-05-01T10:36:31.467Z</time></trkpt><trkpt lat="43.3723331" lon="12.5168582"><ele>409.0</ele><time>2026-05-01T10:36:32.467Z</time></trkpt><trkpt lat="43.3722495" lon="12.5169336"><ele>409.2</ele><time>2026-05-01T10:36:33.467Z</time></trkpt><trkpt lat="43.3721661" lon="12.517018"><ele>409.4</ele><time>2026-05-01T10:36:34.466Z</time></trkpt><trkpt lat="43.3720723" lon="12.517091"><ele>409.6</ele><time>2026-05-01T10:36:35.467Z</time></trkpt><trkpt lat="43.3719933" lon="12.5171611"><ele>409.8</ele><time>2026-05-01T10:36:36.467Z</time></trkpt><trkpt lat="43.3719322" lon="12.5172314"><ele>410.0</ele><time>2026-05-01T10:36:37.467Z</time></trkpt><trkpt lat="43.3719551" lon="12.5173682"><ele>410.6</ele><time>2026-05-01T10:36:39.467Z</time></trkpt><trkpt lat="43.3720339" lon="12.5174677"><ele>411.2</ele><time>2026-05-01T10:36:41.466Z</time></trkpt><trkpt lat="43.3720887" lon="12.5175348"><ele>411.79999999999995</ele><time>2026-05-01T10:36:42.467Z</time></trkpt><trkpt lat="43.372157" lon="12.5176152"><ele>412.4</ele><time>2026-05-01T10:36:43.467Z</time></trkpt><trkpt lat="43.372227" lon="12.5177007"><ele>413.0</ele><time>2026-05-01T10:36:44.467Z</time></trkpt><trkpt lat="43.3723067" lon="12.517789"><ele>413.25</ele><time>2026-05-01T10:36:45.466Z</time></trkpt><trkpt lat="43.3723863" lon="12.5178852"><ele>413.5</ele><time>2026-05-01T10:36:46.467Z</time></trkpt><trkpt lat="43.3724675" lon="12.5179837"><ele>413.75</ele><time>2026-05-01T10:36:47.467Z</time></trkpt><trkpt lat="43.3725569" lon="12.518094"><ele>414.0</ele><time>2026-05-01T10:36:48.467Z</time></trkpt><trkpt lat="43.3726462" lon="12.5182076"><ele>415.25</ele><time>2026-05-01T10:36:49.467Z</time></trkpt><trkpt lat="43.3727383" lon="12.5183252"><ele>416.5</ele><time>2026-05-01T10:36:50.466Z</time></trkpt><trkpt lat="43.3728253" lon="12.5184407"><ele>417.75</ele><time>2026-05-01T10:36:51.466Z</time></trkpt><trkpt lat="43.3729136" lon="12.5185528"><ele>419.0</ele><time>2026-05-01T10:36:52.466Z</time></trkpt><trkpt lat="43.3730047" lon="12.5186645"><ele>420.2</ele><time>2026-05-01T10:36:53.467Z</time></trkpt><trkpt lat="43.3730845" lon="12.5187671"><ele>421.4</ele><time>2026-05-01T10:36:54.467Z</time></trkpt><trkpt lat="43.3731635" lon="12.5188626"><ele>422.6</ele><time>2026-05-01T10:36:55.467Z</time></trkpt><trkpt lat="43.3732417" lon="12.5189619"><ele>423.8</ele><time>2026-05-01T10:36:56.467Z</time></trkpt><trkpt lat="43.3733142" lon="12.519049"><ele>425.0</ele><time>2026-05-01T10:36:57.467Z</time></trkpt><trkpt lat="43.3733762" lon="12.5191348"><ele>424.99999999999994</ele><time>2026-05-01T10:36:58.466Z</time></trkpt><trkpt lat="43.3734371" lon="12.5192175"><ele>425.0</ele><time>2026-05-01T10:36:59.467Z</time></trkpt><trkpt lat="43.3735007" lon="12.519304"><ele>425.0</ele><time>2026-05-01T10:37:00.467Z</time></trkpt><trkpt lat="43.3735682" lon="12.5193949"><ele>425.0</ele><time>2026-05-01T10:37:01.466Z</time></trkpt><trkpt lat="43.3736306" lon="12.5194848"><ele>424.99999999999994</ele><time>2026-05-01T10:37:02.467Z</time></trkpt><trkpt lat="43.3736963" lon="12.5195585"><ele>425.0</ele><time>2026-05-01T10:37:03.467Z</time></trkpt><trkpt lat="43.3737581" lon="12.5196269"><ele>425.99999999999994</ele><time>2026-05-01T10:37:04.467Z</time></trkpt><trkpt lat="43.3738164" lon="12.5196817"><ele>427.0</ele><time>2026-05-01T10:37:05.466Z</time></trkpt><trkpt lat="43.3738848" lon="12.5197772"><ele>428.0</ele><time>2026-05-01T10:37:07.466Z</time></trkpt><trkpt lat="43.3739053" lon="12.5198733"><ele>429.0</ele><time>2026-05-01T10:37:23.466Z</time></trkpt><trkpt lat="43.3738566" lon="12.5200005"><ele>429.99999999999994</ele><time>2026-05-01T10:37:25.466Z</time></trkpt><trkpt lat="43.3737959" lon="12.5200593"><ele>431.0</ele><time>2026-05-01T10:37:26.466Z</time></trkpt><trkpt lat="43.373711" lon="12.5200976"><ele>430.99999999999994</ele><time>2026-05-01T10:37:28.466Z</time></trkpt><trkpt lat="43.3736365" lon="12.5201864"><ele>431.0</ele><time>2026-05-01T10:38:13.466Z</time></trkpt><trkpt lat="43.3735836" lon="12.5202463"><ele>431.0</ele><time>2026-05-01T10:38:14.466Z</time></trkpt><trkpt lat="43.3735391" lon="12.5203213"><ele>431.0</ele><time>2026-05-01T10:38:15.466Z</time></trkpt><trkpt lat="43.3734968" lon="12.5203985"><ele>430.99999999999994</ele><time>2026-05-01T10:38:16.465Z</time></trkpt><trkpt lat="43.3734486" lon="12.5204889"><ele>431.0</ele><time>2026-05-01T10:38:17.466Z</time></trkpt><trkpt lat="43.3733863" lon="12.5205977"><ele>432.5</ele><time>2026-05-01T10:38:18.465Z</time></trkpt><trkpt lat="43.373314" lon="12.5207026"><ele>434.0</ele><time>2026-05-01T10:38:19.466Z</time></trkpt><trkpt lat="43.3732278" lon="12.5208117"><ele>435.5</ele><time>2026-05-01T10:38:20.466Z</time></trkpt><trkpt lat="43.3731337" lon="12.5209331"><ele>437.0</ele><time>2026-05-01T10:38:21.466Z</time></trkpt><trkpt lat="43.3730349" lon="12.5210608"><ele>437.25</ele><time>2026-05-01T10:38:22.466Z</time></trkpt><trkpt lat="43.3729355" lon="12.5211948"><ele>437.5</ele><time>2026-05-01T10:38:23.466Z</time></trkpt><trkpt lat="43.3728436" lon="12.5213193"><ele>437.75</ele><time>2026-05-01T10:38:24.465Z</time></trkpt><trkpt lat="43.3727591" lon="12.5214319"><ele>438.0</ele><time>2026-05-01T10:38:25.466Z</time></trkpt><trkpt lat="43.3726727" lon="12.5215389"><ele>438.0</ele><time>2026-05-01T10:38:26.466Z</time></trkpt><trkpt lat="43.3725931" lon="12.5216428"><ele>437.99999999999994</ele><time>2026-05-01T10:38:27.465Z</time></trkpt><trkpt lat="43.3725246" lon="12.5217262"><ele>437.99999999999994</ele><time>2026-05-01T10:38:28.466Z</time></trkpt><trkpt lat="43.3724643" lon="12.5218131"><ele>438.0</ele><time>2026-05-01T10:38:29.466Z</time></trkpt><trkpt lat="43.372399" lon="12.5219072"><ele>438.0</ele><time>2026-05-01T10:38:30.466Z</time></trkpt><trkpt lat="43.3723354" lon="12.5220023"><ele>438.2</ele><time>2026-05-01T10:38:31.466Z</time></trkpt><trkpt lat="43.3722616" lon="12.5221064"><ele>438.4</ele><time>2026-05-01T10:38:32.466Z</time></trkpt><trkpt lat="43.37219" lon="12.5222194"><ele>438.59999999999997</ele><time>2026-05-01T10:38:33.465Z</time></trkpt><trkpt lat="43.3721187" lon="12.52234"><ele>438.79999999999995</ele><time>2026-05-01T10:38:34.466Z</time></trkpt><trkpt lat="43.3720515" lon="12.5224695"><ele>439.0</ele><time>2026-05-01T10:38:35.465Z</time></trkpt><trkpt lat="43.3719885" lon="12.5226038"><ele>439.0</ele><time>2026-05-01T10:38:36.466Z</time></trkpt><trkpt lat="43.3719267" lon="12.5227473"><ele>439.0</ele><time>2026-05-01T10:38:37.466Z</time></trkpt><trkpt lat="43.3718694" lon="12.522897"><ele>439.0</ele><time>2026-05-01T10:38:38.466Z</time></trkpt><trkpt lat="43.3718141" lon="12.5230474"><ele>439.0</ele><time>2026-05-01T10:38:39.466Z</time></trkpt><trkpt lat="43.3717583" lon="12.5232018"><ele>440.5</ele><time>2026-05-01T10:38:40.466Z</time></trkpt><trkpt lat="43.3717004" lon="12.523357"><ele>442.0</ele><time>2026-05-01T10:38:41.466Z</time></trkpt><trkpt lat="43.3716439" lon="12.5235134"><ele>443.5</ele><time>2026-05-01T10:38:42.465Z</time></trkpt><trkpt lat="43.3715884" lon="12.5236698"><ele>445.0</ele><time>2026-05-01T10:38:43.466Z</time></trkpt><trkpt lat="43.3715343" lon="12.5238274"><ele>445.5</ele><time>2026-05-01T10:38:44.466Z</time></trkpt><trkpt lat="43.3714821" lon="12.5239931"><ele>446.0</ele><time>2026-05-01T10:38:45.466Z</time></trkpt><trkpt lat="43.3714377" lon="12.5241616"><ele>446.5</ele><time>2026-05-01T10:38:46.466Z</time></trkpt><trkpt lat="43.3713993" lon="12.5243401"><ele>447.0</ele><time>2026-05-01T10:38:47.466Z</time></trkpt><trkpt lat="43.3713821" lon="12.5245157"><ele>447.0</ele><time>2026-05-01T10:38:48.466Z</time></trkpt><trkpt lat="43.371375" lon="12.5246965"><ele>447.0</ele><time>2026-05-01T10:38:49.466Z</time></trkpt><trkpt lat="43.3713685" lon="12.5248752"><ele>447.0</ele><time>2026-05-01T10:38:50.466Z</time></trkpt><trkpt lat="43.3713659" lon="12.5250527"><ele>447.0</ele><time>2026-05-01T10:38:51.465Z</time></trkpt><trkpt lat="43.371362" lon="12.5252376"><ele>447.25</ele><time>2026-05-01T10:38:52.466Z</time></trkpt><trkpt lat="43.3713604" lon="12.5254239"><ele>447.5</ele><time>2026-05-01T10:38:53.466Z</time></trkpt><trkpt lat="43.3713562" lon="12.5256134"><ele>447.75</ele><time>2026-05-01T10:38:54.466Z</time></trkpt><trkpt lat="43.3713508" lon="12.5258063"><ele>448.0</ele><time>2026-05-01T10:38:55.466Z</time></trkpt><trkpt lat="43.371343" lon="12.5259946"><ele>446.4</ele><time>2026-05-01T10:38:56.465Z</time></trkpt><trkpt lat="43.3713346" lon="12.5261596"><ele>444.79999999999995</ele><time>2026-05-01T10:38:57.466Z</time></trkpt><trkpt lat="43.3713277" lon="12.526298"><ele>443.2</ele><time>2026-05-01T10:38:58.466Z</time></trkpt><trkpt lat="43.3713209" lon="12.5264164"><ele>441.6</ele><time>2026-05-01T10:38:59.466Z</time></trkpt><trkpt lat="43.3713189" lon="12.5265373"><ele>440.0</ele><time>2026-05-01T10:39:00.465Z</time></trkpt><trkpt lat="43.3713103" lon="12.5266694"><ele>440.0</ele><time>2026-05-01T10:39:01.466Z</time></trkpt><trkpt lat="43.3713009" lon="12.5268113"><ele>440.0</ele><time>2026-05-01T10:39:02.465Z</time></trkpt><trkpt lat="43.371285" lon="12.526947"><ele>440.0</ele><time>2026-05-01T10:39:03.466Z</time></trkpt><trkpt lat="43.3712633" lon="12.527068"><ele>440.0</ele><time>2026-05-01T10:39:04.466Z</time></trkpt><trkpt lat="43.3712361" lon="12.5271849"><ele>440.0</ele><time>2026-05-01T10:39:05.466Z</time></trkpt><trkpt lat="43.3712116" lon="12.5272818"><ele>440.57142857142856</ele><time>2026-05-01T10:39:06.466Z</time></trkpt><trkpt lat="43.3711859" lon="12.5273654"><ele>441.1428571428571</ele><time>2026-05-01T10:39:07.466Z</time></trkpt><trkpt lat="43.3711345" lon="12.527451"><ele>441.71428571428567</ele><time>2026-05-01T10:39:09.466Z</time></trkpt><trkpt lat="43.3710898" lon="12.5275291"><ele>442.2857142857143</ele><time>2026-05-01T10:39:12.466Z</time></trkpt><trkpt lat="43.3710775" lon="12.5276332"><ele>442.8571428571429</ele><time>2026-05-01T10:39:26.466Z</time></trkpt><trkpt lat="43.3710683" lon="12.5277515"><ele>443.4285714285714</ele><time>2026-05-01T10:39:28.466Z</time></trkpt><trkpt lat="43.371129" lon="12.5277769"><ele>444.0</ele><time>2026-05-01T10:39:30.466Z</time></trkpt><trkpt lat="43.3711472" lon="12.5276916"><ele>444.0</ele><time>2026-05-01T10:39:32.466Z</time></trkpt><trkpt lat="43.3711811" lon="12.5275211"><ele>444.0</ele><time>2026-05-01T10:39:34.466Z</time></trkpt><trkpt lat="43.3712235" lon="12.5273977"><ele>444.0</ele><time>2026-05-01T10:39:35.466Z</time></trkpt><trkpt lat="43.3712637" lon="12.5272545"><ele>444.0</ele><time>2026-05-01T10:39:36.466Z</time></trkpt><trkpt lat="43.3713035" lon="12.5270903"><ele>443.0</ele><time>2026-05-01T10:39:37.466Z</time></trkpt><trkpt lat="43.3713288" lon="12.5269075"><ele>442.0</ele><time>2026-05-01T10:39:38.466Z</time></trkpt><trkpt lat="43.3713458" lon="12.5267428"><ele>441.0</ele><time>2026-05-01T10:39:39.466Z</time></trkpt><trkpt lat="43.3713551" lon="12.5265833"><ele>440.0</ele><time>2026-05-01T10:39:40.466Z</time></trkpt><trkpt lat="43.37136" lon="12.5264244"><ele>441.3333333333333</ele><time>2026-05-01T10:39:41.465Z</time></trkpt><trkpt lat="43.3713666" lon="12.5262746"><ele>442.66666666666663</ele><time>2026-05-01T10:39:42.466Z</time></trkpt><trkpt lat="43.3713728" lon="12.5261507"><ele>444.0</ele><time>2026-05-01T10:39:43.466Z</time></trkpt><trkpt lat="43.3713774" lon="12.5260611"><ele>445.33333333333337</ele><time>2026-05-01T10:39:44.466Z</time></trkpt><trkpt lat="43.3713952" lon="12.5259716"><ele>446.6666666666667</ele><time>2026-05-01T10:39:46.466Z</time></trkpt><trkpt lat="43.3714461" lon="12.5259181"><ele>448.0</ele><time>2026-05-01T10:39:49.466Z</time></trkpt><trkpt lat="43.3715125" lon="12.5259401"><ele>448.0</ele><time>2026-05-01T10:39:53.466Z</time></trkpt></trkseg><trkseg><trkpt lat="43.3714849" lon="12.5260257"><ele>448.0</ele><time>2026-05-01T11:34:22.493Z</time></trkpt><trkpt lat="43.3714131" lon="12.5260014"><ele>447.99999999999994</ele><time>2026-05-01T11:34:53.493Z</time></trkpt><trkpt lat="43.3713671" lon="12.5260653"><ele>447.99999999999994</ele><time>2026-05-01T11:34:55.493Z</time></trkpt><trkpt lat="43.3713545" lon="12.5262572"><ele>448.0</ele><time>2026-05-01T11:34:57.493Z</time></trkpt><trkpt lat="43.371353" lon="12.5263701"><ele>448.0</ele><time>2026-05-01T11:34:58.493Z</time></trkpt><trkpt lat="43.371339" lon="12.5264938"><ele>447.0</ele><time>2026-05-01T11:34:59.493Z</time></trkpt><trkpt lat="43.371328" lon="12.5266365"><ele>446.0</ele><time>2026-05-01T11:35:00.493Z</time></trkpt><trkpt lat="43.3713165" lon="12.5267885"><ele>445.0</ele><time>2026-05-01T11:35:01.493Z</time></trkpt><trkpt lat="43.3712995" lon="12.5269475"><ele>444.0</ele><time>2026-05-01T11:35:02.492Z</time></trkpt><trkpt lat="43.371275" lon="12.5271073"><ele>444.0</ele><time>2026-05-01T11:35:03.493Z</time></trkpt><trkpt lat="43.3712418" lon="12.5272732"><ele>444.0</ele><time>2026-05-01T11:35:04.493Z</time></trkpt><trkpt lat="43.3711937" lon="12.5274296"><ele>444.0</ele><time>2026-05-01T11:35:05.493Z</time></trkpt><trkpt lat="43.3711351" lon="12.5275833"><ele>444.0</ele><time>2026-05-01T11:35:06.492Z</time></trkpt><trkpt lat="43.3710668" lon="12.5277411"><ele>445.5</ele><time>2026-05-01T11:35:07.493Z</time></trkpt><trkpt lat="43.3709953" lon="12.5278945"><ele>447.0</ele><time>2026-05-01T11:35:08.493Z</time></trkpt><trkpt lat="43.3709175" lon="12.5280496"><ele>448.5</ele><time>2026-05-01T11:35:09.493Z</time></trkpt><trkpt lat="43.370833" lon="12.5282034"><ele>450.0</ele><time>2026-05-01T11:35:10.492Z</time></trkpt><trkpt lat="43.3707462" lon="12.5283611"><ele>450.0</ele><time>2026-05-01T11:35:11.492Z</time></trkpt><trkpt lat="43.3706602" lon="12.5285187"><ele>450.0</ele><time>2026-05-01T11:35:12.493Z</time></trkpt><trkpt lat="43.3705703" lon="12.5286813"><ele>450.0</ele><time>2026-05-01T11:35:13.493Z</time></trkpt><trkpt lat="43.3704792" lon="12.5288426"><ele>450.0</ele><time>2026-05-01T11:35:14.493Z</time></trkpt><trkpt lat="43.3703882" lon="12.5290034"><ele>447.0</ele><time>2026-05-01T11:35:15.492Z</time></trkpt><trkpt lat="43.3702955" lon="12.5291657"><ele>444.0</ele><time>2026-05-01T11:35:16.493Z</time></trkpt><trkpt lat="43.370199" lon="12.5293259"><ele>441.0</ele><time>2026-05-01T11:35:17.492Z</time></trkpt><trkpt lat="43.3701014" lon="12.5294928"><ele>445.0</ele><time>2026-05-01T11:35:18.493Z</time></trkpt><trkpt lat="43.3700081" lon="12.5296669"><ele>449.0</ele><time>2026-05-01T11:35:19.493Z</time></trkpt><trkpt lat="43.3699104" lon="12.5298467"><ele>453.0</ele><time>2026-05-01T11:35:20.493Z</time></trkpt><trkpt lat="43.3698078" lon="12.5300277"><ele>453.0</ele><time>2026-05-01T11:35:21.493Z</time></trkpt><trkpt lat="43.369707" lon="12.5302018"><ele>453.0</ele><time>2026-05-01T11:35:22.492Z</time></trkpt><trkpt lat="43.3696062" lon="12.5303812"><ele>453.0</ele><time>2026-05-01T11:35:23.493Z</time></trkpt><trkpt lat="43.3695058" lon="12.5305604"><ele>451.33333333333337</ele><time>2026-05-01T11:35:24.493Z</time></trkpt><trkpt lat="43.3694058" lon="12.5307318"><ele>449.6666666666667</ele><time>2026-05-01T11:35:25.493Z</time></trkpt><trkpt lat="43.3692978" lon="12.5309022"><ele>448.0</ele><time>2026-05-01T11:35:26.493Z</time></trkpt><trkpt lat="43.3691859" lon="12.5310654"><ele>448.6666666666667</ele><time>2026-05-01T11:35:27.492Z</time></trkpt><trkpt lat="43.3690735" lon="12.5312277"><ele>449.33333333333337</ele><time>2026-05-01T11:35:28.493Z</time></trkpt><trkpt lat="43.3689606" lon="12.5313758"><ele>450.0</ele><time>2026-05-01T11:35:29.492Z</time></trkpt><trkpt lat="43.3688476" lon="12.5315259"><ele>450.0</ele><time>2026-05-01T11:35:30.493Z</time></trkpt><trkpt lat="43.3687361" lon="12.5316683"><ele>450.0</ele><time>2026-05-01T11:35:31.493Z</time></trkpt><trkpt lat="43.3686217" lon="12.5318197"><ele>450.0</ele><time>2026-05-01T11:35:32.493Z</time></trkpt><trkpt lat="43.3685096" lon="12.5319757"><ele>453.33333333333337</ele><time>2026-05-01T11:35:33.493Z</time></trkpt><trkpt lat="43.368398" lon="12.5321249"><ele>456.6666666666667</ele><time>2026-05-01T11:35:34.493Z</time></trkpt><trkpt lat="43.3682854" lon="12.5322755"><ele>460.0</ele><time>2026-05-01T11:35:35.493Z</time></trkpt><trkpt lat="43.3681749" lon="12.5324346"><ele>460.0</ele><time>2026-05-01T11:35:36.493Z</time></trkpt><trkpt lat="43.368062" lon="12.5325909"><ele>460.0</ele><time>2026-05-01T11:35:37.493Z</time></trkpt><trkpt lat="43.3679448" lon="12.5327375"><ele>460.0</ele><time>2026-05-01T11:35:38.493Z</time></trkpt><trkpt lat="43.3678283" lon="12.5328872"><ele>460.0</ele><time>2026-05-01T11:35:39.493Z</time></trkpt><trkpt lat="43.3677129" lon="12.5330289"><ele>460.0</ele><time>2026-05-01T11:35:40.492Z</time></trkpt><trkpt lat="43.3676029" lon="12.5331793"><ele>460.0</ele><time>2026-05-01T11:35:41.493Z</time></trkpt><trkpt lat="43.3674935" lon="12.5333266"><ele>460.0</ele><time>2026-05-01T11:35:42.493Z</time></trkpt><trkpt lat="43.3673842" lon="12.5334769"><ele>460.0</ele><time>2026-05-01T11:35:43.493Z</time></trkpt><trkpt lat="43.3672804" lon="12.5336202"><ele>460.0</ele><time>2026-05-01T11:35:44.493Z</time></trkpt><trkpt lat="43.367184" lon="12.5337541"><ele>460.0</ele><time>2026-05-01T11:35:45.492Z</time></trkpt><trkpt lat="43.3670899" lon="12.5338854"><ele>459.25</ele><time>2026-05-01T11:35:46.493Z</time></trkpt><trkpt lat="43.3669919" lon="12.5340217"><ele>458.5</ele><time>2026-05-01T11:35:47.493Z</time></trkpt><trkpt lat="43.3668913" lon="12.534157"><ele>457.75</ele><time>2026-05-01T11:35:48.492Z</time></trkpt><trkpt lat="43.3667945" lon="12.5342802"><ele>457.0</ele><time>2026-05-01T11:35:49.493Z</time></trkpt><trkpt lat="43.366701" lon="12.5343942"><ele>457.0</ele><time>2026-05-01T11:35:50.493Z</time></trkpt><trkpt lat="43.3666093" lon="12.5344982"><ele>457.0</ele><time>2026-05-01T11:35:51.492Z</time></trkpt><trkpt lat="43.3665082" lon="12.5345988"><ele>457.0</ele><time>2026-05-01T11:35:52.493Z</time></trkpt><trkpt lat="43.3663974" lon="12.5346895"><ele>457.0</ele><time>2026-05-01T11:35:53.493Z</time></trkpt><trkpt lat="43.366283" lon="12.5347823"><ele>458.75</ele><time>2026-05-01T11:35:54.492Z</time></trkpt><trkpt lat="43.3661642" lon="12.5348731"><ele>460.5</ele><time>2026-05-01T11:35:55.493Z</time></trkpt><trkpt lat="43.3660429" lon="12.5349586"><ele>462.25</ele><time>2026-05-01T11:35:56.492Z</time></trkpt><trkpt lat="43.365918" lon="12.5350427"><ele>464.0</ele><time>2026-05-01T11:35:57.493Z</time></trkpt><trkpt lat="43.3657922" lon="12.5351232"><ele>464.0</ele><time>2026-05-01T11:35:58.492Z</time></trkpt><trkpt lat="43.3656804" lon="12.5352045"><ele>464.0</ele><time>2026-05-01T11:35:59.492Z</time></trkpt><trkpt lat="43.3655767" lon="12.5352926"><ele>464.0</ele><time>2026-05-01T11:36:00.493Z</time></trkpt><trkpt lat="43.365477" lon="12.5353976"><ele>464.0</ele><time>2026-05-01T11:36:01.493Z</time></trkpt><trkpt lat="43.3653847" lon="12.5355199"><ele>465.5</ele><time>2026-05-01T11:36:02.493Z</time></trkpt><trkpt lat="43.3653176" lon="12.5356709"><ele>467.0</ele><time>2026-05-01T11:36:03.493Z</time></trkpt><trkpt lat="43.3652611" lon="12.5358296"><ele>468.5</ele><time>2026-05-01T11:36:04.492Z</time></trkpt><trkpt lat="43.3652197" lon="12.5360266"><ele>470.0</ele><time>2026-05-01T11:36:05.492Z</time></trkpt><trkpt lat="43.3651768" lon="12.5361771"><ele>470.2</ele><time>2026-05-01T11:36:06.492Z</time></trkpt><trkpt lat="43.3651438" lon="12.5362949"><ele>470.4</ele><time>2026-05-01T11:36:07.493Z</time></trkpt><trkpt lat="43.3651104" lon="12.5364241"><ele>470.6</ele><time>2026-05-01T11:36:08.493Z</time></trkpt><trkpt lat="43.3650634" lon="12.5365638"><ele>470.8</ele><time>2026-05-01T11:36:09.493Z</time></trkpt><trkpt lat="43.3650276" lon="12.536722"><ele>471.0</ele><time>2026-05-01T11:36:10.492Z</time></trkpt><trkpt lat="43.3649862" lon="12.5368882"><ele>471.25</ele><time>2026-05-01T11:36:11.492Z</time></trkpt><trkpt lat="43.3649415" lon="12.5370615"><ele>471.5</ele><time>2026-05-01T11:36:12.492Z</time></trkpt><trkpt lat="43.3648987" lon="12.5372425"><ele>471.75</ele><time>2026-05-01T11:36:13.493Z</time></trkpt><trkpt lat="43.3648597" lon="12.5374333"><ele>472.0</ele><time>2026-05-01T11:36:14.493Z</time></trkpt><trkpt lat="43.364824" lon="12.5376369"><ele>472.0</ele><time>2026-05-01T11:36:15.493Z</time></trkpt><trkpt lat="43.3647974" lon="12.5378472"><ele>472.0</ele><time>2026-05-01T11:36:16.492Z</time></trkpt><trkpt lat="43.3647784" lon="12.5380649"><ele>472.0</ele><time>2026-05-01T11:36:17.492Z</time></trkpt><trkpt lat="43.3647681" lon="12.5382834"><ele>472.6666666666667</ele><time>2026-05-01T11:36:18.493Z</time></trkpt><trkpt lat="43.3647635" lon="12.5385117"><ele>473.33333333333337</ele><time>2026-05-01T11:36:19.492Z</time></trkpt><trkpt lat="43.3647661" lon="12.5387361"><ele>474.0</ele><time>2026-05-01T11:36:20.492Z</time></trkpt><trkpt lat="43.3647735" lon="12.5389644"><ele>474.66666666666663</ele><time>2026-05-01T11:36:21.493Z</time></trkpt><trkpt lat="43.3647828" lon="12.5391919"><ele>475.3333333333333</ele><time>2026-05-01T11:36:22.493Z</time></trkpt><trkpt lat="43.3647873" lon="12.5393994"><ele>476.0</ele><time>2026-05-01T11:36:23.493Z</time></trkpt><trkpt lat="43.3647947" lon="12.5395989"><ele>476.25</ele><time>2026-05-01T11:36:24.492Z</time></trkpt><trkpt lat="43.3647939" lon="12.5398112"><ele>476.5</ele><time>2026-05-01T11:36:25.493Z</time></trkpt><trkpt lat="43.3647788" lon="12.540012"><ele>476.75</ele><time>2026-05-01T11:36:26.493Z</time></trkpt><trkpt lat="43.3647646" lon="12.5402006"><ele>477.0</ele><time>2026-05-01T11:36:27.493Z</time></trkpt><trkpt lat="43.3647412" lon="12.5403966"><ele>474.66666666666663</ele><time>2026-05-01T11:36:28.493Z</time></trkpt><trkpt lat="43.3646914" lon="12.5405934"><ele>472.3333333333333</ele><time>2026-05-01T11:36:29.493Z</time></trkpt><trkpt lat="43.3646394" lon="12.5407999"><ele>470.0</ele><time>2026-05-01T11:36:30.492Z</time></trkpt><trkpt lat="43.3645891" lon="12.5410177"><ele>471.3333333333333</ele><time>2026-05-01T11:36:31.493Z</time></trkpt><trkpt lat="43.3645325" lon="12.5412316"><ele>472.66666666666663</ele><time>2026-05-01T11:36:32.493Z</time></trkpt><trkpt lat="43.3644769" lon="12.5414546"><ele>474.0</ele><time>2026-05-01T11:36:33.493Z</time></trkpt><trkpt lat="43.3644265" lon="12.5416756"><ele>474.0</ele><time>2026-05-01T11:36:34.493Z</time></trkpt><trkpt lat="43.3643789" lon="12.5418891"><ele>474.0</ele><time>2026-05-01T11:36:35.493Z</time></trkpt><trkpt lat="43.3643312" lon="12.5421021"><ele>474.0</ele><time>2026-05-01T11:36:36.492Z</time></trkpt><trkpt lat="43.3642742" lon="12.54231"><ele>475.33333333333337</ele><time>2026-05-01T11:36:37.493Z</time></trkpt><trkpt lat="43.36422" lon="12.5425058"><ele>476.6666666666667</ele><time>2026-05-01T11:36:38.493Z</time></trkpt><trkpt lat="43.3641691" lon="12.5427086"><ele>478.0</ele><time>2026-05-01T11:36:39.492Z</time></trkpt><trkpt lat="43.3641185" lon="12.542912"><ele>478.5</ele><time>2026-05-01T11:36:40.493Z</time></trkpt><trkpt lat="43.3640708" lon="12.5431068"><ele>479.0</ele><time>2026-05-01T11:36:41.492Z</time></trkpt><trkpt lat="43.3640263" lon="12.5432926"><ele>479.5</ele><time>2026-05-01T11:36:42.493Z</time></trkpt><trkpt lat="43.3639778" lon="12.5434749"><ele>480.0</ele><time>2026-05-01T11:36:43.493Z</time></trkpt><trkpt lat="43.3639307" lon="12.54366"><ele>479.0</ele><time>2026-05-01T11:36:44.493Z</time></trkpt><trkpt lat="43.3638796" lon="12.5438548"><ele>478.0</ele><time>2026-05-01T11:36:45.493Z</time></trkpt><trkpt lat="43.3638341" lon="12.5440572"><ele>477.0</ele><time>2026-05-01T11:36:46.493Z</time></trkpt><trkpt lat="43.3637844" lon="12.5442596"><ele>475.0</ele><time>2026-05-01T11:36:47.492Z</time></trkpt><trkpt lat="43.3637339" lon="12.5444734"><ele>473.0</ele><time>2026-05-01T11:36:48.493Z</time></trkpt><trkpt lat="43.3636802" lon="12.5446882"><ele>471.0</ele><time>2026-05-01T11:36:49.493Z</time></trkpt><trkpt lat="43.3636277" lon="12.5449073"><ele>471.0</ele><time>2026-05-01T11:36:50.493Z</time></trkpt><trkpt lat="43.3635776" lon="12.5451263"><ele>471.0</ele><time>2026-05-01T11:36:51.493Z</time></trkpt><trkpt lat="43.3635216" lon="12.5453498"><ele>471.0</ele><time>2026-05-01T11:36:52.492Z</time></trkpt><trkpt lat="43.3634719" lon="12.5455531"><ele>471.75</ele><time>2026-05-01T11:36:53.493Z</time></trkpt><trkpt lat="43.3634275" lon="12.5457489"><ele>472.5</ele><time>2026-05-01T11:36:54.493Z</time></trkpt><trkpt lat="43.3633845" lon="12.5459356"><ele>473.25</ele><time>2026-05-01T11:36:55.493Z</time></trkpt><trkpt lat="43.3633462" lon="12.5461011"><ele>474.0</ele><time>2026-05-01T11:36:56.493Z</time></trkpt><trkpt lat="43.3633031" lon="12.5462666"><ele>475.75</ele><time>2026-05-01T11:36:57.493Z</time></trkpt><trkpt lat="43.3632638" lon="12.5464294"><ele>477.5</ele><time>2026-05-01T11:36:58.493Z</time></trkpt><trkpt lat="43.3632319" lon="12.5465921"><ele>479.25</ele><time>2026-05-01T11:36:59.493Z</time></trkpt><trkpt lat="43.3631952" lon="12.5467615"><ele>481.0</ele><time>2026-05-01T11:37:00.493Z</time></trkpt><trkpt lat="43.3631491" lon="12.5469386"><ele>480.5</ele><time>2026-05-01T11:37:01.493Z</time></trkpt><trkpt lat="43.3631002" lon="12.5471219"><ele>480.0</ele><time>2026-05-01T11:37:02.493Z</time></trkpt><trkpt lat="43.3630543" lon="12.547315"><ele>479.5</ele><time>2026-05-01T11:37:03.492Z</time></trkpt><trkpt lat="43.3630058" lon="12.5475095"><ele>479.0</ele><time>2026-05-01T11:37:04.493Z</time></trkpt><trkpt lat="43.3629561" lon="12.5477061"><ele>475.3333333333333</ele><time>2026-05-01T11:37:05.492Z</time></trkpt><trkpt lat="43.362904" lon="12.5479084"><ele>471.66666666666663</ele><time>2026-05-01T11:37:06.492Z</time></trkpt><trkpt lat="43.3628526" lon="12.5481145"><ele>468.0</ele><time>2026-05-01T11:37:07.492Z</time></trkpt><trkpt lat="43.3627997" lon="12.5483221"><ele>468.0</ele><time>2026-05-01T11:37:08.493Z</time></trkpt><trkpt lat="43.3627496" lon="12.5485335"><ele>468.0</ele><time>2026-05-01T11:37:09.493Z</time></trkpt><trkpt lat="43.3626985" lon="12.5487486"><ele>468.0</ele><time>2026-05-01T11:37:10.493Z</time></trkpt><trkpt lat="43.3626496" lon="12.5489622"><ele>468.66666666666663</ele><time>2026-05-01T11:37:11.493Z</time></trkpt><trkpt lat="43.362599" lon="12.5491793"><ele>469.3333333333333</ele><time>2026-05-01T11:37:12.493Z</time></trkpt><trkpt lat="43.3625478" lon="12.5493966"><ele>470.0</ele><time>2026-05-01T11:37:13.493Z</time></trkpt><trkpt lat="43.3624985" lon="12.5496023"><ele>470.5</ele><time>2026-05-01T11:37:14.493Z</time></trkpt><trkpt lat="43.362457" lon="12.5497879"><ele>471.0</ele><time>2026-05-01T11:37:15.492Z</time></trkpt><trkpt lat="43.3624141" lon="12.5499548"><ele>471.5</ele><time>2026-05-01T11:37:16.492Z</time></trkpt><trkpt lat="43.362382" lon="12.5501178"><ele>472.0</ele><time>2026-05-01T11:37:17.492Z</time></trkpt><trkpt lat="43.3623544" lon="12.5502654"><ele>472.1666666666667</ele><time>2026-05-01T11:37:18.493Z</time></trkpt><trkpt lat="43.3623294" lon="12.5503977"><ele>472.33333333333337</ele><time>2026-05-01T11:37:19.492Z</time></trkpt><trkpt lat="43.3623062" lon="12.5505132"><ele>472.5</ele><time>2026-05-01T11:37:20.493Z</time></trkpt><trkpt lat="43.3623053" lon="12.5506298"><ele>472.66666666666663</ele><time>2026-05-01T11:37:21.492Z</time></trkpt><trkpt lat="43.3623162" lon="12.5507219"><ele>472.8333333333333</ele><time>2026-05-01T11:37:22.493Z</time></trkpt><trkpt lat="43.3623545" lon="12.5508548"><ele>473.0</ele><time>2026-05-01T11:37:24.493Z</time></trkpt><trkpt lat="43.3623852" lon="12.5509703"><ele>473.0</ele><time>2026-05-01T11:37:27.492Z</time></trkpt><trkpt lat="43.3624178" lon="12.5510465"><ele>473.0</ele><time>2026-05-01T11:37:31.492Z</time></trkpt><trkpt lat="43.3624189" lon="12.5511533"><ele>473.0</ele><time>2026-05-01T11:42:09.493Z</time></trkpt><trkpt lat="43.3623828" lon="12.5512605"><ele>473.0</ele><time>2026-05-01T11:42:11.493Z</time></trkpt><trkpt lat="43.3623157" lon="12.5512756"><ele>473.0</ele><time>2026-05-01T11:42:13.492Z</time></trkpt><trkpt lat="43.3622384" lon="12.5512759"><ele>473.0</ele><time>2026-05-01T11:42:16.492Z</time></trkpt><trkpt lat="43.3621643" lon="12.5512837"><ele>473.0</ele><time>2026-05-01T11:42:26.491Z</time></trkpt><trkpt lat="43.3621174" lon="12.5514211"><ele>473.2</ele><time>2026-05-01T11:42:28.491Z</time></trkpt><trkpt lat="43.3620949" lon="12.5515299"><ele>473.4</ele><time>2026-05-01T11:42:29.492Z</time></trkpt><trkpt lat="43.3620705" lon="12.5516604"><ele>473.59999999999997</ele><time>2026-05-01T11:42:30.491Z</time></trkpt><trkpt lat="43.362045" lon="12.5517946"><ele>473.79999999999995</ele><time>2026-05-01T11:42:31.491Z</time></trkpt><trkpt lat="43.3620145" lon="12.5519412"><ele>474.0</ele><time>2026-05-01T11:42:32.492Z</time></trkpt><trkpt lat="43.3619726" lon="12.552103"><ele>474.2</ele><time>2026-05-01T11:42:33.492Z</time></trkpt><trkpt lat="43.3619387" lon="12.5522648"><ele>474.4</ele><time>2026-05-01T11:42:34.492Z</time></trkpt><trkpt lat="43.3619034" lon="12.5524084"><ele>474.6</ele><time>2026-05-01T11:42:35.492Z</time></trkpt><trkpt lat="43.3618724" lon="12.5525417"><ele>474.8</ele><time>2026-05-01T11:42:36.491Z</time></trkpt><trkpt lat="43.3618341" lon="12.5526571"><ele>475.0</ele><time>2026-05-01T11:42:37.492Z</time></trkpt><trkpt lat="43.3617699" lon="12.5527743"><ele>475.00000000000006</ele><time>2026-05-01T11:42:39.492Z</time></trkpt><trkpt lat="43.3616979" lon="12.5528163"><ele>475.0</ele><time>2026-05-01T11:42:41.492Z</time></trkpt><trkpt lat="43.3616345" lon="12.5528195"><ele>475.0</ele><time>2026-05-01T11:42:42.491Z</time></trkpt><trkpt lat="43.3615571" lon="12.5528455"><ele>475.0</ele><time>2026-05-01T11:42:43.491Z</time></trkpt><trkpt lat="43.3614894" lon="12.5528964"><ele>475.00000000000006</ele><time>2026-05-01T11:42:44.492Z</time></trkpt><trkpt lat="43.3614324" lon="12.5529979"><ele>475.0</ele><time>2026-05-01T11:42:45.492Z</time></trkpt><trkpt lat="43.3613809" lon="12.5531388"><ele>474.75</ele><time>2026-05-01T11:42:46.492Z</time></trkpt><trkpt lat="43.3613413" lon="12.5533005"><ele>474.5</ele><time>2026-05-01T11:42:47.492Z</time></trkpt><trkpt lat="43.3613411" lon="12.5534551"><ele>474.25</ele><time>2026-05-01T11:42:48.492Z</time></trkpt><trkpt lat="43.3613743" lon="12.5536133"><ele>474.0</ele><time>2026-05-01T11:42:49.492Z</time></trkpt><trkpt lat="43.3614435" lon="12.5537639"><ele>475.25</ele><time>2026-05-01T11:42:50.492Z</time></trkpt><trkpt lat="43.3615274" lon="12.5538525"><ele>476.5</ele><time>2026-05-01T11:42:51.491Z</time></trkpt><trkpt lat="43.3616337" lon="12.5539021"><ele>477.75</ele><time>2026-05-01T11:42:52.492Z</time></trkpt><trkpt lat="43.3617568" lon="12.5538974"><ele>479.0</ele><time>2026-05-01T11:42:53.492Z</time></trkpt><trkpt lat="43.3618711" lon="12.5538376"><ele>479.0</ele><time>2026-05-01T11:42:54.492Z</time></trkpt><trkpt lat="43.3620003" lon="12.5537751"><ele>479.0</ele><time>2026-05-01T11:42:55.492Z</time></trkpt><trkpt lat="43.362133" lon="12.5537282"><ele>479.0</ele><time>2026-05-01T11:42:56.492Z</time></trkpt><trkpt lat="43.3622737" lon="12.5537464"><ele>479.0</ele><time>2026-05-01T11:42:57.492Z</time></trkpt><trkpt lat="43.3624166" lon="12.5538228"><ele>479.25</ele><time>2026-05-01T11:42:58.492Z</time></trkpt><trkpt lat="43.3625437" lon="12.5539136"><ele>479.5</ele><time>2026-05-01T11:42:59.492Z</time></trkpt><trkpt lat="43.3626733" lon="12.5540234"><ele>479.75</ele><time>2026-05-01T11:43:00.492Z</time></trkpt><trkpt lat="43.3628038" lon="12.5541277"><ele>480.0</ele><time>2026-05-01T11:43:01.492Z</time></trkpt><trkpt lat="43.3629369" lon="12.5542348"><ele>480.66666666666663</ele><time>2026-05-01T11:43:02.492Z</time></trkpt><trkpt lat="43.363077" lon="12.5543382"><ele>481.3333333333333</ele><time>2026-05-01T11:43:03.492Z</time></trkpt><trkpt lat="43.3632138" lon="12.5544411"><ele>482.0</ele><time>2026-05-01T11:43:04.492Z</time></trkpt><trkpt lat="43.3633527" lon="12.5545422"><ele>482.5</ele><time>2026-05-01T11:43:05.492Z</time></trkpt><trkpt lat="43.363491" lon="12.5546447"><ele>483.0</ele><time>2026-05-01T11:43:06.491Z</time></trkpt><trkpt lat="43.3636168" lon="12.5547403"><ele>483.5</ele><time>2026-05-01T11:43:07.492Z</time></trkpt><trkpt lat="43.3637327" lon="12.5548389"><ele>484.0</ele><time>2026-05-01T11:43:08.492Z</time></trkpt><trkpt lat="43.3638322" lon="12.5549576"><ele>486.5</ele><time>2026-05-01T11:43:09.492Z</time></trkpt><trkpt lat="43.3639186" lon="12.5550971"><ele>489.0</ele><time>2026-05-01T11:43:10.492Z</time></trkpt><trkpt lat="43.3639906" lon="12.5552532"><ele>491.5</ele><time>2026-05-01T11:43:11.491Z</time></trkpt><trkpt lat="43.3640604" lon="12.5554257"><ele>494.0</ele><time>2026-05-01T11:43:12.492Z</time></trkpt><trkpt lat="43.3641254" lon="12.5556034"><ele>494.0</ele><time>2026-05-01T11:43:13.492Z</time></trkpt><trkpt lat="43.3641856" lon="12.5557735"><ele>494.0</ele><time>2026-05-01T11:43:14.491Z</time></trkpt><trkpt lat="43.3642561" lon="12.555934"><ele>494.0</ele><time>2026-05-01T11:43:15.492Z</time></trkpt><trkpt lat="43.3643444" lon="12.5560876"><ele>494.0</ele><time>2026-05-01T11:43:16.492Z</time></trkpt><trkpt lat="43.3644545" lon="12.556223"><ele>492.66666666666663</ele><time>2026-05-01T11:43:17.492Z</time></trkpt><trkpt lat="43.3645921" lon="12.556336"><ele>491.33333333333337</ele><time>2026-05-01T11:43:18.492Z</time></trkpt><trkpt lat="43.3647363" lon="12.5564422"><ele>490.0</ele><time>2026-05-01T11:43:19.492Z</time></trkpt><trkpt lat="43.3648808" lon="12.5565831"><ele>491.6666666666667</ele><time>2026-05-01T11:43:20.492Z</time></trkpt><trkpt lat="43.3650093" lon="12.5567519"><ele>493.33333333333337</ele><time>2026-05-01T11:43:21.492Z</time></trkpt><trkpt lat="43.3651292" lon="12.5569452"><ele>495.0</ele><time>2026-05-01T11:43:22.492Z</time></trkpt><trkpt lat="43.3652434" lon="12.5571459"><ele>495.0</ele><time>2026-05-01T11:43:23.492Z</time></trkpt><trkpt lat="43.3653965" lon="12.5573241"><ele>495.0</ele><time>2026-05-01T11:43:24.492Z</time></trkpt><trkpt lat="43.3655844" lon="12.5574772"><ele>495.0</ele><time>2026-05-01T11:43:25.491Z</time></trkpt><trkpt lat="43.3657776" lon="12.5576215"><ele>498.5</ele><time>2026-05-01T11:43:26.492Z</time></trkpt><trkpt lat="43.365973" lon="12.5577785"><ele>502.0</ele><time>2026-05-01T11:43:27.492Z</time></trkpt><trkpt lat="43.3661652" lon="12.5579357"><ele>502.0</ele><time>2026-05-01T11:43:28.492Z</time></trkpt><trkpt lat="43.3663599" lon="12.5580767"><ele>502.0</ele><time>2026-05-01T11:43:29.492Z</time></trkpt><trkpt lat="43.3665577" lon="12.5581818"><ele>502.0</ele><time>2026-05-01T11:43:30.491Z</time></trkpt><trkpt lat="43.3667587" lon="12.5582283"><ele>505.6666666666667</ele><time>2026-05-01T11:43:31.492Z</time></trkpt><trkpt lat="43.3669705" lon="12.5582345"><ele>509.33333333333337</ele><time>2026-05-01T11:43:32.492Z</time></trkpt><trkpt lat="43.3671831" lon="12.5582008"><ele>513.0</ele><time>2026-05-01T11:43:33.492Z</time></trkpt><trkpt lat="43.3673866" lon="12.5581465"><ele>513.0</ele><time>2026-05-01T11:43:34.492Z</time></trkpt><trkpt lat="43.3675843" lon="12.5580775"><ele>513.0</ele><time>2026-05-01T11:43:35.492Z</time></trkpt><trkpt lat="43.3677779" lon="12.5580109"><ele>513.0</ele><time>2026-05-01T11:43:36.492Z</time></trkpt><trkpt lat="43.3679659" lon="12.5579469"><ele>513.0</ele><time>2026-05-01T11:43:37.492Z</time></trkpt><trkpt lat="43.3681401" lon="12.5579007"><ele>513.0</ele><time>2026-05-01T11:43:38.492Z</time></trkpt><trkpt lat="43.368302" lon="12.5578796"><ele>513.0</ele><time>2026-05-01T11:43:39.492Z</time></trkpt><trkpt lat="43.3684493" lon="12.5578803"><ele>513.0</ele><time>2026-05-01T11:43:40.492Z</time></trkpt><trkpt lat="43.3685928" lon="12.5578998"><ele>513.0</ele><time>2026-05-01T11:43:41.492Z</time></trkpt><trkpt lat="43.3687299" lon="12.5579299"><ele>513.0</ele><time>2026-05-01T11:43:42.492Z</time></trkpt><trkpt lat="43.3688794" lon="12.5579761"><ele>513.0</ele><time>2026-05-01T11:43:43.492Z</time></trkpt><trkpt lat="43.3690189" lon="12.55804"><ele>518.0</ele><time>2026-05-01T11:43:44.492Z</time></trkpt><trkpt lat="43.369164" lon="12.5580828"><ele>523.0</ele><time>2026-05-01T11:43:45.492Z</time></trkpt><trkpt lat="43.3693204" lon="12.5580918"><ele>528.0</ele><time>2026-05-01T11:43:46.492Z</time></trkpt><trkpt lat="43.3694835" lon="12.5580726"><ele>528.0</ele><time>2026-05-01T11:43:47.492Z</time></trkpt><trkpt lat="43.3696487" lon="12.5580316"><ele>528.0</ele><time>2026-05-01T11:43:48.491Z</time></trkpt><trkpt lat="43.3698164" lon="12.5579838"><ele>528.0</ele><time>2026-05-01T11:43:49.491Z</time></trkpt><trkpt lat="43.3699868" lon="12.5579382"><ele>526.6666666666666</ele><time>2026-05-01T11:43:50.492Z</time></trkpt><trkpt lat="43.3701589" lon="12.5579049"><ele>525.3333333333333</ele><time>2026-05-01T11:43:51.491Z</time></trkpt><trkpt lat="43.3703323" lon="12.5578879"><ele>524.0</ele><time>2026-05-01T11:43:52.492Z</time></trkpt><trkpt lat="43.3705098" lon="12.5578987"><ele>521.3333333333333</ele><time>2026-05-01T11:43:53.492Z</time></trkpt><trkpt lat="43.3706868" lon="12.557926"><ele>518.6666666666666</ele><time>2026-05-01T11:43:54.492Z</time></trkpt><trkpt lat="43.3708643" lon="12.5579732"><ele>516.0</ele><time>2026-05-01T11:43:55.492Z</time></trkpt><trkpt lat="43.3710375" lon="12.5580285"><ele>516.0</ele><time>2026-05-01T11:43:56.492Z</time></trkpt><trkpt lat="43.3712191" lon="12.5580738"><ele>516.0</ele><time>2026-05-01T11:43:57.492Z</time></trkpt><trkpt lat="43.3713997" lon="12.5580994"><ele>516.0</ele><time>2026-05-01T11:43:58.492Z</time></trkpt><trkpt lat="43.3715743" lon="12.5580962"><ele>518.3333333333334</ele><time>2026-05-01T11:43:59.491Z</time></trkpt><trkpt lat="43.3717554" lon="12.5580636"><ele>520.6666666666667</ele><time>2026-05-01T11:44:00.492Z</time></trkpt><trkpt lat="43.3719352" lon="12.5580312"><ele>523.0</ele><time>2026-05-01T11:44:01.492Z</time></trkpt><trkpt lat="43.3721161" lon="12.5580114"><ele>527.6666666666667</ele><time>2026-05-01T11:44:02.492Z</time></trkpt><trkpt lat="43.3723015" lon="12.5580148"><ele>532.3333333333334</ele><time>2026-05-01T11:44:03.492Z</time></trkpt><trkpt lat="43.3724871" lon="12.5580579"><ele>537.0</ele><time>2026-05-01T11:44:04.492Z</time></trkpt><trkpt lat="43.3726711" lon="12.5581237"><ele>537.0</ele><time>2026-05-01T11:44:05.492Z</time></trkpt><trkpt lat="43.3728577" lon="12.5581918"><ele>537.0</ele><time>2026-05-01T11:44:06.492Z</time></trkpt><trkpt lat="43.3730466" lon="12.5582689"><ele>537.0</ele><time>2026-05-01T11:44:07.492Z</time></trkpt><trkpt lat="43.3732353" lon="12.5583398"><ele>544.3333333333334</ele><time>2026-05-01T11:44:08.492Z</time></trkpt><trkpt lat="43.3734194" lon="12.5584075"><ele>551.6666666666667</ele><time>2026-05-01T11:44:09.492Z</time></trkpt><trkpt lat="43.3736043" lon="12.5584779"><ele>559.0</ele><time>2026-05-01T11:44:10.492Z</time></trkpt><trkpt lat="43.3737948" lon="12.5585707"><ele>549.6666666666667</ele><time>2026-05-01T11:44:11.492Z</time></trkpt><trkpt lat="43.3739798" lon="12.5586743"><ele>540.3333333333334</ele><time>2026-05-01T11:44:12.492Z</time></trkpt><trkpt lat="43.3741663" lon="12.5587878"><ele>531.0</ele><time>2026-05-01T11:44:13.491Z</time></trkpt><trkpt lat="43.3743502" lon="12.5589003"><ele>531.0</ele><time>2026-05-01T11:44:14.492Z</time></trkpt><trkpt lat="43.3745353" lon="12.5590043"><ele>531.0</ele><time>2026-05-01T11:44:15.492Z</time></trkpt><trkpt lat="43.3747224" lon="12.5590983"><ele>531.0</ele><time>2026-05-01T11:44:16.492Z</time></trkpt><trkpt lat="43.3749094" lon="12.5591694"><ele>543.6666666666666</ele><time>2026-05-01T11:44:17.491Z</time></trkpt><trkpt lat="43.3751001" lon="12.5592192"><ele>556.3333333333333</ele><time>2026-05-01T11:44:18.491Z</time></trkpt><trkpt lat="43.37529" lon="12.5592687"><ele>569.0</ele><time>2026-05-01T11:44:19.492Z</time></trkpt><trkpt lat="43.37547" lon="12.5593487"><ele>574.6666666666666</ele><time>2026-05-01T11:44:20.491Z</time></trkpt><trkpt lat="43.3756502" lon="12.5594354"><ele>580.3333333333334</ele><time>2026-05-01T11:44:21.491Z</time></trkpt><trkpt lat="43.3758279" lon="12.5595338"><ele>586.0</ele><time>2026-05-01T11:44:22.491Z</time></trkpt><trkpt lat="43.3759957" lon="12.5596597"><ele>581.0</ele><time>2026-05-01T11:44:23.492Z</time></trkpt><trkpt lat="43.3761643" lon="12.5597735"><ele>576.0</ele><time>2026-05-01T11:44:24.492Z</time></trkpt><trkpt lat="43.3763349" lon="12.5598761"><ele>571.0</ele><time>2026-05-01T11:44:25.492Z</time></trkpt><trkpt lat="43.3765123" lon="12.5599895"><ele>571.0</ele><time>2026-05-01T11:44:26.492Z</time></trkpt><trkpt lat="43.376687" lon="12.5600974"><ele>571.0</ele><time>2026-05-01T11:44:27.492Z</time></trkpt><trkpt lat="43.3768668" lon="12.5601945"><ele>571.0</ele><time>2026-05-01T11:44:28.491Z</time></trkpt><trkpt lat="43.3770466" lon="12.5602791"><ele>566.0</ele><time>2026-05-01T11:44:29.491Z</time></trkpt><trkpt lat="43.377232" lon="12.5603513"><ele>561.0</ele><time>2026-05-01T11:44:30.492Z</time></trkpt><trkpt lat="43.3774209" lon="12.5604174"><ele>556.0</ele><time>2026-05-01T11:44:31.492Z</time></trkpt><trkpt lat="43.3775965" lon="12.5604761"><ele>556.0</ele><time>2026-05-01T11:44:32.492Z</time></trkpt><trkpt lat="43.3777572" lon="12.5605292"><ele>556.0</ele><time>2026-05-01T11:44:33.492Z</time></trkpt><trkpt lat="43.377903" lon="12.5605906"><ele>556.0</ele><time>2026-05-01T11:44:34.492Z</time></trkpt><trkpt lat="43.3780465" lon="12.5606691"><ele>565.6666666666667</ele><time>2026-05-01T11:44:35.492Z</time></trkpt><trkpt lat="43.3781911" lon="12.5607582"><ele>575.3333333333334</ele><time>2026-05-01T11:44:36.492Z</time></trkpt><trkpt lat="43.3783309" lon="12.5608715"><ele>585.0</ele><time>2026-05-01T11:44:37.492Z</time></trkpt><trkpt lat="43.3784571" lon="12.5610074"><ele>585.0</ele><time>2026-05-01T11:44:38.491Z</time></trkpt><trkpt lat="43.3785915" lon="12.5611563"><ele>585.0</ele><time>2026-05-01T11:44:39.492Z</time></trkpt><trkpt lat="43.3787348" lon="12.5613086"><ele>585.0</ele><time>2026-05-01T11:44:40.492Z</time></trkpt><trkpt lat="43.3788798" lon="12.5614637"><ele>585.0</ele><time>2026-05-01T11:44:41.492Z</time></trkpt><trkpt lat="43.3790377" lon="12.5616179"><ele>585.0</ele><time>2026-05-01T11:44:42.492Z</time></trkpt><trkpt lat="43.3792017" lon="12.5617688"><ele>585.0</ele><time>2026-05-01T11:44:43.492Z</time></trkpt><trkpt lat="43.3793795" lon="12.5619061"><ele>581.0</ele><time>2026-05-01T11:44:44.492Z</time></trkpt><trkpt lat="43.3795542" lon="12.5620464"><ele>577.0</ele><time>2026-05-01T11:44:45.492Z</time></trkpt><trkpt lat="43.379728" lon="12.5621815"><ele>573.0</ele><time>2026-05-01T11:44:46.492Z</time></trkpt><trkpt lat="43.3799067" lon="12.5623138"><ele>573.0</ele><time>2026-05-01T11:44:47.492Z</time></trkpt><trkpt lat="43.3800829" lon="12.5624498"><ele>573.0</ele><time>2026-05-01T11:44:48.492Z</time></trkpt><trkpt lat="43.3802603" lon="12.5625808"><ele>573.0</ele><time>2026-05-01T11:44:49.492Z</time></trkpt><trkpt lat="43.380448" lon="12.5626948"><ele>573.0</ele><time>2026-05-01T11:44:50.492Z</time></trkpt><trkpt lat="43.3806523" lon="12.5627697"><ele>573.0</ele><time>2026-05-01T11:44:51.491Z</time></trkpt><trkpt lat="43.3808556" lon="12.562837"><ele>573.0</ele><time>2026-05-01T11:44:52.492Z</time></trkpt><trkpt lat="43.3810606" lon="12.5628908"><ele>573.0</ele><time>2026-05-01T11:44:53.492Z</time></trkpt><trkpt lat="43.3812571" lon="12.5629315"><ele>573.0</ele><time>2026-05-01T11:44:54.492Z</time></trkpt><trkpt lat="43.3814533" lon="12.5629654"><ele>573.0</ele><time>2026-05-01T11:44:55.492Z</time></trkpt><trkpt lat="43.3816438" lon="12.5629969"><ele>576.3333333333334</ele><time>2026-05-01T11:44:56.492Z</time></trkpt><trkpt lat="43.3818323" lon="12.5630316"><ele>579.6666666666667</ele><time>2026-05-01T11:44:57.492Z</time></trkpt><trkpt lat="43.3820217" lon="12.563072"><ele>583.0</ele><time>2026-05-01T11:44:58.492Z</time></trkpt><trkpt lat="43.3822055" lon="12.5631266"><ele>588.3333333333334</ele><time>2026-05-01T11:44:59.492Z</time></trkpt><trkpt lat="43.3823873" lon="12.563208"><ele>593.6666666666666</ele><time>2026-05-01T11:45:00.492Z</time></trkpt><trkpt lat="43.3825624" lon="12.5633274"><ele>599.0</ele><time>2026-05-01T11:45:01.492Z</time></trkpt><trkpt lat="43.382729" lon="12.5634635"><ele>599.0</ele><time>2026-05-01T11:45:02.492Z</time></trkpt><trkpt lat="43.3828796" lon="12.5636327"><ele>599.0</ele><time>2026-05-01T11:45:03.492Z</time></trkpt><trkpt lat="43.3830281" lon="12.56382"><ele>599.0</ele><time>2026-05-01T11:45:04.492Z</time></trkpt><trkpt lat="43.3831663" lon="12.5640264"><ele>600.3333333333333</ele><time>2026-05-01T11:45:05.492Z</time></trkpt><trkpt lat="43.3833011" lon="12.5642389"><ele>601.6666666666666</ele><time>2026-05-01T11:45:06.491Z</time></trkpt><trkpt lat="43.3834297" lon="12.5644426"><ele>603.0</ele><time>2026-05-01T11:45:07.492Z</time></trkpt><trkpt lat="43.3835605" lon="12.5646483"><ele>603.0</ele><time>2026-05-01T11:45:08.491Z</time></trkpt><trkpt lat="43.3836916" lon="12.5648514"><ele>603.0</ele><time>2026-05-01T11:45:09.492Z</time></trkpt><trkpt lat="43.3838165" lon="12.5650567"><ele>603.0</ele><time>2026-05-01T11:45:10.491Z</time></trkpt><trkpt lat="43.3839415" lon="12.565264"><ele>605.6666666666666</ele><time>2026-05-01T11:45:11.491Z</time></trkpt><trkpt lat="43.3840679" lon="12.5654632"><ele>608.3333333333333</ele><time>2026-05-01T11:45:12.492Z</time></trkpt><trkpt lat="43.3841914" lon="12.5656605"><ele>611.0</ele><time>2026-05-01T11:45:13.492Z</time></trkpt><trkpt lat="43.3843183" lon="12.5658591"><ele>611.0</ele><time>2026-05-01T11:45:14.492Z</time></trkpt><trkpt lat="43.3844455" lon="12.5660526"><ele>611.0</ele><time>2026-05-01T11:45:15.492Z</time></trkpt><trkpt lat="43.3845794" lon="12.5662346"><ele>611.0</ele><time>2026-05-01T11:45:16.492Z</time></trkpt><trkpt lat="43.384707" lon="12.5663965"><ele>612.8333333333333</ele><time>2026-05-01T11:45:17.492Z</time></trkpt><trkpt lat="43.3848044" lon="12.5664832"><ele>614.6666666666666</ele><time>2026-05-01T11:45:18.492Z</time></trkpt><trkpt lat="43.3848622" lon="12.566535"><ele>616.5</ele><time>2026-05-01T11:45:19.492Z</time></trkpt><trkpt lat="43.3848604" lon="12.5666367"><ele>618.3333333333334</ele><time>2026-05-01T11:45:24.492Z</time></trkpt><trkpt lat="43.3848982" lon="12.5667252"><ele>620.1666666666667</ele><time>2026-05-01T11:45:26.492Z</time></trkpt><trkpt lat="43.384959" lon="12.5668545"><ele>622.0</ele><time>2026-05-01T11:45:28.492Z</time></trkpt><trkpt lat="43.3849879" lon="12.5669568"><ele>620.75</ele><time>2026-05-01T11:45:29.491Z</time></trkpt><trkpt lat="43.3850106" lon="12.5671165"><ele>619.5</ele><time>2026-05-01T11:45:30.492Z</time></trkpt><trkpt lat="43.3850513" lon="12.5673216"><ele>618.25</ele><time>2026-05-01T11:45:31.491Z</time></trkpt><trkpt lat="43.3851" lon="12.5675105"><ele>617.0</ele><time>2026-05-01T11:45:32.491Z</time></trkpt><trkpt lat="43.3851824" lon="12.5676825"><ele>617.0</ele><time>2026-05-01T11:45:33.492Z</time></trkpt><trkpt lat="43.3852857" lon="12.5678206"><ele>617.0</ele><time>2026-05-01T11:45:34.491Z</time></trkpt><trkpt lat="43.3854027" lon="12.5679487"><ele>617.0</ele><time>2026-05-01T11:45:35.492Z</time></trkpt><trkpt lat="43.385525" lon="12.5680824"><ele>619.6666666666666</ele><time>2026-05-01T11:45:36.491Z</time></trkpt><trkpt lat="43.3856438" lon="12.5682349"><ele>622.3333333333334</ele><time>2026-05-01T11:45:37.491Z</time></trkpt><trkpt lat="43.385746" lon="12.5683973"><ele>625.0</ele><time>2026-05-01T11:45:38.492Z</time></trkpt><trkpt lat="43.3858355" lon="12.568567"><ele>624.0</ele><time>2026-05-01T11:45:39.492Z</time></trkpt><trkpt lat="43.3859081" lon="12.5687375"><ele>623.0</ele><time>2026-05-01T11:45:40.492Z</time></trkpt><trkpt lat="43.3859656" lon="12.5688946"><ele>622.0</ele><time>2026-05-01T11:45:41.492Z</time></trkpt><trkpt lat="43.3860261" lon="12.5690369"><ele>621.0</ele><time>2026-05-01T11:45:42.492Z</time></trkpt><trkpt lat="43.3861252" lon="12.5691483"><ele>621.0</ele><time>2026-05-01T11:45:43.491Z</time></trkpt><trkpt lat="43.3862416" lon="12.5692452"><ele>621.0</ele><time>2026-05-01T11:45:44.491Z</time></trkpt><trkpt lat="43.3863696" lon="12.5693313"><ele>621.0</ele><time>2026-05-01T11:45:45.492Z</time></trkpt><trkpt lat="43.3864989" lon="12.5694025"><ele>621.0</ele><time>2026-05-01T11:45:46.492Z</time></trkpt><trkpt lat="43.3866422" lon="12.5694416"><ele>623.5</ele><time>2026-05-01T11:45:47.492Z</time></trkpt><trkpt lat="43.3867824" lon="12.5694318"><ele>626.0</ele><time>2026-05-01T11:45:48.491Z</time></trkpt><trkpt lat="43.3869087" lon="12.569369"><ele>628.5</ele><time>2026-05-01T11:45:49.492Z</time></trkpt><trkpt lat="43.387025" lon="12.5692823"><ele>631.0</ele><time>2026-05-01T11:45:50.491Z</time></trkpt><trkpt lat="43.3871212" lon="12.5691612"><ele>631.6</ele><time>2026-05-01T11:45:51.491Z</time></trkpt><trkpt lat="43.387207" lon="12.5690875"><ele>632.2</ele><time>2026-05-01T11:45:52.492Z</time></trkpt><trkpt lat="43.3873081" lon="12.5691153"><ele>632.8</ele><time>2026-05-01T11:45:53.491Z</time></trkpt><trkpt lat="43.3874183" lon="12.5691397"><ele>633.4</ele><time>2026-05-01T11:45:54.492Z</time></trkpt><trkpt lat="43.3875253" lon="12.5691588"><ele>634.0</ele><time>2026-05-01T11:45:55.492Z</time></trkpt><trkpt lat="43.3876211" lon="12.5691959"><ele>634.0</ele><time>2026-05-01T11:45:56.492Z</time></trkpt><trkpt lat="43.387714" lon="12.5692369"><ele>634.0</ele><time>2026-05-01T11:45:57.492Z</time></trkpt><trkpt lat="43.3878098" lon="12.5692847"><ele>634.0</ele><time>2026-05-01T11:45:58.492Z</time></trkpt><trkpt lat="43.387891" lon="12.5693657"><ele>634.0</ele><time>2026-05-01T11:45:59.491Z</time></trkpt><trkpt lat="43.3879637" lon="12.5694955"><ele>634.0</ele><time>2026-05-01T11:46:00.491Z</time></trkpt><trkpt lat="43.3880215" lon="12.5696293"><ele>638.0</ele><time>2026-05-01T11:46:01.492Z</time></trkpt><trkpt lat="43.3880542" lon="12.5697819"><ele>642.0</ele><time>2026-05-01T11:46:02.492Z</time></trkpt><trkpt lat="43.3880862" lon="12.5699509"><ele>646.0</ele><time>2026-05-01T11:46:03.492Z</time></trkpt><trkpt lat="43.388124" lon="12.5701285"><ele>650.0</ele><time>2026-05-01T11:46:04.492Z</time></trkpt><trkpt lat="43.38817" lon="12.5703109"><ele>650.75</ele><time>2026-05-01T11:46:05.492Z</time></trkpt><trkpt lat="43.3882262" lon="12.5704739"><ele>651.5</ele><time>2026-05-01T11:46:06.492Z</time></trkpt><trkpt lat="43.3882956" lon="12.5706341"><ele>652.25</ele><time>2026-05-01T11:46:07.492Z</time></trkpt><trkpt lat="43.3883725" lon="12.5707972"><ele>653.0</ele><time>2026-05-01T11:46:08.491Z</time></trkpt><trkpt lat="43.3884538" lon="12.5709417"><ele>653.0</ele><time>2026-05-01T11:46:09.492Z</time></trkpt><trkpt lat="43.3885269" lon="12.5710846"><ele>653.0</ele><time>2026-05-01T11:46:10.491Z</time></trkpt><trkpt lat="43.3886015" lon="12.5712462"><ele>653.0</ele><time>2026-05-01T11:46:11.492Z</time></trkpt><trkpt lat="43.3886732" lon="12.5714164"><ele>653.0</ele><time>2026-05-01T11:46:12.492Z</time></trkpt><trkpt lat="43.3887529" lon="12.5715991"><ele>658.0</ele><time>2026-05-01T11:46:13.492Z</time></trkpt><trkpt lat="43.3888351" lon="12.5717938"><ele>663.0</ele><time>2026-05-01T11:46:14.492Z</time></trkpt><trkpt lat="43.3889209" lon="12.571996"><ele>668.0</ele><time>2026-05-01T11:46:15.491Z</time></trkpt><trkpt lat="43.3890051" lon="12.5721931"><ele>668.6666666666666</ele><time>2026-05-01T11:46:16.492Z</time></trkpt><trkpt lat="43.3890888" lon="12.5723909"><ele>669.3333333333334</ele><time>2026-05-01T11:46:17.492Z</time></trkpt><trkpt lat="43.3891805" lon="12.5725798"><ele>670.0</ele><time>2026-05-01T11:46:18.492Z</time></trkpt><trkpt lat="43.389287" lon="12.5727521"><ele>671.0</ele><time>2026-05-01T11:46:19.492Z</time></trkpt><trkpt lat="43.3893952" lon="12.5729204"><ele>672.0</ele><time>2026-05-01T11:46:20.492Z</time></trkpt><trkpt lat="43.3894788" lon="12.5731148"><ele>673.0</ele><time>2026-05-01T11:46:21.492Z</time></trkpt><trkpt lat="43.3895658" lon="12.5732967"><ele>673.0</ele><time>2026-05-01T11:46:22.492Z</time></trkpt><trkpt lat="43.3896681" lon="12.573463"><ele>673.0</ele><time>2026-05-01T11:46:23.492Z</time></trkpt><trkpt lat="43.3897863" lon="12.5736044"><ele>673.0</ele><time>2026-05-01T11:46:24.492Z</time></trkpt><trkpt lat="43.3898971" lon="12.5737371"><ele>675.5</ele><time>2026-05-01T11:46:25.492Z</time></trkpt><trkpt lat="43.3899827" lon="12.5738955"><ele>678.0</ele><time>2026-05-01T11:46:26.492Z</time></trkpt><trkpt lat="43.3900579" lon="12.5740587"><ele>680.5</ele><time>2026-05-01T11:46:27.492Z</time></trkpt><trkpt lat="43.3901408" lon="12.5741995"><ele>683.0</ele><time>2026-05-01T11:46:28.492Z</time></trkpt><trkpt lat="43.3902359" lon="12.574322"><ele>683.0</ele><time>2026-05-01T11:46:29.492Z</time></trkpt><trkpt lat="43.3903304" lon="12.574443"><ele>683.0</ele><time>2026-05-01T11:46:30.492Z</time></trkpt><trkpt lat="43.3904168" lon="12.574549"><ele>683.0</ele><time>2026-05-01T11:46:31.492Z</time></trkpt><trkpt lat="43.3904902" lon="12.5746527"><ele>683.0</ele><time>2026-05-01T11:46:32.492Z</time></trkpt><trkpt lat="43.3905549" lon="12.5747703"><ele>686.5</ele><time>2026-05-01T11:46:33.491Z</time></trkpt><trkpt lat="43.3906061" lon="12.5749191"><ele>690.0</ele><time>2026-05-01T11:46:34.492Z</time></trkpt><trkpt lat="43.3906304" lon="12.5750863"><ele>693.5</ele><time>2026-05-01T11:46:35.492Z</time></trkpt><trkpt lat="43.3906538" lon="12.5752461"><ele>697.0</ele><time>2026-05-01T11:46:36.491Z</time></trkpt><trkpt lat="43.3906868" lon="12.5754085"><ele>697.0</ele><time>2026-05-01T11:46:37.491Z</time></trkpt><trkpt lat="43.3907396" lon="12.5755464"><ele>697.0</ele><time>2026-05-01T11:46:38.491Z</time></trkpt><trkpt lat="43.3907916" lon="12.5756949"><ele>697.0</ele><time>2026-05-01T11:46:39.491Z</time></trkpt><trkpt lat="43.3908488" lon="12.5758447"><ele>697.0</ele><time>2026-05-01T11:46:40.492Z</time></trkpt><trkpt lat="43.3909143" lon="12.5759872"><ele>697.0</ele><time>2026-05-01T11:46:41.492Z</time></trkpt><trkpt lat="43.3909911" lon="12.5761154"><ele>697.0</ele><time>2026-05-01T11:46:42.492Z</time></trkpt><trkpt lat="43.3910781" lon="12.5762322"><ele>697.0</ele><time>2026-05-01T11:46:43.491Z</time></trkpt><trkpt lat="43.3911645" lon="12.5763346"><ele>697.0</ele><time>2026-05-01T11:46:44.492Z</time></trkpt><trkpt lat="43.3912544" lon="12.576432"><ele>701.25</ele><time>2026-05-01T11:46:45.492Z</time></trkpt><trkpt lat="43.3913446" lon="12.576535"><ele>705.5</ele><time>2026-05-01T11:46:46.492Z</time></trkpt><trkpt lat="43.3914351" lon="12.5766502"><ele>709.75</ele><time>2026-05-01T11:46:47.492Z</time></trkpt><trkpt lat="43.3915148" lon="12.5767889"><ele>714.0</ele><time>2026-05-01T11:46:48.492Z</time></trkpt><trkpt lat="43.3915812" lon="12.5769368"><ele>713.25</ele><time>2026-05-01T11:46:49.492Z</time></trkpt><trkpt lat="43.3916492" lon="12.577094"><ele>712.5</ele><time>2026-05-01T11:46:50.491Z</time></trkpt><trkpt lat="43.3917333" lon="12.5772454"><ele>711.75</ele><time>2026-05-01T11:46:51.492Z</time></trkpt><trkpt lat="43.3918334" lon="12.5773942"><ele>711.0</ele><time>2026-05-01T11:46:52.491Z</time></trkpt><trkpt lat="43.3919271" lon="12.5775424"><ele>711.0</ele><time>2026-05-01T11:46:53.492Z</time></trkpt><trkpt lat="43.3919996" lon="12.5776901"><ele>711.0</ele><time>2026-05-01T11:46:54.492Z</time></trkpt><trkpt lat="43.3920416" lon="12.5778531"><ele>711.0</ele><time>2026-05-01T11:46:55.492Z</time></trkpt><trkpt lat="43.3920722" lon="12.5780191"><ele>711.0</ele><time>2026-05-01T11:46:56.492Z</time></trkpt><trkpt lat="43.39212" lon="12.5781744"><ele>712.75</ele><time>2026-05-01T11:46:57.492Z</time></trkpt><trkpt lat="43.3922037" lon="12.5783347"><ele>714.5</ele><time>2026-05-01T11:46:58.492Z</time></trkpt><trkpt lat="43.3923008" lon="12.5784803"><ele>716.25</ele><time>2026-05-01T11:46:59.491Z</time></trkpt><trkpt lat="43.3923962" lon="12.5786136"><ele>718.0</ele><time>2026-05-01T11:47:00.491Z</time></trkpt><trkpt lat="43.3924808" lon="12.5787601"><ele>718.25</ele><time>2026-05-01T11:47:01.492Z</time></trkpt><trkpt lat="43.3925551" lon="12.5789299"><ele>718.5</ele><time>2026-05-01T11:47:02.492Z</time></trkpt><trkpt lat="43.3926314" lon="12.5791059"><ele>718.75</ele><time>2026-05-01T11:47:03.492Z</time></trkpt><trkpt lat="43.3927028" lon="12.5792906"><ele>719.0</ele><time>2026-05-01T11:47:04.492Z</time></trkpt><trkpt lat="43.3927749" lon="12.5794766"><ele>720.25</ele><time>2026-05-01T11:47:05.491Z</time></trkpt><trkpt lat="43.3928517" lon="12.5796647"><ele>721.5</ele><time>2026-05-01T11:47:06.491Z</time></trkpt><trkpt lat="43.3929252" lon="12.5798365"><ele>722.75</ele><time>2026-05-01T11:47:07.492Z</time></trkpt><trkpt lat="43.3929871" lon="12.5799833"><ele>724.0</ele><time>2026-05-01T11:47:08.492Z</time></trkpt><trkpt lat="43.3930354" lon="12.58009"><ele>724.6666666666667</ele><time>2026-05-01T11:47:09.492Z</time></trkpt><trkpt lat="43.3930696" lon="12.5801704"><ele>725.3333333333334</ele><time>2026-05-01T11:47:10.492Z</time></trkpt><trkpt lat="43.3931195" lon="12.5803228"><ele>726.0</ele><time>2026-05-01T11:47:12.492Z</time></trkpt><trkpt lat="43.3931545" lon="12.5804272"><ele>726.6666666666666</ele><time>2026-05-01T11:47:14.492Z</time></trkpt><trkpt lat="43.3932074" lon="12.5805163"><ele>727.3333333333333</ele><time>2026-05-01T11:47:16.492Z</time></trkpt><trkpt lat="43.3932459" lon="12.5806028"><ele>728.0</ele><time>2026-05-01T11:47:17.492Z</time></trkpt><trkpt lat="43.3932832" lon="12.5807062"><ele>728.0</ele><time>2026-05-01T11:47:18.492Z</time></trkpt><trkpt lat="43.3933257" lon="12.5808352"><ele>728.0</ele><time>2026-05-01T11:47:19.492Z</time></trkpt><trkpt lat="43.3933583" lon="12.580972"><ele>728.0</ele><time>2026-05-01T11:47:20.491Z</time></trkpt><trkpt lat="43.3933646" lon="12.5811149"><ele>728.0</ele><time>2026-05-01T11:47:21.492Z</time></trkpt><trkpt lat="43.3933446" lon="12.5812472"><ele>728.0</ele><time>2026-05-01T11:47:22.492Z</time></trkpt><trkpt lat="43.3932953" lon="12.5813705"><ele>726.4</ele><time>2026-05-01T11:47:24.492Z</time></trkpt><trkpt lat="43.3932854" lon="12.5815082"><ele>724.8</ele><time>2026-05-01T11:47:26.492Z</time></trkpt><trkpt lat="43.3934138" lon="12.5815113"><ele>723.2</ele><time>2026-05-01T11:47:28.492Z</time></trkpt><trkpt lat="43.3934828" lon="12.5814553"><ele>721.6</ele><time>2026-05-01T11:47:29.491Z</time></trkpt><trkpt lat="43.3935469" lon="12.5813869"><ele>720.0</ele><time>2026-05-01T11:47:30.492Z</time></trkpt><trkpt lat="43.3936397" lon="12.5813682"><ele>720.0</ele><time>2026-05-01T11:47:31.492Z</time></trkpt><trkpt lat="43.3937399" lon="12.5814592"><ele>720.0</ele><time>2026-05-01T11:47:32.491Z</time></trkpt><trkpt lat="43.3938013" lon="12.5815527"><ele>720.0</ele><time>2026-05-01T11:47:33.492Z</time></trkpt><trkpt lat="43.3938401" lon="12.5816733"><ele>720.0</ele><time>2026-05-01T11:47:34.491Z</time></trkpt><trkpt lat="43.3938375" lon="12.5817837"><ele>720.0</ele><time>2026-05-01T11:47:35.491Z</time></trkpt><trkpt lat="43.3938256" lon="12.5818976"><ele>716.8</ele><time>2026-05-01T11:47:36.492Z</time></trkpt><trkpt lat="43.3938416" lon="12.5820045"><ele>713.6</ele><time>2026-05-01T11:47:37.491Z</time></trkpt><trkpt lat="43.3939015" lon="12.5820982"><ele>710.4000000000001</ele><time>2026-05-01T11:47:38.492Z</time></trkpt><trkpt lat="43.3939533" lon="12.5822235"><ele>707.2</ele><time>2026-05-01T11:47:39.492Z</time></trkpt><trkpt lat="43.3939975" lon="12.5823756"><ele>704.0</ele><time>2026-05-01T11:47:40.492Z</time></trkpt><trkpt lat="43.3940215" lon="12.582538"><ele>704.4000000000001</ele><time>2026-05-01T11:47:41.492Z</time></trkpt><trkpt lat="43.3940379" lon="12.5826888"><ele>704.8</ele><time>2026-05-01T11:47:42.492Z</time></trkpt><trkpt lat="43.3940521" lon="12.5828379"><ele>705.2</ele><time>2026-05-01T11:47:43.491Z</time></trkpt><trkpt lat="43.3940737" lon="12.5829697"><ele>705.5999999999999</ele><time>2026-05-01T11:47:44.492Z</time></trkpt><trkpt lat="43.3941056" lon="12.5830841"><ele>706.0</ele><time>2026-05-01T11:47:45.492Z</time></trkpt><trkpt lat="43.3941615" lon="12.5831655"><ele>706.0</ele><time>2026-05-01T11:47:46.492Z</time></trkpt><trkpt lat="43.3942194" lon="12.5832193"><ele>706.0</ele><time>2026-05-01T11:47:47.492Z</time></trkpt><trkpt lat="43.3942827" lon="12.5832509"><ele>706.0</ele><time>2026-05-01T11:47:48.492Z</time></trkpt><trkpt lat="43.3943564" lon="12.5832723"><ele>706.0</ele><time>2026-05-01T11:47:49.491Z</time></trkpt><trkpt lat="43.3944286" lon="12.5832687"><ele>706.0</ele><time>2026-05-01T11:47:50.492Z</time></trkpt><trkpt lat="43.3945055" lon="12.5832585"><ele>706.0</ele><time>2026-05-01T11:47:51.492Z</time></trkpt><trkpt lat="43.3945947" lon="12.583245"><ele>705.1999999999999</ele><time>2026-05-01T11:47:52.491Z</time></trkpt><trkpt lat="43.3946855" lon="12.5832575"><ele>704.4</ele><time>2026-05-01T11:47:53.492Z</time></trkpt><trkpt lat="43.3947839" lon="12.5832923"><ele>703.6</ele><time>2026-05-01T11:47:54.491Z</time></trkpt><trkpt lat="43.3948787" lon="12.5833359"><ele>702.8</ele><time>2026-05-01T11:47:55.492Z</time></trkpt><trkpt lat="43.3949712" lon="12.5833932"><ele>702.0</ele><time>2026-05-01T11:47:56.492Z</time></trkpt><trkpt lat="43.3950647" lon="12.5834595"><ele>702.0</ele><time>2026-05-01T11:47:57.492Z</time></trkpt><trkpt lat="43.3951491" lon="12.5835254"><ele>702.0</ele><time>2026-05-01T11:47:58.491Z</time></trkpt><trkpt lat="43.3952315" lon="12.5835985"><ele>702.0</ele><time>2026-05-01T11:47:59.491Z</time></trkpt><trkpt lat="43.3953087" lon="12.5836802"><ele>702.0</ele><time>2026-05-01T11:48:00.492Z</time></trkpt><trkpt lat="43.3953737" lon="12.5837691"><ele>702.0</ele><time>2026-05-01T11:48:01.491Z</time></trkpt><trkpt lat="43.3954265" lon="12.5838677"><ele>703.6666666666666</ele><time>2026-05-01T11:48:02.492Z</time></trkpt><trkpt lat="43.3954657" lon="12.583964"><ele>705.3333333333334</ele><time>2026-05-01T11:48:03.492Z</time></trkpt><trkpt lat="43.3955033" lon="12.5840635"><ele>707.0</ele><time>2026-05-01T11:48:04.492Z</time></trkpt><trkpt lat="43.3955352" lon="12.5841646"><ele>708.6666666666667</ele><time>2026-05-01T11:48:05.491Z</time></trkpt><trkpt lat="43.3955634" lon="12.5842737"><ele>710.3333333333334</ele><time>2026-05-01T11:48:06.492Z</time></trkpt><trkpt lat="43.3955881" lon="12.5843805"><ele>712.0</ele><time>2026-05-01T11:48:07.491Z</time></trkpt><trkpt lat="43.3956032" lon="12.5844785"><ele>715.0</ele><time>2026-05-01T11:48:08.492Z</time></trkpt><trkpt lat="43.3956129" lon="12.584576"><ele>718.0</ele><time>2026-05-01T11:48:09.492Z</time></trkpt><trkpt lat="43.3956109" lon="12.5846736"><ele>721.0</ele><time>2026-05-01T11:48:10.492Z</time></trkpt><trkpt lat="43.3956127" lon="12.5847972"><ele>724.0</ele><time>2026-05-01T11:48:12.492Z</time></trkpt><trkpt lat="43.3956431" lon="12.584885"><ele>727.0</ele><time>2026-05-01T11:48:20.491Z</time></trkpt><trkpt lat="43.3956666" lon="12.5849673"><ele>730.0</ele><time>2026-05-01T11:48:22.492Z</time></trkpt><trkpt lat="43.3956508" lon="12.5851129"><ele>730.0</ele><time>2026-05-01T11:48:32.492Z</time></trkpt><trkpt lat="43.3956637" lon="12.5852217"><ele>730.0</ele><time>2026-05-01T11:48:33.492Z</time></trkpt><trkpt lat="43.3956903" lon="12.5853707"><ele>730.0</ele><time>2026-05-01T11:48:34.492Z</time></trkpt><trkpt lat="43.3957248" lon="12.5854965"><ele>730.0</ele><time>2026-05-01T11:48:35.492Z</time></trkpt><trkpt lat="43.3957743" lon="12.5856227"><ele>730.0</ele><time>2026-05-01T11:48:36.492Z</time></trkpt><trkpt lat="43.3958386" lon="12.5857048"><ele>730.8333333333334</ele><time>2026-05-01T11:48:37.492Z</time></trkpt><trkpt lat="43.3959117" lon="12.5857326"><ele>731.6666666666667</ele><time>2026-05-01T11:48:38.492Z</time></trkpt><trkpt lat="43.3959857" lon="12.5856991"><ele>732.5</ele><time>2026-05-01T11:48:39.492Z</time></trkpt><trkpt lat="43.396056" lon="12.5856662"><ele>733.3333333333334</ele><time>2026-05-01T11:48:40.492Z</time></trkpt><trkpt lat="43.3961319" lon="12.5856538"><ele>734.1666666666666</ele><time>2026-05-01T11:48:41.491Z</time></trkpt><trkpt lat="43.3962011" lon="12.5856866"><ele>735.0</ele><time>2026-05-01T11:48:42.491Z</time></trkpt><trkpt lat="43.3962676" lon="12.5857543"><ele>735.0</ele><time>2026-05-01T11:48:43.492Z</time></trkpt><trkpt lat="43.3963285" lon="12.5858385"><ele>735.0</ele><time>2026-05-01T11:48:44.492Z</time></trkpt><trkpt lat="43.3963891" lon="12.5859323"><ele>735.0</ele><time>2026-05-01T11:48:45.492Z</time></trkpt><trkpt lat="43.3964633" lon="12.5860283"><ele>735.0</ele><time>2026-05-01T11:48:46.492Z</time></trkpt><trkpt lat="43.3965455" lon="12.5861366"><ele>735.0</ele><time>2026-05-01T11:48:47.491Z</time></trkpt><trkpt lat="43.396617" lon="12.5862627"><ele>739.25</ele><time>2026-05-01T11:48:48.492Z</time></trkpt><trkpt lat="43.3966869" lon="12.586382"><ele>743.5</ele><time>2026-05-01T11:48:49.491Z</time></trkpt><trkpt lat="43.3967547" lon="12.5865182"><ele>747.75</ele><time>2026-05-01T11:48:50.492Z</time></trkpt><trkpt lat="43.3968132" lon="12.5866567"><ele>752.0</ele><time>2026-05-01T11:48:51.5Z</time></trkpt><trkpt lat="43.3968838" lon="12.5867952"><ele>752.0</ele><time>2026-05-01T11:48:52.5Z</time></trkpt><trkpt lat="43.3969546" lon="12.5869193"><ele>752.0</ele><time>2026-05-01T11:48:53.5Z</time></trkpt><trkpt lat="43.3970131" lon="12.5870272"><ele>752.0</ele><time>2026-05-01T11:48:54.5Z</time></trkpt><trkpt lat="43.3970582" lon="12.5871259"><ele>752.0</ele><time>2026-05-01T11:48:55.499Z</time></trkpt><trkpt lat="43.3970806" lon="12.5872449"><ele>752.0</ele><time>2026-05-01T11:48:56.5Z</time></trkpt><trkpt lat="43.3970778" lon="12.5873881"><ele>753.8</ele><time>2026-05-01T11:48:57.499Z</time></trkpt><trkpt lat="43.3970575" lon="12.5875308"><ele>755.6</ele><time>2026-05-01T11:48:58.5Z</time></trkpt><trkpt lat="43.3970365" lon="12.5876781"><ele>757.4</ele><time>2026-05-01T11:48:59.499Z</time></trkpt><trkpt lat="43.3970469" lon="12.587798"><ele>759.1999999999999</ele><time>2026-05-01T11:49:00.5Z</time></trkpt><trkpt lat="43.3970909" lon="12.5878802"><ele>761.0</ele><time>2026-05-01T11:49:01.5Z</time></trkpt><trkpt lat="43.3971691" lon="12.5879449"><ele>763.5999999999999</ele><time>2026-05-01T11:49:02.499Z</time></trkpt><trkpt lat="43.3972586" lon="12.587989"><ele>766.2</ele><time>2026-05-01T11:49:03.499Z</time></trkpt><trkpt lat="43.397361" lon="12.5880391"><ele>768.8</ele><time>2026-05-01T11:49:04.5Z</time></trkpt><trkpt lat="43.3974504" lon="12.5881112"><ele>771.4000000000001</ele><time>2026-05-01T11:49:05.5Z</time></trkpt><trkpt lat="43.3975277" lon="12.5881889"><ele>774.0</ele><time>2026-05-01T11:49:06.499Z</time></trkpt><trkpt lat="43.397569" lon="12.5882716"><ele>774.0</ele><time>2026-05-01T11:49:07.5Z</time></trkpt><trkpt lat="43.3975747" lon="12.5884064"><ele>774.0</ele><time>2026-05-01T11:49:09.5Z</time></trkpt><trkpt lat="43.3975798" lon="12.5884984"><ele>774.0</ele><time>2026-05-01T11:49:11.5Z</time></trkpt><trkpt lat="43.39758" lon="12.5885952"><ele>774.0</ele><time>2026-05-01T11:50:30.5Z</time></trkpt><trkpt lat="43.3975509" lon="12.5885109"><ele>774.0</ele><time>2026-05-01T11:50:42.5Z</time></trkpt><trkpt lat="43.3974752" lon="12.5885474"><ele>774.0</ele><time>2026-05-01T11:51:03.499Z</time></trkpt><trkpt lat="43.3974251" lon="12.5886496"><ele>773.6</ele><time>2026-05-01T11:51:05.5Z</time></trkpt><trkpt lat="43.3974055" lon="12.5887611"><ele>773.2</ele><time>2026-05-01T11:51:06.5Z</time></trkpt><trkpt lat="43.3973899" lon="12.5888572"><ele>772.8000000000001</ele><time>2026-05-01T11:51:07.5Z</time></trkpt><trkpt lat="43.3973782" lon="12.5890005"><ele>772.4000000000001</ele><time>2026-05-01T11:51:09.5Z</time></trkpt><trkpt lat="43.3973631" lon="12.5891542"><ele>772.0</ele><time>2026-05-01T11:51:11.5Z</time></trkpt><trkpt lat="43.3973441" lon="12.5893093"><ele>772.0</ele><time>2026-05-01T11:51:13.499Z</time></trkpt><trkpt lat="43.3973399" lon="12.5894613"><ele>772.0</ele><time>2026-05-01T11:51:15.5Z</time></trkpt><trkpt lat="43.3973515" lon="12.5895917"><ele>772.0</ele><time>2026-05-01T11:51:17.5Z</time></trkpt><trkpt lat="43.3973615" lon="12.5897478"><ele>772.0</ele><time>2026-05-01T11:51:19.5Z</time></trkpt><trkpt lat="43.3974" lon="12.5899105"><ele>772.0</ele><time>2026-05-01T11:51:21.5Z</time></trkpt><trkpt lat="43.3974206" lon="12.5900028"><ele>771.8333333333333</ele><time>2026-05-01T11:51:22.5Z</time></trkpt><trkpt lat="43.3974331" lon="12.590103"><ele>771.6666666666666</ele><time>2026-05-01T11:51:23.499Z</time></trkpt><trkpt lat="43.3974401" lon="12.5902003"><ele>771.5</ele><time>2026-05-01T11:51:24.5Z</time></trkpt><trkpt lat="43.3974504" lon="12.5903081"><ele>771.3333333333333</ele><time>2026-05-01T11:51:25.5Z</time></trkpt><trkpt lat="43.3974595" lon="12.5904196"><ele>771.1666666666666</ele><time>2026-05-01T11:51:26.5Z</time></trkpt><trkpt lat="43.397477" lon="12.5905267"><ele>771.0</ele><time>2026-05-01T11:51:27.499Z</time></trkpt><trkpt lat="43.3974934" lon="12.5906207"><ele>771.0</ele><time>2026-05-01T11:51:28.5Z</time></trkpt><trkpt lat="43.3974786" lon="12.5907574"><ele>771.0</ele><time>2026-05-01T11:51:30.5Z</time></trkpt><trkpt lat="43.3974019" lon="12.5908028"><ele>771.0</ele><time>2026-05-01T11:51:32.5Z</time></trkpt><trkpt lat="43.3973051" lon="12.5907764"><ele>771.0</ele><time>2026-05-01T11:51:34.5Z</time></trkpt><trkpt lat="43.3971968" lon="12.5907065"><ele>771.0</ele><time>2026-05-01T11:51:36.5Z</time></trkpt><trkpt lat="43.3970839" lon="12.5906416"><ele>773.0</ele><time>2026-05-01T11:51:38.499Z</time></trkpt><trkpt lat="43.397017" lon="12.5906075"><ele>775.0</ele><time>2026-05-01T11:51:39.5Z</time></trkpt><trkpt lat="43.3969458" lon="12.5905737"><ele>777.0</ele><time>2026-05-01T11:51:40.499Z</time></trkpt><trkpt lat="43.396871" lon="12.590553"><ele>779.0</ele><time>2026-05-01T11:51:41.499Z</time></trkpt><trkpt lat="43.3967946" lon="12.5905401"><ele>781.0</ele><time>2026-05-01T11:51:42.5Z</time></trkpt><trkpt lat="43.3967139" lon="12.5905449"><ele>783.0</ele><time>2026-05-01T11:51:43.5Z</time></trkpt><trkpt lat="43.3966251" lon="12.5905614"><ele>783.0</ele><time>2026-05-01T11:51:44.499Z</time></trkpt><trkpt lat="43.3965414" lon="12.5905894"><ele>783.0</ele><time>2026-05-01T11:51:45.5Z</time></trkpt><trkpt lat="43.3964541" lon="12.5906012"><ele>783.0</ele><time>2026-05-01T11:51:46.5Z</time></trkpt><trkpt lat="43.3963611" lon="12.5905846"><ele>783.0</ele><time>2026-05-01T11:51:47.499Z</time></trkpt><trkpt lat="43.3962566" lon="12.5905714"><ele>783.0</ele><time>2026-05-01T11:51:48.5Z</time></trkpt><trkpt lat="43.3961593" lon="12.5905578"><ele>784.6666666666666</ele><time>2026-05-01T11:51:49.5Z</time></trkpt><trkpt lat="43.3960683" lon="12.5905579"><ele>786.3333333333333</ele><time>2026-05-01T11:51:50.5Z</time></trkpt><trkpt lat="43.3959785" lon="12.5905852"><ele>788.0</ele><time>2026-05-01T11:51:51.499Z</time></trkpt><trkpt lat="43.39589" lon="12.5906167"><ele>789.6666666666666</ele><time>2026-05-01T11:51:52.5Z</time></trkpt><trkpt lat="43.3958067" lon="12.5906158"><ele>791.3333333333333</ele><time>2026-05-01T11:51:53.499Z</time></trkpt><trkpt lat="43.3957233" lon="12.5905806"><ele>793.0</ele><time>2026-05-01T11:51:54.5Z</time></trkpt><trkpt lat="43.3956409" lon="12.5905174"><ele>793.0</ele><time>2026-05-01T11:51:55.5Z</time></trkpt><trkpt lat="43.3955382" lon="12.5904352"><ele>793.0</ele><time>2026-05-01T11:51:56.5Z</time></trkpt><trkpt lat="43.3954224" lon="12.590375"><ele>793.0</ele><time>2026-05-01T11:51:57.5Z</time></trkpt><trkpt lat="43.3952997" lon="12.5903459"><ele>793.0</ele><time>2026-05-01T11:51:58.5Z</time></trkpt><trkpt lat="43.3951778" lon="12.5903372"><ele>795.25</ele><time>2026-05-01T11:51:59.5Z</time></trkpt><trkpt lat="43.3950523" lon="12.590336"><ele>797.5</ele><time>2026-05-01T11:52:00.5Z</time></trkpt><trkpt lat="43.3949288" lon="12.5903207"><ele>799.75</ele><time>2026-05-01T11:52:01.5Z</time></trkpt><trkpt lat="43.3947993" lon="12.5903097"><ele>802.0</ele><time>2026-05-01T11:52:02.5Z</time></trkpt><trkpt lat="43.3946676" lon="12.5902958"><ele>803.25</ele><time>2026-05-01T11:52:03.5Z</time></trkpt><trkpt lat="43.3945349" lon="12.5902755"><ele>804.5</ele><time>2026-05-01T11:52:04.5Z</time></trkpt><trkpt lat="43.394398" lon="12.5902397"><ele>805.75</ele><time>2026-05-01T11:52:05.499Z</time></trkpt><trkpt lat="43.3942562" lon="12.5901852"><ele>807.0</ele><time>2026-05-01T11:52:06.5Z</time></trkpt><trkpt lat="43.3941163" lon="12.590136"><ele>807.0</ele><time>2026-05-01T11:52:07.499Z</time></trkpt><trkpt lat="43.3939889" lon="12.5901029"><ele>807.0</ele><time>2026-05-01T11:52:08.499Z</time></trkpt><trkpt lat="43.3938833" lon="12.5900849"><ele>807.0</ele><time>2026-05-01T11:52:09.5Z</time></trkpt><trkpt lat="43.3937899" lon="12.5900703"><ele>807.0</ele><time>2026-05-01T11:52:10.5Z</time></trkpt><trkpt lat="43.3937088" lon="12.5900608"><ele>807.0</ele><time>2026-05-01T11:52:11.5Z</time></trkpt><trkpt lat="43.3936373" lon="12.5900671"><ele>807.0</ele><time>2026-05-01T11:52:12.499Z</time></trkpt><trkpt lat="43.3935773" lon="12.5901235"><ele>807.0</ele><time>2026-05-01T11:52:13.5Z</time></trkpt><trkpt lat="43.3935143" lon="12.5902262"><ele>807.0</ele><time>2026-05-01T11:52:14.499Z</time></trkpt><trkpt lat="43.3934498" lon="12.5903634"><ele>807.0</ele><time>2026-05-01T11:52:15.5Z</time></trkpt><trkpt lat="43.3933858" lon="12.5905184"><ele>807.0</ele><time>2026-05-01T11:52:16.5Z</time></trkpt><trkpt lat="43.3933352" lon="12.5906746"><ele>807.8</ele><time>2026-05-01T11:52:17.5Z</time></trkpt><trkpt lat="43.3932872" lon="12.5908264"><ele>808.6</ele><time>2026-05-01T11:52:18.5Z</time></trkpt><trkpt lat="43.3932383" lon="12.5909589"><ele>809.4</ele><time>2026-05-01T11:52:19.5Z</time></trkpt><trkpt lat="43.393188" lon="12.5910794"><ele>810.1999999999999</ele><time>2026-05-01T11:52:20.5Z</time></trkpt><trkpt lat="43.3931425" lon="12.5911814"><ele>811.0</ele><time>2026-05-01T11:52:21.5Z</time></trkpt><trkpt lat="43.3931053" lon="12.5912625"><ele>811.0</ele><time>2026-05-01T11:52:22.5Z</time></trkpt><trkpt lat="43.3930742" lon="12.5913608"><ele>811.0</ele><time>2026-05-01T11:52:25.499Z</time></trkpt><trkpt lat="43.3930871" lon="12.5914879"><ele>811.0</ele><time>2026-05-01T11:52:49.5Z</time></trkpt><trkpt lat="43.3931113" lon="12.5916132"><ele>811.0</ele><time>2026-05-01T11:52:51.499Z</time></trkpt><trkpt lat="43.3931262" lon="12.5916991"><ele>811.0</ele><time>2026-05-01T11:52:52.5Z</time></trkpt><trkpt lat="43.3931377" lon="12.5918663"><ele>810.9999999999999</ele><time>2026-05-01T11:52:54.5Z</time></trkpt><trkpt lat="43.3931256" lon="12.5919536"><ele>811.0</ele><time>2026-05-01T11:52:55.5Z</time></trkpt><trkpt lat="43.3931071" lon="12.5920426"><ele>811.0</ele><time>2026-05-01T11:52:56.5Z</time></trkpt><trkpt lat="43.3930694" lon="12.5921294"><ele>811.0</ele><time>2026-05-01T11:52:57.5Z</time></trkpt><trkpt lat="43.3929581" lon="12.5922128"><ele>810.9999999999999</ele><time>2026-05-01T11:52:59.499Z</time></trkpt><trkpt lat="43.3928884" lon="12.5922243"><ele>811.0</ele><time>2026-05-01T11:53:00.5Z</time></trkpt><trkpt lat="43.3928299" lon="12.5922619"><ele>813.1666666666666</ele><time>2026-05-01T11:53:01.5Z</time></trkpt><trkpt lat="43.392789" lon="12.5923428"><ele>815.3333333333333</ele><time>2026-05-01T11:53:02.5Z</time></trkpt><trkpt lat="43.3927609" lon="12.5924551"><ele>817.5</ele><time>2026-05-01T11:53:03.499Z</time></trkpt><trkpt lat="43.3927017" lon="12.5925977"><ele>819.6666666666667</ele><time>2026-05-01T11:53:05.5Z</time></trkpt><trkpt lat="43.3926513" lon="12.5926821"><ele>821.8333333333334</ele><time>2026-05-01T11:53:06.5Z</time></trkpt><trkpt lat="43.3926034" lon="12.5927403"><ele>824.0</ele><time>2026-05-01T11:53:07.5Z</time></trkpt><trkpt lat="43.3924822" lon="12.592818"><ele>821.4000000000001</ele><time>2026-05-01T11:53:09.5Z</time></trkpt><trkpt lat="43.3924248" lon="12.5928717"><ele>818.8</ele><time>2026-05-01T11:53:10.5Z</time></trkpt><trkpt lat="43.3923924" lon="12.5930335"><ele>816.2</ele><time>2026-05-01T11:53:12.5Z</time></trkpt><trkpt lat="43.3924012" lon="12.5931494"><ele>813.5999999999999</ele><time>2026-05-01T11:53:13.499Z</time></trkpt><trkpt lat="43.3924128" lon="12.5932797"><ele>811.0</ele><time>2026-05-01T11:53:14.5Z</time></trkpt><trkpt lat="43.3924217" lon="12.5934286"><ele>811.0</ele><time>2026-05-01T11:53:15.5Z</time></trkpt><trkpt lat="43.3924315" lon="12.5935599"><ele>811.0</ele><time>2026-05-01T11:53:16.5Z</time></trkpt><trkpt lat="43.3924351" lon="12.5936998"><ele>811.0</ele><time>2026-05-01T11:53:17.5Z</time></trkpt><trkpt lat="43.3924513" lon="12.5938247"><ele>811.0</ele><time>2026-05-01T11:53:18.5Z</time></trkpt><trkpt lat="43.3924503" lon="12.5939527"><ele>811.0</ele><time>2026-05-01T11:53:20.499Z</time></trkpt><trkpt lat="43.3923877" lon="12.5939906"><ele>809.4</ele><time>2026-05-01T11:53:22.5Z</time></trkpt><trkpt lat="43.3922695" lon="12.5940584"><ele>807.8</ele><time>2026-05-01T11:53:24.499Z</time></trkpt><trkpt lat="43.392183" lon="12.5941241"><ele>806.1999999999999</ele><time>2026-05-01T11:53:25.5Z</time></trkpt><trkpt lat="43.392115" lon="12.5942158"><ele>804.5999999999999</ele><time>2026-05-01T11:53:26.5Z</time></trkpt><trkpt lat="43.3920859" lon="12.5943224"><ele>803.0</ele><time>2026-05-01T11:53:27.5Z</time></trkpt><trkpt lat="43.3920647" lon="12.5944305"><ele>807.5000000000001</ele><time>2026-05-01T11:53:28.5Z</time></trkpt><trkpt lat="43.3920339" lon="12.594509"><ele>812.0</ele><time>2026-05-01T11:53:29.5Z</time></trkpt><trkpt lat="43.3919468" lon="12.5946202"><ele>816.5</ele><time>2026-05-01T11:53:31.5Z</time></trkpt><trkpt lat="43.3918836" lon="12.5946778"><ele>821.0</ele><time>2026-05-01T11:53:33.5Z</time></trkpt><trkpt lat="43.3918463" lon="12.5948071"><ele>825.5000000000001</ele><time>2026-05-01T11:53:35.5Z</time></trkpt><trkpt lat="43.3918354" lon="12.5948992"><ele>830.0</ele><time>2026-05-01T11:53:36.5Z</time></trkpt><trkpt lat="43.3918173" lon="12.5950062"><ele>830.0000000000001</ele><time>2026-05-01T11:53:37.499Z</time></trkpt><trkpt lat="43.3917874" lon="12.5951113"><ele>830.0</ele><time>2026-05-01T11:53:38.499Z</time></trkpt><trkpt lat="43.3917325" lon="12.5951813"><ele>830.0</ele><time>2026-05-01T11:53:39.5Z</time></trkpt><trkpt lat="43.3916557" lon="12.595233"><ele>830.0</ele><time>2026-05-01T11:53:40.499Z</time></trkpt><trkpt lat="43.3915743" lon="12.5952443"><ele>830.0000000000001</ele><time>2026-05-01T11:53:41.5Z</time></trkpt><trkpt lat="43.3914839" lon="12.5952266"><ele>830.0</ele><time>2026-05-01T11:53:42.5Z</time></trkpt><trkpt lat="43.3913901" lon="12.5952019"><ele>830.3333333333334</ele><time>2026-05-01T11:53:43.5Z</time></trkpt><trkpt lat="43.391313" lon="12.595172"><ele>830.6666666666667</ele><time>2026-05-01T11:53:44.5Z</time></trkpt><trkpt lat="43.3912519" lon="12.5951406"><ele>831.0</ele><time>2026-05-01T11:53:45.5Z</time></trkpt><trkpt lat="43.3911879" lon="12.5951338"><ele>831.3333333333333</ele><time>2026-05-01T11:53:46.5Z</time></trkpt><trkpt lat="43.3911149" lon="12.5951535"><ele>831.6666666666666</ele><time>2026-05-01T11:53:47.5Z</time></trkpt><trkpt lat="43.3910334" lon="12.5951853"><ele>832.0</ele><time>2026-05-01T11:53:48.5Z</time></trkpt><trkpt lat="43.3909496" lon="12.5952207"><ele>831.9999999999999</ele><time>2026-05-01T11:53:49.5Z</time></trkpt><trkpt lat="43.3908733" lon="12.5952753"><ele>832.0</ele><time>2026-05-01T11:53:50.5Z</time></trkpt><trkpt lat="43.3908092" lon="12.5953365"><ele>832.0</ele><time>2026-05-01T11:53:51.499Z</time></trkpt><trkpt lat="43.3907577" lon="12.5954241"><ele>832.0</ele><time>2026-05-01T11:53:52.499Z</time></trkpt><trkpt lat="43.3907248" lon="12.5955467"><ele>831.9999999999999</ele><time>2026-05-01T11:53:53.5Z</time></trkpt><trkpt lat="43.3907056" lon="12.5956847"><ele>832.0</ele><time>2026-05-01T11:53:54.5Z</time></trkpt><trkpt lat="43.3907019" lon="12.5958253"><ele>833.0</ele><time>2026-05-01T11:53:55.499Z</time></trkpt><trkpt lat="43.39069" lon="12.5959671"><ele>834.0</ele><time>2026-05-01T11:53:56.5Z</time></trkpt><trkpt lat="43.3906849" lon="12.5961172"><ele>835.0</ele><time>2026-05-01T11:53:57.5Z</time></trkpt><trkpt lat="43.3906971" lon="12.5962605"><ele>836.0</ele><time>2026-05-01T11:53:58.5Z</time></trkpt><trkpt lat="43.3907279" lon="12.596389"><ele>837.0</ele><time>2026-05-01T11:53:59.499Z</time></trkpt><trkpt lat="43.3907751" lon="12.5965071"><ele>837.2</ele><time>2026-05-01T11:54:00.5Z</time></trkpt><trkpt lat="43.3908375" lon="12.5966149"><ele>837.4000000000001</ele><time>2026-05-01T11:54:01.5Z</time></trkpt><trkpt lat="43.3909033" lon="12.5967285"><ele>837.5999999999999</ele><time>2026-05-01T11:54:02.499Z</time></trkpt><trkpt lat="43.3909551" lon="12.5968371"><ele>837.8</ele><time>2026-05-01T11:54:03.5Z</time></trkpt><trkpt lat="43.3909913" lon="12.5969494"><ele>838.0</ele><time>2026-05-01T11:54:04.499Z</time></trkpt><trkpt lat="43.3909965" lon="12.5970665"><ele>839.0</ele><time>2026-05-01T11:54:05.499Z</time></trkpt><trkpt lat="43.3909636" lon="12.5971624"><ele>840.0</ele><time>2026-05-01T11:54:06.5Z</time></trkpt><trkpt lat="43.3909074" lon="12.5972494"><ele>841.0</ele><time>2026-05-01T11:54:07.5Z</time></trkpt><trkpt lat="43.3908339" lon="12.5973441"><ele>842.0</ele><time>2026-05-01T11:54:08.499Z</time></trkpt><trkpt lat="43.3907516" lon="12.5974581"><ele>843.0</ele><time>2026-05-01T11:54:09.499Z</time></trkpt><trkpt lat="43.3906745" lon="12.5975898"><ele>843.0</ele><time>2026-05-01T11:54:10.499Z</time></trkpt><trkpt lat="43.3905977" lon="12.5977289"><ele>843.0</ele><time>2026-05-01T11:54:11.5Z</time></trkpt><trkpt lat="43.3905279" lon="12.5978696"><ele>843.0</ele><time>2026-05-01T11:54:12.5Z</time></trkpt><trkpt lat="43.3904608" lon="12.5980012"><ele>843.0</ele><time>2026-05-01T11:54:13.5Z</time></trkpt><trkpt lat="43.3903764" lon="12.5981074"><ele>842.8333333333334</ele><time>2026-05-01T11:54:14.5Z</time></trkpt><trkpt lat="43.3902968" lon="12.5981918"><ele>842.6666666666667</ele><time>2026-05-01T11:54:15.5Z</time></trkpt><trkpt lat="43.3902296" lon="12.5982468"><ele>842.5</ele><time>2026-05-01T11:54:16.5Z</time></trkpt><trkpt lat="43.3901708" lon="12.5982947"><ele>842.3333333333334</ele><time>2026-05-01T11:54:17.499Z</time></trkpt><trkpt lat="43.3901089" lon="12.5984423"><ele>842.1666666666667</ele><time>2026-05-01T11:54:19.499Z</time></trkpt><trkpt lat="43.3900951" lon="12.5985356"><ele>842.0</ele><time>2026-05-01T11:54:20.5Z</time></trkpt><trkpt lat="43.3901035" lon="12.59864"><ele>840.8</ele><time>2026-05-01T11:54:21.5Z</time></trkpt><trkpt lat="43.3901331" lon="12.5987522"><ele>839.6</ele><time>2026-05-01T11:54:22.499Z</time></trkpt><trkpt lat="43.3901733" lon="12.5988742"><ele>838.4</ele><time>2026-05-01T11:54:23.499Z</time></trkpt><trkpt lat="43.3902102" lon="12.5989915"><ele>837.1999999999999</ele><time>2026-05-01T11:54:24.5Z</time></trkpt><trkpt lat="43.3902319" lon="12.5991153"><ele>836.0</ele><time>2026-05-01T11:54:25.5Z</time></trkpt><trkpt lat="43.3902413" lon="12.5992373"><ele>836.0000000000001</ele><time>2026-05-01T11:54:26.5Z</time></trkpt><trkpt lat="43.3902334" lon="12.5993599"><ele>836.0</ele><time>2026-05-01T11:54:27.5Z</time></trkpt><trkpt lat="43.3902164" lon="12.59947"><ele>836.0</ele><time>2026-05-01T11:54:28.5Z</time></trkpt><trkpt lat="43.3902035" lon="12.5995622"><ele>836.0</ele><time>2026-05-01T11:54:29.5Z</time></trkpt><trkpt lat="43.3902202" lon="12.5997286"><ele>836.0000000000001</ele><time>2026-05-01T11:54:31.5Z</time></trkpt><trkpt lat="43.3902606" lon="12.5998084"><ele>836.0</ele><time>2026-05-01T11:54:32.5Z</time></trkpt><trkpt lat="43.3903045" lon="12.5998868"><ele>834.0000000000001</ele><time>2026-05-01T11:54:33.5Z</time></trkpt><trkpt lat="43.3903407" lon="12.5999752"><ele>832.0</ele><time>2026-05-01T11:54:34.5Z</time></trkpt><trkpt lat="43.390364" lon="12.6000845"><ele>830.0</ele><time>2026-05-01T11:54:35.5Z</time></trkpt><trkpt lat="43.3903638" lon="12.6002109"><ele>828.0</ele><time>2026-05-01T11:54:36.5Z</time></trkpt><trkpt lat="43.3903366" lon="12.6003249"><ele>826.0000000000001</ele><time>2026-05-01T11:54:37.5Z</time></trkpt><trkpt lat="43.3902965" lon="12.6004206"><ele>824.0</ele><time>2026-05-01T11:54:38.5Z</time></trkpt><trkpt lat="43.390219" lon="12.6005019"><ele>822.8000000000001</ele><time>2026-05-01T11:54:39.5Z</time></trkpt><trkpt lat="43.390131" lon="12.6005501"><ele>821.6</ele><time>2026-05-01T11:54:40.5Z</time></trkpt><trkpt lat="43.3900465" lon="12.6006121"><ele>820.4</ele><time>2026-05-01T11:54:41.5Z</time></trkpt><trkpt lat="43.3899655" lon="12.600689"><ele>819.2</ele><time>2026-05-01T11:54:42.5Z</time></trkpt><trkpt lat="43.389887" lon="12.6007735"><ele>818.0</ele><time>2026-05-01T11:54:43.5Z</time></trkpt><trkpt lat="43.389814" lon="12.600875"><ele>818.0</ele><time>2026-05-01T11:54:44.5Z</time></trkpt><trkpt lat="43.3897341" lon="12.600973"><ele>818.0</ele><time>2026-05-01T11:54:45.5Z</time></trkpt><trkpt lat="43.3896595" lon="12.601067"><ele>818.0</ele><time>2026-05-01T11:54:46.499Z</time></trkpt><trkpt lat="43.3895701" lon="12.6011465"><ele>818.0</ele><time>2026-05-01T11:54:47.5Z</time></trkpt><trkpt lat="43.3894697" lon="12.6012101"><ele>818.0</ele><time>2026-05-01T11:54:48.5Z</time></trkpt><trkpt lat="43.3893718" lon="12.6012776"><ele>817.0</ele><time>2026-05-01T11:54:49.5Z</time></trkpt><trkpt lat="43.3892757" lon="12.6013531"><ele>816.0</ele><time>2026-05-01T11:54:50.5Z</time></trkpt><trkpt lat="43.3891851" lon="12.6014386"><ele>815.0</ele><time>2026-05-01T11:54:51.5Z</time></trkpt><trkpt lat="43.3890972" lon="12.6015229"><ele>814.0</ele><time>2026-05-01T11:54:52.499Z</time></trkpt><trkpt lat="43.3890092" lon="12.6016111"><ele>813.0</ele><time>2026-05-01T11:54:53.5Z</time></trkpt><trkpt lat="43.3889153" lon="12.6016974"><ele>811.0</ele><time>2026-05-01T11:54:54.5Z</time></trkpt><trkpt lat="43.3888215" lon="12.6017773"><ele>809.0</ele><time>2026-05-01T11:54:55.5Z</time></trkpt><trkpt lat="43.3887244" lon="12.6018557"><ele>807.0</ele><time>2026-05-01T11:54:56.499Z</time></trkpt><trkpt lat="43.3886286" lon="12.6019344"><ele>805.0</ele><time>2026-05-01T11:54:57.5Z</time></trkpt><trkpt lat="43.388542" lon="12.6020228"><ele>803.0</ele><time>2026-05-01T11:54:58.5Z</time></trkpt><trkpt lat="43.3884469" lon="12.6021076"><ele>803.0</ele><time>2026-05-01T11:54:59.5Z</time></trkpt><trkpt lat="43.3883486" lon="12.6021946"><ele>803.0</ele><time>2026-05-01T11:55:00.5Z</time></trkpt><trkpt lat="43.3882508" lon="12.6022879"><ele>803.0</ele><time>2026-05-01T11:55:01.5Z</time></trkpt><trkpt lat="43.3881549" lon="12.6023955"><ele>803.0</ele><time>2026-05-01T11:55:02.5Z</time></trkpt><trkpt lat="43.3880648" lon="12.6025034"><ele>802.5</ele><time>2026-05-01T11:55:03.5Z</time></trkpt><trkpt lat="43.3879653" lon="12.6025974"><ele>802.0</ele><time>2026-05-01T11:55:04.5Z</time></trkpt><trkpt lat="43.3878524" lon="12.6026831"><ele>801.5</ele><time>2026-05-01T11:55:05.5Z</time></trkpt><trkpt lat="43.387727" lon="12.6027618"><ele>801.0</ele><time>2026-05-01T11:55:06.5Z</time></trkpt><trkpt lat="43.3875982" lon="12.6028196"><ele>801.0</ele><time>2026-05-01T11:55:07.5Z</time></trkpt><trkpt lat="43.3874725" lon="12.6028473"><ele>801.0</ele><time>2026-05-01T11:55:08.5Z</time></trkpt><trkpt lat="43.3873461" lon="12.6028442"><ele>801.0</ele><time>2026-05-01T11:55:09.499Z</time></trkpt><trkpt lat="43.3872254" lon="12.6027877"><ele>801.0</ele><time>2026-05-01T11:55:10.5Z</time></trkpt><trkpt lat="43.3871204" lon="12.6027379"><ele>802.1999999999999</ele><time>2026-05-01T11:55:11.5Z</time></trkpt><trkpt lat="43.3870315" lon="12.6027248"><ele>803.4</ele><time>2026-05-01T11:55:12.5Z</time></trkpt><trkpt lat="43.3869238" lon="12.6027352"><ele>804.6</ele><time>2026-05-01T11:55:13.5Z</time></trkpt><trkpt lat="43.3868112" lon="12.6027571"><ele>805.8</ele><time>2026-05-01T11:55:14.5Z</time></trkpt><trkpt lat="43.3866945" lon="12.6027721"><ele>807.0</ele><time>2026-05-01T11:55:15.5Z</time></trkpt><trkpt lat="43.3865918" lon="12.6027614"><ele>807.0</ele><time>2026-05-01T11:55:16.5Z</time></trkpt><trkpt lat="43.3864889" lon="12.6027647"><ele>807.0</ele><time>2026-05-01T11:55:17.5Z</time></trkpt><trkpt lat="43.3863948" lon="12.6028017"><ele>807.0</ele><time>2026-05-01T11:55:18.5Z</time></trkpt><trkpt lat="43.3863134" lon="12.6028798"><ele>807.0</ele><time>2026-05-01T11:55:19.5Z</time></trkpt><trkpt lat="43.386232" lon="12.6029907"><ele>807.0</ele><time>2026-05-01T11:55:20.5Z</time></trkpt><trkpt lat="43.3861469" lon="12.6031253"><ele>808.0</ele><time>2026-05-01T11:55:21.5Z</time></trkpt><trkpt lat="43.3860606" lon="12.6032724"><ele>809.0</ele><time>2026-05-01T11:55:22.5Z</time></trkpt><trkpt lat="43.3859767" lon="12.603426"><ele>810.0</ele><time>2026-05-01T11:55:23.5Z</time></trkpt><trkpt lat="43.3858909" lon="12.6035668"><ele>811.0</ele><time>2026-05-01T11:55:24.5Z</time></trkpt><trkpt lat="43.3857982" lon="12.6036947"><ele>811.0</ele><time>2026-05-01T11:55:25.5Z</time></trkpt><trkpt lat="43.3857053" lon="12.6037919"><ele>811.0</ele><time>2026-05-01T11:55:26.499Z</time></trkpt><trkpt lat="43.3855917" lon="12.6038525"><ele>811.0</ele><time>2026-05-01T11:55:27.499Z</time></trkpt><trkpt lat="43.3854866" lon="12.6038647"><ele>811.0</ele><time>2026-05-01T11:55:28.5Z</time></trkpt><trkpt lat="43.3853987" lon="12.6038807"><ele>811.0</ele><time>2026-05-01T11:55:29.5Z</time></trkpt><trkpt lat="43.3853325" lon="12.6039282"><ele>811.0</ele><time>2026-05-01T11:55:30.499Z</time></trkpt><trkpt lat="43.3852687" lon="12.6039984"><ele>811.0</ele><time>2026-05-01T11:55:31.5Z</time></trkpt><trkpt lat="43.3852214" lon="12.6040965"><ele>811.0</ele><time>2026-05-01T11:55:32.499Z</time></trkpt><trkpt lat="43.3851832" lon="12.6042368"><ele>811.0</ele><time>2026-05-01T11:55:33.5Z</time></trkpt><trkpt lat="43.3851452" lon="12.6043796"><ele>811.0</ele><time>2026-05-01T11:55:34.499Z</time></trkpt><trkpt lat="43.385092" lon="12.6045301"><ele>809.75</ele><time>2026-05-01T11:55:35.5Z</time></trkpt><trkpt lat="43.3850106" lon="12.6046773"><ele>808.5</ele><time>2026-05-01T11:55:36.5Z</time></trkpt><trkpt lat="43.3849223" lon="12.6048016"><ele>807.25</ele><time>2026-05-01T11:55:37.5Z</time></trkpt><trkpt lat="43.3848302" lon="12.6048994"><ele>806.0</ele><time>2026-05-01T11:55:38.5Z</time></trkpt><trkpt lat="43.3847526" lon="12.6049616"><ele>806.0000000000001</ele><time>2026-05-01T11:55:39.5Z</time></trkpt><trkpt lat="43.3846664" lon="12.6049971"><ele>806.0</ele><time>2026-05-01T11:55:40.499Z</time></trkpt><trkpt lat="43.3845762" lon="12.605"><ele>806.0</ele><time>2026-05-01T11:55:41.5Z</time></trkpt><trkpt lat="43.3844906" lon="12.6049919"><ele>806.0</ele><time>2026-05-01T11:55:42.5Z</time></trkpt><trkpt lat="43.384401" lon="12.6049882"><ele>806.0000000000001</ele><time>2026-05-01T11:55:43.5Z</time></trkpt><trkpt lat="43.3843096" lon="12.6049875"><ele>806.0</ele><time>2026-05-01T11:55:44.499Z</time></trkpt><trkpt lat="43.3842192" lon="12.6049808"><ele>806.0</ele><time>2026-05-01T11:55:45.5Z</time></trkpt><trkpt lat="43.3841311" lon="12.604974"><ele>806.0</ele><time>2026-05-01T11:55:46.5Z</time></trkpt><trkpt lat="43.384042" lon="12.6049624"><ele>806.0</ele><time>2026-05-01T11:55:47.5Z</time></trkpt><trkpt lat="43.383952" lon="12.6049616"><ele>806.0</ele><time>2026-05-01T11:55:48.5Z</time></trkpt><trkpt lat="43.3838567" lon="12.6049632"><ele>806.0</ele><time>2026-05-01T11:55:49.5Z</time></trkpt><trkpt lat="43.3837635" lon="12.6049704"><ele>805.1428571428572</ele><time>2026-05-01T11:55:50.5Z</time></trkpt><trkpt lat="43.3836747" lon="12.6049931"><ele>804.2857142857142</ele><time>2026-05-01T11:55:51.499Z</time></trkpt><trkpt lat="43.3835966" lon="12.6050179"><ele>803.4285714285714</ele><time>2026-05-01T11:55:52.5Z</time></trkpt><trkpt lat="43.3835246" lon="12.6050232"><ele>802.5714285714287</ele><time>2026-05-01T11:55:53.5Z</time></trkpt><trkpt lat="43.3834528" lon="12.6050077"><ele>801.7142857142858</ele><time>2026-05-01T11:55:54.5Z</time></trkpt><trkpt lat="43.3833909" lon="12.6049709"><ele>800.8571428571429</ele><time>2026-05-01T11:55:55.5Z</time></trkpt><trkpt lat="43.383341" lon="12.6049161"><ele>800.0</ele><time>2026-05-01T11:55:56.5Z</time></trkpt><trkpt lat="43.3832789" lon="12.6047886"><ele>800.0</ele><time>2026-05-01T11:55:58.499Z</time></trkpt><trkpt lat="43.3832408" lon="12.6046532"><ele>800.0</ele><time>2026-05-01T11:56:00.499Z</time></trkpt><trkpt lat="43.3831833" lon="12.6045439"><ele>800.0</ele><time>2026-05-01T11:56:02.5Z</time></trkpt><trkpt lat="43.3831005" lon="12.6044677"><ele>800.0</ele><time>2026-05-01T11:56:04.5Z</time></trkpt><trkpt lat="43.3829705" lon="12.6044283"><ele>800.0</ele><time>2026-05-01T11:56:06.5Z</time></trkpt><trkpt lat="43.3828985" lon="12.6044239"><ele>799.2857142857143</ele><time>2026-05-01T11:56:07.499Z</time></trkpt><trkpt lat="43.382829" lon="12.6044166"><ele>798.5714285714286</ele><time>2026-05-01T11:56:08.5Z</time></trkpt><trkpt lat="43.3827665" lon="12.6043804"><ele>797.8571428571429</ele><time>2026-05-01T11:56:09.499Z</time></trkpt><trkpt lat="43.3827123" lon="12.60432"><ele>797.1428571428571</ele><time>2026-05-01T11:56:10.5Z</time></trkpt><trkpt lat="43.3826761" lon="12.6042471"><ele>796.4285714285714</ele><time>2026-05-01T11:56:11.5Z</time></trkpt><trkpt lat="43.3826467" lon="12.6041538"><ele>795.7142857142858</ele><time>2026-05-01T11:56:12.5Z</time></trkpt><trkpt lat="43.3826117" lon="12.6040298"><ele>795.0</ele><time>2026-05-01T11:56:13.5Z</time></trkpt><trkpt lat="43.3825754" lon="12.6038975"><ele>795.0</ele><time>2026-05-01T11:56:14.5Z</time></trkpt><trkpt lat="43.3825364" lon="12.6037728"><ele>795.0</ele><time>2026-05-01T11:56:15.5Z</time></trkpt><trkpt lat="43.3824944" lon="12.6036645"><ele>795.0</ele><time>2026-05-01T11:56:16.499Z</time></trkpt><trkpt lat="43.3824364" lon="12.6035748"><ele>795.0</ele><time>2026-05-01T11:56:17.5Z</time></trkpt><trkpt lat="43.3823613" lon="12.6035132"><ele>795.0</ele><time>2026-05-01T11:56:18.5Z</time></trkpt><trkpt lat="43.3822833" lon="12.6034723"><ele>795.0</ele><time>2026-05-01T11:56:19.499Z</time></trkpt><trkpt lat="43.3822078" lon="12.6034415"><ele>794.3333333333334</ele><time>2026-05-01T11:56:20.5Z</time></trkpt><trkpt lat="43.3821328" lon="12.6034158"><ele>793.6666666666667</ele><time>2026-05-01T11:56:21.499Z</time></trkpt><trkpt lat="43.3820534" lon="12.6034013"><ele>793.0</ele><time>2026-05-01T11:56:22.5Z</time></trkpt><trkpt lat="43.3819707" lon="12.6033837"><ele>792.3333333333334</ele><time>2026-05-01T11:56:23.5Z</time></trkpt><trkpt lat="43.3818982" lon="12.6033709"><ele>791.6666666666667</ele><time>2026-05-01T11:56:24.5Z</time></trkpt><trkpt lat="43.3818262" lon="12.6033548"><ele>791.0</ele><time>2026-05-01T11:56:25.5Z</time></trkpt><trkpt lat="43.381753" lon="12.6033324"><ele>791.0000000000001</ele><time>2026-05-01T11:56:26.5Z</time></trkpt><trkpt lat="43.3816795" lon="12.6033054"><ele>791.0</ele><time>2026-05-01T11:56:27.499Z</time></trkpt><trkpt lat="43.3816043" lon="12.6032692"><ele>791.0</ele><time>2026-05-01T11:56:28.5Z</time></trkpt><trkpt lat="43.3815345" lon="12.6032365"><ele>791.0</ele><time>2026-05-01T11:56:29.5Z</time></trkpt><trkpt lat="43.3814632" lon="12.6031993"><ele>791.0000000000001</ele><time>2026-05-01T11:56:30.5Z</time></trkpt><trkpt lat="43.3813905" lon="12.6031682"><ele>791.0</ele><time>2026-05-01T11:56:31.499Z</time></trkpt><trkpt lat="43.3813166" lon="12.6031412"><ele>789.8333333333334</ele><time>2026-05-01T11:56:32.5Z</time></trkpt><trkpt lat="43.3812396" lon="12.6031172"><ele>788.6666666666667</ele><time>2026-05-01T11:56:33.499Z</time></trkpt><trkpt lat="43.3811616" lon="12.6030929"><ele>787.5</ele><time>2026-05-01T11:56:34.499Z</time></trkpt><trkpt lat="43.381087" lon="12.6030694"><ele>786.3333333333333</ele><time>2026-05-01T11:56:35.5Z</time></trkpt><trkpt lat="43.3810128" lon="12.6030411"><ele>785.1666666666666</ele><time>2026-05-01T11:56:36.5Z</time></trkpt><trkpt lat="43.3809378" lon="12.6030103"><ele>784.0</ele><time>2026-05-01T11:56:37.5Z</time></trkpt><trkpt lat="43.3808618" lon="12.6029807"><ele>784.0</ele><time>2026-05-01T11:56:38.5Z</time></trkpt><trkpt lat="43.3807888" lon="12.6029584"><ele>784.0</ele><time>2026-05-01T11:56:39.5Z</time></trkpt><trkpt lat="43.3807166" lon="12.6029525"><ele>784.0</ele><time>2026-05-01T11:56:40.499Z</time></trkpt><trkpt lat="43.3806408" lon="12.6029533"><ele>784.0</ele><time>2026-05-01T11:56:41.5Z</time></trkpt><trkpt lat="43.3805692" lon="12.6029667"><ele>784.0</ele><time>2026-05-01T11:56:42.499Z</time></trkpt><trkpt lat="43.3804971" lon="12.6029977"><ele>784.0</ele><time>2026-05-01T11:56:43.5Z</time></trkpt><trkpt lat="43.3804313" lon="12.6030514"><ele>784.0</ele><time>2026-05-01T11:56:44.5Z</time></trkpt><trkpt lat="43.3803744" lon="12.6031167"><ele>784.9999999999999</ele><time>2026-05-01T11:56:45.5Z</time></trkpt><trkpt lat="43.3803148" lon="12.603193"><ele>786.0</ele><time>2026-05-01T11:56:46.499Z</time></trkpt><trkpt lat="43.3802603" lon="12.6032711"><ele>787.0</ele><time>2026-05-01T11:56:47.499Z</time></trkpt><trkpt lat="43.3802015" lon="12.6033418"><ele>788.0</ele><time>2026-05-01T11:56:48.5Z</time></trkpt><trkpt lat="43.3801431" lon="12.60342"><ele>788.9999999999999</ele><time>2026-05-01T11:56:49.5Z</time></trkpt><trkpt lat="43.3800795" lon="12.6035"><ele>790.0</ele><time>2026-05-01T11:56:50.499Z</time></trkpt><trkpt lat="43.3800055" lon="12.6035463"><ele>789.9999999999999</ele><time>2026-05-01T11:56:51.5Z</time></trkpt><trkpt lat="43.3799214" lon="12.6035692"><ele>790.0</ele><time>2026-05-01T11:56:52.5Z</time></trkpt><trkpt lat="43.3798459" lon="12.6035642"><ele>790.0</ele><time>2026-05-01T11:56:53.5Z</time></trkpt><trkpt lat="43.379763" lon="12.6035385"><ele>790.0</ele><time>2026-05-01T11:56:54.5Z</time></trkpt><trkpt lat="43.3796827" lon="12.6035211"><ele>789.9999999999999</ele><time>2026-05-01T11:56:55.5Z</time></trkpt><trkpt lat="43.3795951" lon="12.603502"><ele>790.0</ele><time>2026-05-01T11:56:56.5Z</time></trkpt><trkpt lat="43.3794955" lon="12.6035024"><ele>790.0</ele><time>2026-05-01T11:56:57.5Z</time></trkpt><trkpt lat="43.3793963" lon="12.603527"><ele>790.0</ele><time>2026-05-01T11:56:58.499Z</time></trkpt><trkpt lat="43.3792976" lon="12.6035607"><ele>790.0</ele><time>2026-05-01T11:56:59.499Z</time></trkpt><trkpt lat="43.3791965" lon="12.6035997"><ele>790.0</ele><time>2026-05-01T11:57:00.499Z</time></trkpt><trkpt lat="43.37909" lon="12.6036295"><ele>790.0</ele><time>2026-05-01T11:57:01.5Z</time></trkpt><trkpt lat="43.378988" lon="12.6036409"><ele>789.9999999999999</ele><time>2026-05-01T11:57:02.5Z</time></trkpt><trkpt lat="43.3788959" lon="12.603637"><ele>790.0</ele><time>2026-05-01T11:57:03.499Z</time></trkpt><trkpt lat="43.3788082" lon="12.6036425"><ele>790.0</ele><time>2026-05-01T11:57:04.5Z</time></trkpt><trkpt lat="43.3787264" lon="12.6036736"><ele>790.0</ele><time>2026-05-01T11:57:05.499Z</time></trkpt><trkpt lat="43.3786638" lon="12.6037206"><ele>789.9999999999999</ele><time>2026-05-01T11:57:06.5Z</time></trkpt><trkpt lat="43.3785717" lon="12.6037975"><ele>790.0</ele><time>2026-05-01T11:57:08.5Z</time></trkpt><trkpt lat="43.3785008" lon="12.6038476"><ele>788.3333333333333</ele><time>2026-05-01T11:57:10.5Z</time></trkpt><trkpt lat="43.3784413" lon="12.6039282"><ele>786.6666666666666</ele><time>2026-05-01T11:57:13.499Z</time></trkpt><trkpt lat="43.3784488" lon="12.6040184"><ele>785.0</ele><time>2026-05-01T11:57:15.5Z</time></trkpt><trkpt lat="43.3785132" lon="12.6040994"><ele>783.3333333333333</ele><time>2026-05-01T11:57:48.5Z</time></trkpt><trkpt lat="43.3785848" lon="12.6042156"><ele>781.6666666666666</ele><time>2026-05-01T11:57:50.5Z</time></trkpt><trkpt lat="43.3786023" lon="12.6043292"><ele>780.0</ele><time>2026-05-01T11:57:51.5Z</time></trkpt><trkpt lat="43.3786088" lon="12.6044596"><ele>778.6</ele><time>2026-05-01T11:57:52.5Z</time></trkpt><trkpt lat="43.3786036" lon="12.6045812"><ele>777.2</ele><time>2026-05-01T11:57:53.499Z</time></trkpt><trkpt lat="43.3785857" lon="12.6047192"><ele>775.8</ele><time>2026-05-01T11:57:54.5Z</time></trkpt><trkpt lat="43.3785529" lon="12.6048535"><ele>774.4</ele><time>2026-05-01T11:57:55.5Z</time></trkpt><trkpt lat="43.378492" lon="12.6049989"><ele>773.0</ele><time>2026-05-01T11:57:56.5Z</time></trkpt><trkpt lat="43.3784093" lon="12.6051201"><ele>773.0</ele><time>2026-05-01T11:57:57.499Z</time></trkpt><trkpt lat="43.3783042" lon="12.6052081"><ele>773.0</ele><time>2026-05-01T11:57:58.5Z</time></trkpt><trkpt lat="43.3781832" lon="12.6052559"><ele>773.0</ele><time>2026-05-01T11:57:59.5Z</time></trkpt><trkpt lat="43.378049" lon="12.605275"><ele>773.0</ele><time>2026-05-01T11:58:00.5Z</time></trkpt><trkpt lat="43.377911" lon="12.6052873"><ele>774.5</ele><time>2026-05-01T11:58:01.5Z</time></trkpt><trkpt lat="43.3777721" lon="12.6053191"><ele>776.0</ele><time>2026-05-01T11:58:02.5Z</time></trkpt><trkpt lat="43.3776374" lon="12.6053952"><ele>777.5</ele><time>2026-05-01T11:58:03.5Z</time></trkpt><trkpt lat="43.3775131" lon="12.6055185"><ele>779.0</ele><time>2026-05-01T11:58:04.5Z</time></trkpt><trkpt lat="43.3774197" lon="12.60568"><ele>780.25</ele><time>2026-05-01T11:58:05.499Z</time></trkpt><trkpt lat="43.3773358" lon="12.6058426"><ele>781.5</ele><time>2026-05-01T11:58:06.499Z</time></trkpt><trkpt lat="43.37726" lon="12.6059908"><ele>782.75</ele><time>2026-05-01T11:58:07.5Z</time></trkpt><trkpt lat="43.3771969" lon="12.6061313"><ele>784.0</ele><time>2026-05-01T11:58:08.5Z</time></trkpt><trkpt lat="43.3771397" lon="12.6062737"><ele>784.0</ele><time>2026-05-01T11:58:09.499Z</time></trkpt><trkpt lat="43.3771198" lon="12.6064296"><ele>784.0</ele><time>2026-05-01T11:58:10.5Z</time></trkpt><trkpt lat="43.3771298" lon="12.6066029"><ele>784.0</ele><time>2026-05-01T11:58:11.5Z</time></trkpt><trkpt lat="43.377186" lon="12.606755"><ele>784.0</ele><time>2026-05-01T11:58:12.5Z</time></trkpt><trkpt lat="43.3772812" lon="12.6068736"><ele>779.0</ele><time>2026-05-01T11:58:13.499Z</time></trkpt><trkpt lat="43.3774093" lon="12.6069367"><ele>774.0</ele><time>2026-05-01T11:58:14.5Z</time></trkpt><trkpt lat="43.3775596" lon="12.6069373"><ele>769.0</ele><time>2026-05-01T11:58:15.5Z</time></trkpt><trkpt lat="43.3777225" lon="12.6068845"><ele>769.0</ele><time>2026-05-01T11:58:16.499Z</time></trkpt><trkpt lat="43.3778861" lon="12.6068319"><ele>769.0</ele><time>2026-05-01T11:58:17.499Z</time></trkpt><trkpt lat="43.3780475" lon="12.6067821"><ele>769.0</ele><time>2026-05-01T11:58:18.5Z</time></trkpt><trkpt lat="43.3782116" lon="12.6067368"><ele>765.3333333333333</ele><time>2026-05-01T11:58:19.5Z</time></trkpt><trkpt lat="43.3783727" lon="12.6067021"><ele>761.6666666666666</ele><time>2026-05-01T11:58:20.499Z</time></trkpt><trkpt lat="43.3785329" lon="12.606666"><ele>758.0</ele><time>2026-05-01T11:58:21.5Z</time></trkpt><trkpt lat="43.3786978" lon="12.6066333"><ele>756.0</ele><time>2026-05-01T11:58:22.5Z</time></trkpt><trkpt lat="43.378862" lon="12.6066017"><ele>754.0</ele><time>2026-05-01T11:58:23.5Z</time></trkpt><trkpt lat="43.3790307" lon="12.6065735"><ele>752.0</ele><time>2026-05-01T11:58:24.5Z</time></trkpt><trkpt lat="43.3791931" lon="12.6065535"><ele>752.0</ele><time>2026-05-01T11:58:25.499Z</time></trkpt><trkpt lat="43.3793609" lon="12.6065343"><ele>752.0</ele><time>2026-05-01T11:58:26.5Z</time></trkpt><trkpt lat="43.3795274" lon="12.6065208"><ele>752.0</ele><time>2026-05-01T11:58:27.5Z</time></trkpt><trkpt lat="43.3796879" lon="12.6065168"><ele>749.6666666666666</ele><time>2026-05-01T11:58:28.5Z</time></trkpt><trkpt lat="43.3798476" lon="12.60653"><ele>747.3333333333334</ele><time>2026-05-01T11:58:29.499Z</time></trkpt><trkpt lat="43.3799991" lon="12.6065913"><ele>745.0</ele><time>2026-05-01T11:58:30.5Z</time></trkpt><trkpt lat="43.3801498" lon="12.6067043"><ele>745.0</ele><time>2026-05-01T11:58:31.5Z</time></trkpt><trkpt lat="43.3802989" lon="12.6068467"><ele>745.0</ele><time>2026-05-01T11:58:32.5Z</time></trkpt><trkpt lat="43.3804487" lon="12.6069924"><ele>745.0</ele><time>2026-05-01T11:58:33.499Z</time></trkpt><trkpt lat="43.3806153" lon="12.6071319"><ele>742.3333333333334</ele><time>2026-05-01T11:58:34.5Z</time></trkpt><trkpt lat="43.3807769" lon="12.6072797"><ele>739.6666666666666</ele><time>2026-05-01T11:58:35.499Z</time></trkpt><trkpt lat="43.380938" lon="12.6074392"><ele>737.0</ele><time>2026-05-01T11:58:36.5Z</time></trkpt><trkpt lat="43.3810787" lon="12.6076062"><ele>737.0</ele><time>2026-05-01T11:58:37.5Z</time></trkpt><trkpt lat="43.3812223" lon="12.6077702"><ele>737.0</ele><time>2026-05-01T11:58:38.5Z</time></trkpt><trkpt lat="43.3813606" lon="12.6079318"><ele>737.0</ele><time>2026-05-01T11:58:39.5Z</time></trkpt><trkpt lat="43.3814834" lon="12.6081024"><ele>733.3333333333333</ele><time>2026-05-01T11:58:40.5Z</time></trkpt><trkpt lat="43.3816079" lon="12.6082819"><ele>729.6666666666666</ele><time>2026-05-01T11:58:41.5Z</time></trkpt><trkpt lat="43.3817354" lon="12.6084649"><ele>726.0</ele><time>2026-05-01T11:58:42.5Z</time></trkpt><trkpt lat="43.3818572" lon="12.6086351"><ele>729.3333333333334</ele><time>2026-05-01T11:58:43.5Z</time></trkpt><trkpt lat="43.3819708" lon="12.6087938"><ele>732.6666666666667</ele><time>2026-05-01T11:58:44.5Z</time></trkpt><trkpt lat="43.3820882" lon="12.6089471"><ele>736.0</ele><time>2026-05-01T11:58:45.499Z</time></trkpt><trkpt lat="43.3822083" lon="12.6091072"><ele>731.0</ele><time>2026-05-01T11:58:46.499Z</time></trkpt><trkpt lat="43.382317" lon="12.6092586"><ele>726.0</ele><time>2026-05-01T11:58:47.499Z</time></trkpt><trkpt lat="43.3824223" lon="12.6093822"><ele>721.0</ele><time>2026-05-01T11:58:48.5Z</time></trkpt><trkpt lat="43.3825402" lon="12.6094283"><ele>716.0</ele><time>2026-05-01T11:58:49.5Z</time></trkpt><trkpt lat="43.3826788" lon="12.6094081"><ele>716.0</ele><time>2026-05-01T11:58:50.5Z</time></trkpt><trkpt lat="43.3828084" lon="12.6093256"><ele>716.0</ele><time>2026-05-01T11:58:51.5Z</time></trkpt><trkpt lat="43.3829236" lon="12.609216"><ele>716.0</ele><time>2026-05-01T11:58:52.5Z</time></trkpt><trkpt lat="43.3830296" lon="12.6091429"><ele>716.0</ele><time>2026-05-01T11:58:53.5Z</time></trkpt><trkpt lat="43.3831573" lon="12.6091191"><ele>716.5</ele><time>2026-05-01T11:58:54.5Z</time></trkpt><trkpt lat="43.3832829" lon="12.6091931"><ele>717.0</ele><time>2026-05-01T11:58:55.5Z</time></trkpt><trkpt lat="43.383397" lon="12.6093336"><ele>717.5</ele><time>2026-05-01T11:58:56.5Z</time></trkpt><trkpt lat="43.3834843" lon="12.6095123"><ele>718.0</ele><time>2026-05-01T11:58:57.5Z</time></trkpt><trkpt lat="43.3835828" lon="12.6096849"><ele>715.0</ele><time>2026-05-01T11:58:58.5Z</time></trkpt><trkpt lat="43.3836858" lon="12.6098257"><ele>712.0</ele><time>2026-05-01T11:58:59.499Z</time></trkpt><trkpt lat="43.3838066" lon="12.6099567"><ele>709.0</ele><time>2026-05-01T11:59:00.5Z</time></trkpt><trkpt lat="43.3839346" lon="12.6100711"><ele>709.0</ele><time>2026-05-01T11:59:01.5Z</time></trkpt><trkpt lat="43.3840933" lon="12.6101563"><ele>709.0</ele><time>2026-05-01T11:59:02.5Z</time></trkpt><trkpt lat="43.38425" lon="12.6102347"><ele>709.0</ele><time>2026-05-01T11:59:03.499Z</time></trkpt><trkpt lat="43.3843975" lon="12.6103016"><ele>707.75</ele><time>2026-05-01T11:59:04.5Z</time></trkpt><trkpt lat="43.3845386" lon="12.6103669"><ele>706.5</ele><time>2026-05-01T11:59:05.5Z</time></trkpt><trkpt lat="43.3846657" lon="12.6104632"><ele>705.25</ele><time>2026-05-01T11:59:06.5Z</time></trkpt><trkpt lat="43.3847695" lon="12.6106045"><ele>704.0</ele><time>2026-05-01T11:59:07.499Z</time></trkpt><trkpt lat="43.3848562" lon="12.6107685"><ele>704.0</ele><time>2026-05-01T11:59:08.5Z</time></trkpt><trkpt lat="43.3849419" lon="12.6109295"><ele>704.0</ele><time>2026-05-01T11:59:09.5Z</time></trkpt><trkpt lat="43.3850212" lon="12.6110936"><ele>704.0</ele><time>2026-05-01T11:59:10.5Z</time></trkpt><trkpt lat="43.3851035" lon="12.6112637"><ele>704.0</ele><time>2026-05-01T11:59:11.5Z</time></trkpt><trkpt lat="43.3851865" lon="12.6114349"><ele>700.3333333333333</ele><time>2026-05-01T11:59:12.5Z</time></trkpt><trkpt lat="43.3852692" lon="12.611604"><ele>696.6666666666666</ele><time>2026-05-01T11:59:13.499Z</time></trkpt><trkpt lat="43.385359" lon="12.6117768"><ele>693.0</ele><time>2026-05-01T11:59:14.5Z</time></trkpt><trkpt lat="43.385446" lon="12.6119517"><ele>694.0</ele><time>2026-05-01T11:59:15.499Z</time></trkpt><trkpt lat="43.3855341" lon="12.6121263"><ele>695.0</ele><time>2026-05-01T11:59:16.499Z</time></trkpt><trkpt lat="43.3856368" lon="12.6122823"><ele>696.0</ele><time>2026-05-01T11:59:17.5Z</time></trkpt><trkpt lat="43.3857523" lon="12.6124064"><ele>696.0</ele><time>2026-05-01T11:59:18.5Z</time></trkpt><trkpt lat="43.3858995" lon="12.6124877"><ele>696.0</ele><time>2026-05-01T11:59:19.499Z</time></trkpt><trkpt lat="43.3860606" lon="12.6125242"><ele>696.0</ele><time>2026-05-01T11:59:20.5Z</time></trkpt><trkpt lat="43.3862217" lon="12.6125173"><ele>701.0</ele><time>2026-05-01T11:59:21.5Z</time></trkpt><trkpt lat="43.38638" lon="12.6124997"><ele>706.0</ele><time>2026-05-01T11:59:22.5Z</time></trkpt><trkpt lat="43.3865414" lon="12.6124832"><ele>711.0</ele><time>2026-05-01T11:59:23.5Z</time></trkpt><trkpt lat="43.3866941" lon="12.6124568"><ele>711.0</ele><time>2026-05-01T11:59:24.499Z</time></trkpt><trkpt lat="43.3868434" lon="12.6124283"><ele>711.0</ele><time>2026-05-01T11:59:25.499Z</time></trkpt><trkpt lat="43.3869911" lon="12.6123978"><ele>711.0</ele><time>2026-05-01T11:59:26.5Z</time></trkpt><trkpt lat="43.3871383" lon="12.6123627"><ele>711.0</ele><time>2026-05-01T11:59:27.5Z</time></trkpt><trkpt lat="43.3872825" lon="12.6123266"><ele>712.25</ele><time>2026-05-01T11:59:28.499Z</time></trkpt><trkpt lat="43.3874305" lon="12.6122996"><ele>713.5</ele><time>2026-05-01T11:59:29.5Z</time></trkpt><trkpt lat="43.3875765" lon="12.6123106"><ele>714.75</ele><time>2026-05-01T11:59:30.5Z</time></trkpt><trkpt lat="43.3877079" lon="12.6123813"><ele>716.0</ele><time>2026-05-01T11:59:31.5Z</time></trkpt><trkpt lat="43.387801" lon="12.6125274"><ele>716.0</ele><time>2026-05-01T11:59:32.5Z</time></trkpt><trkpt lat="43.3878574" lon="12.6127173"><ele>716.0</ele><time>2026-05-01T11:59:33.499Z</time></trkpt><trkpt lat="43.3878835" lon="12.6129375"><ele>716.0</ele><time>2026-05-01T11:59:34.5Z</time></trkpt><trkpt lat="43.3878926" lon="12.6131549"><ele>713.0</ele><time>2026-05-01T11:59:35.5Z</time></trkpt><trkpt lat="43.3879017" lon="12.613373"><ele>710.0</ele><time>2026-05-01T11:59:36.5Z</time></trkpt><trkpt lat="43.3878962" lon="12.6135817"><ele>707.0</ele><time>2026-05-01T11:59:37.5Z</time></trkpt><trkpt lat="43.3878632" lon="12.6137842"><ele>706.5</ele><time>2026-05-01T11:59:38.5Z</time></trkpt><trkpt lat="43.3878302" lon="12.6139666"><ele>706.0</ele><time>2026-05-01T11:59:39.5Z</time></trkpt><trkpt lat="43.387792" lon="12.6141368"><ele>705.5</ele><time>2026-05-01T11:59:40.499Z</time></trkpt><trkpt lat="43.3877657" lon="12.6142912"><ele>705.0</ele><time>2026-05-01T11:59:41.499Z</time></trkpt><trkpt lat="43.3877791" lon="12.6144618"><ele>706.25</ele><time>2026-05-01T11:59:42.5Z</time></trkpt><trkpt lat="43.387849" lon="12.6146276"><ele>707.5</ele><time>2026-05-01T11:59:43.5Z</time></trkpt><trkpt lat="43.3879594" lon="12.6147719"><ele>708.75</ele><time>2026-05-01T11:59:44.5Z</time></trkpt><trkpt lat="43.3880839" lon="12.6148923"><ele>710.0</ele><time>2026-05-01T11:59:45.5Z</time></trkpt><trkpt lat="43.3882124" lon="12.61501"><ele>710.0</ele><time>2026-05-01T11:59:46.5Z</time></trkpt><trkpt lat="43.388345" lon="12.6151138"><ele>710.0</ele><time>2026-05-01T11:59:47.499Z</time></trkpt><trkpt lat="43.3884713" lon="12.6152132"><ele>710.0</ele><time>2026-05-01T11:59:48.5Z</time></trkpt><trkpt lat="43.3885929" lon="12.6153167"><ele>710.0</ele><time>2026-05-01T11:59:49.5Z</time></trkpt><trkpt lat="43.3887117" lon="12.6154229"><ele>708.0</ele><time>2026-05-01T11:59:50.5Z</time></trkpt><trkpt lat="43.3888372" lon="12.6155241"><ele>706.0</ele><time>2026-05-01T11:59:51.499Z</time></trkpt><trkpt lat="43.3889674" lon="12.6156037"><ele>704.0</ele><time>2026-05-01T11:59:52.5Z</time></trkpt><trkpt lat="43.3891196" lon="12.6156617"><ele>702.0</ele><time>2026-05-01T11:59:53.5Z</time></trkpt><trkpt lat="43.389274" lon="12.6157148"><ele>702.0</ele><time>2026-05-01T11:59:54.5Z</time></trkpt><trkpt lat="43.3894335" lon="12.6157685"><ele>702.0</ele><time>2026-05-01T11:59:55.499Z</time></trkpt><trkpt lat="43.3895978" lon="12.6158101"><ele>702.0</ele><time>2026-05-01T11:59:56.499Z</time></trkpt><trkpt lat="43.3897561" lon="12.6158565"><ele>701.3333333333334</ele><time>2026-05-01T11:59:57.5Z</time></trkpt><trkpt lat="43.3899205" lon="12.6158925"><ele>700.6666666666667</ele><time>2026-05-01T11:59:58.5Z</time></trkpt><trkpt lat="43.390091" lon="12.6158912"><ele>700.0</ele><time>2026-05-01T11:59:59.5Z</time></trkpt><trkpt lat="43.3902612" lon="12.6158505"><ele>700.0</ele><time>2026-05-01T12:00:00.5Z</time></trkpt><trkpt lat="43.3904247" lon="12.6157827"><ele>700.0</ele><time>2026-05-01T12:00:01.5Z</time></trkpt><trkpt lat="43.3905848" lon="12.6157198"><ele>700.0</ele><time>2026-05-01T12:00:02.499Z</time></trkpt><trkpt lat="43.390741" lon="12.6156658"><ele>697.0</ele><time>2026-05-01T12:00:03.5Z</time></trkpt><trkpt lat="43.3908967" lon="12.6156217"><ele>694.0</ele><time>2026-05-01T12:00:04.5Z</time></trkpt><trkpt lat="43.3910636" lon="12.6155897"><ele>691.0</ele><time>2026-05-01T12:00:05.5Z</time></trkpt><trkpt lat="43.3912273" lon="12.6155865"><ele>691.0</ele><time>2026-05-01T12:00:06.499Z</time></trkpt><trkpt lat="43.3913928" lon="12.6156299"><ele>691.0</ele><time>2026-05-01T12:00:07.5Z</time></trkpt><trkpt lat="43.3915555" lon="12.6156942"><ele>691.0</ele><time>2026-05-01T12:00:08.5Z</time></trkpt><trkpt lat="43.3917065" lon="12.6157954"><ele>691.0</ele><time>2026-05-01T12:00:09.499Z</time></trkpt><trkpt lat="43.3918476" lon="12.6159405"><ele>691.0</ele><time>2026-05-01T12:00:10.5Z</time></trkpt><trkpt lat="43.3919834" lon="12.6160981"><ele>691.0</ele><time>2026-05-01T12:00:11.5Z</time></trkpt><trkpt lat="43.3921202" lon="12.6162608"><ele>690.6666666666667</ele><time>2026-05-01T12:00:12.5Z</time></trkpt><trkpt lat="43.3922531" lon="12.6164147"><ele>690.3333333333334</ele><time>2026-05-01T12:00:13.499Z</time></trkpt><trkpt lat="43.3923846" lon="12.6165591"><ele>690.0</ele><time>2026-05-01T12:00:14.5Z</time></trkpt><trkpt lat="43.3925181" lon="12.6167064"><ele>690.0</ele><time>2026-05-01T12:00:15.5Z</time></trkpt><trkpt lat="43.3926542" lon="12.6168562"><ele>690.0</ele><time>2026-05-01T12:00:16.5Z</time></trkpt><trkpt lat="43.392783" lon="12.6170069"><ele>690.0</ele><time>2026-05-01T12:00:17.5Z</time></trkpt><trkpt lat="43.3929041" lon="12.6171733"><ele>691.6666666666666</ele><time>2026-05-01T12:00:18.5Z</time></trkpt><trkpt lat="43.3930091" lon="12.6173657"><ele>693.3333333333333</ele><time>2026-05-01T12:00:19.499Z</time></trkpt><trkpt lat="43.3930857" lon="12.6175691"><ele>695.0</ele><time>2026-05-01T12:00:20.499Z</time></trkpt><trkpt lat="43.3931446" lon="12.617799"><ele>693.3333333333333</ele><time>2026-05-01T12:00:21.5Z</time></trkpt><trkpt lat="43.3931845" lon="12.618026"><ele>691.6666666666666</ele><time>2026-05-01T12:00:22.5Z</time></trkpt><trkpt lat="43.3932053" lon="12.6182568"><ele>690.0</ele><time>2026-05-01T12:00:23.5Z</time></trkpt><trkpt lat="43.3932066" lon="12.6184935"><ele>688.6666666666666</ele><time>2026-05-01T12:00:24.5Z</time></trkpt><trkpt lat="43.3931818" lon="12.6187371"><ele>687.3333333333333</ele><time>2026-05-01T12:00:25.5Z</time></trkpt><trkpt lat="43.393136" lon="12.6189767"><ele>686.0</ele><time>2026-05-01T12:00:26.5Z</time></trkpt><trkpt lat="43.3930658" lon="12.6192032"><ele>683.6666666666666</ele><time>2026-05-01T12:00:27.499Z</time></trkpt><trkpt lat="43.3929666" lon="12.6194341"><ele>681.3333333333334</ele><time>2026-05-01T12:00:28.499Z</time></trkpt><trkpt lat="43.3928652" lon="12.6196574"><ele>679.0</ele><time>2026-05-01T12:00:29.5Z</time></trkpt><trkpt lat="43.3927652" lon="12.619871"><ele>679.0</ele><time>2026-05-01T12:00:30.5Z</time></trkpt><trkpt lat="43.3926725" lon="12.6200873"><ele>679.0</ele><time>2026-05-01T12:00:31.5Z</time></trkpt><trkpt lat="43.3925847" lon="12.6203048"><ele>679.0</ele><time>2026-05-01T12:00:32.5Z</time></trkpt><trkpt lat="43.3924907" lon="12.6205199"><ele>681.0</ele><time>2026-05-01T12:00:33.5Z</time></trkpt><trkpt lat="43.3923977" lon="12.6207293"><ele>683.0</ele><time>2026-05-01T12:00:34.5Z</time></trkpt><trkpt lat="43.3923074" lon="12.6209408"><ele>685.0</ele><time>2026-05-01T12:00:35.5Z</time></trkpt><trkpt lat="43.3922139" lon="12.6211373"><ele>679.0</ele><time>2026-05-01T12:00:36.5Z</time></trkpt><trkpt lat="43.3921321" lon="12.6213368"><ele>673.0</ele><time>2026-05-01T12:00:37.5Z</time></trkpt><trkpt lat="43.3920628" lon="12.6215438"><ele>667.0</ele><time>2026-05-01T12:00:38.5Z</time></trkpt><trkpt lat="43.392023" lon="12.6217648"><ele>664.0</ele><time>2026-05-01T12:00:39.5Z</time></trkpt><trkpt lat="43.3920352" lon="12.6219912"><ele>661.0</ele><time>2026-05-01T12:00:40.5Z</time></trkpt><trkpt lat="43.392079" lon="12.6222027"><ele>658.0</ele><time>2026-05-01T12:00:41.499Z</time></trkpt><trkpt lat="43.3921598" lon="12.622407"><ele>656.6666666666667</ele><time>2026-05-01T12:00:42.5Z</time></trkpt><trkpt lat="43.3922721" lon="12.6225801"><ele>655.3333333333334</ele><time>2026-05-01T12:00:43.5Z</time></trkpt><trkpt lat="43.3923903" lon="12.6227502"><ele>654.0</ele><time>2026-05-01T12:00:44.5Z</time></trkpt><trkpt lat="43.3924963" lon="12.622907"><ele>654.0</ele><time>2026-05-01T12:00:45.499Z</time></trkpt><trkpt lat="43.3926063" lon="12.6230647"><ele>654.0</ele><time>2026-05-01T12:00:46.5Z</time></trkpt><trkpt lat="43.3927116" lon="12.6232191"><ele>654.0</ele><time>2026-05-01T12:00:47.499Z</time></trkpt><trkpt lat="43.3928037" lon="12.6233898"><ele>654.0</ele><time>2026-05-01T12:00:48.5Z</time></trkpt><trkpt lat="43.3928709" lon="12.6235902"><ele>654.0</ele><time>2026-05-01T12:00:49.5Z</time></trkpt><trkpt lat="43.3929035" lon="12.6238227"><ele>654.0</ele><time>2026-05-01T12:00:50.499Z</time></trkpt><trkpt lat="43.3929293" lon="12.6240469"><ele>650.0</ele><time>2026-05-01T12:00:51.5Z</time></trkpt><trkpt lat="43.3929422" lon="12.6242875"><ele>646.0</ele><time>2026-05-01T12:00:52.5Z</time></trkpt><trkpt lat="43.3929552" lon="12.6245367"><ele>642.0</ele><time>2026-05-01T12:00:53.5Z</time></trkpt><trkpt lat="43.3929748" lon="12.6247986"><ele>642.0</ele><time>2026-05-01T12:00:54.499Z</time></trkpt><trkpt lat="43.3929912" lon="12.6250668"><ele>642.0</ele><time>2026-05-01T12:00:55.5Z</time></trkpt><trkpt lat="43.3929998" lon="12.625331"><ele>642.0</ele><time>2026-05-01T12:00:56.5Z</time></trkpt><trkpt lat="43.3930135" lon="12.6256162"><ele>642.0</ele><time>2026-05-01T12:00:57.5Z</time></trkpt><trkpt lat="43.3930285" lon="12.6259078"><ele>642.0</ele><time>2026-05-01T12:00:58.5Z</time></trkpt><trkpt lat="43.3930438" lon="12.6261955"><ele>642.0</ele><time>2026-05-01T12:00:59.499Z</time></trkpt><trkpt lat="43.3930558" lon="12.6264906"><ele>639.6666666666666</ele><time>2026-05-01T12:01:00.5Z</time></trkpt><trkpt lat="43.3930674" lon="12.6267875"><ele>637.3333333333333</ele><time>2026-05-01T12:01:01.5Z</time></trkpt><trkpt lat="43.3930843" lon="12.6270873"><ele>635.0</ele><time>2026-05-01T12:01:02.5Z</time></trkpt><trkpt lat="43.3930946" lon="12.6273767"><ele>635.0</ele><time>2026-05-01T12:01:03.499Z</time></trkpt><trkpt lat="43.393107" lon="12.6276589"><ele>635.0</ele><time>2026-05-01T12:01:04.499Z</time></trkpt><trkpt lat="43.3931204" lon="12.6279255"><ele>635.0</ele><time>2026-05-01T12:01:05.499Z</time></trkpt><trkpt lat="43.3931225" lon="12.6281849"><ele>636.6666666666666</ele><time>2026-05-01T12:01:06.5Z</time></trkpt><trkpt lat="43.3931089" lon="12.6284372"><ele>638.3333333333334</ele><time>2026-05-01T12:01:07.5Z</time></trkpt><trkpt lat="43.3930715" lon="12.6286867"><ele>640.0</ele><time>2026-05-01T12:01:08.499Z</time></trkpt><trkpt lat="43.39302" lon="12.6289408"><ele>638.3333333333334</ele><time>2026-05-01T12:01:09.5Z</time></trkpt><trkpt lat="43.3929621" lon="12.6291921"><ele>636.6666666666666</ele><time>2026-05-01T12:01:10.5Z</time></trkpt><trkpt lat="43.3928952" lon="12.629441"><ele>635.0</ele><time>2026-05-01T12:01:11.5Z</time></trkpt><trkpt lat="43.3928226" lon="12.6296898"><ele>635.0</ele><time>2026-05-01T12:01:12.5Z</time></trkpt><trkpt lat="43.3927523" lon="12.62995"><ele>635.0</ele><time>2026-05-01T12:01:13.499Z</time></trkpt><trkpt lat="43.3926828" lon="12.6302167"><ele>635.0</ele><time>2026-05-01T12:01:14.5Z</time></trkpt><trkpt lat="43.3926106" lon="12.6304805"><ele>634.3333333333333</ele><time>2026-05-01T12:01:15.5Z</time></trkpt><trkpt lat="43.3925352" lon="12.630745"><ele>633.6666666666666</ele><time>2026-05-01T12:01:16.5Z</time></trkpt><trkpt lat="43.3924565" lon="12.6310135"><ele>633.0</ele><time>2026-05-01T12:01:17.5Z</time></trkpt><trkpt lat="43.3923793" lon="12.6312858"><ele>632.3333333333334</ele><time>2026-05-01T12:01:18.499Z</time></trkpt><trkpt lat="43.3923032" lon="12.6315548"><ele>631.6666666666667</ele><time>2026-05-01T12:01:19.5Z</time></trkpt><trkpt lat="43.3922311" lon="12.6318183"><ele>631.0</ele><time>2026-05-01T12:01:20.5Z</time></trkpt><trkpt lat="43.3921557" lon="12.6320778"><ele>631.0</ele><time>2026-05-01T12:01:21.5Z</time></trkpt><trkpt lat="43.3920814" lon="12.6323431"><ele>631.0</ele><time>2026-05-01T12:01:22.5Z</time></trkpt><trkpt lat="43.3920083" lon="12.6325971"><ele>631.0</ele><time>2026-05-01T12:01:23.5Z</time></trkpt><trkpt lat="43.391938" lon="12.6328488"><ele>632.0</ele><time>2026-05-01T12:01:24.499Z</time></trkpt><trkpt lat="43.3918717" lon="12.633083"><ele>633.0</ele><time>2026-05-01T12:01:25.5Z</time></trkpt><trkpt lat="43.3918149" lon="12.6332897"><ele>634.0</ele><time>2026-05-01T12:01:26.5Z</time></trkpt><trkpt lat="43.3917779" lon="12.6334989"><ele>633.6666666666667</ele><time>2026-05-01T12:01:27.5Z</time></trkpt><trkpt lat="43.391755" lon="12.6337089"><ele>633.3333333333334</ele><time>2026-05-01T12:01:28.499Z</time></trkpt><trkpt lat="43.3917658" lon="12.6339312"><ele>633.0</ele><time>2026-05-01T12:01:29.499Z</time></trkpt><trkpt lat="43.3918051" lon="12.6341602"><ele>633.0</ele><time>2026-05-01T12:01:30.5Z</time></trkpt><trkpt lat="43.3918531" lon="12.6344008"><ele>633.0</ele><time>2026-05-01T12:01:31.5Z</time></trkpt><trkpt lat="43.3919156" lon="12.6346536"><ele>633.0</ele><time>2026-05-01T12:01:32.5Z</time></trkpt><trkpt lat="43.3919665" lon="12.6349138"><ele>630.3333333333334</ele><time>2026-05-01T12:01:33.5Z</time></trkpt><trkpt lat="43.3920184" lon="12.6351872"><ele>627.6666666666667</ele><time>2026-05-01T12:01:34.5Z</time></trkpt><trkpt lat="43.3920719" lon="12.6354708"><ele>625.0</ele><time>2026-05-01T12:01:35.5Z</time></trkpt><trkpt lat="43.3921276" lon="12.6357571"><ele>626.3333333333334</ele><time>2026-05-01T12:01:36.5Z</time></trkpt><trkpt lat="43.3921869" lon="12.6360422"><ele>627.6666666666666</ele><time>2026-05-01T12:01:37.5Z</time></trkpt><trkpt lat="43.3922539" lon="12.6363191"><ele>629.0</ele><time>2026-05-01T12:01:38.5Z</time></trkpt><trkpt lat="43.3923312" lon="12.6365903"><ele>629.0</ele><time>2026-05-01T12:01:39.5Z</time></trkpt><trkpt lat="43.392411" lon="12.6368587"><ele>629.0</ele><time>2026-05-01T12:01:40.5Z</time></trkpt><trkpt lat="43.3924984" lon="12.6371253"><ele>629.0</ele><time>2026-05-01T12:01:41.5Z</time></trkpt><trkpt lat="43.3925813" lon="12.6373885"><ele>625.3333333333333</ele><time>2026-05-01T12:01:42.499Z</time></trkpt><trkpt lat="43.3926635" lon="12.6376419"><ele>621.6666666666666</ele><time>2026-05-01T12:01:43.5Z</time></trkpt><trkpt lat="43.3927426" lon="12.6378866"><ele>618.0</ele><time>2026-05-01T12:01:44.5Z</time></trkpt><trkpt lat="43.3928257" lon="12.6381111"><ele>617.6666666666666</ele><time>2026-05-01T12:01:45.5Z</time></trkpt><trkpt lat="43.3929164" lon="12.6383114"><ele>617.3333333333333</ele><time>2026-05-01T12:01:46.5Z</time></trkpt><trkpt lat="43.3930351" lon="12.6384962"><ele>617.0</ele><time>2026-05-01T12:01:47.5Z</time></trkpt><trkpt lat="43.3931708" lon="12.6386724"><ele>619.3333333333333</ele><time>2026-05-01T12:01:48.5Z</time></trkpt><trkpt lat="43.3933167" lon="12.6388511"><ele>621.6666666666666</ele><time>2026-05-01T12:01:49.499Z</time></trkpt><trkpt lat="43.3934628" lon="12.6390385"><ele>624.0</ele><time>2026-05-01T12:01:50.5Z</time></trkpt><trkpt lat="43.3936081" lon="12.6392295"><ele>624.0</ele><time>2026-05-01T12:01:51.5Z</time></trkpt><trkpt lat="43.3937506" lon="12.6394224"><ele>624.0</ele><time>2026-05-01T12:01:52.5Z</time></trkpt><trkpt lat="43.3938965" lon="12.6396189"><ele>624.0</ele><time>2026-05-01T12:01:53.499Z</time></trkpt><trkpt lat="43.3940401" lon="12.639813"><ele>623.0</ele><time>2026-05-01T12:01:54.5Z</time></trkpt><trkpt lat="43.3941865" lon="12.640008"><ele>622.0</ele><time>2026-05-01T12:01:55.5Z</time></trkpt><trkpt lat="43.3943368" lon="12.6402053"><ele>621.0</ele><time>2026-05-01T12:01:56.499Z</time></trkpt><trkpt lat="43.3944863" lon="12.6403881"><ele>621.3333333333334</ele><time>2026-05-01T12:01:57.5Z</time></trkpt><trkpt lat="43.3946331" lon="12.6405825"><ele>621.6666666666667</ele><time>2026-05-01T12:01:58.5Z</time></trkpt><trkpt lat="43.3947798" lon="12.640772"><ele>622.0</ele><time>2026-05-01T12:01:59.5Z</time></trkpt><trkpt lat="43.3949183" lon="12.6409627"><ele>619.6666666666667</ele><time>2026-05-01T12:02:00.5Z</time></trkpt><trkpt lat="43.39506" lon="12.6411536"><ele>617.3333333333334</ele><time>2026-05-01T12:02:01.5Z</time></trkpt><trkpt lat="43.395202" lon="12.6413439"><ele>615.0</ele><time>2026-05-01T12:02:02.5Z</time></trkpt><trkpt lat="43.3953448" lon="12.641532"><ele>615.0</ele><time>2026-05-01T12:02:03.5Z</time></trkpt><trkpt lat="43.3954891" lon="12.6417182"><ele>615.0</ele><time>2026-05-01T12:02:04.5Z</time></trkpt><trkpt lat="43.3956361" lon="12.6419088"><ele>615.0</ele><time>2026-05-01T12:02:05.5Z</time></trkpt><trkpt lat="43.3957796" lon="12.6421003"><ele>615.3333333333334</ele><time>2026-05-01T12:02:06.5Z</time></trkpt><trkpt lat="43.3959295" lon="12.6423008"><ele>615.6666666666667</ele><time>2026-05-01T12:02:07.5Z</time></trkpt><trkpt lat="43.3960727" lon="12.6425063"><ele>616.0</ele><time>2026-05-01T12:02:08.5Z</time></trkpt><trkpt lat="43.3962086" lon="12.6427281"><ele>619.0</ele><time>2026-05-01T12:02:09.499Z</time></trkpt><trkpt lat="43.3963392" lon="12.6429604"><ele>622.0</ele><time>2026-05-01T12:02:10.5Z</time></trkpt><trkpt lat="43.3964667" lon="12.643202"><ele>625.0</ele><time>2026-05-01T12:02:11.499Z</time></trkpt><trkpt lat="43.3965949" lon="12.6434427"><ele>619.5</ele><time>2026-05-01T12:02:12.5Z</time></trkpt><trkpt lat="43.3967298" lon="12.643691"><ele>614.0</ele><time>2026-05-01T12:02:13.499Z</time></trkpt><trkpt lat="43.3968593" lon="12.6439439"><ele>614.0</ele><time>2026-05-01T12:02:14.499Z</time></trkpt><trkpt lat="43.3969834" lon="12.6442016"><ele>614.0</ele><time>2026-05-01T12:02:15.5Z</time></trkpt><trkpt lat="43.397098" lon="12.6444698"><ele>617.6666666666666</ele><time>2026-05-01T12:02:16.5Z</time></trkpt><trkpt lat="43.3971998" lon="12.6447399"><ele>621.3333333333334</ele><time>2026-05-01T12:02:17.499Z</time></trkpt><trkpt lat="43.3972996" lon="12.6450087"><ele>625.0</ele><time>2026-05-01T12:02:18.5Z</time></trkpt><trkpt lat="43.3974025" lon="12.6452713"><ele>623.0</ele><time>2026-05-01T12:02:19.5Z</time></trkpt><trkpt lat="43.397504" lon="12.6455238"><ele>621.0</ele><time>2026-05-01T12:02:20.5Z</time></trkpt><trkpt lat="43.3975918" lon="12.6457637"><ele>619.0</ele><time>2026-05-01T12:02:21.5Z</time></trkpt><trkpt lat="43.3976841" lon="12.6459986"><ele>620.6666666666667</ele><time>2026-05-01T12:02:22.5Z</time></trkpt><trkpt lat="43.3977871" lon="12.646219"><ele>622.3333333333334</ele><time>2026-05-01T12:02:23.5Z</time></trkpt><trkpt lat="43.3979061" lon="12.6464224"><ele>624.0</ele><time>2026-05-01T12:02:24.5Z</time></trkpt><trkpt lat="43.3980432" lon="12.6466096"><ele>624.0</ele><time>2026-05-01T12:02:25.499Z</time></trkpt><trkpt lat="43.3981689" lon="12.6467999"><ele>624.0</ele><time>2026-05-01T12:02:26.5Z</time></trkpt><trkpt lat="43.3982755" lon="12.64703"><ele>624.0</ele><time>2026-05-01T12:02:27.5Z</time></trkpt><trkpt lat="43.3983676" lon="12.6472626"><ele>623.3333333333334</ele><time>2026-05-01T12:02:28.5Z</time></trkpt><trkpt lat="43.398458" lon="12.6474893"><ele>622.6666666666667</ele><time>2026-05-01T12:02:29.5Z</time></trkpt><trkpt lat="43.3985434" lon="12.6477124"><ele>622.0</ele><time>2026-05-01T12:02:30.5Z</time></trkpt><trkpt lat="43.3986169" lon="12.6479346"><ele>620.0</ele><time>2026-05-01T12:02:31.499Z</time></trkpt><trkpt lat="43.3986717" lon="12.6481533"><ele>618.0</ele><time>2026-05-01T12:02:32.499Z</time></trkpt><trkpt lat="43.3986946" lon="12.648369"><ele>616.0</ele><time>2026-05-01T12:02:33.5Z</time></trkpt><trkpt lat="43.3987039" lon="12.6485863"><ele>617.3333333333334</ele><time>2026-05-01T12:02:34.499Z</time></trkpt><trkpt lat="43.39873" lon="12.6488"><ele>618.6666666666666</ele><time>2026-05-01T12:02:35.5Z</time></trkpt><trkpt lat="43.3987927" lon="12.6490131"><ele>620.0</ele><time>2026-05-01T12:02:36.5Z</time></trkpt><trkpt lat="43.3988628" lon="12.6492203"><ele>620.0</ele><time>2026-05-01T12:02:37.5Z</time></trkpt><trkpt lat="43.3989689" lon="12.6494062"><ele>620.0</ele><time>2026-05-01T12:02:38.499Z</time></trkpt><trkpt lat="43.3991115" lon="12.6495907"><ele>620.0</ele><time>2026-05-01T12:02:39.499Z</time></trkpt><trkpt lat="43.3992629" lon="12.6497694"><ele>614.6666666666666</ele><time>2026-05-01T12:02:40.499Z</time></trkpt><trkpt lat="43.3994178" lon="12.64996"><ele>609.3333333333334</ele><time>2026-05-01T12:02:41.5Z</time></trkpt><trkpt lat="43.399569" lon="12.6501572"><ele>604.0</ele><time>2026-05-01T12:02:42.499Z</time></trkpt><trkpt lat="43.3997269" lon="12.6503325"><ele>603.0</ele><time>2026-05-01T12:02:43.5Z</time></trkpt><trkpt lat="43.3998857" lon="12.6504866"><ele>602.0</ele><time>2026-05-01T12:02:44.499Z</time></trkpt><trkpt lat="43.4000479" lon="12.6506243"><ele>601.0</ele><time>2026-05-01T12:02:45.499Z</time></trkpt><trkpt lat="43.4002038" lon="12.6507562"><ele>601.0</ele><time>2026-05-01T12:02:46.5Z</time></trkpt><trkpt lat="43.4003557" lon="12.6508833"><ele>601.0</ele><time>2026-05-01T12:02:47.5Z</time></trkpt><trkpt lat="43.4005034" lon="12.6510011"><ele>601.0</ele><time>2026-05-01T12:02:48.5Z</time></trkpt><trkpt lat="43.4006429" lon="12.651125"><ele>599.0</ele><time>2026-05-01T12:02:49.5Z</time></trkpt><trkpt lat="43.400774" lon="12.6512489"><ele>597.0</ele><time>2026-05-01T12:02:50.5Z</time></trkpt><trkpt lat="43.400896" lon="12.6513843"><ele>595.0</ele><time>2026-05-01T12:02:51.5Z</time></trkpt><trkpt lat="43.401011" lon="12.6515379"><ele>595.0</ele><time>2026-05-01T12:02:52.5Z</time></trkpt><trkpt lat="43.4011182" lon="12.6517047"><ele>595.0</ele><time>2026-05-01T12:02:53.5Z</time></trkpt><trkpt lat="43.4012187" lon="12.6518707"><ele>595.0</ele><time>2026-05-01T12:02:54.5Z</time></trkpt><trkpt lat="43.4013129" lon="12.6520517"><ele>596.6666666666667</ele><time>2026-05-01T12:02:55.5Z</time></trkpt><trkpt lat="43.4013989" lon="12.6522493"><ele>598.3333333333334</ele><time>2026-05-01T12:02:56.5Z</time></trkpt><trkpt lat="43.4014774" lon="12.6524597"><ele>600.0</ele><time>2026-05-01T12:02:57.499Z</time></trkpt><trkpt lat="43.4015595" lon="12.6526762"><ele>597.6666666666666</ele><time>2026-05-01T12:02:58.5Z</time></trkpt><trkpt lat="43.4016419" lon="12.6528968"><ele>595.3333333333333</ele><time>2026-05-01T12:02:59.5Z</time></trkpt><trkpt lat="43.4017295" lon="12.653116"><ele>593.0</ele><time>2026-05-01T12:03:00.5Z</time></trkpt><trkpt lat="43.4018119" lon="12.653329"><ele>593.0</ele><time>2026-05-01T12:03:01.5Z</time></trkpt><trkpt lat="43.401897" lon="12.653545"><ele>593.0</ele><time>2026-05-01T12:03:02.499Z</time></trkpt><trkpt lat="43.4019783" lon="12.6537573"><ele>593.0</ele><time>2026-05-01T12:03:03.499Z</time></trkpt><trkpt lat="43.4020624" lon="12.6539689"><ele>592.0</ele><time>2026-05-01T12:03:04.5Z</time></trkpt><trkpt lat="43.4021429" lon="12.6541791"><ele>591.0</ele><time>2026-05-01T12:03:05.5Z</time></trkpt><trkpt lat="43.4022339" lon="12.6543894"><ele>590.0</ele><time>2026-05-01T12:03:06.5Z</time></trkpt><trkpt lat="43.4023343" lon="12.6545806"><ele>590.0</ele><time>2026-05-01T12:03:07.5Z</time></trkpt><trkpt lat="43.4024483" lon="12.6547782"><ele>590.0</ele><time>2026-05-01T12:03:08.499Z</time></trkpt><trkpt lat="43.4025689" lon="12.6549731"><ele>590.0</ele><time>2026-05-01T12:03:09.5Z</time></trkpt><trkpt lat="43.402685" lon="12.6551614"><ele>589.0</ele><time>2026-05-01T12:03:10.5Z</time></trkpt><trkpt lat="43.4027995" lon="12.6553493"><ele>588.0</ele><time>2026-05-01T12:03:11.5Z</time></trkpt><trkpt lat="43.4028796" lon="12.655542"><ele>587.0</ele><time>2026-05-01T12:03:12.5Z</time></trkpt><trkpt lat="43.4028897" lon="12.6557527"><ele>587.0</ele><time>2026-05-01T12:03:13.499Z</time></trkpt><trkpt lat="43.402861" lon="12.6559573"><ele>587.0</ele><time>2026-05-01T12:03:14.499Z</time></trkpt><trkpt lat="43.4028072" lon="12.6561534"><ele>587.0</ele><time>2026-05-01T12:03:15.5Z</time></trkpt><trkpt lat="43.4027485" lon="12.6563423"><ele>588.3333333333333</ele><time>2026-05-01T12:03:16.5Z</time></trkpt><trkpt lat="43.4026944" lon="12.6565296"><ele>589.6666666666666</ele><time>2026-05-01T12:03:17.5Z</time></trkpt><trkpt lat="43.4026459" lon="12.6567296"><ele>591.0</ele><time>2026-05-01T12:03:18.499Z</time></trkpt><trkpt lat="43.4026354" lon="12.6569478"><ele>590.3333333333334</ele><time>2026-05-01T12:03:19.499Z</time></trkpt><trkpt lat="43.4026495" lon="12.6571735"><ele>589.6666666666667</ele><time>2026-05-01T12:03:20.5Z</time></trkpt><trkpt lat="43.4026813" lon="12.6573977"><ele>589.0</ele><time>2026-05-01T12:03:21.5Z</time></trkpt><trkpt lat="43.4027134" lon="12.6576147"><ele>588.0</ele><time>2026-05-01T12:03:22.499Z</time></trkpt><trkpt lat="43.4027363" lon="12.6578468"><ele>587.0</ele><time>2026-05-01T12:03:23.499Z</time></trkpt><trkpt lat="43.4027361" lon="12.6580911"><ele>586.0</ele><time>2026-05-01T12:03:24.5Z</time></trkpt><trkpt lat="43.4027223" lon="12.6583264"><ele>586.0</ele><time>2026-05-01T12:03:25.5Z</time></trkpt><trkpt lat="43.4027056" lon="12.6585544"><ele>586.0</ele><time>2026-05-01T12:03:26.5Z</time></trkpt><trkpt lat="43.4026884" lon="12.6587839"><ele>586.0</ele><time>2026-05-01T12:03:27.499Z</time></trkpt><trkpt lat="43.402676" lon="12.6590085"><ele>587.0</ele><time>2026-05-01T12:03:28.5Z</time></trkpt><trkpt lat="43.40266" lon="12.6592329"><ele>588.0</ele><time>2026-05-01T12:03:29.5Z</time></trkpt><trkpt lat="43.4026434" lon="12.6594628"><ele>589.0</ele><time>2026-05-01T12:03:30.5Z</time></trkpt><trkpt lat="43.4026239" lon="12.6596953"><ele>589.0</ele><time>2026-05-01T12:03:31.5Z</time></trkpt><trkpt lat="43.4026089" lon="12.6599232"><ele>589.0</ele><time>2026-05-01T12:03:32.5Z</time></trkpt><trkpt lat="43.4025936" lon="12.6601472"><ele>589.0</ele><time>2026-05-01T12:03:33.5Z</time></trkpt><trkpt lat="43.4025792" lon="12.6603728"><ele>588.3333333333334</ele><time>2026-05-01T12:03:34.499Z</time></trkpt><trkpt lat="43.4025637" lon="12.6605899"><ele>587.6666666666666</ele><time>2026-05-01T12:03:35.499Z</time></trkpt><trkpt lat="43.4025529" lon="12.6607984"><ele>587.0</ele><time>2026-05-01T12:03:36.5Z</time></trkpt><trkpt lat="43.4025411" lon="12.6610009"><ele>587.3333333333333</ele><time>2026-05-01T12:03:37.499Z</time></trkpt><trkpt lat="43.4025297" lon="12.6612058"><ele>587.6666666666666</ele><time>2026-05-01T12:03:38.5Z</time></trkpt><trkpt lat="43.4025215" lon="12.6614099"><ele>588.0</ele><time>2026-05-01T12:03:39.5Z</time></trkpt><trkpt lat="43.4025077" lon="12.6616199"><ele>588.0</ele><time>2026-05-01T12:03:40.499Z</time></trkpt><trkpt lat="43.4024956" lon="12.6618279"><ele>588.0</ele><time>2026-05-01T12:03:41.5Z</time></trkpt><trkpt lat="43.4024834" lon="12.6620446"><ele>588.0</ele><time>2026-05-01T12:03:42.5Z</time></trkpt><trkpt lat="43.4024719" lon="12.6622624"><ele>587.3333333333334</ele><time>2026-05-01T12:03:43.5Z</time></trkpt><trkpt lat="43.4024593" lon="12.6624837"><ele>586.6666666666667</ele><time>2026-05-01T12:03:44.5Z</time></trkpt><trkpt lat="43.4024437" lon="12.6627026"><ele>586.0</ele><time>2026-05-01T12:03:45.5Z</time></trkpt><trkpt lat="43.4024381" lon="12.6629274"><ele>585.6666666666667</ele><time>2026-05-01T12:03:46.5Z</time></trkpt><trkpt lat="43.4024331" lon="12.6631569"><ele>585.3333333333334</ele><time>2026-05-01T12:03:47.499Z</time></trkpt><trkpt lat="43.4024325" lon="12.6633826"><ele>585.0</ele><time>2026-05-01T12:03:48.499Z</time></trkpt><trkpt lat="43.4024446" lon="12.6636148"><ele>585.6666666666666</ele><time>2026-05-01T12:03:49.499Z</time></trkpt><trkpt lat="43.4024674" lon="12.6638495"><ele>586.3333333333333</ele><time>2026-05-01T12:03:50.5Z</time></trkpt><trkpt lat="43.4024941" lon="12.6640811"><ele>587.0</ele><time>2026-05-01T12:03:51.5Z</time></trkpt><trkpt lat="43.402518" lon="12.6643183"><ele>586.6666666666666</ele><time>2026-05-01T12:03:52.5Z</time></trkpt><trkpt lat="43.4025403" lon="12.6645504"><ele>586.3333333333334</ele><time>2026-05-01T12:03:53.499Z</time></trkpt><trkpt lat="43.4025637" lon="12.6647797"><ele>586.0</ele><time>2026-05-01T12:03:54.5Z</time></trkpt><trkpt lat="43.4025885" lon="12.6650101"><ele>586.0</ele><time>2026-05-01T12:03:55.5Z</time></trkpt><trkpt lat="43.4026157" lon="12.6652407"><ele>586.0</ele><time>2026-05-01T12:03:56.5Z</time></trkpt><trkpt lat="43.402645" lon="12.6654712"><ele>586.0</ele><time>2026-05-01T12:03:57.5Z</time></trkpt><trkpt lat="43.4026773" lon="12.6657001"><ele>585.5</ele><time>2026-05-01T12:03:58.5Z</time></trkpt><trkpt lat="43.4027159" lon="12.6659132"><ele>585.0</ele><time>2026-05-01T12:03:59.5Z</time></trkpt><trkpt lat="43.4027549" lon="12.6660985"><ele>584.5</ele><time>2026-05-01T12:04:00.499Z</time></trkpt><trkpt lat="43.40281" lon="12.6662641"><ele>584.0</ele><time>2026-05-01T12:04:01.5Z</time></trkpt><trkpt lat="43.4028591" lon="12.6663972"><ele>584.0</ele><time>2026-05-01T12:04:02.499Z</time></trkpt><trkpt lat="43.4029052" lon="12.6665071"><ele>584.0</ele><time>2026-05-01T12:04:03.5Z</time></trkpt><trkpt lat="43.4029454" lon="12.6666047"><ele>584.0</ele><time>2026-05-01T12:04:04.499Z</time></trkpt><trkpt lat="43.4029617" lon="12.6667191"><ele>584.0</ele><time>2026-05-01T12:04:05.499Z</time></trkpt><trkpt lat="43.4029651" lon="12.6668526"><ele>584.0</ele><time>2026-05-01T12:04:06.5Z</time></trkpt><trkpt lat="43.4029682" lon="12.6670027"><ele>583.25</ele><time>2026-05-01T12:04:07.5Z</time></trkpt><trkpt lat="43.4029671" lon="12.6671594"><ele>582.5</ele><time>2026-05-01T12:04:08.499Z</time></trkpt><trkpt lat="43.4029666" lon="12.6673196"><ele>581.75</ele><time>2026-05-01T12:04:09.5Z</time></trkpt><trkpt lat="43.4029661" lon="12.6674824"><ele>581.0</ele><time>2026-05-01T12:04:10.5Z</time></trkpt><trkpt lat="43.4029469" lon="12.6676475"><ele>580.0</ele><time>2026-05-01T12:04:11.5Z</time></trkpt><trkpt lat="43.402913" lon="12.6678251"><ele>579.0</ele><time>2026-05-01T12:04:12.5Z</time></trkpt><trkpt lat="43.4028638" lon="12.6679992"><ele>578.0</ele><time>2026-05-01T12:04:13.5Z</time></trkpt><trkpt lat="43.4027971" lon="12.668176"><ele>577.0</ele><time>2026-05-01T12:04:14.5Z</time></trkpt><trkpt lat="43.4027231" lon="12.6683427"><ele>577.0</ele><time>2026-05-01T12:04:15.5Z</time></trkpt><trkpt lat="43.4026423" lon="12.6684992"><ele>577.0</ele><time>2026-05-01T12:04:16.499Z</time></trkpt><trkpt lat="43.4025668" lon="12.6686549"><ele>577.0</ele><time>2026-05-01T12:04:17.499Z</time></trkpt><trkpt lat="43.4024826" lon="12.6688011"><ele>577.0</ele><time>2026-05-01T12:04:18.5Z</time></trkpt><trkpt lat="43.4024074" lon="12.6689424"><ele>577.25</ele><time>2026-05-01T12:04:19.499Z</time></trkpt><trkpt lat="43.4023353" lon="12.669083"><ele>577.5</ele><time>2026-05-01T12:04:20.5Z</time></trkpt><trkpt lat="43.4022688" lon="12.6692123"><ele>577.75</ele><time>2026-05-01T12:04:21.5Z</time></trkpt><trkpt lat="43.4022023" lon="12.6693373"><ele>578.0</ele><time>2026-05-01T12:04:22.5Z</time></trkpt><trkpt lat="43.402137" lon="12.66945"><ele>578.5</ele><time>2026-05-01T12:04:23.5Z</time></trkpt><trkpt lat="43.402078" lon="12.6695479"><ele>579.0</ele><time>2026-05-01T12:04:24.5Z</time></trkpt><trkpt lat="43.4020213" lon="12.6696237"><ele>579.5</ele><time>2026-05-01T12:04:25.499Z</time></trkpt><trkpt lat="43.4019948" lon="12.6697127"><ele>580.0</ele><time>2026-05-01T12:04:26.5Z</time></trkpt><trkpt lat="43.4020124" lon="12.6698004"><ele>580.5</ele><time>2026-05-01T12:04:27.499Z</time></trkpt><trkpt lat="43.4020694" lon="12.6698503"><ele>581.0</ele><time>2026-05-01T12:04:28.5Z</time></trkpt><trkpt lat="43.4021514" lon="12.669857"><ele>581.75</ele><time>2026-05-01T12:04:29.5Z</time></trkpt><trkpt lat="43.4022399" lon="12.6698383"><ele>582.5</ele><time>2026-05-01T12:04:30.5Z</time></trkpt><trkpt lat="43.4023503" lon="12.6698254"><ele>583.25</ele><time>2026-05-01T12:04:31.5Z</time></trkpt><trkpt lat="43.4024775" lon="12.6698281"><ele>584.0</ele><time>2026-05-01T12:04:32.5Z</time></trkpt><trkpt lat="43.4026154" lon="12.6698088"><ele>584.0</ele><time>2026-05-01T12:04:33.499Z</time></trkpt><trkpt lat="43.4027459" lon="12.6697947"><ele>584.0</ele><time>2026-05-01T12:04:34.5Z</time></trkpt><trkpt lat="43.4028815" lon="12.6697781"><ele>584.0</ele><time>2026-05-01T12:04:35.5Z</time></trkpt><trkpt lat="43.4030079" lon="12.6697631"><ele>584.0</ele><time>2026-05-01T12:04:36.5Z</time></trkpt><trkpt lat="43.4031327" lon="12.6697506"><ele>583.75</ele><time>2026-05-01T12:04:37.5Z</time></trkpt><trkpt lat="43.4032582" lon="12.6697424"><ele>583.5</ele><time>2026-05-01T12:04:38.5Z</time></trkpt><trkpt lat="43.4033769" lon="12.6697687"><ele>583.25</ele><time>2026-05-01T12:04:39.499Z</time></trkpt><trkpt lat="43.4034872" lon="12.6698646"><ele>583.0</ele><time>2026-05-01T12:04:40.5Z</time></trkpt><trkpt lat="43.4035941" lon="12.6699729"><ele>583.0</ele><time>2026-05-01T12:04:41.5Z</time></trkpt><trkpt lat="43.4036958" lon="12.6700924"><ele>583.0</ele><time>2026-05-01T12:04:42.499Z</time></trkpt><trkpt lat="43.4037942" lon="12.6702209"><ele>583.0</ele><time>2026-05-01T12:04:43.5Z</time></trkpt><trkpt lat="43.4038949" lon="12.67036"><ele>583.0</ele><time>2026-05-01T12:04:44.5Z</time></trkpt><trkpt lat="43.4039873" lon="12.6705189"><ele>583.6666666666667</ele><time>2026-05-01T12:04:45.5Z</time></trkpt><trkpt lat="43.4040884" lon="12.6706812"><ele>584.3333333333334</ele><time>2026-05-01T12:04:46.5Z</time></trkpt><trkpt lat="43.4041851" lon="12.6708434"><ele>585.0</ele><time>2026-05-01T12:04:47.5Z</time></trkpt><trkpt lat="43.4042853" lon="12.6710073"><ele>586.6666666666666</ele><time>2026-05-01T12:04:48.499Z</time></trkpt><trkpt lat="43.4043846" lon="12.6711771"><ele>588.3333333333333</ele><time>2026-05-01T12:04:49.5Z</time></trkpt><trkpt lat="43.4044833" lon="12.6713541"><ele>590.0</ele><time>2026-05-01T12:04:50.5Z</time></trkpt><trkpt lat="43.4045833" lon="12.6715327"><ele>587.6666666666666</ele><time>2026-05-01T12:04:51.5Z</time></trkpt><trkpt lat="43.4046847" lon="12.6717236"><ele>585.3333333333334</ele><time>2026-05-01T12:04:52.499Z</time></trkpt><trkpt lat="43.4047846" lon="12.6719161"><ele>583.0</ele><time>2026-05-01T12:04:53.5Z</time></trkpt><trkpt lat="43.4048803" lon="12.6721221"><ele>583.0</ele><time>2026-05-01T12:04:54.5Z</time></trkpt><trkpt lat="43.4049802" lon="12.6723223"><ele>583.0</ele><time>2026-05-01T12:04:55.5Z</time></trkpt><trkpt lat="43.4050795" lon="12.6725251"><ele>583.0</ele><time>2026-05-01T12:04:56.5Z</time></trkpt><trkpt lat="43.4051809" lon="12.6727344"><ele>582.0</ele><time>2026-05-01T12:04:57.5Z</time></trkpt><trkpt lat="43.4052843" lon="12.6729442"><ele>581.0</ele><time>2026-05-01T12:04:58.499Z</time></trkpt><trkpt lat="43.4053919" lon="12.6731602"><ele>580.0</ele><time>2026-05-01T12:04:59.5Z</time></trkpt><trkpt lat="43.4054971" lon="12.6733707"><ele>580.3333333333334</ele><time>2026-05-01T12:05:00.499Z</time></trkpt><trkpt lat="43.4056023" lon="12.6735854"><ele>580.6666666666666</ele><time>2026-05-01T12:05:01.5Z</time></trkpt><trkpt lat="43.4057096" lon="12.6738046"><ele>581.0</ele><time>2026-05-01T12:05:02.5Z</time></trkpt><trkpt lat="43.405817" lon="12.6740242"><ele>581.0</ele><time>2026-05-01T12:05:03.5Z</time></trkpt><trkpt lat="43.4059253" lon="12.6742479"><ele>581.0</ele><time>2026-05-01T12:05:04.5Z</time></trkpt><trkpt lat="43.4060357" lon="12.6744834"><ele>581.0</ele><time>2026-05-01T12:05:05.499Z</time></trkpt><trkpt lat="43.4061421" lon="12.6747302"><ele>579.6666666666666</ele><time>2026-05-01T12:05:06.5Z</time></trkpt><trkpt lat="43.4062296" lon="12.6749915"><ele>578.3333333333334</ele><time>2026-05-01T12:05:07.5Z</time></trkpt><trkpt lat="43.4063039" lon="12.6752605"><ele>577.0</ele><time>2026-05-01T12:05:08.499Z</time></trkpt><trkpt lat="43.4063713" lon="12.6755317"><ele>579.0</ele><time>2026-05-01T12:05:09.5Z</time></trkpt><trkpt lat="43.406438" lon="12.6758008"><ele>581.0</ele><time>2026-05-01T12:05:10.499Z</time></trkpt><trkpt lat="43.4064973" lon="12.6760681"><ele>583.0</ele><time>2026-05-01T12:05:11.5Z</time></trkpt><trkpt lat="43.40655" lon="12.676337"><ele>583.0</ele><time>2026-05-01T12:05:12.499Z</time></trkpt><trkpt lat="43.4065951" lon="12.6766021"><ele>583.0</ele><time>2026-05-01T12:05:13.499Z</time></trkpt><trkpt lat="43.4066468" lon="12.6768691"><ele>583.0</ele><time>2026-05-01T12:05:14.5Z</time></trkpt><trkpt lat="43.4067275" lon="12.6771341"><ele>582.3333333333334</ele><time>2026-05-01T12:05:15.499Z</time></trkpt><trkpt lat="43.4068445" lon="12.6773883"><ele>581.6666666666666</ele><time>2026-05-01T12:05:16.5Z</time></trkpt><trkpt lat="43.4069771" lon="12.677643"><ele>581.0</ele><time>2026-05-01T12:05:17.5Z</time></trkpt><trkpt lat="43.4071023" lon="12.6779124"><ele>584.0</ele><time>2026-05-01T12:05:18.5Z</time></trkpt><trkpt lat="43.4072319" lon="12.6781787"><ele>587.0</ele><time>2026-05-01T12:05:19.5Z</time></trkpt><trkpt lat="43.4073604" lon="12.678447"><ele>582.0</ele><time>2026-05-01T12:05:20.499Z</time></trkpt><trkpt lat="43.4074826" lon="12.6787105"><ele>577.0</ele><time>2026-05-01T12:05:21.499Z</time></trkpt><trkpt lat="43.4075999" lon="12.6789589"><ele>572.0</ele><time>2026-05-01T12:05:22.499Z</time></trkpt><trkpt lat="43.4077107" lon="12.679202"><ele>573.0</ele><time>2026-05-01T12:05:23.499Z</time></trkpt><trkpt lat="43.4078158" lon="12.6794493"><ele>574.0</ele><time>2026-05-01T12:05:24.5Z</time></trkpt><trkpt lat="43.407911" lon="12.6796955"><ele>575.0</ele><time>2026-05-01T12:05:25.5Z</time></trkpt><trkpt lat="43.4079904" lon="12.6799442"><ele>574.0</ele><time>2026-05-01T12:05:26.5Z</time></trkpt><trkpt lat="43.4080644" lon="12.6801791"><ele>573.0</ele><time>2026-05-01T12:05:27.5Z</time></trkpt><trkpt lat="43.4081319" lon="12.6803823"><ele>572.0</ele><time>2026-05-01T12:05:28.499Z</time></trkpt><trkpt lat="43.408201" lon="12.6805697"><ele>572.0</ele><time>2026-05-01T12:05:29.5Z</time></trkpt><trkpt lat="43.4082786" lon="12.6807483"><ele>572.0</ele><time>2026-05-01T12:05:30.5Z</time></trkpt><trkpt lat="43.4083607" lon="12.6809111"><ele>572.0</ele><time>2026-05-01T12:05:31.499Z</time></trkpt><trkpt lat="43.4084364" lon="12.6810515"><ele>572.0</ele><time>2026-05-01T12:05:32.5Z</time></trkpt><trkpt lat="43.4085083" lon="12.6811962"><ele>572.0</ele><time>2026-05-01T12:05:33.499Z</time></trkpt><trkpt lat="43.4085841" lon="12.6813412"><ele>572.0</ele><time>2026-05-01T12:05:34.499Z</time></trkpt><trkpt lat="43.4086643" lon="12.6814885"><ele>572.0</ele><time>2026-05-01T12:05:35.5Z</time></trkpt><trkpt lat="43.4087482" lon="12.6816379"><ele>572.0</ele><time>2026-05-01T12:05:36.499Z</time></trkpt><trkpt lat="43.4088295" lon="12.6817905"><ele>570.5</ele><time>2026-05-01T12:05:37.5Z</time></trkpt><trkpt lat="43.4089088" lon="12.6819521"><ele>569.0</ele><time>2026-05-01T12:05:38.5Z</time></trkpt><trkpt lat="43.4089811" lon="12.6820996"><ele>567.5</ele><time>2026-05-01T12:05:39.5Z</time></trkpt><trkpt lat="43.4090581" lon="12.6822464"><ele>566.0</ele><time>2026-05-01T12:05:40.5Z</time></trkpt><trkpt lat="43.4091361" lon="12.68239"><ele>566.0</ele><time>2026-05-01T12:05:41.5Z</time></trkpt><trkpt lat="43.4092153" lon="12.6825272"><ele>566.0</ele><time>2026-05-01T12:05:42.5Z</time></trkpt><trkpt lat="43.4092914" lon="12.6826677"><ele>566.0</ele><time>2026-05-01T12:05:43.499Z</time></trkpt><trkpt lat="43.4093674" lon="12.6828062"><ele>566.0</ele><time>2026-05-01T12:05:44.499Z</time></trkpt><trkpt lat="43.4094366" lon="12.6829416"><ele>566.25</ele><time>2026-05-01T12:05:45.5Z</time></trkpt><trkpt lat="43.4095045" lon="12.6830697"><ele>566.5</ele><time>2026-05-01T12:05:46.5Z</time></trkpt><trkpt lat="43.4095722" lon="12.6831956"><ele>566.75</ele><time>2026-05-01T12:05:47.5Z</time></trkpt><trkpt lat="43.4096389" lon="12.6833275"><ele>567.0</ele><time>2026-05-01T12:05:48.5Z</time></trkpt><trkpt lat="43.4096971" lon="12.6834627"><ele>567.5</ele><time>2026-05-01T12:05:49.5Z</time></trkpt><trkpt lat="43.4097551" lon="12.6836139"><ele>568.0</ele><time>2026-05-01T12:05:50.5Z</time></trkpt><trkpt lat="43.4098096" lon="12.6837613"><ele>568.5</ele><time>2026-05-01T12:05:51.5Z</time></trkpt><trkpt lat="43.4098764" lon="12.6838992"><ele>569.0</ele><time>2026-05-01T12:05:52.499Z</time></trkpt><trkpt lat="43.4099625" lon="12.6840213"><ele>569.0</ele><time>2026-05-01T12:05:53.5Z</time></trkpt><trkpt lat="43.410067" lon="12.6841305"><ele>569.0</ele><time>2026-05-01T12:05:54.5Z</time></trkpt><trkpt lat="43.410177" lon="12.6842509"><ele>569.0</ele><time>2026-05-01T12:05:55.5Z</time></trkpt><trkpt lat="43.4102667" lon="12.684399"><ele>569.0</ele><time>2026-05-01T12:05:56.5Z</time></trkpt><trkpt lat="43.4103433" lon="12.6845638"><ele>570.25</ele><time>2026-05-01T12:05:57.499Z</time></trkpt><trkpt lat="43.4104131" lon="12.6847384"><ele>571.5</ele><time>2026-05-01T12:05:58.5Z</time></trkpt><trkpt lat="43.4104895" lon="12.6849118"><ele>572.75</ele><time>2026-05-01T12:05:59.5Z</time></trkpt><trkpt lat="43.4105796" lon="12.6850724"><ele>574.0</ele><time>2026-05-01T12:06:00.5Z</time></trkpt><trkpt lat="43.4106805" lon="12.6852204"><ele>573.3333333333334</ele><time>2026-05-01T12:06:01.5Z</time></trkpt><trkpt lat="43.4108005" lon="12.6853407"><ele>572.6666666666666</ele><time>2026-05-01T12:06:02.5Z</time></trkpt><trkpt lat="43.4109347" lon="12.6854356"><ele>572.0</ele><time>2026-05-01T12:06:03.5Z</time></trkpt><trkpt lat="43.4110781" lon="12.6855134"><ele>572.0</ele><time>2026-05-01T12:06:04.5Z</time></trkpt><trkpt lat="43.411219" lon="12.68559"><ele>572.0</ele><time>2026-05-01T12:06:05.499Z</time></trkpt><trkpt lat="43.411358" lon="12.6856742"><ele>572.0</ele><time>2026-05-01T12:06:06.5Z</time></trkpt><trkpt lat="43.4114763" lon="12.6857841"><ele>572.0</ele><time>2026-05-01T12:06:07.5Z</time></trkpt><trkpt lat="43.411563" lon="12.685932"><ele>572.6666666666666</ele><time>2026-05-01T12:06:08.499Z</time></trkpt><trkpt lat="43.4116104" lon="12.6861194"><ele>573.3333333333334</ele><time>2026-05-01T12:06:09.499Z</time></trkpt><trkpt lat="43.4116337" lon="12.686329"><ele>574.0</ele><time>2026-05-01T12:06:10.5Z</time></trkpt><trkpt lat="43.4116569" lon="12.6865434"><ele>574.0</ele><time>2026-05-01T12:06:11.5Z</time></trkpt><trkpt lat="43.4116871" lon="12.6867597"><ele>574.0</ele><time>2026-05-01T12:06:12.5Z</time></trkpt><trkpt lat="43.4117282" lon="12.686979"><ele>574.0</ele><time>2026-05-01T12:06:13.5Z</time></trkpt><trkpt lat="43.4117897" lon="12.6871988"><ele>571.0</ele><time>2026-05-01T12:06:14.5Z</time></trkpt><trkpt lat="43.411855" lon="12.6874267"><ele>568.0</ele><time>2026-05-01T12:06:15.5Z</time></trkpt><trkpt lat="43.411917" lon="12.687651"><ele>565.0</ele><time>2026-05-01T12:06:16.499Z</time></trkpt><trkpt lat="43.4119738" lon="12.6878937"><ele>564.6666666666667</ele><time>2026-05-01T12:06:17.5Z</time></trkpt><trkpt lat="43.4120246" lon="12.6881379"><ele>564.3333333333334</ele><time>2026-05-01T12:06:18.5Z</time></trkpt><trkpt lat="43.4120732" lon="12.6883862"><ele>564.0</ele><time>2026-05-01T12:06:19.5Z</time></trkpt><trkpt lat="43.4121264" lon="12.6886389"><ele>572.0</ele><time>2026-05-01T12:06:20.499Z</time></trkpt><trkpt lat="43.412178" lon="12.6888891"><ele>580.0</ele><time>2026-05-01T12:06:21.5Z</time></trkpt><trkpt lat="43.4122195" lon="12.6891454"><ele>588.0</ele><time>2026-05-01T12:06:22.5Z</time></trkpt><trkpt lat="43.4122546" lon="12.6894051"><ele>582.6666666666666</ele><time>2026-05-01T12:06:23.5Z</time></trkpt><trkpt lat="43.4123074" lon="12.6896621"><ele>577.3333333333333</ele><time>2026-05-01T12:06:24.499Z</time></trkpt><trkpt lat="43.4123924" lon="12.6899067"><ele>572.0</ele><time>2026-05-01T12:06:25.499Z</time></trkpt><trkpt lat="43.4124955" lon="12.6901437"><ele>567.0</ele><time>2026-05-01T12:06:26.499Z</time></trkpt><trkpt lat="43.4126087" lon="12.6903764"><ele>562.0</ele><time>2026-05-01T12:06:27.499Z</time></trkpt><trkpt lat="43.4127315" lon="12.6906101"><ele>557.0</ele><time>2026-05-01T12:06:28.5Z</time></trkpt><trkpt lat="43.4128568" lon="12.6908467"><ele>557.0</ele><time>2026-05-01T12:06:29.5Z</time></trkpt><trkpt lat="43.4129804" lon="12.6910852"><ele>557.0</ele><time>2026-05-01T12:06:30.5Z</time></trkpt><trkpt lat="43.4131063" lon="12.6913154"><ele>557.0</ele><time>2026-05-01T12:06:31.5Z</time></trkpt><trkpt lat="43.4132373" lon="12.691546"><ele>555.6666666666666</ele><time>2026-05-01T12:06:32.5Z</time></trkpt><trkpt lat="43.4133618" lon="12.6917866"><ele>554.3333333333334</ele><time>2026-05-01T12:06:33.5Z</time></trkpt><trkpt lat="43.4134803" lon="12.6920308"><ele>553.0</ele><time>2026-05-01T12:06:34.5Z</time></trkpt><trkpt lat="43.4135822" lon="12.692279"><ele>553.0</ele><time>2026-05-01T12:06:35.5Z</time></trkpt><trkpt lat="43.4136655" lon="12.6925306"><ele>553.0</ele><time>2026-05-01T12:06:36.5Z</time></trkpt><trkpt lat="43.4137422" lon="12.692778"><ele>553.0</ele><time>2026-05-01T12:06:37.499Z</time></trkpt><trkpt lat="43.4138213" lon="12.693025"><ele>555.0</ele><time>2026-05-01T12:06:38.5Z</time></trkpt><trkpt lat="43.4138985" lon="12.6932805"><ele>557.0</ele><time>2026-05-01T12:06:39.499Z</time></trkpt><trkpt lat="43.4139756" lon="12.693532"><ele>559.0</ele><time>2026-05-01T12:06:40.5Z</time></trkpt><trkpt lat="43.4140532" lon="12.6937831"><ele>559.6666666666667</ele><time>2026-05-01T12:06:41.5Z</time></trkpt><trkpt lat="43.4141205" lon="12.6940144"><ele>560.3333333333334</ele><time>2026-05-01T12:06:42.499Z</time></trkpt><trkpt lat="43.4141813" lon="12.6942395"><ele>561.0</ele><time>2026-05-01T12:06:43.5Z</time></trkpt><trkpt lat="43.4142161" lon="12.6944613"><ele>561.0</ele><time>2026-05-01T12:06:44.5Z</time></trkpt><trkpt lat="43.4142323" lon="12.694696"><ele>561.0</ele><time>2026-05-01T12:06:45.5Z</time></trkpt><trkpt lat="43.4142352" lon="12.6949361"><ele>561.0</ele><time>2026-05-01T12:06:46.499Z</time></trkpt><trkpt lat="43.4142217" lon="12.6951796"><ele>561.0</ele><time>2026-05-01T12:06:47.5Z</time></trkpt><trkpt lat="43.4141819" lon="12.6954277"><ele>561.0</ele><time>2026-05-01T12:06:48.5Z</time></trkpt><trkpt lat="43.4141492" lon="12.6956703"><ele>561.0</ele><time>2026-05-01T12:06:49.5Z</time></trkpt><trkpt lat="43.4141313" lon="12.6959178"><ele>562.0</ele><time>2026-05-01T12:06:50.5Z</time></trkpt><trkpt lat="43.4141242" lon="12.6961708"><ele>563.0</ele><time>2026-05-01T12:06:51.5Z</time></trkpt><trkpt lat="43.4141339" lon="12.6964302"><ele>564.0</ele><time>2026-05-01T12:06:52.5Z</time></trkpt><trkpt lat="43.4141576" lon="12.6966973"><ele>564.6666666666666</ele><time>2026-05-01T12:06:53.5Z</time></trkpt><trkpt lat="43.4141937" lon="12.6969565"><ele>565.3333333333333</ele><time>2026-05-01T12:06:54.5Z</time></trkpt><trkpt lat="43.4142389" lon="12.6972052"><ele>566.0</ele><time>2026-05-01T12:06:55.5Z</time></trkpt><trkpt lat="43.4142955" lon="12.6974471"><ele>566.0</ele><time>2026-05-01T12:06:56.5Z</time></trkpt><trkpt lat="43.4143538" lon="12.6976844"><ele>566.0</ele><time>2026-05-01T12:06:57.5Z</time></trkpt><trkpt lat="43.4144232" lon="12.6979117"><ele>566.0</ele><time>2026-05-01T12:06:58.499Z</time></trkpt><trkpt lat="43.414505" lon="12.6981313"><ele>564.3333333333333</ele><time>2026-05-01T12:06:59.5Z</time></trkpt><trkpt lat="43.4145885" lon="12.6983432"><ele>562.6666666666666</ele><time>2026-05-01T12:07:00.5Z</time></trkpt><trkpt lat="43.4146612" lon="12.6985528"><ele>561.0</ele><time>2026-05-01T12:07:01.499Z</time></trkpt><trkpt lat="43.4147232" lon="12.6987696"><ele>559.6666666666666</ele><time>2026-05-01T12:07:02.5Z</time></trkpt><trkpt lat="43.4147681" lon="12.698998"><ele>558.3333333333333</ele><time>2026-05-01T12:07:03.499Z</time></trkpt><trkpt lat="43.4147909" lon="12.699242"><ele>557.0</ele><time>2026-05-01T12:07:04.5Z</time></trkpt><trkpt lat="43.41481" lon="12.6994854"><ele>557.0</ele><time>2026-05-01T12:07:05.5Z</time></trkpt><trkpt lat="43.4148299" lon="12.6997193"><ele>557.0</ele><time>2026-05-01T12:07:06.499Z</time></trkpt><trkpt lat="43.4148519" lon="12.6999365"><ele>557.0</ele><time>2026-05-01T12:07:07.5Z</time></trkpt><trkpt lat="43.4148693" lon="12.7001406"><ele>555.0</ele><time>2026-05-01T12:07:08.5Z</time></trkpt><trkpt lat="43.4148925" lon="12.7003226"><ele>553.0</ele><time>2026-05-01T12:07:09.5Z</time></trkpt><trkpt lat="43.4149289" lon="12.7004907"><ele>551.0</ele><time>2026-05-01T12:07:10.5Z</time></trkpt><trkpt lat="43.4149936" lon="12.7006162"><ele>549.0</ele><time>2026-05-01T12:07:11.5Z</time></trkpt><trkpt lat="43.4150897" lon="12.7007028"><ele>549.0</ele><time>2026-05-01T12:07:12.499Z</time></trkpt><trkpt lat="43.4152115" lon="12.7007326"><ele>549.0</ele><time>2026-05-01T12:07:13.499Z</time></trkpt><trkpt lat="43.4153353" lon="12.7007638"><ele>549.0</ele><time>2026-05-01T12:07:14.5Z</time></trkpt><trkpt lat="43.415467" lon="12.7008066"><ele>549.0</ele><time>2026-05-01T12:07:15.5Z</time></trkpt><trkpt lat="43.415599" lon="12.7008635"><ele>548.5</ele><time>2026-05-01T12:07:16.5Z</time></trkpt><trkpt lat="43.415727" lon="12.7009472"><ele>548.0</ele><time>2026-05-01T12:07:17.499Z</time></trkpt><trkpt lat="43.415848" lon="12.7010487"><ele>547.5</ele><time>2026-05-01T12:07:18.5Z</time></trkpt><trkpt lat="43.4159657" lon="12.7011705"><ele>547.0</ele><time>2026-05-01T12:07:19.5Z</time></trkpt><trkpt lat="43.4160781" lon="12.7013045"><ele>547.0</ele><time>2026-05-01T12:07:20.5Z</time></trkpt><trkpt lat="43.4161855" lon="12.7014639"><ele>547.0</ele><time>2026-05-01T12:07:21.5Z</time></trkpt><trkpt lat="43.4162754" lon="12.7016481"><ele>547.0</ele><time>2026-05-01T12:07:22.499Z</time></trkpt><trkpt lat="43.416321" lon="12.7018701"><ele>546.6666666666667</ele><time>2026-05-01T12:07:23.5Z</time></trkpt><trkpt lat="43.4163273" lon="12.702098"><ele>546.3333333333334</ele><time>2026-05-01T12:07:24.5Z</time></trkpt><trkpt lat="43.4162808" lon="12.7023369"><ele>546.0</ele><time>2026-05-01T12:07:25.499Z</time></trkpt><trkpt lat="43.4161947" lon="12.7025386"><ele>546.0</ele><time>2026-05-01T12:07:26.499Z</time></trkpt><trkpt lat="43.4160751" lon="12.7027288"><ele>546.0</ele><time>2026-05-01T12:07:27.5Z</time></trkpt><trkpt lat="43.4159418" lon="12.702884"><ele>546.0</ele><time>2026-05-01T12:07:28.5Z</time></trkpt><trkpt lat="43.4158149" lon="12.7030154"><ele>546.0</ele><time>2026-05-01T12:07:29.5Z</time></trkpt><trkpt lat="43.4157139" lon="12.7031391"><ele>546.0</ele><time>2026-05-01T12:07:30.499Z</time></trkpt><trkpt lat="43.4156341" lon="12.7032882"><ele>546.0</ele><time>2026-05-01T12:07:31.5Z</time></trkpt><trkpt lat="43.4155909" lon="12.7034641"><ele>546.0</ele><time>2026-05-01T12:07:32.5Z</time></trkpt><trkpt lat="43.4156035" lon="12.7036688"><ele>546.0</ele><time>2026-05-01T12:07:33.5Z</time></trkpt><trkpt lat="43.4156382" lon="12.7039012"><ele>546.0</ele><time>2026-05-01T12:07:34.5Z</time></trkpt><trkpt lat="43.4156885" lon="12.7041219"><ele>546.0</ele><time>2026-05-01T12:07:35.5Z</time></trkpt><trkpt lat="43.4157426" lon="12.7043538"><ele>544.0</ele><time>2026-05-01T12:07:36.499Z</time></trkpt><trkpt lat="43.415793" lon="12.704579"><ele>542.0</ele><time>2026-05-01T12:07:37.499Z</time></trkpt><trkpt lat="43.4158343" lon="12.7048074"><ele>540.0</ele><time>2026-05-01T12:07:38.5Z</time></trkpt><trkpt lat="43.4158828" lon="12.705038"><ele>541.3333333333334</ele><time>2026-05-01T12:07:39.5Z</time></trkpt><trkpt lat="43.4159323" lon="12.7052693"><ele>542.6666666666667</ele><time>2026-05-01T12:07:40.499Z</time></trkpt><trkpt lat="43.4159814" lon="12.705504"><ele>544.0</ele><time>2026-05-01T12:07:41.5Z</time></trkpt><trkpt lat="43.4160383" lon="12.7057355"><ele>544.0</ele><time>2026-05-01T12:07:42.5Z</time></trkpt><trkpt lat="43.4161112" lon="12.7059534"><ele>544.0</ele><time>2026-05-01T12:07:43.499Z</time></trkpt><trkpt lat="43.416236" lon="12.7061275"><ele>544.0</ele><time>2026-05-01T12:07:44.5Z</time></trkpt><trkpt lat="43.4163808" lon="12.7062844"><ele>543.6666666666667</ele><time>2026-05-01T12:07:45.499Z</time></trkpt><trkpt lat="43.4165213" lon="12.7064301"><ele>543.3333333333334</ele><time>2026-05-01T12:07:46.499Z</time></trkpt><trkpt lat="43.4166533" lon="12.7065767"><ele>543.0</ele><time>2026-05-01T12:07:47.5Z</time></trkpt><trkpt lat="43.416774" lon="12.7067254"><ele>543.0</ele><time>2026-05-01T12:07:48.5Z</time></trkpt><trkpt lat="43.4168882" lon="12.706838"><ele>543.0</ele><time>2026-05-01T12:07:49.499Z</time></trkpt><trkpt lat="43.417017" lon="12.7068707"><ele>543.0</ele><time>2026-05-01T12:07:50.5Z</time></trkpt><trkpt lat="43.4171638" lon="12.7068464"><ele>543.0</ele><time>2026-05-01T12:07:51.5Z</time></trkpt><trkpt lat="43.4173016" lon="12.7067735"><ele>545.6666666666666</ele><time>2026-05-01T12:07:52.5Z</time></trkpt><trkpt lat="43.4174347" lon="12.7066846"><ele>548.3333333333333</ele><time>2026-05-01T12:07:53.5Z</time></trkpt><trkpt lat="43.4175808" lon="12.7066222"><ele>551.0</ele><time>2026-05-01T12:07:54.5Z</time></trkpt><trkpt lat="43.4177295" lon="12.7065622"><ele>551.0</ele><time>2026-05-01T12:07:55.5Z</time></trkpt><trkpt lat="43.4178795" lon="12.7065013"><ele>551.0</ele><time>2026-05-01T12:07:56.5Z</time></trkpt><trkpt lat="43.4180292" lon="12.7064393"><ele>551.0</ele><time>2026-05-01T12:07:57.5Z</time></trkpt><trkpt lat="43.4181768" lon="12.7064127"><ele>549.0</ele><time>2026-05-01T12:07:58.5Z</time></trkpt><trkpt lat="43.4183386" lon="12.706408"><ele>547.0</ele><time>2026-05-01T12:07:59.499Z</time></trkpt><trkpt lat="43.4185044" lon="12.7064462"><ele>545.0</ele><time>2026-05-01T12:08:00.5Z</time></trkpt><trkpt lat="43.4186639" lon="12.7065226"><ele>545.0</ele><time>2026-05-01T12:08:01.5Z</time></trkpt><trkpt lat="43.4188141" lon="12.7066172"><ele>545.0</ele><time>2026-05-01T12:08:02.5Z</time></trkpt><trkpt lat="43.4189561" lon="12.7067389"><ele>545.0</ele><time>2026-05-01T12:08:03.5Z</time></trkpt><trkpt lat="43.4190873" lon="12.7068833"><ele>543.6666666666666</ele><time>2026-05-01T12:08:04.5Z</time></trkpt><trkpt lat="43.4191972" lon="12.7070625"><ele>542.3333333333334</ele><time>2026-05-01T12:08:05.499Z</time></trkpt><trkpt lat="43.4192925" lon="12.7072634"><ele>541.0</ele><time>2026-05-01T12:08:06.499Z</time></trkpt><trkpt lat="43.4193528" lon="12.7074846"><ele>541.0</ele><time>2026-05-01T12:08:07.5Z</time></trkpt><trkpt lat="43.4193655" lon="12.7077064"><ele>541.0</ele><time>2026-05-01T12:08:08.5Z</time></trkpt><trkpt lat="43.4193697" lon="12.7079108"><ele>541.0</ele><time>2026-05-01T12:08:09.5Z</time></trkpt><trkpt lat="43.4193956" lon="12.7081115"><ele>540.6666666666667</ele><time>2026-05-01T12:08:10.499Z</time></trkpt><trkpt lat="43.4194545" lon="12.7083015"><ele>540.3333333333334</ele><time>2026-05-01T12:08:11.5Z</time></trkpt><trkpt lat="43.4195567" lon="12.7084634"><ele>540.0</ele><time>2026-05-01T12:08:12.5Z</time></trkpt><trkpt lat="43.4196764" lon="12.7086024"><ele>538.5</ele><time>2026-05-01T12:08:13.5Z</time></trkpt><trkpt lat="43.4197891" lon="12.7087184"><ele>537.0</ele><time>2026-05-01T12:08:14.5Z</time></trkpt><trkpt lat="43.4199041" lon="12.7087704"><ele>535.5</ele><time>2026-05-01T12:08:15.5Z</time></trkpt><trkpt lat="43.4200234" lon="12.7087225"><ele>534.0</ele><time>2026-05-01T12:08:16.5Z</time></trkpt><trkpt lat="43.4201653" lon="12.7086779"><ele>534.0</ele><time>2026-05-01T12:08:17.5Z</time></trkpt><trkpt lat="43.4203082" lon="12.7085887"><ele>534.0</ele><time>2026-05-01T12:08:18.5Z</time></trkpt><trkpt lat="43.4204383" lon="12.7084765"><ele>534.0</ele><time>2026-05-01T12:08:19.5Z</time></trkpt><trkpt lat="43.4205387" lon="12.7083143"><ele>535.0</ele><time>2026-05-01T12:08:20.5Z</time></trkpt><trkpt lat="43.4206423" lon="12.7081523"><ele>536.0</ele><time>2026-05-01T12:08:21.5Z</time></trkpt><trkpt lat="43.4207497" lon="12.7079961"><ele>537.0</ele><time>2026-05-01T12:08:22.5Z</time></trkpt><trkpt lat="43.4208744" lon="12.7078679"><ele>541.75</ele><time>2026-05-01T12:08:23.5Z</time></trkpt><trkpt lat="43.4210091" lon="12.7077363"><ele>546.5</ele><time>2026-05-01T12:08:24.5Z</time></trkpt><trkpt lat="43.4211423" lon="12.7076572"><ele>551.25</ele><time>2026-05-01T12:08:25.499Z</time></trkpt><trkpt lat="43.4212736" lon="12.7076255"><ele>556.0</ele><time>2026-05-01T12:08:26.499Z</time></trkpt><trkpt lat="43.4214127" lon="12.70764"><ele>556.0</ele><time>2026-05-01T12:08:27.499Z</time></trkpt><trkpt lat="43.4215322" lon="12.7077335"><ele>556.0</ele><time>2026-05-01T12:08:28.499Z</time></trkpt><trkpt lat="43.421631" lon="12.7078363"><ele>556.0</ele><time>2026-05-01T12:08:29.5Z</time></trkpt><trkpt lat="43.4217422" lon="12.707911"><ele>556.0</ele><time>2026-05-01T12:08:30.5Z</time></trkpt><trkpt lat="43.4218925" lon="12.7079104"><ele>550.5</ele><time>2026-05-01T12:08:31.5Z</time></trkpt><trkpt lat="43.4220268" lon="12.7078526"><ele>545.0</ele><time>2026-05-01T12:08:32.5Z</time></trkpt><trkpt lat="43.4221474" lon="12.7077803"><ele>539.5</ele><time>2026-05-01T12:08:33.5Z</time></trkpt><trkpt lat="43.42228" lon="12.7077474"><ele>534.0</ele><time>2026-05-01T12:08:34.5Z</time></trkpt><trkpt lat="43.4224151" lon="12.7077943"><ele>533.6666666666666</ele><time>2026-05-01T12:08:35.5Z</time></trkpt><trkpt lat="43.4225397" lon="12.7079018"><ele>533.3333333333333</ele><time>2026-05-01T12:08:36.5Z</time></trkpt><trkpt lat="43.4226613" lon="12.708045"><ele>533.0</ele><time>2026-05-01T12:08:37.5Z</time></trkpt><trkpt lat="43.4227925" lon="12.7081732"><ele>533.0</ele><time>2026-05-01T12:08:38.5Z</time></trkpt><trkpt lat="43.4229409" lon="12.7082746"><ele>533.0</ele><time>2026-05-01T12:08:39.499Z</time></trkpt><trkpt lat="43.4230904" lon="12.7083429"><ele>533.0</ele><time>2026-05-01T12:08:40.5Z</time></trkpt><trkpt lat="43.4232292" lon="12.7084096"><ele>531.5</ele><time>2026-05-01T12:08:41.5Z</time></trkpt><trkpt lat="43.4233578" lon="12.7085015"><ele>530.0</ele><time>2026-05-01T12:08:42.5Z</time></trkpt><trkpt lat="43.423466" lon="12.7086397"><ele>528.5</ele><time>2026-05-01T12:08:43.5Z</time></trkpt><trkpt lat="43.4235625" lon="12.7087832"><ele>527.0</ele><time>2026-05-01T12:08:44.5Z</time></trkpt><trkpt lat="43.4236446" lon="12.7089271"><ele>527.0</ele><time>2026-05-01T12:08:45.499Z</time></trkpt><trkpt lat="43.4236939" lon="12.7090928"><ele>527.0</ele><time>2026-05-01T12:08:46.5Z</time></trkpt><trkpt lat="43.423709" lon="12.7092716"><ele>527.0</ele><time>2026-05-01T12:08:47.499Z</time></trkpt><trkpt lat="43.4237228" lon="12.7094467"><ele>527.0</ele><time>2026-05-01T12:08:48.5Z</time></trkpt><trkpt lat="43.4237456" lon="12.7096193"><ele>527.25</ele><time>2026-05-01T12:08:49.5Z</time></trkpt><trkpt lat="43.4237731" lon="12.7098058"><ele>527.5</ele><time>2026-05-01T12:08:50.5Z</time></trkpt><trkpt lat="43.4238469" lon="12.7099518"><ele>527.75</ele><time>2026-05-01T12:08:51.5Z</time></trkpt><trkpt lat="43.4239623" lon="12.7100879"><ele>528.0</ele><time>2026-05-01T12:08:52.499Z</time></trkpt><trkpt lat="43.424103" lon="12.7101973"><ele>527.6666666666666</ele><time>2026-05-01T12:08:53.5Z</time></trkpt><trkpt lat="43.424256" lon="12.7103025"><ele>527.3333333333333</ele><time>2026-05-01T12:08:54.499Z</time></trkpt><trkpt lat="43.4244094" lon="12.7103864"><ele>527.0</ele><time>2026-05-01T12:08:55.5Z</time></trkpt><trkpt lat="43.4245589" lon="12.7104605"><ele>525.5</ele><time>2026-05-01T12:08:56.5Z</time></trkpt><trkpt lat="43.4246984" lon="12.7105253"><ele>524.0</ele><time>2026-05-01T12:08:57.5Z</time></trkpt><trkpt lat="43.4248226" lon="12.7105954"><ele>522.5</ele><time>2026-05-01T12:08:58.5Z</time></trkpt><trkpt lat="43.4249236" lon="12.7106573"><ele>521.0</ele><time>2026-05-01T12:08:59.5Z</time></trkpt><trkpt lat="43.4250191" lon="12.7107117"><ele>521.0</ele><time>2026-05-01T12:09:00.499Z</time></trkpt><trkpt lat="43.4251082" lon="12.7107741"><ele>521.0</ele><time>2026-05-01T12:09:01.5Z</time></trkpt><trkpt lat="43.4251979" lon="12.710839"><ele>521.0</ele><time>2026-05-01T12:09:02.5Z</time></trkpt><trkpt lat="43.425283" lon="12.7109209"><ele>521.0</ele><time>2026-05-01T12:09:03.5Z</time></trkpt><trkpt lat="43.4253484" lon="12.7110398"><ele>521.0</ele><time>2026-05-01T12:09:04.5Z</time></trkpt><trkpt lat="43.4253553" lon="12.7112403"><ele>521.0</ele><time>2026-05-01T12:09:05.5Z</time></trkpt><trkpt lat="43.4253652" lon="12.7114453"><ele>521.0</ele><time>2026-05-01T12:09:06.5Z</time></trkpt><trkpt lat="43.4253675" lon="12.7116381"><ele>521.0</ele><time>2026-05-01T12:09:07.499Z</time></trkpt><trkpt lat="43.4253339" lon="12.7118207"><ele>521.0</ele><time>2026-05-01T12:09:08.5Z</time></trkpt><trkpt lat="43.4253229" lon="12.7120181"><ele>521.0</ele><time>2026-05-01T12:09:09.5Z</time></trkpt><trkpt lat="43.4253576" lon="12.7122208"><ele>521.0</ele><time>2026-05-01T12:09:10.5Z</time></trkpt><trkpt lat="43.4254183" lon="12.712427"><ele>521.0</ele><time>2026-05-01T12:09:11.499Z</time></trkpt><trkpt lat="43.4254703" lon="12.7126209"><ele>522.5</ele><time>2026-05-01T12:09:12.499Z</time></trkpt><trkpt lat="43.4254955" lon="12.7128277"><ele>524.0</ele><time>2026-05-01T12:09:13.5Z</time></trkpt><trkpt lat="43.4254786" lon="12.7130309"><ele>525.5</ele><time>2026-05-01T12:09:14.5Z</time></trkpt><trkpt lat="43.4254572" lon="12.7132303"><ele>527.0</ele><time>2026-05-01T12:09:15.499Z</time></trkpt><trkpt lat="43.4254476" lon="12.7134313"><ele>527.3333333333333</ele><time>2026-05-01T12:09:16.499Z</time></trkpt><trkpt lat="43.4254775" lon="12.7136378"><ele>527.6666666666666</ele><time>2026-05-01T12:09:17.5Z</time></trkpt><trkpt lat="43.4255476" lon="12.7138469"><ele>528.0</ele><time>2026-05-01T12:09:18.5Z</time></trkpt><trkpt lat="43.4256336" lon="12.7140565"><ele>526.6666666666666</ele><time>2026-05-01T12:09:19.499Z</time></trkpt><trkpt lat="43.425719" lon="12.71426"><ele>525.3333333333333</ele><time>2026-05-01T12:09:20.5Z</time></trkpt><trkpt lat="43.4257861" lon="12.714457"><ele>524.0</ele><time>2026-05-01T12:09:21.5Z</time></trkpt><trkpt lat="43.4258214" lon="12.7146471"><ele>524.0</ele><time>2026-05-01T12:09:22.499Z</time></trkpt><trkpt lat="43.4258147" lon="12.7148304"><ele>524.0</ele><time>2026-05-01T12:09:23.5Z</time></trkpt><trkpt lat="43.425766" lon="12.7149995"><ele>524.0</ele><time>2026-05-01T12:09:24.5Z</time></trkpt><trkpt lat="43.4256837" lon="12.7151477"><ele>524.0</ele><time>2026-05-01T12:09:25.5Z</time></trkpt><trkpt lat="43.4255949" lon="12.7152853"><ele>527.25</ele><time>2026-05-01T12:09:26.5Z</time></trkpt><trkpt lat="43.4254964" lon="12.7154044"><ele>530.5</ele><time>2026-05-01T12:09:27.5Z</time></trkpt><trkpt lat="43.4253875" lon="12.7155025"><ele>533.75</ele><time>2026-05-01T12:09:28.5Z</time></trkpt><trkpt lat="43.4252652" lon="12.7155838"><ele>537.0</ele><time>2026-05-01T12:09:29.5Z</time></trkpt><trkpt lat="43.4251174" lon="12.7156123"><ele>537.0</ele><time>2026-05-01T12:09:30.5Z</time></trkpt><trkpt lat="43.4249653" lon="12.7156009"><ele>537.0</ele><time>2026-05-01T12:09:31.5Z</time></trkpt><trkpt lat="43.4248165" lon="12.7155793"><ele>537.0</ele><time>2026-05-01T12:09:32.5Z</time></trkpt><trkpt lat="43.4246622" lon="12.7155513"><ele>533.25</ele><time>2026-05-01T12:09:33.5Z</time></trkpt><trkpt lat="43.4245185" lon="12.7155232"><ele>529.5</ele><time>2026-05-01T12:09:34.5Z</time></trkpt><trkpt lat="43.4243835" lon="12.7154835"><ele>525.75</ele><time>2026-05-01T12:09:35.499Z</time></trkpt><trkpt lat="43.4242524" lon="12.7154259"><ele>522.0</ele><time>2026-05-01T12:09:36.5Z</time></trkpt><trkpt lat="43.4241379" lon="12.7153718"><ele>522.0</ele><time>2026-05-01T12:09:37.5Z</time></trkpt><trkpt lat="43.4240341" lon="12.715339"><ele>522.0</ele><time>2026-05-01T12:09:38.5Z</time></trkpt><trkpt lat="43.4239237" lon="12.7153596"><ele>522.0</ele><time>2026-05-01T12:09:39.499Z</time></trkpt><trkpt lat="43.4238247" lon="12.7154552"><ele>522.0</ele><time>2026-05-01T12:09:40.5Z</time></trkpt><trkpt lat="43.423757" lon="12.7155916"><ele>520.0</ele><time>2026-05-01T12:09:41.499Z</time></trkpt><trkpt lat="43.4237136" lon="12.7157683"><ele>518.0</ele><time>2026-05-01T12:09:42.5Z</time></trkpt><trkpt lat="43.4236882" lon="12.715956"><ele>516.0</ele><time>2026-05-01T12:09:43.5Z</time></trkpt><trkpt lat="43.4236525" lon="12.7161337"><ele>514.0</ele><time>2026-05-01T12:09:44.5Z</time></trkpt><trkpt lat="43.4235825" lon="12.7162974"><ele>514.0</ele><time>2026-05-01T12:09:45.499Z</time></trkpt><trkpt lat="43.4234915" lon="12.7164716"><ele>514.0</ele><time>2026-05-01T12:09:46.5Z</time></trkpt><trkpt lat="43.4233915" lon="12.7166346"><ele>514.0</ele><time>2026-05-01T12:09:47.499Z</time></trkpt><trkpt lat="43.423279" lon="12.7167837"><ele>515.0</ele><time>2026-05-01T12:09:48.5Z</time></trkpt><trkpt lat="43.4231625" lon="12.716912"><ele>516.0</ele><time>2026-05-01T12:09:49.5Z</time></trkpt><trkpt lat="43.4230333" lon="12.717027"><ele>517.0</ele><time>2026-05-01T12:09:50.5Z</time></trkpt><trkpt lat="43.4229092" lon="12.7171465"><ele>517.0</ele><time>2026-05-01T12:09:51.499Z</time></trkpt><trkpt lat="43.4227789" lon="12.7172654"><ele>517.0</ele><time>2026-05-01T12:09:52.5Z</time></trkpt><trkpt lat="43.4226537" lon="12.717393"><ele>517.0</ele><time>2026-05-01T12:09:53.499Z</time></trkpt><trkpt lat="43.4225394" lon="12.717521"><ele>517.0</ele><time>2026-05-01T12:09:54.5Z</time></trkpt><trkpt lat="43.422442" lon="12.7176612"><ele>517.0</ele><time>2026-05-01T12:09:55.5Z</time></trkpt><trkpt lat="43.422357" lon="12.7178657"><ele>517.0</ele><time>2026-05-01T12:09:56.5Z</time></trkpt><trkpt lat="43.4222914" lon="12.7180949"><ele>521.0</ele><time>2026-05-01T12:09:57.5Z</time></trkpt><trkpt lat="43.4222416" lon="12.7183252"><ele>525.0</ele><time>2026-05-01T12:09:58.5Z</time></trkpt><trkpt lat="43.4221932" lon="12.718559"><ele>529.0</ele><time>2026-05-01T12:09:59.499Z</time></trkpt><trkpt lat="43.4221398" lon="12.7187797"><ele>522.6666666666667</ele><time>2026-05-01T12:10:00.499Z</time></trkpt><trkpt lat="43.4220825" lon="12.7189953"><ele>516.3333333333334</ele><time>2026-05-01T12:10:01.5Z</time></trkpt><trkpt lat="43.4220344" lon="12.7192179"><ele>510.0</ele><time>2026-05-01T12:10:02.499Z</time></trkpt><trkpt lat="43.4219969" lon="12.7194487"><ele>510.0</ele><time>2026-05-01T12:10:03.5Z</time></trkpt><trkpt lat="43.4219808" lon="12.7196834"><ele>510.0</ele><time>2026-05-01T12:10:04.5Z</time></trkpt><trkpt lat="43.4219644" lon="12.7199151"><ele>510.0</ele><time>2026-05-01T12:10:05.499Z</time></trkpt><trkpt lat="43.421938" lon="12.720145"><ele>514.0</ele><time>2026-05-01T12:10:06.499Z</time></trkpt><trkpt lat="43.4218958" lon="12.7203728"><ele>518.0</ele><time>2026-05-01T12:10:07.5Z</time></trkpt><trkpt lat="43.4218448" lon="12.7205949"><ele>522.0</ele><time>2026-05-01T12:10:08.5Z</time></trkpt><trkpt lat="43.4217931" lon="12.7208091"><ele>522.0</ele><time>2026-05-01T12:10:09.5Z</time></trkpt><trkpt lat="43.4217299" lon="12.7210229"><ele>522.0</ele><time>2026-05-01T12:10:10.5Z</time></trkpt><trkpt lat="43.4216443" lon="12.7212138"><ele>522.0</ele><time>2026-05-01T12:10:11.5Z</time></trkpt><trkpt lat="43.421529" lon="12.7213802"><ele>518.75</ele><time>2026-05-01T12:10:12.5Z</time></trkpt><trkpt lat="43.4214175" lon="12.7215144"><ele>515.5</ele><time>2026-05-01T12:10:13.5Z</time></trkpt><trkpt lat="43.4212906" lon="12.721621"><ele>512.25</ele><time>2026-05-01T12:10:14.5Z</time></trkpt><trkpt lat="43.4211615" lon="12.7217098"><ele>509.0</ele><time>2026-05-01T12:10:15.5Z</time></trkpt><trkpt lat="43.4210459" lon="12.7217902"><ele>512.75</ele><time>2026-05-01T12:10:16.5Z</time></trkpt><trkpt lat="43.4209674" lon="12.7219221"><ele>516.5</ele><time>2026-05-01T12:10:17.5Z</time></trkpt><trkpt lat="43.4209147" lon="12.7220986"><ele>520.25</ele><time>2026-05-01T12:10:18.5Z</time></trkpt><trkpt lat="43.4208798" lon="12.7222777"><ele>524.0</ele><time>2026-05-01T12:10:19.5Z</time></trkpt><trkpt lat="43.4208456" lon="12.7224592"><ele>524.0</ele><time>2026-05-01T12:10:20.5Z</time></trkpt><trkpt lat="43.420798" lon="12.722619"><ele>524.0</ele><time>2026-05-01T12:10:21.5Z</time></trkpt><trkpt lat="43.4207247" lon="12.7227491"><ele>524.0</ele><time>2026-05-01T12:10:22.499Z</time></trkpt><trkpt lat="43.4206465" lon="12.7228596"><ele>524.0</ele><time>2026-05-01T12:10:23.5Z</time></trkpt><trkpt lat="43.4205706" lon="12.7229478"><ele>525.0</ele><time>2026-05-01T12:10:24.499Z</time></trkpt><trkpt lat="43.4205" lon="12.7230311"><ele>526.0</ele><time>2026-05-01T12:10:25.5Z</time></trkpt><trkpt lat="43.4204504" lon="12.7231143"><ele>527.0</ele><time>2026-05-01T12:10:26.5Z</time></trkpt><trkpt lat="43.4204118" lon="12.7232025"><ele>528.0</ele><time>2026-05-01T12:10:27.5Z</time></trkpt><trkpt lat="43.4203898" lon="12.7233464"><ele>529.0</ele><time>2026-05-01T12:10:28.5Z</time></trkpt><trkpt lat="43.4203795" lon="12.7235215"><ele>534.5</ele><time>2026-05-01T12:10:29.5Z</time></trkpt><trkpt lat="43.420357" lon="12.7237086"><ele>540.0</ele><time>2026-05-01T12:10:30.5Z</time></trkpt><trkpt lat="43.4203421" lon="12.723885"><ele>545.5</ele><time>2026-05-01T12:10:31.5Z</time></trkpt><trkpt lat="43.4203143" lon="12.7240459"><ele>551.0</ele><time>2026-05-01T12:10:32.5Z</time></trkpt><trkpt lat="43.4203037" lon="12.7241888"><ele>551.0</ele><time>2026-05-01T12:10:33.5Z</time></trkpt><trkpt lat="43.4202937" lon="12.7243256"><ele>551.0</ele><time>2026-05-01T12:10:34.5Z</time></trkpt><trkpt lat="43.4203034" lon="12.7244437"><ele>551.0</ele><time>2026-05-01T12:10:35.5Z</time></trkpt><trkpt lat="43.4203596" lon="12.7245505"><ele>551.0</ele><time>2026-05-01T12:10:36.5Z</time></trkpt><trkpt lat="43.4204417" lon="12.7246339"><ele>551.0</ele><time>2026-05-01T12:10:37.5Z</time></trkpt><trkpt lat="43.420536" lon="12.7247052"><ele>551.0</ele><time>2026-05-01T12:10:38.5Z</time></trkpt><trkpt lat="43.4206273" lon="12.7247779"><ele>551.0</ele><time>2026-05-01T12:10:39.5Z</time></trkpt><trkpt lat="43.420723" lon="12.7248327"><ele>551.0</ele><time>2026-05-01T12:10:40.499Z</time></trkpt><trkpt lat="43.4208093" lon="12.7248721"><ele>551.0</ele><time>2026-05-01T12:10:41.5Z</time></trkpt><trkpt lat="43.4208943" lon="12.7249266"><ele>551.0</ele><time>2026-05-01T12:10:42.5Z</time></trkpt><trkpt lat="43.4209625" lon="12.7250209"><ele>551.0</ele><time>2026-05-01T12:10:43.5Z</time></trkpt><trkpt lat="43.4209944" lon="12.7251472"><ele>551.0</ele><time>2026-05-01T12:10:44.5Z</time></trkpt><trkpt lat="43.4209977" lon="12.7252979"><ele>551.0</ele><time>2026-05-01T12:10:45.499Z</time></trkpt><trkpt lat="43.4209674" lon="12.7254478"><ele>551.0</ele><time>2026-05-01T12:10:46.499Z</time></trkpt><trkpt lat="43.4209244" lon="12.725602"><ele>551.0</ele><time>2026-05-01T12:10:47.499Z</time></trkpt><trkpt lat="43.4209012" lon="12.7257271"><ele>545.4</ele><time>2026-05-01T12:10:48.5Z</time></trkpt><trkpt lat="43.4208958" lon="12.7258627"><ele>539.8</ele><time>2026-05-01T12:10:49.5Z</time></trkpt><trkpt lat="43.4209057" lon="12.7259979"><ele>534.1999999999999</ele><time>2026-05-01T12:10:50.5Z</time></trkpt><trkpt lat="43.4209266" lon="12.7261449"><ele>528.6</ele><time>2026-05-01T12:10:51.5Z</time></trkpt><trkpt lat="43.4209485" lon="12.7262982"><ele>523.0</ele><time>2026-05-01T12:10:52.5Z</time></trkpt><trkpt lat="43.4209599" lon="12.7264642"><ele>523.0</ele><time>2026-05-01T12:10:53.5Z</time></trkpt><trkpt lat="43.4209663" lon="12.726619"><ele>523.0</ele><time>2026-05-01T12:10:54.5Z</time></trkpt><trkpt lat="43.4209927" lon="12.726768"><ele>523.0</ele><time>2026-05-01T12:10:55.5Z</time></trkpt><trkpt lat="43.4210468" lon="12.7269256"><ele>523.0</ele><time>2026-05-01T12:10:56.5Z</time></trkpt><trkpt lat="43.4211184" lon="12.7270669"><ele>524.0</ele><time>2026-05-01T12:10:57.5Z</time></trkpt><trkpt lat="43.421178" lon="12.7271964"><ele>525.0</ele><time>2026-05-01T12:10:58.5Z</time></trkpt><trkpt lat="43.4212109" lon="12.727336"><ele>526.0</ele><time>2026-05-01T12:10:59.499Z</time></trkpt><trkpt lat="43.4212534" lon="12.7274666"><ele>527.0</ele><time>2026-05-01T12:11:00.5Z</time></trkpt><trkpt lat="43.4213151" lon="12.7275923"><ele>528.0</ele><time>2026-05-01T12:11:01.5Z</time></trkpt><trkpt lat="43.4213879" lon="12.727708"><ele>519.6</ele><time>2026-05-01T12:11:02.5Z</time></trkpt><trkpt lat="43.4214685" lon="12.7277987"><ele>511.19999999999993</ele><time>2026-05-01T12:11:03.5Z</time></trkpt><trkpt lat="43.4215624" lon="12.7278502"><ele>502.8</ele><time>2026-05-01T12:11:04.5Z</time></trkpt><trkpt lat="43.4216717" lon="12.7278734"><ele>494.4</ele><time>2026-05-01T12:11:05.499Z</time></trkpt><trkpt lat="43.4217742" lon="12.727906"><ele>486.0</ele><time>2026-05-01T12:11:06.499Z</time></trkpt><trkpt lat="43.4218766" lon="12.7279714"><ele>486.0</ele><time>2026-05-01T12:11:07.5Z</time></trkpt><trkpt lat="43.4219773" lon="12.7280536"><ele>486.0</ele><time>2026-05-01T12:11:08.5Z</time></trkpt><trkpt lat="43.4220649" lon="12.7281592"><ele>486.0</ele><time>2026-05-01T12:11:09.5Z</time></trkpt><trkpt lat="43.4221398" lon="12.7282887"><ele>486.0</ele><time>2026-05-01T12:11:10.499Z</time></trkpt><trkpt lat="43.42221" lon="12.7284241"><ele>494.5</ele><time>2026-05-01T12:11:11.5Z</time></trkpt><trkpt lat="43.4222965" lon="12.7285642"><ele>503.0</ele><time>2026-05-01T12:11:12.5Z</time></trkpt><trkpt lat="43.4223717" lon="12.7286993"><ele>511.5</ele><time>2026-05-01T12:11:13.5Z</time></trkpt><trkpt lat="43.4224185" lon="12.7288618"><ele>520.0</ele><time>2026-05-01T12:11:14.5Z</time></trkpt><trkpt lat="43.4224332" lon="12.7290367"><ele>520.0</ele><time>2026-05-01T12:11:15.5Z</time></trkpt><trkpt lat="43.4224349" lon="12.7292035"><ele>520.0</ele><time>2026-05-01T12:11:16.5Z</time></trkpt><trkpt lat="43.4224391" lon="12.7293677"><ele>520.0</ele><time>2026-05-01T12:11:17.5Z</time></trkpt><trkpt lat="43.4224454" lon="12.7295273"><ele>520.0</ele><time>2026-05-01T12:11:18.499Z</time></trkpt><trkpt lat="43.4224628" lon="12.7296809"><ele>516.0</ele><time>2026-05-01T12:11:19.499Z</time></trkpt><trkpt lat="43.4224757" lon="12.7298408"><ele>512.0</ele><time>2026-05-01T12:11:20.5Z</time></trkpt><trkpt lat="43.4224818" lon="12.7300095"><ele>508.0</ele><time>2026-05-01T12:11:21.5Z</time></trkpt><trkpt lat="43.4224823" lon="12.7301727"><ele>504.0</ele><time>2026-05-01T12:11:22.5Z</time></trkpt><trkpt lat="43.4224794" lon="12.7303327"><ele>503.2</ele><time>2026-05-01T12:11:23.5Z</time></trkpt><trkpt lat="43.4224504" lon="12.7304728"><ele>502.4</ele><time>2026-05-01T12:11:24.5Z</time></trkpt><trkpt lat="43.4224059" lon="12.7306022"><ele>501.6</ele><time>2026-05-01T12:11:25.499Z</time></trkpt><trkpt lat="43.4223546" lon="12.7307206"><ele>500.8</ele><time>2026-05-01T12:11:26.5Z</time></trkpt><trkpt lat="43.4223311" lon="12.7308592"><ele>500.0</ele><time>2026-05-01T12:11:27.5Z</time></trkpt><trkpt lat="43.4223553" lon="12.7310024"><ele>493.0</ele><time>2026-05-01T12:11:28.5Z</time></trkpt><trkpt lat="43.422426" lon="12.7311154"><ele>486.0</ele><time>2026-05-01T12:11:29.499Z</time></trkpt><trkpt lat="43.4225456" lon="12.7311905"><ele>479.0</ele><time>2026-05-01T12:11:30.5Z</time></trkpt><trkpt lat="43.4226942" lon="12.7311944"><ele>472.0</ele><time>2026-05-01T12:11:31.5Z</time></trkpt><trkpt lat="43.4228494" lon="12.7311716"><ele>471.6666666666667</ele><time>2026-05-01T12:11:32.499Z</time></trkpt><trkpt lat="43.4230036" lon="12.7311333"><ele>471.33333333333337</ele><time>2026-05-01T12:11:33.5Z</time></trkpt><trkpt lat="43.4231572" lon="12.7311001"><ele>471.0</ele><time>2026-05-01T12:11:34.5Z</time></trkpt><trkpt lat="43.4233122" lon="12.7310774"><ele>483.33333333333337</ele><time>2026-05-01T12:11:35.5Z</time></trkpt><trkpt lat="43.4234659" lon="12.73105"><ele>495.6666666666667</ele><time>2026-05-01T12:11:36.5Z</time></trkpt><trkpt lat="43.4236292" lon="12.731024"><ele>508.0</ele><time>2026-05-01T12:11:37.5Z</time></trkpt><trkpt lat="43.4237907" lon="12.7309942"><ele>507.0</ele><time>2026-05-01T12:11:38.5Z</time></trkpt><trkpt lat="43.4239638" lon="12.7309641"><ele>506.0</ele><time>2026-05-01T12:11:39.499Z</time></trkpt><trkpt lat="43.4241339" lon="12.7309369"><ele>505.0</ele><time>2026-05-01T12:11:40.5Z</time></trkpt><trkpt lat="43.4243054" lon="12.7309116"><ele>505.0</ele><time>2026-05-01T12:11:41.5Z</time></trkpt><trkpt lat="43.4244708" lon="12.7308851"><ele>505.0</ele><time>2026-05-01T12:11:42.5Z</time></trkpt><trkpt lat="43.4246262" lon="12.7308549"><ele>505.0</ele><time>2026-05-01T12:11:43.5Z</time></trkpt><trkpt lat="43.4247765" lon="12.7308061"><ele>500.25</ele><time>2026-05-01T12:11:44.5Z</time></trkpt><trkpt lat="43.4249065" lon="12.7307144"><ele>495.5</ele><time>2026-05-01T12:11:45.5Z</time></trkpt><trkpt lat="43.4250246" lon="12.7306149"><ele>490.75</ele><time>2026-05-01T12:11:46.5Z</time></trkpt><trkpt lat="43.4251364" lon="12.7305419"><ele>486.0</ele><time>2026-05-01T12:11:47.5Z</time></trkpt><trkpt lat="43.4252528" lon="12.7305228"><ele>486.0</ele><time>2026-05-01T12:11:48.5Z</time></trkpt><trkpt lat="43.4253782" lon="12.7305771"><ele>486.0</ele><time>2026-05-01T12:11:49.499Z</time></trkpt><trkpt lat="43.4254976" lon="12.7306646"><ele>486.0</ele><time>2026-05-01T12:11:50.499Z</time></trkpt><trkpt lat="43.4256261" lon="12.7307505"><ele>486.0</ele><time>2026-05-01T12:11:51.5Z</time></trkpt><trkpt lat="43.4257529" lon="12.7308368"><ele>487.25</ele><time>2026-05-01T12:11:52.5Z</time></trkpt><trkpt lat="43.4258761" lon="12.7309266"><ele>488.5</ele><time>2026-05-01T12:11:53.499Z</time></trkpt><trkpt lat="43.4260039" lon="12.7310359"><ele>489.75</ele><time>2026-05-01T12:11:54.5Z</time></trkpt><trkpt lat="43.4261262" lon="12.7311727"><ele>491.0</ele><time>2026-05-01T12:11:55.5Z</time></trkpt><trkpt lat="43.4262494" lon="12.7313161"><ele>487.66666666666663</ele><time>2026-05-01T12:11:56.499Z</time></trkpt><trkpt lat="43.4263701" lon="12.7314567"><ele>484.33333333333337</ele><time>2026-05-01T12:11:57.5Z</time></trkpt><trkpt lat="43.4264892" lon="12.7315888"><ele>481.0</ele><time>2026-05-01T12:11:58.499Z</time></trkpt><trkpt lat="43.4266007" lon="12.731727"><ele>481.0</ele><time>2026-05-01T12:11:59.5Z</time></trkpt><trkpt lat="43.426692" lon="12.7318784"><ele>481.0</ele><time>2026-05-01T12:12:00.499Z</time></trkpt><trkpt lat="43.4267709" lon="12.7320506"><ele>481.0</ele><time>2026-05-01T12:12:01.499Z</time></trkpt><trkpt lat="43.4268566" lon="12.7322168"><ele>481.0</ele><time>2026-05-01T12:12:02.499Z</time></trkpt><trkpt lat="43.4269646" lon="12.7323601"><ele>480.0</ele><time>2026-05-01T12:12:03.499Z</time></trkpt><trkpt lat="43.4270875" lon="12.732497"><ele>479.0</ele><time>2026-05-01T12:12:04.5Z</time></trkpt><trkpt lat="43.427205" lon="12.7326313"><ele>478.0</ele><time>2026-05-01T12:12:05.499Z</time></trkpt><trkpt lat="43.4273319" lon="12.7327603"><ele>470.0</ele><time>2026-05-01T12:12:06.5Z</time></trkpt><trkpt lat="43.4274666" lon="12.7328878"><ele>462.0</ele><time>2026-05-01T12:12:07.5Z</time></trkpt><trkpt lat="43.4276169" lon="12.7329764"><ele>454.0</ele><time>2026-05-01T12:12:08.5Z</time></trkpt><trkpt lat="43.427779" lon="12.7330171"><ele>454.0</ele><time>2026-05-01T12:12:09.5Z</time></trkpt><trkpt lat="43.4279414" lon="12.7330152"><ele>454.0</ele><time>2026-05-01T12:12:10.5Z</time></trkpt><trkpt lat="43.4281038" lon="12.7329945"><ele>454.0</ele><time>2026-05-01T12:12:11.5Z</time></trkpt><trkpt lat="43.42826" lon="12.7329621"><ele>453.33333333333337</ele><time>2026-05-01T12:12:12.499Z</time></trkpt><trkpt lat="43.4284099" lon="12.7329375"><ele>452.66666666666663</ele><time>2026-05-01T12:12:13.499Z</time></trkpt><trkpt lat="43.42856" lon="12.7329163"><ele>452.0</ele><time>2026-05-01T12:12:14.5Z</time></trkpt><trkpt lat="43.4287136" lon="12.7328941"><ele>452.3333333333333</ele><time>2026-05-01T12:12:15.5Z</time></trkpt><trkpt lat="43.4288685" lon="12.7328641"><ele>452.66666666666663</ele><time>2026-05-01T12:12:16.5Z</time></trkpt><trkpt lat="43.4290284" lon="12.7328129"><ele>453.0</ele><time>2026-05-01T12:12:17.499Z</time></trkpt><trkpt lat="43.4291924" lon="12.7327377"><ele>453.66666666666663</ele><time>2026-05-01T12:12:18.5Z</time></trkpt><trkpt lat="43.4293547" lon="12.7326458"><ele>454.3333333333333</ele><time>2026-05-01T12:12:19.5Z</time></trkpt><trkpt lat="43.4295199" lon="12.7325569"><ele>455.0</ele><time>2026-05-01T12:12:20.5Z</time></trkpt><trkpt lat="43.4296843" lon="12.7324672"><ele>455.0</ele><time>2026-05-01T12:12:21.5Z</time></trkpt><trkpt lat="43.4298478" lon="12.7323818"><ele>455.0</ele><time>2026-05-01T12:12:22.5Z</time></trkpt><trkpt lat="43.4300034" lon="12.7323094"><ele>455.0</ele><time>2026-05-01T12:12:23.499Z</time></trkpt><trkpt lat="43.4301528" lon="12.7322504"><ele>455.0</ele><time>2026-05-01T12:12:24.5Z</time></trkpt><trkpt lat="43.4302974" lon="12.732219"><ele>455.0</ele><time>2026-05-01T12:12:25.5Z</time></trkpt><trkpt lat="43.4304331" lon="12.7322189"><ele>455.0</ele><time>2026-05-01T12:12:26.5Z</time></trkpt><trkpt lat="43.4305678" lon="12.7322463"><ele>455.0</ele><time>2026-05-01T12:12:27.5Z</time></trkpt><trkpt lat="43.430688" lon="12.7322967"><ele>454.0</ele><time>2026-05-01T12:12:28.5Z</time></trkpt><trkpt lat="43.4308014" lon="12.7323883"><ele>453.0</ele><time>2026-05-01T12:12:29.5Z</time></trkpt><trkpt lat="43.4308915" lon="12.7325184"><ele>452.0</ele><time>2026-05-01T12:12:30.5Z</time></trkpt><trkpt lat="43.4309755" lon="12.7326591"><ele>451.0</ele><time>2026-05-01T12:12:31.5Z</time></trkpt><trkpt lat="43.4310573" lon="12.7328151"><ele>451.0</ele><time>2026-05-01T12:12:32.5Z</time></trkpt><trkpt lat="43.431133" lon="12.7329742"><ele>451.0</ele><time>2026-05-01T12:12:33.5Z</time></trkpt><trkpt lat="43.4312108" lon="12.733132"><ele>451.0</ele><time>2026-05-01T12:12:34.5Z</time></trkpt><trkpt lat="43.4312879" lon="12.7332997"><ele>451.0</ele><time>2026-05-01T12:12:35.499Z</time></trkpt><trkpt lat="43.43136" lon="12.7334626"><ele>452.5</ele><time>2026-05-01T12:12:36.5Z</time></trkpt><trkpt lat="43.4314319" lon="12.7336368"><ele>454.0</ele><time>2026-05-01T12:12:37.5Z</time></trkpt><trkpt lat="43.4315015" lon="12.7338196"><ele>455.5</ele><time>2026-05-01T12:12:38.5Z</time></trkpt><trkpt lat="43.4315624" lon="12.7340126"><ele>457.0</ele><time>2026-05-01T12:12:39.5Z</time></trkpt><trkpt lat="43.431614" lon="12.7342066"><ele>455.33333333333337</ele><time>2026-05-01T12:12:40.5Z</time></trkpt><trkpt lat="43.431672" lon="12.7344027"><ele>453.66666666666663</ele><time>2026-05-01T12:12:41.5Z</time></trkpt><trkpt lat="43.4317571" lon="12.7345894"><ele>452.0</ele><time>2026-05-01T12:12:42.499Z</time></trkpt><trkpt lat="43.4318566" lon="12.7347738"><ele>452.0</ele><time>2026-05-01T12:12:43.5Z</time></trkpt><trkpt lat="43.4319646" lon="12.7349544"><ele>452.0</ele><time>2026-05-01T12:12:44.5Z</time></trkpt><trkpt lat="43.4320727" lon="12.735124"><ele>452.0</ele><time>2026-05-01T12:12:45.5Z</time></trkpt><trkpt lat="43.432177" lon="12.7352846"><ele>451.75</ele><time>2026-05-01T12:12:46.5Z</time></trkpt><trkpt lat="43.4322688" lon="12.7354425"><ele>451.5</ele><time>2026-05-01T12:12:47.5Z</time></trkpt><trkpt lat="43.4323442" lon="12.7356066"><ele>451.25</ele><time>2026-05-01T12:12:48.5Z</time></trkpt><trkpt lat="43.4324079" lon="12.7357718"><ele>451.0</ele><time>2026-05-01T12:12:49.5Z</time></trkpt><trkpt lat="43.4324601" lon="12.7359356"><ele>449.0</ele><time>2026-05-01T12:12:50.499Z</time></trkpt><trkpt lat="43.4325019" lon="12.7360982"><ele>447.0</ele><time>2026-05-01T12:12:51.499Z</time></trkpt><trkpt lat="43.4325515" lon="12.7362515"><ele>445.0</ele><time>2026-05-01T12:12:52.499Z</time></trkpt><trkpt lat="43.4326064" lon="12.7364099"><ele>443.0</ele><time>2026-05-01T12:12:53.5Z</time></trkpt><trkpt lat="43.4326534" lon="12.7365667"><ele>443.0</ele><time>2026-05-01T12:12:54.5Z</time></trkpt><trkpt lat="43.4326929" lon="12.7367143"><ele>442.99999999999994</ele><time>2026-05-01T12:12:55.5Z</time></trkpt><trkpt lat="43.4327312" lon="12.7368616"><ele>442.99999999999994</ele><time>2026-05-01T12:12:56.5Z</time></trkpt><trkpt lat="43.4327707" lon="12.7369951"><ele>443.0</ele><time>2026-05-01T12:12:57.5Z</time></trkpt><trkpt lat="43.4328089" lon="12.7371154"><ele>443.0</ele><time>2026-05-01T12:12:58.5Z</time></trkpt><trkpt lat="43.4328577" lon="12.7372242"><ele>442.8333333333333</ele><time>2026-05-01T12:12:59.5Z</time></trkpt><trkpt lat="43.4329069" lon="12.7373166"><ele>442.66666666666663</ele><time>2026-05-01T12:13:00.5Z</time></trkpt><trkpt lat="43.4329473" lon="12.7373959"><ele>442.5</ele><time>2026-05-01T12:13:01.5Z</time></trkpt><trkpt lat="43.4329811" lon="12.7374762"><ele>442.33333333333337</ele><time>2026-05-01T12:13:02.5Z</time></trkpt><trkpt lat="43.4330042" lon="12.7375742"><ele>442.1666666666667</ele><time>2026-05-01T12:13:03.5Z</time></trkpt><trkpt lat="43.4330258" lon="12.7376845"><ele>442.0</ele><time>2026-05-01T12:13:04.5Z</time></trkpt><trkpt lat="43.433047" lon="12.737799"><ele>443.20000000000005</ele><time>2026-05-01T12:13:05.499Z</time></trkpt><trkpt lat="43.4330718" lon="12.7379172"><ele>444.40000000000003</ele><time>2026-05-01T12:13:06.5Z</time></trkpt><trkpt lat="43.4331087" lon="12.7380373"><ele>445.59999999999997</ele><time>2026-05-01T12:13:07.499Z</time></trkpt><trkpt lat="43.4331404" lon="12.7381524"><ele>446.79999999999995</ele><time>2026-05-01T12:13:08.5Z</time></trkpt><trkpt lat="43.4331854" lon="12.7382652"><ele>448.0</ele><time>2026-05-01T12:13:09.5Z</time></trkpt><trkpt lat="43.4332403" lon="12.7383791"><ele>448.0</ele><time>2026-05-01T12:13:10.5Z</time></trkpt><trkpt lat="43.4333037" lon="12.7384979"><ele>447.99999999999994</ele><time>2026-05-01T12:13:11.5Z</time></trkpt><trkpt lat="43.4333694" lon="12.7386137"><ele>447.99999999999994</ele><time>2026-05-01T12:13:12.5Z</time></trkpt><trkpt lat="43.4334247" lon="12.7387226"><ele>448.0</ele><time>2026-05-01T12:13:13.5Z</time></trkpt><trkpt lat="43.4334791" lon="12.7388305"><ele>448.0</ele><time>2026-05-01T12:13:14.5Z</time></trkpt><trkpt lat="43.4335323" lon="12.738946"><ele>447.5</ele><time>2026-05-01T12:13:15.5Z</time></trkpt><trkpt lat="43.4335926" lon="12.7390694"><ele>447.0</ele><time>2026-05-01T12:13:16.499Z</time></trkpt><trkpt lat="43.4336566" lon="12.7391979"><ele>446.5</ele><time>2026-05-01T12:13:17.5Z</time></trkpt><trkpt lat="43.4337373" lon="12.739322"><ele>446.0</ele><time>2026-05-01T12:13:18.499Z</time></trkpt><trkpt lat="43.4338293" lon="12.7394539"><ele>446.0</ele><time>2026-05-01T12:13:19.5Z</time></trkpt><trkpt lat="43.4339279" lon="12.7395963"><ele>446.0</ele><time>2026-05-01T12:13:20.5Z</time></trkpt><trkpt lat="43.4340299" lon="12.7397493"><ele>446.0</ele><time>2026-05-01T12:13:21.499Z</time></trkpt><trkpt lat="43.4341356" lon="12.7399089"><ele>446.0</ele><time>2026-05-01T12:13:22.5Z</time></trkpt><trkpt lat="43.4342413" lon="12.7400623"><ele>446.0</ele><time>2026-05-01T12:13:23.5Z</time></trkpt><trkpt lat="43.4343456" lon="12.7402185"><ele>446.0</ele><time>2026-05-01T12:13:24.5Z</time></trkpt><trkpt lat="43.4344538" lon="12.7403774"><ele>446.66666666666663</ele><time>2026-05-01T12:13:25.5Z</time></trkpt><trkpt lat="43.4345574" lon="12.7405377"><ele>447.33333333333337</ele><time>2026-05-01T12:13:26.5Z</time></trkpt><trkpt lat="43.4346638" lon="12.7407056"><ele>448.0</ele><time>2026-05-01T12:13:27.5Z</time></trkpt><trkpt lat="43.4347729" lon="12.7408781"><ele>449.0</ele><time>2026-05-01T12:13:28.5Z</time></trkpt><trkpt lat="43.4348885" lon="12.7410526"><ele>450.0</ele><time>2026-05-01T12:13:29.5Z</time></trkpt><trkpt lat="43.4350031" lon="12.7412289"><ele>451.0</ele><time>2026-05-01T12:13:30.5Z</time></trkpt><trkpt lat="43.4351172" lon="12.7414142"><ele>451.0</ele><time>2026-05-01T12:13:31.5Z</time></trkpt><trkpt lat="43.435224" lon="12.7416018"><ele>451.0</ele><time>2026-05-01T12:13:32.5Z</time></trkpt><trkpt lat="43.4353246" lon="12.7417697"><ele>451.0</ele><time>2026-05-01T12:13:33.499Z</time></trkpt><trkpt lat="43.4354389" lon="12.7419066"><ele>450.33333333333337</ele><time>2026-05-01T12:13:34.5Z</time></trkpt><trkpt lat="43.435576" lon="12.7420039"><ele>449.66666666666663</ele><time>2026-05-01T12:13:35.499Z</time></trkpt><trkpt lat="43.4357351" lon="12.7420633"><ele>449.0</ele><time>2026-05-01T12:13:36.499Z</time></trkpt><trkpt lat="43.4359106" lon="12.7421197"><ele>449.0</ele><time>2026-05-01T12:13:37.5Z</time></trkpt><trkpt lat="43.4360816" lon="12.7421829"><ele>449.0</ele><time>2026-05-01T12:13:38.5Z</time></trkpt><trkpt lat="43.436257" lon="12.7422424"><ele>449.0</ele><time>2026-05-01T12:13:39.499Z</time></trkpt><trkpt lat="43.4364222" lon="12.7423075"><ele>453.3333333333333</ele><time>2026-05-01T12:13:40.499Z</time></trkpt><trkpt lat="43.4365925" lon="12.7423808"><ele>457.66666666666663</ele><time>2026-05-01T12:13:41.5Z</time></trkpt><trkpt lat="43.4367511" lon="12.7424648"><ele>462.0</ele><time>2026-05-01T12:13:42.5Z</time></trkpt><trkpt lat="43.4368843" lon="12.7425756"><ele>461.33333333333337</ele><time>2026-05-01T12:13:43.5Z</time></trkpt><trkpt lat="43.4370072" lon="12.7427318"><ele>460.6666666666667</ele><time>2026-05-01T12:13:44.499Z</time></trkpt><trkpt lat="43.4371042" lon="12.7429215"><ele>460.0</ele><time>2026-05-01T12:13:45.499Z</time></trkpt><trkpt lat="43.4371966" lon="12.7430861"><ele>460.0</ele><time>2026-05-01T12:13:46.5Z</time></trkpt><trkpt lat="43.437293" lon="12.7432276"><ele>460.0</ele><time>2026-05-01T12:13:47.5Z</time></trkpt><trkpt lat="43.4374019" lon="12.7433545"><ele>460.0</ele><time>2026-05-01T12:13:48.5Z</time></trkpt><trkpt lat="43.4375271" lon="12.7434251"><ele>460.0</ele><time>2026-05-01T12:13:49.5Z</time></trkpt><trkpt lat="43.4376687" lon="12.7434701"><ele>460.0</ele><time>2026-05-01T12:13:50.499Z</time></trkpt><trkpt lat="43.4378202" lon="12.7435116"><ele>460.0</ele><time>2026-05-01T12:13:51.499Z</time></trkpt><trkpt lat="43.437974" lon="12.7435787"><ele>460.0</ele><time>2026-05-01T12:13:52.5Z</time></trkpt><trkpt lat="43.4381146" lon="12.7436818"><ele>460.33333333333337</ele><time>2026-05-01T12:13:53.5Z</time></trkpt><trkpt lat="43.4382519" lon="12.7437921"><ele>460.66666666666663</ele><time>2026-05-01T12:13:54.499Z</time></trkpt><trkpt lat="43.4383959" lon="12.7438856"><ele>461.0</ele><time>2026-05-01T12:13:55.499Z</time></trkpt><trkpt lat="43.4385555" lon="12.7439395"><ele>461.0</ele><time>2026-05-01T12:13:56.5Z</time></trkpt><trkpt lat="43.4387228" lon="12.7439649"><ele>461.0</ele><time>2026-05-01T12:13:57.5Z</time></trkpt><trkpt lat="43.4388948" lon="12.7439711"><ele>461.0</ele><time>2026-05-01T12:13:58.499Z</time></trkpt><trkpt lat="43.4390694" lon="12.7439682"><ele>460.66666666666663</ele><time>2026-05-01T12:13:59.499Z</time></trkpt><trkpt lat="43.4392446" lon="12.7439696"><ele>460.33333333333337</ele><time>2026-05-01T12:14:00.5Z</time></trkpt><trkpt lat="43.4394169" lon="12.7439753"><ele>460.0</ele><time>2026-05-01T12:14:01.5Z</time></trkpt><trkpt lat="43.4395764" lon="12.7439848"><ele>462.6666666666667</ele><time>2026-05-01T12:14:02.499Z</time></trkpt><trkpt lat="43.439743" lon="12.7439863"><ele>465.33333333333337</ele><time>2026-05-01T12:14:03.5Z</time></trkpt><trkpt lat="43.4398978" lon="12.7439856"><ele>468.0</ele><time>2026-05-01T12:14:04.5Z</time></trkpt><trkpt lat="43.4400559" lon="12.7439971"><ele>468.0</ele><time>2026-05-01T12:14:05.5Z</time></trkpt><trkpt lat="43.4402069" lon="12.7440228"><ele>468.0</ele><time>2026-05-01T12:14:06.5Z</time></trkpt><trkpt lat="43.4403737" lon="12.744058"><ele>468.0</ele><time>2026-05-01T12:14:07.5Z</time></trkpt><trkpt lat="43.4405463" lon="12.7441068"><ele>470.66666666666663</ele><time>2026-05-01T12:14:08.5Z</time></trkpt><trkpt lat="43.4407109" lon="12.7441668"><ele>473.3333333333333</ele><time>2026-05-01T12:14:09.5Z</time></trkpt><trkpt lat="43.4408771" lon="12.7442351"><ele>476.0</ele><time>2026-05-01T12:14:10.5Z</time></trkpt><trkpt lat="43.4410458" lon="12.7442993"><ele>476.0</ele><time>2026-05-01T12:14:11.5Z</time></trkpt><trkpt lat="43.4412035" lon="12.744372"><ele>476.0</ele><time>2026-05-01T12:14:12.5Z</time></trkpt><trkpt lat="43.4413613" lon="12.7444451"><ele>476.0</ele><time>2026-05-01T12:14:13.5Z</time></trkpt><trkpt lat="43.441503" lon="12.7445203"><ele>475.0</ele><time>2026-05-01T12:14:14.499Z</time></trkpt><trkpt lat="43.4416342" lon="12.7445902"><ele>474.0</ele><time>2026-05-01T12:14:15.499Z</time></trkpt><trkpt lat="43.4417701" lon="12.7446728"><ele>473.0</ele><time>2026-05-01T12:14:16.5Z</time></trkpt><trkpt lat="43.4419157" lon="12.7447392"><ele>472.0</ele><time>2026-05-01T12:14:17.5Z</time></trkpt><trkpt lat="43.4420751" lon="12.7447796"><ele>473.33333333333337</ele><time>2026-05-01T12:14:18.5Z</time></trkpt><trkpt lat="43.4422419" lon="12.744795"><ele>474.66666666666663</ele><time>2026-05-01T12:14:19.5Z</time></trkpt><trkpt lat="43.4424092" lon="12.7448258"><ele>476.0</ele><time>2026-05-01T12:14:20.5Z</time></trkpt><trkpt lat="43.4425673" lon="12.7448652"><ele>476.0</ele><time>2026-05-01T12:14:21.5Z</time></trkpt><trkpt lat="43.4427238" lon="12.7449027"><ele>476.0</ele><time>2026-05-01T12:14:22.5Z</time></trkpt><trkpt lat="43.4428774" lon="12.7449361"><ele>476.0</ele><time>2026-05-01T12:14:23.5Z</time></trkpt><trkpt lat="43.4430334" lon="12.744977"><ele>477.3333333333333</ele><time>2026-05-01T12:14:24.5Z</time></trkpt><trkpt lat="43.4431883" lon="12.7450536"><ele>478.66666666666663</ele><time>2026-05-01T12:14:25.5Z</time></trkpt><trkpt lat="43.4433371" lon="12.7451541"><ele>480.0</ele><time>2026-05-01T12:14:26.499Z</time></trkpt><trkpt lat="43.4434898" lon="12.7452839"><ele>480.66666666666663</ele><time>2026-05-01T12:14:27.5Z</time></trkpt><trkpt lat="43.4436405" lon="12.7454275"><ele>481.3333333333333</ele><time>2026-05-01T12:14:28.5Z</time></trkpt><trkpt lat="43.443796" lon="12.7455707"><ele>482.0</ele><time>2026-05-01T12:14:29.5Z</time></trkpt><trkpt lat="43.443955" lon="12.7457085"><ele>483.0</ele><time>2026-05-01T12:14:30.5Z</time></trkpt><trkpt lat="43.444115" lon="12.7458363"><ele>484.0</ele><time>2026-05-01T12:14:31.5Z</time></trkpt><trkpt lat="43.444276" lon="12.7459638"><ele>485.0</ele><time>2026-05-01T12:14:32.5Z</time></trkpt><trkpt lat="43.4444356" lon="12.7460925"><ele>486.3333333333333</ele><time>2026-05-01T12:14:33.5Z</time></trkpt><trkpt lat="43.4445898" lon="12.746226"><ele>487.66666666666663</ele><time>2026-05-01T12:14:34.5Z</time></trkpt><trkpt lat="43.4447445" lon="12.7463593"><ele>489.0</ele><time>2026-05-01T12:14:35.499Z</time></trkpt><trkpt lat="43.4448981" lon="12.7464862"><ele>489.0</ele><time>2026-05-01T12:14:36.499Z</time></trkpt><trkpt lat="43.4450523" lon="12.7466182"><ele>489.0</ele><time>2026-05-01T12:14:37.499Z</time></trkpt><trkpt lat="43.4452018" lon="12.7467392"><ele>489.0</ele><time>2026-05-01T12:14:38.5Z</time></trkpt><trkpt lat="43.4453493" lon="12.7468642"><ele>491.66666666666663</ele><time>2026-05-01T12:14:39.5Z</time></trkpt><trkpt lat="43.4454866" lon="12.7469921"><ele>494.3333333333333</ele><time>2026-05-01T12:14:40.5Z</time></trkpt><trkpt lat="43.4456245" lon="12.7471087"><ele>497.0</ele><time>2026-05-01T12:14:41.499Z</time></trkpt><trkpt lat="43.4457636" lon="12.7472096"><ele>497.0</ele><time>2026-05-01T12:14:42.5Z</time></trkpt><trkpt lat="43.4458997" lon="12.7472877"><ele>497.0</ele><time>2026-05-01T12:14:43.499Z</time></trkpt><trkpt lat="43.4460537" lon="12.7473211"><ele>497.0</ele><time>2026-05-01T12:14:44.499Z</time></trkpt><trkpt lat="43.4462112" lon="12.7473532"><ele>501.0</ele><time>2026-05-01T12:14:45.5Z</time></trkpt><trkpt lat="43.4463629" lon="12.7473967"><ele>505.0</ele><time>2026-05-01T12:14:46.5Z</time></trkpt><trkpt lat="43.4465114" lon="12.7474542"><ele>509.0</ele><time>2026-05-01T12:14:47.5Z</time></trkpt><trkpt lat="43.4466608" lon="12.7475115"><ele>509.0</ele><time>2026-05-01T12:14:48.499Z</time></trkpt><trkpt lat="43.4468099" lon="12.7475671"><ele>509.0</ele><time>2026-05-01T12:14:49.5Z</time></trkpt><trkpt lat="43.4469621" lon="12.7476004"><ele>509.0</ele><time>2026-05-01T12:14:50.5Z</time></trkpt><trkpt lat="43.4471057" lon="12.7476002"><ele>510.66666666666663</ele><time>2026-05-01T12:14:51.5Z</time></trkpt><trkpt lat="43.4472526" lon="12.74756"><ele>512.3333333333334</ele><time>2026-05-01T12:14:52.5Z</time></trkpt><trkpt lat="43.4473929" lon="12.7474955"><ele>514.0</ele><time>2026-05-01T12:14:53.5Z</time></trkpt><trkpt lat="43.4475415" lon="12.7474396"><ele>514.0</ele><time>2026-05-01T12:14:54.5Z</time></trkpt><trkpt lat="43.4476885" lon="12.7474041"><ele>514.0</ele><time>2026-05-01T12:14:55.5Z</time></trkpt><trkpt lat="43.4478448" lon="12.7473873"><ele>514.0</ele><time>2026-05-01T12:14:56.5Z</time></trkpt><trkpt lat="43.4479937" lon="12.7473709"><ele>513.0</ele><time>2026-05-01T12:14:57.5Z</time></trkpt><trkpt lat="43.4481414" lon="12.747338"><ele>512.0</ele><time>2026-05-01T12:14:58.5Z</time></trkpt><trkpt lat="43.4482894" lon="12.7472697"><ele>511.0</ele><time>2026-05-01T12:14:59.5Z</time></trkpt><trkpt lat="43.4484319" lon="12.7471659"><ele>511.0</ele><time>2026-05-01T12:15:00.5Z</time></trkpt><trkpt lat="43.4485661" lon="12.7470517"><ele>511.0</ele><time>2026-05-01T12:15:01.5Z</time></trkpt><trkpt lat="43.4486997" lon="12.7469297"><ele>511.0</ele><time>2026-05-01T12:15:02.5Z</time></trkpt><trkpt lat="43.4488361" lon="12.7468214"><ele>510.75</ele><time>2026-05-01T12:15:03.499Z</time></trkpt><trkpt lat="43.4489645" lon="12.746713"><ele>510.5</ele><time>2026-05-01T12:15:04.499Z</time></trkpt><trkpt lat="43.4490883" lon="12.7466238"><ele>510.25</ele><time>2026-05-01T12:15:05.5Z</time></trkpt><trkpt lat="43.4491902" lon="12.7465829"><ele>510.0</ele><time>2026-05-01T12:15:06.5Z</time></trkpt><trkpt lat="43.4492647" lon="12.7465691"><ele>510.0</ele><time>2026-05-01T12:15:07.499Z</time></trkpt><trkpt lat="43.4493573" lon="12.7466847"><ele>510.0</ele><time>2026-05-01T12:15:09.499Z</time></trkpt><trkpt lat="43.4493697" lon="12.7468066"><ele>510.0</ele><time>2026-05-01T12:15:10.499Z</time></trkpt><trkpt lat="43.4493822" lon="12.7469563"><ele>510.0</ele><time>2026-05-01T12:15:11.5Z</time></trkpt><trkpt lat="43.4493982" lon="12.7471297"><ele>511.0</ele><time>2026-05-01T12:15:12.499Z</time></trkpt><trkpt lat="43.4494208" lon="12.7472932"><ele>512.0</ele><time>2026-05-01T12:15:13.5Z</time></trkpt><trkpt lat="43.4494542" lon="12.7474513"><ele>513.0</ele><time>2026-05-01T12:15:14.5Z</time></trkpt><trkpt lat="43.4495135" lon="12.7476077"><ele>514.0</ele><time>2026-05-01T12:15:15.5Z</time></trkpt><trkpt lat="43.4495797" lon="12.747755"><ele>513.5</ele><time>2026-05-01T12:15:16.5Z</time></trkpt><trkpt lat="43.4496572" lon="12.7478919"><ele>513.0</ele><time>2026-05-01T12:15:17.499Z</time></trkpt><trkpt lat="43.4497523" lon="12.7480018"><ele>512.5</ele><time>2026-05-01T12:15:18.5Z</time></trkpt><trkpt lat="43.4498731" lon="12.7480651"><ele>512.0</ele><time>2026-05-01T12:15:19.5Z</time></trkpt><trkpt lat="43.4500063" lon="12.7480885"><ele>512.0</ele><time>2026-05-01T12:15:20.5Z</time></trkpt><trkpt lat="43.4501359" lon="12.7480838"><ele>512.0</ele><time>2026-05-01T12:15:21.5Z</time></trkpt><trkpt lat="43.4502715" lon="12.7480685"><ele>512.0</ele><time>2026-05-01T12:15:22.499Z</time></trkpt><trkpt lat="43.4504019" lon="12.7480561"><ele>512.0</ele><time>2026-05-01T12:15:23.5Z</time></trkpt><trkpt lat="43.4505335" lon="12.7481032"><ele>513.0</ele><time>2026-05-01T12:15:24.5Z</time></trkpt><trkpt lat="43.4506509" lon="12.7481899"><ele>514.0</ele><time>2026-05-01T12:15:25.499Z</time></trkpt><trkpt lat="43.4507611" lon="12.7483081"><ele>515.0</ele><time>2026-05-01T12:15:26.5Z</time></trkpt><trkpt lat="43.4508665" lon="12.7484376"><ele>516.0</ele><time>2026-05-01T12:15:27.499Z</time></trkpt><trkpt lat="43.450978" lon="12.7485747"><ele>516.0</ele><time>2026-05-01T12:15:28.5Z</time></trkpt><trkpt lat="43.45108" lon="12.7487134"><ele>516.0</ele><time>2026-05-01T12:15:29.5Z</time></trkpt><trkpt lat="43.451187" lon="12.7488611"><ele>516.0</ele><time>2026-05-01T12:15:30.5Z</time></trkpt><trkpt lat="43.4512952" lon="12.7490049"><ele>516.0</ele><time>2026-05-01T12:15:31.5Z</time></trkpt><trkpt lat="43.4514048" lon="12.749152"><ele>520.0</ele><time>2026-05-01T12:15:32.5Z</time></trkpt><trkpt lat="43.4515039" lon="12.7492975"><ele>524.0</ele><time>2026-05-01T12:15:33.5Z</time></trkpt><trkpt lat="43.4515993" lon="12.7494408"><ele>528.0</ele><time>2026-05-01T12:15:34.499Z</time></trkpt><trkpt lat="43.4516895" lon="12.7495903"><ele>532.0</ele><time>2026-05-01T12:15:35.499Z</time></trkpt><trkpt lat="43.4517545" lon="12.7497572"><ele>532.0</ele><time>2026-05-01T12:15:36.499Z</time></trkpt><trkpt lat="43.4517855" lon="12.7499388"><ele>532.0</ele><time>2026-05-01T12:15:37.5Z</time></trkpt><trkpt lat="43.451782" lon="12.7501244"><ele>532.0</ele><time>2026-05-01T12:15:38.5Z</time></trkpt><trkpt lat="43.4517563" lon="12.7503169"><ele>532.0</ele><time>2026-05-01T12:15:39.5Z</time></trkpt><trkpt lat="43.4517189" lon="12.7505115"><ele>530.5</ele><time>2026-05-01T12:15:40.5Z</time></trkpt><trkpt lat="43.4516774" lon="12.7507066"><ele>529.0</ele><time>2026-05-01T12:15:41.5Z</time></trkpt><trkpt lat="43.451637" lon="12.7508835"><ele>527.5</ele><time>2026-05-01T12:15:42.5Z</time></trkpt><trkpt lat="43.4516054" lon="12.7510497"><ele>526.0</ele><time>2026-05-01T12:15:43.5Z</time></trkpt><trkpt lat="43.4515982" lon="12.7512115"><ele>526.0</ele><time>2026-05-01T12:15:44.5Z</time></trkpt><trkpt lat="43.4516262" lon="12.7513548"><ele>526.0</ele><time>2026-05-01T12:15:45.5Z</time></trkpt><trkpt lat="43.4516694" lon="12.7514894"><ele>526.0</ele><time>2026-05-01T12:15:46.5Z</time></trkpt><trkpt lat="43.4516933" lon="12.751635"><ele>526.0</ele><time>2026-05-01T12:15:47.499Z</time></trkpt><trkpt lat="43.4516521" lon="12.7517738"><ele>526.0</ele><time>2026-05-01T12:15:48.499Z</time></trkpt><trkpt lat="43.4515587" lon="12.751887"><ele>527.5</ele><time>2026-05-01T12:15:49.499Z</time></trkpt><trkpt lat="43.4514754" lon="12.7520077"><ele>529.0</ele><time>2026-05-01T12:15:50.499Z</time></trkpt><trkpt lat="43.4513983" lon="12.7521419"><ele>530.5</ele><time>2026-05-01T12:15:51.499Z</time></trkpt><trkpt lat="43.4513181" lon="12.7522892"><ele>532.0</ele><time>2026-05-01T12:15:52.5Z</time></trkpt><trkpt lat="43.4512413" lon="12.7524349"><ele>532.0</ele><time>2026-05-01T12:15:53.5Z</time></trkpt><trkpt lat="43.4511688" lon="12.7525728"><ele>532.0</ele><time>2026-05-01T12:15:54.5Z</time></trkpt><trkpt lat="43.4510998" lon="12.7527219"><ele>532.0</ele><time>2026-05-01T12:15:55.499Z</time></trkpt><trkpt lat="43.4510268" lon="12.7528679"><ele>532.0</ele><time>2026-05-01T12:15:56.5Z</time></trkpt><trkpt lat="43.4509491" lon="12.75301"><ele>534.0</ele><time>2026-05-01T12:15:57.499Z</time></trkpt><trkpt lat="43.4508756" lon="12.7531548"><ele>536.0</ele><time>2026-05-01T12:15:58.5Z</time></trkpt><trkpt lat="43.4508105" lon="12.7533094"><ele>538.0</ele><time>2026-05-01T12:15:59.5Z</time></trkpt><trkpt lat="43.4507588" lon="12.7534803"><ele>540.0</ele><time>2026-05-01T12:16:00.5Z</time></trkpt><trkpt lat="43.4507174" lon="12.7536605"><ele>545.0</ele><time>2026-05-01T12:16:01.5Z</time></trkpt><trkpt lat="43.4506781" lon="12.7538413"><ele>550.0</ele><time>2026-05-01T12:16:02.5Z</time></trkpt><trkpt lat="43.4506186" lon="12.7539928"><ele>555.0</ele><time>2026-05-01T12:16:03.5Z</time></trkpt><trkpt lat="43.4505385" lon="12.7541302"><ele>560.0</ele><time>2026-05-01T12:16:04.499Z</time></trkpt><trkpt lat="43.450474" lon="12.754284"><ele>560.75</ele><time>2026-05-01T12:16:05.5Z</time></trkpt><trkpt lat="43.4504455" lon="12.7544519"><ele>561.5</ele><time>2026-05-01T12:16:06.5Z</time></trkpt><trkpt lat="43.4504428" lon="12.7546449"><ele>562.25</ele><time>2026-05-01T12:16:07.5Z</time></trkpt><trkpt lat="43.4504672" lon="12.7548371"><ele>563.0</ele><time>2026-05-01T12:16:08.5Z</time></trkpt><trkpt lat="43.4505191" lon="12.7550355"><ele>566.0</ele><time>2026-05-01T12:16:09.5Z</time></trkpt><trkpt lat="43.4505693" lon="12.7552307"><ele>569.0</ele><time>2026-05-01T12:16:10.499Z</time></trkpt><trkpt lat="43.4506267" lon="12.7554184"><ele>572.0</ele><time>2026-05-01T12:16:11.499Z</time></trkpt><trkpt lat="43.4506872" lon="12.7556096"><ele>572.0</ele><time>2026-05-01T12:16:12.5Z</time></trkpt><trkpt lat="43.4507432" lon="12.7558055"><ele>572.0</ele><time>2026-05-01T12:16:13.5Z</time></trkpt><trkpt lat="43.4507966" lon="12.7560047"><ele>572.0</ele><time>2026-05-01T12:16:14.5Z</time></trkpt><trkpt lat="43.4508408" lon="12.7562055"><ele>572.5</ele><time>2026-05-01T12:16:15.5Z</time></trkpt><trkpt lat="43.4508831" lon="12.756402"><ele>573.0</ele><time>2026-05-01T12:16:16.499Z</time></trkpt><trkpt lat="43.4509215" lon="12.756599"><ele>573.5</ele><time>2026-05-01T12:16:17.5Z</time></trkpt><trkpt lat="43.4509539" lon="12.756791"><ele>574.0</ele><time>2026-05-01T12:16:18.499Z</time></trkpt><trkpt lat="43.4509815" lon="12.756987"><ele>575.0</ele><time>2026-05-01T12:16:19.5Z</time></trkpt><trkpt lat="43.4509978" lon="12.7571727"><ele>576.0</ele><time>2026-05-01T12:16:20.5Z</time></trkpt><trkpt lat="43.4510059" lon="12.7573461"><ele>577.0</ele><time>2026-05-01T12:16:21.5Z</time></trkpt><trkpt lat="43.4510155" lon="12.7575005"><ele>578.0</ele><time>2026-05-01T12:16:22.5Z</time></trkpt><trkpt lat="43.4510355" lon="12.7576285"><ele>580.8333333333333</ele><time>2026-05-01T12:16:23.5Z</time></trkpt><trkpt lat="43.4510829" lon="12.7577275"><ele>583.6666666666666</ele><time>2026-05-01T12:16:24.5Z</time></trkpt><trkpt lat="43.4511549" lon="12.7577959"><ele>586.5</ele><time>2026-05-01T12:16:25.5Z</time></trkpt><trkpt lat="43.4512403" lon="12.7577874"><ele>589.3333333333334</ele><time>2026-05-01T12:16:26.5Z</time></trkpt><trkpt lat="43.4513008" lon="12.7577016"><ele>592.1666666666667</ele><time>2026-05-01T12:16:27.5Z</time></trkpt><trkpt lat="43.4513431" lon="12.7575981"><ele>595.0</ele><time>2026-05-01T12:16:28.5Z</time></trkpt><trkpt lat="43.4513476" lon="12.7574786"><ele>597.8</ele><time>2026-05-01T12:16:29.5Z</time></trkpt><trkpt lat="43.4513322" lon="12.7573451"><ele>600.6</ele><time>2026-05-01T12:16:30.499Z</time></trkpt><trkpt lat="43.4513099" lon="12.7571995"><ele>603.4</ele><time>2026-05-01T12:16:31.5Z</time></trkpt><trkpt lat="43.4512844" lon="12.7570436"><ele>606.2</ele><time>2026-05-01T12:16:32.5Z</time></trkpt><trkpt lat="43.4512707" lon="12.7568804"><ele>609.0</ele><time>2026-05-01T12:16:33.499Z</time></trkpt><trkpt lat="43.4512473" lon="12.7567233"><ele>600.25</ele><time>2026-05-01T12:16:34.5Z</time></trkpt><trkpt lat="43.451212" lon="12.7565652"><ele>591.5</ele><time>2026-05-01T12:16:35.499Z</time></trkpt><trkpt lat="43.4511728" lon="12.7564056"><ele>582.75</ele><time>2026-05-01T12:16:36.5Z</time></trkpt><trkpt lat="43.4511473" lon="12.7562412"><ele>574.0</ele><time>2026-05-01T12:16:37.5Z</time></trkpt><trkpt lat="43.4511485" lon="12.7560645"><ele>573.5</ele><time>2026-05-01T12:16:38.5Z</time></trkpt><trkpt lat="43.451153" lon="12.7558815"><ele>573.0</ele><time>2026-05-01T12:16:39.5Z</time></trkpt><trkpt lat="43.4511463" lon="12.7556911"><ele>572.5</ele><time>2026-05-01T12:16:40.5Z</time></trkpt><trkpt lat="43.4511248" lon="12.7555107"><ele>572.0</ele><time>2026-05-01T12:16:41.5Z</time></trkpt><trkpt lat="43.4510941" lon="12.7553454"><ele>572.4</ele><time>2026-05-01T12:16:42.5Z</time></trkpt><trkpt lat="43.4510739" lon="12.7552038"><ele>572.8000000000001</ele><time>2026-05-01T12:16:43.5Z</time></trkpt><trkpt lat="43.4510749" lon="12.7550759"><ele>573.2</ele><time>2026-05-01T12:16:44.5Z</time></trkpt><trkpt lat="43.4511234" lon="12.7549492"><ele>573.6</ele><time>2026-05-01T12:16:45.5Z</time></trkpt><trkpt lat="43.451206" lon="12.7548452"><ele>574.0</ele><time>2026-05-01T12:16:46.5Z</time></trkpt><trkpt lat="43.4513186" lon="12.7547715"><ele>581.0</ele><time>2026-05-01T12:16:47.499Z</time></trkpt><trkpt lat="43.4514317" lon="12.7547222"><ele>588.0</ele><time>2026-05-01T12:16:48.5Z</time></trkpt><trkpt lat="43.4515456" lon="12.7546921"><ele>595.0</ele><time>2026-05-01T12:16:49.5Z</time></trkpt><trkpt lat="43.4516532" lon="12.7546933"><ele>602.0</ele><time>2026-05-01T12:16:50.5Z</time></trkpt><trkpt lat="43.4517713" lon="12.7547016"><ele>602.0</ele><time>2026-05-01T12:16:51.5Z</time></trkpt><trkpt lat="43.451887" lon="12.7547315"><ele>602.0</ele><time>2026-05-01T12:16:52.5Z</time></trkpt><trkpt lat="43.4519963" lon="12.7547778"><ele>602.0</ele><time>2026-05-01T12:16:53.5Z</time></trkpt><trkpt lat="43.4521024" lon="12.7548444"><ele>602.0</ele><time>2026-05-01T12:16:54.5Z</time></trkpt><trkpt lat="43.4522149" lon="12.7549229"><ele>605.0</ele><time>2026-05-01T12:16:55.5Z</time></trkpt><trkpt lat="43.4523216" lon="12.7549968"><ele>608.0</ele><time>2026-05-01T12:16:56.5Z</time></trkpt><trkpt lat="43.452421" lon="12.7550498"><ele>611.0</ele><time>2026-05-01T12:16:57.499Z</time></trkpt><trkpt lat="43.4525012" lon="12.7550762"><ele>614.0</ele><time>2026-05-01T12:16:58.5Z</time></trkpt><trkpt lat="43.4525662" lon="12.755029"><ele>617.0</ele><time>2026-05-01T12:16:59.5Z</time></trkpt><trkpt lat="43.4526059" lon="12.7549215"><ele>617.0</ele><time>2026-05-01T12:17:00.5Z</time></trkpt><trkpt lat="43.4526079" lon="12.754797"><ele>617.0</ele><time>2026-05-01T12:17:01.499Z</time></trkpt><trkpt lat="43.4525898" lon="12.7546514"><ele>617.0</ele><time>2026-05-01T12:17:02.5Z</time></trkpt><trkpt lat="43.4525709" lon="12.7545111"><ele>617.0</ele><time>2026-05-01T12:17:03.5Z</time></trkpt><trkpt lat="43.452546" lon="12.7543742"><ele>617.0</ele><time>2026-05-01T12:17:04.499Z</time></trkpt><trkpt lat="43.4525313" lon="12.7542316"><ele>614.8000000000001</ele><time>2026-05-01T12:17:05.5Z</time></trkpt><trkpt lat="43.4525424" lon="12.7541033"><ele>612.6</ele><time>2026-05-01T12:17:06.5Z</time></trkpt><trkpt lat="43.4525772" lon="12.7539956"><ele>610.4000000000001</ele><time>2026-05-01T12:17:07.5Z</time></trkpt><trkpt lat="43.452643" lon="12.7539307"><ele>608.2</ele><time>2026-05-01T12:17:08.5Z</time></trkpt><trkpt lat="43.4527448" lon="12.7539012"><ele>606.0</ele><time>2026-05-01T12:17:09.499Z</time></trkpt><trkpt lat="43.4528625" lon="12.7539071"><ele>611.25</ele><time>2026-05-01T12:17:10.499Z</time></trkpt><trkpt lat="43.4529836" lon="12.753913"><ele>616.5</ele><time>2026-05-01T12:17:11.499Z</time></trkpt><trkpt lat="43.4531108" lon="12.7539228"><ele>621.75</ele><time>2026-05-01T12:17:12.5Z</time></trkpt><trkpt lat="43.4532274" lon="12.7539273"><ele>627.0</ele><time>2026-05-01T12:17:13.5Z</time></trkpt><trkpt lat="43.4533487" lon="12.7539371"><ele>627.0</ele><time>2026-05-01T12:17:14.5Z</time></trkpt><trkpt lat="43.4534827" lon="12.7539404"><ele>627.0</ele><time>2026-05-01T12:17:15.5Z</time></trkpt><trkpt lat="43.4536198" lon="12.7539417"><ele>627.0</ele><time>2026-05-01T12:17:16.5Z</time></trkpt><trkpt lat="43.4537559" lon="12.7539377"><ele>627.0</ele><time>2026-05-01T12:17:17.5Z</time></trkpt><trkpt lat="43.4538855" lon="12.7539391"><ele>628.75</ele><time>2026-05-01T12:17:18.5Z</time></trkpt><trkpt lat="43.4540145" lon="12.7539382"><ele>630.5</ele><time>2026-05-01T12:17:19.499Z</time></trkpt><trkpt lat="43.4541371" lon="12.7539349"><ele>632.25</ele><time>2026-05-01T12:17:20.499Z</time></trkpt><trkpt lat="43.4542645" lon="12.7539469"><ele>634.0</ele><time>2026-05-01T12:17:21.5Z</time></trkpt><trkpt lat="43.4543925" lon="12.7539641"><ele>634.0</ele><time>2026-05-01T12:17:22.5Z</time></trkpt><trkpt lat="43.4545299" lon="12.7539941"><ele>634.0</ele><time>2026-05-01T12:17:23.5Z</time></trkpt><trkpt lat="43.4546769" lon="12.7540222"><ele>634.0</ele><time>2026-05-01T12:17:24.5Z</time></trkpt><trkpt lat="43.4548175" lon="12.7540552"><ele>634.0</ele><time>2026-05-01T12:17:25.5Z</time></trkpt><trkpt lat="43.454962" lon="12.7540978"><ele>634.0</ele><time>2026-05-01T12:17:26.5Z</time></trkpt><trkpt lat="43.4551074" lon="12.7541416"><ele>634.0</ele><time>2026-05-01T12:17:27.5Z</time></trkpt><trkpt lat="43.4552539" lon="12.7541881"><ele>634.0</ele><time>2026-05-01T12:17:28.499Z</time></trkpt><trkpt lat="43.4553952" lon="12.7542333"><ele>634.0</ele><time>2026-05-01T12:17:29.499Z</time></trkpt><trkpt lat="43.4555372" lon="12.7542826"><ele>633.25</ele><time>2026-05-01T12:17:30.5Z</time></trkpt><trkpt lat="43.4556748" lon="12.7543419"><ele>632.5</ele><time>2026-05-01T12:17:31.5Z</time></trkpt><trkpt lat="43.4558039" lon="12.7544275"><ele>631.75</ele><time>2026-05-01T12:17:32.499Z</time></trkpt><trkpt lat="43.4559237" lon="12.7545199"><ele>631.0</ele><time>2026-05-01T12:17:33.499Z</time></trkpt><trkpt lat="43.4560122" lon="12.7546141"><ele>635.2</ele><time>2026-05-01T12:17:34.5Z</time></trkpt><trkpt lat="43.4560802" lon="12.7547191"><ele>639.4000000000001</ele><time>2026-05-01T12:17:35.499Z</time></trkpt><trkpt lat="43.4561134" lon="12.7548304"><ele>643.6</ele><time>2026-05-01T12:17:36.5Z</time></trkpt><trkpt lat="43.4561263" lon="12.7549573"><ele>647.8000000000001</ele><time>2026-05-01T12:17:37.5Z</time></trkpt><trkpt lat="43.4561525" lon="12.7550755"><ele>652.0</ele><time>2026-05-01T12:17:38.5Z</time></trkpt><trkpt lat="43.4562188" lon="12.7551759"><ele>650.0</ele><time>2026-05-01T12:17:39.5Z</time></trkpt><trkpt lat="43.4563137" lon="12.7552506"><ele>648.0</ele><time>2026-05-01T12:17:40.499Z</time></trkpt><trkpt lat="43.4564204" lon="12.7553129"><ele>646.0</ele><time>2026-05-01T12:17:41.499Z</time></trkpt><trkpt lat="43.4565285" lon="12.7553716"><ele>644.0</ele><time>2026-05-01T12:17:42.5Z</time></trkpt><trkpt lat="43.4566187" lon="12.7554298"><ele>642.0</ele><time>2026-05-01T12:17:43.499Z</time></trkpt><trkpt lat="43.4566914" lon="12.7555082"><ele>642.0</ele><time>2026-05-01T12:17:44.5Z</time></trkpt><trkpt lat="43.456734" lon="12.7556207"><ele>642.0</ele><time>2026-05-01T12:17:45.5Z</time></trkpt><trkpt lat="43.4567081" lon="12.7557315"><ele>642.0</ele><time>2026-05-01T12:17:46.499Z</time></trkpt><trkpt lat="43.4566392" lon="12.755854"><ele>642.0</ele><time>2026-05-01T12:17:47.5Z</time></trkpt><trkpt lat="43.4565846" lon="12.755957"><ele>642.0</ele><time>2026-05-01T12:17:48.499Z</time></trkpt><trkpt lat="43.4565586" lon="12.7560811"><ele>644.2</ele><time>2026-05-01T12:17:49.499Z</time></trkpt><trkpt lat="43.4565664" lon="12.7562026"><ele>646.4000000000001</ele><time>2026-05-01T12:17:50.499Z</time></trkpt><trkpt lat="43.4566239" lon="12.7563101"><ele>648.5999999999999</ele><time>2026-05-01T12:17:51.499Z</time></trkpt><trkpt lat="43.4567212" lon="12.7563552"><ele>650.8</ele><time>2026-05-01T12:17:52.499Z</time></trkpt><trkpt lat="43.4568236" lon="12.7563782"><ele>653.0</ele><time>2026-05-01T12:17:53.5Z</time></trkpt><trkpt lat="43.4569433" lon="12.7563857"><ele>653.0</ele><time>2026-05-01T12:17:54.5Z</time></trkpt><trkpt lat="43.4570626" lon="12.7563941"><ele>653.0</ele><time>2026-05-01T12:17:55.499Z</time></trkpt><trkpt lat="43.4571798" lon="12.7564244"><ele>653.0</ele><time>2026-05-01T12:17:56.5Z</time></trkpt><trkpt lat="43.4573001" lon="12.7564581"><ele>653.0</ele><time>2026-05-01T12:17:57.5Z</time></trkpt><trkpt lat="43.4574295" lon="12.7564878"><ele>648.25</ele><time>2026-05-01T12:17:58.5Z</time></trkpt><trkpt lat="43.4575615" lon="12.7565283"><ele>643.5</ele><time>2026-05-01T12:17:59.5Z</time></trkpt><trkpt lat="43.4577007" lon="12.7565772"><ele>638.75</ele><time>2026-05-01T12:18:00.499Z</time></trkpt><trkpt lat="43.4578318" lon="12.7566333"><ele>634.0</ele><time>2026-05-01T12:18:01.5Z</time></trkpt><trkpt lat="43.4579746" lon="12.7566678"><ele>631.75</ele><time>2026-05-01T12:18:02.5Z</time></trkpt><trkpt lat="43.4581286" lon="12.756653"><ele>629.5</ele><time>2026-05-01T12:18:03.5Z</time></trkpt><trkpt lat="43.4582712" lon="12.7566272"><ele>627.25</ele><time>2026-05-01T12:18:04.499Z</time></trkpt><trkpt lat="43.4584085" lon="12.7565986"><ele>625.0</ele><time>2026-05-01T12:18:05.5Z</time></trkpt><trkpt lat="43.4585439" lon="12.7565909"><ele>625.0</ele><time>2026-05-01T12:18:06.5Z</time></trkpt><trkpt lat="43.4586636" lon="12.7566076"><ele>625.0</ele><time>2026-05-01T12:18:07.5Z</time></trkpt><trkpt lat="43.4587895" lon="12.756646"><ele>625.0</ele><time>2026-05-01T12:18:08.5Z</time></trkpt><trkpt lat="43.4589102" lon="12.7566921"><ele>625.0</ele><time>2026-05-01T12:18:09.499Z</time></trkpt><trkpt lat="43.459025" lon="12.7567354"><ele>624.75</ele><time>2026-05-01T12:18:10.5Z</time></trkpt><trkpt lat="43.4591394" lon="12.7567582"><ele>624.5</ele><time>2026-05-01T12:18:11.5Z</time></trkpt><trkpt lat="43.4592458" lon="12.7567202"><ele>624.25</ele><time>2026-05-01T12:18:12.5Z</time></trkpt><trkpt lat="43.4593405" lon="12.7566085"><ele>624.0</ele><time>2026-05-01T12:18:13.5Z</time></trkpt><trkpt lat="43.4594228" lon="12.7564831"><ele>624.0</ele><time>2026-05-01T12:18:14.5Z</time></trkpt><trkpt lat="43.4594963" lon="12.7563476"><ele>624.0</ele><time>2026-05-01T12:18:15.499Z</time></trkpt><trkpt lat="43.4595269" lon="12.7562045"><ele>624.0</ele><time>2026-05-01T12:18:16.5Z</time></trkpt><trkpt lat="43.4595347" lon="12.7560609"><ele>624.0</ele><time>2026-05-01T12:18:17.5Z</time></trkpt><trkpt lat="43.4595416" lon="12.7559206"><ele>624.0</ele><time>2026-05-01T12:18:18.499Z</time></trkpt><trkpt lat="43.4595667" lon="12.7557979"><ele>624.25</ele><time>2026-05-01T12:18:19.5Z</time></trkpt><trkpt lat="43.4596173" lon="12.7556806"><ele>624.5</ele><time>2026-05-01T12:18:20.5Z</time></trkpt><trkpt lat="43.4596948" lon="12.7555712"><ele>624.75</ele><time>2026-05-01T12:18:21.5Z</time></trkpt><trkpt lat="43.4598172" lon="12.7554942"><ele>625.0</ele><time>2026-05-01T12:18:22.5Z</time></trkpt><trkpt lat="43.4599405" lon="12.7554316"><ele>625.0</ele><time>2026-05-01T12:18:23.5Z</time></trkpt><trkpt lat="43.4600632" lon="12.755374"><ele>625.0</ele><time>2026-05-01T12:18:24.5Z</time></trkpt><trkpt lat="43.4601919" lon="12.755314"><ele>625.0</ele><time>2026-05-01T12:18:25.5Z</time></trkpt><trkpt lat="43.4603177" lon="12.7552493"><ele>625.0</ele><time>2026-05-01T12:18:26.5Z</time></trkpt><trkpt lat="43.4604499" lon="12.7551884"><ele>621.0</ele><time>2026-05-01T12:18:27.499Z</time></trkpt><trkpt lat="43.460581" lon="12.755129"><ele>617.0</ele><time>2026-05-01T12:18:28.499Z</time></trkpt><trkpt lat="43.4607172" lon="12.7550611"><ele>613.0</ele><time>2026-05-01T12:18:29.5Z</time></trkpt><trkpt lat="43.4608552" lon="12.7549831"><ele>609.0</ele><time>2026-05-01T12:18:30.5Z</time></trkpt><trkpt lat="43.461002" lon="12.7549095"><ele>609.0</ele><time>2026-05-01T12:18:31.499Z</time></trkpt><trkpt lat="43.4611542" lon="12.7548405"><ele>609.0</ele><time>2026-05-01T12:18:32.499Z</time></trkpt><trkpt lat="43.4613086" lon="12.754776"><ele>609.0</ele><time>2026-05-01T12:18:33.5Z</time></trkpt><trkpt lat="43.4614629" lon="12.7547143"><ele>611.0</ele><time>2026-05-01T12:18:34.499Z</time></trkpt><trkpt lat="43.4616116" lon="12.7546557"><ele>613.0</ele><time>2026-05-01T12:18:35.5Z</time></trkpt><trkpt lat="43.461761" lon="12.7546053"><ele>615.0</ele><time>2026-05-01T12:18:36.5Z</time></trkpt><trkpt lat="43.4619143" lon="12.7545629"><ele>615.0</ele><time>2026-05-01T12:18:37.499Z</time></trkpt><trkpt lat="43.462072" lon="12.7545342"><ele>615.0</ele><time>2026-05-01T12:18:38.5Z</time></trkpt><trkpt lat="43.4622255" lon="12.7545322"><ele>615.0</ele><time>2026-05-01T12:18:39.499Z</time></trkpt><trkpt lat="43.4623713" lon="12.7545568"><ele>615.0</ele><time>2026-05-01T12:18:40.5Z</time></trkpt><trkpt lat="43.4625256" lon="12.7545973"><ele>615.0</ele><time>2026-05-01T12:18:41.5Z</time></trkpt><trkpt lat="43.4626849" lon="12.7546548"><ele>615.0</ele><time>2026-05-01T12:18:42.499Z</time></trkpt><trkpt lat="43.4628445" lon="12.7547213"><ele>611.6666666666666</ele><time>2026-05-01T12:18:43.5Z</time></trkpt><trkpt lat="43.4629991" lon="12.7548131"><ele>608.3333333333333</ele><time>2026-05-01T12:18:44.5Z</time></trkpt><trkpt lat="43.463154" lon="12.7549001"><ele>605.0</ele><time>2026-05-01T12:18:45.5Z</time></trkpt><trkpt lat="43.4633054" lon="12.7549793"><ele>605.0</ele><time>2026-05-01T12:18:46.499Z</time></trkpt><trkpt lat="43.4634526" lon="12.7550536"><ele>605.0</ele><time>2026-05-01T12:18:47.5Z</time></trkpt><trkpt lat="43.4636023" lon="12.7551246"><ele>605.0</ele><time>2026-05-01T12:18:48.5Z</time></trkpt><trkpt lat="43.4637483" lon="12.7552015"><ele>606.6666666666666</ele><time>2026-05-01T12:18:49.5Z</time></trkpt><trkpt lat="43.4638899" lon="12.7552881"><ele>608.3333333333334</ele><time>2026-05-01T12:18:50.499Z</time></trkpt><trkpt lat="43.4640214" lon="12.7553903"><ele>610.0</ele><time>2026-05-01T12:18:51.5Z</time></trkpt><trkpt lat="43.46414" lon="12.7555077"><ele>610.0</ele><time>2026-05-01T12:18:52.5Z</time></trkpt><trkpt lat="43.464245" lon="12.7556263"><ele>610.0</ele><time>2026-05-01T12:18:53.499Z</time></trkpt><trkpt lat="43.4643452" lon="12.7557565"><ele>610.0</ele><time>2026-05-01T12:18:54.5Z</time></trkpt><trkpt lat="43.4644456" lon="12.7558922"><ele>610.0</ele><time>2026-05-01T12:18:55.499Z</time></trkpt><trkpt lat="43.4645436" lon="12.7560382"><ele>608.25</ele><time>2026-05-01T12:18:56.5Z</time></trkpt><trkpt lat="43.4646424" lon="12.7561848"><ele>606.5</ele><time>2026-05-01T12:18:57.5Z</time></trkpt><trkpt lat="43.4647408" lon="12.7563298"><ele>604.75</ele><time>2026-05-01T12:18:58.5Z</time></trkpt><trkpt lat="43.4648357" lon="12.756481"><ele>603.0</ele><time>2026-05-01T12:18:59.5Z</time></trkpt><trkpt lat="43.4649354" lon="12.7566339"><ele>603.0</ele><time>2026-05-01T12:19:00.5Z</time></trkpt><trkpt lat="43.4650403" lon="12.7567806"><ele>603.0</ele><time>2026-05-01T12:19:01.499Z</time></trkpt><trkpt lat="43.4651496" lon="12.7569156"><ele>603.0</ele><time>2026-05-01T12:19:02.5Z</time></trkpt><trkpt lat="43.4652643" lon="12.7570411"><ele>603.0</ele><time>2026-05-01T12:19:03.499Z</time></trkpt><trkpt lat="43.4653607" lon="12.7571521"><ele>605.6</ele><time>2026-05-01T12:19:04.5Z</time></trkpt><trkpt lat="43.4654521" lon="12.7572562"><ele>608.1999999999999</ele><time>2026-05-01T12:19:05.5Z</time></trkpt><trkpt lat="43.4655428" lon="12.7573278"><ele>610.8</ele><time>2026-05-01T12:19:06.5Z</time></trkpt><trkpt lat="43.4656412" lon="12.7573569"><ele>613.4</ele><time>2026-05-01T12:19:07.5Z</time></trkpt><trkpt lat="43.4657497" lon="12.7572962"><ele>616.0</ele><time>2026-05-01T12:19:08.5Z</time></trkpt><trkpt lat="43.465845" lon="12.7572373"><ele>616.0</ele><time>2026-05-01T12:19:09.5Z</time></trkpt><trkpt lat="43.4659446" lon="12.7571611"><ele>616.0</ele><time>2026-05-01T12:19:10.499Z</time></trkpt><trkpt lat="43.4660674" lon="12.7570866"><ele>616.0</ele><time>2026-05-01T12:19:11.499Z</time></trkpt><trkpt lat="43.4661862" lon="12.7570024"><ele>616.0</ele><time>2026-05-01T12:19:12.5Z</time></trkpt><trkpt lat="43.4663128" lon="12.7569362"><ele>609.75</ele><time>2026-05-01T12:19:13.5Z</time></trkpt><trkpt lat="43.4664291" lon="12.7568657"><ele>603.5</ele><time>2026-05-01T12:19:14.5Z</time></trkpt><trkpt lat="43.4665443" lon="12.7567968"><ele>597.25</ele><time>2026-05-01T12:19:15.499Z</time></trkpt><trkpt lat="43.4666503" lon="12.7567174"><ele>591.0</ele><time>2026-05-01T12:19:16.499Z</time></trkpt><trkpt lat="43.4667532" lon="12.7566403"><ele>591.0</ele><time>2026-05-01T12:19:17.5Z</time></trkpt><trkpt lat="43.4668725" lon="12.7565996"><ele>591.0</ele><time>2026-05-01T12:19:18.5Z</time></trkpt><trkpt lat="43.4669991" lon="12.756579"><ele>591.0</ele><time>2026-05-01T12:19:19.5Z</time></trkpt><trkpt lat="43.467122" lon="12.7565652"><ele>591.0</ele><time>2026-05-01T12:19:20.499Z</time></trkpt><trkpt lat="43.4672442" lon="12.7565633"><ele>591.5</ele><time>2026-05-01T12:19:21.5Z</time></trkpt><trkpt lat="43.4673617" lon="12.7565587"><ele>592.0</ele><time>2026-05-01T12:19:22.5Z</time></trkpt><trkpt lat="43.4674743" lon="12.7565658"><ele>592.5</ele><time>2026-05-01T12:19:23.5Z</time></trkpt><trkpt lat="43.4676003" lon="12.7565909"><ele>593.0</ele><time>2026-05-01T12:19:24.5Z</time></trkpt><trkpt lat="43.4677293" lon="12.7566313"><ele>593.0</ele><time>2026-05-01T12:19:25.5Z</time></trkpt><trkpt lat="43.4678555" lon="12.7566901"><ele>593.0</ele><time>2026-05-01T12:19:26.5Z</time></trkpt><trkpt lat="43.4679701" lon="12.7567818"><ele>593.0</ele><time>2026-05-01T12:19:27.5Z</time></trkpt><trkpt lat="43.4680729" lon="12.7568937"><ele>593.0</ele><time>2026-05-01T12:19:28.5Z</time></trkpt><trkpt lat="43.4681735" lon="12.7570218"><ele>591.25</ele><time>2026-05-01T12:19:29.5Z</time></trkpt><trkpt lat="43.4682581" lon="12.7571672"><ele>589.5</ele><time>2026-05-01T12:19:30.5Z</time></trkpt><trkpt lat="43.4683442" lon="12.7573244"><ele>587.75</ele><time>2026-05-01T12:19:31.499Z</time></trkpt><trkpt lat="43.4684339" lon="12.7574759"><ele>586.0</ele><time>2026-05-01T12:19:32.5Z</time></trkpt><trkpt lat="43.46853" lon="12.757629"><ele>589.75</ele><time>2026-05-01T12:19:33.5Z</time></trkpt><trkpt lat="43.4686215" lon="12.7577792"><ele>593.5</ele><time>2026-05-01T12:19:34.5Z</time></trkpt><trkpt lat="43.4687203" lon="12.7579171"><ele>597.25</ele><time>2026-05-01T12:19:35.5Z</time></trkpt><trkpt lat="43.4688222" lon="12.7580123"><ele>601.0</ele><time>2026-05-01T12:19:36.5Z</time></trkpt><trkpt lat="43.4689144" lon="12.7580466"><ele>595.8333333333334</ele><time>2026-05-01T12:19:37.499Z</time></trkpt><trkpt lat="43.468996" lon="12.7580249"><ele>590.6666666666667</ele><time>2026-05-01T12:19:38.5Z</time></trkpt><trkpt lat="43.4690498" lon="12.7579447"><ele>585.5</ele><time>2026-05-01T12:19:39.5Z</time></trkpt><trkpt lat="43.469071" lon="12.7578425"><ele>580.3333333333334</ele><time>2026-05-01T12:19:40.5Z</time></trkpt><trkpt lat="43.4690573" lon="12.7577275"><ele>575.1666666666666</ele><time>2026-05-01T12:19:41.5Z</time></trkpt><trkpt lat="43.4690168" lon="12.7576088"><ele>570.0</ele><time>2026-05-01T12:19:42.5Z</time></trkpt><trkpt lat="43.468948" lon="12.75749"><ele>574.0</ele><time>2026-05-01T12:19:43.5Z</time></trkpt><trkpt lat="43.4688599" lon="12.7573731"><ele>578.0</ele><time>2026-05-01T12:19:44.499Z</time></trkpt><trkpt lat="43.4687702" lon="12.7572482"><ele>582.0</ele><time>2026-05-01T12:19:45.5Z</time></trkpt><trkpt lat="43.4686969" lon="12.7571099"><ele>586.0</ele><time>2026-05-01T12:19:46.499Z</time></trkpt><trkpt lat="43.4686156" lon="12.7569674"><ele>582.25</ele><time>2026-05-01T12:19:47.499Z</time></trkpt><trkpt lat="43.4685367" lon="12.7568105"><ele>578.5</ele><time>2026-05-01T12:19:48.5Z</time></trkpt><trkpt lat="43.468465" lon="12.756641"><ele>574.75</ele><time>2026-05-01T12:19:49.5Z</time></trkpt><trkpt lat="43.4683989" lon="12.7564699"><ele>571.0</ele><time>2026-05-01T12:19:50.5Z</time></trkpt><trkpt lat="43.4683428" lon="12.7563061"><ele>571.0</ele><time>2026-05-01T12:19:51.5Z</time></trkpt><trkpt lat="43.4682934" lon="12.7561533"><ele>571.0</ele><time>2026-05-01T12:19:52.499Z</time></trkpt><trkpt lat="43.4682482" lon="12.7560184"><ele>571.0</ele><time>2026-05-01T12:19:53.5Z</time></trkpt><trkpt lat="43.468189" lon="12.7558934"><ele>571.0</ele><time>2026-05-01T12:19:54.5Z</time></trkpt><trkpt lat="43.4681015" lon="12.7557983"><ele>571.0</ele><time>2026-05-01T12:19:55.499Z</time></trkpt><trkpt lat="43.4680048" lon="12.7557381"><ele>569.5</ele><time>2026-05-01T12:19:56.5Z</time></trkpt><trkpt lat="43.4678844" lon="12.7557035"><ele>568.0</ele><time>2026-05-01T12:19:57.5Z</time></trkpt><trkpt lat="43.4677689" lon="12.7556843"><ele>566.5</ele><time>2026-05-01T12:19:58.5Z</time></trkpt><trkpt lat="43.4676558" lon="12.755675"><ele>565.0</ele><time>2026-05-01T12:19:59.5Z</time></trkpt><trkpt lat="43.4675363" lon="12.7556576"><ele>565.0</ele><time>2026-05-01T12:20:00.5Z</time></trkpt><trkpt lat="43.4674231" lon="12.7556184"><ele>565.0</ele><time>2026-05-01T12:20:01.5Z</time></trkpt><trkpt lat="43.4673278" lon="12.7555261"><ele>565.0</ele><time>2026-05-01T12:20:02.5Z</time></trkpt><trkpt lat="43.4672586" lon="12.7553978"><ele>565.0</ele><time>2026-05-01T12:20:03.5Z</time></trkpt><trkpt lat="43.4671948" lon="12.7552845"><ele>559.6</ele><time>2026-05-01T12:20:04.499Z</time></trkpt><trkpt lat="43.4671525" lon="12.755198"><ele>554.2</ele><time>2026-05-01T12:20:05.499Z</time></trkpt><trkpt lat="43.4670918" lon="12.7551186"><ele>548.8</ele><time>2026-05-01T12:20:06.5Z</time></trkpt><trkpt lat="43.4670181" lon="12.7550648"><ele>543.4</ele><time>2026-05-01T12:20:07.5Z</time></trkpt><trkpt lat="43.4669146" lon="12.7550504"><ele>538.0</ele><time>2026-05-01T12:20:08.5Z</time></trkpt><trkpt lat="43.4668063" lon="12.755071"><ele>538.0</ele><time>2026-05-01T12:20:09.499Z</time></trkpt><trkpt lat="43.466704" lon="12.7551411"><ele>538.0</ele><time>2026-05-01T12:20:10.499Z</time></trkpt><trkpt lat="43.4666174" lon="12.7552632"><ele>538.0</ele><time>2026-05-01T12:20:11.5Z</time></trkpt><trkpt lat="43.4665666" lon="12.7553968"><ele>538.0</ele><time>2026-05-01T12:20:12.5Z</time></trkpt><trkpt lat="43.4665237" lon="12.7555311"><ele>542.8</ele><time>2026-05-01T12:20:13.5Z</time></trkpt><trkpt lat="43.4664723" lon="12.7556484"><ele>547.5999999999999</ele><time>2026-05-01T12:20:14.5Z</time></trkpt><trkpt lat="43.4664016" lon="12.7557364"><ele>552.4000000000001</ele><time>2026-05-01T12:20:15.5Z</time></trkpt><trkpt lat="43.4663137" lon="12.7557266"><ele>557.2</ele><time>2026-05-01T12:20:16.5Z</time></trkpt><trkpt lat="43.4662325" lon="12.7556793"><ele>562.0</ele><time>2026-05-01T12:20:17.5Z</time></trkpt><trkpt lat="43.4661845" lon="12.7555801"><ele>562.0</ele><time>2026-05-01T12:20:18.5Z</time></trkpt><trkpt lat="43.4661868" lon="12.7554642"><ele>562.0</ele><time>2026-05-01T12:20:19.5Z</time></trkpt><trkpt lat="43.4662407" lon="12.7553381"><ele>562.0</ele><time>2026-05-01T12:20:20.5Z</time></trkpt><trkpt lat="43.4663281" lon="12.7552257"><ele>562.0</ele><time>2026-05-01T12:20:21.5Z</time></trkpt><trkpt lat="43.4664411" lon="12.7551249"><ele>562.0</ele><time>2026-05-01T12:20:22.499Z</time></trkpt><trkpt lat="43.4665482" lon="12.7549984"><ele>556.0</ele><time>2026-05-01T12:20:23.5Z</time></trkpt><trkpt lat="43.4666473" lon="12.7548693"><ele>550.0</ele><time>2026-05-01T12:20:24.5Z</time></trkpt><trkpt lat="43.4667529" lon="12.7547659"><ele>544.0</ele><time>2026-05-01T12:20:25.5Z</time></trkpt><trkpt lat="43.4668652" lon="12.7547068"><ele>538.0</ele><time>2026-05-01T12:20:26.5Z</time></trkpt><trkpt lat="43.4669821" lon="12.7546768"><ele>538.0</ele><time>2026-05-01T12:20:27.5Z</time></trkpt><trkpt lat="43.4671069" lon="12.7547253"><ele>538.0</ele><time>2026-05-01T12:20:28.5Z</time></trkpt><trkpt lat="43.467214" lon="12.7548134"><ele>538.0</ele><time>2026-05-01T12:20:29.499Z</time></trkpt><trkpt lat="43.4673315" lon="12.7548925"><ele>538.0</ele><time>2026-05-01T12:20:30.5Z</time></trkpt><trkpt lat="43.4674529" lon="12.7549673"><ele>536.0</ele><time>2026-05-01T12:20:31.5Z</time></trkpt><trkpt lat="43.467582" lon="12.755032"><ele>534.0</ele><time>2026-05-01T12:20:32.5Z</time></trkpt><trkpt lat="43.4677225" lon="12.7550737"><ele>532.0</ele><time>2026-05-01T12:20:33.5Z</time></trkpt><trkpt lat="43.4678712" lon="12.7551116"><ele>530.0</ele><time>2026-05-01T12:20:34.5Z</time></trkpt><trkpt lat="43.4680185" lon="12.7551294"><ele>533.25</ele><time>2026-05-01T12:20:35.5Z</time></trkpt><trkpt lat="43.4681572" lon="12.7551533"><ele>536.5</ele><time>2026-05-01T12:20:36.5Z</time></trkpt><trkpt lat="43.4682753" lon="12.7551913"><ele>539.75</ele><time>2026-05-01T12:20:37.499Z</time></trkpt><trkpt lat="43.468383" lon="12.755243"><ele>543.0</ele><time>2026-05-01T12:20:38.5Z</time></trkpt><trkpt lat="43.4684876" lon="12.7553356"><ele>543.0</ele><time>2026-05-01T12:20:39.5Z</time></trkpt><trkpt lat="43.4685639" lon="12.7554463"><ele>543.0</ele><time>2026-05-01T12:20:40.5Z</time></trkpt><trkpt lat="43.4686345" lon="12.7555497"><ele>543.0</ele><time>2026-05-01T12:20:41.5Z</time></trkpt><trkpt lat="43.4687094" lon="12.75565"><ele>543.0</ele><time>2026-05-01T12:20:42.5Z</time></trkpt><trkpt lat="43.4687809" lon="12.7557084"><ele>543.0</ele><time>2026-05-01T12:20:43.5Z</time></trkpt><trkpt lat="43.4688547" lon="12.7557525"><ele>537.6</ele><time>2026-05-01T12:20:44.5Z</time></trkpt><trkpt lat="43.4689332" lon="12.755793"><ele>532.1999999999999</ele><time>2026-05-01T12:20:46.5Z</time></trkpt><trkpt lat="43.4690164" lon="12.7557941"><ele>526.8</ele><time>2026-05-01T12:20:49.5Z</time></trkpt><trkpt lat="43.4690536" lon="12.7556491"><ele>521.4</ele><time>2026-05-01T12:20:51.5Z</time></trkpt><trkpt lat="43.4690658" lon="12.7555236"><ele>516.0</ele><time>2026-05-01T12:20:52.5Z</time></trkpt><trkpt lat="43.4690896" lon="12.7553897"><ele>516.0</ele><time>2026-05-01T12:20:53.5Z</time></trkpt><trkpt lat="43.4691279" lon="12.755256"><ele>516.0</ele><time>2026-05-01T12:20:54.499Z</time></trkpt><trkpt lat="43.4691891" lon="12.7551308"><ele>516.0</ele><time>2026-05-01T12:20:55.5Z</time></trkpt><trkpt lat="43.4692913" lon="12.7550298"><ele>516.0</ele><time>2026-05-01T12:20:56.5Z</time></trkpt><trkpt lat="43.4693963" lon="12.7549398"><ele>515.0</ele><time>2026-05-01T12:20:57.5Z</time></trkpt><trkpt lat="43.4694998" lon="12.7548101"><ele>514.0</ele><time>2026-05-01T12:20:58.5Z</time></trkpt><trkpt lat="43.4695864" lon="12.7546634"><ele>513.0</ele><time>2026-05-01T12:20:59.5Z</time></trkpt><trkpt lat="43.4696348" lon="12.7544916"><ele>512.0</ele><time>2026-05-01T12:21:00.5Z</time></trkpt><trkpt lat="43.4696299" lon="12.7542844"><ele>511.66666666666663</ele><time>2026-05-01T12:21:01.5Z</time></trkpt><trkpt lat="43.4695942" lon="12.754075"><ele>511.33333333333337</ele><time>2026-05-01T12:21:02.5Z</time></trkpt><trkpt lat="43.4695545" lon="12.7538706"><ele>511.0</ele><time>2026-05-01T12:21:03.499Z</time></trkpt><trkpt lat="43.4695156" lon="12.7536699"><ele>511.5</ele><time>2026-05-01T12:21:04.5Z</time></trkpt><trkpt lat="43.4694838" lon="12.7534797"><ele>512.0</ele><time>2026-05-01T12:21:05.5Z</time></trkpt><trkpt lat="43.4694492" lon="12.7532864"><ele>512.5</ele><time>2026-05-01T12:21:06.499Z</time></trkpt><trkpt lat="43.4693916" lon="12.753101"><ele>513.0</ele><time>2026-05-01T12:21:07.5Z</time></trkpt><trkpt lat="43.4693003" lon="12.7529102"><ele>513.0</ele><time>2026-05-01T12:21:08.5Z</time></trkpt><trkpt lat="43.4691899" lon="12.752731"><ele>513.0</ele><time>2026-05-01T12:21:09.5Z</time></trkpt><trkpt lat="43.4690822" lon="12.7525452"><ele>513.0</ele><time>2026-05-01T12:21:10.5Z</time></trkpt><trkpt lat="43.4689892" lon="12.7523578"><ele>514.0</ele><time>2026-05-01T12:21:11.5Z</time></trkpt><trkpt lat="43.4688972" lon="12.7521698"><ele>515.0</ele><time>2026-05-01T12:21:12.5Z</time></trkpt><trkpt lat="43.4688182" lon="12.7519614"><ele>516.0</ele><time>2026-05-01T12:21:13.5Z</time></trkpt><trkpt lat="43.468748" lon="12.7517593"><ele>516.0</ele><time>2026-05-01T12:21:14.5Z</time></trkpt><trkpt lat="43.468685" lon="12.7515652"><ele>516.0</ele><time>2026-05-01T12:21:15.5Z</time></trkpt><trkpt lat="43.468624" lon="12.7513843"><ele>516.0</ele><time>2026-05-01T12:21:16.5Z</time></trkpt><trkpt lat="43.4685737" lon="12.7511969"><ele>516.0</ele><time>2026-05-01T12:21:17.5Z</time></trkpt><trkpt lat="43.4685507" lon="12.7509929"><ele>518.0</ele><time>2026-05-01T12:21:18.5Z</time></trkpt><trkpt lat="43.4685465" lon="12.7507771"><ele>520.0</ele><time>2026-05-01T12:21:19.5Z</time></trkpt><trkpt lat="43.468554" lon="12.7505555"><ele>522.0</ele><time>2026-05-01T12:21:20.5Z</time></trkpt><trkpt lat="43.4685676" lon="12.7503255"><ele>522.6666666666666</ele><time>2026-05-01T12:21:21.5Z</time></trkpt><trkpt lat="43.4685812" lon="12.7500947"><ele>523.3333333333333</ele><time>2026-05-01T12:21:22.5Z</time></trkpt><trkpt lat="43.4686033" lon="12.7498815"><ele>524.0</ele><time>2026-05-01T12:21:23.5Z</time></trkpt><trkpt lat="43.4686615" lon="12.7496919"><ele>524.0</ele><time>2026-05-01T12:21:24.5Z</time></trkpt><trkpt lat="43.4687313" lon="12.7495173"><ele>524.0</ele><time>2026-05-01T12:21:25.5Z</time></trkpt><trkpt lat="43.4687926" lon="12.7493321"><ele>524.0</ele><time>2026-05-01T12:21:26.5Z</time></trkpt><trkpt lat="43.4688017" lon="12.7491239"><ele>524.0</ele><time>2026-05-01T12:21:27.499Z</time></trkpt><trkpt lat="43.4687628" lon="12.7489005"><ele>525.75</ele><time>2026-05-01T12:21:28.5Z</time></trkpt><trkpt lat="43.4687034" lon="12.7487001"><ele>527.5</ele><time>2026-05-01T12:21:29.499Z</time></trkpt><trkpt lat="43.4686492" lon="12.7485052"><ele>529.25</ele><time>2026-05-01T12:21:30.5Z</time></trkpt><trkpt lat="43.4686221" lon="12.7483148"><ele>531.0</ele><time>2026-05-01T12:21:31.5Z</time></trkpt><trkpt lat="43.4686369" lon="12.7481062"><ele>533.3333333333334</ele><time>2026-05-01T12:21:32.5Z</time></trkpt><trkpt lat="43.4686815" lon="12.7478867"><ele>535.6666666666667</ele><time>2026-05-01T12:21:33.5Z</time></trkpt><trkpt lat="43.4687159" lon="12.747682"><ele>538.0</ele><time>2026-05-01T12:21:34.5Z</time></trkpt><trkpt lat="43.4687573" lon="12.7474721"><ele>535.0</ele><time>2026-05-01T12:21:35.5Z</time></trkpt><trkpt lat="43.4688063" lon="12.7472648"><ele>532.0</ele><time>2026-05-01T12:21:36.5Z</time></trkpt><trkpt lat="43.4688878" lon="12.7470674"><ele>529.0</ele><time>2026-05-01T12:21:37.5Z</time></trkpt><trkpt lat="43.4690018" lon="12.7468896"><ele>527.3333333333334</ele><time>2026-05-01T12:21:38.499Z</time></trkpt><trkpt lat="43.4691305" lon="12.7467287"><ele>525.6666666666666</ele><time>2026-05-01T12:21:39.5Z</time></trkpt><trkpt lat="43.4692647" lon="12.746573"><ele>524.0</ele><time>2026-05-01T12:21:40.499Z</time></trkpt><trkpt lat="43.4694116" lon="12.7464324"><ele>524.0</ele><time>2026-05-01T12:21:41.5Z</time></trkpt><trkpt lat="43.4695496" lon="12.7462836"><ele>524.0</ele><time>2026-05-01T12:21:42.5Z</time></trkpt><trkpt lat="43.4696804" lon="12.7461293"><ele>524.0</ele><time>2026-05-01T12:21:43.5Z</time></trkpt><trkpt lat="43.4698008" lon="12.745957"><ele>525.0</ele><time>2026-05-01T12:21:44.5Z</time></trkpt><trkpt lat="43.4698979" lon="12.7457853"><ele>526.0</ele><time>2026-05-01T12:21:45.5Z</time></trkpt><trkpt lat="43.46996" lon="12.7455889"><ele>527.0</ele><time>2026-05-01T12:21:46.5Z</time></trkpt><trkpt lat="43.4700007" lon="12.7453779"><ele>526.3333333333333</ele><time>2026-05-01T12:21:47.5Z</time></trkpt><trkpt lat="43.470041" lon="12.7451816"><ele>525.6666666666666</ele><time>2026-05-01T12:21:48.5Z</time></trkpt><trkpt lat="43.4700578" lon="12.7449721"><ele>525.0</ele><time>2026-05-01T12:21:49.5Z</time></trkpt><trkpt lat="43.4700331" lon="12.7447468"><ele>525.0</ele><time>2026-05-01T12:21:50.5Z</time></trkpt><trkpt lat="43.4699805" lon="12.7445405"><ele>525.0</ele><time>2026-05-01T12:21:51.5Z</time></trkpt><trkpt lat="43.4699234" lon="12.7443545"><ele>525.0</ele><time>2026-05-01T12:21:52.5Z</time></trkpt><trkpt lat="43.4698729" lon="12.7441797"><ele>525.0</ele><time>2026-05-01T12:21:53.5Z</time></trkpt><trkpt lat="43.4698534" lon="12.7439948"><ele>524.3333333333334</ele><time>2026-05-01T12:21:54.5Z</time></trkpt><trkpt lat="43.4698579" lon="12.7437846"><ele>523.6666666666667</ele><time>2026-05-01T12:21:55.499Z</time></trkpt><trkpt lat="43.4698843" lon="12.7435738"><ele>523.0</ele><time>2026-05-01T12:21:56.5Z</time></trkpt><trkpt lat="43.4699122" lon="12.7433567"><ele>524.6666666666667</ele><time>2026-05-01T12:21:57.5Z</time></trkpt><trkpt lat="43.4699396" lon="12.7431413"><ele>526.3333333333334</ele><time>2026-05-01T12:21:58.5Z</time></trkpt><trkpt lat="43.4699486" lon="12.742935"><ele>528.0</ele><time>2026-05-01T12:21:59.5Z</time></trkpt><trkpt lat="43.4699345" lon="12.7427379"><ele>531.3333333333334</ele><time>2026-05-01T12:22:00.5Z</time></trkpt><trkpt lat="43.4698899" lon="12.7425517"><ele>534.6666666666667</ele><time>2026-05-01T12:22:01.5Z</time></trkpt><trkpt lat="43.4698057" lon="12.7423781"><ele>538.0</ele><time>2026-05-01T12:22:02.5Z</time></trkpt><trkpt lat="43.469705" lon="12.7422095"><ele>537.0</ele><time>2026-05-01T12:22:03.5Z</time></trkpt><trkpt lat="43.4695962" lon="12.742042"><ele>536.0</ele><time>2026-05-01T12:22:04.5Z</time></trkpt><trkpt lat="43.469489" lon="12.7418755"><ele>535.0</ele><time>2026-05-01T12:22:05.5Z</time></trkpt><trkpt lat="43.469387" lon="12.7417053"><ele>535.0</ele><time>2026-05-01T12:22:06.5Z</time></trkpt><trkpt lat="43.4692894" lon="12.7415351"><ele>535.0</ele><time>2026-05-01T12:22:07.5Z</time></trkpt><trkpt lat="43.469195" lon="12.7413673"><ele>535.0</ele><time>2026-05-01T12:22:08.499Z</time></trkpt><trkpt lat="43.469098" lon="12.7411921"><ele>538.0</ele><time>2026-05-01T12:22:09.5Z</time></trkpt><trkpt lat="43.4690075" lon="12.7410125"><ele>541.0</ele><time>2026-05-01T12:22:10.499Z</time></trkpt><trkpt lat="43.4689315" lon="12.7408195"><ele>544.0</ele><time>2026-05-01T12:22:11.499Z</time></trkpt><trkpt lat="43.4688613" lon="12.7406138"><ele>544.0</ele><time>2026-05-01T12:22:12.5Z</time></trkpt><trkpt lat="43.4688004" lon="12.740407"><ele>544.0</ele><time>2026-05-01T12:22:13.5Z</time></trkpt><trkpt lat="43.4687378" lon="12.7402016"><ele>544.0</ele><time>2026-05-01T12:22:14.5Z</time></trkpt><trkpt lat="43.4686747" lon="12.7399995"><ele>541.6666666666667</ele><time>2026-05-01T12:22:15.499Z</time></trkpt><trkpt lat="43.4685934" lon="12.7398115"><ele>539.3333333333334</ele><time>2026-05-01T12:22:16.499Z</time></trkpt><trkpt lat="43.4684805" lon="12.739652"><ele>537.0</ele><time>2026-05-01T12:22:17.5Z</time></trkpt><trkpt lat="43.4683504" lon="12.7395291"><ele>537.0</ele><time>2026-05-01T12:22:18.499Z</time></trkpt><trkpt lat="43.4682223" lon="12.7394135"><ele>537.0</ele><time>2026-05-01T12:22:19.5Z</time></trkpt><trkpt lat="43.4681092" lon="12.7392853"><ele>537.0</ele><time>2026-05-01T12:22:20.5Z</time></trkpt><trkpt lat="43.4680161" lon="12.7391271"><ele>537.0</ele><time>2026-05-01T12:22:21.499Z</time></trkpt><trkpt lat="43.4679582" lon="12.7389298"><ele>540.6666666666666</ele><time>2026-05-01T12:22:22.5Z</time></trkpt><trkpt lat="43.4679308" lon="12.7387166"><ele>544.3333333333333</ele><time>2026-05-01T12:22:23.5Z</time></trkpt><trkpt lat="43.4679231" lon="12.7385083"><ele>548.0</ele><time>2026-05-01T12:22:24.5Z</time></trkpt><trkpt lat="43.4679163" lon="12.7383122"><ele>548.0</ele><time>2026-05-01T12:22:25.5Z</time></trkpt><trkpt lat="43.4678842" lon="12.7381248"><ele>548.0</ele><time>2026-05-01T12:22:26.5Z</time></trkpt><trkpt lat="43.4678258" lon="12.7379394"><ele>548.0</ele><time>2026-05-01T12:22:27.5Z</time></trkpt><trkpt lat="43.4677424" lon="12.7377555"><ele>548.0</ele><time>2026-05-01T12:22:28.5Z</time></trkpt><trkpt lat="43.467637" lon="12.7375974"><ele>547.6666666666666</ele><time>2026-05-01T12:22:29.5Z</time></trkpt><trkpt lat="43.4675231" lon="12.7374587"><ele>547.3333333333334</ele><time>2026-05-01T12:22:30.499Z</time></trkpt><trkpt lat="43.4673985" lon="12.7373246"><ele>547.0</ele><time>2026-05-01T12:22:31.499Z</time></trkpt><trkpt lat="43.4672748" lon="12.7371937"><ele>547.0</ele><time>2026-05-01T12:22:32.5Z</time></trkpt><trkpt lat="43.4671536" lon="12.7370637"><ele>547.0</ele><time>2026-05-01T12:22:33.499Z</time></trkpt><trkpt lat="43.4670366" lon="12.7369339"><ele>547.0</ele><time>2026-05-01T12:22:34.5Z</time></trkpt><trkpt lat="43.4669145" lon="12.7368117"><ele>549.3333333333334</ele><time>2026-05-01T12:22:35.5Z</time></trkpt><trkpt lat="43.4667901" lon="12.7366893"><ele>551.6666666666666</ele><time>2026-05-01T12:22:36.5Z</time></trkpt><trkpt lat="43.466676" lon="12.7365519"><ele>554.0</ele><time>2026-05-01T12:22:37.5Z</time></trkpt><trkpt lat="43.4665691" lon="12.7364087"><ele>554.0</ele><time>2026-05-01T12:22:38.5Z</time></trkpt><trkpt lat="43.4664944" lon="12.736245"><ele>554.0</ele><time>2026-05-01T12:22:39.499Z</time></trkpt><trkpt lat="43.4664594" lon="12.7360737"><ele>554.0</ele><time>2026-05-01T12:22:40.5Z</time></trkpt><trkpt lat="43.4664608" lon="12.735896"><ele>554.0</ele><time>2026-05-01T12:22:41.5Z</time></trkpt><trkpt lat="43.4665035" lon="12.7357286"><ele>556.5</ele><time>2026-05-01T12:22:42.5Z</time></trkpt><trkpt lat="43.4665625" lon="12.7355571"><ele>559.0</ele><time>2026-05-01T12:22:43.5Z</time></trkpt><trkpt lat="43.4665961" lon="12.7353907"><ele>561.5</ele><time>2026-05-01T12:22:44.499Z</time></trkpt><trkpt lat="43.4666004" lon="12.7352045"><ele>564.0</ele><time>2026-05-01T12:22:45.5Z</time></trkpt><trkpt lat="43.4665715" lon="12.7350121"><ele>566.5</ele><time>2026-05-01T12:22:46.5Z</time></trkpt><trkpt lat="43.4665259" lon="12.7348425"><ele>569.0</ele><time>2026-05-01T12:22:47.5Z</time></trkpt><trkpt lat="43.4664359" lon="12.7347048"><ele>571.5</ele><time>2026-05-01T12:22:48.5Z</time></trkpt><trkpt lat="43.4663235" lon="12.7346138"><ele>574.0</ele><time>2026-05-01T12:22:49.5Z</time></trkpt><trkpt lat="43.4661996" lon="12.7345564"><ele>574.0</ele><time>2026-05-01T12:22:50.499Z</time></trkpt><trkpt lat="43.4660995" lon="12.7345008"><ele>574.0</ele><time>2026-05-01T12:22:51.5Z</time></trkpt><trkpt lat="43.4660367" lon="12.7344351"><ele>574.0</ele><time>2026-05-01T12:22:52.5Z</time></trkpt><trkpt lat="43.4659923" lon="12.7343469"><ele>574.0</ele><time>2026-05-01T12:22:53.5Z</time></trkpt><trkpt lat="43.4660194" lon="12.7342255"><ele>574.0</ele><time>2026-05-01T12:22:54.5Z</time></trkpt><trkpt lat="43.4660726" lon="12.7341001"><ele>575.75</ele><time>2026-05-01T12:22:55.5Z</time></trkpt><trkpt lat="43.4661314" lon="12.7339854"><ele>577.5</ele><time>2026-05-01T12:22:56.5Z</time></trkpt><trkpt lat="43.4662025" lon="12.7338588"><ele>579.25</ele><time>2026-05-01T12:22:57.5Z</time></trkpt><trkpt lat="43.4662841" lon="12.7337223"><ele>581.0</ele><time>2026-05-01T12:22:58.5Z</time></trkpt><trkpt lat="43.4663544" lon="12.7335784"><ele>580.5</ele><time>2026-05-01T12:22:59.5Z</time></trkpt><trkpt lat="43.4664262" lon="12.733432"><ele>580.0</ele><time>2026-05-01T12:23:00.5Z</time></trkpt><trkpt lat="43.4665122" lon="12.7332918"><ele>579.5</ele><time>2026-05-01T12:23:01.499Z</time></trkpt><trkpt lat="43.4666099" lon="12.7331726"><ele>579.0</ele><time>2026-05-01T12:23:02.5Z</time></trkpt><trkpt lat="43.4667205" lon="12.7330748"><ele>579.0</ele><time>2026-05-01T12:23:03.499Z</time></trkpt><trkpt lat="43.4668332" lon="12.7329997"><ele>579.0</ele><time>2026-05-01T12:23:04.499Z</time></trkpt><trkpt lat="43.4669513" lon="12.7329282"><ele>579.0</ele><time>2026-05-01T12:23:05.499Z</time></trkpt><trkpt lat="43.4670707" lon="12.7328458"><ele>579.0</ele><time>2026-05-01T12:23:06.5Z</time></trkpt><trkpt lat="43.4671618" lon="12.7327289"><ele>582.75</ele><time>2026-05-01T12:23:07.5Z</time></trkpt><trkpt lat="43.4672362" lon="12.7325467"><ele>586.5</ele><time>2026-05-01T12:23:08.499Z</time></trkpt><trkpt lat="43.4673052" lon="12.7323796"><ele>590.25</ele><time>2026-05-01T12:23:09.499Z</time></trkpt><trkpt lat="43.4673776" lon="12.7322032"><ele>594.0</ele><time>2026-05-01T12:23:10.499Z</time></trkpt><trkpt lat="43.4674603" lon="12.7320301"><ele>595.0</ele><time>2026-05-01T12:23:11.5Z</time></trkpt><trkpt lat="43.4675538" lon="12.7318688"><ele>596.0</ele><time>2026-05-01T12:23:12.499Z</time></trkpt><trkpt lat="43.4676591" lon="12.7317159"><ele>597.0</ele><time>2026-05-01T12:23:13.499Z</time></trkpt><trkpt lat="43.4677622" lon="12.7315611"><ele>597.0</ele><time>2026-05-01T12:23:14.5Z</time></trkpt><trkpt lat="43.467876" lon="12.7314058"><ele>597.0</ele><time>2026-05-01T12:23:15.499Z</time></trkpt><trkpt lat="43.4679953" lon="12.731253"><ele>597.0</ele><time>2026-05-01T12:23:16.5Z</time></trkpt><trkpt lat="43.4681194" lon="12.731099"><ele>598.3333333333334</ele><time>2026-05-01T12:23:17.5Z</time></trkpt><trkpt lat="43.4682559" lon="12.7309318"><ele>599.6666666666667</ele><time>2026-05-01T12:23:18.5Z</time></trkpt><trkpt lat="43.4684051" lon="12.7307477"><ele>601.0</ele><time>2026-05-01T12:23:19.499Z</time></trkpt><trkpt lat="43.4685469" lon="12.7305449"><ele>601.0</ele><time>2026-05-01T12:23:20.5Z</time></trkpt><trkpt lat="43.4686836" lon="12.7303617"><ele>601.0</ele><time>2026-05-01T12:23:21.5Z</time></trkpt><trkpt lat="43.4688052" lon="12.7302034"><ele>601.0</ele><time>2026-05-01T12:23:22.5Z</time></trkpt><trkpt lat="43.4689355" lon="12.7300905"><ele>603.6666666666667</ele><time>2026-05-01T12:23:23.5Z</time></trkpt><trkpt lat="43.4690788" lon="12.7300025"><ele>606.3333333333334</ele><time>2026-05-01T12:23:24.499Z</time></trkpt><trkpt lat="43.4692332" lon="12.7299424"><ele>609.0</ele><time>2026-05-01T12:23:25.5Z</time></trkpt><trkpt lat="43.4693843" lon="12.7298964"><ele>609.0</ele><time>2026-05-01T12:23:26.5Z</time></trkpt><trkpt lat="43.4695361" lon="12.72986"><ele>609.0</ele><time>2026-05-01T12:23:27.5Z</time></trkpt><trkpt lat="43.4696651" lon="12.7297846"><ele>609.0</ele><time>2026-05-01T12:23:28.5Z</time></trkpt><trkpt lat="43.469784" lon="12.7296721"><ele>609.0</ele><time>2026-05-01T12:23:29.5Z</time></trkpt><trkpt lat="43.4698902" lon="12.7295519"><ele>613.0</ele><time>2026-05-01T12:23:30.499Z</time></trkpt><trkpt lat="43.4699793" lon="12.7294326"><ele>617.0</ele><time>2026-05-01T12:23:31.5Z</time></trkpt><trkpt lat="43.4700706" lon="12.7293282"><ele>621.0</ele><time>2026-05-01T12:23:32.499Z</time></trkpt><trkpt lat="43.4701826" lon="12.7292356"><ele>625.0</ele><time>2026-05-01T12:23:33.499Z</time></trkpt><trkpt lat="43.4702826" lon="12.7291762"><ele>625.0</ele><time>2026-05-01T12:23:34.5Z</time></trkpt><trkpt lat="43.4703458" lon="12.7291011"><ele>625.0</ele><time>2026-05-01T12:23:35.499Z</time></trkpt><trkpt lat="43.4704145" lon="12.7290124"><ele>625.0</ele><time>2026-05-01T12:23:36.499Z</time></trkpt><trkpt lat="43.470433" lon="12.7289026"><ele>625.0</ele><time>2026-05-01T12:23:37.5Z</time></trkpt><trkpt lat="43.4703861" lon="12.728791"><ele>625.0</ele><time>2026-05-01T12:23:38.499Z</time></trkpt><trkpt lat="43.4702687" lon="12.7287077"><ele>625.0</ele><time>2026-05-01T12:23:39.5Z</time></trkpt><trkpt lat="43.4701282" lon="12.7287043"><ele>625.0</ele><time>2026-05-01T12:23:40.499Z</time></trkpt><trkpt lat="43.4700141" lon="12.7287876"><ele>625.0</ele><time>2026-05-01T12:23:41.5Z</time></trkpt><trkpt lat="43.4699061" lon="12.7288936"><ele>625.0</ele><time>2026-05-01T12:23:42.5Z</time></trkpt><trkpt lat="43.4698171" lon="12.729008"><ele>625.0</ele><time>2026-05-01T12:23:43.499Z</time></trkpt><trkpt lat="43.4697339" lon="12.7291261"><ele>625.0</ele><time>2026-05-01T12:23:44.5Z</time></trkpt><trkpt lat="43.469659" lon="12.7292464"><ele>625.0</ele><time>2026-05-01T12:23:45.5Z</time></trkpt><trkpt lat="43.4695695" lon="12.7293339"><ele>625.0</ele><time>2026-05-01T12:23:46.5Z</time></trkpt><trkpt lat="43.4694692" lon="12.7293481"><ele>625.0</ele><time>2026-05-01T12:23:47.5Z</time></trkpt><trkpt lat="43.469374" lon="12.7292888"><ele>624.4</ele><time>2026-05-01T12:23:48.499Z</time></trkpt><trkpt lat="43.4692846" lon="12.7291973"><ele>623.8</ele><time>2026-05-01T12:23:49.5Z</time></trkpt><trkpt lat="43.4691895" lon="12.7290926"><ele>623.2</ele><time>2026-05-01T12:23:50.5Z</time></trkpt><trkpt lat="43.4690981" lon="12.7290066"><ele>622.6</ele><time>2026-05-01T12:23:51.5Z</time></trkpt><trkpt lat="43.4690202" lon="12.7289206"><ele>622.0</ele><time>2026-05-01T12:23:52.499Z</time></trkpt><trkpt lat="43.468966" lon="12.7288229"><ele>622.0</ele><time>2026-05-01T12:23:53.5Z</time></trkpt><trkpt lat="43.4689517" lon="12.7286996"><ele>622.0</ele><time>2026-05-01T12:23:54.5Z</time></trkpt><trkpt lat="43.4689774" lon="12.7285748"><ele>622.0</ele><time>2026-05-01T12:23:55.5Z</time></trkpt><trkpt lat="43.4690299" lon="12.7285081"><ele>622.0</ele><time>2026-05-01T12:23:56.5Z</time></trkpt><trkpt lat="43.4691268" lon="12.7285059"><ele>622.0</ele><time>2026-05-01T12:23:57.5Z</time></trkpt><trkpt lat="43.4692262" lon="12.7285449"><ele>622.0</ele><time>2026-05-01T12:23:58.5Z</time></trkpt><trkpt lat="43.4693165" lon="12.7286331"><ele>622.0</ele><time>2026-05-01T12:23:59.5Z</time></trkpt><trkpt lat="43.4693893" lon="12.7287231"><ele>622.0</ele><time>2026-05-01T12:24:00.5Z</time></trkpt><trkpt lat="43.4694623" lon="12.7287961"><ele>622.0</ele><time>2026-05-01T12:24:01.5Z</time></trkpt><trkpt lat="43.4695445" lon="12.7287987"><ele>622.0</ele><time>2026-05-01T12:24:02.5Z</time></trkpt><trkpt lat="43.4696309" lon="12.7287295"><ele>622.6</ele><time>2026-05-01T12:24:03.499Z</time></trkpt><trkpt lat="43.4696827" lon="12.728633"><ele>623.2</ele><time>2026-05-01T12:24:04.5Z</time></trkpt><trkpt lat="43.4696873" lon="12.728494"><ele>623.8</ele><time>2026-05-01T12:24:05.5Z</time></trkpt><trkpt lat="43.4696413" lon="12.7283646"><ele>624.4</ele><time>2026-05-01T12:24:06.499Z</time></trkpt><trkpt lat="43.4695657" lon="12.728258"><ele>625.0</ele><time>2026-05-01T12:24:07.499Z</time></trkpt><trkpt lat="43.4694841" lon="12.728161"><ele>629.0</ele><time>2026-05-01T12:24:08.499Z</time></trkpt><trkpt lat="43.4693854" lon="12.7280687"><ele>633.0</ele><time>2026-05-01T12:24:09.5Z</time></trkpt><trkpt lat="43.4692706" lon="12.7279872"><ele>637.0</ele><time>2026-05-01T12:24:10.499Z</time></trkpt><trkpt lat="43.4691637" lon="12.7278905"><ele>641.0</ele><time>2026-05-01T12:24:11.499Z</time></trkpt><trkpt lat="43.4690566" lon="12.7277887"><ele>644.75</ele><time>2026-05-01T12:24:12.499Z</time></trkpt><trkpt lat="43.4689522" lon="12.727687"><ele>648.5</ele><time>2026-05-01T12:24:13.5Z</time></trkpt><trkpt lat="43.468855" lon="12.727586"><ele>652.25</ele><time>2026-05-01T12:24:14.5Z</time></trkpt><trkpt lat="43.4687796" lon="12.727473"><ele>656.0</ele><time>2026-05-01T12:24:15.5Z</time></trkpt><trkpt lat="43.4687446" lon="12.7273479"><ele>656.0</ele><time>2026-05-01T12:24:16.5Z</time></trkpt><trkpt lat="43.4687476" lon="12.7272327"><ele>656.0</ele><time>2026-05-01T12:24:17.5Z</time></trkpt><trkpt lat="43.4688034" lon="12.7271539"><ele>656.0</ele><time>2026-05-01T12:24:18.5Z</time></trkpt><trkpt lat="43.468893" lon="12.7271256"><ele>656.0</ele><time>2026-05-01T12:24:19.5Z</time></trkpt><trkpt lat="43.4690001" lon="12.7271469"><ele>656.0</ele><time>2026-05-01T12:24:20.5Z</time></trkpt><trkpt lat="43.4691194" lon="12.7272038"><ele>656.0</ele><time>2026-05-01T12:24:21.499Z</time></trkpt><trkpt lat="43.4692227" lon="12.7272674"><ele>656.0</ele><time>2026-05-01T12:24:22.5Z</time></trkpt><trkpt lat="43.4693364" lon="12.7272839"><ele>656.0</ele><time>2026-05-01T12:24:23.5Z</time></trkpt><trkpt lat="43.4694516" lon="12.7272836"><ele>656.0</ele><time>2026-05-01T12:24:24.499Z</time></trkpt><trkpt lat="43.4695642" lon="12.7272622"><ele>657.0</ele><time>2026-05-01T12:24:25.5Z</time></trkpt><trkpt lat="43.4696864" lon="12.7272383"><ele>658.0</ele><time>2026-05-01T12:24:26.499Z</time></trkpt><trkpt lat="43.4698139" lon="12.7272081"><ele>659.0</ele><time>2026-05-01T12:24:27.5Z</time></trkpt><trkpt lat="43.4699407" lon="12.7271805"><ele>660.0</ele><time>2026-05-01T12:24:28.5Z</time></trkpt><trkpt lat="43.4700448" lon="12.7271217"><ele>660.0</ele><time>2026-05-01T12:24:29.499Z</time></trkpt><trkpt lat="43.470125" lon="12.7270133"><ele>660.0</ele><time>2026-05-01T12:24:30.499Z</time></trkpt><trkpt lat="43.4702007" lon="12.7268947"><ele>660.0</ele><time>2026-05-01T12:24:31.5Z</time></trkpt><trkpt lat="43.4702487" lon="12.7267471"><ele>660.0</ele><time>2026-05-01T12:24:32.5Z</time></trkpt><trkpt lat="43.4702979" lon="12.7266004"><ele>662.8</ele><time>2026-05-01T12:24:33.5Z</time></trkpt><trkpt lat="43.4703281" lon="12.7264377"><ele>665.6</ele><time>2026-05-01T12:24:34.5Z</time></trkpt><trkpt lat="43.4703479" lon="12.7262704"><ele>668.4000000000001</ele><time>2026-05-01T12:24:35.5Z</time></trkpt><trkpt lat="43.4703671" lon="12.7261293"><ele>671.2</ele><time>2026-05-01T12:24:36.499Z</time></trkpt><trkpt lat="43.4703866" lon="12.7260129"><ele>674.0</ele><time>2026-05-01T12:24:37.5Z</time></trkpt><trkpt lat="43.4704043" lon="12.7259082"><ele>678.6</ele><time>2026-05-01T12:24:38.5Z</time></trkpt><trkpt lat="43.4704098" lon="12.7258201"><ele>683.2</ele><time>2026-05-01T12:24:39.5Z</time></trkpt><trkpt lat="43.4704028" lon="12.7256951"><ele>687.8000000000001</ele><time>2026-05-01T12:24:41.5Z</time></trkpt><trkpt lat="43.4703032" lon="12.7257056"><ele>692.4000000000001</ele><time>2026-05-01T12:24:43.499Z</time></trkpt><trkpt lat="43.4702573" lon="12.7258654"><ele>697.0</ele><time>2026-05-01T12:24:45.5Z</time></trkpt><trkpt lat="43.4702581" lon="12.7259919"><ele>693.1666666666667</ele><time>2026-05-01T12:24:46.499Z</time></trkpt><trkpt lat="43.4702543" lon="12.7261093"><ele>689.3333333333334</ele><time>2026-05-01T12:24:47.499Z</time></trkpt><trkpt lat="43.4702394" lon="12.7262301"><ele>685.5</ele><time>2026-05-01T12:24:48.5Z</time></trkpt><trkpt lat="43.470212" lon="12.7263461"><ele>681.6666666666666</ele><time>2026-05-01T12:24:49.499Z</time></trkpt><trkpt lat="43.4701556" lon="12.7264343"><ele>677.8333333333333</ele><time>2026-05-01T12:24:50.5Z</time></trkpt><trkpt lat="43.4700798" lon="12.7265049"><ele>674.0</ele><time>2026-05-01T12:24:51.499Z</time></trkpt><trkpt lat="43.4699808" lon="12.726568"><ele>674.0</ele><time>2026-05-01T12:24:52.5Z</time></trkpt><trkpt lat="43.4698617" lon="12.7266152"><ele>674.0</ele><time>2026-05-01T12:24:53.5Z</time></trkpt><trkpt lat="43.4697445" lon="12.726668"><ele>674.0</ele><time>2026-05-01T12:24:54.5Z</time></trkpt><trkpt lat="43.4696153" lon="12.7267117"><ele>674.0</ele><time>2026-05-01T12:24:55.5Z</time></trkpt><trkpt lat="43.4694924" lon="12.7267557"><ele>676.0</ele><time>2026-05-01T12:24:56.5Z</time></trkpt><trkpt lat="43.4693711" lon="12.726811"><ele>678.0</ele><time>2026-05-01T12:24:57.5Z</time></trkpt><trkpt lat="43.4692652" lon="12.7268614"><ele>680.0</ele><time>2026-05-01T12:24:58.499Z</time></trkpt><trkpt lat="43.4691709" lon="12.7268854"><ele>682.0</ele><time>2026-05-01T12:24:59.499Z</time></trkpt><trkpt lat="43.4690883" lon="12.7268435"><ele>684.0</ele><time>2026-05-01T12:25:00.499Z</time></trkpt><trkpt lat="43.4690067" lon="12.7267662"><ele>684.0</ele><time>2026-05-01T12:25:01.5Z</time></trkpt><trkpt lat="43.4689475" lon="12.7266635"><ele>684.0</ele><time>2026-05-01T12:25:02.5Z</time></trkpt><trkpt lat="43.4688796" lon="12.7265638"><ele>684.0</ele><time>2026-05-01T12:25:03.5Z</time></trkpt><trkpt lat="43.4688064" lon="12.7264569"><ele>684.0</ele><time>2026-05-01T12:25:04.5Z</time></trkpt><trkpt lat="43.4687187" lon="12.7263727"><ele>684.0</ele><time>2026-05-01T12:25:05.5Z</time></trkpt><trkpt lat="43.4686324" lon="12.7263017"><ele>685.3333333333334</ele><time>2026-05-01T12:25:06.5Z</time></trkpt><trkpt lat="43.4685579" lon="12.7262492"><ele>686.6666666666666</ele><time>2026-05-01T12:25:07.499Z</time></trkpt><trkpt lat="43.4684877" lon="12.7261967"><ele>688.0</ele><time>2026-05-01T12:25:08.5Z</time></trkpt><trkpt lat="43.4684167" lon="12.7261655"><ele>689.3333333333333</ele><time>2026-05-01T12:25:09.499Z</time></trkpt><trkpt lat="43.4683428" lon="12.7261629"><ele>690.6666666666666</ele><time>2026-05-01T12:25:10.5Z</time></trkpt><trkpt lat="43.468277" lon="12.7261723"><ele>692.0</ele><time>2026-05-01T12:25:11.499Z</time></trkpt><trkpt lat="43.4681572" lon="12.7262315"><ele>692.0</ele><time>2026-05-01T12:25:13.499Z</time></trkpt><trkpt lat="43.4680939" lon="12.7262881"><ele>692.0</ele><time>2026-05-01T12:25:14.5Z</time></trkpt><trkpt lat="43.4680314" lon="12.7263707"><ele>692.0</ele><time>2026-05-01T12:25:15.5Z</time></trkpt><trkpt lat="43.4679991" lon="12.7264707"><ele>692.0</ele><time>2026-05-01T12:25:16.5Z</time></trkpt><trkpt lat="43.4679806" lon="12.7265691"><ele>692.0</ele><time>2026-05-01T12:25:17.5Z</time></trkpt><trkpt lat="43.4679956" lon="12.7266907"><ele>692.0</ele><time>2026-05-01T12:25:18.5Z</time></trkpt><trkpt lat="43.4680221" lon="12.7267947"><ele>692.0</ele><time>2026-05-01T12:25:19.5Z</time></trkpt><trkpt lat="43.468066" lon="12.7268902"><ele>692.0</ele><time>2026-05-01T12:25:20.5Z</time></trkpt><trkpt lat="43.4681069" lon="12.7269825"><ele>692.0</ele><time>2026-05-01T12:25:21.5Z</time></trkpt><trkpt lat="43.4681327" lon="12.7270889"><ele>692.0</ele><time>2026-05-01T12:25:22.499Z</time></trkpt><trkpt lat="43.4681466" lon="12.7272108"><ele>692.0</ele><time>2026-05-01T12:25:23.5Z</time></trkpt><trkpt lat="43.4681651" lon="12.7273369"><ele>692.0</ele><time>2026-05-01T12:25:24.5Z</time></trkpt><trkpt lat="43.4681869" lon="12.7274668"><ele>691.0</ele><time>2026-05-01T12:25:25.499Z</time></trkpt><trkpt lat="43.4682007" lon="12.7275958"><ele>690.0</ele><time>2026-05-01T12:25:26.5Z</time></trkpt><trkpt lat="43.4682126" lon="12.7277268"><ele>689.0</ele><time>2026-05-01T12:25:27.5Z</time></trkpt><trkpt lat="43.4682224" lon="12.7278496"><ele>688.0</ele><time>2026-05-01T12:25:28.5Z</time></trkpt><trkpt lat="43.4682237" lon="12.7279781"><ele>687.0</ele><time>2026-05-01T12:25:29.5Z</time></trkpt><trkpt lat="43.4682061" lon="12.728114"><ele>686.6</ele><time>2026-05-01T12:25:30.499Z</time></trkpt><trkpt lat="43.4681771" lon="12.728259"><ele>686.2</ele><time>2026-05-01T12:25:31.5Z</time></trkpt><trkpt lat="43.4681406" lon="12.7284053"><ele>685.8</ele><time>2026-05-01T12:25:32.5Z</time></trkpt><trkpt lat="43.468108" lon="12.7285517"><ele>685.4</ele><time>2026-05-01T12:25:33.499Z</time></trkpt><trkpt lat="43.4680771" lon="12.7286954"><ele>685.0</ele><time>2026-05-01T12:25:34.5Z</time></trkpt><trkpt lat="43.4680562" lon="12.7288365"><ele>683.3333333333334</ele><time>2026-05-01T12:25:35.5Z</time></trkpt><trkpt lat="43.4680406" lon="12.7289681"><ele>681.6666666666667</ele><time>2026-05-01T12:25:36.5Z</time></trkpt><trkpt lat="43.46802" lon="12.7290764"><ele>680.0</ele><time>2026-05-01T12:25:37.5Z</time></trkpt><trkpt lat="43.4679849" lon="12.7291681"><ele>678.3333333333334</ele><time>2026-05-01T12:25:38.5Z</time></trkpt><trkpt lat="43.4679347" lon="12.7292709"><ele>676.6666666666666</ele><time>2026-05-01T12:25:39.499Z</time></trkpt><trkpt lat="43.4678653" lon="12.7293672"><ele>675.0</ele><time>2026-05-01T12:25:40.5Z</time></trkpt><trkpt lat="43.4677899" lon="12.7294475"><ele>675.0</ele><time>2026-05-01T12:25:41.499Z</time></trkpt><trkpt lat="43.467711" lon="12.7295099"><ele>675.0</ele><time>2026-05-01T12:25:42.5Z</time></trkpt><trkpt lat="43.4676257" lon="12.729565"><ele>675.0</ele><time>2026-05-01T12:25:43.5Z</time></trkpt><trkpt lat="43.467528" lon="12.7296084"><ele>675.0</ele><time>2026-05-01T12:25:44.499Z</time></trkpt><trkpt lat="43.4674222" lon="12.7296503"><ele>675.0</ele><time>2026-05-01T12:25:45.499Z</time></trkpt><trkpt lat="43.4673177" lon="12.7296959"><ele>675.0</ele><time>2026-05-01T12:25:46.499Z</time></trkpt><trkpt lat="43.4672121" lon="12.72975"><ele>675.0</ele><time>2026-05-01T12:25:47.5Z</time></trkpt><trkpt lat="43.4671069" lon="12.7298184"><ele>675.0</ele><time>2026-05-01T12:25:48.499Z</time></trkpt><trkpt lat="43.4670093" lon="12.7299001"><ele>675.0</ele><time>2026-05-01T12:25:49.5Z</time></trkpt><trkpt lat="43.4669136" lon="12.7299855"><ele>676.2</ele><time>2026-05-01T12:25:50.499Z</time></trkpt><trkpt lat="43.4668243" lon="12.7300725"><ele>677.4</ele><time>2026-05-01T12:25:51.5Z</time></trkpt><trkpt lat="43.4667427" lon="12.730163"><ele>678.5999999999999</ele><time>2026-05-01T12:25:52.5Z</time></trkpt><trkpt lat="43.4666634" lon="12.7302547"><ele>679.8</ele><time>2026-05-01T12:25:53.5Z</time></trkpt><trkpt lat="43.4665823" lon="12.7303461"><ele>681.0</ele><time>2026-05-01T12:25:54.5Z</time></trkpt><trkpt lat="43.4665061" lon="12.7304316"><ele>681.0</ele><time>2026-05-01T12:25:55.5Z</time></trkpt><trkpt lat="43.4664325" lon="12.7305071"><ele>681.0</ele><time>2026-05-01T12:25:56.499Z</time></trkpt><trkpt lat="43.4663521" lon="12.7305956"><ele>681.0</ele><time>2026-05-01T12:25:57.5Z</time></trkpt><trkpt lat="43.4662669" lon="12.7306901"><ele>681.0</ele><time>2026-05-01T12:25:58.499Z</time></trkpt><trkpt lat="43.466186" lon="12.7307833"><ele>681.0</ele><time>2026-05-01T12:25:59.5Z</time></trkpt><trkpt lat="43.4661116" lon="12.7308795"><ele>680.8</ele><time>2026-05-01T12:26:00.499Z</time></trkpt><trkpt lat="43.4660397" lon="12.7309694"><ele>680.5999999999999</ele><time>2026-05-01T12:26:01.5Z</time></trkpt><trkpt lat="43.4659701" lon="12.7310502"><ele>680.4</ele><time>2026-05-01T12:26:02.5Z</time></trkpt><trkpt lat="43.4659078" lon="12.7311294"><ele>680.2</ele><time>2026-05-01T12:26:03.5Z</time></trkpt><trkpt lat="43.46585" lon="12.7311863"><ele>680.0</ele><time>2026-05-01T12:26:04.499Z</time></trkpt><trkpt lat="43.4657431" lon="12.7312095"><ele>680.0</ele><time>2026-05-01T12:26:06.5Z</time></trkpt><trkpt lat="43.4656467" lon="12.731125"><ele>680.0</ele><time>2026-05-01T12:26:08.5Z</time></trkpt><trkpt lat="43.4656088" lon="12.7310521"><ele>680.0</ele><time>2026-05-01T12:26:09.5Z</time></trkpt><trkpt lat="43.4655861" lon="12.7309672"><ele>680.0</ele><time>2026-05-01T12:26:10.499Z</time></trkpt><trkpt lat="43.4655708" lon="12.7308785"><ele>680.0</ele><time>2026-05-01T12:26:11.5Z</time></trkpt><trkpt lat="43.465568" lon="12.7307725"><ele>680.0</ele><time>2026-05-01T12:26:12.5Z</time></trkpt><trkpt lat="43.4655713" lon="12.7306564"><ele>685.4</ele><time>2026-05-01T12:26:13.5Z</time></trkpt><trkpt lat="43.4655644" lon="12.7305346"><ele>690.8</ele><time>2026-05-01T12:26:14.5Z</time></trkpt><trkpt lat="43.46554" lon="12.7304049"><ele>696.2</ele><time>2026-05-01T12:26:15.5Z</time></trkpt><trkpt lat="43.4655062" lon="12.7302727"><ele>701.6</ele><time>2026-05-01T12:26:16.5Z</time></trkpt><trkpt lat="43.465469" lon="12.730139"><ele>707.0</ele><time>2026-05-01T12:26:17.5Z</time></trkpt><trkpt lat="43.4654255" lon="12.7300067"><ele>707.0</ele><time>2026-05-01T12:26:18.5Z</time></trkpt><trkpt lat="43.4653699" lon="12.7298693"><ele>707.0</ele><time>2026-05-01T12:26:19.5Z</time></trkpt><trkpt lat="43.4652976" lon="12.7297374"><ele>707.0</ele><time>2026-05-01T12:26:20.5Z</time></trkpt><trkpt lat="43.4652167" lon="12.7296254"><ele>707.0</ele><time>2026-05-01T12:26:21.5Z</time></trkpt><trkpt lat="43.4651372" lon="12.7295231"><ele>707.0</ele><time>2026-05-01T12:26:22.499Z</time></trkpt><trkpt lat="43.4650617" lon="12.7294159"><ele>707.0</ele><time>2026-05-01T12:26:23.499Z</time></trkpt><trkpt lat="43.4649961" lon="12.7293001"><ele>707.0</ele><time>2026-05-01T12:26:24.5Z</time></trkpt><trkpt lat="43.464945" lon="12.7291817"><ele>707.0</ele><time>2026-05-01T12:26:25.499Z</time></trkpt><trkpt lat="43.4648976" lon="12.7290569"><ele>707.0</ele><time>2026-05-01T12:26:26.5Z</time></trkpt><trkpt lat="43.4648409" lon="12.7289374"><ele>713.0</ele><time>2026-05-01T12:26:27.5Z</time></trkpt><trkpt lat="43.4647765" lon="12.7288213"><ele>719.0</ele><time>2026-05-01T12:26:28.499Z</time></trkpt><trkpt lat="43.4647085" lon="12.7287051"><ele>725.0</ele><time>2026-05-01T12:26:29.5Z</time></trkpt><trkpt lat="43.4646323" lon="12.7285941"><ele>731.0</ele><time>2026-05-01T12:26:30.5Z</time></trkpt><trkpt lat="43.464556" lon="12.7284906"><ele>737.0</ele><time>2026-05-01T12:26:31.5Z</time></trkpt><trkpt lat="43.4644748" lon="12.7283917"><ele>738.4000000000001</ele><time>2026-05-01T12:26:32.5Z</time></trkpt><trkpt lat="43.4643852" lon="12.7283008"><ele>739.8000000000001</ele><time>2026-05-01T12:26:33.5Z</time></trkpt><trkpt lat="43.4642954" lon="12.728221"><ele>741.2</ele><time>2026-05-01T12:26:34.5Z</time></trkpt><trkpt lat="43.4642007" lon="12.7281705"><ele>742.6</ele><time>2026-05-01T12:26:35.5Z</time></trkpt><trkpt lat="43.4641052" lon="12.7281564"><ele>744.0</ele><time>2026-05-01T12:26:36.5Z</time></trkpt><trkpt lat="43.4640014" lon="12.7281717"><ele>744.0</ele><time>2026-05-01T12:26:37.5Z</time></trkpt><trkpt lat="43.4638928" lon="12.7282011"><ele>744.0</ele><time>2026-05-01T12:26:38.5Z</time></trkpt><trkpt lat="43.4637774" lon="12.7282325"><ele>744.0</ele><time>2026-05-01T12:26:39.499Z</time></trkpt><trkpt lat="43.4636643" lon="12.7282638"><ele>744.0</ele><time>2026-05-01T12:26:40.5Z</time></trkpt><trkpt lat="43.4635495" lon="12.7283036"><ele>747.0</ele><time>2026-05-01T12:26:41.5Z</time></trkpt><trkpt lat="43.4634328" lon="12.7283472"><ele>750.0</ele><time>2026-05-01T12:26:42.5Z</time></trkpt><trkpt lat="43.4633175" lon="12.7283968"><ele>753.0</ele><time>2026-05-01T12:26:43.5Z</time></trkpt><trkpt lat="43.463206" lon="12.7284485"><ele>756.0</ele><time>2026-05-01T12:26:44.5Z</time></trkpt><trkpt lat="43.4631048" lon="12.7285117"><ele>751.5999999999999</ele><time>2026-05-01T12:26:45.499Z</time></trkpt><trkpt lat="43.4630122" lon="12.728582"><ele>747.2</ele><time>2026-05-01T12:26:46.5Z</time></trkpt><trkpt lat="43.4629347" lon="12.7286653"><ele>742.8</ele><time>2026-05-01T12:26:47.5Z</time></trkpt><trkpt lat="43.4628744" lon="12.7287687"><ele>738.4000000000001</ele><time>2026-05-01T12:26:48.5Z</time></trkpt><trkpt lat="43.4628297" lon="12.7288813"><ele>734.0</ele><time>2026-05-01T12:26:49.5Z</time></trkpt><trkpt lat="43.4627894" lon="12.7289829"><ele>734.0</ele><time>2026-05-01T12:26:50.499Z</time></trkpt><trkpt lat="43.4627432" lon="12.7290716"><ele>734.0</ele><time>2026-05-01T12:26:51.5Z</time></trkpt><trkpt lat="43.4626426" lon="12.7291156"><ele>734.0</ele><time>2026-05-01T12:26:53.5Z</time></trkpt><trkpt lat="43.4625802" lon="12.7290996"><ele>734.0</ele><time>2026-05-01T12:26:54.5Z</time></trkpt><trkpt lat="43.4625163" lon="12.7290693"><ele>734.0</ele><time>2026-05-01T12:26:55.5Z</time></trkpt><trkpt lat="43.4624165" lon="12.7289981"><ele>734.0</ele><time>2026-05-01T12:26:57.5Z</time></trkpt><trkpt lat="43.4623512" lon="12.7288862"><ele>734.0</ele><time>2026-05-01T12:26:59.5Z</time></trkpt><trkpt lat="43.4623019" lon="12.728714"><ele>734.0</ele><time>2026-05-01T12:27:01.5Z</time></trkpt><trkpt lat="43.462285" lon="12.7285929"><ele>734.0</ele><time>2026-05-01T12:27:02.499Z</time></trkpt><trkpt lat="43.4622748" lon="12.7284575"><ele>734.0</ele><time>2026-05-01T12:27:03.5Z</time></trkpt><trkpt lat="43.4622686" lon="12.7283209"><ele>734.0</ele><time>2026-05-01T12:27:04.5Z</time></trkpt><trkpt lat="43.4622669" lon="12.7281754"><ele>738.8000000000001</ele><time>2026-05-01T12:27:05.5Z</time></trkpt><trkpt lat="43.4622643" lon="12.7280274"><ele>743.6</ele><time>2026-05-01T12:27:06.5Z</time></trkpt><trkpt lat="43.4622607" lon="12.727881"><ele>748.4</ele><time>2026-05-01T12:27:07.5Z</time></trkpt><trkpt lat="43.4622495" lon="12.7277392"><ele>753.2</ele><time>2026-05-01T12:27:08.5Z</time></trkpt><trkpt lat="43.4622355" lon="12.7276137"><ele>758.0</ele><time>2026-05-01T12:27:09.5Z</time></trkpt><trkpt lat="43.462203" lon="12.7274999"><ele>754.4</ele><time>2026-05-01T12:27:10.499Z</time></trkpt><trkpt lat="43.462147" lon="12.7273864"><ele>750.8</ele><time>2026-05-01T12:27:11.499Z</time></trkpt><trkpt lat="43.462078" lon="12.7272736"><ele>747.2</ele><time>2026-05-01T12:27:12.5Z</time></trkpt><trkpt lat="43.4620051" lon="12.7271627"><ele>743.6</ele><time>2026-05-01T12:27:13.499Z</time></trkpt><trkpt lat="43.4619321" lon="12.7270275"><ele>740.0</ele><time>2026-05-01T12:27:14.5Z</time></trkpt><trkpt lat="43.4618624" lon="12.7268908"><ele>749.0</ele><time>2026-05-01T12:27:15.499Z</time></trkpt><trkpt lat="43.4617988" lon="12.726753"><ele>758.0</ele><time>2026-05-01T12:27:16.499Z</time></trkpt><trkpt lat="43.4617253" lon="12.7266133"><ele>767.0</ele><time>2026-05-01T12:27:17.5Z</time></trkpt><trkpt lat="43.4616408" lon="12.7264726"><ele>776.0</ele><time>2026-05-01T12:27:18.5Z</time></trkpt><trkpt lat="43.4615365" lon="12.7263383"><ele>776.0</ele><time>2026-05-01T12:27:19.5Z</time></trkpt><trkpt lat="43.4614308" lon="12.7261997"><ele>776.0</ele><time>2026-05-01T12:27:20.499Z</time></trkpt><trkpt lat="43.4613314" lon="12.7260687"><ele>776.0</ele><time>2026-05-01T12:27:21.5Z</time></trkpt><trkpt lat="43.4612363" lon="12.7259508"><ele>776.0</ele><time>2026-05-01T12:27:22.5Z</time></trkpt><trkpt lat="43.461151" lon="12.7258596"><ele>777.0</ele><time>2026-05-01T12:27:23.5Z</time></trkpt><trkpt lat="43.4610673" lon="12.7257918"><ele>778.0</ele><time>2026-05-01T12:27:24.5Z</time></trkpt><trkpt lat="43.4609743" lon="12.7257405"><ele>779.0</ele><time>2026-05-01T12:27:25.5Z</time></trkpt><trkpt lat="43.4608695" lon="12.7257126"><ele>780.0</ele><time>2026-05-01T12:27:26.5Z</time></trkpt><trkpt lat="43.460753" lon="12.7256951"><ele>781.0</ele><time>2026-05-01T12:27:27.5Z</time></trkpt><trkpt lat="43.4606345" lon="12.7256962"><ele>781.0</ele><time>2026-05-01T12:27:28.5Z</time></trkpt><trkpt lat="43.4605236" lon="12.725692"><ele>781.0</ele><time>2026-05-01T12:27:29.5Z</time></trkpt><trkpt lat="43.4604113" lon="12.725671"><ele>781.0</ele><time>2026-05-01T12:27:30.5Z</time></trkpt><trkpt lat="43.4602897" lon="12.7256423"><ele>781.0</ele><time>2026-05-01T12:27:31.5Z</time></trkpt><trkpt lat="43.4601671" lon="12.7256117"><ele>781.4</ele><time>2026-05-01T12:27:32.5Z</time></trkpt><trkpt lat="43.4600502" lon="12.725585"><ele>781.8</ele><time>2026-05-01T12:27:33.499Z</time></trkpt><trkpt lat="43.4599542" lon="12.7255747"><ele>782.1999999999999</ele><time>2026-05-01T12:27:34.5Z</time></trkpt><trkpt lat="43.4598897" lon="12.7255739"><ele>782.5999999999999</ele><time>2026-05-01T12:27:35.5Z</time></trkpt><trkpt lat="43.4597747" lon="12.725558"><ele>783.0</ele><time>2026-05-01T12:27:37.499Z</time></trkpt><trkpt lat="43.4596997" lon="12.725435"><ele>783.0</ele><time>2026-05-01T12:27:39.499Z</time></trkpt><trkpt lat="43.4597166" lon="12.7253018"><ele>783.0</ele><time>2026-05-01T12:27:41.499Z</time></trkpt><trkpt lat="43.4597782" lon="12.7252666"><ele>783.0</ele><time>2026-05-01T12:27:42.5Z</time></trkpt><trkpt lat="43.4598447" lon="12.7252675"><ele>783.0</ele><time>2026-05-01T12:27:43.499Z</time></trkpt><trkpt lat="43.4599162" lon="12.7252835"><ele>783.0</ele><time>2026-05-01T12:27:44.5Z</time></trkpt><trkpt lat="43.4600111" lon="12.7253057"><ele>783.0</ele><time>2026-05-01T12:27:45.5Z</time></trkpt><trkpt lat="43.4601217" lon="12.7253404"><ele>783.0</ele><time>2026-05-01T12:27:46.5Z</time></trkpt><trkpt lat="43.4602492" lon="12.7253734"><ele>783.0</ele><time>2026-05-01T12:27:47.499Z</time></trkpt><trkpt lat="43.4603764" lon="12.7253915"><ele>783.0</ele><time>2026-05-01T12:27:48.5Z</time></trkpt><trkpt lat="43.4604985" lon="12.7253924"><ele>783.0</ele><time>2026-05-01T12:27:49.5Z</time></trkpt><trkpt lat="43.4606284" lon="12.725355"><ele>782.5</ele><time>2026-05-01T12:27:50.5Z</time></trkpt><trkpt lat="43.4607626" lon="12.7253014"><ele>782.0</ele><time>2026-05-01T12:27:51.5Z</time></trkpt><trkpt lat="43.4608872" lon="12.7252462"><ele>781.5</ele><time>2026-05-01T12:27:52.5Z</time></trkpt><trkpt lat="43.460995" lon="12.7252196"><ele>781.0</ele><time>2026-05-01T12:27:53.5Z</time></trkpt><trkpt lat="43.4610936" lon="12.725237"><ele>781.0</ele><time>2026-05-01T12:27:54.499Z</time></trkpt><trkpt lat="43.4611965" lon="12.7252931"><ele>781.0</ele><time>2026-05-01T12:27:55.5Z</time></trkpt><trkpt lat="43.4612969" lon="12.7253639"><ele>781.0</ele><time>2026-05-01T12:27:56.5Z</time></trkpt><trkpt lat="43.4614057" lon="12.7254603"><ele>781.0</ele><time>2026-05-01T12:27:57.5Z</time></trkpt><trkpt lat="43.4615214" lon="12.7255756"><ele>790.6666666666666</ele><time>2026-05-01T12:27:58.499Z</time></trkpt><trkpt lat="43.4616421" lon="12.7256889"><ele>800.3333333333333</ele><time>2026-05-01T12:27:59.5Z</time></trkpt><trkpt lat="43.4617741" lon="12.7257993"><ele>810.0</ele><time>2026-05-01T12:28:00.499Z</time></trkpt><trkpt lat="43.4619103" lon="12.7259006"><ele>810.0</ele><time>2026-05-01T12:28:01.5Z</time></trkpt><trkpt lat="43.4620407" lon="12.7259913"><ele>810.0</ele><time>2026-05-01T12:28:02.5Z</time></trkpt><trkpt lat="43.462157" lon="12.7260915"><ele>810.0</ele><time>2026-05-01T12:28:03.5Z</time></trkpt><trkpt lat="43.4622684" lon="12.726208"><ele>810.0</ele><time>2026-05-01T12:28:04.5Z</time></trkpt><trkpt lat="43.4623666" lon="12.7263306"><ele>810.25</ele><time>2026-05-01T12:28:05.499Z</time></trkpt><trkpt lat="43.4624611" lon="12.7264357"><ele>810.5</ele><time>2026-05-01T12:28:06.5Z</time></trkpt><trkpt lat="43.4625462" lon="12.7265325"><ele>810.75</ele><time>2026-05-01T12:28:07.5Z</time></trkpt><trkpt lat="43.4626336" lon="12.7266327"><ele>811.0</ele><time>2026-05-01T12:28:08.499Z</time></trkpt><trkpt lat="43.4627172" lon="12.7267348"><ele>811.0</ele><time>2026-05-01T12:28:09.5Z</time></trkpt><trkpt lat="43.4627846" lon="12.7268763"><ele>811.0</ele><time>2026-05-01T12:28:10.5Z</time></trkpt><trkpt lat="43.4628364" lon="12.7270089"><ele>811.0</ele><time>2026-05-01T12:28:11.5Z</time></trkpt><trkpt lat="43.4628833" lon="12.7271133"><ele>811.0</ele><time>2026-05-01T12:28:12.5Z</time></trkpt><trkpt lat="43.4629236" lon="12.7271873"><ele>811.0</ele><time>2026-05-01T12:28:13.5Z</time></trkpt><trkpt lat="43.4629734" lon="12.7272549"><ele>810.9999999999999</ele><time>2026-05-01T12:28:15.5Z</time></trkpt><trkpt lat="43.4630367" lon="12.7272391"><ele>811.0</ele><time>2026-05-01T12:28:17.5Z</time></trkpt><trkpt lat="43.4630801" lon="12.7271629"><ele>811.0</ele><time>2026-05-01T12:28:19.499Z</time></trkpt><trkpt lat="43.4630489" lon="12.7270197"><ele>811.0</ele><time>2026-05-01T12:28:21.5Z</time></trkpt><trkpt lat="43.4629994" lon="12.7269402"><ele>810.9999999999999</ele><time>2026-05-01T12:28:22.5Z</time></trkpt><trkpt lat="43.462939" lon="12.7268511"><ele>811.0</ele><time>2026-05-01T12:28:23.5Z</time></trkpt><trkpt lat="43.4628768" lon="12.7267493"><ele>811.0</ele><time>2026-05-01T12:28:24.499Z</time></trkpt><trkpt lat="43.462812" lon="12.7266169"><ele>811.0</ele><time>2026-05-01T12:28:25.5Z</time></trkpt><trkpt lat="43.4627529" lon="12.7264793"><ele>811.0</ele><time>2026-05-01T12:28:26.499Z</time></trkpt><trkpt lat="43.4626891" lon="12.7263246"><ele>811.0</ele><time>2026-05-01T12:28:27.5Z</time></trkpt><trkpt lat="43.4626108" lon="12.7261449"><ele>817.75</ele><time>2026-05-01T12:28:28.5Z</time></trkpt><trkpt lat="43.4625173" lon="12.7259841"><ele>824.5</ele><time>2026-05-01T12:28:29.5Z</time></trkpt><trkpt lat="43.4624195" lon="12.7258338"><ele>831.25</ele><time>2026-05-01T12:28:30.5Z</time></trkpt><trkpt lat="43.4623091" lon="12.7256967"><ele>838.0</ele><time>2026-05-01T12:28:31.5Z</time></trkpt><trkpt lat="43.4622004" lon="12.7255569"><ele>839.0</ele><time>2026-05-01T12:28:32.5Z</time></trkpt><trkpt lat="43.4620986" lon="12.7254256"><ele>840.0</ele><time>2026-05-01T12:28:33.5Z</time></trkpt><trkpt lat="43.4619942" lon="12.7253197"><ele>841.0</ele><time>2026-05-01T12:28:34.5Z</time></trkpt><trkpt lat="43.4618911" lon="12.7252098"><ele>842.0</ele><time>2026-05-01T12:28:35.5Z</time></trkpt><trkpt lat="43.4617942" lon="12.7250918"><ele>842.0</ele><time>2026-05-01T12:28:36.5Z</time></trkpt><trkpt lat="43.4617089" lon="12.7249578"><ele>842.0</ele><time>2026-05-01T12:28:37.499Z</time></trkpt><trkpt lat="43.4616222" lon="12.7248287"><ele>842.0</ele><time>2026-05-01T12:28:38.5Z</time></trkpt><trkpt lat="43.4615414" lon="12.7247174"><ele>842.0</ele><time>2026-05-01T12:28:39.5Z</time></trkpt><trkpt lat="43.461448" lon="12.7246108"><ele>842.0</ele><time>2026-05-01T12:28:40.5Z</time></trkpt><trkpt lat="43.4613514" lon="12.7245164"><ele>842.0</ele><time>2026-05-01T12:28:41.5Z</time></trkpt><trkpt lat="43.4612562" lon="12.7244262"><ele>842.0</ele><time>2026-05-01T12:28:42.5Z</time></trkpt><trkpt lat="43.4611599" lon="12.7243317"><ele>842.0</ele><time>2026-05-01T12:28:43.5Z</time></trkpt><trkpt lat="43.4610639" lon="12.724256"><ele>846.0</ele><time>2026-05-01T12:28:44.499Z</time></trkpt><trkpt lat="43.4609636" lon="12.7242016"><ele>850.0</ele><time>2026-05-01T12:28:45.5Z</time></trkpt><trkpt lat="43.4608556" lon="12.7241573"><ele>854.0</ele><time>2026-05-01T12:28:46.5Z</time></trkpt><trkpt lat="43.4607443" lon="12.7241191"><ele>858.0</ele><time>2026-05-01T12:28:47.5Z</time></trkpt><trkpt lat="43.4606407" lon="12.724097"><ele>862.0</ele><time>2026-05-01T12:28:48.499Z</time></trkpt><trkpt lat="43.46053" lon="12.7240844"><ele>862.6</ele><time>2026-05-01T12:28:49.499Z</time></trkpt><trkpt lat="43.4604176" lon="12.7240795"><ele>863.2</ele><time>2026-05-01T12:28:50.5Z</time></trkpt><trkpt lat="43.4603111" lon="12.7240572"><ele>863.8</ele><time>2026-05-01T12:28:51.499Z</time></trkpt><trkpt lat="43.4601991" lon="12.7240231"><ele>864.4</ele><time>2026-05-01T12:28:52.5Z</time></trkpt><trkpt lat="43.4600957" lon="12.7239895"><ele>865.0</ele><time>2026-05-01T12:28:53.5Z</time></trkpt><trkpt lat="43.4600146" lon="12.7239674"><ele>864.9999999999999</ele><time>2026-05-01T12:28:54.5Z</time></trkpt><trkpt lat="43.4599394" lon="12.7239631"><ele>865.0</ele><time>2026-05-01T12:28:55.499Z</time></trkpt><trkpt lat="43.4598757" lon="12.7239585"><ele>865.0</ele><time>2026-05-01T12:28:56.5Z</time></trkpt><trkpt lat="43.45979" lon="12.7239267"><ele>865.0</ele><time>2026-05-01T12:28:58.5Z</time></trkpt><trkpt lat="43.4597468" lon="12.7238257"><ele>864.9999999999999</ele><time>2026-05-01T12:29:00.499Z</time></trkpt><trkpt lat="43.4598049" lon="12.723762"><ele>865.0</ele><time>2026-05-01T12:29:02.5Z</time></trkpt><trkpt lat="43.4598699" lon="12.7237451"><ele>865.0</ele><time>2026-05-01T12:29:03.5Z</time></trkpt><trkpt lat="43.4599517" lon="12.7237309"><ele>865.0</ele><time>2026-05-01T12:29:04.499Z</time></trkpt><trkpt lat="43.4600422" lon="12.7237148"><ele>865.0</ele><time>2026-05-01T12:29:05.5Z</time></trkpt><trkpt lat="43.460147" lon="12.7236989"><ele>865.0</ele><time>2026-05-01T12:29:06.499Z</time></trkpt><trkpt lat="43.4602666" lon="12.7236941"><ele>865.0</ele><time>2026-05-01T12:29:07.5Z</time></trkpt><trkpt lat="43.4603792" lon="12.7236949"><ele>864.4</ele><time>2026-05-01T12:29:08.5Z</time></trkpt><trkpt lat="43.4604735" lon="12.7237021"><ele>863.8</ele><time>2026-05-01T12:29:09.5Z</time></trkpt><trkpt lat="43.4605391" lon="12.7237195"><ele>863.2</ele><time>2026-05-01T12:29:10.5Z</time></trkpt><trkpt lat="43.4606293" lon="12.7237024"><ele>862.6</ele><time>2026-05-01T12:29:12.5Z</time></trkpt><trkpt lat="43.4606432" lon="12.7236073"><ele>862.0</ele><time>2026-05-01T12:29:14.499Z</time></trkpt><trkpt lat="43.460533" lon="12.7235141"><ele>867.3333333333333</ele><time>2026-05-01T12:29:16.5Z</time></trkpt><trkpt lat="43.4604685" lon="12.7234825"><ele>872.6666666666666</ele><time>2026-05-01T12:29:17.5Z</time></trkpt><trkpt lat="43.4603803" lon="12.7234646"><ele>878.0</ele><time>2026-05-01T12:29:18.499Z</time></trkpt><trkpt lat="43.4602898" lon="12.7234481"><ele>883.3333333333333</ele><time>2026-05-01T12:29:19.5Z</time></trkpt><trkpt lat="43.4601939" lon="12.723432"><ele>888.6666666666666</ele><time>2026-05-01T12:29:20.499Z</time></trkpt><trkpt lat="43.4600988" lon="12.7234202"><ele>894.0</ele><time>2026-05-01T12:29:21.5Z</time></trkpt><trkpt lat="43.4600011" lon="12.7234209"><ele>894.0</ele><time>2026-05-01T12:29:22.5Z</time></trkpt><trkpt lat="43.4599122" lon="12.7234291"><ele>894.0</ele><time>2026-05-01T12:29:23.499Z</time></trkpt><trkpt lat="43.4598335" lon="12.7234407"><ele>894.0</ele><time>2026-05-01T12:29:24.5Z</time></trkpt><trkpt lat="43.4597607" lon="12.7234367"><ele>894.0</ele><time>2026-05-01T12:29:25.499Z</time></trkpt><trkpt lat="43.4596842" lon="12.7233566"><ele>894.0</ele><time>2026-05-01T12:29:27.5Z</time></trkpt><trkpt lat="43.4597014" lon="12.7232718"><ele>894.0</ele><time>2026-05-01T12:29:29.5Z</time></trkpt><trkpt lat="43.459809" lon="12.7232195"><ele>894.0</ele><time>2026-05-01T12:29:31.5Z</time></trkpt><trkpt lat="43.4598884" lon="12.7231865"><ele>894.0000000000001</ele><time>2026-05-01T12:29:32.5Z</time></trkpt><trkpt lat="43.459979" lon="12.723129"><ele>894.0000000000001</ele><time>2026-05-01T12:29:33.499Z</time></trkpt><trkpt lat="43.460063" lon="12.7230505"><ele>894.0</ele><time>2026-05-01T12:29:34.499Z</time></trkpt><trkpt lat="43.4601539" lon="12.7229782"><ele>894.0</ele><time>2026-05-01T12:29:35.499Z</time></trkpt><trkpt lat="43.4602514" lon="12.7229197"><ele>894.0</ele><time>2026-05-01T12:29:36.5Z</time></trkpt><trkpt lat="43.4603355" lon="12.7229132"><ele>894.0000000000001</ele><time>2026-05-01T12:29:37.5Z</time></trkpt><trkpt lat="43.4604063" lon="12.7229207"><ele>894.0000000000001</ele><time>2026-05-01T12:29:38.5Z</time></trkpt><trkpt lat="43.4605184" lon="12.722904"><ele>894.0</ele><time>2026-05-01T12:29:40.5Z</time></trkpt><trkpt lat="43.4605299" lon="12.7227801"><ele>894.0</ele><time>2026-05-01T12:29:42.5Z</time></trkpt><trkpt lat="43.4604373" lon="12.722684"><ele>894.0</ele><time>2026-05-01T12:29:44.499Z</time></trkpt><trkpt lat="43.460353" lon="12.7226505"><ele>894.0000000000001</ele><time>2026-05-01T12:29:45.5Z</time></trkpt><trkpt lat="43.460263" lon="12.7226234"><ele>894.0000000000001</ele><time>2026-05-01T12:29:46.5Z</time></trkpt><trkpt lat="43.4601737" lon="12.7226312"><ele>894.0</ele><time>2026-05-01T12:29:47.5Z</time></trkpt><trkpt lat="43.4600685" lon="12.722678"><ele>894.0</ele><time>2026-05-01T12:29:48.5Z</time></trkpt><trkpt lat="43.4599528" lon="12.7227529"><ele>894.0</ele><time>2026-05-01T12:29:49.5Z</time></trkpt><trkpt lat="43.4598552" lon="12.7228224"><ele>894.0</ele><time>2026-05-01T12:29:50.499Z</time></trkpt><trkpt lat="43.4597856" lon="12.7228869"><ele>894.0</ele><time>2026-05-01T12:29:51.5Z</time></trkpt><trkpt lat="43.4597258" lon="12.7229182"><ele>894.0</ele><time>2026-05-01T12:29:52.5Z</time></trkpt><trkpt lat="43.4596406" lon="12.7229237"><ele>894.0</ele><time>2026-05-01T12:29:54.5Z</time></trkpt><trkpt lat="43.4595885" lon="12.7228737"><ele>894.0</ele><time>2026-05-01T12:29:56.5Z</time></trkpt><trkpt lat="43.4595991" lon="12.7227846"><ele>901.2</ele><time>2026-05-01T12:29:58.5Z</time></trkpt><trkpt lat="43.4597058" lon="12.7226938"><ele>908.4000000000001</ele><time>2026-05-01T12:30:00.499Z</time></trkpt><trkpt lat="43.4597789" lon="12.7226674"><ele>915.6</ele><time>2026-05-01T12:30:01.5Z</time></trkpt><trkpt lat="43.4598623" lon="12.7226275"><ele>922.8</ele><time>2026-05-01T12:30:02.5Z</time></trkpt><trkpt lat="43.4599274" lon="12.7225907"><ele>930.0</ele><time>2026-05-01T12:30:03.499Z</time></trkpt><trkpt lat="43.4599795" lon="12.7224654"><ele>930.0</ele><time>2026-05-01T12:30:05.5Z</time></trkpt><trkpt lat="43.4599225" lon="12.7223617"><ele>930.0</ele><time>2026-05-01T12:30:07.5Z</time></trkpt><trkpt lat="43.4598594" lon="12.7223725"><ele>930.0</ele><time>2026-05-01T12:30:08.499Z</time></trkpt><trkpt lat="43.4597882" lon="12.7224216"><ele>930.0</ele><time>2026-05-01T12:30:09.5Z</time></trkpt><trkpt lat="43.459712" lon="12.7224909"><ele>930.0</ele><time>2026-05-01T12:30:10.5Z</time></trkpt><trkpt lat="43.4596233" lon="12.7225748"><ele>930.0</ele><time>2026-05-01T12:30:11.5Z</time></trkpt><trkpt lat="43.4595105" lon="12.7226745"><ele>932.6</ele><time>2026-05-01T12:30:12.499Z</time></trkpt><trkpt lat="43.4594098" lon="12.7227897"><ele>935.2</ele><time>2026-05-01T12:30:13.5Z</time></trkpt><trkpt lat="43.4593484" lon="12.7228735"><ele>937.8</ele><time>2026-05-01T12:30:14.5Z</time></trkpt><trkpt lat="43.4592933" lon="12.7229412"><ele>940.4</ele><time>2026-05-01T12:30:16.5Z</time></trkpt><trkpt lat="43.459288" lon="12.7228388"><ele>943.0</ele><time>2026-05-01T12:30:21.5Z</time></trkpt><trkpt lat="43.4593808" lon="12.7227321"><ele>939.75</ele><time>2026-05-01T12:30:23.5Z</time></trkpt><trkpt lat="43.4594558" lon="12.7226354"><ele>936.5</ele><time>2026-05-01T12:30:24.499Z</time></trkpt><trkpt lat="43.4595266" lon="12.7225117"><ele>933.25</ele><time>2026-05-01T12:30:25.5Z</time></trkpt><trkpt lat="43.4596128" lon="12.7223589"><ele>930.0</ele><time>2026-05-01T12:30:26.499Z</time></trkpt><trkpt lat="43.4597078" lon="12.7222102"><ele>930.0</ele><time>2026-05-01T12:30:27.5Z</time></trkpt><trkpt lat="43.4598134" lon="12.7220942"><ele>930.0</ele><time>2026-05-01T12:30:28.5Z</time></trkpt><trkpt lat="43.4598966" lon="12.7220319"><ele>930.0</ele><time>2026-05-01T12:30:29.5Z</time></trkpt><trkpt lat="43.4599847" lon="12.7220212"><ele>930.0</ele><time>2026-05-01T12:30:30.499Z</time></trkpt><trkpt lat="43.460072" lon="12.722044"><ele>930.0</ele><time>2026-05-01T12:30:31.5Z</time></trkpt><trkpt lat="43.4601483" lon="12.7220914"><ele>930.0</ele><time>2026-05-01T12:30:32.499Z</time></trkpt><trkpt lat="43.46021" lon="12.7221477"><ele>930.0</ele><time>2026-05-01T12:30:33.499Z</time></trkpt><trkpt lat="43.4602617" lon="12.7222115"><ele>930.0</ele><time>2026-05-01T12:30:34.5Z</time></trkpt><trkpt lat="43.4603699" lon="12.7222376"><ele>930.0</ele><time>2026-05-01T12:30:36.499Z</time></trkpt><trkpt lat="43.4604199" lon="12.7221143"><ele>930.0</ele><time>2026-05-01T12:30:38.5Z</time></trkpt><trkpt lat="43.4604037" lon="12.7220266"><ele>930.0</ele><time>2026-05-01T12:30:39.5Z</time></trkpt><trkpt lat="43.4603602" lon="12.721946"><ele>937.0</ele><time>2026-05-01T12:30:40.5Z</time></trkpt><trkpt lat="43.4602815" lon="12.7218821"><ele>944.0</ele><time>2026-05-01T12:30:41.499Z</time></trkpt><trkpt lat="43.4601794" lon="12.7218365"><ele>951.0</ele><time>2026-05-01T12:30:42.5Z</time></trkpt><trkpt lat="43.460068" lon="12.7217898"><ele>958.0</ele><time>2026-05-01T12:30:43.5Z</time></trkpt><trkpt lat="43.4599534" lon="12.7217624"><ele>965.0</ele><time>2026-05-01T12:30:44.499Z</time></trkpt><trkpt lat="43.4598535" lon="12.7217656"><ele>965.0000000000001</ele><time>2026-05-01T12:30:45.5Z</time></trkpt><trkpt lat="43.4597615" lon="12.7217972"><ele>965.0</ele><time>2026-05-01T12:30:46.5Z</time></trkpt><trkpt lat="43.4596754" lon="12.7218562"><ele>965.0</ele><time>2026-05-01T12:30:47.499Z</time></trkpt><trkpt lat="43.4595966" lon="12.7219405"><ele>965.0</ele><time>2026-05-01T12:30:48.5Z</time></trkpt><trkpt lat="43.4595463" lon="12.7220032"><ele>965.0000000000001</ele><time>2026-05-01T12:30:49.5Z</time></trkpt><trkpt lat="43.4594654" lon="12.7220567"><ele>965.0</ele><time>2026-05-01T12:30:51.5Z</time></trkpt><trkpt lat="43.4594158" lon="12.7219971"><ele>965.0000000000001</ele><time>2026-05-01T12:30:53.5Z</time></trkpt><trkpt lat="43.459466" lon="12.7218924"><ele>965.0</ele><time>2026-05-01T12:30:55.499Z</time></trkpt><trkpt lat="43.4595229" lon="12.7218453"><ele>965.0</ele><time>2026-05-01T12:30:56.5Z</time></trkpt><trkpt lat="43.4595817" lon="12.7217853"><ele>965.0</ele><time>2026-05-01T12:30:57.499Z</time></trkpt><trkpt lat="43.4596346" lon="12.7217142"><ele>965.0000000000001</ele><time>2026-05-01T12:30:58.5Z</time></trkpt><trkpt lat="43.4596972" lon="12.7216257"><ele>965.0</ele><time>2026-05-01T12:30:59.499Z</time></trkpt><trkpt lat="43.4597836" lon="12.7215436"><ele>965.0</ele><time>2026-05-01T12:31:00.5Z</time></trkpt><trkpt lat="43.4598984" lon="12.7214696"><ele>965.0</ele><time>2026-05-01T12:31:01.5Z</time></trkpt><trkpt lat="43.4600168" lon="12.7214013"><ele>965.0</ele><time>2026-05-01T12:31:02.499Z</time></trkpt><trkpt lat="43.460141" lon="12.7213597"><ele>965.0</ele><time>2026-05-01T12:31:03.5Z</time></trkpt><trkpt lat="43.4602429" lon="12.7213543"><ele>965.0000000000001</ele><time>2026-05-01T12:31:04.5Z</time></trkpt><trkpt lat="43.4603174" lon="12.7213914"><ele>965.0</ele><time>2026-05-01T12:31:05.5Z</time></trkpt><trkpt lat="43.4603857" lon="12.7214468"><ele>965.0</ele><time>2026-05-01T12:31:06.5Z</time></trkpt><trkpt lat="43.4604502" lon="12.7215314"><ele>965.0</ele><time>2026-05-01T12:31:07.5Z</time></trkpt><trkpt lat="43.4605226" lon="12.7216037"><ele>965.0000000000001</ele><time>2026-05-01T12:31:08.5Z</time></trkpt><trkpt lat="43.4605963" lon="12.7216416"><ele>965.0</ele><time>2026-05-01T12:31:09.5Z</time></trkpt><trkpt lat="43.4606901" lon="12.7216684"><ele>968.3333333333334</ele><time>2026-05-01T12:31:10.499Z</time></trkpt><trkpt lat="43.4607839" lon="12.7216658"><ele>971.6666666666667</ele><time>2026-05-01T12:31:11.5Z</time></trkpt><trkpt lat="43.4608609" lon="12.7216658"><ele>975.0</ele><time>2026-05-01T12:31:12.499Z</time></trkpt><trkpt lat="43.4609279" lon="12.7217022"><ele>978.3333333333333</ele><time>2026-05-01T12:31:13.5Z</time></trkpt><trkpt lat="43.4610326" lon="12.7217606"><ele>981.6666666666666</ele><time>2026-05-01T12:31:15.5Z</time></trkpt><trkpt lat="43.4610783" lon="12.7216775"><ele>985.0</ele><time>2026-05-01T12:31:17.5Z</time></trkpt><trkpt lat="43.4610404" lon="12.7215735"><ele>985.0</ele><time>2026-05-01T12:31:19.5Z</time></trkpt><trkpt lat="43.4609706" lon="12.7215563"><ele>985.0</ele><time>2026-05-01T12:31:20.5Z</time></trkpt><trkpt lat="43.4608872" lon="12.7215428"><ele>985.0</ele><time>2026-05-01T12:31:21.499Z</time></trkpt><trkpt lat="43.4607989" lon="12.721512"><ele>985.0</ele><time>2026-05-01T12:31:22.5Z</time></trkpt><trkpt lat="43.4607039" lon="12.721465"><ele>985.0</ele><time>2026-05-01T12:31:23.5Z</time></trkpt><trkpt lat="43.4606183" lon="12.721376"><ele>985.0</ele><time>2026-05-01T12:31:24.5Z</time></trkpt><trkpt lat="43.4605403" lon="12.7212751"><ele>985.0</ele><time>2026-05-01T12:31:25.5Z</time></trkpt><trkpt lat="43.4604673" lon="12.7211822"><ele>985.0</ele><time>2026-05-01T12:31:26.5Z</time></trkpt><trkpt lat="43.4603823" lon="12.7211173"><ele>985.0</ele><time>2026-05-01T12:31:27.499Z</time></trkpt><trkpt lat="43.4602893" lon="12.721087"><ele>985.0</ele><time>2026-05-01T12:31:28.499Z</time></trkpt><trkpt lat="43.4601943" lon="12.7210713"><ele>981.6666666666666</ele><time>2026-05-01T12:31:29.5Z</time></trkpt><trkpt lat="43.4601002" lon="12.7210684"><ele>978.3333333333333</ele><time>2026-05-01T12:31:30.5Z</time></trkpt><trkpt lat="43.460006" lon="12.7210888"><ele>975.0</ele><time>2026-05-01T12:31:31.499Z</time></trkpt><trkpt lat="43.4599234" lon="12.7211198"><ele>971.6666666666667</ele><time>2026-05-01T12:31:32.5Z</time></trkpt><trkpt lat="43.4598564" lon="12.7211553"><ele>968.3333333333334</ele><time>2026-05-01T12:31:33.499Z</time></trkpt><trkpt lat="43.4597613" lon="12.721192"><ele>965.0</ele><time>2026-05-01T12:31:35.5Z</time></trkpt><trkpt lat="43.4597394" lon="12.7210823"><ele>973.0</ele><time>2026-05-01T12:31:38.499Z</time></trkpt><trkpt lat="43.4598423" lon="12.720999"><ele>981.0</ele><time>2026-05-01T12:31:40.499Z</time></trkpt><trkpt lat="43.4599058" lon="12.7209735"><ele>989.0</ele><time>2026-05-01T12:31:41.5Z</time></trkpt><trkpt lat="43.4600133" lon="12.7209658"><ele>997.0</ele><time>2026-05-01T12:31:42.5Z</time></trkpt><trkpt lat="43.4601213" lon="12.7209476"><ele>1005.0</ele><time>2026-05-01T12:31:43.5Z</time></trkpt><trkpt lat="43.4602393" lon="12.7209581"><ele>1005.0</ele><time>2026-05-01T12:31:44.5Z</time></trkpt><trkpt lat="43.4603597" lon="12.7209623"><ele>1005.0</ele><time>2026-05-01T12:31:45.499Z</time></trkpt><trkpt lat="43.4604617" lon="12.7209685"><ele>1005.0</ele><time>2026-05-01T12:31:46.499Z</time></trkpt><trkpt lat="43.4605507" lon="12.7209965"><ele>1005.0</ele><time>2026-05-01T12:31:47.5Z</time></trkpt><trkpt lat="43.4606405" lon="12.7210717"><ele>1005.0</ele><time>2026-05-01T12:31:48.5Z</time></trkpt><trkpt lat="43.4607233" lon="12.7211471"><ele>1001.6666666666666</ele><time>2026-05-01T12:31:49.5Z</time></trkpt><trkpt lat="43.4608102" lon="12.7212162"><ele>998.3333333333333</ele><time>2026-05-01T12:31:50.5Z</time></trkpt><trkpt lat="43.4608887" lon="12.7212485"><ele>995.0</ele><time>2026-05-01T12:31:51.5Z</time></trkpt><trkpt lat="43.4609698" lon="12.7212592"><ele>991.6666666666666</ele><time>2026-05-01T12:31:52.5Z</time></trkpt><trkpt lat="43.4610526" lon="12.7212388"><ele>988.3333333333333</ele><time>2026-05-01T12:31:53.5Z</time></trkpt><trkpt lat="43.4611244" lon="12.7212288"><ele>985.0</ele><time>2026-05-01T12:31:54.5Z</time></trkpt><trkpt lat="43.4611938" lon="12.7212443"><ele>984.9999999999999</ele><time>2026-05-01T12:31:55.5Z</time></trkpt><trkpt lat="43.4612535" lon="12.7212809"><ele>985.0</ele><time>2026-05-01T12:31:56.5Z</time></trkpt><trkpt lat="43.4613477" lon="12.7213576"><ele>985.0</ele><time>2026-05-01T12:31:58.5Z</time></trkpt><trkpt lat="43.4614119" lon="12.7212987"><ele>985.0</ele><time>2026-05-01T12:32:00.5Z</time></trkpt><trkpt lat="43.4614088" lon="12.7211764"><ele>984.9999999999999</ele><time>2026-05-01T12:32:02.499Z</time></trkpt><trkpt lat="43.4613114" lon="12.7211098"><ele>985.0</ele><time>2026-05-01T12:32:04.499Z</time></trkpt><trkpt lat="43.4612339" lon="12.721082"><ele>990.8</ele><time>2026-05-01T12:32:05.5Z</time></trkpt><trkpt lat="43.4611523" lon="12.7210518"><ele>996.6</ele><time>2026-05-01T12:32:06.5Z</time></trkpt><trkpt lat="43.4610592" lon="12.7210226"><ele>1002.4000000000001</ele><time>2026-05-01T12:32:07.5Z</time></trkpt><trkpt lat="43.4609659" lon="12.720967"><ele>1008.2</ele><time>2026-05-01T12:32:08.5Z</time></trkpt><trkpt lat="43.460883" lon="12.7208773"><ele>1014.0</ele><time>2026-05-01T12:32:09.5Z</time></trkpt><trkpt lat="43.4607982" lon="12.7207829"><ele>1014.0</ele><time>2026-05-01T12:32:10.499Z</time></trkpt><trkpt lat="43.460706" lon="12.7207093"><ele>1014.0000000000001</ele><time>2026-05-01T12:32:11.5Z</time></trkpt><trkpt lat="43.4606184" lon="12.7206458"><ele>1014.0000000000001</ele><time>2026-05-01T12:32:12.5Z</time></trkpt><trkpt lat="43.4605207" lon="12.7206099"><ele>1014.0</ele><time>2026-05-01T12:32:13.5Z</time></trkpt><trkpt lat="43.4604124" lon="12.7206083"><ele>1014.0</ele><time>2026-05-01T12:32:14.5Z</time></trkpt><trkpt lat="43.4603084" lon="12.7206086"><ele>1012.2</ele><time>2026-05-01T12:32:15.5Z</time></trkpt><trkpt lat="43.4602052" lon="12.7205968"><ele>1010.4000000000001</ele><time>2026-05-01T12:32:16.5Z</time></trkpt><trkpt lat="43.4601064" lon="12.7205524"><ele>1008.6</ele><time>2026-05-01T12:32:17.499Z</time></trkpt><trkpt lat="43.4600044" lon="12.7205223"><ele>1006.8</ele><time>2026-05-01T12:32:18.499Z</time></trkpt><trkpt lat="43.4599015" lon="12.7205198"><ele>1005.0</ele><time>2026-05-01T12:32:19.5Z</time></trkpt><trkpt lat="43.4598094" lon="12.7205437"><ele>1005.0</ele><time>2026-05-01T12:32:20.5Z</time></trkpt><trkpt lat="43.4597302" lon="12.7205938"><ele>1005.0</ele><time>2026-05-01T12:32:21.5Z</time></trkpt><trkpt lat="43.4596732" lon="12.7206609"><ele>1005.0</ele><time>2026-05-01T12:32:22.5Z</time></trkpt><trkpt lat="43.4595944" lon="12.7206915"><ele>1005.0</ele><time>2026-05-01T12:32:24.5Z</time></trkpt><trkpt lat="43.4595525" lon="12.720598"><ele>1005.0</ele><time>2026-05-01T12:32:27.5Z</time></trkpt><trkpt lat="43.459577" lon="12.7205126"><ele>1005.0</ele><time>2026-05-01T12:32:29.499Z</time></trkpt><trkpt lat="43.4596649" lon="12.7204439"><ele>1005.0</ele><time>2026-05-01T12:32:31.5Z</time></trkpt><trkpt lat="43.4597373" lon="12.7204415"><ele>1005.0</ele><time>2026-05-01T12:32:32.499Z</time></trkpt><trkpt lat="43.4598082" lon="12.7204379"><ele>1005.0</ele><time>2026-05-01T12:32:33.5Z</time></trkpt><trkpt lat="43.4598817" lon="12.7204209"><ele>1005.0</ele><time>2026-05-01T12:32:34.5Z</time></trkpt><trkpt lat="43.4599711" lon="12.7203973"><ele>1005.0</ele><time>2026-05-01T12:32:35.5Z</time></trkpt><trkpt lat="43.4600683" lon="12.7203742"><ele>1005.0</ele><time>2026-05-01T12:32:36.5Z</time></trkpt><trkpt lat="43.4601495" lon="12.7203659"><ele>1005.0</ele><time>2026-05-01T12:32:37.5Z</time></trkpt><trkpt lat="43.4602376" lon="12.7203545"><ele>1005.0</ele><time>2026-05-01T12:32:38.5Z</time></trkpt><trkpt lat="43.460337" lon="12.7203361"><ele>1005.0</ele><time>2026-05-01T12:32:39.5Z</time></trkpt><trkpt lat="43.4604383" lon="12.7203033"><ele>1005.0</ele><time>2026-05-01T12:32:40.5Z</time></trkpt><trkpt lat="43.460544" lon="12.7202645"><ele>1005.0</ele><time>2026-05-01T12:32:41.499Z</time></trkpt><trkpt lat="43.4606438" lon="12.7202326"><ele>1014.3333333333334</ele><time>2026-05-01T12:32:42.5Z</time></trkpt><trkpt lat="43.4607333" lon="12.7201996"><ele>1023.6666666666667</ele><time>2026-05-01T12:32:43.5Z</time></trkpt><trkpt lat="43.4608175" lon="12.720166"><ele>1033.0</ele><time>2026-05-01T12:32:44.5Z</time></trkpt><trkpt lat="43.4609057" lon="12.720127"><ele>1042.3333333333335</ele><time>2026-05-01T12:32:45.5Z</time></trkpt><trkpt lat="43.4609826" lon="12.7201122"><ele>1051.6666666666667</ele><time>2026-05-01T12:32:46.5Z</time></trkpt><trkpt lat="43.4610503" lon="12.7201321"><ele>1061.0</ele><time>2026-05-01T12:32:47.5Z</time></trkpt><trkpt lat="43.4611158" lon="12.7201825"><ele>1058.5</ele><time>2026-05-01T12:32:48.5Z</time></trkpt><trkpt lat="43.4611737" lon="12.7202682"><ele>1056.0</ele><time>2026-05-01T12:32:49.5Z</time></trkpt><trkpt lat="43.461227" lon="12.7203455"><ele>1053.5</ele><time>2026-05-01T12:32:50.5Z</time></trkpt><trkpt lat="43.4612721" lon="12.7204431"><ele>1051.0</ele><time>2026-05-01T12:32:51.499Z</time></trkpt><trkpt lat="43.4613328" lon="12.7204964"><ele>1048.5</ele><time>2026-05-01T12:32:52.499Z</time></trkpt><trkpt lat="43.4614088" lon="12.7205253"><ele>1046.0</ele><time>2026-05-01T12:32:53.499Z</time></trkpt><trkpt lat="43.461491" lon="12.7205452"><ele>1046.0</ele><time>2026-05-01T12:32:54.499Z</time></trkpt><trkpt lat="43.4615593" lon="12.7205879"><ele>1046.0</ele><time>2026-05-01T12:32:55.5Z</time></trkpt><trkpt lat="43.4616184" lon="12.720625"><ele>1046.0</ele><time>2026-05-01T12:32:56.5Z</time></trkpt><trkpt lat="43.4616746" lon="12.720666"><ele>1046.0</ele><time>2026-05-01T12:32:57.5Z</time></trkpt><trkpt lat="43.4617528" lon="12.7206769"><ele>1046.0</ele><time>2026-05-01T12:32:59.5Z</time></trkpt><trkpt lat="43.4617595" lon="12.7205832"><ele>1046.0</ele><time>2026-05-01T12:33:01.499Z</time></trkpt><trkpt lat="43.4616742" lon="12.7204695"><ele>1046.0</ele><time>2026-05-01T12:33:03.5Z</time></trkpt><trkpt lat="43.4615779" lon="12.7204138"><ele>1046.0</ele><time>2026-05-01T12:33:04.499Z</time></trkpt><trkpt lat="43.4614841" lon="12.7203434"><ele>1046.0</ele><time>2026-05-01T12:33:05.5Z</time></trkpt><trkpt lat="43.4613911" lon="12.7202815"><ele>1046.0</ele><time>2026-05-01T12:33:06.5Z</time></trkpt><trkpt lat="43.4613104" lon="12.7202007"><ele>1046.0</ele><time>2026-05-01T12:33:07.499Z</time></trkpt><trkpt lat="43.4612362" lon="12.7200869"><ele>1049.0</ele><time>2026-05-01T12:33:08.5Z</time></trkpt><trkpt lat="43.4611821" lon="12.7199738"><ele>1052.0</ele><time>2026-05-01T12:33:09.5Z</time></trkpt><trkpt lat="43.461113" lon="12.7198958"><ele>1055.0</ele><time>2026-05-01T12:33:10.499Z</time></trkpt><trkpt lat="43.4610205" lon="12.7198448"><ele>1058.0</ele><time>2026-05-01T12:33:11.5Z</time></trkpt><trkpt lat="43.4609107" lon="12.7198248"><ele>1061.0</ele><time>2026-05-01T12:33:12.5Z</time></trkpt><trkpt lat="43.4607784" lon="12.7198202"><ele>1061.0</ele><time>2026-05-01T12:33:13.5Z</time></trkpt><trkpt lat="43.4606451" lon="12.7198267"><ele>1061.0</ele><time>2026-05-01T12:33:14.5Z</time></trkpt><trkpt lat="43.4605082" lon="12.719841"><ele>1061.0</ele><time>2026-05-01T12:33:15.499Z</time></trkpt><trkpt lat="43.4603726" lon="12.7198522"><ele>1061.0</ele><time>2026-05-01T12:33:16.5Z</time></trkpt><trkpt lat="43.4602327" lon="12.7198477"><ele>1061.0</ele><time>2026-05-01T12:33:17.5Z</time></trkpt><trkpt lat="43.4600828" lon="12.719844"><ele>1061.0</ele><time>2026-05-01T12:33:18.499Z</time></trkpt><trkpt lat="43.4599539" lon="12.7198382"><ele>1061.0</ele><time>2026-05-01T12:33:19.5Z</time></trkpt><trkpt lat="43.4598514" lon="12.7198344"><ele>1061.0</ele><time>2026-05-01T12:33:20.499Z</time></trkpt><trkpt lat="43.4597588" lon="12.7198281"><ele>1061.0</ele><time>2026-05-01T12:33:21.5Z</time></trkpt><trkpt lat="43.4596732" lon="12.7198179"><ele>1061.0</ele><time>2026-05-01T12:33:22.5Z</time></trkpt><trkpt lat="43.4595721" lon="12.7197763"><ele>1061.0</ele><time>2026-05-01T12:33:23.499Z</time></trkpt><trkpt lat="43.459489" lon="12.7197244"><ele>1061.0</ele><time>2026-05-01T12:33:24.499Z</time></trkpt><trkpt lat="43.4594045" lon="12.719686"><ele>1061.0</ele><time>2026-05-01T12:33:25.5Z</time></trkpt><trkpt lat="43.4593254" lon="12.7196774"><ele>1057.6</ele><time>2026-05-01T12:33:26.5Z</time></trkpt><trkpt lat="43.459251" lon="12.7197286"><ele>1054.1999999999998</ele><time>2026-05-01T12:33:27.5Z</time></trkpt><trkpt lat="43.4591984" lon="12.7198293"><ele>1050.8000000000002</ele><time>2026-05-01T12:33:28.5Z</time></trkpt><trkpt lat="43.4591539" lon="12.7199672"><ele>1047.4</ele><time>2026-05-01T12:33:29.5Z</time></trkpt><trkpt lat="43.4591006" lon="12.7201085"><ele>1044.0</ele><time>2026-05-01T12:33:30.5Z</time></trkpt><trkpt lat="43.4590191" lon="12.720244"><ele>1044.0</ele><time>2026-05-01T12:33:31.5Z</time></trkpt><trkpt lat="43.4589272" lon="12.7203856"><ele>1044.0</ele><time>2026-05-01T12:33:32.499Z</time></trkpt><trkpt lat="43.4588312" lon="12.7205412"><ele>1044.0</ele><time>2026-05-01T12:33:33.5Z</time></trkpt><trkpt lat="43.4587477" lon="12.7207076"><ele>1044.0</ele><time>2026-05-01T12:33:34.5Z</time></trkpt><trkpt lat="43.4586652" lon="12.7208416"><ele>1048.75</ele><time>2026-05-01T12:33:35.499Z</time></trkpt><trkpt lat="43.4585828" lon="12.720992"><ele>1053.5</ele><time>2026-05-01T12:33:36.499Z</time></trkpt><trkpt lat="43.4585071" lon="12.7211297"><ele>1058.25</ele><time>2026-05-01T12:33:37.5Z</time></trkpt><trkpt lat="43.4584271" lon="12.7212724"><ele>1063.0</ele><time>2026-05-01T12:33:38.499Z</time></trkpt><trkpt lat="43.4583524" lon="12.7214097"><ele>1063.0</ele><time>2026-05-01T12:33:39.5Z</time></trkpt><trkpt lat="43.4582838" lon="12.7215321"><ele>1063.0</ele><time>2026-05-01T12:33:40.499Z</time></trkpt><trkpt lat="43.4582348" lon="12.7216252"><ele>1063.0</ele><time>2026-05-01T12:33:41.5Z</time></trkpt><trkpt lat="43.4581933" lon="12.7217036"><ele>1063.0</ele><time>2026-05-01T12:33:42.5Z</time></trkpt><trkpt lat="43.4581147" lon="12.7217856"><ele>1063.0</ele><time>2026-05-01T12:33:44.5Z</time></trkpt><trkpt lat="43.4580513" lon="12.7217663"><ele>1063.0</ele><time>2026-05-01T12:33:45.5Z</time></trkpt><trkpt lat="43.4579682" lon="12.7216943"><ele>1064.8</ele><time>2026-05-01T12:33:46.499Z</time></trkpt><trkpt lat="43.4578922" lon="12.7216107"><ele>1066.6</ele><time>2026-05-01T12:33:47.5Z</time></trkpt><trkpt lat="43.4578121" lon="12.7215283"><ele>1068.4</ele><time>2026-05-01T12:33:48.5Z</time></trkpt><trkpt lat="43.4577348" lon="12.7214531"><ele>1070.2</ele><time>2026-05-01T12:33:49.5Z</time></trkpt><trkpt lat="43.4576589" lon="12.7213643"><ele>1072.0</ele><time>2026-05-01T12:33:50.499Z</time></trkpt><trkpt lat="43.457579" lon="12.7212855"><ele>1072.0</ele><time>2026-05-01T12:33:51.5Z</time></trkpt><trkpt lat="43.4575007" lon="12.721234"><ele>1072.0</ele><time>2026-05-01T12:33:52.5Z</time></trkpt><trkpt lat="43.4574228" lon="12.7212149"><ele>1072.0</ele><time>2026-05-01T12:33:53.5Z</time></trkpt><trkpt lat="43.4573346" lon="12.7212357"><ele>1072.0</ele><time>2026-05-01T12:33:54.5Z</time></trkpt><trkpt lat="43.4572409" lon="12.7212831"><ele>1072.0</ele><time>2026-05-01T12:33:55.499Z</time></trkpt><trkpt lat="43.4571477" lon="12.7213464"><ele>1075.75</ele><time>2026-05-01T12:33:56.499Z</time></trkpt><trkpt lat="43.4570486" lon="12.7214185"><ele>1079.5</ele><time>2026-05-01T12:33:57.499Z</time></trkpt><trkpt lat="43.4569513" lon="12.7214885"><ele>1083.25</ele><time>2026-05-01T12:33:58.5Z</time></trkpt><trkpt lat="43.4568474" lon="12.7215708"><ele>1087.0</ele><time>2026-05-01T12:33:59.499Z</time></trkpt><trkpt lat="43.4567335" lon="12.7216418"><ele>1087.0</ele><time>2026-05-01T12:34:00.5Z</time></trkpt><trkpt lat="43.4566292" lon="12.7217013"><ele>1087.0</ele><time>2026-05-01T12:34:01.5Z</time></trkpt><trkpt lat="43.4565228" lon="12.7217328"><ele>1087.0</ele><time>2026-05-01T12:34:02.5Z</time></trkpt><trkpt lat="43.4564241" lon="12.7217924"><ele>1087.0</ele><time>2026-05-01T12:34:03.499Z</time></trkpt><trkpt lat="43.4563396" lon="12.7218697"><ele>1087.0</ele><time>2026-05-01T12:34:04.5Z</time></trkpt><trkpt lat="43.4562633" lon="12.721973"><ele>1090.0</ele><time>2026-05-01T12:34:05.5Z</time></trkpt><trkpt lat="43.4561751" lon="12.7221007"><ele>1093.0</ele><time>2026-05-01T12:34:06.5Z</time></trkpt><trkpt lat="43.4560789" lon="12.7222349"><ele>1096.0</ele><time>2026-05-01T12:34:07.5Z</time></trkpt><trkpt lat="43.4559927" lon="12.7223426"><ele>1099.0</ele><time>2026-05-01T12:34:08.5Z</time></trkpt><trkpt lat="43.4559298" lon="12.722433"><ele>1099.0</ele><time>2026-05-01T12:34:09.5Z</time></trkpt><trkpt lat="43.4558754" lon="12.7225382"><ele>1099.0</ele><time>2026-05-01T12:34:11.5Z</time></trkpt><trkpt lat="43.4557982" lon="12.7225767"><ele>1099.0</ele><time>2026-05-01T12:34:14.5Z</time></trkpt><trkpt lat="43.4557889" lon="12.7224369"><ele>1099.0</ele><time>2026-05-01T12:34:17.5Z</time></trkpt><trkpt lat="43.4558978" lon="12.7222785"><ele>1099.0</ele><time>2026-05-01T12:34:19.5Z</time></trkpt><trkpt lat="43.4559649" lon="12.722201"><ele>1099.0</ele><time>2026-05-01T12:34:20.499Z</time></trkpt><trkpt lat="43.4560302" lon="12.7221078"><ele>1099.0</ele><time>2026-05-01T12:34:21.499Z</time></trkpt><trkpt lat="43.4561054" lon="12.7219845"><ele>1099.0</ele><time>2026-05-01T12:34:22.5Z</time></trkpt><trkpt lat="43.4561769" lon="12.7218557"><ele>1099.0</ele><time>2026-05-01T12:34:23.5Z</time></trkpt><trkpt lat="43.4562322" lon="12.7217243"><ele>1099.0</ele><time>2026-05-01T12:34:24.5Z</time></trkpt><trkpt lat="43.4562927" lon="12.7216099"><ele>1096.6000000000001</ele><time>2026-05-01T12:34:25.499Z</time></trkpt><trkpt lat="43.4563703" lon="12.7215301"><ele>1094.2</ele><time>2026-05-01T12:34:26.5Z</time></trkpt><trkpt lat="43.456462" lon="12.7214663"><ele>1091.8000000000002</ele><time>2026-05-01T12:34:27.5Z</time></trkpt><trkpt lat="43.4565671" lon="12.7214052"><ele>1089.4</ele><time>2026-05-01T12:34:28.5Z</time></trkpt><trkpt lat="43.4566698" lon="12.7213127"><ele>1087.0</ele><time>2026-05-01T12:34:29.5Z</time></trkpt><trkpt lat="43.4567733" lon="12.7212026"><ele>1087.0</ele><time>2026-05-01T12:34:30.5Z</time></trkpt><trkpt lat="43.4568682" lon="12.7210903"><ele>1087.0</ele><time>2026-05-01T12:34:31.5Z</time></trkpt><trkpt lat="43.456954" lon="12.7209777"><ele>1087.0</ele><time>2026-05-01T12:34:32.5Z</time></trkpt><trkpt lat="43.4570268" lon="12.7208882"><ele>1087.0</ele><time>2026-05-01T12:34:33.5Z</time></trkpt><trkpt lat="43.4570816" lon="12.7208205"><ele>1087.0</ele><time>2026-05-01T12:34:34.5Z</time></trkpt><trkpt lat="43.4571592" lon="12.7207382"><ele>1092.6</ele><time>2026-05-01T12:34:36.499Z</time></trkpt><trkpt lat="43.4571783" lon="12.720641"><ele>1098.2</ele><time>2026-05-01T12:34:38.5Z</time></trkpt><trkpt lat="43.4571087" lon="12.7206083"><ele>1103.8</ele><time>2026-05-01T12:34:40.499Z</time></trkpt><trkpt lat="43.4569894" lon="12.7206785"><ele>1109.4</ele><time>2026-05-01T12:34:42.499Z</time></trkpt><trkpt lat="43.456932" lon="12.7207293"><ele>1115.0</ele><time>2026-05-01T12:34:43.5Z</time></trkpt><trkpt lat="43.4568215" lon="12.7208065"><ele>1117.2</ele><time>2026-05-01T12:34:45.5Z</time></trkpt><trkpt lat="43.456744" lon="12.7208266"><ele>1119.4</ele><time>2026-05-01T12:34:46.5Z</time></trkpt><trkpt lat="43.45665" lon="12.7208509"><ele>1121.6</ele><time>2026-05-01T12:34:47.499Z</time></trkpt><trkpt lat="43.4565503" lon="12.7208859"><ele>1123.8</ele><time>2026-05-01T12:34:48.5Z</time></trkpt><trkpt lat="43.4564354" lon="12.7209115"><ele>1126.0</ele><time>2026-05-01T12:34:49.5Z</time></trkpt><trkpt lat="43.4563007" lon="12.7209335"><ele>1127.6666666666665</ele><time>2026-05-01T12:34:50.5Z</time></trkpt><trkpt lat="43.4561469" lon="12.7209728"><ele>1129.3333333333333</ele><time>2026-05-01T12:34:51.5Z</time></trkpt><trkpt lat="43.4559935" lon="12.7210279"><ele>1131.0</ele><time>2026-05-01T12:34:52.499Z</time></trkpt><trkpt lat="43.4558617" lon="12.721117"><ele>1131.0</ele><time>2026-05-01T12:34:53.5Z</time></trkpt><trkpt lat="43.4557517" lon="12.7212444"><ele>1131.0</ele><time>2026-05-01T12:34:54.5Z</time></trkpt><trkpt lat="43.4556524" lon="12.7213695"><ele>1131.0</ele><time>2026-05-01T12:34:55.5Z</time></trkpt><trkpt lat="43.4555566" lon="12.7215083"><ele>1131.0</ele><time>2026-05-01T12:34:56.5Z</time></trkpt><trkpt lat="43.4554589" lon="12.721604"><ele>1128.25</ele><time>2026-05-01T12:34:57.5Z</time></trkpt><trkpt lat="43.4553631" lon="12.7216971"><ele>1125.5</ele><time>2026-05-01T12:34:58.5Z</time></trkpt><trkpt lat="43.45526" lon="12.7218173"><ele>1122.75</ele><time>2026-05-01T12:34:59.5Z</time></trkpt><trkpt lat="43.4551504" lon="12.7219109"><ele>1120.0</ele><time>2026-05-01T12:35:00.5Z</time></trkpt><trkpt lat="43.4550419" lon="12.721975"><ele>1120.0</ele><time>2026-05-01T12:35:01.5Z</time></trkpt><trkpt lat="43.4549325" lon="12.7220266"><ele>1120.0</ele><time>2026-05-01T12:35:02.5Z</time></trkpt><trkpt lat="43.4548187" lon="12.7220639"><ele>1120.0</ele><time>2026-05-01T12:35:03.5Z</time></trkpt><trkpt lat="43.4546986" lon="12.7220837"><ele>1120.0</ele><time>2026-05-01T12:35:04.5Z</time></trkpt><trkpt lat="43.4545832" lon="12.7220824"><ele>1123.1666666666665</ele><time>2026-05-01T12:35:05.5Z</time></trkpt><trkpt lat="43.4544988" lon="12.7220691"><ele>1126.3333333333333</ele><time>2026-05-01T12:35:06.5Z</time></trkpt><trkpt lat="43.4544317" lon="12.7220391"><ele>1129.5</ele><time>2026-05-01T12:35:07.5Z</time></trkpt><trkpt lat="43.4543722" lon="12.7219975"><ele>1132.6666666666667</ele><time>2026-05-01T12:35:08.499Z</time></trkpt><trkpt lat="43.454309" lon="12.7219325"><ele>1135.8333333333335</ele><time>2026-05-01T12:35:09.499Z</time></trkpt><trkpt lat="43.4542686" lon="12.7218457"><ele>1139.0</ele><time>2026-05-01T12:35:10.499Z</time></trkpt><trkpt lat="43.4542326" lon="12.7217266"><ele>1139.0</ele><time>2026-05-01T12:35:11.5Z</time></trkpt><trkpt lat="43.4542135" lon="12.7215937"><ele>1139.0</ele><time>2026-05-01T12:35:12.5Z</time></trkpt><trkpt lat="43.4542009" lon="12.7214438"><ele>1139.0</ele><time>2026-05-01T12:35:13.5Z</time></trkpt><trkpt lat="43.4541987" lon="12.721275"><ele>1139.0</ele><time>2026-05-01T12:35:14.5Z</time></trkpt><trkpt lat="43.454197" lon="12.721087"><ele>1141.5</ele><time>2026-05-01T12:35:15.5Z</time></trkpt><trkpt lat="43.4541945" lon="12.7208875"><ele>1144.0</ele><time>2026-05-01T12:35:16.499Z</time></trkpt><trkpt lat="43.4541839" lon="12.7206949"><ele>1146.5</ele><time>2026-05-01T12:35:17.5Z</time></trkpt><trkpt lat="43.4541824" lon="12.7205186"><ele>1149.0</ele><time>2026-05-01T12:35:18.5Z</time></trkpt><trkpt lat="43.4541889" lon="12.7203551"><ele>1151.25</ele><time>2026-05-01T12:35:19.5Z</time></trkpt><trkpt lat="43.4541996" lon="12.7201795"><ele>1153.5</ele><time>2026-05-01T12:35:20.5Z</time></trkpt><trkpt lat="43.4542237" lon="12.7199999"><ele>1155.75</ele><time>2026-05-01T12:35:21.5Z</time></trkpt><trkpt lat="43.4542533" lon="12.7198182"><ele>1158.0</ele><time>2026-05-01T12:35:22.5Z</time></trkpt><trkpt lat="43.4542873" lon="12.7196421"><ele>1158.0</ele><time>2026-05-01T12:35:23.5Z</time></trkpt><trkpt lat="43.4543174" lon="12.7194799"><ele>1158.0</ele><time>2026-05-01T12:35:24.5Z</time></trkpt><trkpt lat="43.4543538" lon="12.7193398"><ele>1158.0</ele><time>2026-05-01T12:35:25.5Z</time></trkpt><trkpt lat="43.4543958" lon="12.7192221"><ele>1158.0</ele><time>2026-05-01T12:35:26.5Z</time></trkpt><trkpt lat="43.4544313" lon="12.7191395"><ele>1158.0</ele><time>2026-05-01T12:35:27.5Z</time></trkpt><trkpt lat="43.4544855" lon="12.7190366"><ele>1158.0</ele><time>2026-05-01T12:35:29.5Z</time></trkpt><trkpt lat="43.4545612" lon="12.7190418"><ele>1158.0</ele><time>2026-05-01T12:35:31.5Z</time></trkpt><trkpt lat="43.4545766" lon="12.7191877"><ele>1158.0</ele><time>2026-05-01T12:35:33.499Z</time></trkpt><trkpt lat="43.4545499" lon="12.7192827"><ele>1158.0</ele><time>2026-05-01T12:35:34.499Z</time></trkpt><trkpt lat="43.4545208" lon="12.7193879"><ele>1158.0</ele><time>2026-05-01T12:35:35.5Z</time></trkpt><trkpt lat="43.4544908" lon="12.7195085"><ele>1158.0</ele><time>2026-05-01T12:35:36.499Z</time></trkpt><trkpt lat="43.4544726" lon="12.7196411"><ele>1158.0</ele><time>2026-05-01T12:35:37.5Z</time></trkpt><trkpt lat="43.4544651" lon="12.719809"><ele>1158.0</ele><time>2026-05-01T12:35:38.499Z</time></trkpt><trkpt lat="43.4544694" lon="12.7199932"><ele>1158.0</ele><time>2026-05-01T12:35:39.5Z</time></trkpt><trkpt lat="43.4544863" lon="12.7201855"><ele>1158.0</ele><time>2026-05-01T12:35:40.5Z</time></trkpt><trkpt lat="43.4545054" lon="12.7203705"><ele>1156.5</ele><time>2026-05-01T12:35:41.5Z</time></trkpt><trkpt lat="43.4545229" lon="12.7205257"><ele>1155.0</ele><time>2026-05-01T12:35:42.5Z</time></trkpt><trkpt lat="43.4545436" lon="12.7206567"><ele>1153.5</ele><time>2026-05-01T12:35:43.5Z</time></trkpt><trkpt lat="43.4545543" lon="12.7207674"><ele>1152.0</ele><time>2026-05-01T12:35:44.499Z</time></trkpt><trkpt lat="43.4545808" lon="12.7208574"><ele>1150.5</ele><time>2026-05-01T12:35:45.5Z</time></trkpt><trkpt lat="43.4546286" lon="12.7209295"><ele>1149.0</ele><time>2026-05-01T12:35:46.5Z</time></trkpt><trkpt lat="43.4546857" lon="12.7209709"><ele>1153.8</ele><time>2026-05-01T12:35:47.5Z</time></trkpt><trkpt lat="43.4548137" lon="12.7209283"><ele>1158.6000000000001</ele><time>2026-05-01T12:35:49.5Z</time></trkpt><trkpt lat="43.4548801" lon="12.7208511"><ele>1163.4</ele><time>2026-05-01T12:35:50.5Z</time></trkpt><trkpt lat="43.4549448" lon="12.7207581"><ele>1168.2</ele><time>2026-05-01T12:35:51.5Z</time></trkpt><trkpt lat="43.4549994" lon="12.7206394"><ele>1173.0</ele><time>2026-05-01T12:35:52.5Z</time></trkpt><trkpt lat="43.4550774" lon="12.7205059"><ele>1173.0</ele><time>2026-05-01T12:35:53.499Z</time></trkpt><trkpt lat="43.455165" lon="12.7203591"><ele>1173.0</ele><time>2026-05-01T12:35:54.5Z</time></trkpt><trkpt lat="43.4552657" lon="12.7201956"><ele>1173.0</ele><time>2026-05-01T12:35:55.5Z</time></trkpt><trkpt lat="43.4553772" lon="12.720031"><ele>1174.5</ele><time>2026-05-01T12:35:56.5Z</time></trkpt><trkpt lat="43.4554848" lon="12.7198805"><ele>1176.0</ele><time>2026-05-01T12:35:57.499Z</time></trkpt><trkpt lat="43.4555936" lon="12.7197496"><ele>1177.5</ele><time>2026-05-01T12:35:58.5Z</time></trkpt><trkpt lat="43.4557111" lon="12.7196271"><ele>1179.0</ele><time>2026-05-01T12:35:59.499Z</time></trkpt><trkpt lat="43.4558342" lon="12.7195174"><ele>1179.0</ele><time>2026-05-01T12:36:00.5Z</time></trkpt><trkpt lat="43.4559695" lon="12.7194325"><ele>1179.0</ele><time>2026-05-01T12:36:01.5Z</time></trkpt><trkpt lat="43.4561135" lon="12.7193639"><ele>1179.0</ele><time>2026-05-01T12:36:02.5Z</time></trkpt><trkpt lat="43.4562593" lon="12.719285"><ele>1182.25</ele><time>2026-05-01T12:36:03.5Z</time></trkpt><trkpt lat="43.4564025" lon="12.7192173"><ele>1185.5</ele><time>2026-05-01T12:36:04.499Z</time></trkpt><trkpt lat="43.4565364" lon="12.7191452"><ele>1188.75</ele><time>2026-05-01T12:36:05.499Z</time></trkpt><trkpt lat="43.4566631" lon="12.7190724"><ele>1192.0</ele><time>2026-05-01T12:36:06.5Z</time></trkpt><trkpt lat="43.4567733" lon="12.7190056"><ele>1192.0</ele><time>2026-05-01T12:36:07.5Z</time></trkpt><trkpt lat="43.4568601" lon="12.7189502"><ele>1192.0</ele><time>2026-05-01T12:36:08.5Z</time></trkpt><trkpt lat="43.4569322" lon="12.7189154"><ele>1192.0</ele><time>2026-05-01T12:36:09.5Z</time></trkpt><trkpt lat="43.456999" lon="12.7188935"><ele>1192.0</ele><time>2026-05-01T12:36:10.5Z</time></trkpt><trkpt lat="43.4570655" lon="12.7188242"><ele>1192.0</ele><time>2026-05-01T12:36:12.499Z</time></trkpt><trkpt lat="43.4570348" lon="12.7187177"><ele>1192.0</ele><time>2026-05-01T12:36:14.5Z</time></trkpt><trkpt lat="43.4569524" lon="12.7187313"><ele>1192.0</ele><time>2026-05-01T12:36:16.5Z</time></trkpt><trkpt lat="43.4568429" lon="12.7188259"><ele>1192.0</ele><time>2026-05-01T12:36:18.499Z</time></trkpt><trkpt lat="43.4567841" lon="12.7188789"><ele>1192.0</ele><time>2026-05-01T12:36:19.5Z</time></trkpt><trkpt lat="43.4566991" lon="12.7189157"><ele>1192.0</ele><time>2026-05-01T12:36:20.5Z</time></trkpt><trkpt lat="43.4566043" lon="12.7189486"><ele>1192.0</ele><time>2026-05-01T12:36:21.5Z</time></trkpt><trkpt lat="43.4565126" lon="12.7189964"><ele>1192.0</ele><time>2026-05-01T12:36:22.5Z</time></trkpt><trkpt lat="43.4563982" lon="12.7190437"><ele>1192.0</ele><time>2026-05-01T12:36:23.5Z</time></trkpt><trkpt lat="43.4562756" lon="12.7190881"><ele>1192.0</ele><time>2026-05-01T12:36:24.5Z</time></trkpt><trkpt lat="43.4561187" lon="12.7191309"><ele>1192.0</ele><time>2026-05-01T12:36:25.5Z</time></trkpt><trkpt lat="43.455961" lon="12.7191583"><ele>1195.5</ele><time>2026-05-01T12:36:26.5Z</time></trkpt><trkpt lat="43.455802" lon="12.7191983"><ele>1199.0</ele><time>2026-05-01T12:36:27.5Z</time></trkpt><trkpt lat="43.4556711" lon="12.7192275"><ele>1202.5</ele><time>2026-05-01T12:36:28.5Z</time></trkpt><trkpt lat="43.4555624" lon="12.7192643"><ele>1206.0</ele><time>2026-05-01T12:36:29.5Z</time></trkpt><trkpt lat="43.4554626" lon="12.7192736"><ele>1203.6666666666667</ele><time>2026-05-01T12:36:30.5Z</time></trkpt><trkpt lat="43.4553809" lon="12.7192526"><ele>1201.3333333333333</ele><time>2026-05-01T12:36:31.499Z</time></trkpt><trkpt lat="43.4553197" lon="12.7192091"><ele>1199.0</ele><time>2026-05-01T12:36:32.5Z</time></trkpt><trkpt lat="43.4552823" lon="12.7191238"><ele>1196.6666666666665</ele><time>2026-05-01T12:36:33.499Z</time></trkpt><trkpt lat="43.4552696" lon="12.7190226"><ele>1194.3333333333333</ele><time>2026-05-01T12:36:34.5Z</time></trkpt><trkpt lat="43.45528" lon="12.7189092"><ele>1192.0</ele><time>2026-05-01T12:36:35.5Z</time></trkpt><trkpt lat="43.4553008" lon="12.71879"><ele>1192.0</ele><time>2026-05-01T12:36:36.499Z</time></trkpt><trkpt lat="43.4553167" lon="12.7186579"><ele>1192.0</ele><time>2026-05-01T12:36:37.5Z</time></trkpt><trkpt lat="43.4552994" lon="12.7185053"><ele>1192.0</ele><time>2026-05-01T12:36:38.5Z</time></trkpt><trkpt lat="43.4552445" lon="12.7183647"><ele>1192.0</ele><time>2026-05-01T12:36:39.5Z</time></trkpt><trkpt lat="43.4551557" lon="12.718224"><ele>1198.0</ele><time>2026-05-01T12:36:40.5Z</time></trkpt><trkpt lat="43.4550533" lon="12.718068"><ele>1204.0</ele><time>2026-05-01T12:36:41.499Z</time></trkpt><trkpt lat="43.454949" lon="12.7179142"><ele>1210.0</ele><time>2026-05-01T12:36:42.499Z</time></trkpt><trkpt lat="43.4548367" lon="12.7177745"><ele>1206.5</ele><time>2026-05-01T12:36:43.499Z</time></trkpt><trkpt lat="43.454726" lon="12.7176501"><ele>1203.0</ele><time>2026-05-01T12:36:44.5Z</time></trkpt><trkpt lat="43.4546444" lon="12.7175519"><ele>1199.5</ele><time>2026-05-01T12:36:45.499Z</time></trkpt><trkpt lat="43.4545705" lon="12.7174553"><ele>1196.0</ele><time>2026-05-01T12:36:46.499Z</time></trkpt><trkpt lat="43.4545089" lon="12.7173372"><ele>1196.0</ele><time>2026-05-01T12:36:47.499Z</time></trkpt><trkpt lat="43.4544523" lon="12.7171951"><ele>1196.0</ele><time>2026-05-01T12:36:48.5Z</time></trkpt><trkpt lat="43.4544052" lon="12.7170364"><ele>1196.0</ele><time>2026-05-01T12:36:49.499Z</time></trkpt><trkpt lat="43.4543726" lon="12.7168703"><ele>1196.0</ele><time>2026-05-01T12:36:50.5Z</time></trkpt><trkpt lat="43.4543539" lon="12.716714"><ele>1202.25</ele><time>2026-05-01T12:36:51.5Z</time></trkpt><trkpt lat="43.4543477" lon="12.7165836"><ele>1208.5</ele><time>2026-05-01T12:36:52.5Z</time></trkpt><trkpt lat="43.454364" lon="12.7164274"><ele>1214.75</ele><time>2026-05-01T12:36:53.5Z</time></trkpt><trkpt lat="43.4543905" lon="12.7162586"><ele>1221.0</ele><time>2026-05-01T12:36:54.5Z</time></trkpt><trkpt lat="43.4544203" lon="12.7160723"><ele>1223.6</ele><time>2026-05-01T12:36:55.5Z</time></trkpt><trkpt lat="43.4544453" lon="12.7158851"><ele>1226.1999999999998</ele><time>2026-05-01T12:36:56.5Z</time></trkpt><trkpt lat="43.4544563" lon="12.7157183"><ele>1228.8000000000002</ele><time>2026-05-01T12:36:57.5Z</time></trkpt><trkpt lat="43.4544569" lon="12.7155722"><ele>1231.4</ele><time>2026-05-01T12:36:58.5Z</time></trkpt><trkpt lat="43.454459" lon="12.7154594"><ele>1234.0</ele><time>2026-05-01T12:36:59.499Z</time></trkpt><trkpt lat="43.4544533" lon="12.7153526"><ele>1234.0</ele><time>2026-05-01T12:37:00.5Z</time></trkpt><trkpt lat="43.4544258" lon="12.7152645"><ele>1234.0</ele><time>2026-05-01T12:37:01.499Z</time></trkpt><trkpt lat="43.4543811" lon="12.7151895"><ele>1234.0</ele><time>2026-05-01T12:37:02.499Z</time></trkpt><trkpt lat="43.4543305" lon="12.7151294"><ele>1234.0</ele><time>2026-05-01T12:37:03.5Z</time></trkpt><trkpt lat="43.4542474" lon="12.715122"><ele>1234.0</ele><time>2026-05-01T12:37:04.5Z</time></trkpt><trkpt lat="43.4541385" lon="12.7151392"><ele>1234.0</ele><time>2026-05-01T12:37:05.5Z</time></trkpt><trkpt lat="43.4540288" lon="12.7151757"><ele>1234.0</ele><time>2026-05-01T12:37:06.5Z</time></trkpt><trkpt lat="43.4539291" lon="12.7152349"><ele>1234.0</ele><time>2026-05-01T12:37:07.5Z</time></trkpt><trkpt lat="43.4538541" lon="12.7153267"><ele>1234.0</ele><time>2026-05-01T12:37:08.499Z</time></trkpt><trkpt lat="43.4537783" lon="12.715472"><ele>1234.0</ele><time>2026-05-01T12:37:09.5Z</time></trkpt><trkpt lat="43.4536982" lon="12.7156152"><ele>1237.75</ele><time>2026-05-01T12:37:10.499Z</time></trkpt><trkpt lat="43.4535757" lon="12.7157708"><ele>1241.5</ele><time>2026-05-01T12:37:11.5Z</time></trkpt><trkpt lat="43.4534557" lon="12.7158765"><ele>1245.25</ele><time>2026-05-01T12:37:12.5Z</time></trkpt><trkpt lat="43.4533347" lon="12.7159529"><ele>1249.0</ele><time>2026-05-01T12:37:13.5Z</time></trkpt><trkpt lat="43.4532407" lon="12.7160252"><ele>1244.2</ele><time>2026-05-01T12:37:14.499Z</time></trkpt><trkpt lat="43.4531683" lon="12.7160931"><ele>1239.4</ele><time>2026-05-01T12:37:15.5Z</time></trkpt><trkpt lat="43.4531103" lon="12.7161897"><ele>1234.6</ele><time>2026-05-01T12:37:16.5Z</time></trkpt><trkpt lat="43.4530748" lon="12.7163282"><ele>1229.8</ele><time>2026-05-01T12:37:17.5Z</time></trkpt><trkpt lat="43.4530446" lon="12.7164829"><ele>1225.0</ele><time>2026-05-01T12:37:18.5Z</time></trkpt><trkpt lat="43.4530252" lon="12.7166184"><ele>1225.0</ele><time>2026-05-01T12:37:19.499Z</time></trkpt><trkpt lat="43.4529906" lon="12.7167091"><ele>1225.0</ele><time>2026-05-01T12:37:20.499Z</time></trkpt><trkpt lat="43.4529314" lon="12.7167824"><ele>1225.0</ele><time>2026-05-01T12:37:21.5Z</time></trkpt><trkpt lat="43.4528419" lon="12.7168419"><ele>1225.0</ele><time>2026-05-01T12:37:22.5Z</time></trkpt><trkpt lat="43.4527404" lon="12.7168722"><ele>1225.0</ele><time>2026-05-01T12:37:23.499Z</time></trkpt><trkpt lat="43.4526471" lon="12.7168801"><ele>1223.8</ele><time>2026-05-01T12:37:24.499Z</time></trkpt><trkpt lat="43.4525666" lon="12.7168812"><ele>1222.6</ele><time>2026-05-01T12:37:25.5Z</time></trkpt><trkpt lat="43.4524631" lon="12.7168405"><ele>1221.4</ele><time>2026-05-01T12:37:27.5Z</time></trkpt><trkpt lat="43.4523525" lon="12.716867"><ele>1220.2</ele><time>2026-05-01T12:37:29.5Z</time></trkpt><trkpt lat="43.4523078" lon="12.7169476"><ele>1219.0</ele><time>2026-05-01T12:37:30.5Z</time></trkpt><trkpt lat="43.4522655" lon="12.7170889"><ele>1219.0</ele><time>2026-05-01T12:37:31.5Z</time></trkpt><trkpt lat="43.4522115" lon="12.7172218"><ele>1219.0</ele><time>2026-05-01T12:37:32.5Z</time></trkpt><trkpt lat="43.4521693" lon="12.7173267"><ele>1219.0</ele><time>2026-05-01T12:37:33.5Z</time></trkpt><trkpt lat="43.4521072" lon="12.7174124"><ele>1219.0</ele><time>2026-05-01T12:37:34.499Z</time></trkpt><trkpt lat="43.4520138" lon="12.7174982"><ele>1219.0</ele><time>2026-05-01T12:37:35.5Z</time></trkpt><trkpt lat="43.451873" lon="12.7175722"><ele>1217.8</ele><time>2026-05-01T12:37:36.499Z</time></trkpt><trkpt lat="43.4517439" lon="12.7176515"><ele>1216.6000000000001</ele><time>2026-05-01T12:37:37.499Z</time></trkpt><trkpt lat="43.451649" lon="12.7177445"><ele>1215.4</ele><time>2026-05-01T12:37:38.5Z</time></trkpt><trkpt lat="43.4515859" lon="12.7178201"><ele>1214.2</ele><time>2026-05-01T12:37:39.499Z</time></trkpt><trkpt lat="43.4514944" lon="12.717842"><ele>1213.0</ele><time>2026-05-01T12:37:40.499Z</time></trkpt><trkpt lat="43.4513998" lon="12.7178126"><ele>1217.75</ele><time>2026-05-01T12:37:41.5Z</time></trkpt><trkpt lat="43.4512726" lon="12.7177923"><ele>1222.5</ele><time>2026-05-01T12:37:42.5Z</time></trkpt><trkpt lat="43.4511584" lon="12.717784"><ele>1227.25</ele><time>2026-05-01T12:37:43.5Z</time></trkpt><trkpt lat="43.45104" lon="12.7178225"><ele>1232.0</ele><time>2026-05-01T12:37:44.5Z</time></trkpt><trkpt lat="43.4509329" lon="12.7178836"><ele>1232.0</ele><time>2026-05-01T12:37:45.499Z</time></trkpt><trkpt lat="43.4508327" lon="12.7179492"><ele>1232.0</ele><time>2026-05-01T12:37:46.499Z</time></trkpt><trkpt lat="43.4507453" lon="12.7180111"><ele>1232.0</ele><time>2026-05-01T12:37:47.499Z</time></trkpt><trkpt lat="43.4506656" lon="12.7180774"><ele>1232.0</ele><time>2026-05-01T12:37:48.5Z</time></trkpt><trkpt lat="43.4506016" lon="12.7181578"><ele>1232.0</ele><time>2026-05-01T12:37:49.5Z</time></trkpt><trkpt lat="43.4505605" lon="12.7182763"><ele>1232.0</ele><time>2026-05-01T12:37:50.5Z</time></trkpt><trkpt lat="43.4505325" lon="12.718427"><ele>1232.0</ele><time>2026-05-01T12:37:51.5Z</time></trkpt><trkpt lat="43.4505084" lon="12.7185828"><ele>1232.0</ele><time>2026-05-01T12:37:52.5Z</time></trkpt><trkpt lat="43.450477" lon="12.7187386"><ele>1232.0</ele><time>2026-05-01T12:37:53.5Z</time></trkpt><trkpt lat="43.4504286" lon="12.7188658"><ele>1234.5</ele><time>2026-05-01T12:37:54.5Z</time></trkpt><trkpt lat="43.4503765" lon="12.7189934"><ele>1237.0</ele><time>2026-05-01T12:37:55.5Z</time></trkpt><trkpt lat="43.45032" lon="12.7190664"><ele>1239.5</ele><time>2026-05-01T12:37:56.5Z</time></trkpt><trkpt lat="43.4502541" lon="12.7190872"><ele>1242.0</ele><time>2026-05-01T12:37:57.5Z</time></trkpt><trkpt lat="43.4501923" lon="12.7191169"><ele>1244.5</ele><time>2026-05-01T12:37:58.499Z</time></trkpt><trkpt lat="43.4501584" lon="12.7190263"><ele>1247.0</ele><time>2026-05-01T12:38:00.5Z</time></trkpt><trkpt lat="43.4502298" lon="12.7189156"><ele>1247.0</ele><time>2026-05-01T12:38:02.5Z</time></trkpt><trkpt lat="43.4502814" lon="12.7187529"><ele>1247.0</ele><time>2026-05-01T12:38:04.5Z</time></trkpt><trkpt lat="43.4503145" lon="12.7186608"><ele>1247.0</ele><time>2026-05-01T12:38:05.5Z</time></trkpt><trkpt lat="43.4503338" lon="12.7185536"><ele>1247.0</ele><time>2026-05-01T12:38:06.5Z</time></trkpt><trkpt lat="43.4503712" lon="12.7184473"><ele>1247.0</ele><time>2026-05-01T12:38:07.5Z</time></trkpt><trkpt lat="43.4503967" lon="12.7183263"><ele>1244.0</ele><time>2026-05-01T12:38:08.5Z</time></trkpt><trkpt lat="43.4504145" lon="12.7181897"><ele>1241.0</ele><time>2026-05-01T12:38:09.5Z</time></trkpt><trkpt lat="43.450429" lon="12.7180569"><ele>1238.0</ele><time>2026-05-01T12:38:10.5Z</time></trkpt><trkpt lat="43.4504816" lon="12.7179515"><ele>1235.0</ele><time>2026-05-01T12:38:11.5Z</time></trkpt><trkpt lat="43.4505718" lon="12.7178771"><ele>1232.0</ele><time>2026-05-01T12:38:12.5Z</time></trkpt><trkpt lat="43.4506639" lon="12.7177838"><ele>1237.2</ele><time>2026-05-01T12:38:13.5Z</time></trkpt><trkpt lat="43.4507509" lon="12.717673"><ele>1242.4</ele><time>2026-05-01T12:38:14.499Z</time></trkpt><trkpt lat="43.4508275" lon="12.7175671"><ele>1247.6</ele><time>2026-05-01T12:38:15.499Z</time></trkpt><trkpt lat="43.4508946" lon="12.7174886"><ele>1252.8</ele><time>2026-05-01T12:38:16.5Z</time></trkpt><trkpt lat="43.4509698" lon="12.7174374"><ele>1258.0</ele><time>2026-05-01T12:38:17.5Z</time></trkpt><trkpt lat="43.4510723" lon="12.7174291"><ele>1258.0</ele><time>2026-05-01T12:38:18.5Z</time></trkpt><trkpt lat="43.4511965" lon="12.7174446"><ele>1258.0</ele><time>2026-05-01T12:38:19.5Z</time></trkpt><trkpt lat="43.4513168" lon="12.7174626"><ele>1258.0</ele><time>2026-05-01T12:38:20.5Z</time></trkpt><trkpt lat="43.4514217" lon="12.7174836"><ele>1258.0</ele><time>2026-05-01T12:38:21.5Z</time></trkpt><trkpt lat="43.4515106" lon="12.7174823"><ele>1258.0</ele><time>2026-05-01T12:38:22.5Z</time></trkpt><trkpt lat="43.4515967" lon="12.7174572"><ele>1255.0</ele><time>2026-05-01T12:38:23.499Z</time></trkpt><trkpt lat="43.451705" lon="12.7174097"><ele>1252.0</ele><time>2026-05-01T12:38:24.5Z</time></trkpt><trkpt lat="43.4518201" lon="12.7173228"><ele>1249.0</ele><time>2026-05-01T12:38:25.5Z</time></trkpt><trkpt lat="43.4519176" lon="12.7172438"><ele>1246.0</ele><time>2026-05-01T12:38:26.499Z</time></trkpt><trkpt lat="43.4519917" lon="12.7171877"><ele>1243.0</ele><time>2026-05-01T12:38:27.5Z</time></trkpt><trkpt lat="43.4520517" lon="12.7171258"><ele>1243.0</ele><time>2026-05-01T12:38:28.5Z</time></trkpt><trkpt lat="43.4521107" lon="12.7170541"><ele>1243.0</ele><time>2026-05-01T12:38:29.5Z</time></trkpt><trkpt lat="43.4521407" lon="12.7169557"><ele>1243.0</ele><time>2026-05-01T12:38:30.499Z</time></trkpt><trkpt lat="43.452163" lon="12.716829"><ele>1243.0</ele><time>2026-05-01T12:38:31.5Z</time></trkpt><trkpt lat="43.4521862" lon="12.7167158"><ele>1243.0</ele><time>2026-05-01T12:38:32.5Z</time></trkpt><trkpt lat="43.4522347" lon="12.7166197"><ele>1243.0</ele><time>2026-05-01T12:38:33.5Z</time></trkpt><trkpt lat="43.4522806" lon="12.7165433"><ele>1243.8333333333333</ele><time>2026-05-01T12:38:34.5Z</time></trkpt><trkpt lat="43.4523513" lon="12.7165052"><ele>1244.6666666666665</ele><time>2026-05-01T12:38:35.5Z</time></trkpt><trkpt lat="43.4524237" lon="12.716494"><ele>1245.5</ele><time>2026-05-01T12:38:36.499Z</time></trkpt><trkpt lat="43.4525138" lon="12.7164984"><ele>1246.3333333333333</ele><time>2026-05-01T12:38:37.5Z</time></trkpt><trkpt lat="43.4525896" lon="12.7165434"><ele>1247.1666666666667</ele><time>2026-05-01T12:38:38.5Z</time></trkpt><trkpt lat="43.4526615" lon="12.7165846"><ele>1248.0</ele><time>2026-05-01T12:38:39.5Z</time></trkpt><trkpt lat="43.4527791" lon="12.7165663"><ele>1248.0</ele><time>2026-05-01T12:38:41.5Z</time></trkpt><trkpt lat="43.4528588" lon="12.7164211"><ele>1248.0</ele><time>2026-05-01T12:38:43.5Z</time></trkpt><trkpt lat="43.4528653" lon="12.7163093"><ele>1248.0</ele><time>2026-05-01T12:38:44.499Z</time></trkpt><trkpt lat="43.4528461" lon="12.7161989"><ele>1248.0</ele><time>2026-05-01T12:38:45.5Z</time></trkpt><trkpt lat="43.4528453" lon="12.7161039"><ele>1248.0</ele><time>2026-05-01T12:38:46.5Z</time></trkpt><trkpt lat="43.4528426" lon="12.7160101"><ele>1248.0</ele><time>2026-05-01T12:38:47.5Z</time></trkpt><trkpt lat="43.4528649" lon="12.715925"><ele>1248.2</ele><time>2026-05-01T12:38:48.5Z</time></trkpt><trkpt lat="43.4529292" lon="12.71586"><ele>1248.4</ele><time>2026-05-01T12:38:49.5Z</time></trkpt><trkpt lat="43.4530202" lon="12.715793"><ele>1248.6000000000001</ele><time>2026-05-01T12:38:50.499Z</time></trkpt><trkpt lat="43.4531219" lon="12.7157428"><ele>1248.8</ele><time>2026-05-01T12:38:51.5Z</time></trkpt><trkpt lat="43.4532279" lon="12.7157044"><ele>1249.0</ele><time>2026-05-01T12:38:52.5Z</time></trkpt><trkpt lat="43.4533164" lon="12.715652"><ele>1249.0</ele><time>2026-05-01T12:38:53.5Z</time></trkpt><trkpt lat="43.4533961" lon="12.7155728"><ele>1249.0</ele><time>2026-05-01T12:38:54.5Z</time></trkpt><trkpt lat="43.4534615" lon="12.7154749"><ele>1249.0</ele><time>2026-05-01T12:38:55.5Z</time></trkpt><trkpt lat="43.4535092" lon="12.7153661"><ele>1249.0</ele><time>2026-05-01T12:38:56.5Z</time></trkpt><trkpt lat="43.4535662" lon="12.7152561"><ele>1249.0</ele><time>2026-05-01T12:38:57.5Z</time></trkpt><trkpt lat="43.4536215" lon="12.7151456"><ele>1248.8</ele><time>2026-05-01T12:38:58.499Z</time></trkpt><trkpt lat="43.4536778" lon="12.7150215"><ele>1248.6000000000001</ele><time>2026-05-01T12:38:59.499Z</time></trkpt><trkpt lat="43.4537235" lon="12.7148982"><ele>1248.4</ele><time>2026-05-01T12:39:00.5Z</time></trkpt><trkpt lat="43.4537694" lon="12.714784"><ele>1248.2</ele><time>2026-05-01T12:39:01.499Z</time></trkpt><trkpt lat="43.4538187" lon="12.7146842"><ele>1248.0</ele><time>2026-05-01T12:39:02.5Z</time></trkpt><trkpt lat="43.4538725" lon="12.7145914"><ele>1248.0</ele><time>2026-05-01T12:39:03.5Z</time></trkpt><trkpt lat="43.4539171" lon="12.7144981"><ele>1248.0</ele><time>2026-05-01T12:39:04.5Z</time></trkpt><trkpt lat="43.4539703" lon="12.7144145"><ele>1248.0</ele><time>2026-05-01T12:39:05.5Z</time></trkpt><trkpt lat="43.4540422" lon="12.7143462"><ele>1248.0</ele><time>2026-05-01T12:39:06.499Z</time></trkpt><trkpt lat="43.4541277" lon="12.714286"><ele>1248.0</ele><time>2026-05-01T12:39:07.499Z</time></trkpt><trkpt lat="43.4542124" lon="12.7142197"><ele>1248.0</ele><time>2026-05-01T12:39:08.499Z</time></trkpt><trkpt lat="43.4543047" lon="12.7141273"><ele>1250.8333333333333</ele><time>2026-05-01T12:39:09.499Z</time></trkpt><trkpt lat="43.454396" lon="12.7140384"><ele>1253.6666666666667</ele><time>2026-05-01T12:39:10.5Z</time></trkpt><trkpt lat="43.4544848" lon="12.7139725"><ele>1256.5</ele><time>2026-05-01T12:39:11.499Z</time></trkpt><trkpt lat="43.454569" lon="12.7139192"><ele>1259.3333333333335</ele><time>2026-05-01T12:39:12.5Z</time></trkpt><trkpt lat="43.4546325" lon="12.7138692"><ele>1262.1666666666667</ele><time>2026-05-01T12:39:13.5Z</time></trkpt><trkpt lat="43.454697" lon="12.7138386"><ele>1265.0</ele><time>2026-05-01T12:39:14.5Z</time></trkpt><trkpt lat="43.4547594" lon="12.7138038"><ele>1265.0</ele><time>2026-05-01T12:39:15.5Z</time></trkpt><trkpt lat="43.4548261" lon="12.7136973"><ele>1265.0</ele><time>2026-05-01T12:39:17.499Z</time></trkpt><trkpt lat="43.4547794" lon="12.7135729"><ele>1265.0</ele><time>2026-05-01T12:39:19.5Z</time></trkpt><trkpt lat="43.4546555" lon="12.7135576"><ele>1265.0</ele><time>2026-05-01T12:39:21.5Z</time></trkpt><trkpt lat="43.4545861" lon="12.7135672"><ele>1265.0</ele><time>2026-05-01T12:39:22.5Z</time></trkpt><trkpt lat="43.454507" lon="12.7135841"><ele>1265.0</ele><time>2026-05-01T12:39:23.5Z</time></trkpt><trkpt lat="43.4543974" lon="12.7136148"><ele>1265.0</ele><time>2026-05-01T12:39:24.5Z</time></trkpt><trkpt lat="43.4542803" lon="12.7136606"><ele>1265.0</ele><time>2026-05-01T12:39:25.5Z</time></trkpt><trkpt lat="43.4541477" lon="12.71374"><ele>1265.0</ele><time>2026-05-01T12:39:26.5Z</time></trkpt><trkpt lat="43.4540049" lon="12.7138622"><ele>1265.0</ele><time>2026-05-01T12:39:27.499Z</time></trkpt><trkpt lat="43.4538741" lon="12.7139805"><ele>1265.0</ele><time>2026-05-01T12:39:28.5Z</time></trkpt><trkpt lat="43.4537455" lon="12.7140982"><ele>1265.0</ele><time>2026-05-01T12:39:29.5Z</time></trkpt><trkpt lat="43.4536219" lon="12.7142109"><ele>1267.75</ele><time>2026-05-01T12:39:30.5Z</time></trkpt><trkpt lat="43.4535082" lon="12.7143653"><ele>1270.5</ele><time>2026-05-01T12:39:31.5Z</time></trkpt><trkpt lat="43.4534145" lon="12.7144935"><ele>1273.25</ele><time>2026-05-01T12:39:32.5Z</time></trkpt><trkpt lat="43.4533321" lon="12.7146139"><ele>1276.0</ele><time>2026-05-01T12:39:33.5Z</time></trkpt><trkpt lat="43.4532614" lon="12.7147035"><ele>1276.0</ele><time>2026-05-01T12:39:34.5Z</time></trkpt><trkpt lat="43.4531948" lon="12.7147849"><ele>1276.0</ele><time>2026-05-01T12:39:35.5Z</time></trkpt><trkpt lat="43.4531241" lon="12.7148214"><ele>1276.0</ele><time>2026-05-01T12:39:36.5Z</time></trkpt><trkpt lat="43.4530489" lon="12.7148473"><ele>1276.0</ele><time>2026-05-01T12:39:37.5Z</time></trkpt><trkpt lat="43.4529692" lon="12.7148289"><ele>1276.0</ele><time>2026-05-01T12:39:38.5Z</time></trkpt><trkpt lat="43.4528891" lon="12.7148167"><ele>1276.0</ele><time>2026-05-01T12:39:39.499Z</time></trkpt><trkpt lat="43.4528032" lon="12.7148132"><ele>1278.6</ele><time>2026-05-01T12:39:40.499Z</time></trkpt><trkpt lat="43.4527013" lon="12.7148237"><ele>1281.1999999999998</ele><time>2026-05-01T12:39:41.5Z</time></trkpt><trkpt lat="43.4526139" lon="12.7148818"><ele>1283.8000000000002</ele><time>2026-05-01T12:39:42.5Z</time></trkpt><trkpt lat="43.4525336" lon="12.7149893"><ele>1286.4</ele><time>2026-05-01T12:39:43.499Z</time></trkpt><trkpt lat="43.4524553" lon="12.7150988"><ele>1289.0</ele><time>2026-05-01T12:39:44.5Z</time></trkpt><trkpt lat="43.4524022" lon="12.7151818"><ele>1289.0</ele><time>2026-05-01T12:39:45.499Z</time></trkpt><trkpt lat="43.4523363" lon="12.7152304"><ele>1289.0</ele><time>2026-05-01T12:39:46.499Z</time></trkpt><trkpt lat="43.452262" lon="12.7152582"><ele>1289.0</ele><time>2026-05-01T12:39:47.499Z</time></trkpt><trkpt lat="43.4521768" lon="12.7152645"><ele>1289.0</ele><time>2026-05-01T12:39:48.5Z</time></trkpt><trkpt lat="43.4520814" lon="12.7152524"><ele>1289.0</ele><time>2026-05-01T12:39:49.5Z</time></trkpt><trkpt lat="43.4519906" lon="12.7152456"><ele>1289.0</ele><time>2026-05-01T12:39:50.5Z</time></trkpt><trkpt lat="43.4518989" lon="12.7152599"><ele>1289.8000000000002</ele><time>2026-05-01T12:39:51.5Z</time></trkpt><trkpt lat="43.4518194" lon="12.7153152"><ele>1290.6000000000001</ele><time>2026-05-01T12:39:52.5Z</time></trkpt><trkpt lat="43.451743" lon="12.7154253"><ele>1291.4</ele><time>2026-05-01T12:39:53.5Z</time></trkpt><trkpt lat="43.4516773" lon="12.715558"><ele>1292.2</ele><time>2026-05-01T12:39:54.499Z</time></trkpt><trkpt lat="43.4516102" lon="12.7157085"><ele>1293.0</ele><time>2026-05-01T12:39:55.5Z</time></trkpt><trkpt lat="43.4515715" lon="12.7158551"><ele>1293.0</ele><time>2026-05-01T12:39:56.5Z</time></trkpt><trkpt lat="43.4515059" lon="12.7159905"><ele>1293.0</ele><time>2026-05-01T12:39:57.5Z</time></trkpt><trkpt lat="43.4514293" lon="12.7161028"><ele>1293.0</ele><time>2026-05-01T12:39:58.499Z</time></trkpt><trkpt lat="43.4513395" lon="12.7161887"><ele>1293.0</ele><time>2026-05-01T12:39:59.499Z</time></trkpt><trkpt lat="43.4512315" lon="12.7162443"><ele>1292.25</ele><time>2026-05-01T12:40:00.5Z</time></trkpt><trkpt lat="43.4511191" lon="12.7162681"><ele>1291.5</ele><time>2026-05-01T12:40:01.5Z</time></trkpt><trkpt lat="43.4509985" lon="12.7162535"><ele>1290.75</ele><time>2026-05-01T12:40:02.5Z</time></trkpt><trkpt lat="43.4508686" lon="12.7162081"><ele>1290.0</ele><time>2026-05-01T12:40:03.5Z</time></trkpt><trkpt lat="43.4507337" lon="12.7161364"><ele>1290.0</ele><time>2026-05-01T12:40:04.5Z</time></trkpt><trkpt lat="43.4506104" lon="12.7160907"><ele>1290.0</ele><time>2026-05-01T12:40:05.5Z</time></trkpt><trkpt lat="43.4504992" lon="12.7160737"><ele>1290.0</ele><time>2026-05-01T12:40:06.499Z</time></trkpt><trkpt lat="43.4503929" lon="12.7160596"><ele>1290.0</ele><time>2026-05-01T12:40:07.499Z</time></trkpt><trkpt lat="43.4502747" lon="12.7160571"><ele>1292.4285714285716</ele><time>2026-05-01T12:40:08.5Z</time></trkpt><trkpt lat="43.4501877" lon="12.7160892"><ele>1294.8571428571427</ele><time>2026-05-01T12:40:09.5Z</time></trkpt><trkpt lat="43.4501305" lon="12.7161353"><ele>1297.2857142857142</ele><time>2026-05-01T12:40:10.5Z</time></trkpt><trkpt lat="43.4500667" lon="12.7161842"><ele>1299.7142857142858</ele><time>2026-05-01T12:40:11.499Z</time></trkpt><trkpt lat="43.4500191" lon="12.7162458"><ele>1302.1428571428573</ele><time>2026-05-01T12:40:12.5Z</time></trkpt><trkpt lat="43.449939" lon="12.716284"><ele>1304.5714285714284</ele><time>2026-05-01T12:40:14.499Z</time></trkpt><trkpt lat="43.449897" lon="12.7162078"><ele>1307.0</ele><time>2026-05-01T12:40:16.499Z</time></trkpt><trkpt lat="43.4499459" lon="12.7161007"><ele>1308.6</ele><time>2026-05-01T12:40:18.5Z</time></trkpt><trkpt lat="43.4500342" lon="12.7160566"><ele>1310.1999999999998</ele><time>2026-05-01T12:40:19.499Z</time></trkpt><trkpt lat="43.4501227" lon="12.7160087"><ele>1311.8</ele><time>2026-05-01T12:40:20.499Z</time></trkpt><trkpt lat="43.4502219" lon="12.7159338"><ele>1313.4</ele><time>2026-05-01T12:40:21.5Z</time></trkpt><trkpt lat="43.4503358" lon="12.7158698"><ele>1315.0</ele><time>2026-05-01T12:40:22.5Z</time></trkpt><trkpt lat="43.4504753" lon="12.7158514"><ele>1315.0</ele><time>2026-05-01T12:40:23.5Z</time></trkpt><trkpt lat="43.4506239" lon="12.7158157"><ele>1315.0</ele><time>2026-05-01T12:40:24.5Z</time></trkpt><trkpt lat="43.45075" lon="12.7157607"><ele>1315.0</ele><time>2026-05-01T12:40:25.5Z</time></trkpt><trkpt lat="43.450863" lon="12.7157209"><ele>1315.0</ele><time>2026-05-01T12:40:26.5Z</time></trkpt><trkpt lat="43.45096" lon="12.7156702"><ele>1315.0</ele><time>2026-05-01T12:40:27.499Z</time></trkpt><trkpt lat="43.4510258" lon="12.7156158"><ele>1315.0</ele><time>2026-05-01T12:40:28.499Z</time></trkpt><trkpt lat="43.4510706" lon="12.7155459"><ele>1315.0</ele><time>2026-05-01T12:40:29.5Z</time></trkpt><trkpt lat="43.4511056" lon="12.715457"><ele>1315.0</ele><time>2026-05-01T12:40:30.5Z</time></trkpt><trkpt lat="43.4511332" lon="12.7153749"><ele>1315.0</ele><time>2026-05-01T12:40:31.5Z</time></trkpt><trkpt lat="43.4511647" lon="12.7152718"><ele>1315.0</ele><time>2026-05-01T12:40:32.5Z</time></trkpt><trkpt lat="43.4512059" lon="12.7151065"><ele>1313.75</ele><time>2026-05-01T12:40:33.499Z</time></trkpt><trkpt lat="43.4512549" lon="12.7149417"><ele>1312.5</ele><time>2026-05-01T12:40:34.499Z</time></trkpt><trkpt lat="43.4512951" lon="12.7147754"><ele>1311.25</ele><time>2026-05-01T12:40:35.499Z</time></trkpt><trkpt lat="43.451348" lon="12.7146423"><ele>1310.0</ele><time>2026-05-01T12:40:36.5Z</time></trkpt><trkpt lat="43.4514" lon="12.7145159"><ele>1310.0</ele><time>2026-05-01T12:40:37.5Z</time></trkpt><trkpt lat="43.4514592" lon="12.7144086"><ele>1310.0</ele><time>2026-05-01T12:40:38.499Z</time></trkpt><trkpt lat="43.4515487" lon="12.7143477"><ele>1310.0</ele><time>2026-05-01T12:40:39.499Z</time></trkpt><trkpt lat="43.4516456" lon="12.7143089"><ele>1310.0</ele><time>2026-05-01T12:40:40.5Z</time></trkpt><trkpt lat="43.4517414" lon="12.7142771"><ele>1310.0</ele><time>2026-05-01T12:40:41.5Z</time></trkpt><trkpt lat="43.4518427" lon="12.7142376"><ele>1312.5</ele><time>2026-05-01T12:40:42.5Z</time></trkpt><trkpt lat="43.4519561" lon="12.7141672"><ele>1315.0</ele><time>2026-05-01T12:40:43.5Z</time></trkpt><trkpt lat="43.452068" lon="12.7140717"><ele>1317.5</ele><time>2026-05-01T12:40:44.5Z</time></trkpt><trkpt lat="43.4521727" lon="12.71397"><ele>1320.0</ele><time>2026-05-01T12:40:45.5Z</time></trkpt><trkpt lat="43.4522786" lon="12.7138841"><ele>1320.0</ele><time>2026-05-01T12:40:46.5Z</time></trkpt><trkpt lat="43.4524005" lon="12.7137968"><ele>1320.0</ele><time>2026-05-01T12:40:47.499Z</time></trkpt><trkpt lat="43.4525067" lon="12.713697"><ele>1320.0</ele><time>2026-05-01T12:40:48.5Z</time></trkpt><trkpt lat="43.4526076" lon="12.7135988"><ele>1320.0</ele><time>2026-05-01T12:40:49.499Z</time></trkpt><trkpt lat="43.4527055" lon="12.7135124"><ele>1318.8</ele><time>2026-05-01T12:40:50.499Z</time></trkpt><trkpt lat="43.4528033" lon="12.713409"><ele>1317.6</ele><time>2026-05-01T12:40:51.5Z</time></trkpt><trkpt lat="43.4528761" lon="12.7133124"><ele>1316.4</ele><time>2026-05-01T12:40:52.5Z</time></trkpt><trkpt lat="43.4529441" lon="12.7132154"><ele>1315.2</ele><time>2026-05-01T12:40:53.5Z</time></trkpt><trkpt lat="43.4530045" lon="12.7131215"><ele>1314.0</ele><time>2026-05-01T12:40:54.501Z</time></trkpt><trkpt lat="43.4530566" lon="12.7130335"><ele>1314.0</ele><time>2026-05-01T12:40:55.501Z</time></trkpt><trkpt lat="43.4530951" lon="12.7129123"><ele>1314.0</ele><time>2026-05-01T12:40:56.5Z</time></trkpt><trkpt lat="43.4531242" lon="12.7127955"><ele>1314.0</ele><time>2026-05-01T12:40:57.501Z</time></trkpt><trkpt lat="43.4531564" lon="12.7126378"><ele>1314.0</ele><time>2026-05-01T12:40:58.501Z</time></trkpt><trkpt lat="43.4531815" lon="12.7124627"><ele>1314.0</ele><time>2026-05-01T12:40:59.501Z</time></trkpt><trkpt lat="43.4532003" lon="12.7123124"><ele>1317.8000000000002</ele><time>2026-05-01T12:41:00.501Z</time></trkpt><trkpt lat="43.4532223" lon="12.7121711"><ele>1321.6000000000001</ele><time>2026-05-01T12:41:01.501Z</time></trkpt><trkpt lat="43.453261" lon="12.7120348"><ele>1325.4</ele><time>2026-05-01T12:41:02.501Z</time></trkpt><trkpt lat="43.453324" lon="12.7119159"><ele>1329.2</ele><time>2026-05-01T12:41:03.501Z</time></trkpt><trkpt lat="43.4534056" lon="12.7118257"><ele>1333.0</ele><time>2026-05-01T12:41:04.5Z</time></trkpt><trkpt lat="43.4535085" lon="12.7117445"><ele>1335.75</ele><time>2026-05-01T12:41:05.501Z</time></trkpt><trkpt lat="43.4536191" lon="12.7116908"><ele>1338.5</ele><time>2026-05-01T12:41:06.501Z</time></trkpt><trkpt lat="43.4537525" lon="12.71165"><ele>1341.25</ele><time>2026-05-01T12:41:07.501Z</time></trkpt><trkpt lat="43.4538801" lon="12.7116191"><ele>1344.0</ele><time>2026-05-01T12:41:08.5Z</time></trkpt><trkpt lat="43.4539846" lon="12.711604"><ele>1344.0</ele><time>2026-05-01T12:41:09.501Z</time></trkpt><trkpt lat="43.4540616" lon="12.7115917"><ele>1344.0</ele><time>2026-05-01T12:41:10.5Z</time></trkpt><trkpt lat="43.4541482" lon="12.7115656"><ele>1344.0</ele><time>2026-05-01T12:41:11.501Z</time></trkpt><trkpt lat="43.4542422" lon="12.7115018"><ele>1344.0</ele><time>2026-05-01T12:41:12.501Z</time></trkpt><trkpt lat="43.4543421" lon="12.7114095"><ele>1344.0</ele><time>2026-05-01T12:41:13.5Z</time></trkpt><trkpt lat="43.4544436" lon="12.7112976"><ele>1344.0</ele><time>2026-05-01T12:41:14.501Z</time></trkpt><trkpt lat="43.4545578" lon="12.7111978"><ele>1344.0</ele><time>2026-05-01T12:41:15.501Z</time></trkpt><trkpt lat="43.4546784" lon="12.711111"><ele>1344.0</ele><time>2026-05-01T12:41:16.5Z</time></trkpt><trkpt lat="43.4548006" lon="12.7110326"><ele>1344.0</ele><time>2026-05-01T12:41:17.501Z</time></trkpt><trkpt lat="43.4549184" lon="12.7109607"><ele>1350.75</ele><time>2026-05-01T12:41:18.501Z</time></trkpt><trkpt lat="43.455031" lon="12.710908"><ele>1357.5</ele><time>2026-05-01T12:41:19.501Z</time></trkpt><trkpt lat="43.455148" lon="12.7108868"><ele>1364.25</ele><time>2026-05-01T12:41:20.501Z</time></trkpt><trkpt lat="43.4552455" lon="12.7109285"><ele>1371.0</ele><time>2026-05-01T12:41:21.501Z</time></trkpt><trkpt lat="43.4553745" lon="12.7109817"><ele>1374.25</ele><time>2026-05-01T12:41:22.501Z</time></trkpt><trkpt lat="43.4554997" lon="12.7110593"><ele>1377.5</ele><time>2026-05-01T12:41:23.501Z</time></trkpt><trkpt lat="43.4556283" lon="12.7111533"><ele>1380.75</ele><time>2026-05-01T12:41:24.501Z</time></trkpt><trkpt lat="43.4557349" lon="12.7112709"><ele>1384.0</ele><time>2026-05-01T12:41:25.5Z</time></trkpt><trkpt lat="43.4558415" lon="12.7113872"><ele>1383.5</ele><time>2026-05-01T12:41:26.501Z</time></trkpt><trkpt lat="43.4559644" lon="12.7114862"><ele>1383.0</ele><time>2026-05-01T12:41:27.501Z</time></trkpt><trkpt lat="43.4560944" lon="12.711588"><ele>1382.5</ele><time>2026-05-01T12:41:28.501Z</time></trkpt><trkpt lat="43.456216" lon="12.7116916"><ele>1382.0</ele><time>2026-05-01T12:41:29.5Z</time></trkpt><trkpt lat="43.4563445" lon="12.7118244"><ele>1375.3333333333335</ele><time>2026-05-01T12:41:30.501Z</time></trkpt><trkpt lat="43.4564687" lon="12.7119844"><ele>1368.6666666666667</ele><time>2026-05-01T12:41:31.501Z</time></trkpt><trkpt lat="43.4565992" lon="12.712161"><ele>1362.0</ele><time>2026-05-01T12:41:32.501Z</time></trkpt><trkpt lat="43.4567198" lon="12.7123138"><ele>1362.0</ele><time>2026-05-01T12:41:33.501Z</time></trkpt><trkpt lat="43.4568343" lon="12.7124609"><ele>1362.0</ele><time>2026-05-01T12:41:34.501Z</time></trkpt><trkpt lat="43.4569384" lon="12.7125978"><ele>1362.0</ele><time>2026-05-01T12:41:35.501Z</time></trkpt><trkpt lat="43.4570444" lon="12.7127252"><ele>1362.0</ele><time>2026-05-01T12:41:36.501Z</time></trkpt><trkpt lat="43.4571484" lon="12.7128488"><ele>1366.25</ele><time>2026-05-01T12:41:37.501Z</time></trkpt><trkpt lat="43.4572518" lon="12.7129743"><ele>1370.5</ele><time>2026-05-01T12:41:38.5Z</time></trkpt><trkpt lat="43.4573529" lon="12.7131043"><ele>1374.75</ele><time>2026-05-01T12:41:39.501Z</time></trkpt><trkpt lat="43.4574562" lon="12.7132407"><ele>1379.0</ele><time>2026-05-01T12:41:40.5Z</time></trkpt><trkpt lat="43.4575585" lon="12.7133756"><ele>1379.0</ele><time>2026-05-01T12:41:41.5Z</time></trkpt><trkpt lat="43.4576615" lon="12.7135048"><ele>1379.0</ele><time>2026-05-01T12:41:42.501Z</time></trkpt><trkpt lat="43.4577591" lon="12.713626"><ele>1379.0</ele><time>2026-05-01T12:41:43.501Z</time></trkpt><trkpt lat="43.4578561" lon="12.7137482"><ele>1379.0</ele><time>2026-05-01T12:41:44.501Z</time></trkpt><trkpt lat="43.457957" lon="12.7138617"><ele>1380.25</ele><time>2026-05-01T12:41:45.501Z</time></trkpt><trkpt lat="43.4580637" lon="12.7139541"><ele>1381.5</ele><time>2026-05-01T12:41:46.501Z</time></trkpt><trkpt lat="43.4581727" lon="12.714032"><ele>1382.75</ele><time>2026-05-01T12:41:47.501Z</time></trkpt><trkpt lat="43.4582844" lon="12.7141078"><ele>1384.0</ele><time>2026-05-01T12:41:48.501Z</time></trkpt><trkpt lat="43.458394" lon="12.7141853"><ele>1384.0</ele><time>2026-05-01T12:41:49.501Z</time></trkpt><trkpt lat="43.4585128" lon="12.7142668"><ele>1384.0</ele><time>2026-05-01T12:41:50.5Z</time></trkpt><trkpt lat="43.4586316" lon="12.7143403"><ele>1384.0</ele><time>2026-05-01T12:41:51.501Z</time></trkpt><trkpt lat="43.4587522" lon="12.7144109"><ele>1384.0</ele><time>2026-05-01T12:41:52.501Z</time></trkpt><trkpt lat="43.4588757" lon="12.7144697"><ele>1384.5</ele><time>2026-05-01T12:41:53.5Z</time></trkpt><trkpt lat="43.4589995" lon="12.7145241"><ele>1385.0</ele><time>2026-05-01T12:41:54.501Z</time></trkpt><trkpt lat="43.4591282" lon="12.714585"><ele>1385.5</ele><time>2026-05-01T12:41:55.501Z</time></trkpt><trkpt lat="43.4592599" lon="12.7146446"><ele>1386.0</ele><time>2026-05-01T12:41:56.501Z</time></trkpt><trkpt lat="43.4593894" lon="12.7147001"><ele>1386.0</ele><time>2026-05-01T12:41:57.5Z</time></trkpt><trkpt lat="43.459517" lon="12.7147529"><ele>1386.0</ele><time>2026-05-01T12:41:58.501Z</time></trkpt><trkpt lat="43.4596463" lon="12.7148036"><ele>1386.0</ele><time>2026-05-01T12:41:59.5Z</time></trkpt><trkpt lat="43.4597662" lon="12.7148756"><ele>1386.0</ele><time>2026-05-01T12:42:00.501Z</time></trkpt><trkpt lat="43.459887" lon="12.7149577"><ele>1392.75</ele><time>2026-05-01T12:42:01.501Z</time></trkpt><trkpt lat="43.460008" lon="12.7150289"><ele>1399.5</ele><time>2026-05-01T12:42:02.501Z</time></trkpt><trkpt lat="43.4601278" lon="12.7150883"><ele>1406.25</ele><time>2026-05-01T12:42:03.501Z</time></trkpt><trkpt lat="43.4602451" lon="12.7151432"><ele>1413.0</ele><time>2026-05-01T12:42:04.501Z</time></trkpt><trkpt lat="43.4603643" lon="12.7151879"><ele>1409.75</ele><time>2026-05-01T12:42:05.501Z</time></trkpt><trkpt lat="43.4604819" lon="12.715228"><ele>1406.5</ele><time>2026-05-01T12:42:06.501Z</time></trkpt><trkpt lat="43.4605966" lon="12.7152782"><ele>1403.25</ele><time>2026-05-01T12:42:07.501Z</time></trkpt><trkpt lat="43.4607143" lon="12.7153249"><ele>1400.0</ele><time>2026-05-01T12:42:08.501Z</time></trkpt><trkpt lat="43.46082" lon="12.7153733"><ele>1400.0</ele><time>2026-05-01T12:42:09.501Z</time></trkpt><trkpt lat="43.4609254" lon="12.7154299"><ele>1400.0</ele><time>2026-05-01T12:42:10.501Z</time></trkpt><trkpt lat="43.4610283" lon="12.7154849"><ele>1400.0</ele><time>2026-05-01T12:42:11.501Z</time></trkpt><trkpt lat="43.4611309" lon="12.7155486"><ele>1400.0</ele><time>2026-05-01T12:42:12.501Z</time></trkpt><trkpt lat="43.4612347" lon="12.7156265"><ele>1403.5</ele><time>2026-05-01T12:42:13.501Z</time></trkpt><trkpt lat="43.4613463" lon="12.7156981"><ele>1407.0</ele><time>2026-05-01T12:42:14.501Z</time></trkpt><trkpt lat="43.4614657" lon="12.7157638"><ele>1410.5</ele><time>2026-05-01T12:42:15.501Z</time></trkpt><trkpt lat="43.4615858" lon="12.7158166"><ele>1414.0</ele><time>2026-05-01T12:42:16.5Z</time></trkpt><trkpt lat="43.4617181" lon="12.7158732"><ele>1414.0</ele><time>2026-05-01T12:42:17.501Z</time></trkpt><trkpt lat="43.4618511" lon="12.7159235"><ele>1414.0</ele><time>2026-05-01T12:42:18.5Z</time></trkpt><trkpt lat="43.461987" lon="12.7159611"><ele>1414.0</ele><time>2026-05-01T12:42:19.501Z</time></trkpt><trkpt lat="43.4621218" lon="12.7159821"><ele>1414.0</ele><time>2026-05-01T12:42:20.5Z</time></trkpt><trkpt lat="43.4622583" lon="12.7160071"><ele>1413.6</ele><time>2026-05-01T12:42:21.501Z</time></trkpt><trkpt lat="43.4623852" lon="12.7160192"><ele>1413.2</ele><time>2026-05-01T12:42:22.501Z</time></trkpt><trkpt lat="43.4625003" lon="12.7160356"><ele>1412.8</ele><time>2026-05-01T12:42:23.5Z</time></trkpt><trkpt lat="43.4625905" lon="12.7160392"><ele>1412.3999999999999</ele><time>2026-05-01T12:42:24.501Z</time></trkpt><trkpt lat="43.4626639" lon="12.7160343"><ele>1412.0</ele><time>2026-05-01T12:42:25.501Z</time></trkpt><trkpt lat="43.4627387" lon="12.7160079"><ele>1412.0</ele><time>2026-05-01T12:42:26.5Z</time></trkpt><trkpt lat="43.4628074" lon="12.71596"><ele>1412.0</ele><time>2026-05-01T12:42:27.5Z</time></trkpt><trkpt lat="43.4628657" lon="12.7158875"><ele>1412.0</ele><time>2026-05-01T12:42:28.501Z</time></trkpt><trkpt lat="43.462914" lon="12.7158026"><ele>1412.0</ele><time>2026-05-01T12:42:29.5Z</time></trkpt><trkpt lat="43.4629415" lon="12.7157083"><ele>1412.0</ele><time>2026-05-01T12:42:30.501Z</time></trkpt><trkpt lat="43.4629504" lon="12.7156"><ele>1412.0</ele><time>2026-05-01T12:42:31.5Z</time></trkpt><trkpt lat="43.4629485" lon="12.7154655"><ele>1412.0</ele><time>2026-05-01T12:42:32.501Z</time></trkpt><trkpt lat="43.4629437" lon="12.7152991"><ele>1412.0</ele><time>2026-05-01T12:42:33.5Z</time></trkpt><trkpt lat="43.4629289" lon="12.7151203"><ele>1412.0</ele><time>2026-05-01T12:42:34.501Z</time></trkpt><trkpt lat="43.4629058" lon="12.7149516"><ele>1412.0</ele><time>2026-05-01T12:42:35.5Z</time></trkpt><trkpt lat="43.4628927" lon="12.7147692"><ele>1414.75</ele><time>2026-05-01T12:42:36.501Z</time></trkpt><trkpt lat="43.4628807" lon="12.7146"><ele>1417.5</ele><time>2026-05-01T12:42:37.501Z</time></trkpt><trkpt lat="43.4628748" lon="12.7144323"><ele>1420.25</ele><time>2026-05-01T12:42:38.501Z</time></trkpt><trkpt lat="43.4628751" lon="12.7142612"><ele>1423.0</ele><time>2026-05-01T12:42:39.501Z</time></trkpt><trkpt lat="43.4628701" lon="12.7141013"><ele>1425.0</ele><time>2026-05-01T12:42:40.5Z</time></trkpt><trkpt lat="43.4628672" lon="12.713955"><ele>1427.0</ele><time>2026-05-01T12:42:41.501Z</time></trkpt><trkpt lat="43.4628477" lon="12.7138111"><ele>1429.0</ele><time>2026-05-01T12:42:42.501Z</time></trkpt><trkpt lat="43.4628327" lon="12.7136602"><ele>1431.0</ele><time>2026-05-01T12:42:43.501Z</time></trkpt><trkpt lat="43.4628217" lon="12.7135054"><ele>1433.0</ele><time>2026-05-01T12:42:44.501Z</time></trkpt><trkpt lat="43.4628021" lon="12.7133491"><ele>1433.0</ele><time>2026-05-01T12:42:45.501Z</time></trkpt><trkpt lat="43.4627822" lon="12.7131995"><ele>1433.0</ele><time>2026-05-01T12:42:46.5Z</time></trkpt><trkpt lat="43.4627593" lon="12.7130669"><ele>1433.0</ele><time>2026-05-01T12:42:47.501Z</time></trkpt><trkpt lat="43.4627318" lon="12.7129273"><ele>1433.0</ele><time>2026-05-01T12:42:48.5Z</time></trkpt><trkpt lat="43.4627031" lon="12.7127997"><ele>1433.0</ele><time>2026-05-01T12:42:49.5Z</time></trkpt><trkpt lat="43.4626912" lon="12.7126728"><ele>1433.1666666666667</ele><time>2026-05-01T12:42:50.501Z</time></trkpt><trkpt lat="43.4626855" lon="12.7125553"><ele>1433.3333333333335</ele><time>2026-05-01T12:42:51.501Z</time></trkpt><trkpt lat="43.462681" lon="12.712445"><ele>1433.5</ele><time>2026-05-01T12:42:52.501Z</time></trkpt><trkpt lat="43.4626815" lon="12.7123411"><ele>1433.6666666666667</ele><time>2026-05-01T12:42:53.501Z</time></trkpt><trkpt lat="43.4626849" lon="12.7122407"><ele>1433.8333333333333</ele><time>2026-05-01T12:42:54.501Z</time></trkpt><trkpt lat="43.4626817" lon="12.7121306"><ele>1434.0</ele><time>2026-05-01T12:42:55.501Z</time></trkpt><trkpt lat="43.4626659" lon="12.7119999"><ele>1433.5</ele><time>2026-05-01T12:42:56.5Z</time></trkpt><trkpt lat="43.462638" lon="12.7118346"><ele>1433.0</ele><time>2026-05-01T12:42:57.501Z</time></trkpt><trkpt lat="43.4626332" lon="12.7116339"><ele>1432.5</ele><time>2026-05-01T12:42:58.5Z</time></trkpt><trkpt lat="43.4626282" lon="12.7114449"><ele>1432.0</ele><time>2026-05-01T12:42:59.501Z</time></trkpt><trkpt lat="43.462635" lon="12.711251"><ele>1432.0</ele><time>2026-05-01T12:43:00.501Z</time></trkpt><trkpt lat="43.4626439" lon="12.7111131"><ele>1432.0</ele><time>2026-05-01T12:43:01.5Z</time></trkpt><trkpt lat="43.4627029" lon="12.7110093"><ele>1432.0</ele><time>2026-05-01T12:43:02.501Z</time></trkpt><trkpt lat="43.4627798" lon="12.7109257"><ele>1432.0</ele><time>2026-05-01T12:43:03.501Z</time></trkpt><trkpt lat="43.4628756" lon="12.7108604"><ele>1432.0</ele><time>2026-05-01T12:43:04.501Z</time></trkpt><trkpt lat="43.4629713" lon="12.7108099"><ele>1429.0</ele><time>2026-05-01T12:43:05.501Z</time></trkpt><trkpt lat="43.4630729" lon="12.7107938"><ele>1426.0</ele><time>2026-05-01T12:43:06.501Z</time></trkpt><trkpt lat="43.463184" lon="12.7108056"><ele>1423.0</ele><time>2026-05-01T12:43:07.5Z</time></trkpt><trkpt lat="43.4633008" lon="12.7108413"><ele>1420.0</ele><time>2026-05-01T12:43:08.501Z</time></trkpt><trkpt lat="43.4634136" lon="12.7108939"><ele>1420.0</ele><time>2026-05-01T12:43:09.501Z</time></trkpt><trkpt lat="43.463537" lon="12.71095"><ele>1420.0</ele><time>2026-05-01T12:43:10.501Z</time></trkpt><trkpt lat="43.4636628" lon="12.7110037"><ele>1420.0</ele><time>2026-05-01T12:43:11.5Z</time></trkpt><trkpt lat="43.4637994" lon="12.711047"><ele>1420.0</ele><time>2026-05-01T12:43:12.501Z</time></trkpt><trkpt lat="43.4639471" lon="12.7110818"><ele>1414.0</ele><time>2026-05-01T12:43:13.5Z</time></trkpt><trkpt lat="43.464102" lon="12.7111108"><ele>1408.0</ele><time>2026-05-01T12:43:14.5Z</time></trkpt><trkpt lat="43.4642633" lon="12.7111438"><ele>1402.0</ele><time>2026-05-01T12:43:15.501Z</time></trkpt><trkpt lat="43.464436" lon="12.7111796"><ele>1402.0</ele><time>2026-05-01T12:43:16.501Z</time></trkpt><trkpt lat="43.4646" lon="12.7112136"><ele>1402.0</ele><time>2026-05-01T12:43:17.501Z</time></trkpt><trkpt lat="43.4647528" lon="12.7112367"><ele>1402.0</ele><time>2026-05-01T12:43:18.501Z</time></trkpt><trkpt lat="43.4648887" lon="12.7112577"><ele>1404.25</ele><time>2026-05-01T12:43:19.501Z</time></trkpt><trkpt lat="43.4650085" lon="12.7112717"><ele>1406.5</ele><time>2026-05-01T12:43:20.501Z</time></trkpt><trkpt lat="43.4651201" lon="12.7112774"><ele>1408.75</ele><time>2026-05-01T12:43:21.501Z</time></trkpt><trkpt lat="43.465228" lon="12.7112548"><ele>1411.0</ele><time>2026-05-01T12:43:22.501Z</time></trkpt><trkpt lat="43.4653442" lon="12.711225"><ele>1408.75</ele><time>2026-05-01T12:43:23.5Z</time></trkpt><trkpt lat="43.4654692" lon="12.7111888"><ele>1406.5</ele><time>2026-05-01T12:43:24.501Z</time></trkpt><trkpt lat="43.465602" lon="12.7111469"><ele>1404.25</ele><time>2026-05-01T12:43:25.5Z</time></trkpt><trkpt lat="43.4657224" lon="12.7111075"><ele>1402.0</ele><time>2026-05-01T12:43:26.501Z</time></trkpt><trkpt lat="43.4658208" lon="12.7110692"><ele>1409.6</ele><time>2026-05-01T12:43:27.501Z</time></trkpt><trkpt lat="43.4659086" lon="12.7110394"><ele>1417.1999999999998</ele><time>2026-05-01T12:43:28.501Z</time></trkpt><trkpt lat="43.4659852" lon="12.7110108"><ele>1424.8</ele><time>2026-05-01T12:43:29.501Z</time></trkpt><trkpt lat="43.4660561" lon="12.7109529"><ele>1432.4</ele><time>2026-05-01T12:43:30.5Z</time></trkpt><trkpt lat="43.466121" lon="12.7108635"><ele>1440.0</ele><time>2026-05-01T12:43:31.501Z</time></trkpt><trkpt lat="43.4661955" lon="12.7107422"><ele>1440.0</ele><time>2026-05-01T12:43:32.501Z</time></trkpt><trkpt lat="43.46627" lon="12.7106528"><ele>1440.0</ele><time>2026-05-01T12:43:33.5Z</time></trkpt><trkpt lat="43.4663612" lon="12.7105973"><ele>1440.0</ele><time>2026-05-01T12:43:34.501Z</time></trkpt><trkpt lat="43.4664631" lon="12.7105537"><ele>1440.0</ele><time>2026-05-01T12:43:35.5Z</time></trkpt><trkpt lat="43.4665829" lon="12.7105252"><ele>1440.0</ele><time>2026-05-01T12:43:36.5Z</time></trkpt><trkpt lat="43.4667179" lon="12.7105146"><ele>1436.75</ele><time>2026-05-01T12:43:37.5Z</time></trkpt><trkpt lat="43.4668471" lon="12.7105048"><ele>1433.5</ele><time>2026-05-01T12:43:38.501Z</time></trkpt><trkpt lat="43.466988" lon="12.7104766"><ele>1430.25</ele><time>2026-05-01T12:43:39.501Z</time></trkpt><trkpt lat="43.4671454" lon="12.7104275"><ele>1427.0</ele><time>2026-05-01T12:43:40.501Z</time></trkpt><trkpt lat="43.4672945" lon="12.7103852"><ele>1426.0</ele><time>2026-05-01T12:43:41.501Z</time></trkpt><trkpt lat="43.4674574" lon="12.7103305"><ele>1425.0</ele><time>2026-05-01T12:43:42.501Z</time></trkpt><trkpt lat="43.4676065" lon="12.7102712"><ele>1424.0</ele><time>2026-05-01T12:43:43.501Z</time></trkpt><trkpt lat="43.4677203" lon="12.7102271"><ele>1423.0</ele><time>2026-05-01T12:43:44.501Z</time></trkpt><trkpt lat="43.4678152" lon="12.7101735"><ele>1424.1666666666665</ele><time>2026-05-01T12:43:45.501Z</time></trkpt><trkpt lat="43.4678857" lon="12.7101154"><ele>1425.3333333333333</ele><time>2026-05-01T12:43:46.501Z</time></trkpt><trkpt lat="43.4679412" lon="12.7100407"><ele>1426.5</ele><time>2026-05-01T12:43:47.501Z</time></trkpt><trkpt lat="43.4679834" lon="12.7099347"><ele>1427.6666666666667</ele><time>2026-05-01T12:43:48.501Z</time></trkpt><trkpt lat="43.4680176" lon="12.7098191"><ele>1428.8333333333335</ele><time>2026-05-01T12:43:49.501Z</time></trkpt><trkpt lat="43.4680375" lon="12.7096706"><ele>1430.0</ele><time>2026-05-01T12:43:50.501Z</time></trkpt><trkpt lat="43.4680421" lon="12.7095116"><ele>1431.0</ele><time>2026-05-01T12:43:51.5Z</time></trkpt><trkpt lat="43.4680416" lon="12.7093478"><ele>1432.0</ele><time>2026-05-01T12:43:52.501Z</time></trkpt><trkpt lat="43.4680467" lon="12.7091816"><ele>1433.0</ele><time>2026-05-01T12:43:53.501Z</time></trkpt><trkpt lat="43.4680475" lon="12.7090329"><ele>1434.0</ele><time>2026-05-01T12:43:54.501Z</time></trkpt><trkpt lat="43.4680503" lon="12.7089218"><ele>1435.0</ele><time>2026-05-01T12:43:55.501Z</time></trkpt><trkpt lat="43.4680387" lon="12.7088188"><ele>1435.0</ele><time>2026-05-01T12:43:56.501Z</time></trkpt><trkpt lat="43.4680172" lon="12.7087077"><ele>1435.0</ele><time>2026-05-01T12:43:57.501Z</time></trkpt><trkpt lat="43.4679745" lon="12.7085931"><ele>1435.0</ele><time>2026-05-01T12:43:58.501Z</time></trkpt><trkpt lat="43.4679145" lon="12.7084736"><ele>1435.0</ele><time>2026-05-01T12:43:59.501Z</time></trkpt><trkpt lat="43.4678282" lon="12.7083339"><ele>1435.0</ele><time>2026-05-01T12:44:00.501Z</time></trkpt><trkpt lat="43.4677289" lon="12.7081908"><ele>1441.0</ele><time>2026-05-01T12:44:01.5Z</time></trkpt><trkpt lat="43.4676306" lon="12.7080676"><ele>1447.0</ele><time>2026-05-01T12:44:02.5Z</time></trkpt><trkpt lat="43.4675307" lon="12.7079745"><ele>1453.0</ele><time>2026-05-01T12:44:03.501Z</time></trkpt><trkpt lat="43.4674388" lon="12.7078997"><ele>1459.0</ele><time>2026-05-01T12:44:04.501Z</time></trkpt><trkpt lat="43.4673648" lon="12.7078345"><ele>1465.0</ele><time>2026-05-01T12:44:05.501Z</time></trkpt><trkpt lat="43.4672877" lon="12.707781"><ele>1461.0</ele><time>2026-05-01T12:44:06.501Z</time></trkpt><trkpt lat="43.4671949" lon="12.7077408"><ele>1457.0</ele><time>2026-05-01T12:44:07.501Z</time></trkpt><trkpt lat="43.4671" lon="12.7077096"><ele>1453.0</ele><time>2026-05-01T12:44:08.501Z</time></trkpt><trkpt lat="43.4670334" lon="12.7076639"><ele>1449.0</ele><time>2026-05-01T12:44:09.5Z</time></trkpt><trkpt lat="43.4669865" lon="12.7075856"><ele>1445.0</ele><time>2026-05-01T12:44:10.501Z</time></trkpt><trkpt lat="43.4669477" lon="12.7074473"><ele>1450.1666666666667</ele><time>2026-05-01T12:44:11.501Z</time></trkpt><trkpt lat="43.4669246" lon="12.707306"><ele>1455.3333333333335</ele><time>2026-05-01T12:44:12.501Z</time></trkpt><trkpt lat="43.466917" lon="12.70719"><ele>1460.5</ele><time>2026-05-01T12:44:13.501Z</time></trkpt><trkpt lat="43.4668987" lon="12.7070808"><ele>1465.6666666666667</ele><time>2026-05-01T12:44:14.501Z</time></trkpt><trkpt lat="43.4668793" lon="12.7069731"><ele>1470.8333333333333</ele><time>2026-05-01T12:44:15.501Z</time></trkpt><trkpt lat="43.46685" lon="12.70686"><ele>1476.0</ele><time>2026-05-01T12:44:16.501Z</time></trkpt><trkpt lat="43.4668217" lon="12.7067392"><ele>1476.0</ele><time>2026-05-01T12:44:17.501Z</time></trkpt><trkpt lat="43.4668168" lon="12.7066252"><ele>1476.0</ele><time>2026-05-01T12:44:18.501Z</time></trkpt><trkpt lat="43.4668381" lon="12.706506"><ele>1476.0</ele><time>2026-05-01T12:44:19.501Z</time></trkpt><trkpt lat="43.4668844" lon="12.7063686"><ele>1476.0</ele><time>2026-05-01T12:44:20.501Z</time></trkpt><trkpt lat="43.4669443" lon="12.7062188"><ele>1476.0</ele><time>2026-05-01T12:44:21.501Z</time></trkpt><trkpt lat="43.4670054" lon="12.7060702"><ele>1477.25</ele><time>2026-05-01T12:44:22.501Z</time></trkpt><trkpt lat="43.4670548" lon="12.7058753"><ele>1478.5</ele><time>2026-05-01T12:44:23.5Z</time></trkpt><trkpt lat="43.4670999" lon="12.7056866"><ele>1479.75</ele><time>2026-05-01T12:44:24.501Z</time></trkpt><trkpt lat="43.4671421" lon="12.7055099"><ele>1481.0</ele><time>2026-05-01T12:44:25.501Z</time></trkpt><trkpt lat="43.4671661" lon="12.7053343"><ele>1480.8</ele><time>2026-05-01T12:44:26.5Z</time></trkpt><trkpt lat="43.4671731" lon="12.7051762"><ele>1480.6</ele><time>2026-05-01T12:44:27.5Z</time></trkpt><trkpt lat="43.4671733" lon="12.7050521"><ele>1480.4</ele><time>2026-05-01T12:44:28.501Z</time></trkpt><trkpt lat="43.4671587" lon="12.7049376"><ele>1480.2</ele><time>2026-05-01T12:44:29.501Z</time></trkpt><trkpt lat="43.4670938" lon="12.7048238"><ele>1480.0</ele><time>2026-05-01T12:44:31.5Z</time></trkpt><trkpt lat="43.4670621" lon="12.7047286"><ele>1480.0</ele><time>2026-05-01T12:44:34.501Z</time></trkpt><trkpt lat="43.467084" lon="12.7046392"><ele>1480.0</ele><time>2026-05-01T12:50:32.502Z</time></trkpt><trkpt lat="43.4670442" lon="12.7045178"><ele>1480.0</ele><time>2026-05-01T12:50:34.502Z</time></trkpt><trkpt lat="43.4669839" lon="12.7043916"><ele>1480.0</ele><time>2026-05-01T12:50:36.502Z</time></trkpt><trkpt lat="43.4669833" lon="12.70424"><ele>1480.0</ele><time>2026-05-01T12:50:38.502Z</time></trkpt><trkpt lat="43.4670101" lon="12.7041331"><ele>1478.6666666666665</ele><time>2026-05-01T12:50:39.501Z</time></trkpt><trkpt lat="43.4670369" lon="12.704019"><ele>1477.3333333333333</ele><time>2026-05-01T12:50:40.502Z</time></trkpt><trkpt lat="43.467073" lon="12.7039222"><ele>1476.0</ele><time>2026-05-01T12:50:41.502Z</time></trkpt><trkpt lat="43.4671186" lon="12.7038308"><ele>1474.6666666666667</ele><time>2026-05-01T12:50:42.502Z</time></trkpt><trkpt lat="43.4671785" lon="12.7037384"><ele>1473.3333333333335</ele><time>2026-05-01T12:50:43.502Z</time></trkpt><trkpt lat="43.4672562" lon="12.7036692"><ele>1472.0</ele><time>2026-05-01T12:50:44.501Z</time></trkpt><trkpt lat="43.4673374" lon="12.7036045"><ele>1466.3999999999999</ele><time>2026-05-01T12:50:45.502Z</time></trkpt><trkpt lat="43.4674211" lon="12.7035402"><ele>1460.8</ele><time>2026-05-01T12:50:46.502Z</time></trkpt><trkpt lat="43.4675026" lon="12.7034691"><ele>1455.2</ele><time>2026-05-01T12:50:47.502Z</time></trkpt><trkpt lat="43.4675789" lon="12.7033897"><ele>1449.6</ele><time>2026-05-01T12:50:48.502Z</time></trkpt><trkpt lat="43.4676537" lon="12.703304"><ele>1444.0</ele><time>2026-05-01T12:50:49.501Z</time></trkpt><trkpt lat="43.4677208" lon="12.7032122"><ele>1444.0</ele><time>2026-05-01T12:50:50.502Z</time></trkpt><trkpt lat="43.4677894" lon="12.7031192"><ele>1444.0</ele><time>2026-05-01T12:50:51.502Z</time></trkpt><trkpt lat="43.4678712" lon="12.703049"><ele>1444.0</ele><time>2026-05-01T12:50:52.502Z</time></trkpt><trkpt lat="43.4679624" lon="12.7030062"><ele>1444.0</ele><time>2026-05-01T12:50:53.502Z</time></trkpt><trkpt lat="43.4680568" lon="12.7029597"><ele>1444.0</ele><time>2026-05-01T12:50:54.502Z</time></trkpt><trkpt lat="43.4681472" lon="12.7029125"><ele>1443.2</ele><time>2026-05-01T12:50:55.502Z</time></trkpt><trkpt lat="43.4682385" lon="12.7028472"><ele>1442.4</ele><time>2026-05-01T12:50:56.502Z</time></trkpt><trkpt lat="43.4683276" lon="12.7027712"><ele>1441.6</ele><time>2026-05-01T12:50:57.502Z</time></trkpt><trkpt lat="43.4684164" lon="12.7026935"><ele>1440.8</ele><time>2026-05-01T12:50:58.502Z</time></trkpt><trkpt lat="43.4685034" lon="12.7026119"><ele>1440.0</ele><time>2026-05-01T12:50:59.502Z</time></trkpt><trkpt lat="43.4685889" lon="12.7025331"><ele>1440.0</ele><time>2026-05-01T12:51:00.502Z</time></trkpt><trkpt lat="43.4686714" lon="12.7024591"><ele>1440.0</ele><time>2026-05-01T12:51:01.502Z</time></trkpt><trkpt lat="43.4687539" lon="12.7023708"><ele>1440.0</ele><time>2026-05-01T12:51:02.502Z</time></trkpt><trkpt lat="43.4688337" lon="12.7022599"><ele>1440.0</ele><time>2026-05-01T12:51:03.502Z</time></trkpt><trkpt lat="43.4689008" lon="12.7021298"><ele>1440.0</ele><time>2026-05-01T12:51:04.502Z</time></trkpt><trkpt lat="43.4689717" lon="12.7019923"><ele>1435.25</ele><time>2026-05-01T12:51:05.502Z</time></trkpt><trkpt lat="43.4690341" lon="12.7018537"><ele>1430.5</ele><time>2026-05-01T12:51:06.502Z</time></trkpt><trkpt lat="43.4690922" lon="12.7017003"><ele>1425.75</ele><time>2026-05-01T12:51:07.501Z</time></trkpt><trkpt lat="43.4691531" lon="12.7015392"><ele>1421.0</ele><time>2026-05-01T12:51:08.502Z</time></trkpt><trkpt lat="43.4692206" lon="12.7013889"><ele>1421.0</ele><time>2026-05-01T12:51:09.502Z</time></trkpt><trkpt lat="43.4692838" lon="12.7012504"><ele>1421.0</ele><time>2026-05-01T12:51:10.502Z</time></trkpt><trkpt lat="43.4693386" lon="12.7011308"><ele>1421.0</ele><time>2026-05-01T12:51:11.502Z</time></trkpt><trkpt lat="43.4693694" lon="12.7010198"><ele>1421.0</ele><time>2026-05-01T12:51:12.502Z</time></trkpt><trkpt lat="43.4694045" lon="12.7009198"><ele>1421.0</ele><time>2026-05-01T12:51:13.502Z</time></trkpt><trkpt lat="43.4694667" lon="12.7008387"><ele>1421.3333333333335</ele><time>2026-05-01T12:51:14.502Z</time></trkpt><trkpt lat="43.4695419" lon="12.7007835"><ele>1421.6666666666667</ele><time>2026-05-01T12:51:15.501Z</time></trkpt><trkpt lat="43.4696202" lon="12.7007499"><ele>1422.0</ele><time>2026-05-01T12:51:16.501Z</time></trkpt><trkpt lat="43.4697046" lon="12.7007164"><ele>1422.3333333333333</ele><time>2026-05-01T12:51:17.501Z</time></trkpt><trkpt lat="43.4697892" lon="12.7006924"><ele>1422.6666666666665</ele><time>2026-05-01T12:51:18.502Z</time></trkpt><trkpt lat="43.4698878" lon="12.7006766"><ele>1423.0</ele><time>2026-05-01T12:51:19.502Z</time></trkpt><trkpt lat="43.4699913" lon="12.7006621"><ele>1420.6000000000001</ele><time>2026-05-01T12:51:20.502Z</time></trkpt><trkpt lat="43.4701032" lon="12.7006538"><ele>1418.2</ele><time>2026-05-01T12:51:21.501Z</time></trkpt><trkpt lat="43.4702112" lon="12.7006447"><ele>1415.8</ele><time>2026-05-01T12:51:22.502Z</time></trkpt><trkpt lat="43.470318" lon="12.7006471"><ele>1413.4</ele><time>2026-05-01T12:51:23.501Z</time></trkpt><trkpt lat="43.4704279" lon="12.7006522"><ele>1411.0</ele><time>2026-05-01T12:51:24.501Z</time></trkpt><trkpt lat="43.4705366" lon="12.7006588"><ele>1408.5</ele><time>2026-05-01T12:51:25.502Z</time></trkpt><trkpt lat="43.4706287" lon="12.700669"><ele>1406.0</ele><time>2026-05-01T12:51:26.502Z</time></trkpt><trkpt lat="43.4707138" lon="12.7006652"><ele>1403.5</ele><time>2026-05-01T12:51:27.501Z</time></trkpt><trkpt lat="43.4707851" lon="12.7006294"><ele>1401.0</ele><time>2026-05-01T12:51:28.502Z</time></trkpt><trkpt lat="43.4708363" lon="12.7004779"><ele>1398.5</ele><time>2026-05-01T12:51:30.502Z</time></trkpt><trkpt lat="43.4708364" lon="12.7003845"><ele>1396.0</ele><time>2026-05-01T12:51:31.502Z</time></trkpt><trkpt lat="43.4708187" lon="12.7002896"><ele>1395.8</ele><time>2026-05-01T12:51:32.502Z</time></trkpt><trkpt lat="43.4707856" lon="12.7001875"><ele>1395.6</ele><time>2026-05-01T12:51:33.502Z</time></trkpt><trkpt lat="43.4707386" lon="12.7000729"><ele>1395.4</ele><time>2026-05-01T12:51:34.502Z</time></trkpt><trkpt lat="43.4706791" lon="12.6999532"><ele>1395.2</ele><time>2026-05-01T12:51:35.501Z</time></trkpt><trkpt lat="43.4706196" lon="12.6998275"><ele>1395.0</ele><time>2026-05-01T12:51:36.502Z</time></trkpt><trkpt lat="43.4705518" lon="12.6996938"><ele>1395.0</ele><time>2026-05-01T12:51:37.502Z</time></trkpt><trkpt lat="43.4704703" lon="12.6995617"><ele>1395.0</ele><time>2026-05-01T12:51:38.502Z</time></trkpt><trkpt lat="43.4703897" lon="12.6994389"><ele>1395.0</ele><time>2026-05-01T12:51:39.501Z</time></trkpt><trkpt lat="43.4703096" lon="12.6993357"><ele>1395.0</ele><time>2026-05-01T12:51:40.502Z</time></trkpt><trkpt lat="43.4702333" lon="12.6992381"><ele>1395.6666666666667</ele><time>2026-05-01T12:51:41.501Z</time></trkpt><trkpt lat="43.4701666" lon="12.6991468"><ele>1396.3333333333333</ele><time>2026-05-01T12:51:42.502Z</time></trkpt><trkpt lat="43.4701012" lon="12.6990641"><ele>1397.0</ele><time>2026-05-01T12:51:43.502Z</time></trkpt><trkpt lat="43.4700322" lon="12.6990131"><ele>1397.6666666666665</ele><time>2026-05-01T12:51:44.502Z</time></trkpt><trkpt lat="43.4699682" lon="12.6989655"><ele>1398.3333333333333</ele><time>2026-05-01T12:51:45.502Z</time></trkpt><trkpt lat="43.4699052" lon="12.6989246"><ele>1399.0</ele><time>2026-05-01T12:51:46.501Z</time></trkpt><trkpt lat="43.469801" lon="12.6988656"><ele>1399.0</ele><time>2026-05-01T12:51:48.501Z</time></trkpt><trkpt lat="43.4697555" lon="12.6987878"><ele>1399.0</ele><time>2026-05-01T12:51:50.502Z</time></trkpt><trkpt lat="43.469789" lon="12.6986871"><ele>1399.0</ele><time>2026-05-01T12:51:52.501Z</time></trkpt><trkpt lat="43.4698806" lon="12.698677"><ele>1399.0</ele><time>2026-05-01T12:51:54.501Z</time></trkpt><trkpt lat="43.469944" lon="12.6987013"><ele>1399.0</ele><time>2026-05-01T12:51:55.501Z</time></trkpt><trkpt lat="43.4700175" lon="12.6987413"><ele>1399.0</ele><time>2026-05-01T12:51:56.502Z</time></trkpt><trkpt lat="43.47011" lon="12.6988008"><ele>1399.0</ele><time>2026-05-01T12:51:57.502Z</time></trkpt><trkpt lat="43.4702049" lon="12.6988568"><ele>1399.0</ele><time>2026-05-01T12:51:58.502Z</time></trkpt><trkpt lat="43.4702953" lon="12.6989156"><ele>1399.0</ele><time>2026-05-01T12:51:59.501Z</time></trkpt><trkpt lat="43.4703789" lon="12.6989839"><ele>1399.0</ele><time>2026-05-01T12:52:00.501Z</time></trkpt><trkpt lat="43.4704481" lon="12.6990514"><ele>1399.0</ele><time>2026-05-01T12:52:01.502Z</time></trkpt><trkpt lat="43.4705088" lon="12.6991154"><ele>1395.5</ele><time>2026-05-01T12:52:02.502Z</time></trkpt><trkpt lat="43.4705591" lon="12.6991815"><ele>1392.0</ele><time>2026-05-01T12:52:03.502Z</time></trkpt><trkpt lat="43.4706457" lon="12.6992786"><ele>1388.5</ele><time>2026-05-01T12:52:05.502Z</time></trkpt><trkpt lat="43.4707126" lon="12.6993431"><ele>1385.0</ele><time>2026-05-01T12:52:07.501Z</time></trkpt><trkpt lat="43.4707836" lon="12.6993104"><ele>1381.5</ele><time>2026-05-01T12:52:09.502Z</time></trkpt><trkpt lat="43.4708041" lon="12.6991689"><ele>1378.0</ele><time>2026-05-01T12:52:11.501Z</time></trkpt><trkpt lat="43.4707546" lon="12.6990782"><ele>1378.0</ele><time>2026-05-01T12:52:12.502Z</time></trkpt><trkpt lat="43.4706863" lon="12.6989747"><ele>1378.0</ele><time>2026-05-01T12:52:13.501Z</time></trkpt><trkpt lat="43.4706175" lon="12.6988469"><ele>1378.0</ele><time>2026-05-01T12:52:14.501Z</time></trkpt><trkpt lat="43.4705549" lon="12.6987146"><ele>1378.0</ele><time>2026-05-01T12:52:15.502Z</time></trkpt><trkpt lat="43.4704972" lon="12.6985837"><ele>1378.0</ele><time>2026-05-01T12:52:16.502Z</time></trkpt><trkpt lat="43.4704397" lon="12.6984504"><ele>1378.6000000000001</ele><time>2026-05-01T12:52:17.502Z</time></trkpt><trkpt lat="43.4703745" lon="12.6983277"><ele>1379.2</ele><time>2026-05-01T12:52:18.502Z</time></trkpt><trkpt lat="43.4703177" lon="12.6982159"><ele>1379.8</ele><time>2026-05-01T12:52:19.501Z</time></trkpt><trkpt lat="43.470261" lon="12.6981098"><ele>1380.4</ele><time>2026-05-01T12:52:20.501Z</time></trkpt><trkpt lat="43.4702007" lon="12.6980132"><ele>1381.0</ele><time>2026-05-01T12:52:21.502Z</time></trkpt><trkpt lat="43.4701399" lon="12.6979372"><ele>1381.0</ele><time>2026-05-01T12:52:22.502Z</time></trkpt><trkpt lat="43.4700871" lon="12.6978818"><ele>1381.0</ele><time>2026-05-01T12:52:23.502Z</time></trkpt><trkpt lat="43.4699965" lon="12.6977771"><ele>1381.0</ele><time>2026-05-01T12:52:25.502Z</time></trkpt><trkpt lat="43.4699293" lon="12.69766"><ele>1381.0</ele><time>2026-05-01T12:52:27.502Z</time></trkpt><trkpt lat="43.4698845" lon="12.6975614"><ele>1381.0</ele><time>2026-05-01T12:52:30.502Z</time></trkpt><trkpt lat="43.4699169" lon="12.6974841"><ele>1381.0</ele><time>2026-05-01T12:53:14.502Z</time></trkpt><trkpt lat="43.4699918" lon="12.6972831"><ele>1378.6666666666665</ele><time>2026-05-01T12:59:57.502Z</time></trkpt><trkpt lat="43.4700341" lon="12.6971228"><ele>1376.3333333333333</ele><time>2026-05-01T12:59:59.503Z</time></trkpt><trkpt lat="43.4700373" lon="12.6970304"><ele>1374.0</ele><time>2026-05-01T13:00:00.503Z</time></trkpt><trkpt lat="43.4700317" lon="12.6969362"><ele>1371.6666666666667</ele><time>2026-05-01T13:00:01.503Z</time></trkpt><trkpt lat="43.4700316" lon="12.6968389"><ele>1369.3333333333335</ele><time>2026-05-01T13:00:02.502Z</time></trkpt><trkpt lat="43.4700248" lon="12.6967305"><ele>1367.0</ele><time>2026-05-01T13:00:03.502Z</time></trkpt><trkpt lat="43.4700104" lon="12.6966231"><ele>1366.1999999999998</ele><time>2026-05-01T13:00:04.503Z</time></trkpt><trkpt lat="43.4699983" lon="12.6965036"><ele>1365.4</ele><time>2026-05-01T13:00:05.503Z</time></trkpt><trkpt lat="43.4699841" lon="12.6963758"><ele>1364.6</ele><time>2026-05-01T13:00:06.503Z</time></trkpt><trkpt lat="43.4699766" lon="12.6962396"><ele>1363.8000000000002</ele><time>2026-05-01T13:00:07.502Z</time></trkpt><trkpt lat="43.469972" lon="12.6961167"><ele>1363.0</ele><time>2026-05-01T13:00:08.502Z</time></trkpt><trkpt lat="43.4699644" lon="12.6959728"><ele>1361.5</ele><time>2026-05-01T13:00:09.503Z</time></trkpt><trkpt lat="43.4699477" lon="12.695817"><ele>1360.0</ele><time>2026-05-01T13:00:10.503Z</time></trkpt><trkpt lat="43.4699396" lon="12.6956599"><ele>1358.5</ele><time>2026-05-01T13:00:11.502Z</time></trkpt><trkpt lat="43.4699359" lon="12.6955058"><ele>1357.0</ele><time>2026-05-01T13:00:12.503Z</time></trkpt><trkpt lat="43.4699412" lon="12.6953491"><ele>1357.75</ele><time>2026-05-01T13:00:13.502Z</time></trkpt><trkpt lat="43.4699643" lon="12.6951937"><ele>1358.5</ele><time>2026-05-01T13:00:14.502Z</time></trkpt><trkpt lat="43.4700013" lon="12.695041"><ele>1359.25</ele><time>2026-05-01T13:00:15.503Z</time></trkpt><trkpt lat="43.4700544" lon="12.6948979"><ele>1360.0</ele><time>2026-05-01T13:00:16.502Z</time></trkpt><trkpt lat="43.4701254" lon="12.6947644"><ele>1360.0</ele><time>2026-05-01T13:00:17.503Z</time></trkpt><trkpt lat="43.4702106" lon="12.6946523"><ele>1360.0</ele><time>2026-05-01T13:00:18.503Z</time></trkpt><trkpt lat="43.4703093" lon="12.6945579"><ele>1360.0</ele><time>2026-05-01T13:00:19.503Z</time></trkpt><trkpt lat="43.4704138" lon="12.6944698"><ele>1360.0</ele><time>2026-05-01T13:00:20.502Z</time></trkpt><trkpt lat="43.4705216" lon="12.694399"><ele>1362.75</ele><time>2026-05-01T13:00:21.503Z</time></trkpt><trkpt lat="43.4706355" lon="12.6943281"><ele>1365.5</ele><time>2026-05-01T13:00:22.502Z</time></trkpt><trkpt lat="43.4707506" lon="12.6942624"><ele>1368.25</ele><time>2026-05-01T13:00:23.502Z</time></trkpt><trkpt lat="43.47087" lon="12.6941976"><ele>1371.0</ele><time>2026-05-01T13:00:24.502Z</time></trkpt><trkpt lat="43.4710158" lon="12.6940909"><ele>1371.0</ele><time>2026-05-01T13:00:25.502Z</time></trkpt><trkpt lat="43.471139" lon="12.6939933"><ele>1371.0</ele><time>2026-05-01T13:00:26.503Z</time></trkpt><trkpt lat="43.4712193" lon="12.6938947"><ele>1371.0</ele><time>2026-05-01T13:00:27.503Z</time></trkpt><trkpt lat="43.4712876" lon="12.6938067"><ele>1371.0</ele><time>2026-05-01T13:00:28.503Z</time></trkpt><trkpt lat="43.4714046" lon="12.6937833"><ele>1373.25</ele><time>2026-05-01T13:00:29.502Z</time></trkpt><trkpt lat="43.4715465" lon="12.6937276"><ele>1375.5</ele><time>2026-05-01T13:00:30.503Z</time></trkpt><trkpt lat="43.4716705" lon="12.6936382"><ele>1377.75</ele><time>2026-05-01T13:00:31.503Z</time></trkpt><trkpt lat="43.4717962" lon="12.6935423"><ele>1380.0</ele><time>2026-05-01T13:00:32.503Z</time></trkpt><trkpt lat="43.4719194" lon="12.6934417"><ele>1380.0</ele><time>2026-05-01T13:00:33.503Z</time></trkpt><trkpt lat="43.472034" lon="12.693328"><ele>1380.0</ele><time>2026-05-01T13:00:34.503Z</time></trkpt><trkpt lat="43.4721355" lon="12.6931989"><ele>1380.0</ele><time>2026-05-01T13:00:35.503Z</time></trkpt><trkpt lat="43.4722212" lon="12.6930663"><ele>1380.0</ele><time>2026-05-01T13:00:36.502Z</time></trkpt><trkpt lat="43.4722917" lon="12.6929284"><ele>1376.75</ele><time>2026-05-01T13:00:37.503Z</time></trkpt><trkpt lat="43.4723454" lon="12.6927756"><ele>1373.5</ele><time>2026-05-01T13:00:38.503Z</time></trkpt><trkpt lat="43.4723904" lon="12.6926052"><ele>1370.25</ele><time>2026-05-01T13:00:39.503Z</time></trkpt><trkpt lat="43.4724098" lon="12.6924118"><ele>1367.0</ele><time>2026-05-01T13:00:40.503Z</time></trkpt><trkpt lat="43.4724033" lon="12.6921985"><ele>1367.0</ele><time>2026-05-01T13:00:41.503Z</time></trkpt><trkpt lat="43.4723981" lon="12.6919925"><ele>1367.0</ele><time>2026-05-01T13:00:42.502Z</time></trkpt><trkpt lat="43.4723961" lon="12.6917932"><ele>1367.0</ele><time>2026-05-01T13:00:43.503Z</time></trkpt><trkpt lat="43.4723964" lon="12.6915998"><ele>1367.0</ele><time>2026-05-01T13:00:44.503Z</time></trkpt><trkpt lat="43.4723944" lon="12.6914025"><ele>1367.25</ele><time>2026-05-01T13:00:45.502Z</time></trkpt><trkpt lat="43.4723947" lon="12.6912046"><ele>1367.5</ele><time>2026-05-01T13:00:46.503Z</time></trkpt><trkpt lat="43.4723937" lon="12.6910106"><ele>1367.75</ele><time>2026-05-01T13:00:47.502Z</time></trkpt><trkpt lat="43.472395" lon="12.6908227"><ele>1368.0</ele><time>2026-05-01T13:00:48.503Z</time></trkpt><trkpt lat="43.4723943" lon="12.6906332"><ele>1368.0</ele><time>2026-05-01T13:00:49.503Z</time></trkpt><trkpt lat="43.4723895" lon="12.6904643"><ele>1368.0</ele><time>2026-05-01T13:00:50.503Z</time></trkpt><trkpt lat="43.4723988" lon="12.6903068"><ele>1368.0</ele><time>2026-05-01T13:00:51.502Z</time></trkpt><trkpt lat="43.4724218" lon="12.6901597"><ele>1368.0</ele><time>2026-05-01T13:00:52.503Z</time></trkpt><trkpt lat="43.4724564" lon="12.6900216"><ele>1369.2</ele><time>2026-05-01T13:00:53.503Z</time></trkpt><trkpt lat="43.4725206" lon="12.6899054"><ele>1370.4</ele><time>2026-05-01T13:00:54.503Z</time></trkpt><trkpt lat="43.4726051" lon="12.6897962"><ele>1371.6000000000001</ele><time>2026-05-01T13:00:55.503Z</time></trkpt><trkpt lat="43.4726942" lon="12.6897012"><ele>1372.8000000000002</ele><time>2026-05-01T13:00:56.503Z</time></trkpt><trkpt lat="43.4727937" lon="12.6896327"><ele>1374.0</ele><time>2026-05-01T13:00:57.503Z</time></trkpt><trkpt lat="43.4729031" lon="12.6895988"><ele>1374.25</ele><time>2026-05-01T13:00:58.503Z</time></trkpt><trkpt lat="43.4730223" lon="12.6896088"><ele>1374.5</ele><time>2026-05-01T13:00:59.503Z</time></trkpt><trkpt lat="43.4731381" lon="12.6896506"><ele>1374.75</ele><time>2026-05-01T13:01:00.502Z</time></trkpt><trkpt lat="43.4732545" lon="12.6896972"><ele>1375.0</ele><time>2026-05-01T13:01:01.503Z</time></trkpt><trkpt lat="43.4733793" lon="12.6897282"><ele>1375.0</ele><time>2026-05-01T13:01:02.503Z</time></trkpt><trkpt lat="43.4735027" lon="12.689747"><ele>1375.0</ele><time>2026-05-01T13:01:03.503Z</time></trkpt><trkpt lat="43.4736234" lon="12.689779"><ele>1375.0</ele><time>2026-05-01T13:01:04.503Z</time></trkpt><trkpt lat="43.4737338" lon="12.6898178"><ele>1375.0</ele><time>2026-05-01T13:01:05.503Z</time></trkpt><trkpt lat="43.473837" lon="12.6898692"><ele>1379.75</ele><time>2026-05-01T13:01:06.503Z</time></trkpt><trkpt lat="43.4739558" lon="12.6899378"><ele>1384.5</ele><time>2026-05-01T13:01:07.503Z</time></trkpt><trkpt lat="43.4740691" lon="12.6900299"><ele>1389.25</ele><time>2026-05-01T13:01:08.503Z</time></trkpt><trkpt lat="43.4741814" lon="12.6901244"><ele>1394.0</ele><time>2026-05-01T13:01:09.502Z</time></trkpt><trkpt lat="43.4742805" lon="12.6902147"><ele>1394.4</ele><time>2026-05-01T13:01:10.503Z</time></trkpt><trkpt lat="43.4743783" lon="12.690277"><ele>1394.8000000000002</ele><time>2026-05-01T13:01:11.502Z</time></trkpt><trkpt lat="43.474494" lon="12.6903377"><ele>1395.1999999999998</ele><time>2026-05-01T13:01:12.503Z</time></trkpt><trkpt lat="43.4745867" lon="12.6904098"><ele>1395.6</ele><time>2026-05-01T13:01:13.503Z</time></trkpt><trkpt lat="43.4746506" lon="12.6904942"><ele>1396.0</ele><time>2026-05-01T13:01:14.502Z</time></trkpt><trkpt lat="43.4747211" lon="12.6905894"><ele>1396.0</ele><time>2026-05-01T13:01:15.503Z</time></trkpt><trkpt lat="43.474808" lon="12.6906772"><ele>1396.0</ele><time>2026-05-01T13:01:16.503Z</time></trkpt><trkpt lat="43.4748768" lon="12.6908377"><ele>1396.0</ele><time>2026-05-01T13:01:17.502Z</time></trkpt><trkpt lat="43.474946" lon="12.6910273"><ele>1396.0</ele><time>2026-05-01T13:01:18.502Z</time></trkpt><trkpt lat="43.4749815" lon="12.691221"><ele>1392.0</ele><time>2026-05-01T13:01:19.503Z</time></trkpt><trkpt lat="43.4750199" lon="12.6913849"><ele>1388.0</ele><time>2026-05-01T13:01:20.503Z</time></trkpt><trkpt lat="43.4750567" lon="12.6915386"><ele>1384.0</ele><time>2026-05-01T13:01:21.503Z</time></trkpt><trkpt lat="43.4750964" lon="12.6917072"><ele>1380.0</ele><time>2026-05-01T13:01:22.503Z</time></trkpt><trkpt lat="43.4751474" lon="12.6918563"><ele>1377.0</ele><time>2026-05-01T13:01:23.502Z</time></trkpt><trkpt lat="43.4752089" lon="12.6920225"><ele>1374.0</ele><time>2026-05-01T13:01:24.503Z</time></trkpt><trkpt lat="43.4752669" lon="12.6921738"><ele>1371.0</ele><time>2026-05-01T13:01:25.502Z</time></trkpt><trkpt lat="43.4753343" lon="12.6923592"><ele>1368.0</ele><time>2026-05-01T13:01:26.503Z</time></trkpt><trkpt lat="43.4754078" lon="12.6925356"><ele>1372.5</ele><time>2026-05-01T13:01:27.503Z</time></trkpt><trkpt lat="43.4754682" lon="12.6927048"><ele>1377.0</ele><time>2026-05-01T13:01:28.503Z</time></trkpt><trkpt lat="43.4755325" lon="12.6928673"><ele>1381.5</ele><time>2026-05-01T13:01:29.503Z</time></trkpt><trkpt lat="43.4756005" lon="12.693022"><ele>1386.0</ele><time>2026-05-01T13:01:30.503Z</time></trkpt><trkpt lat="43.4756613" lon="12.6931754"><ele>1386.0</ele><time>2026-05-01T13:01:31.503Z</time></trkpt><trkpt lat="43.4757183" lon="12.6933438"><ele>1386.0</ele><time>2026-05-01T13:01:32.502Z</time></trkpt><trkpt lat="43.4757745" lon="12.6935078"><ele>1386.0</ele><time>2026-05-01T13:01:33.503Z</time></trkpt><trkpt lat="43.4758311" lon="12.6936701"><ele>1386.0</ele><time>2026-05-01T13:01:34.502Z</time></trkpt><trkpt lat="43.4758903" lon="12.6938165"><ele>1382.5</ele><time>2026-05-01T13:01:35.503Z</time></trkpt><trkpt lat="43.4759497" lon="12.6939522"><ele>1379.0</ele><time>2026-05-01T13:01:36.503Z</time></trkpt><trkpt lat="43.4759956" lon="12.6940933"><ele>1375.5</ele><time>2026-05-01T13:01:37.502Z</time></trkpt><trkpt lat="43.4760261" lon="12.6942486"><ele>1372.0</ele><time>2026-05-01T13:01:38.503Z</time></trkpt><trkpt lat="43.4760426" lon="12.6944162"><ele>1368.5</ele><time>2026-05-01T13:01:39.503Z</time></trkpt><trkpt lat="43.4760713" lon="12.6945983"><ele>1365.0</ele><time>2026-05-01T13:01:40.503Z</time></trkpt><trkpt lat="43.4761097" lon="12.6947866"><ele>1361.5</ele><time>2026-05-01T13:01:41.502Z</time></trkpt><trkpt lat="43.4761479" lon="12.6949846"><ele>1358.0</ele><time>2026-05-01T13:01:42.503Z</time></trkpt><trkpt lat="43.4761821" lon="12.695186"><ele>1355.75</ele><time>2026-05-01T13:01:43.503Z</time></trkpt><trkpt lat="43.4762139" lon="12.695375"><ele>1353.5</ele><time>2026-05-01T13:01:44.502Z</time></trkpt><trkpt lat="43.4762421" lon="12.6955487"><ele>1351.25</ele><time>2026-05-01T13:01:45.503Z</time></trkpt><trkpt lat="43.4762734" lon="12.6957046"><ele>1349.0</ele><time>2026-05-01T13:01:46.503Z</time></trkpt><trkpt lat="43.4763109" lon="12.6958595"><ele>1352.25</ele><time>2026-05-01T13:01:47.503Z</time></trkpt><trkpt lat="43.4763424" lon="12.6960183"><ele>1355.5</ele><time>2026-05-01T13:01:48.503Z</time></trkpt><trkpt lat="43.4763779" lon="12.6961754"><ele>1358.75</ele><time>2026-05-01T13:01:49.503Z</time></trkpt><trkpt lat="43.4764212" lon="12.6963179"><ele>1362.0</ele><time>2026-05-01T13:01:50.502Z</time></trkpt><trkpt lat="43.4764811" lon="12.6964577"><ele>1362.0</ele><time>2026-05-01T13:01:51.503Z</time></trkpt><trkpt lat="43.4765521" lon="12.6965862"><ele>1362.0</ele><time>2026-05-01T13:01:52.503Z</time></trkpt><trkpt lat="43.4766409" lon="12.6967098"><ele>1362.0</ele><time>2026-05-01T13:01:53.503Z</time></trkpt><trkpt lat="43.4767431" lon="12.6968144"><ele>1362.0</ele><time>2026-05-01T13:01:54.503Z</time></trkpt><trkpt lat="43.4768397" lon="12.6969051"><ele>1360.75</ele><time>2026-05-01T13:01:55.503Z</time></trkpt><trkpt lat="43.4769329" lon="12.6969752"><ele>1359.5</ele><time>2026-05-01T13:01:56.503Z</time></trkpt><trkpt lat="43.4770373" lon="12.6970472"><ele>1358.25</ele><time>2026-05-01T13:01:57.503Z</time></trkpt><trkpt lat="43.4771457" lon="12.6971065"><ele>1357.0</ele><time>2026-05-01T13:01:58.503Z</time></trkpt><trkpt lat="43.477255" lon="12.6971502"><ele>1357.0</ele><time>2026-05-01T13:01:59.503Z</time></trkpt><trkpt lat="43.4773718" lon="12.6971826"><ele>1357.0</ele><time>2026-05-01T13:02:00.503Z</time></trkpt><trkpt lat="43.4774938" lon="12.6972034"><ele>1357.0</ele><time>2026-05-01T13:02:01.502Z</time></trkpt><trkpt lat="43.4776154" lon="12.6972151"><ele>1357.0</ele><time>2026-05-01T13:02:02.503Z</time></trkpt><trkpt lat="43.4777413" lon="12.6972131"><ele>1357.0</ele><time>2026-05-01T13:02:03.503Z</time></trkpt><trkpt lat="43.4778679" lon="12.6972127"><ele>1357.0</ele><time>2026-05-01T13:02:04.503Z</time></trkpt><trkpt lat="43.4779992" lon="12.6972225"><ele>1357.0</ele><time>2026-05-01T13:02:05.503Z</time></trkpt><trkpt lat="43.478122" lon="12.697233"><ele>1357.0</ele><time>2026-05-01T13:02:06.503Z</time></trkpt><trkpt lat="43.4782435" lon="12.6972519"><ele>1357.6</ele><time>2026-05-01T13:02:07.503Z</time></trkpt><trkpt lat="43.4783512" lon="12.6972787"><ele>1358.1999999999998</ele><time>2026-05-01T13:02:08.503Z</time></trkpt><trkpt lat="43.478463" lon="12.6973088"><ele>1358.8</ele><time>2026-05-01T13:02:09.503Z</time></trkpt><trkpt lat="43.4785723" lon="12.6973501"><ele>1359.4</ele><time>2026-05-01T13:02:10.503Z</time></trkpt><trkpt lat="43.4786754" lon="12.6973862"><ele>1360.0</ele><time>2026-05-01T13:02:11.503Z</time></trkpt><trkpt lat="43.4787816" lon="12.6974045"><ele>1360.0</ele><time>2026-05-01T13:02:12.503Z</time></trkpt><trkpt lat="43.4788782" lon="12.6974128"><ele>1360.0</ele><time>2026-05-01T13:02:13.503Z</time></trkpt><trkpt lat="43.4789745" lon="12.6974112"><ele>1360.0</ele><time>2026-05-01T13:02:14.503Z</time></trkpt><trkpt lat="43.4790773" lon="12.697417"><ele>1360.0</ele><time>2026-05-01T13:02:15.503Z</time></trkpt><trkpt lat="43.4791738" lon="12.6973916"><ele>1360.0</ele><time>2026-05-01T13:02:16.503Z</time></trkpt><trkpt lat="43.4792759" lon="12.6973433"><ele>1360.0</ele><time>2026-05-01T13:02:17.503Z</time></trkpt><trkpt lat="43.479368" lon="12.6972983"><ele>1360.0</ele><time>2026-05-01T13:02:18.503Z</time></trkpt><trkpt lat="43.4794633" lon="12.6972456"><ele>1360.0</ele><time>2026-05-01T13:02:19.503Z</time></trkpt><trkpt lat="43.4795574" lon="12.6971806"><ele>1360.0</ele><time>2026-05-01T13:02:20.503Z</time></trkpt><trkpt lat="43.4796418" lon="12.6970981"><ele>1360.0</ele><time>2026-05-01T13:02:21.503Z</time></trkpt><trkpt lat="43.4797311" lon="12.6969936"><ele>1358.75</ele><time>2026-05-01T13:02:22.503Z</time></trkpt><trkpt lat="43.4798196" lon="12.6968887"><ele>1357.5</ele><time>2026-05-01T13:02:23.503Z</time></trkpt><trkpt lat="43.4799078" lon="12.6967754"><ele>1356.25</ele><time>2026-05-01T13:02:24.503Z</time></trkpt><trkpt lat="43.4799844" lon="12.6966411"><ele>1355.0</ele><time>2026-05-01T13:02:25.503Z</time></trkpt><trkpt lat="43.4800553" lon="12.6965156"><ele>1355.0</ele><time>2026-05-01T13:02:26.502Z</time></trkpt><trkpt lat="43.4801077" lon="12.6963852"><ele>1355.0</ele><time>2026-05-01T13:02:27.503Z</time></trkpt><trkpt lat="43.4801691" lon="12.696263"><ele>1355.0</ele><time>2026-05-01T13:02:28.503Z</time></trkpt><trkpt lat="43.4802314" lon="12.6961314"><ele>1355.0</ele><time>2026-05-01T13:02:29.502Z</time></trkpt><trkpt lat="43.4803051" lon="12.696007"><ele>1355.0</ele><time>2026-05-01T13:02:30.502Z</time></trkpt><trkpt lat="43.4803737" lon="12.6958739"><ele>1351.25</ele><time>2026-05-01T13:02:31.503Z</time></trkpt><trkpt lat="43.4804504" lon="12.6957311"><ele>1347.5</ele><time>2026-05-01T13:02:32.503Z</time></trkpt><trkpt lat="43.4805218" lon="12.6955903"><ele>1343.75</ele><time>2026-05-01T13:02:33.503Z</time></trkpt><trkpt lat="43.4805812" lon="12.6954417"><ele>1340.0</ele><time>2026-05-01T13:02:34.503Z</time></trkpt><trkpt lat="43.480629" lon="12.6952898"><ele>1341.5</ele><time>2026-05-01T13:02:35.503Z</time></trkpt><trkpt lat="43.4806604" lon="12.695122"><ele>1343.0</ele><time>2026-05-01T13:02:36.503Z</time></trkpt><trkpt lat="43.4806799" lon="12.694961"><ele>1344.5</ele><time>2026-05-01T13:02:37.503Z</time></trkpt><trkpt lat="43.4806848" lon="12.6947991"><ele>1346.0</ele><time>2026-05-01T13:02:38.503Z</time></trkpt><trkpt lat="43.4806783" lon="12.6946252"><ele>1346.0</ele><time>2026-05-01T13:02:39.503Z</time></trkpt><trkpt lat="43.4806639" lon="12.6944645"><ele>1346.0</ele><time>2026-05-01T13:02:40.503Z</time></trkpt><trkpt lat="43.4806404" lon="12.6943002"><ele>1346.0</ele><time>2026-05-01T13:02:41.503Z</time></trkpt><trkpt lat="43.4806171" lon="12.6941342"><ele>1346.0</ele><time>2026-05-01T13:02:42.502Z</time></trkpt><trkpt lat="43.4805981" lon="12.6939728"><ele>1346.0</ele><time>2026-05-01T13:02:43.503Z</time></trkpt><trkpt lat="43.4805789" lon="12.6938098"><ele>1346.0</ele><time>2026-05-01T13:02:44.503Z</time></trkpt><trkpt lat="43.480562" lon="12.6936429"><ele>1346.0</ele><time>2026-05-01T13:02:45.502Z</time></trkpt><trkpt lat="43.4805501" lon="12.6934737"><ele>1346.0</ele><time>2026-05-01T13:02:46.502Z</time></trkpt><trkpt lat="43.4805336" lon="12.6933014"><ele>1346.0</ele><time>2026-05-01T13:02:47.503Z</time></trkpt><trkpt lat="43.4805175" lon="12.6931391"><ele>1346.0</ele><time>2026-05-01T13:02:48.503Z</time></trkpt><trkpt lat="43.4804983" lon="12.692975"><ele>1346.0</ele><time>2026-05-01T13:02:49.503Z</time></trkpt><trkpt lat="43.4804852" lon="12.6928078"><ele>1346.0</ele><time>2026-05-01T13:02:50.503Z</time></trkpt><trkpt lat="43.4804772" lon="12.6926399"><ele>1344.75</ele><time>2026-05-01T13:02:51.503Z</time></trkpt><trkpt lat="43.4804629" lon="12.6924705"><ele>1343.5</ele><time>2026-05-01T13:02:52.503Z</time></trkpt><trkpt lat="43.4804476" lon="12.6923071"><ele>1342.25</ele><time>2026-05-01T13:02:53.503Z</time></trkpt><trkpt lat="43.4804201" lon="12.6921577"><ele>1341.0</ele><time>2026-05-01T13:02:54.503Z</time></trkpt><trkpt lat="43.4803909" lon="12.6920306"><ele>1347.6</ele><time>2026-05-01T13:02:55.503Z</time></trkpt><trkpt lat="43.4803693" lon="12.6919106"><ele>1354.1999999999998</ele><time>2026-05-01T13:02:56.502Z</time></trkpt><trkpt lat="43.4803415" lon="12.6917849"><ele>1360.8000000000002</ele><time>2026-05-01T13:02:57.503Z</time></trkpt><trkpt lat="43.4803112" lon="12.6916682"><ele>1367.4</ele><time>2026-05-01T13:02:58.502Z</time></trkpt><trkpt lat="43.480276" lon="12.6915449"><ele>1374.0</ele><time>2026-05-01T13:02:59.503Z</time></trkpt><trkpt lat="43.4802297" lon="12.691421"><ele>1374.0</ele><time>2026-05-01T13:03:00.503Z</time></trkpt><trkpt lat="43.4801738" lon="12.6912999"><ele>1374.0</ele><time>2026-05-01T13:03:01.503Z</time></trkpt><trkpt lat="43.480107" lon="12.691184"><ele>1374.0</ele><time>2026-05-01T13:03:02.503Z</time></trkpt><trkpt lat="43.4800368" lon="12.6910791"><ele>1374.0</ele><time>2026-05-01T13:03:03.503Z</time></trkpt><trkpt lat="43.479971" lon="12.6909614"><ele>1374.0</ele><time>2026-05-01T13:03:04.502Z</time></trkpt><trkpt lat="43.4799163" lon="12.6908389"><ele>1370.6666666666667</ele><time>2026-05-01T13:03:05.502Z</time></trkpt><trkpt lat="43.4798743" lon="12.6907201"><ele>1367.3333333333333</ele><time>2026-05-01T13:03:06.502Z</time></trkpt><trkpt lat="43.4798344" lon="12.6906159"><ele>1364.0</ele><time>2026-05-01T13:03:07.503Z</time></trkpt><trkpt lat="43.4797964" lon="12.6905116"><ele>1360.6666666666665</ele><time>2026-05-01T13:03:08.503Z</time></trkpt><trkpt lat="43.4797518" lon="12.6904036"><ele>1357.3333333333333</ele><time>2026-05-01T13:03:09.502Z</time></trkpt><trkpt lat="43.4797112" lon="12.6902888"><ele>1354.0</ele><time>2026-05-01T13:03:10.503Z</time></trkpt><trkpt lat="43.4796696" lon="12.6901727"><ele>1350.4</ele><time>2026-05-01T13:03:11.503Z</time></trkpt><trkpt lat="43.4796343" lon="12.6900685"><ele>1346.8000000000002</ele><time>2026-05-01T13:03:12.503Z</time></trkpt><trkpt lat="43.4795979" lon="12.6899551"><ele>1343.1999999999998</ele><time>2026-05-01T13:03:13.503Z</time></trkpt><trkpt lat="43.4795623" lon="12.6898387"><ele>1339.6</ele><time>2026-05-01T13:03:14.503Z</time></trkpt><trkpt lat="43.4795308" lon="12.6897061"><ele>1336.0</ele><time>2026-05-01T13:03:15.503Z</time></trkpt><trkpt lat="43.4795119" lon="12.6895617"><ele>1343.0</ele><time>2026-05-01T13:03:16.503Z</time></trkpt><trkpt lat="43.4794989" lon="12.6894128"><ele>1350.0</ele><time>2026-05-01T13:03:17.503Z</time></trkpt><trkpt lat="43.4794872" lon="12.6892585"><ele>1357.0</ele><time>2026-05-01T13:03:18.503Z</time></trkpt><trkpt lat="43.4794876" lon="12.689082"><ele>1364.0</ele><time>2026-05-01T13:03:19.503Z</time></trkpt><trkpt lat="43.4794893" lon="12.6889015"><ele>1364.0</ele><time>2026-05-01T13:03:20.503Z</time></trkpt><trkpt lat="43.4794926" lon="12.6887196"><ele>1364.0</ele><time>2026-05-01T13:03:21.503Z</time></trkpt><trkpt lat="43.4794919" lon="12.6885432"><ele>1364.0</ele><time>2026-05-01T13:03:22.503Z</time></trkpt><trkpt lat="43.4795045" lon="12.6883689"><ele>1364.0</ele><time>2026-05-01T13:03:23.503Z</time></trkpt><trkpt lat="43.4795242" lon="12.6881895"><ele>1363.75</ele><time>2026-05-01T13:03:24.502Z</time></trkpt><trkpt lat="43.4795459" lon="12.6880224"><ele>1363.5</ele><time>2026-05-01T13:03:25.502Z</time></trkpt><trkpt lat="43.4795813" lon="12.6878615"><ele>1363.25</ele><time>2026-05-01T13:03:26.503Z</time></trkpt><trkpt lat="43.4796158" lon="12.687711"><ele>1363.0</ele><time>2026-05-01T13:03:27.503Z</time></trkpt><trkpt lat="43.4796617" lon="12.687574"><ele>1359.1666666666665</ele><time>2026-05-01T13:03:28.502Z</time></trkpt><trkpt lat="43.4797215" lon="12.6874586"><ele>1355.3333333333333</ele><time>2026-05-01T13:03:29.503Z</time></trkpt><trkpt lat="43.4797906" lon="12.6873734"><ele>1351.5</ele><time>2026-05-01T13:03:30.503Z</time></trkpt><trkpt lat="43.4798804" lon="12.6873522"><ele>1347.6666666666667</ele><time>2026-05-01T13:03:32.503Z</time></trkpt><trkpt lat="43.4799455" lon="12.6873759"><ele>1343.8333333333335</ele><time>2026-05-01T13:03:36.503Z</time></trkpt><trkpt lat="43.4800085" lon="12.6873987"><ele>1340.0</ele><time>2026-05-01T13:03:38.502Z</time></trkpt><trkpt lat="43.4801087" lon="12.6874907"><ele>1340.0</ele><time>2026-05-01T13:03:40.503Z</time></trkpt><trkpt lat="43.4801708" lon="12.6875531"><ele>1340.0</ele><time>2026-05-01T13:03:41.503Z</time></trkpt><trkpt lat="43.4802462" lon="12.6876163"><ele>1340.0</ele><time>2026-05-01T13:03:42.503Z</time></trkpt><trkpt lat="43.480323" lon="12.6876639"><ele>1340.0</ele><time>2026-05-01T13:03:43.503Z</time></trkpt><trkpt lat="43.4803962" lon="12.6877243"><ele>1340.0</ele><time>2026-05-01T13:03:44.503Z</time></trkpt><trkpt lat="43.480473" lon="12.6877722"><ele>1340.0</ele><time>2026-05-01T13:03:45.502Z</time></trkpt><trkpt lat="43.4805518" lon="12.6878156"><ele>1334.8</ele><time>2026-05-01T13:03:46.503Z</time></trkpt><trkpt lat="43.4806464" lon="12.68785"><ele>1329.6</ele><time>2026-05-01T13:03:47.503Z</time></trkpt><trkpt lat="43.480754" lon="12.6878688"><ele>1324.4</ele><time>2026-05-01T13:03:48.503Z</time></trkpt><trkpt lat="43.4808682" lon="12.6878771"><ele>1319.2</ele><time>2026-05-01T13:03:49.503Z</time></trkpt><trkpt lat="43.4809768" lon="12.6878911"><ele>1314.0</ele><time>2026-05-01T13:03:50.503Z</time></trkpt><trkpt lat="43.4810742" lon="12.6878912"><ele>1314.0</ele><time>2026-05-01T13:03:51.503Z</time></trkpt><trkpt lat="43.4811668" lon="12.6878748"><ele>1314.0</ele><time>2026-05-01T13:03:52.503Z</time></trkpt><trkpt lat="43.4812606" lon="12.6878257"><ele>1314.0</ele><time>2026-05-01T13:03:53.503Z</time></trkpt><trkpt lat="43.481357" lon="12.6877229"><ele>1314.0</ele><time>2026-05-01T13:03:54.503Z</time></trkpt><trkpt lat="43.4814304" lon="12.6876085"><ele>1314.0</ele><time>2026-05-01T13:03:55.503Z</time></trkpt><trkpt lat="43.4814933" lon="12.6874759"><ele>1313.8333333333333</ele><time>2026-05-01T13:03:56.502Z</time></trkpt><trkpt lat="43.4815387" lon="12.6873478"><ele>1313.6666666666667</ele><time>2026-05-01T13:03:57.503Z</time></trkpt><trkpt lat="43.4815617" lon="12.6872246"><ele>1313.5</ele><time>2026-05-01T13:03:58.503Z</time></trkpt><trkpt lat="43.4815765" lon="12.6871142"><ele>1313.3333333333335</ele><time>2026-05-01T13:03:59.503Z</time></trkpt><trkpt lat="43.4815836" lon="12.6870092"><ele>1313.1666666666667</ele><time>2026-05-01T13:04:00.503Z</time></trkpt><trkpt lat="43.4816038" lon="12.6869175"><ele>1313.0</ele><time>2026-05-01T13:04:01.503Z</time></trkpt><trkpt lat="43.4816539" lon="12.6868166"><ele>1314.8000000000002</ele><time>2026-05-01T13:04:02.503Z</time></trkpt><trkpt lat="43.4817365" lon="12.6867361"><ele>1316.6</ele><time>2026-05-01T13:04:03.503Z</time></trkpt><trkpt lat="43.4818293" lon="12.6866396"><ele>1318.4</ele><time>2026-05-01T13:04:04.502Z</time></trkpt><trkpt lat="43.4819201" lon="12.6865494"><ele>1320.1999999999998</ele><time>2026-05-01T13:04:05.503Z</time></trkpt><trkpt lat="43.4820116" lon="12.6864624"><ele>1322.0</ele><time>2026-05-01T13:04:06.503Z</time></trkpt><trkpt lat="43.4821018" lon="12.6863679"><ele>1320.3999999999999</ele><time>2026-05-01T13:04:07.503Z</time></trkpt><trkpt lat="43.4821886" lon="12.6862704"><ele>1318.8</ele><time>2026-05-01T13:04:08.502Z</time></trkpt><trkpt lat="43.4822686" lon="12.6861681"><ele>1317.2</ele><time>2026-05-01T13:04:09.502Z</time></trkpt><trkpt lat="43.4823381" lon="12.6860691"><ele>1315.6</ele><time>2026-05-01T13:04:10.503Z</time></trkpt><trkpt lat="43.4824108" lon="12.6859881"><ele>1314.0</ele><time>2026-05-01T13:04:11.503Z</time></trkpt><trkpt lat="43.4824906" lon="12.6859387"><ele>1314.0</ele><time>2026-05-01T13:04:12.503Z</time></trkpt><trkpt lat="43.482575" lon="12.68591"><ele>1314.0</ele><time>2026-05-01T13:04:13.503Z</time></trkpt><trkpt lat="43.4826565" lon="12.6859005"><ele>1314.0</ele><time>2026-05-01T13:04:14.502Z</time></trkpt><trkpt lat="43.4827402" lon="12.6859073"><ele>1314.0</ele><time>2026-05-01T13:04:15.503Z</time></trkpt><trkpt lat="43.4828266" lon="12.6859088"><ele>1314.0</ele><time>2026-05-01T13:04:16.503Z</time></trkpt><trkpt lat="43.4829072" lon="12.6859052"><ele>1314.0</ele><time>2026-05-01T13:04:17.503Z</time></trkpt><trkpt lat="43.4829915" lon="12.6858868"><ele>1308.4</ele><time>2026-05-01T13:04:18.503Z</time></trkpt><trkpt lat="43.4830729" lon="12.6858363"><ele>1302.8000000000002</ele><time>2026-05-01T13:04:19.503Z</time></trkpt><trkpt lat="43.4831461" lon="12.6857584"><ele>1297.1999999999998</ele><time>2026-05-01T13:04:20.503Z</time></trkpt><trkpt lat="43.4832145" lon="12.6856583"><ele>1291.6</ele><time>2026-05-01T13:04:21.503Z</time></trkpt><trkpt lat="43.4832909" lon="12.685553"><ele>1286.0</ele><time>2026-05-01T13:04:22.503Z</time></trkpt><trkpt lat="43.4833691" lon="12.685431"><ele>1286.0</ele><time>2026-05-01T13:04:23.502Z</time></trkpt><trkpt lat="43.4834489" lon="12.6853071"><ele>1286.0</ele><time>2026-05-01T13:04:24.503Z</time></trkpt><trkpt lat="43.483531" lon="12.6852023"><ele>1286.0</ele><time>2026-05-01T13:04:25.503Z</time></trkpt><trkpt lat="43.483612" lon="12.6850983"><ele>1286.0</ele><time>2026-05-01T13:04:26.503Z</time></trkpt><trkpt lat="43.4836893" lon="12.6850048"><ele>1286.0</ele><time>2026-05-01T13:04:27.503Z</time></trkpt><trkpt lat="43.4837623" lon="12.6849152"><ele>1283.3333333333335</ele><time>2026-05-01T13:04:28.503Z</time></trkpt><trkpt lat="43.483835" lon="12.6848403"><ele>1280.6666666666667</ele><time>2026-05-01T13:04:29.503Z</time></trkpt><trkpt lat="43.4839049" lon="12.68477"><ele>1278.0</ele><time>2026-05-01T13:04:30.503Z</time></trkpt><trkpt lat="43.4839749" lon="12.6847009"><ele>1275.3333333333333</ele><time>2026-05-01T13:04:31.503Z</time></trkpt><trkpt lat="43.4840408" lon="12.6846311"><ele>1272.6666666666665</ele><time>2026-05-01T13:04:32.503Z</time></trkpt><trkpt lat="43.4840996" lon="12.6845542"><ele>1270.0</ele><time>2026-05-01T13:04:33.503Z</time></trkpt><trkpt lat="43.4841305" lon="12.684446"><ele>1272.4</ele><time>2026-05-01T13:04:34.503Z</time></trkpt><trkpt lat="43.4841303" lon="12.6843176"><ele>1274.8</ele><time>2026-05-01T13:04:35.503Z</time></trkpt><trkpt lat="43.4841227" lon="12.68419"><ele>1277.1999999999998</ele><time>2026-05-01T13:04:36.502Z</time></trkpt><trkpt lat="43.4841054" lon="12.6840595"><ele>1279.6</ele><time>2026-05-01T13:04:37.503Z</time></trkpt><trkpt lat="43.484081" lon="12.6839172"><ele>1282.0</ele><time>2026-05-01T13:04:38.503Z</time></trkpt><trkpt lat="43.4840468" lon="12.6837555"><ele>1282.0</ele><time>2026-05-01T13:04:39.503Z</time></trkpt><trkpt lat="43.4840168" lon="12.6835981"><ele>1282.0</ele><time>2026-05-01T13:04:40.502Z</time></trkpt><trkpt lat="43.4839886" lon="12.6834479"><ele>1282.0</ele><time>2026-05-01T13:04:41.503Z</time></trkpt><trkpt lat="43.483958" lon="12.6833106"><ele>1282.0</ele><time>2026-05-01T13:04:42.503Z</time></trkpt><trkpt lat="43.4839285" lon="12.6831644"><ele>1282.0</ele><time>2026-05-01T13:04:43.503Z</time></trkpt><trkpt lat="43.4839102" lon="12.6830164"><ele>1280.3999999999999</ele><time>2026-05-01T13:04:44.503Z</time></trkpt><trkpt lat="43.4838957" lon="12.6828588"><ele>1278.8</ele><time>2026-05-01T13:04:45.502Z</time></trkpt><trkpt lat="43.4838875" lon="12.6826992"><ele>1277.2</ele><time>2026-05-01T13:04:46.503Z</time></trkpt><trkpt lat="43.4838857" lon="12.6825491"><ele>1275.6</ele><time>2026-05-01T13:04:47.503Z</time></trkpt><trkpt lat="43.4838814" lon="12.682415"><ele>1274.0</ele><time>2026-05-01T13:04:48.502Z</time></trkpt><trkpt lat="43.4838736" lon="12.6822821"><ele>1271.4</ele><time>2026-05-01T13:04:49.502Z</time></trkpt><trkpt lat="43.4838728" lon="12.6821549"><ele>1268.8000000000002</ele><time>2026-05-01T13:04:50.503Z</time></trkpt><trkpt lat="43.4838587" lon="12.6820316"><ele>1266.1999999999998</ele><time>2026-05-01T13:04:51.503Z</time></trkpt><trkpt lat="43.4838292" lon="12.6818971"><ele>1263.6</ele><time>2026-05-01T13:04:52.503Z</time></trkpt><trkpt lat="43.4837984" lon="12.6817586"><ele>1261.0</ele><time>2026-05-01T13:04:53.503Z</time></trkpt><trkpt lat="43.4837615" lon="12.6816165"><ele>1266.0</ele><time>2026-05-01T13:04:54.502Z</time></trkpt><trkpt lat="43.4837222" lon="12.6814625"><ele>1271.0</ele><time>2026-05-01T13:04:55.503Z</time></trkpt><trkpt lat="43.4836775" lon="12.6812994"><ele>1276.0</ele><time>2026-05-01T13:04:56.503Z</time></trkpt><trkpt lat="43.4836219" lon="12.6811472"><ele>1281.0</ele><time>2026-05-01T13:04:57.502Z</time></trkpt><trkpt lat="43.4835775" lon="12.6809997"><ele>1281.0</ele><time>2026-05-01T13:04:58.503Z</time></trkpt><trkpt lat="43.4835325" lon="12.6808687"><ele>1281.0</ele><time>2026-05-01T13:04:59.503Z</time></trkpt><trkpt lat="43.4834906" lon="12.6807364"><ele>1281.0</ele><time>2026-05-01T13:05:00.503Z</time></trkpt><trkpt lat="43.4834427" lon="12.6806211"><ele>1281.0</ele><time>2026-05-01T13:05:01.503Z</time></trkpt><trkpt lat="43.4833895" lon="12.6805056"><ele>1281.0</ele><time>2026-05-01T13:05:02.503Z</time></trkpt><trkpt lat="43.4833271" lon="12.6803816"><ele>1276.3999999999999</ele><time>2026-05-01T13:05:03.502Z</time></trkpt><trkpt lat="43.4832637" lon="12.6802574"><ele>1271.8</ele><time>2026-05-01T13:05:04.503Z</time></trkpt><trkpt lat="43.4831985" lon="12.6801292"><ele>1267.1999999999998</ele><time>2026-05-01T13:05:05.503Z</time></trkpt><trkpt lat="43.4831341" lon="12.6800055"><ele>1262.6</ele><time>2026-05-01T13:05:06.503Z</time></trkpt><trkpt lat="43.4830692" lon="12.6798762"><ele>1258.0</ele><time>2026-05-01T13:05:07.503Z</time></trkpt><trkpt lat="43.4830083" lon="12.6797581"><ele>1258.0</ele><time>2026-05-01T13:05:08.503Z</time></trkpt><trkpt lat="43.482957" lon="12.6796253"><ele>1258.0</ele><time>2026-05-01T13:05:09.503Z</time></trkpt><trkpt lat="43.4828943" lon="12.6794949"><ele>1258.0</ele><time>2026-05-01T13:05:10.503Z</time></trkpt><trkpt lat="43.4828305" lon="12.6793638"><ele>1258.0</ele><time>2026-05-01T13:05:11.503Z</time></trkpt><trkpt lat="43.4827678" lon="12.6792276"><ele>1262.75</ele><time>2026-05-01T13:05:12.503Z</time></trkpt><trkpt lat="43.4827072" lon="12.6790892"><ele>1267.5</ele><time>2026-05-01T13:05:13.503Z</time></trkpt><trkpt lat="43.4826472" lon="12.6789476"><ele>1272.25</ele><time>2026-05-01T13:05:14.503Z</time></trkpt><trkpt lat="43.4825872" lon="12.6788124"><ele>1277.0</ele><time>2026-05-01T13:05:15.503Z</time></trkpt><trkpt lat="43.4825206" lon="12.6786665"><ele>1268.75</ele><time>2026-05-01T13:05:16.503Z</time></trkpt><trkpt lat="43.4824464" lon="12.678519"><ele>1260.5</ele><time>2026-05-01T13:05:17.503Z</time></trkpt><trkpt lat="43.4823677" lon="12.6783803"><ele>1252.25</ele><time>2026-05-01T13:05:18.503Z</time></trkpt><trkpt lat="43.4822888" lon="12.6782467"><ele>1244.0</ele><time>2026-05-01T13:05:19.503Z</time></trkpt><trkpt lat="43.4822071" lon="12.6781169"><ele>1244.0</ele><time>2026-05-01T13:05:20.503Z</time></trkpt><trkpt lat="43.4821225" lon="12.6779894"><ele>1244.0</ele><time>2026-05-01T13:05:21.503Z</time></trkpt><trkpt lat="43.4820409" lon="12.6778622"><ele>1244.0</ele><time>2026-05-01T13:05:22.502Z</time></trkpt><trkpt lat="43.4819658" lon="12.6777374"><ele>1244.0</ele><time>2026-05-01T13:05:23.503Z</time></trkpt><trkpt lat="43.481899" lon="12.6776302"><ele>1246.6000000000001</ele><time>2026-05-01T13:05:24.503Z</time></trkpt><trkpt lat="43.4818441" lon="12.6775322"><ele>1249.2</ele><time>2026-05-01T13:05:25.503Z</time></trkpt><trkpt lat="43.4817958" lon="12.6774305"><ele>1251.8000000000002</ele><time>2026-05-01T13:05:26.502Z</time></trkpt><trkpt lat="43.4817533" lon="12.6773186"><ele>1254.4</ele><time>2026-05-01T13:05:27.502Z</time></trkpt><trkpt lat="43.481698" lon="12.6772009"><ele>1257.0</ele><time>2026-05-01T13:05:28.503Z</time></trkpt><trkpt lat="43.4816324" lon="12.6770761"><ele>1257.0</ele><time>2026-05-01T13:05:29.502Z</time></trkpt><trkpt lat="43.4815521" lon="12.6769512"><ele>1257.0</ele><time>2026-05-01T13:05:30.502Z</time></trkpt><trkpt lat="43.481474" lon="12.6768433"><ele>1257.0</ele><time>2026-05-01T13:05:31.502Z</time></trkpt><trkpt lat="43.4813983" lon="12.6767407"><ele>1257.0</ele><time>2026-05-01T13:05:32.502Z</time></trkpt><trkpt lat="43.4813126" lon="12.6766321"><ele>1258.5</ele><time>2026-05-01T13:05:33.503Z</time></trkpt><trkpt lat="43.481232" lon="12.6765192"><ele>1260.0</ele><time>2026-05-01T13:05:34.503Z</time></trkpt><trkpt lat="43.4811525" lon="12.6764053"><ele>1261.5</ele><time>2026-05-01T13:05:35.503Z</time></trkpt><trkpt lat="43.4810808" lon="12.6762898"><ele>1263.0</ele><time>2026-05-01T13:05:36.503Z</time></trkpt><trkpt lat="43.4810041" lon="12.6761673"><ele>1254.0</ele><time>2026-05-01T13:05:37.502Z</time></trkpt><trkpt lat="43.4809206" lon="12.6760462"><ele>1245.0</ele><time>2026-05-01T13:05:38.503Z</time></trkpt><trkpt lat="43.4808286" lon="12.6759233"><ele>1236.0</ele><time>2026-05-01T13:05:39.503Z</time></trkpt><trkpt lat="43.480736" lon="12.6758088"><ele>1227.0</ele><time>2026-05-01T13:05:40.503Z</time></trkpt><trkpt lat="43.480638" lon="12.6757064"><ele>1227.0</ele><time>2026-05-01T13:05:41.502Z</time></trkpt><trkpt lat="43.4805332" lon="12.6755911"><ele>1227.0</ele><time>2026-05-01T13:05:42.502Z</time></trkpt><trkpt lat="43.4804296" lon="12.6754771"><ele>1227.0</ele><time>2026-05-01T13:05:43.503Z</time></trkpt><trkpt lat="43.4803272" lon="12.6753632"><ele>1227.0</ele><time>2026-05-01T13:05:44.502Z</time></trkpt><trkpt lat="43.4802354" lon="12.6752424"><ele>1227.5</ele><time>2026-05-01T13:05:45.503Z</time></trkpt><trkpt lat="43.4801488" lon="12.6751333"><ele>1228.0</ele><time>2026-05-01T13:05:46.503Z</time></trkpt><trkpt lat="43.48005" lon="12.6750368"><ele>1228.5</ele><time>2026-05-01T13:05:47.503Z</time></trkpt><trkpt lat="43.4799631" lon="12.6749306"><ele>1229.0</ele><time>2026-05-01T13:05:48.503Z</time></trkpt><trkpt lat="43.4798744" lon="12.6748333"><ele>1229.0</ele><time>2026-05-01T13:05:49.503Z</time></trkpt><trkpt lat="43.4797894" lon="12.6747297"><ele>1229.0</ele><time>2026-05-01T13:05:50.503Z</time></trkpt><trkpt lat="43.4797108" lon="12.6746312"><ele>1229.0</ele><time>2026-05-01T13:05:51.503Z</time></trkpt><trkpt lat="43.4796278" lon="12.6745235"><ele>1229.0</ele><time>2026-05-01T13:05:52.503Z</time></trkpt><trkpt lat="43.4795497" lon="12.6744164"><ele>1229.0</ele><time>2026-05-01T13:05:53.503Z</time></trkpt><trkpt lat="43.4794685" lon="12.6743213"><ele>1228.4</ele><time>2026-05-01T13:05:54.503Z</time></trkpt><trkpt lat="43.4793861" lon="12.6742358"><ele>1227.8000000000002</ele><time>2026-05-01T13:05:55.502Z</time></trkpt><trkpt lat="43.4793006" lon="12.6741507"><ele>1227.1999999999998</ele><time>2026-05-01T13:05:56.503Z</time></trkpt><trkpt lat="43.4792231" lon="12.6740793"><ele>1226.6</ele><time>2026-05-01T13:05:57.503Z</time></trkpt><trkpt lat="43.4791435" lon="12.6740108"><ele>1226.0</ele><time>2026-05-01T13:05:58.502Z</time></trkpt><trkpt lat="43.4790645" lon="12.6739312"><ele>1226.0</ele><time>2026-05-01T13:05:59.503Z</time></trkpt><trkpt lat="43.479" lon="12.6738325"><ele>1226.0</ele><time>2026-05-01T13:06:00.502Z</time></trkpt><trkpt lat="43.4789516" lon="12.6737124"><ele>1226.0</ele><time>2026-05-01T13:06:01.503Z</time></trkpt><trkpt lat="43.4789064" lon="12.6735935"><ele>1226.0</ele><time>2026-05-01T13:06:02.503Z</time></trkpt><trkpt lat="43.4788553" lon="12.6734741"><ele>1226.0</ele><time>2026-05-01T13:06:03.503Z</time></trkpt><trkpt lat="43.4787777" lon="12.6733631"><ele>1225.5</ele><time>2026-05-01T13:06:04.502Z</time></trkpt><trkpt lat="43.4786718" lon="12.673251"><ele>1225.0</ele><time>2026-05-01T13:06:05.502Z</time></trkpt><trkpt lat="43.4785642" lon="12.6731607"><ele>1224.5</ele><time>2026-05-01T13:06:06.503Z</time></trkpt><trkpt lat="43.4784668" lon="12.6730536"><ele>1224.0</ele><time>2026-05-01T13:06:07.503Z</time></trkpt><trkpt lat="43.4783634" lon="12.6729371"><ele>1224.0</ele><time>2026-05-01T13:06:08.503Z</time></trkpt><trkpt lat="43.4782628" lon="12.6728239"><ele>1224.0</ele><time>2026-05-01T13:06:09.503Z</time></trkpt><trkpt lat="43.4781623" lon="12.6727156"><ele>1224.0</ele><time>2026-05-01T13:06:10.503Z</time></trkpt><trkpt lat="43.4780684" lon="12.672607"><ele>1224.0</ele><time>2026-05-01T13:06:11.503Z</time></trkpt><trkpt lat="43.4779749" lon="12.6724987"><ele>1221.25</ele><time>2026-05-01T13:06:12.503Z</time></trkpt><trkpt lat="43.4778889" lon="12.6723923"><ele>1218.5</ele><time>2026-05-01T13:06:13.503Z</time></trkpt><trkpt lat="43.4778015" lon="12.6722842"><ele>1215.75</ele><time>2026-05-01T13:06:14.503Z</time></trkpt><trkpt lat="43.4777111" lon="12.6721804"><ele>1213.0</ele><time>2026-05-01T13:06:15.502Z</time></trkpt><trkpt lat="43.4776116" lon="12.6720923"><ele>1213.0</ele><time>2026-05-01T13:06:16.502Z</time></trkpt><trkpt lat="43.4775111" lon="12.6720054"><ele>1213.0</ele><time>2026-05-01T13:06:17.503Z</time></trkpt><trkpt lat="43.4774002" lon="12.6719038"><ele>1213.0</ele><time>2026-05-01T13:06:18.503Z</time></trkpt><trkpt lat="43.4772913" lon="12.6717976"><ele>1213.0</ele><time>2026-05-01T13:06:19.502Z</time></trkpt><trkpt lat="43.4772003" lon="12.6716965"><ele>1211.75</ele><time>2026-05-01T13:06:20.502Z</time></trkpt><trkpt lat="43.477106" lon="12.6715921"><ele>1210.5</ele><time>2026-05-01T13:06:21.503Z</time></trkpt><trkpt lat="43.4769981" lon="12.6714901"><ele>1209.25</ele><time>2026-05-01T13:06:22.503Z</time></trkpt><trkpt lat="43.4768994" lon="12.6713885"><ele>1208.0</ele><time>2026-05-01T13:06:23.502Z</time></trkpt><trkpt lat="43.4767801" lon="12.6712918"><ele>1208.0</ele><time>2026-05-01T13:06:24.503Z</time></trkpt><trkpt lat="43.4766609" lon="12.6711952"><ele>1208.0</ele><time>2026-05-01T13:06:25.503Z</time></trkpt><trkpt lat="43.476542" lon="12.6710818"><ele>1208.0</ele><time>2026-05-01T13:06:26.502Z</time></trkpt><trkpt lat="43.47644" lon="12.6709927"><ele>1208.0</ele><time>2026-05-01T13:06:27.503Z</time></trkpt><trkpt lat="43.476334" lon="12.6708991"><ele>1204.75</ele><time>2026-05-01T13:06:28.503Z</time></trkpt><trkpt lat="43.4762274" lon="12.6708017"><ele>1201.5</ele><time>2026-05-01T13:06:29.502Z</time></trkpt><trkpt lat="43.4761237" lon="12.6707064"><ele>1198.25</ele><time>2026-05-01T13:06:30.503Z</time></trkpt><trkpt lat="43.4760202" lon="12.6706311"><ele>1195.0</ele><time>2026-05-01T13:06:31.503Z</time></trkpt><trkpt lat="43.4759146" lon="12.6705565"><ele>1195.0</ele><time>2026-05-01T13:06:32.502Z</time></trkpt><trkpt lat="43.4758121" lon="12.6704971"><ele>1195.0</ele><time>2026-05-01T13:06:33.503Z</time></trkpt><trkpt lat="43.4757165" lon="12.6704313"><ele>1195.0</ele><time>2026-05-01T13:06:34.503Z</time></trkpt><trkpt lat="43.4756113" lon="12.6703569"><ele>1195.0</ele><time>2026-05-01T13:06:35.502Z</time></trkpt><trkpt lat="43.4755141" lon="12.6702785"><ele>1195.0</ele><time>2026-05-01T13:06:36.503Z</time></trkpt><trkpt lat="43.475428" lon="12.6701973"><ele>1192.6</ele><time>2026-05-01T13:06:37.503Z</time></trkpt><trkpt lat="43.4753438" lon="12.670124"><ele>1190.2</ele><time>2026-05-01T13:06:38.503Z</time></trkpt><trkpt lat="43.4752521" lon="12.6700469"><ele>1187.8</ele><time>2026-05-01T13:06:39.503Z</time></trkpt><trkpt lat="43.4751719" lon="12.6699398"><ele>1185.4</ele><time>2026-05-01T13:06:40.502Z</time></trkpt><trkpt lat="43.4750902" lon="12.6698188"><ele>1183.0</ele><time>2026-05-01T13:06:41.503Z</time></trkpt><trkpt lat="43.4750164" lon="12.6697061"><ele>1183.0</ele><time>2026-05-01T13:06:42.503Z</time></trkpt><trkpt lat="43.474948" lon="12.6695899"><ele>1183.0</ele><time>2026-05-01T13:06:43.503Z</time></trkpt><trkpt lat="43.4748658" lon="12.6694802"><ele>1183.0</ele><time>2026-05-01T13:06:44.503Z</time></trkpt><trkpt lat="43.4747676" lon="12.6693721"><ele>1183.0</ele><time>2026-05-01T13:06:45.502Z</time></trkpt><trkpt lat="43.4746632" lon="12.6692711"><ele>1181.75</ele><time>2026-05-01T13:06:46.503Z</time></trkpt><trkpt lat="43.4745769" lon="12.6691709"><ele>1180.5</ele><time>2026-05-01T13:06:47.503Z</time></trkpt><trkpt lat="43.4744835" lon="12.6690741"><ele>1179.25</ele><time>2026-05-01T13:06:48.503Z</time></trkpt><trkpt lat="43.4743901" lon="12.668973"><ele>1178.0</ele><time>2026-05-01T13:06:49.503Z</time></trkpt><trkpt lat="43.4742944" lon="12.6688708"><ele>1178.0</ele><time>2026-05-01T13:06:50.503Z</time></trkpt><trkpt lat="43.4741885" lon="12.6687679"><ele>1178.0</ele><time>2026-05-01T13:06:51.503Z</time></trkpt><trkpt lat="43.4740798" lon="12.6686592"><ele>1178.0</ele><time>2026-05-01T13:06:52.503Z</time></trkpt><trkpt lat="43.4739586" lon="12.6685571"><ele>1178.0</ele><time>2026-05-01T13:06:53.502Z</time></trkpt><trkpt lat="43.4738236" lon="12.6684616"><ele>1174.0</ele><time>2026-05-01T13:06:54.503Z</time></trkpt><trkpt lat="43.4736807" lon="12.6683745"><ele>1170.0</ele><time>2026-05-01T13:06:55.502Z</time></trkpt><trkpt lat="43.473545" lon="12.6682926"><ele>1166.0</ele><time>2026-05-01T13:06:56.502Z</time></trkpt><trkpt lat="43.473422" lon="12.6682047"><ele>1162.0</ele><time>2026-05-01T13:06:57.503Z</time></trkpt><trkpt lat="43.4733011" lon="12.6681177"><ele>1162.0</ele><time>2026-05-01T13:06:58.503Z</time></trkpt><trkpt lat="43.4731887" lon="12.6680361"><ele>1162.0</ele><time>2026-05-01T13:06:59.503Z</time></trkpt><trkpt lat="43.4730867" lon="12.667962"><ele>1162.0</ele><time>2026-05-01T13:07:00.503Z</time></trkpt><trkpt lat="43.4729908" lon="12.6678878"><ele>1162.0</ele><time>2026-05-01T13:07:01.502Z</time></trkpt><trkpt lat="43.4729034" lon="12.6678108"><ele>1159.2</ele><time>2026-05-01T13:07:02.503Z</time></trkpt><trkpt lat="43.4728186" lon="12.6677411"><ele>1156.4</ele><time>2026-05-01T13:07:03.503Z</time></trkpt><trkpt lat="43.472731" lon="12.6676826"><ele>1153.6</ele><time>2026-05-01T13:07:04.502Z</time></trkpt><trkpt lat="43.4726458" lon="12.6676263"><ele>1150.8</ele><time>2026-05-01T13:07:05.502Z</time></trkpt><trkpt lat="43.4725491" lon="12.6675788"><ele>1148.0</ele><time>2026-05-01T13:07:06.503Z</time></trkpt><trkpt lat="43.4724458" lon="12.6675415"><ele>1148.0</ele><time>2026-05-01T13:07:07.503Z</time></trkpt><trkpt lat="43.472331" lon="12.6675196"><ele>1148.0</ele><time>2026-05-01T13:07:08.502Z</time></trkpt><trkpt lat="43.4722135" lon="12.6674885"><ele>1148.0</ele><time>2026-05-01T13:07:09.503Z</time></trkpt><trkpt lat="43.4721029" lon="12.6674666"><ele>1148.0</ele><time>2026-05-01T13:07:10.502Z</time></trkpt><trkpt lat="43.4719832" lon="12.6674533"><ele>1150.25</ele><time>2026-05-01T13:07:11.503Z</time></trkpt><trkpt lat="43.4718684" lon="12.6674364"><ele>1152.5</ele><time>2026-05-01T13:07:12.503Z</time></trkpt><trkpt lat="43.4717545" lon="12.6674234"><ele>1154.75</ele><time>2026-05-01T13:07:13.503Z</time></trkpt><trkpt lat="43.4716395" lon="12.6674212"><ele>1157.0</ele><time>2026-05-01T13:07:14.502Z</time></trkpt><trkpt lat="43.4715168" lon="12.6674216"><ele>1157.0</ele><time>2026-05-01T13:07:15.502Z</time></trkpt><trkpt lat="43.4714024" lon="12.6674138"><ele>1157.0</ele><time>2026-05-01T13:07:16.503Z</time></trkpt><trkpt lat="43.4712842" lon="12.66739"><ele>1157.0</ele><time>2026-05-01T13:07:17.503Z</time></trkpt><trkpt lat="43.4711522" lon="12.6673503"><ele>1157.0</ele><time>2026-05-01T13:07:18.503Z</time></trkpt><trkpt lat="43.4710269" lon="12.6672881"><ele>1158.75</ele><time>2026-05-01T13:07:19.503Z</time></trkpt><trkpt lat="43.4708998" lon="12.6672393"><ele>1160.5</ele><time>2026-05-01T13:07:20.503Z</time></trkpt><trkpt lat="43.470776" lon="12.6671865"><ele>1162.25</ele><time>2026-05-01T13:07:21.502Z</time></trkpt><trkpt lat="43.4706512" lon="12.6671399"><ele>1164.0</ele><time>2026-05-01T13:07:22.503Z</time></trkpt><trkpt lat="43.4705352" lon="12.6670905"><ele>1164.0</ele><time>2026-05-01T13:07:23.502Z</time></trkpt><trkpt lat="43.4704417" lon="12.6670331"><ele>1164.0</ele><time>2026-05-01T13:07:24.503Z</time></trkpt><trkpt lat="43.4703706" lon="12.6669508"><ele>1164.0</ele><time>2026-05-01T13:07:25.503Z</time></trkpt><trkpt lat="43.4703333" lon="12.6668577"><ele>1164.0</ele><time>2026-05-01T13:07:26.503Z</time></trkpt><trkpt lat="43.4703475" lon="12.6667083"><ele>1164.0</ele><time>2026-05-01T13:07:28.503Z</time></trkpt><trkpt lat="43.4704638" lon="12.6666134"><ele>1161.2</ele><time>2026-05-01T13:07:30.503Z</time></trkpt><trkpt lat="43.4705512" lon="12.6665699"><ele>1158.4</ele><time>2026-05-01T13:07:31.502Z</time></trkpt><trkpt lat="43.470651" lon="12.6665181"><ele>1155.6</ele><time>2026-05-01T13:07:32.503Z</time></trkpt><trkpt lat="43.4707465" lon="12.6664562"><ele>1152.8</ele><time>2026-05-01T13:07:33.503Z</time></trkpt><trkpt lat="43.4708457" lon="12.6663918"><ele>1150.0</ele><time>2026-05-01T13:07:34.502Z</time></trkpt><trkpt lat="43.4709584" lon="12.6663224"><ele>1150.0</ele><time>2026-05-01T13:07:35.503Z</time></trkpt><trkpt lat="43.4710786" lon="12.6662467"><ele>1150.0</ele><time>2026-05-01T13:07:36.503Z</time></trkpt><trkpt lat="43.4711995" lon="12.6661646"><ele>1150.0</ele><time>2026-05-01T13:07:37.503Z</time></trkpt><trkpt lat="43.4713307" lon="12.6660743"><ele>1150.0</ele><time>2026-05-01T13:07:38.502Z</time></trkpt><trkpt lat="43.4714629" lon="12.6659808"><ele>1150.3333333333333</ele><time>2026-05-01T13:07:39.503Z</time></trkpt><trkpt lat="43.4715974" lon="12.6658772"><ele>1150.6666666666667</ele><time>2026-05-01T13:07:40.503Z</time></trkpt><trkpt lat="43.4717413" lon="12.6657739"><ele>1151.0</ele><time>2026-05-01T13:07:41.503Z</time></trkpt><trkpt lat="43.4718892" lon="12.6656744"><ele>1151.0</ele><time>2026-05-01T13:07:42.502Z</time></trkpt><trkpt lat="43.4720359" lon="12.6655838"><ele>1151.0</ele><time>2026-05-01T13:07:43.503Z</time></trkpt><trkpt lat="43.4721756" lon="12.6654926"><ele>1151.0</ele><time>2026-05-01T13:07:44.503Z</time></trkpt><trkpt lat="43.4722914" lon="12.6654064"><ele>1151.0</ele><time>2026-05-01T13:07:45.503Z</time></trkpt><trkpt lat="43.4723838" lon="12.6653156"><ele>1153.6</ele><time>2026-05-01T13:07:46.503Z</time></trkpt><trkpt lat="43.4724671" lon="12.6652067"><ele>1156.1999999999998</ele><time>2026-05-01T13:07:47.502Z</time></trkpt><trkpt lat="43.4725227" lon="12.6650787"><ele>1158.8000000000002</ele><time>2026-05-01T13:07:48.503Z</time></trkpt><trkpt lat="43.4725654" lon="12.6649491"><ele>1161.4</ele><time>2026-05-01T13:07:49.502Z</time></trkpt><trkpt lat="43.4725998" lon="12.6648345"><ele>1164.0</ele><time>2026-05-01T13:07:50.503Z</time></trkpt><trkpt lat="43.4726398" lon="12.6647555"><ele>1164.0</ele><time>2026-05-01T13:07:51.503Z</time></trkpt><trkpt lat="43.4727455" lon="12.6646735"><ele>1164.0</ele><time>2026-05-01T13:07:53.502Z</time></trkpt><trkpt lat="43.4728133" lon="12.6646974"><ele>1164.0</ele><time>2026-05-01T13:07:54.503Z</time></trkpt><trkpt lat="43.4728747" lon="12.6647579"><ele>1164.0</ele><time>2026-05-01T13:07:55.503Z</time></trkpt><trkpt lat="43.4729177" lon="12.6648409"><ele>1164.0</ele><time>2026-05-01T13:07:56.502Z</time></trkpt><trkpt lat="43.4729596" lon="12.6649264"><ele>1164.0</ele><time>2026-05-01T13:07:57.503Z</time></trkpt><trkpt lat="43.4730241" lon="12.6649818"><ele>1164.8</ele><time>2026-05-01T13:07:58.503Z</time></trkpt><trkpt lat="43.4731096" lon="12.6650118"><ele>1165.6000000000001</ele><time>2026-05-01T13:07:59.503Z</time></trkpt><trkpt lat="43.4732026" lon="12.6650292"><ele>1166.4</ele><time>2026-05-01T13:08:00.503Z</time></trkpt><trkpt lat="43.4732954" lon="12.6650295"><ele>1167.2</ele><time>2026-05-01T13:08:01.502Z</time></trkpt><trkpt lat="43.4733861" lon="12.6650182"><ele>1168.0</ele><time>2026-05-01T13:08:02.503Z</time></trkpt><trkpt lat="43.4734818" lon="12.6649989"><ele>1168.0</ele><time>2026-05-01T13:08:03.503Z</time></trkpt><trkpt lat="43.4735755" lon="12.6649705"><ele>1168.0</ele><time>2026-05-01T13:08:04.503Z</time></trkpt><trkpt lat="43.4736618" lon="12.6649402"><ele>1168.0</ele><time>2026-05-01T13:08:05.503Z</time></trkpt><trkpt lat="43.4737412" lon="12.6648989"><ele>1168.0</ele><time>2026-05-01T13:08:06.502Z</time></trkpt><trkpt lat="43.4738118" lon="12.6648327"><ele>1168.0</ele><time>2026-05-01T13:08:07.503Z</time></trkpt><trkpt lat="43.4738742" lon="12.664735"><ele>1167.4</ele><time>2026-05-01T13:08:08.503Z</time></trkpt><trkpt lat="43.4739226" lon="12.6646053"><ele>1166.8</ele><time>2026-05-01T13:08:09.503Z</time></trkpt><trkpt lat="43.4739599" lon="12.6644455"><ele>1166.2</ele><time>2026-05-01T13:08:10.503Z</time></trkpt><trkpt lat="43.4740051" lon="12.6643327"><ele>1165.6</ele><time>2026-05-01T13:08:11.502Z</time></trkpt><trkpt lat="43.474057" lon="12.6642377"><ele>1165.0</ele><time>2026-05-01T13:08:12.503Z</time></trkpt><trkpt lat="43.4741232" lon="12.6641746"><ele>1167.8333333333333</ele><time>2026-05-01T13:08:13.503Z</time></trkpt><trkpt lat="43.4742101" lon="12.6641568"><ele>1170.6666666666665</ele><time>2026-05-01T13:08:14.502Z</time></trkpt><trkpt lat="43.4743044" lon="12.6641522"><ele>1173.5</ele><time>2026-05-01T13:08:15.503Z</time></trkpt><trkpt lat="43.4743986" lon="12.6641619"><ele>1176.3333333333333</ele><time>2026-05-01T13:08:16.503Z</time></trkpt><trkpt lat="43.4744704" lon="12.6641693"><ele>1179.1666666666667</ele><time>2026-05-01T13:08:17.503Z</time></trkpt><trkpt lat="43.4745336" lon="12.6641501"><ele>1182.0</ele><time>2026-05-01T13:08:18.503Z</time></trkpt><trkpt lat="43.4745754" lon="12.6640334"><ele>1182.0</ele><time>2026-05-01T13:08:20.502Z</time></trkpt><trkpt lat="43.4744899" lon="12.6639158"><ele>1182.0</ele><time>2026-05-01T13:08:22.503Z</time></trkpt><trkpt lat="43.4744052" lon="12.6638956"><ele>1182.0</ele><time>2026-05-01T13:08:23.503Z</time></trkpt><trkpt lat="43.4743022" lon="12.6639059"><ele>1182.0</ele><time>2026-05-01T13:08:24.502Z</time></trkpt><trkpt lat="43.474194" lon="12.6639067"><ele>1182.0</ele><time>2026-05-01T13:08:25.503Z</time></trkpt><trkpt lat="43.4740876" lon="12.6638803"><ele>1182.0</ele><time>2026-05-01T13:08:26.503Z</time></trkpt><trkpt lat="43.4739806" lon="12.6638401"><ele>1182.0</ele><time>2026-05-01T13:08:27.503Z</time></trkpt><trkpt lat="43.4738908" lon="12.6637992"><ele>1182.0</ele><time>2026-05-01T13:08:28.503Z</time></trkpt><trkpt lat="43.4738144" lon="12.6637431"><ele>1182.0</ele><time>2026-05-01T13:08:29.503Z</time></trkpt><trkpt lat="43.4737518" lon="12.6636712"><ele>1182.0</ele><time>2026-05-01T13:08:30.502Z</time></trkpt><trkpt lat="43.4737212" lon="12.6635847"><ele>1182.0</ele><time>2026-05-01T13:08:31.503Z</time></trkpt><trkpt lat="43.4737354" lon="12.6634219"><ele>1182.3333333333333</ele><time>2026-05-01T13:08:33.503Z</time></trkpt><trkpt lat="43.4737802" lon="12.6633585"><ele>1182.6666666666667</ele><time>2026-05-01T13:08:34.503Z</time></trkpt><trkpt lat="43.4738497" lon="12.6633192"><ele>1183.0</ele><time>2026-05-01T13:08:35.503Z</time></trkpt><trkpt lat="43.4739291" lon="12.6632964"><ele>1183.3333333333335</ele><time>2026-05-01T13:08:36.503Z</time></trkpt><trkpt lat="43.4740149" lon="12.6632884"><ele>1183.6666666666667</ele><time>2026-05-01T13:08:37.503Z</time></trkpt><trkpt lat="43.4741055" lon="12.6632911"><ele>1184.0</ele><time>2026-05-01T13:08:38.503Z</time></trkpt><trkpt lat="43.4741993" lon="12.6632952"><ele>1184.0</ele><time>2026-05-01T13:08:39.503Z</time></trkpt><trkpt lat="43.4742976" lon="12.6633058"><ele>1184.0</ele><time>2026-05-01T13:08:40.503Z</time></trkpt><trkpt lat="43.474407" lon="12.6633129"><ele>1184.0</ele><time>2026-05-01T13:08:41.503Z</time></trkpt><trkpt lat="43.4745256" lon="12.6633123"><ele>1184.0</ele><time>2026-05-01T13:08:42.503Z</time></trkpt><trkpt lat="43.4746439" lon="12.6633014"><ele>1184.0</ele><time>2026-05-01T13:08:43.503Z</time></trkpt><trkpt lat="43.4747616" lon="12.6632999"><ele>1186.75</ele><time>2026-05-01T13:08:44.503Z</time></trkpt><trkpt lat="43.4748855" lon="12.6632921"><ele>1189.5</ele><time>2026-05-01T13:08:45.503Z</time></trkpt><trkpt lat="43.4750135" lon="12.6632617"><ele>1192.25</ele><time>2026-05-01T13:08:46.503Z</time></trkpt><trkpt lat="43.4751438" lon="12.6631985"><ele>1195.0</ele><time>2026-05-01T13:08:47.503Z</time></trkpt><trkpt lat="43.4752666" lon="12.6631144"><ele>1195.0</ele><time>2026-05-01T13:08:48.503Z</time></trkpt><trkpt lat="43.4753892" lon="12.663024"><ele>1195.0</ele><time>2026-05-01T13:08:49.502Z</time></trkpt><trkpt lat="43.4755093" lon="12.662937"><ele>1195.0</ele><time>2026-05-01T13:08:50.502Z</time></trkpt><trkpt lat="43.4756325" lon="12.6628587"><ele>1195.0</ele><time>2026-05-01T13:08:51.503Z</time></trkpt><trkpt lat="43.4757564" lon="12.6627781"><ele>1195.0</ele><time>2026-05-01T13:08:52.502Z</time></trkpt><trkpt lat="43.4758784" lon="12.6627165"><ele>1195.0</ele><time>2026-05-01T13:08:53.503Z</time></trkpt><trkpt lat="43.4760063" lon="12.6626751"><ele>1195.0</ele><time>2026-05-01T13:08:54.503Z</time></trkpt><trkpt lat="43.4761388" lon="12.6626507"><ele>1195.0</ele><time>2026-05-01T13:08:55.503Z</time></trkpt><trkpt lat="43.4762706" lon="12.6626408"><ele>1196.25</ele><time>2026-05-01T13:08:56.502Z</time></trkpt><trkpt lat="43.476395" lon="12.6626458"><ele>1197.5</ele><time>2026-05-01T13:08:57.503Z</time></trkpt><trkpt lat="43.4765148" lon="12.662657"><ele>1198.75</ele><time>2026-05-01T13:08:58.503Z</time></trkpt><trkpt lat="43.4766386" lon="12.6626733"><ele>1200.0</ele><time>2026-05-01T13:08:59.502Z</time></trkpt><trkpt lat="43.4767732" lon="12.6627063"><ele>1200.0</ele><time>2026-05-01T13:09:00.503Z</time></trkpt><trkpt lat="43.4769097" lon="12.6627494"><ele>1200.0</ele><time>2026-05-01T13:09:01.503Z</time></trkpt><trkpt lat="43.4770528" lon="12.6627983"><ele>1200.0</ele><time>2026-05-01T13:09:02.502Z</time></trkpt><trkpt lat="43.4771901" lon="12.6628531"><ele>1200.0</ele><time>2026-05-01T13:09:03.502Z</time></trkpt><trkpt lat="43.4773271" lon="12.6629036"><ele>1203.75</ele><time>2026-05-01T13:09:04.503Z</time></trkpt><trkpt lat="43.4774689" lon="12.6629553"><ele>1207.5</ele><time>2026-05-01T13:09:05.503Z</time></trkpt><trkpt lat="43.4776083" lon="12.6630065"><ele>1211.25</ele><time>2026-05-01T13:09:06.503Z</time></trkpt><trkpt lat="43.4777458" lon="12.6630567"><ele>1215.0</ele><time>2026-05-01T13:09:07.502Z</time></trkpt><trkpt lat="43.4778799" lon="12.6631082"><ele>1216.75</ele><time>2026-05-01T13:09:08.503Z</time></trkpt><trkpt lat="43.478005" lon="12.6631536"><ele>1218.5</ele><time>2026-05-01T13:09:09.502Z</time></trkpt><trkpt lat="43.4781239" lon="12.6632087"><ele>1220.25</ele><time>2026-05-01T13:09:10.502Z</time></trkpt><trkpt lat="43.4782358" lon="12.6632869"><ele>1222.0</ele><time>2026-05-01T13:09:11.503Z</time></trkpt><trkpt lat="43.4783368" lon="12.6633873"><ele>1222.0</ele><time>2026-05-01T13:09:12.502Z</time></trkpt><trkpt lat="43.4784303" lon="12.6634998"><ele>1222.0</ele><time>2026-05-01T13:09:13.503Z</time></trkpt><trkpt lat="43.4785221" lon="12.663615"><ele>1222.0</ele><time>2026-05-01T13:09:14.503Z</time></trkpt><trkpt lat="43.4786353" lon="12.6637257"><ele>1222.0</ele><time>2026-05-01T13:09:15.502Z</time></trkpt><trkpt lat="43.4787684" lon="12.6638251"><ele>1224.3333333333333</ele><time>2026-05-01T13:09:16.502Z</time></trkpt><trkpt lat="43.4789143" lon="12.6639169"><ele>1226.6666666666667</ele><time>2026-05-01T13:09:17.503Z</time></trkpt><trkpt lat="43.4790748" lon="12.6639941"><ele>1229.0</ele><time>2026-05-01T13:09:18.503Z</time></trkpt><trkpt lat="43.4792301" lon="12.6640805"><ele>1229.0</ele><time>2026-05-01T13:09:19.503Z</time></trkpt><trkpt lat="43.4793735" lon="12.6641583"><ele>1229.0</ele><time>2026-05-01T13:09:20.503Z</time></trkpt><trkpt lat="43.4794974" lon="12.6642349"><ele>1229.0</ele><time>2026-05-01T13:09:21.503Z</time></trkpt><trkpt lat="43.4796192" lon="12.6643108"><ele>1229.0</ele><time>2026-05-01T13:09:22.503Z</time></trkpt><trkpt lat="43.4797493" lon="12.6643881"><ele>1226.0</ele><time>2026-05-01T13:09:23.503Z</time></trkpt><trkpt lat="43.4798832" lon="12.6644627"><ele>1223.0</ele><time>2026-05-01T13:09:24.503Z</time></trkpt><trkpt lat="43.4800241" lon="12.6645413"><ele>1220.0</ele><time>2026-05-01T13:09:25.503Z</time></trkpt><trkpt lat="43.4801707" lon="12.6646197"><ele>1220.0</ele><time>2026-05-01T13:09:26.502Z</time></trkpt><trkpt lat="43.4803221" lon="12.6647036"><ele>1220.0</ele><time>2026-05-01T13:09:27.503Z</time></trkpt><trkpt lat="43.4804788" lon="12.6647764"><ele>1220.0</ele><time>2026-05-01T13:09:28.503Z</time></trkpt><trkpt lat="43.4806301" lon="12.6648433"><ele>1223.6666666666667</ele><time>2026-05-01T13:09:29.503Z</time></trkpt><trkpt lat="43.4807819" lon="12.6649148"><ele>1227.3333333333333</ele><time>2026-05-01T13:09:30.503Z</time></trkpt><trkpt lat="43.4809376" lon="12.6649871"><ele>1231.0</ele><time>2026-05-01T13:09:31.503Z</time></trkpt><trkpt lat="43.4810846" lon="12.6650664"><ele>1231.0</ele><time>2026-05-01T13:09:32.503Z</time></trkpt><trkpt lat="43.4812216" lon="12.6651488"><ele>1231.0</ele><time>2026-05-01T13:09:33.503Z</time></trkpt><trkpt lat="43.4813563" lon="12.665228"><ele>1231.0</ele><time>2026-05-01T13:09:34.503Z</time></trkpt><trkpt lat="43.4814868" lon="12.6652944"><ele>1231.0</ele><time>2026-05-01T13:09:35.503Z</time></trkpt><trkpt lat="43.4816041" lon="12.665364"><ele>1227.25</ele><time>2026-05-01T13:09:36.503Z</time></trkpt><trkpt lat="43.4817197" lon="12.6654136"><ele>1223.5</ele><time>2026-05-01T13:09:37.503Z</time></trkpt><trkpt lat="43.4818294" lon="12.6654561"><ele>1219.75</ele><time>2026-05-01T13:09:38.503Z</time></trkpt><trkpt lat="43.4819387" lon="12.6654921"><ele>1216.0</ele><time>2026-05-01T13:09:39.503Z</time></trkpt><trkpt lat="43.4820544" lon="12.6655417"><ele>1219.75</ele><time>2026-05-01T13:09:40.503Z</time></trkpt><trkpt lat="43.4821818" lon="12.6655962"><ele>1223.5</ele><time>2026-05-01T13:09:41.503Z</time></trkpt><trkpt lat="43.4823148" lon="12.6656411"><ele>1227.25</ele><time>2026-05-01T13:09:42.502Z</time></trkpt><trkpt lat="43.4824489" lon="12.6656825"><ele>1231.0</ele><time>2026-05-01T13:09:43.503Z</time></trkpt><trkpt lat="43.4825809" lon="12.6657258"><ele>1231.0</ele><time>2026-05-01T13:09:44.503Z</time></trkpt><trkpt lat="43.4827103" lon="12.6657823"><ele>1231.0</ele><time>2026-05-01T13:09:45.503Z</time></trkpt><trkpt lat="43.4828455" lon="12.6658395"><ele>1231.0</ele><time>2026-05-01T13:09:46.503Z</time></trkpt><trkpt lat="43.482986" lon="12.6658935"><ele>1231.0</ele><time>2026-05-01T13:09:47.503Z</time></trkpt><trkpt lat="43.4831305" lon="12.6659391"><ele>1237.3333333333333</ele><time>2026-05-01T13:09:48.503Z</time></trkpt><trkpt lat="43.4832736" lon="12.6659857"><ele>1243.6666666666667</ele><time>2026-05-01T13:09:49.502Z</time></trkpt><trkpt lat="43.4834176" lon="12.6660333"><ele>1250.0</ele><time>2026-05-01T13:09:50.503Z</time></trkpt><trkpt lat="43.4835676" lon="12.6660852"><ele>1245.0</ele><time>2026-05-01T13:09:51.503Z</time></trkpt><trkpt lat="43.4837122" lon="12.6661325"><ele>1240.0</ele><time>2026-05-01T13:09:52.503Z</time></trkpt><trkpt lat="43.4838697" lon="12.6661803"><ele>1235.0</ele><time>2026-05-01T13:09:53.503Z</time></trkpt><trkpt lat="43.4840269" lon="12.6662331"><ele>1235.0</ele><time>2026-05-01T13:09:54.503Z</time></trkpt><trkpt lat="43.4841789" lon="12.6662906"><ele>1235.0</ele><time>2026-05-01T13:09:55.503Z</time></trkpt><trkpt lat="43.4843272" lon="12.6663529"><ele>1235.0</ele><time>2026-05-01T13:09:56.502Z</time></trkpt><trkpt lat="43.4844782" lon="12.6664122"><ele>1238.3333333333335</ele><time>2026-05-01T13:09:57.503Z</time></trkpt><trkpt lat="43.4846285" lon="12.6664667"><ele>1241.6666666666667</ele><time>2026-05-01T13:09:58.503Z</time></trkpt><trkpt lat="43.4847834" lon="12.666521"><ele>1245.0</ele><time>2026-05-01T13:09:59.503Z</time></trkpt><trkpt lat="43.4849365" lon="12.6665843"><ele>1245.0</ele><time>2026-05-01T13:10:00.502Z</time></trkpt><trkpt lat="43.485084" lon="12.6666459"><ele>1245.0</ele><time>2026-05-01T13:10:01.502Z</time></trkpt><trkpt lat="43.4852388" lon="12.6667074"><ele>1245.0</ele><time>2026-05-01T13:10:02.503Z</time></trkpt><trkpt lat="43.4853881" lon="12.6667685"><ele>1250.3333333333333</ele><time>2026-05-01T13:10:03.503Z</time></trkpt><trkpt lat="43.48554" lon="12.6668338"><ele>1255.6666666666665</ele><time>2026-05-01T13:10:04.503Z</time></trkpt><trkpt lat="43.4856901" lon="12.666905"><ele>1261.0</ele><time>2026-05-01T13:10:05.503Z</time></trkpt><trkpt lat="43.485836" lon="12.6669743"><ele>1254.0</ele><time>2026-05-01T13:10:06.503Z</time></trkpt><trkpt lat="43.485985" lon="12.667044"><ele>1247.0</ele><time>2026-05-01T13:10:07.503Z</time></trkpt><trkpt lat="43.486125" lon="12.6671155"><ele>1240.0</ele><time>2026-05-01T13:10:08.503Z</time></trkpt><trkpt lat="43.4862511" lon="12.6671814"><ele>1233.0</ele><time>2026-05-01T13:10:09.503Z</time></trkpt><trkpt lat="43.4863671" lon="12.6672432"><ele>1233.0</ele><time>2026-05-01T13:10:10.502Z</time></trkpt><trkpt lat="43.4864821" lon="12.6673093"><ele>1233.0</ele><time>2026-05-01T13:10:11.503Z</time></trkpt><trkpt lat="43.4865903" lon="12.6673522"><ele>1233.0</ele><time>2026-05-01T13:10:12.503Z</time></trkpt><trkpt lat="43.486699" lon="12.6673877"><ele>1233.0</ele><time>2026-05-01T13:10:13.503Z</time></trkpt><trkpt lat="43.4867958" lon="12.6674109"><ele>1233.0</ele><time>2026-05-01T13:10:14.503Z</time></trkpt><trkpt lat="43.4868774" lon="12.6674203"><ele>1233.0</ele><time>2026-05-01T13:10:15.503Z</time></trkpt><trkpt lat="43.4869598" lon="12.667418"><ele>1233.0</ele><time>2026-05-01T13:10:16.503Z</time></trkpt><trkpt lat="43.4870397" lon="12.6673911"><ele>1233.0</ele><time>2026-05-01T13:10:17.503Z</time></trkpt><trkpt lat="43.4871277" lon="12.6673186"><ele>1233.0</ele><time>2026-05-01T13:10:18.503Z</time></trkpt><trkpt lat="43.4872179" lon="12.6672146"><ele>1233.0</ele><time>2026-05-01T13:10:19.503Z</time></trkpt><trkpt lat="43.4873093" lon="12.6671096"><ele>1234.5</ele><time>2026-05-01T13:10:20.503Z</time></trkpt><trkpt lat="43.4874044" lon="12.6670099"><ele>1236.0</ele><time>2026-05-01T13:10:21.503Z</time></trkpt><trkpt lat="43.4875007" lon="12.6668995"><ele>1237.5</ele><time>2026-05-01T13:10:22.503Z</time></trkpt><trkpt lat="43.4875844" lon="12.6667836"><ele>1239.0</ele><time>2026-05-01T13:10:23.502Z</time></trkpt><trkpt lat="43.4876568" lon="12.666641"><ele>1239.0</ele><time>2026-05-01T13:10:24.503Z</time></trkpt><trkpt lat="43.487721" lon="12.6664742"><ele>1239.0</ele><time>2026-05-01T13:10:25.502Z</time></trkpt><trkpt lat="43.4877803" lon="12.6663022"><ele>1239.0</ele><time>2026-05-01T13:10:26.503Z</time></trkpt><trkpt lat="43.4878365" lon="12.6661158"><ele>1239.0</ele><time>2026-05-01T13:10:27.502Z</time></trkpt><trkpt lat="43.4878969" lon="12.6659359"><ele>1236.75</ele><time>2026-05-01T13:10:28.503Z</time></trkpt><trkpt lat="43.4879542" lon="12.6657527"><ele>1234.5</ele><time>2026-05-01T13:10:29.502Z</time></trkpt><trkpt lat="43.4880244" lon="12.6655765"><ele>1232.25</ele><time>2026-05-01T13:10:30.503Z</time></trkpt><trkpt lat="43.4881006" lon="12.6654141"><ele>1230.0</ele><time>2026-05-01T13:10:31.503Z</time></trkpt><trkpt lat="43.4881701" lon="12.665255"><ele>1230.0</ele><time>2026-05-01T13:10:32.503Z</time></trkpt><trkpt lat="43.4882334" lon="12.6650948"><ele>1230.0</ele><time>2026-05-01T13:10:33.503Z</time></trkpt><trkpt lat="43.488295" lon="12.6649435"><ele>1230.0</ele><time>2026-05-01T13:10:34.503Z</time></trkpt><trkpt lat="43.4883518" lon="12.6647938"><ele>1230.0</ele><time>2026-05-01T13:10:35.503Z</time></trkpt><trkpt lat="43.4884035" lon="12.6646405"><ele>1230.0</ele><time>2026-05-01T13:10:36.502Z</time></trkpt><trkpt lat="43.4884445" lon="12.6644982"><ele>1230.0</ele><time>2026-05-01T13:10:37.503Z</time></trkpt><trkpt lat="43.4884795" lon="12.6643611"><ele>1230.0</ele><time>2026-05-01T13:10:38.503Z</time></trkpt><trkpt lat="43.4885199" lon="12.6642279"><ele>1230.0</ele><time>2026-05-01T13:10:39.503Z</time></trkpt><trkpt lat="43.4885656" lon="12.6640911"><ele>1230.0</ele><time>2026-05-01T13:10:40.503Z</time></trkpt><trkpt lat="43.4886255" lon="12.6639737"><ele>1230.0</ele><time>2026-05-01T13:10:41.503Z</time></trkpt><trkpt lat="43.4887235" lon="12.6638666"><ele>1230.0</ele><time>2026-05-01T13:10:42.503Z</time></trkpt><trkpt lat="43.488836" lon="12.6637857"><ele>1230.0</ele><time>2026-05-01T13:10:43.503Z</time></trkpt><trkpt lat="43.4889498" lon="12.6637076"><ele>1230.0</ele><time>2026-05-01T13:10:44.503Z</time></trkpt><trkpt lat="43.48906" lon="12.6636186"><ele>1227.75</ele><time>2026-05-01T13:10:45.503Z</time></trkpt><trkpt lat="43.4891704" lon="12.6635283"><ele>1225.5</ele><time>2026-05-01T13:10:46.503Z</time></trkpt><trkpt lat="43.4892781" lon="12.6634404"><ele>1223.25</ele><time>2026-05-01T13:10:47.502Z</time></trkpt><trkpt lat="43.4893846" lon="12.6633475"><ele>1221.0</ele><time>2026-05-01T13:10:48.503Z</time></trkpt><trkpt lat="43.4894898" lon="12.6632423"><ele>1221.0</ele><time>2026-05-01T13:10:49.503Z</time></trkpt><trkpt lat="43.4895878" lon="12.6631168"><ele>1221.0</ele><time>2026-05-01T13:10:50.502Z</time></trkpt><trkpt lat="43.4896828" lon="12.6629823"><ele>1221.0</ele><time>2026-05-01T13:10:51.503Z</time></trkpt><trkpt lat="43.4897771" lon="12.6628358"><ele>1221.0</ele><time>2026-05-01T13:10:52.503Z</time></trkpt><trkpt lat="43.4898654" lon="12.6626805"><ele>1219.0</ele><time>2026-05-01T13:10:53.503Z</time></trkpt><trkpt lat="43.4899502" lon="12.6625203"><ele>1217.0</ele><time>2026-05-01T13:10:54.503Z</time></trkpt><trkpt lat="43.4900312" lon="12.6623628"><ele>1215.0</ele><time>2026-05-01T13:10:55.503Z</time></trkpt><trkpt lat="43.4901054" lon="12.6622128"><ele>1213.0</ele><time>2026-05-01T13:10:56.503Z</time></trkpt><trkpt lat="43.4901747" lon="12.6620802"><ele>1213.0</ele><time>2026-05-01T13:10:57.503Z</time></trkpt><trkpt lat="43.490238" lon="12.6619571"><ele>1213.0</ele><time>2026-05-01T13:10:58.502Z</time></trkpt><trkpt lat="43.4903008" lon="12.6618568"><ele>1213.0</ele><time>2026-05-01T13:10:59.503Z</time></trkpt><trkpt lat="43.4903755" lon="12.6617668"><ele>1213.0</ele><time>2026-05-01T13:11:00.502Z</time></trkpt><trkpt lat="43.4904669" lon="12.6616957"><ele>1213.0</ele><time>2026-05-01T13:11:01.503Z</time></trkpt><trkpt lat="43.4905767" lon="12.6616518"><ele>1211.25</ele><time>2026-05-01T13:11:02.503Z</time></trkpt><trkpt lat="43.4907043" lon="12.6616276"><ele>1209.5</ele><time>2026-05-01T13:11:03.503Z</time></trkpt><trkpt lat="43.4908427" lon="12.6616048"><ele>1207.75</ele><time>2026-05-01T13:11:04.502Z</time></trkpt><trkpt lat="43.4909872" lon="12.6615811"><ele>1206.0</ele><time>2026-05-01T13:11:05.503Z</time></trkpt><trkpt lat="43.4911237" lon="12.6615733"><ele>1205.5</ele><time>2026-05-01T13:11:06.503Z</time></trkpt><trkpt lat="43.4912636" lon="12.6615633"><ele>1205.0</ele><time>2026-05-01T13:11:07.503Z</time></trkpt><trkpt lat="43.4914057" lon="12.6615499"><ele>1204.5</ele><time>2026-05-01T13:11:08.503Z</time></trkpt><trkpt lat="43.4915442" lon="12.6615246"><ele>1204.0</ele><time>2026-05-01T13:11:09.503Z</time></trkpt><trkpt lat="43.4916777" lon="12.6614973"><ele>1204.0</ele><time>2026-05-01T13:11:10.502Z</time></trkpt><trkpt lat="43.4918002" lon="12.6614759"><ele>1204.0</ele><time>2026-05-01T13:11:11.503Z</time></trkpt><trkpt lat="43.4919022" lon="12.6614549"><ele>1204.0</ele><time>2026-05-01T13:11:12.503Z</time></trkpt><trkpt lat="43.4919976" lon="12.6614378"><ele>1204.0</ele><time>2026-05-01T13:11:13.503Z</time></trkpt><trkpt lat="43.4920835" lon="12.6614218"><ele>1204.0</ele><time>2026-05-01T13:11:14.503Z</time></trkpt><trkpt lat="43.492162" lon="12.6614113"><ele>1204.4</ele><time>2026-05-01T13:11:15.504Z</time></trkpt><trkpt lat="43.4922423" lon="12.6614074"><ele>1204.8000000000002</ele><time>2026-05-01T13:11:16.504Z</time></trkpt><trkpt lat="43.4923256" lon="12.6614137"><ele>1205.1999999999998</ele><time>2026-05-01T13:11:17.504Z</time></trkpt><trkpt lat="43.4924168" lon="12.6614204"><ele>1205.6</ele><time>2026-05-01T13:11:18.504Z</time></trkpt><trkpt lat="43.4925276" lon="12.6614495"><ele>1206.0</ele><time>2026-05-01T13:11:19.504Z</time></trkpt><trkpt lat="43.4926448" lon="12.6614964"><ele>1206.0</ele><time>2026-05-01T13:11:20.504Z</time></trkpt><trkpt lat="43.4927663" lon="12.6615542"><ele>1206.0</ele><time>2026-05-01T13:11:21.504Z</time></trkpt><trkpt lat="43.4928849" lon="12.6616213"><ele>1206.0</ele><time>2026-05-01T13:11:22.504Z</time></trkpt><trkpt lat="43.4930053" lon="12.6616935"><ele>1206.0</ele><time>2026-05-01T13:11:23.503Z</time></trkpt><trkpt lat="43.4931258" lon="12.6617665"><ele>1206.25</ele><time>2026-05-01T13:11:24.504Z</time></trkpt><trkpt lat="43.4932434" lon="12.6618469"><ele>1206.5</ele><time>2026-05-01T13:11:25.503Z</time></trkpt><trkpt lat="43.4933749" lon="12.6619349"><ele>1206.75</ele><time>2026-05-01T13:11:26.504Z</time></trkpt><trkpt lat="43.4935066" lon="12.6620354"><ele>1207.0</ele><time>2026-05-01T13:11:27.504Z</time></trkpt><trkpt lat="43.4936392" lon="12.6621417"><ele>1206.3333333333333</ele><time>2026-05-01T13:11:28.503Z</time></trkpt><trkpt lat="43.4937673" lon="12.6622616"><ele>1205.6666666666667</ele><time>2026-05-01T13:11:29.504Z</time></trkpt><trkpt lat="43.4938936" lon="12.6623846"><ele>1205.0</ele><time>2026-05-01T13:11:30.504Z</time></trkpt><trkpt lat="43.4940222" lon="12.6625066"><ele>1205.0</ele><time>2026-05-01T13:11:31.504Z</time></trkpt><trkpt lat="43.4941472" lon="12.662632"><ele>1205.0</ele><time>2026-05-01T13:11:32.504Z</time></trkpt><trkpt lat="43.4942719" lon="12.6627597"><ele>1205.0</ele><time>2026-05-01T13:11:33.503Z</time></trkpt><trkpt lat="43.494381" lon="12.6628763"><ele>1205.0</ele><time>2026-05-01T13:11:34.504Z</time></trkpt><trkpt lat="43.4944542" lon="12.6629797"><ele>1203.8333333333335</ele><time>2026-05-01T13:11:35.504Z</time></trkpt><trkpt lat="43.4945289" lon="12.6630624"><ele>1202.6666666666667</ele><time>2026-05-01T13:11:36.504Z</time></trkpt><trkpt lat="43.4945931" lon="12.6631465"><ele>1201.5</ele><time>2026-05-01T13:11:37.504Z</time></trkpt><trkpt lat="43.4946514" lon="12.6632236"><ele>1200.3333333333333</ele><time>2026-05-01T13:11:38.504Z</time></trkpt><trkpt lat="43.4947131" lon="12.6632837"><ele>1199.1666666666665</ele><time>2026-05-01T13:11:39.504Z</time></trkpt><trkpt lat="43.4947729" lon="12.6633357"><ele>1198.0</ele><time>2026-05-01T13:11:40.504Z</time></trkpt><trkpt lat="43.4948326" lon="12.663384"><ele>1198.0</ele><time>2026-05-01T13:11:41.504Z</time></trkpt><trkpt lat="43.494897" lon="12.6634319"><ele>1198.0</ele><time>2026-05-01T13:11:42.504Z</time></trkpt><trkpt lat="43.4949549" lon="12.6634736"><ele>1198.0</ele><time>2026-05-01T13:11:43.504Z</time></trkpt><trkpt lat="43.4950552" lon="12.6635149"><ele>1198.0</ele><time>2026-05-01T13:11:45.503Z</time></trkpt><trkpt lat="43.4951424" lon="12.6635194"><ele>1198.0</ele><time>2026-05-01T13:11:47.504Z</time></trkpt><trkpt lat="43.4952067" lon="12.6635243"><ele>1198.0</ele><time>2026-05-01T13:11:49.503Z</time></trkpt><trkpt lat="43.4952468" lon="12.6634134"><ele>1198.0</ele><time>2026-05-01T13:13:11.503Z</time></trkpt><trkpt lat="43.4952649" lon="12.6633273"><ele>1198.0</ele><time>2026-05-01T13:13:13.503Z</time></trkpt><trkpt lat="43.4952751" lon="12.6632213"><ele>1198.0</ele><time>2026-05-01T13:13:16.504Z</time></trkpt><trkpt lat="43.4952642" lon="12.6630991"><ele>1198.0</ele><time>2026-05-01T13:13:34.503Z</time></trkpt><trkpt lat="43.495235" lon="12.6629268"><ele>1198.0</ele><time>2026-05-01T13:13:36.503Z</time></trkpt><trkpt lat="43.4952266" lon="12.6628147"><ele>1198.0</ele><time>2026-05-01T13:13:37.504Z</time></trkpt><trkpt lat="43.4952184" lon="12.6626857"><ele>1199.0</ele><time>2026-05-01T13:13:38.503Z</time></trkpt><trkpt lat="43.4952044" lon="12.6625403"><ele>1200.0</ele><time>2026-05-01T13:13:39.504Z</time></trkpt><trkpt lat="43.4951997" lon="12.6623862"><ele>1201.0</ele><time>2026-05-01T13:13:40.504Z</time></trkpt><trkpt lat="43.4951923" lon="12.6622313"><ele>1202.0</ele><time>2026-05-01T13:13:41.504Z</time></trkpt><trkpt lat="43.4951895" lon="12.6620678"><ele>1202.5</ele><time>2026-05-01T13:13:42.504Z</time></trkpt><trkpt lat="43.4951898" lon="12.6618972"><ele>1203.0</ele><time>2026-05-01T13:13:43.504Z</time></trkpt><trkpt lat="43.4951886" lon="12.6617251"><ele>1203.5</ele><time>2026-05-01T13:13:44.504Z</time></trkpt><trkpt lat="43.4951889" lon="12.6615508"><ele>1204.0</ele><time>2026-05-01T13:13:45.504Z</time></trkpt><trkpt lat="43.495183" lon="12.6613754"><ele>1204.0</ele><time>2026-05-01T13:13:46.504Z</time></trkpt><trkpt lat="43.4951761" lon="12.6611914"><ele>1204.0</ele><time>2026-05-01T13:13:47.504Z</time></trkpt><trkpt lat="43.4951651" lon="12.6609995"><ele>1204.0</ele><time>2026-05-01T13:13:48.504Z</time></trkpt><trkpt lat="43.4951509" lon="12.6608033"><ele>1204.0</ele><time>2026-05-01T13:13:49.504Z</time></trkpt><trkpt lat="43.4951303" lon="12.6606061"><ele>1202.25</ele><time>2026-05-01T13:13:50.504Z</time></trkpt><trkpt lat="43.4951067" lon="12.6604094"><ele>1200.5</ele><time>2026-05-01T13:13:51.504Z</time></trkpt><trkpt lat="43.4950827" lon="12.6602094"><ele>1198.75</ele><time>2026-05-01T13:13:52.504Z</time></trkpt><trkpt lat="43.4950632" lon="12.660004"><ele>1197.0</ele><time>2026-05-01T13:13:53.504Z</time></trkpt><trkpt lat="43.4950362" lon="12.659791"><ele>1194.6666666666667</ele><time>2026-05-01T13:13:54.504Z</time></trkpt><trkpt lat="43.4950017" lon="12.6595757"><ele>1192.3333333333335</ele><time>2026-05-01T13:13:55.504Z</time></trkpt><trkpt lat="43.4949634" lon="12.6593578"><ele>1190.0</ele><time>2026-05-01T13:13:56.504Z</time></trkpt><trkpt lat="43.494922" lon="12.6591447"><ele>1188.6666666666667</ele><time>2026-05-01T13:13:57.504Z</time></trkpt><trkpt lat="43.4948806" lon="12.6589271"><ele>1187.3333333333333</ele><time>2026-05-01T13:13:58.503Z</time></trkpt><trkpt lat="43.4948365" lon="12.6587098"><ele>1186.0</ele><time>2026-05-01T13:13:59.504Z</time></trkpt><trkpt lat="43.4947905" lon="12.6584973"><ele>1183.3333333333333</ele><time>2026-05-01T13:14:00.504Z</time></trkpt><trkpt lat="43.4947412" lon="12.6582881"><ele>1180.6666666666667</ele><time>2026-05-01T13:14:01.503Z</time></trkpt><trkpt lat="43.4946969" lon="12.6580822"><ele>1178.0</ele><time>2026-05-01T13:14:02.503Z</time></trkpt><trkpt lat="43.4946537" lon="12.6578855"><ele>1180.0</ele><time>2026-05-01T13:14:03.503Z</time></trkpt><trkpt lat="43.494609" lon="12.6576856"><ele>1182.0</ele><time>2026-05-01T13:14:04.503Z</time></trkpt><trkpt lat="43.4945665" lon="12.6574825"><ele>1184.0</ele><time>2026-05-01T13:14:05.504Z</time></trkpt><trkpt lat="43.4945256" lon="12.657274"><ele>1184.0</ele><time>2026-05-01T13:14:06.504Z</time></trkpt><trkpt lat="43.4944819" lon="12.6570658"><ele>1184.0</ele><time>2026-05-01T13:14:07.504Z</time></trkpt><trkpt lat="43.4944363" lon="12.6568662"><ele>1184.0</ele><time>2026-05-01T13:14:08.503Z</time></trkpt><trkpt lat="43.4943908" lon="12.6566622"><ele>1181.6666666666667</ele><time>2026-05-01T13:14:09.504Z</time></trkpt><trkpt lat="43.4943485" lon="12.6564581"><ele>1179.3333333333333</ele><time>2026-05-01T13:14:10.503Z</time></trkpt><trkpt lat="43.4943048" lon="12.6562534"><ele>1177.0</ele><time>2026-05-01T13:14:11.503Z</time></trkpt><trkpt lat="43.4942645" lon="12.6560544"><ele>1174.75</ele><time>2026-05-01T13:14:12.504Z</time></trkpt><trkpt lat="43.4942264" lon="12.6558666"><ele>1172.5</ele><time>2026-05-01T13:14:13.504Z</time></trkpt><trkpt lat="43.4941789" lon="12.6556825"><ele>1170.25</ele><time>2026-05-01T13:14:14.503Z</time></trkpt><trkpt lat="43.4941348" lon="12.6554977"><ele>1168.0</ele><time>2026-05-01T13:14:15.504Z</time></trkpt><trkpt lat="43.4940896" lon="12.6553169"><ele>1167.75</ele><time>2026-05-01T13:14:16.504Z</time></trkpt><trkpt lat="43.4940435" lon="12.6551381"><ele>1167.5</ele><time>2026-05-01T13:14:17.504Z</time></trkpt><trkpt lat="43.4939947" lon="12.6549629"><ele>1167.25</ele><time>2026-05-01T13:14:18.504Z</time></trkpt><trkpt lat="43.4939453" lon="12.6547877"><ele>1167.0</ele><time>2026-05-01T13:14:19.504Z</time></trkpt><trkpt lat="43.4939081" lon="12.654618"><ele>1164.75</ele><time>2026-05-01T13:14:20.504Z</time></trkpt><trkpt lat="43.4938761" lon="12.6544471"><ele>1162.5</ele><time>2026-05-01T13:14:21.504Z</time></trkpt><trkpt lat="43.4938483" lon="12.6542785"><ele>1160.25</ele><time>2026-05-01T13:14:22.504Z</time></trkpt><trkpt lat="43.4938155" lon="12.6541104"><ele>1158.0</ele><time>2026-05-01T13:14:23.503Z</time></trkpt><trkpt lat="43.4937736" lon="12.6539508"><ele>1158.0</ele><time>2026-05-01T13:14:24.504Z</time></trkpt><trkpt lat="43.4937384" lon="12.6537864"><ele>1158.0</ele><time>2026-05-01T13:14:25.504Z</time></trkpt><trkpt lat="43.4937031" lon="12.6536225"><ele>1158.0</ele><time>2026-05-01T13:14:26.504Z</time></trkpt><trkpt lat="43.4936607" lon="12.6534644"><ele>1158.0</ele><time>2026-05-01T13:14:27.504Z</time></trkpt><trkpt lat="43.4936079" lon="12.6533027"><ele>1158.0</ele><time>2026-05-01T13:14:28.504Z</time></trkpt><trkpt lat="43.4935539" lon="12.6531431"><ele>1158.0</ele><time>2026-05-01T13:14:29.503Z</time></trkpt><trkpt lat="43.4934995" lon="12.6529901"><ele>1158.0</ele><time>2026-05-01T13:14:30.504Z</time></trkpt><trkpt lat="43.4934402" lon="12.6528493"><ele>1158.0</ele><time>2026-05-01T13:14:31.503Z</time></trkpt><trkpt lat="43.4933676" lon="12.6527118"><ele>1155.5</ele><time>2026-05-01T13:14:32.503Z</time></trkpt><trkpt lat="43.4932973" lon="12.6525668"><ele>1153.0</ele><time>2026-05-01T13:14:33.503Z</time></trkpt><trkpt lat="43.4932286" lon="12.6524216"><ele>1150.5</ele><time>2026-05-01T13:14:34.504Z</time></trkpt><trkpt lat="43.4931579" lon="12.6522823"><ele>1148.0</ele><time>2026-05-01T13:14:35.504Z</time></trkpt><trkpt lat="43.4930792" lon="12.6521461"><ele>1148.0</ele><time>2026-05-01T13:14:36.504Z</time></trkpt><trkpt lat="43.4929931" lon="12.6520117"><ele>1148.0</ele><time>2026-05-01T13:14:37.504Z</time></trkpt><trkpt lat="43.4929074" lon="12.651877"><ele>1148.0</ele><time>2026-05-01T13:14:38.503Z</time></trkpt><trkpt lat="43.4928193" lon="12.6517503"><ele>1148.0</ele><time>2026-05-01T13:14:39.504Z</time></trkpt><trkpt lat="43.4927208" lon="12.6516213"><ele>1146.25</ele><time>2026-05-01T13:14:40.504Z</time></trkpt><trkpt lat="43.4926175" lon="12.6515036"><ele>1144.5</ele><time>2026-05-01T13:14:41.504Z</time></trkpt><trkpt lat="43.4925073" lon="12.6513871"><ele>1142.75</ele><time>2026-05-01T13:14:42.503Z</time></trkpt><trkpt lat="43.4923999" lon="12.6512849"><ele>1141.0</ele><time>2026-05-01T13:14:43.504Z</time></trkpt><trkpt lat="43.4922947" lon="12.6512008"><ele>1138.3999999999999</ele><time>2026-05-01T13:14:44.504Z</time></trkpt><trkpt lat="43.4921945" lon="12.6511226"><ele>1135.8</ele><time>2026-05-01T13:14:45.504Z</time></trkpt><trkpt lat="43.4921" lon="12.6510557"><ele>1133.1999999999998</ele><time>2026-05-01T13:14:46.504Z</time></trkpt><trkpt lat="43.4920005" lon="12.6509961"><ele>1130.6</ele><time>2026-05-01T13:14:47.504Z</time></trkpt><trkpt lat="43.4918998" lon="12.6509578"><ele>1128.0</ele><time>2026-05-01T13:14:48.503Z</time></trkpt><trkpt lat="43.4917996" lon="12.6509368"><ele>1128.0</ele><time>2026-05-01T13:14:49.504Z</time></trkpt><trkpt lat="43.4917117" lon="12.6509161"><ele>1128.0</ele><time>2026-05-01T13:14:50.503Z</time></trkpt><trkpt lat="43.4916321" lon="12.6509019"><ele>1128.0</ele><time>2026-05-01T13:14:51.503Z</time></trkpt><trkpt lat="43.4915653" lon="12.6508816"><ele>1128.0</ele><time>2026-05-01T13:14:52.503Z</time></trkpt><trkpt lat="43.4914692" lon="12.6507826"><ele>1128.0</ele><time>2026-05-01T13:14:54.503Z</time></trkpt><trkpt lat="43.4914576" lon="12.6506235"><ele>1128.0</ele><time>2026-05-01T13:14:56.504Z</time></trkpt><trkpt lat="43.4914961" lon="12.6505516"><ele>1128.0</ele><time>2026-05-01T13:14:57.504Z</time></trkpt><trkpt lat="43.4915629" lon="12.650506"><ele>1128.0</ele><time>2026-05-01T13:14:58.504Z</time></trkpt><trkpt lat="43.491648" lon="12.6504782"><ele>1128.0</ele><time>2026-05-01T13:14:59.504Z</time></trkpt><trkpt lat="43.491772" lon="12.65048"><ele>1128.0</ele><time>2026-05-01T13:15:00.504Z</time></trkpt><trkpt lat="43.4918998" lon="12.6504684"><ele>1128.0</ele><time>2026-05-01T13:15:01.504Z</time></trkpt><trkpt lat="43.4920356" lon="12.6504527"><ele>1128.0</ele><time>2026-05-01T13:15:02.503Z</time></trkpt><trkpt lat="43.492176" lon="12.6504384"><ele>1128.0</ele><time>2026-05-01T13:15:03.504Z</time></trkpt><trkpt lat="43.4923216" lon="12.6504256"><ele>1128.0</ele><time>2026-05-01T13:15:04.503Z</time></trkpt><trkpt lat="43.4924681" lon="12.6504154"><ele>1127.6666666666667</ele><time>2026-05-01T13:15:05.504Z</time></trkpt><trkpt lat="43.4926157" lon="12.6504022"><ele>1127.3333333333335</ele><time>2026-05-01T13:15:06.504Z</time></trkpt><trkpt lat="43.4927665" lon="12.6503846"><ele>1127.0</ele><time>2026-05-01T13:15:07.504Z</time></trkpt><trkpt lat="43.4929181" lon="12.6503672"><ele>1126.5</ele><time>2026-05-01T13:15:08.504Z</time></trkpt><trkpt lat="43.4930647" lon="12.650358"><ele>1126.0</ele><time>2026-05-01T13:15:09.504Z</time></trkpt><trkpt lat="43.493205" lon="12.6503438"><ele>1125.5</ele><time>2026-05-01T13:15:10.504Z</time></trkpt><trkpt lat="43.493343" lon="12.6503341"><ele>1125.0</ele><time>2026-05-01T13:15:11.504Z</time></trkpt><trkpt lat="43.4934845" lon="12.6503252"><ele>1125.0</ele><time>2026-05-01T13:15:12.504Z</time></trkpt><trkpt lat="43.4936238" lon="12.6503146"><ele>1125.0</ele><time>2026-05-01T13:15:13.503Z</time></trkpt><trkpt lat="43.4937641" lon="12.6503211"><ele>1125.0</ele><time>2026-05-01T13:15:14.504Z</time></trkpt><trkpt lat="43.4939039" lon="12.6503324"><ele>1125.0</ele><time>2026-05-01T13:15:15.504Z</time></trkpt><trkpt lat="43.4940439" lon="12.6503449"><ele>1123.5</ele><time>2026-05-01T13:15:16.504Z</time></trkpt><trkpt lat="43.4941828" lon="12.6503698"><ele>1122.0</ele><time>2026-05-01T13:15:17.504Z</time></trkpt><trkpt lat="43.4943251" lon="12.6503998"><ele>1120.5</ele><time>2026-05-01T13:15:18.504Z</time></trkpt><trkpt lat="43.4944664" lon="12.6504427"><ele>1119.0</ele><time>2026-05-01T13:15:19.504Z</time></trkpt><trkpt lat="43.4946032" lon="12.6504938"><ele>1117.25</ele><time>2026-05-01T13:15:20.504Z</time></trkpt><trkpt lat="43.4947414" lon="12.6505516"><ele>1115.5</ele><time>2026-05-01T13:15:21.504Z</time></trkpt><trkpt lat="43.4948815" lon="12.6506079"><ele>1113.75</ele><time>2026-05-01T13:15:22.503Z</time></trkpt><trkpt lat="43.4950208" lon="12.6506635"><ele>1112.0</ele><time>2026-05-01T13:15:23.504Z</time></trkpt><trkpt lat="43.4951597" lon="12.6507257"><ele>1112.0</ele><time>2026-05-01T13:15:24.504Z</time></trkpt><trkpt lat="43.4952903" lon="12.6507934"><ele>1112.0</ele><time>2026-05-01T13:15:25.504Z</time></trkpt><trkpt lat="43.4954195" lon="12.6508677"><ele>1112.0</ele><time>2026-05-01T13:15:26.504Z</time></trkpt><trkpt lat="43.4955366" lon="12.650949"><ele>1112.0</ele><time>2026-05-01T13:15:27.504Z</time></trkpt><trkpt lat="43.49565" lon="12.651041"><ele>1112.25</ele><time>2026-05-01T13:15:28.504Z</time></trkpt><trkpt lat="43.4957616" lon="12.6511477"><ele>1112.5</ele><time>2026-05-01T13:15:29.503Z</time></trkpt><trkpt lat="43.4958635" lon="12.651268"><ele>1112.75</ele><time>2026-05-01T13:15:30.504Z</time></trkpt><trkpt lat="43.4959567" lon="12.6513884"><ele>1113.0</ele><time>2026-05-01T13:15:31.503Z</time></trkpt><trkpt lat="43.4960378" lon="12.6515061"><ele>1113.0</ele><time>2026-05-01T13:15:32.504Z</time></trkpt><trkpt lat="43.4961204" lon="12.6516132"><ele>1113.0</ele><time>2026-05-01T13:15:33.504Z</time></trkpt><trkpt lat="43.4962014" lon="12.6517177"><ele>1113.0</ele><time>2026-05-01T13:15:34.504Z</time></trkpt><trkpt lat="43.4962811" lon="12.6518169"><ele>1113.0</ele><time>2026-05-01T13:15:35.504Z</time></trkpt><trkpt lat="43.4963623" lon="12.6519031"><ele>1113.0</ele><time>2026-05-01T13:15:36.504Z</time></trkpt><trkpt lat="43.4964339" lon="12.6519726"><ele>1112.4</ele><time>2026-05-01T13:15:37.503Z</time></trkpt><trkpt lat="43.4965" lon="12.6520135"><ele>1111.8</ele><time>2026-05-01T13:15:38.503Z</time></trkpt><trkpt lat="43.4965817" lon="12.6520048"><ele>1111.2</ele><time>2026-05-01T13:15:39.504Z</time></trkpt><trkpt lat="43.496665" lon="12.6519506"><ele>1110.6</ele><time>2026-05-01T13:15:40.504Z</time></trkpt><trkpt lat="43.4967388" lon="12.6518581"><ele>1110.0</ele><time>2026-05-01T13:15:41.503Z</time></trkpt><trkpt lat="43.4968041" lon="12.651737"><ele>1108.2</ele><time>2026-05-01T13:15:42.504Z</time></trkpt><trkpt lat="43.4968507" lon="12.6515917"><ele>1106.4</ele><time>2026-05-01T13:15:43.504Z</time></trkpt><trkpt lat="43.4968941" lon="12.6514571"><ele>1104.6</ele><time>2026-05-01T13:15:44.504Z</time></trkpt><trkpt lat="43.4969471" lon="12.6513286"><ele>1102.8</ele><time>2026-05-01T13:15:45.504Z</time></trkpt><trkpt lat="43.4970074" lon="12.6512216"><ele>1101.0</ele><time>2026-05-01T13:15:46.504Z</time></trkpt><trkpt lat="43.4970832" lon="12.6511396"><ele>1100.3999999999999</ele><time>2026-05-01T13:15:47.504Z</time></trkpt><trkpt lat="43.4971696" lon="12.6511021"><ele>1099.8</ele><time>2026-05-01T13:15:48.503Z</time></trkpt><trkpt lat="43.4972697" lon="12.6510795"><ele>1099.1999999999998</ele><time>2026-05-01T13:15:49.504Z</time></trkpt><trkpt lat="43.4973775" lon="12.6511029"><ele>1098.6</ele><time>2026-05-01T13:15:50.504Z</time></trkpt><trkpt lat="43.497487" lon="12.6511506"><ele>1098.0</ele><time>2026-05-01T13:15:51.504Z</time></trkpt><trkpt lat="43.4976007" lon="12.6512333"><ele>1098.0</ele><time>2026-05-01T13:15:52.503Z</time></trkpt><trkpt lat="43.497718" lon="12.651331"><ele>1098.0</ele><time>2026-05-01T13:15:53.503Z</time></trkpt><trkpt lat="43.4978324" lon="12.6514322"><ele>1098.0</ele><time>2026-05-01T13:15:54.504Z</time></trkpt><trkpt lat="43.4979421" lon="12.6515439"><ele>1098.0</ele><time>2026-05-01T13:15:55.504Z</time></trkpt><trkpt lat="43.4980427" lon="12.6516685"><ele>1095.75</ele><time>2026-05-01T13:15:56.504Z</time></trkpt><trkpt lat="43.4981365" lon="12.6518037"><ele>1093.5</ele><time>2026-05-01T13:15:57.504Z</time></trkpt><trkpt lat="43.4982234" lon="12.6519352"><ele>1091.25</ele><time>2026-05-01T13:15:58.503Z</time></trkpt><trkpt lat="43.4983112" lon="12.6520768"><ele>1089.0</ele><time>2026-05-01T13:15:59.504Z</time></trkpt><trkpt lat="43.4983944" lon="12.6522197"><ele>1089.0</ele><time>2026-05-01T13:16:00.504Z</time></trkpt><trkpt lat="43.4984776" lon="12.6523643"><ele>1089.0</ele><time>2026-05-01T13:16:01.504Z</time></trkpt><trkpt lat="43.4985542" lon="12.6525088"><ele>1089.0</ele><time>2026-05-01T13:16:02.504Z</time></trkpt><trkpt lat="43.498631" lon="12.6526514"><ele>1089.0</ele><time>2026-05-01T13:16:03.504Z</time></trkpt><trkpt lat="43.4987016" lon="12.6528098"><ele>1084.3333333333333</ele><time>2026-05-01T13:16:04.504Z</time></trkpt><trkpt lat="43.4987648" lon="12.6529908"><ele>1079.6666666666665</ele><time>2026-05-01T13:16:05.504Z</time></trkpt><trkpt lat="43.4988243" lon="12.6531829"><ele>1075.0</ele><time>2026-05-01T13:16:06.504Z</time></trkpt><trkpt lat="43.4988883" lon="12.653385"><ele>1075.0</ele><time>2026-05-01T13:16:07.503Z</time></trkpt><trkpt lat="43.4989612" lon="12.6535955"><ele>1075.0</ele><time>2026-05-01T13:16:08.504Z</time></trkpt><trkpt lat="43.4990359" lon="12.653818"><ele>1075.0</ele><time>2026-05-01T13:16:09.503Z</time></trkpt><trkpt lat="43.4991139" lon="12.6540469"><ele>1074.3333333333333</ele><time>2026-05-01T13:16:10.504Z</time></trkpt><trkpt lat="43.4991933" lon="12.6542743"><ele>1073.6666666666667</ele><time>2026-05-01T13:16:11.504Z</time></trkpt><trkpt lat="43.4992684" lon="12.6544977"><ele>1073.0</ele><time>2026-05-01T13:16:12.504Z</time></trkpt><trkpt lat="43.499341" lon="12.6547136"><ele>1075.0</ele><time>2026-05-01T13:16:13.504Z</time></trkpt><trkpt lat="43.4994114" lon="12.6549234"><ele>1077.0</ele><time>2026-05-01T13:16:14.504Z</time></trkpt><trkpt lat="43.4994755" lon="12.6551248"><ele>1079.0</ele><time>2026-05-01T13:16:15.503Z</time></trkpt><trkpt lat="43.4995325" lon="12.6553161"><ele>1075.5</ele><time>2026-05-01T13:16:16.504Z</time></trkpt><trkpt lat="43.4995853" lon="12.6555033"><ele>1072.0</ele><time>2026-05-01T13:16:17.504Z</time></trkpt><trkpt lat="43.4996317" lon="12.6556865"><ele>1068.5</ele><time>2026-05-01T13:16:18.504Z</time></trkpt><trkpt lat="43.4996749" lon="12.6558657"><ele>1065.0</ele><time>2026-05-01T13:16:19.504Z</time></trkpt><trkpt lat="43.4997117" lon="12.6560384"><ele>1063.5</ele><time>2026-05-01T13:16:20.504Z</time></trkpt><trkpt lat="43.4997387" lon="12.6562091"><ele>1062.0</ele><time>2026-05-01T13:16:21.504Z</time></trkpt><trkpt lat="43.4997584" lon="12.6563738"><ele>1060.5</ele><time>2026-05-01T13:16:22.504Z</time></trkpt><trkpt lat="43.4997749" lon="12.6565355"><ele>1059.0</ele><time>2026-05-01T13:16:23.504Z</time></trkpt><trkpt lat="43.4997946" lon="12.6566909"><ele>1059.0</ele><time>2026-05-01T13:16:24.504Z</time></trkpt><trkpt lat="43.499813" lon="12.6568398"><ele>1059.0</ele><time>2026-05-01T13:16:25.504Z</time></trkpt><trkpt lat="43.4998266" lon="12.6569861"><ele>1059.0</ele><time>2026-05-01T13:16:26.504Z</time></trkpt><trkpt lat="43.4998394" lon="12.6571284"><ele>1059.0</ele><time>2026-05-01T13:16:27.504Z</time></trkpt><trkpt lat="43.4998531" lon="12.6572652"><ele>1059.0</ele><time>2026-05-01T13:16:28.503Z</time></trkpt><trkpt lat="43.4998721" lon="12.6573993"><ele>1058.8</ele><time>2026-05-01T13:16:29.504Z</time></trkpt><trkpt lat="43.4998985" lon="12.6575343"><ele>1058.6000000000001</ele><time>2026-05-01T13:16:30.504Z</time></trkpt><trkpt lat="43.4999393" lon="12.6576658"><ele>1058.4</ele><time>2026-05-01T13:16:31.504Z</time></trkpt><trkpt lat="43.5000043" lon="12.657778"><ele>1058.2</ele><time>2026-05-01T13:16:32.504Z</time></trkpt><trkpt lat="43.5000893" lon="12.6578609"><ele>1058.0</ele><time>2026-05-01T13:16:33.504Z</time></trkpt><trkpt lat="43.5001868" lon="12.6579219"><ele>1055.75</ele><time>2026-05-01T13:16:34.504Z</time></trkpt><trkpt lat="43.5002979" lon="12.6579808"><ele>1053.5</ele><time>2026-05-01T13:16:35.504Z</time></trkpt><trkpt lat="43.5004237" lon="12.6580311"><ele>1051.25</ele><time>2026-05-01T13:16:36.504Z</time></trkpt><trkpt lat="43.5005348" lon="12.6580722"><ele>1049.0</ele><time>2026-05-01T13:16:37.503Z</time></trkpt><trkpt lat="43.5006391" lon="12.6581086"><ele>1049.0</ele><time>2026-05-01T13:16:38.504Z</time></trkpt><trkpt lat="43.5007438" lon="12.6581532"><ele>1049.0</ele><time>2026-05-01T13:16:39.504Z</time></trkpt><trkpt lat="43.5008455" lon="12.6582105"><ele>1049.0</ele><time>2026-05-01T13:16:40.504Z</time></trkpt><trkpt lat="43.5009373" lon="12.6582797"><ele>1049.0</ele><time>2026-05-01T13:16:41.504Z</time></trkpt><trkpt lat="43.5010156" lon="12.6583843"><ele>1049.0</ele><time>2026-05-01T13:16:42.503Z</time></trkpt><trkpt lat="43.5010801" lon="12.6585174"><ele>1049.0</ele><time>2026-05-01T13:16:43.504Z</time></trkpt><trkpt lat="43.5011193" lon="12.6586531"><ele>1049.0</ele><time>2026-05-01T13:16:44.504Z</time></trkpt><trkpt lat="43.5011451" lon="12.6587758"><ele>1049.0</ele><time>2026-05-01T13:16:45.503Z</time></trkpt><trkpt lat="43.5011607" lon="12.6588881"><ele>1049.0</ele><time>2026-05-01T13:16:46.504Z</time></trkpt><trkpt lat="43.5011672" lon="12.6589848"><ele>1049.0</ele><time>2026-05-01T13:16:47.503Z</time></trkpt><trkpt lat="43.5011845" lon="12.6591462"><ele>1045.8</ele><time>2026-05-01T13:16:49.503Z</time></trkpt><trkpt lat="43.501289" lon="12.659238"><ele>1042.6000000000001</ele><time>2026-05-01T13:16:51.504Z</time></trkpt><trkpt lat="43.5013534" lon="12.6592157"><ele>1039.4</ele><time>2026-05-01T13:16:52.504Z</time></trkpt><trkpt lat="43.5014127" lon="12.6591455"><ele>1036.2</ele><time>2026-05-01T13:16:53.504Z</time></trkpt><trkpt lat="43.5014502" lon="12.6590343"><ele>1033.0</ele><time>2026-05-01T13:16:54.503Z</time></trkpt><trkpt lat="43.5014638" lon="12.6588804"><ele>1033.0</ele><time>2026-05-01T13:16:55.504Z</time></trkpt><trkpt lat="43.501465" lon="12.6587405"><ele>1033.0</ele><time>2026-05-01T13:16:56.503Z</time></trkpt><trkpt lat="43.5014665" lon="12.6586024"><ele>1033.0</ele><time>2026-05-01T13:16:57.504Z</time></trkpt><trkpt lat="43.5014623" lon="12.6584749"><ele>1033.0</ele><time>2026-05-01T13:16:58.504Z</time></trkpt><trkpt lat="43.5014516" lon="12.6583502"><ele>1033.0</ele><time>2026-05-01T13:16:59.504Z</time></trkpt><trkpt lat="43.5014189" lon="12.6582321"><ele>1032.5</ele><time>2026-05-01T13:17:00.504Z</time></trkpt><trkpt lat="43.5013577" lon="12.6581283"><ele>1032.0</ele><time>2026-05-01T13:17:01.504Z</time></trkpt><trkpt lat="43.5012601" lon="12.6580274"><ele>1031.5</ele><time>2026-05-01T13:17:02.504Z</time></trkpt><trkpt lat="43.5011577" lon="12.6579378"><ele>1031.0</ele><time>2026-05-01T13:17:03.504Z</time></trkpt><trkpt lat="43.5010528" lon="12.6578581"><ele>1032.8</ele><time>2026-05-01T13:17:04.503Z</time></trkpt><trkpt lat="43.5009489" lon="12.6577661"><ele>1034.6</ele><time>2026-05-01T13:17:05.504Z</time></trkpt><trkpt lat="43.5008633" lon="12.6576841"><ele>1036.4</ele><time>2026-05-01T13:17:06.504Z</time></trkpt><trkpt lat="43.5007816" lon="12.6575881"><ele>1038.2</ele><time>2026-05-01T13:17:07.504Z</time></trkpt><trkpt lat="43.5007072" lon="12.6574926"><ele>1040.0</ele><time>2026-05-01T13:17:08.504Z</time></trkpt><trkpt lat="43.5006473" lon="12.6573923"><ele>1040.0</ele><time>2026-05-01T13:17:09.504Z</time></trkpt><trkpt lat="43.5006004" lon="12.657285"><ele>1040.0</ele><time>2026-05-01T13:17:10.504Z</time></trkpt><trkpt lat="43.5005672" lon="12.6571833"><ele>1040.0</ele><time>2026-05-01T13:17:11.504Z</time></trkpt><trkpt lat="43.5005543" lon="12.6570609"><ele>1040.0</ele><time>2026-05-01T13:17:12.504Z</time></trkpt><trkpt lat="43.5005798" lon="12.6569402"><ele>1040.0</ele><time>2026-05-01T13:17:13.504Z</time></trkpt><trkpt lat="43.5006373" lon="12.6567937"><ele>1039.25</ele><time>2026-05-01T13:17:14.503Z</time></trkpt><trkpt lat="43.5007316" lon="12.6566416"><ele>1038.5</ele><time>2026-05-01T13:17:15.504Z</time></trkpt><trkpt lat="43.500822" lon="12.6564985"><ele>1037.75</ele><time>2026-05-01T13:17:16.504Z</time></trkpt><trkpt lat="43.5009106" lon="12.6563684"><ele>1037.0</ele><time>2026-05-01T13:17:17.504Z</time></trkpt><trkpt lat="43.5010254" lon="12.6562431"><ele>1037.0</ele><time>2026-05-01T13:17:18.504Z</time></trkpt><trkpt lat="43.5011369" lon="12.6561235"><ele>1037.0</ele><time>2026-05-01T13:17:19.503Z</time></trkpt><trkpt lat="43.5012511" lon="12.6560001"><ele>1037.0</ele><time>2026-05-01T13:17:20.503Z</time></trkpt><trkpt lat="43.5013583" lon="12.6558813"><ele>1037.0</ele><time>2026-05-01T13:17:21.503Z</time></trkpt><trkpt lat="43.5014548" lon="12.6557582"><ele>1032.25</ele><time>2026-05-01T13:17:22.504Z</time></trkpt><trkpt lat="43.5015217" lon="12.6556185"><ele>1027.5</ele><time>2026-05-01T13:17:23.503Z</time></trkpt><trkpt lat="43.5015687" lon="12.6554603"><ele>1022.75</ele><time>2026-05-01T13:17:24.504Z</time></trkpt><trkpt lat="43.5016045" lon="12.6553073"><ele>1018.0</ele><time>2026-05-01T13:17:25.504Z</time></trkpt><trkpt lat="43.5016199" lon="12.6551501"><ele>1017.5</ele><time>2026-05-01T13:17:26.504Z</time></trkpt><trkpt lat="43.5016279" lon="12.6549839"><ele>1017.0</ele><time>2026-05-01T13:17:27.504Z</time></trkpt><trkpt lat="43.5016339" lon="12.6548202"><ele>1016.5</ele><time>2026-05-01T13:17:28.504Z</time></trkpt><trkpt lat="43.5016722" lon="12.654664"><ele>1016.0</ele><time>2026-05-01T13:17:29.503Z</time></trkpt><trkpt lat="43.5017351" lon="12.6545194"><ele>1014.5</ele><time>2026-05-01T13:17:30.504Z</time></trkpt><trkpt lat="43.5018135" lon="12.6543775"><ele>1013.0</ele><time>2026-05-01T13:17:31.504Z</time></trkpt><trkpt lat="43.5018944" lon="12.6542482"><ele>1011.5</ele><time>2026-05-01T13:17:32.503Z</time></trkpt><trkpt lat="43.5019781" lon="12.6541175"><ele>1010.0</ele><time>2026-05-01T13:17:33.504Z</time></trkpt><trkpt lat="43.5020629" lon="12.6539809"><ele>1007.0</ele><time>2026-05-01T13:17:34.504Z</time></trkpt><trkpt lat="43.5021393" lon="12.6538308"><ele>1004.0</ele><time>2026-05-01T13:17:35.503Z</time></trkpt><trkpt lat="43.5022108" lon="12.6536785"><ele>1001.0</ele><time>2026-05-01T13:17:36.503Z</time></trkpt><trkpt lat="43.5022856" lon="12.6535323"><ele>998.0</ele><time>2026-05-01T13:17:37.504Z</time></trkpt><trkpt lat="43.5023554" lon="12.6533895"><ele>998.0</ele><time>2026-05-01T13:17:38.504Z</time></trkpt><trkpt lat="43.5024248" lon="12.6532478"><ele>998.0</ele><time>2026-05-01T13:17:39.504Z</time></trkpt><trkpt lat="43.5024951" lon="12.6531078"><ele>998.0</ele><time>2026-05-01T13:17:40.503Z</time></trkpt><trkpt lat="43.5025653" lon="12.652979"><ele>998.0</ele><time>2026-05-01T13:17:41.503Z</time></trkpt><trkpt lat="43.5026307" lon="12.6528495"><ele>999.0</ele><time>2026-05-01T13:17:42.503Z</time></trkpt><trkpt lat="43.5026915" lon="12.6527075"><ele>1000.0</ele><time>2026-05-01T13:17:43.504Z</time></trkpt><trkpt lat="43.5027501" lon="12.652561"><ele>1001.0</ele><time>2026-05-01T13:17:44.503Z</time></trkpt><trkpt lat="43.5028062" lon="12.6523936"><ele>1002.0</ele><time>2026-05-01T13:17:45.504Z</time></trkpt><trkpt lat="43.5028618" lon="12.652217"><ele>1002.0</ele><time>2026-05-01T13:17:46.504Z</time></trkpt><trkpt lat="43.502906" lon="12.6520304"><ele>1002.0</ele><time>2026-05-01T13:17:47.503Z</time></trkpt><trkpt lat="43.5029467" lon="12.6518384"><ele>1002.0</ele><time>2026-05-01T13:17:48.504Z</time></trkpt><trkpt lat="43.5029765" lon="12.651656"><ele>1002.0</ele><time>2026-05-01T13:17:49.503Z</time></trkpt><trkpt lat="43.5030027" lon="12.65147"><ele>997.75</ele><time>2026-05-01T13:17:50.504Z</time></trkpt><trkpt lat="43.5030239" lon="12.6512821"><ele>993.5</ele><time>2026-05-01T13:17:51.504Z</time></trkpt><trkpt lat="43.5030435" lon="12.651104"><ele>989.25</ele><time>2026-05-01T13:17:52.504Z</time></trkpt><trkpt lat="43.5030599" lon="12.6509228"><ele>985.0</ele><time>2026-05-01T13:17:53.504Z</time></trkpt><trkpt lat="43.5030736" lon="12.6507448"><ele>984.25</ele><time>2026-05-01T13:17:54.504Z</time></trkpt><trkpt lat="43.503077" lon="12.6505747"><ele>983.5</ele><time>2026-05-01T13:17:55.503Z</time></trkpt><trkpt lat="43.5030753" lon="12.6504091"><ele>982.75</ele><time>2026-05-01T13:17:56.504Z</time></trkpt><trkpt lat="43.5030734" lon="12.6502568"><ele>982.0</ele><time>2026-05-01T13:17:57.504Z</time></trkpt><trkpt lat="43.5030797" lon="12.6501182"><ele>981.8</ele><time>2026-05-01T13:17:58.504Z</time></trkpt><trkpt lat="43.5031216" lon="12.6499962"><ele>981.6</ele><time>2026-05-01T13:17:59.504Z</time></trkpt><trkpt lat="43.5031739" lon="12.6498817"><ele>981.3999999999999</ele><time>2026-05-01T13:18:00.504Z</time></trkpt><trkpt lat="43.503249" lon="12.6497867"><ele>981.1999999999999</ele><time>2026-05-01T13:18:01.504Z</time></trkpt><trkpt lat="43.5033333" lon="12.6496948"><ele>981.0</ele><time>2026-05-01T13:18:02.504Z</time></trkpt><trkpt lat="43.5034123" lon="12.6496174"><ele>981.0</ele><time>2026-05-01T13:18:03.504Z</time></trkpt><trkpt lat="43.5034821" lon="12.6495469"><ele>981.0</ele><time>2026-05-01T13:18:04.504Z</time></trkpt><trkpt lat="43.5035481" lon="12.6494988"><ele>981.0</ele><time>2026-05-01T13:18:05.504Z</time></trkpt><trkpt lat="43.5036048" lon="12.649451"><ele>981.0</ele><time>2026-05-01T13:18:06.504Z</time></trkpt><trkpt lat="43.5036691" lon="12.6494174"><ele>981.0</ele><time>2026-05-01T13:18:07.504Z</time></trkpt><trkpt lat="43.5037314" lon="12.6494043"><ele>981.0</ele><time>2026-05-01T13:18:08.504Z</time></trkpt><trkpt lat="43.5038458" lon="12.6494726"><ele>978.0</ele><time>2026-05-01T13:18:10.504Z</time></trkpt><trkpt lat="43.5038983" lon="12.6495534"><ele>975.0</ele><time>2026-05-01T13:18:11.503Z</time></trkpt><trkpt lat="43.503924" lon="12.6496613"><ele>972.0</ele><time>2026-05-01T13:18:12.504Z</time></trkpt><trkpt lat="43.5039258" lon="12.6497937"><ele>969.0</ele><time>2026-05-01T13:18:13.504Z</time></trkpt><trkpt lat="43.5039071" lon="12.6499246"><ele>966.0</ele><time>2026-05-01T13:18:14.504Z</time></trkpt><trkpt lat="43.5038685" lon="12.6500382"><ele>963.0</ele><time>2026-05-01T13:18:15.504Z</time></trkpt><trkpt lat="43.5038194" lon="12.6501335"><ele>963.0</ele><time>2026-05-01T13:18:16.504Z</time></trkpt><trkpt lat="43.5037715" lon="12.6502179"><ele>963.0</ele><time>2026-05-01T13:18:17.504Z</time></trkpt><trkpt lat="43.5037387" lon="12.6503128"><ele>963.0</ele><time>2026-05-01T13:18:18.504Z</time></trkpt><trkpt lat="43.503727" lon="12.6504239"><ele>963.0</ele><time>2026-05-01T13:18:19.504Z</time></trkpt><trkpt lat="43.5037399" lon="12.6505439"><ele>963.0</ele><time>2026-05-01T13:18:20.504Z</time></trkpt><trkpt lat="43.5037755" lon="12.6506806"><ele>963.0</ele><time>2026-05-01T13:18:21.504Z</time></trkpt><trkpt lat="43.5038394" lon="12.6508254"><ele>962.75</ele><time>2026-05-01T13:18:22.503Z</time></trkpt><trkpt lat="43.5039051" lon="12.6509766"><ele>962.5</ele><time>2026-05-01T13:18:23.504Z</time></trkpt><trkpt lat="43.5039743" lon="12.6511277"><ele>962.25</ele><time>2026-05-01T13:18:24.504Z</time></trkpt><trkpt lat="43.5040395" lon="12.6512786"><ele>962.0</ele><time>2026-05-01T13:18:25.503Z</time></trkpt><trkpt lat="43.5040983" lon="12.651432"><ele>963.75</ele><time>2026-05-01T13:18:26.504Z</time></trkpt><trkpt lat="43.5041619" lon="12.6515943"><ele>965.5</ele><time>2026-05-01T13:18:27.504Z</time></trkpt><trkpt lat="43.5042257" lon="12.6517544"><ele>967.25</ele><time>2026-05-01T13:18:28.504Z</time></trkpt><trkpt lat="43.5042814" lon="12.6519172"><ele>969.0</ele><time>2026-05-01T13:18:29.504Z</time></trkpt><trkpt lat="43.5043359" lon="12.6520803"><ele>969.0</ele><time>2026-05-01T13:18:30.503Z</time></trkpt><trkpt lat="43.5043834" lon="12.6522526"><ele>969.0</ele><time>2026-05-01T13:18:31.504Z</time></trkpt><trkpt lat="43.5044133" lon="12.6524336"><ele>969.0</ele><time>2026-05-01T13:18:32.503Z</time></trkpt><trkpt lat="43.5044412" lon="12.6526109"><ele>969.0</ele><time>2026-05-01T13:18:33.503Z</time></trkpt><trkpt lat="43.5044645" lon="12.6527808"><ele>968.0</ele><time>2026-05-01T13:18:34.503Z</time></trkpt><trkpt lat="43.5044813" lon="12.6529438"><ele>967.0000000000001</ele><time>2026-05-01T13:18:35.504Z</time></trkpt><trkpt lat="43.5044897" lon="12.6530995"><ele>966.0000000000001</ele><time>2026-05-01T13:18:36.504Z</time></trkpt><trkpt lat="43.5044943" lon="12.6532414"><ele>965.0</ele><time>2026-05-01T13:18:37.504Z</time></trkpt><trkpt lat="43.5044923" lon="12.6533837"><ele>964.0</ele><time>2026-05-01T13:18:38.504Z</time></trkpt><trkpt lat="43.5044886" lon="12.653524"><ele>962.6</ele><time>2026-05-01T13:18:39.504Z</time></trkpt><trkpt lat="43.5044867" lon="12.6536579"><ele>961.2</ele><time>2026-05-01T13:18:40.504Z</time></trkpt><trkpt lat="43.504466" lon="12.6537974"><ele>959.8000000000001</ele><time>2026-05-01T13:18:41.503Z</time></trkpt><trkpt lat="43.5044339" lon="12.6539346"><ele>958.4000000000001</ele><time>2026-05-01T13:18:42.503Z</time></trkpt><trkpt lat="43.504397" lon="12.6540606"><ele>957.0</ele><time>2026-05-01T13:18:43.504Z</time></trkpt><trkpt lat="43.5043241" lon="12.6541751"><ele>957.0</ele><time>2026-05-01T13:18:44.504Z</time></trkpt><trkpt lat="43.5042573" lon="12.6543057"><ele>957.0</ele><time>2026-05-01T13:18:45.503Z</time></trkpt><trkpt lat="43.5041897" lon="12.6544493"><ele>957.0</ele><time>2026-05-01T13:18:46.504Z</time></trkpt><trkpt lat="43.5041133" lon="12.6546046"><ele>957.0</ele><time>2026-05-01T13:18:47.504Z</time></trkpt><trkpt lat="43.5040396" lon="12.654778"><ele>954.0</ele><time>2026-05-01T13:18:48.504Z</time></trkpt><trkpt lat="43.503974" lon="12.6549642"><ele>951.0</ele><time>2026-05-01T13:18:49.503Z</time></trkpt><trkpt lat="43.5039258" lon="12.6551318"><ele>948.0</ele><time>2026-05-01T13:18:50.504Z</time></trkpt><trkpt lat="43.5038919" lon="12.6552691"><ele>945.0</ele><time>2026-05-01T13:18:51.504Z</time></trkpt><trkpt lat="43.5038498" lon="12.6554057"><ele>942.5</ele><time>2026-05-01T13:18:52.504Z</time></trkpt><trkpt lat="43.5037992" lon="12.6555479"><ele>940.0</ele><time>2026-05-01T13:18:53.504Z</time></trkpt><trkpt lat="43.5037557" lon="12.6556955"><ele>937.5</ele><time>2026-05-01T13:18:54.504Z</time></trkpt><trkpt lat="43.5037199" lon="12.6558523"><ele>935.0</ele><time>2026-05-01T13:18:55.504Z</time></trkpt><trkpt lat="43.5037092" lon="12.6560101"><ele>936.6666666666667</ele><time>2026-05-01T13:18:56.504Z</time></trkpt><trkpt lat="43.5037131" lon="12.6561572"><ele>938.3333333333334</ele><time>2026-05-01T13:18:57.504Z</time></trkpt><trkpt lat="43.5037348" lon="12.6562845"><ele>940.0</ele><time>2026-05-01T13:18:58.504Z</time></trkpt><trkpt lat="43.5037736" lon="12.6563855"><ele>941.6666666666667</ele><time>2026-05-01T13:18:59.503Z</time></trkpt><trkpt lat="43.5038303" lon="12.6564621"><ele>943.3333333333334</ele><time>2026-05-01T13:19:00.503Z</time></trkpt><trkpt lat="43.5038987" lon="12.6565181"><ele>945.0</ele><time>2026-05-01T13:19:01.504Z</time></trkpt><trkpt lat="43.5039878" lon="12.6565333"><ele>945.0</ele><time>2026-05-01T13:19:02.504Z</time></trkpt><trkpt lat="43.504096" lon="12.6565053"><ele>945.0</ele><time>2026-05-01T13:19:03.504Z</time></trkpt><trkpt lat="43.5042109" lon="12.6564778"><ele>945.0</ele><time>2026-05-01T13:19:04.504Z</time></trkpt><trkpt lat="43.5043303" lon="12.6564517"><ele>945.0</ele><time>2026-05-01T13:19:05.504Z</time></trkpt><trkpt lat="43.504462" lon="12.6564332"><ele>941.25</ele><time>2026-05-01T13:19:06.503Z</time></trkpt><trkpt lat="43.5046069" lon="12.6564195"><ele>937.5</ele><time>2026-05-01T13:19:07.504Z</time></trkpt><trkpt lat="43.5047403" lon="12.6564215"><ele>933.75</ele><time>2026-05-01T13:19:08.504Z</time></trkpt><trkpt lat="43.5048688" lon="12.6564201"><ele>930.0</ele><time>2026-05-01T13:19:09.504Z</time></trkpt><trkpt lat="43.5049917" lon="12.6564132"><ele>930.0</ele><time>2026-05-01T13:19:10.503Z</time></trkpt><trkpt lat="43.505114" lon="12.6563991"><ele>930.0</ele><time>2026-05-01T13:19:11.504Z</time></trkpt><trkpt lat="43.505232" lon="12.6563847"><ele>930.0</ele><time>2026-05-01T13:19:12.503Z</time></trkpt><trkpt lat="43.5053397" lon="12.6563644"><ele>930.0</ele><time>2026-05-01T13:19:13.504Z</time></trkpt><trkpt lat="43.5054474" lon="12.6563359"><ele>927.4</ele><time>2026-05-01T13:19:14.504Z</time></trkpt><trkpt lat="43.5055462" lon="12.6562906"><ele>924.8</ele><time>2026-05-01T13:19:15.503Z</time></trkpt><trkpt lat="43.5056407" lon="12.6562473"><ele>922.2</ele><time>2026-05-01T13:19:16.503Z</time></trkpt><trkpt lat="43.5057303" lon="12.6562057"><ele>919.6</ele><time>2026-05-01T13:19:17.503Z</time></trkpt><trkpt lat="43.505809" lon="12.6561601"><ele>917.0</ele><time>2026-05-01T13:19:18.504Z</time></trkpt><trkpt lat="43.5058797" lon="12.65611"><ele>915.5714285714286</ele><time>2026-05-01T13:19:19.504Z</time></trkpt><trkpt lat="43.5059419" lon="12.6560575"><ele>914.1428571428571</ele><time>2026-05-01T13:19:20.504Z</time></trkpt><trkpt lat="43.5060022" lon="12.6560083"><ele>912.7142857142858</ele><time>2026-05-01T13:19:21.504Z</time></trkpt><trkpt lat="43.5060629" lon="12.6559781"><ele>911.2857142857143</ele><time>2026-05-01T13:19:22.503Z</time></trkpt><trkpt lat="43.5061281" lon="12.6559824"><ele>909.8571428571429</ele><time>2026-05-01T13:19:23.503Z</time></trkpt><trkpt lat="43.506196" lon="12.6560293"><ele>908.4285714285716</ele><time>2026-05-01T13:19:24.504Z</time></trkpt><trkpt lat="43.5062664" lon="12.6561016"><ele>907.0000000000001</ele><time>2026-05-01T13:19:25.504Z</time></trkpt><trkpt lat="43.506325" lon="12.6561981"><ele>905.0</ele><time>2026-05-01T13:19:26.503Z</time></trkpt><trkpt lat="43.5063736" lon="12.6563092"><ele>903.0</ele><time>2026-05-01T13:19:27.504Z</time></trkpt><trkpt lat="43.5064206" lon="12.6564487"><ele>901.0</ele><time>2026-05-01T13:19:28.504Z</time></trkpt><trkpt lat="43.5064606" lon="12.6565956"><ele>899.0</ele><time>2026-05-01T13:19:29.504Z</time></trkpt><trkpt lat="43.5065052" lon="12.6567485"><ele>897.0</ele><time>2026-05-01T13:19:30.504Z</time></trkpt><trkpt lat="43.5065435" lon="12.6569017"><ele>896.5</ele><time>2026-05-01T13:19:31.504Z</time></trkpt><trkpt lat="43.5065831" lon="12.6570603"><ele>896.0</ele><time>2026-05-01T13:19:32.504Z</time></trkpt><trkpt lat="43.506619" lon="12.6572205"><ele>895.5</ele><time>2026-05-01T13:19:33.504Z</time></trkpt><trkpt lat="43.5066495" lon="12.6573894"><ele>895.0</ele><time>2026-05-01T13:19:34.503Z</time></trkpt><trkpt lat="43.5066697" lon="12.6575691"><ele>895.0</ele><time>2026-05-01T13:19:35.504Z</time></trkpt><trkpt lat="43.5066823" lon="12.6577494"><ele>895.0</ele><time>2026-05-01T13:19:36.504Z</time></trkpt><trkpt lat="43.5066925" lon="12.6579306"><ele>895.0</ele><time>2026-05-01T13:19:37.504Z</time></trkpt><trkpt lat="43.5066967" lon="12.6581095"><ele>895.0</ele><time>2026-05-01T13:19:38.504Z</time></trkpt><trkpt lat="43.5066954" lon="12.6582845"><ele>894.25</ele><time>2026-05-01T13:19:39.503Z</time></trkpt><trkpt lat="43.5066842" lon="12.6584569"><ele>893.5</ele><time>2026-05-01T13:19:40.504Z</time></trkpt><trkpt lat="43.5066674" lon="12.6586222"><ele>892.75</ele><time>2026-05-01T13:19:41.503Z</time></trkpt><trkpt lat="43.5066488" lon="12.6587822"><ele>892.0</ele><time>2026-05-01T13:19:42.503Z</time></trkpt><trkpt lat="43.5066287" lon="12.658938"><ele>891.2</ele><time>2026-05-01T13:19:43.504Z</time></trkpt><trkpt lat="43.5066085" lon="12.6590843"><ele>890.4000000000001</ele><time>2026-05-01T13:19:44.504Z</time></trkpt><trkpt lat="43.5065817" lon="12.65922"><ele>889.5999999999999</ele><time>2026-05-01T13:19:45.504Z</time></trkpt><trkpt lat="43.5065493" lon="12.659345"><ele>888.8</ele><time>2026-05-01T13:19:46.504Z</time></trkpt><trkpt lat="43.5065098" lon="12.6594505"><ele>888.0</ele><time>2026-05-01T13:19:47.504Z</time></trkpt><trkpt lat="43.5064612" lon="12.6595455"><ele>886.5999999999999</ele><time>2026-05-01T13:19:48.504Z</time></trkpt><trkpt lat="43.5064241" lon="12.6596322"><ele>885.1999999999999</ele><time>2026-05-01T13:19:49.503Z</time></trkpt><trkpt lat="43.5064119" lon="12.6597694"><ele>883.8</ele><time>2026-05-01T13:19:51.504Z</time></trkpt><trkpt lat="43.5065076" lon="12.6598444"><ele>882.4</ele><time>2026-05-01T13:19:53.504Z</time></trkpt><trkpt lat="43.5066155" lon="12.6597377"><ele>881.0</ele><time>2026-05-01T13:19:55.504Z</time></trkpt><trkpt lat="43.5066649" lon="12.6596298"><ele>881.0</ele><time>2026-05-01T13:19:56.503Z</time></trkpt><trkpt lat="43.5067165" lon="12.6595168"><ele>881.0</ele><time>2026-05-01T13:19:57.504Z</time></trkpt><trkpt lat="43.5067878" lon="12.6593907"><ele>881.0</ele><time>2026-05-01T13:19:58.504Z</time></trkpt><trkpt lat="43.5068694" lon="12.6592668"><ele>881.0</ele><time>2026-05-01T13:19:59.504Z</time></trkpt><trkpt lat="43.5069515" lon="12.6591367"><ele>882.75</ele><time>2026-05-01T13:20:00.504Z</time></trkpt><trkpt lat="43.5070323" lon="12.6590021"><ele>884.5</ele><time>2026-05-01T13:20:01.504Z</time></trkpt><trkpt lat="43.5071128" lon="12.6588602"><ele>886.25</ele><time>2026-05-01T13:20:02.504Z</time></trkpt><trkpt lat="43.5071999" lon="12.6587132"><ele>888.0</ele><time>2026-05-01T13:20:03.503Z</time></trkpt><trkpt lat="43.5072858" lon="12.658564"><ele>882.75</ele><time>2026-05-01T13:20:04.504Z</time></trkpt><trkpt lat="43.5073702" lon="12.6584181"><ele>877.5</ele><time>2026-05-01T13:20:05.503Z</time></trkpt><trkpt lat="43.5074553" lon="12.6582658"><ele>872.25</ele><time>2026-05-01T13:20:06.504Z</time></trkpt><trkpt lat="43.5075422" lon="12.6581187"><ele>867.0</ele><time>2026-05-01T13:20:07.504Z</time></trkpt><trkpt lat="43.507621" lon="12.6579571"><ele>867.0</ele><time>2026-05-01T13:20:08.504Z</time></trkpt><trkpt lat="43.5076985" lon="12.6577888"><ele>867.0</ele><time>2026-05-01T13:20:09.504Z</time></trkpt><trkpt lat="43.5077708" lon="12.6576248"><ele>867.0</ele><time>2026-05-01T13:20:10.503Z</time></trkpt><trkpt lat="43.5078321" lon="12.657465"><ele>867.0</ele><time>2026-05-01T13:20:11.504Z</time></trkpt><trkpt lat="43.5078893" lon="12.6573023"><ele>864.5</ele><time>2026-05-01T13:20:12.504Z</time></trkpt><trkpt lat="43.5079479" lon="12.6571417"><ele>862.0</ele><time>2026-05-01T13:20:13.503Z</time></trkpt><trkpt lat="43.508009" lon="12.6569811"><ele>859.5</ele><time>2026-05-01T13:20:14.504Z</time></trkpt><trkpt lat="43.5080919" lon="12.6568448"><ele>857.0</ele><time>2026-05-01T13:20:15.503Z</time></trkpt><trkpt lat="43.50821" lon="12.6567202"><ele>857.0</ele><time>2026-05-01T13:20:16.504Z</time></trkpt><trkpt lat="43.5083354" lon="12.656593"><ele>857.0</ele><time>2026-05-01T13:20:17.504Z</time></trkpt><trkpt lat="43.5084604" lon="12.6564486"><ele>857.0</ele><time>2026-05-01T13:20:18.504Z</time></trkpt><trkpt lat="43.5085797" lon="12.6563223"><ele>857.0</ele><time>2026-05-01T13:20:19.504Z</time></trkpt><trkpt lat="43.5086908" lon="12.6562114"><ele>857.0</ele><time>2026-05-01T13:20:20.504Z</time></trkpt><trkpt lat="43.5087947" lon="12.6560857"><ele>857.0</ele><time>2026-05-01T13:20:21.504Z</time></trkpt><trkpt lat="43.5088893" lon="12.6559778"><ele>857.0</ele><time>2026-05-01T13:20:22.504Z</time></trkpt><trkpt lat="43.5089721" lon="12.6558827"><ele>855.0000000000001</ele><time>2026-05-01T13:20:23.504Z</time></trkpt><trkpt lat="43.509039" lon="12.6557959"><ele>853.0</ele><time>2026-05-01T13:20:24.504Z</time></trkpt><trkpt lat="43.5090962" lon="12.6557022"><ele>851.0</ele><time>2026-05-01T13:20:25.504Z</time></trkpt><trkpt lat="43.5091426" lon="12.6556084"><ele>849.0</ele><time>2026-05-01T13:20:26.503Z</time></trkpt><trkpt lat="43.5091841" lon="12.6555242"><ele>847.0000000000001</ele><time>2026-05-01T13:20:27.504Z</time></trkpt><trkpt lat="43.509218" lon="12.6554497"><ele>845.0</ele><time>2026-05-01T13:20:28.504Z</time></trkpt><trkpt lat="43.5093064" lon="12.6553739"><ele>845.0</ele><time>2026-05-01T13:20:30.504Z</time></trkpt><trkpt lat="43.5094017" lon="12.6554382"><ele>845.0</ele><time>2026-05-01T13:20:32.504Z</time></trkpt><trkpt lat="43.5094168" lon="12.6555347"><ele>845.0</ele><time>2026-05-01T13:20:33.503Z</time></trkpt><trkpt lat="43.5094231" lon="12.6556504"><ele>845.0</ele><time>2026-05-01T13:20:34.504Z</time></trkpt><trkpt lat="43.5093998" lon="12.655793"><ele>845.0</ele><time>2026-05-01T13:20:35.504Z</time></trkpt><trkpt lat="43.5093633" lon="12.6559502"><ele>845.0</ele><time>2026-05-01T13:20:36.503Z</time></trkpt><trkpt lat="43.5093277" lon="12.6561188"><ele>845.0</ele><time>2026-05-01T13:20:37.503Z</time></trkpt><trkpt lat="43.5092807" lon="12.6563014"><ele>845.0</ele><time>2026-05-01T13:20:38.504Z</time></trkpt><trkpt lat="43.5092198" lon="12.6564793"><ele>845.0</ele><time>2026-05-01T13:20:39.504Z</time></trkpt><trkpt lat="43.5091568" lon="12.6566683"><ele>842.3333333333334</ele><time>2026-05-01T13:20:40.504Z</time></trkpt><trkpt lat="43.509089" lon="12.6568573"><ele>839.6666666666667</ele><time>2026-05-01T13:20:41.504Z</time></trkpt><trkpt lat="43.5090182" lon="12.657052"><ele>837.0</ele><time>2026-05-01T13:20:42.504Z</time></trkpt><trkpt lat="43.5089514" lon="12.6572457"><ele>831.6666666666667</ele><time>2026-05-01T13:20:43.503Z</time></trkpt><trkpt lat="43.5088905" lon="12.6574446"><ele>826.3333333333334</ele><time>2026-05-01T13:20:44.504Z</time></trkpt><trkpt lat="43.5088426" lon="12.6576484"><ele>821.0</ele><time>2026-05-01T13:20:45.503Z</time></trkpt><trkpt lat="43.5088333" lon="12.6578607"><ele>819.0</ele><time>2026-05-01T13:20:46.504Z</time></trkpt><trkpt lat="43.5088251" lon="12.6580693"><ele>817.0</ele><time>2026-05-01T13:20:47.504Z</time></trkpt><trkpt lat="43.5088106" lon="12.6582719"><ele>815.0</ele><time>2026-05-01T13:20:48.504Z</time></trkpt><trkpt lat="43.5087898" lon="12.6584655"><ele>813.0</ele><time>2026-05-01T13:20:49.503Z</time></trkpt><trkpt lat="43.5087534" lon="12.6586538"><ele>817.5</ele><time>2026-05-01T13:20:50.503Z</time></trkpt><trkpt lat="43.5087034" lon="12.658829"><ele>822.0</ele><time>2026-05-01T13:20:51.504Z</time></trkpt><trkpt lat="43.5086299" lon="12.6589861"><ele>826.5</ele><time>2026-05-01T13:20:52.504Z</time></trkpt><trkpt lat="43.5085341" lon="12.6591172"><ele>831.0</ele><time>2026-05-01T13:20:53.503Z</time></trkpt><trkpt lat="43.5084547" lon="12.6592588"><ele>831.0</ele><time>2026-05-01T13:20:54.504Z</time></trkpt><trkpt lat="43.5083833" lon="12.6594202"><ele>831.0</ele><time>2026-05-01T13:20:55.504Z</time></trkpt><trkpt lat="43.5083216" lon="12.6595869"><ele>831.0</ele><time>2026-05-01T13:20:56.504Z</time></trkpt><trkpt lat="43.5082631" lon="12.6597533"><ele>831.0</ele><time>2026-05-01T13:20:57.503Z</time></trkpt><trkpt lat="43.5081896" lon="12.6599042"><ele>830.0</ele><time>2026-05-01T13:20:58.504Z</time></trkpt><trkpt lat="43.5081126" lon="12.6600444"><ele>829.0</ele><time>2026-05-01T13:20:59.504Z</time></trkpt><trkpt lat="43.5080351" lon="12.660161"><ele>828.0</ele><time>2026-05-01T13:21:00.503Z</time></trkpt><trkpt lat="43.5079537" lon="12.6602594"><ele>827.0</ele><time>2026-05-01T13:21:01.504Z</time></trkpt><trkpt lat="43.5078795" lon="12.6603409"><ele>826.0</ele><time>2026-05-01T13:21:02.504Z</time></trkpt><trkpt lat="43.507822" lon="12.6604614"><ele>826.0</ele><time>2026-05-01T13:21:04.504Z</time></trkpt><trkpt lat="43.5078576" lon="12.6605876"><ele>826.0</ele><time>2026-05-01T13:21:06.504Z</time></trkpt><trkpt lat="43.5079656" lon="12.6605792"><ele>826.0</ele><time>2026-05-01T13:21:08.503Z</time></trkpt><trkpt lat="43.5080252" lon="12.6604986"><ele>826.0</ele><time>2026-05-01T13:21:09.504Z</time></trkpt><trkpt lat="43.5080795" lon="12.6603904"><ele>826.0</ele><time>2026-05-01T13:21:10.504Z</time></trkpt><trkpt lat="43.5081513" lon="12.6602719"><ele>822.5</ele><time>2026-05-01T13:21:11.504Z</time></trkpt><trkpt lat="43.5082522" lon="12.6601569"><ele>819.0</ele><time>2026-05-01T13:21:12.504Z</time></trkpt><trkpt lat="43.5083782" lon="12.6600292"><ele>815.5</ele><time>2026-05-01T13:21:13.503Z</time></trkpt><trkpt lat="43.5085146" lon="12.6599167"><ele>812.0</ele><time>2026-05-01T13:21:14.504Z</time></trkpt><trkpt lat="43.5086658" lon="12.6597946"><ele>800.0</ele><time>2026-05-01T13:21:15.504Z</time></trkpt><trkpt lat="43.5088083" lon="12.6596831"><ele>788.0</ele><time>2026-05-01T13:21:16.504Z</time></trkpt><trkpt lat="43.5089451" lon="12.659571"><ele>776.0</ele><time>2026-05-01T13:21:17.504Z</time></trkpt><trkpt lat="43.509068" lon="12.6594584"><ele>782.5</ele><time>2026-05-01T13:21:18.504Z</time></trkpt><trkpt lat="43.5091861" lon="12.6593385"><ele>789.0</ele><time>2026-05-01T13:21:19.504Z</time></trkpt><trkpt lat="43.5092867" lon="12.6591982"><ele>795.5</ele><time>2026-05-01T13:21:20.504Z</time></trkpt><trkpt lat="43.5093756" lon="12.6590594"><ele>802.0</ele><time>2026-05-01T13:21:21.503Z</time></trkpt><trkpt lat="43.5094605" lon="12.6589243"><ele>802.0</ele><time>2026-05-01T13:21:22.503Z</time></trkpt><trkpt lat="43.5095392" lon="12.6587934"><ele>802.0</ele><time>2026-05-01T13:21:23.503Z</time></trkpt><trkpt lat="43.5096077" lon="12.6586576"><ele>802.0</ele><time>2026-05-01T13:21:24.504Z</time></trkpt><trkpt lat="43.5096559" lon="12.6585114"><ele>802.0</ele><time>2026-05-01T13:21:25.504Z</time></trkpt><trkpt lat="43.5096935" lon="12.6583729"><ele>797.4000000000001</ele><time>2026-05-01T13:21:26.503Z</time></trkpt><trkpt lat="43.5097233" lon="12.6582316"><ele>792.8000000000001</ele><time>2026-05-01T13:21:27.504Z</time></trkpt><trkpt lat="43.509755" lon="12.6580983"><ele>788.2</ele><time>2026-05-01T13:21:28.503Z</time></trkpt><trkpt lat="43.5098064" lon="12.6579883"><ele>783.6</ele><time>2026-05-01T13:21:29.504Z</time></trkpt><trkpt lat="43.5098785" lon="12.6579363"><ele>779.0</ele><time>2026-05-01T13:21:30.503Z</time></trkpt><trkpt lat="43.509976" lon="12.6579234"><ele>779.0</ele><time>2026-05-01T13:21:31.504Z</time></trkpt><trkpt lat="43.5100682" lon="12.657926"><ele>779.0</ele><time>2026-05-01T13:21:32.503Z</time></trkpt><trkpt lat="43.5101679" lon="12.6578929"><ele>779.0</ele><time>2026-05-01T13:21:33.504Z</time></trkpt><trkpt lat="43.5102725" lon="12.6578389"><ele>779.0</ele><time>2026-05-01T13:21:34.503Z</time></trkpt><trkpt lat="43.5103683" lon="12.6577777"><ele>779.0</ele><time>2026-05-01T13:21:35.504Z</time></trkpt><trkpt lat="43.510476" lon="12.6576997"><ele>776.75</ele><time>2026-05-01T13:21:36.504Z</time></trkpt><trkpt lat="43.5105848" lon="12.6576056"><ele>774.5</ele><time>2026-05-01T13:21:37.504Z</time></trkpt><trkpt lat="43.5106891" lon="12.6575046"><ele>772.25</ele><time>2026-05-01T13:21:38.503Z</time></trkpt><trkpt lat="43.5107796" lon="12.6573883"><ele>770.0</ele><time>2026-05-01T13:21:39.504Z</time></trkpt><trkpt lat="43.5108763" lon="12.6572779"><ele>770.0</ele><time>2026-05-01T13:21:40.503Z</time></trkpt><trkpt lat="43.5109697" lon="12.6571739"><ele>770.0</ele><time>2026-05-01T13:21:41.504Z</time></trkpt><trkpt lat="43.5110691" lon="12.6570834"><ele>770.0</ele><time>2026-05-01T13:21:42.503Z</time></trkpt><trkpt lat="43.5111788" lon="12.6569987"><ele>770.0</ele><time>2026-05-01T13:21:43.504Z</time></trkpt><trkpt lat="43.5112872" lon="12.6568985"><ele>768.75</ele><time>2026-05-01T13:21:44.504Z</time></trkpt><trkpt lat="43.5113885" lon="12.6567654"><ele>767.5</ele><time>2026-05-01T13:21:45.504Z</time></trkpt><trkpt lat="43.5114833" lon="12.6566085"><ele>766.25</ele><time>2026-05-01T13:21:46.504Z</time></trkpt><trkpt lat="43.5115822" lon="12.6564468"><ele>765.0</ele><time>2026-05-01T13:21:47.504Z</time></trkpt><trkpt lat="43.5116822" lon="12.6562927"><ele>765.0</ele><time>2026-05-01T13:21:48.504Z</time></trkpt><trkpt lat="43.511782" lon="12.6561643"><ele>765.0</ele><time>2026-05-01T13:21:49.503Z</time></trkpt><trkpt lat="43.5118734" lon="12.6560457"><ele>765.0</ele><time>2026-05-01T13:21:50.504Z</time></trkpt><trkpt lat="43.5119505" lon="12.6559353"><ele>765.0</ele><time>2026-05-01T13:21:51.504Z</time></trkpt><trkpt lat="43.5120245" lon="12.6558331"><ele>765.5</ele><time>2026-05-01T13:21:52.504Z</time></trkpt><trkpt lat="43.5120876" lon="12.6557395"><ele>766.0</ele><time>2026-05-01T13:21:53.503Z</time></trkpt><trkpt lat="43.5121426" lon="12.6556653"><ele>766.5</ele><time>2026-05-01T13:21:54.504Z</time></trkpt><trkpt lat="43.5122222" lon="12.6556413"><ele>767.0</ele><time>2026-05-01T13:21:55.504Z</time></trkpt><trkpt lat="43.5123031" lon="12.655659"><ele>767.5</ele><time>2026-05-01T13:21:56.503Z</time></trkpt><trkpt lat="43.5123703" lon="12.6557186"><ele>768.0</ele><time>2026-05-01T13:21:57.504Z</time></trkpt><trkpt lat="43.5124186" lon="12.6558227"><ele>768.0</ele><time>2026-05-01T13:21:58.503Z</time></trkpt><trkpt lat="43.5124286" lon="12.6559567"><ele>768.0</ele><time>2026-05-01T13:21:59.504Z</time></trkpt><trkpt lat="43.5123801" lon="12.6561164"><ele>768.0</ele><time>2026-05-01T13:22:00.504Z</time></trkpt><trkpt lat="43.5123232" lon="12.656288"><ele>768.0</ele><time>2026-05-01T13:22:01.504Z</time></trkpt><trkpt lat="43.5122638" lon="12.6564581"><ele>770.25</ele><time>2026-05-01T13:22:02.504Z</time></trkpt><trkpt lat="43.5122073" lon="12.6566405"><ele>772.5</ele><time>2026-05-01T13:22:03.504Z</time></trkpt><trkpt lat="43.5121518" lon="12.6568234"><ele>774.75</ele><time>2026-05-01T13:22:04.504Z</time></trkpt><trkpt lat="43.5120967" lon="12.6570032"><ele>777.0</ele><time>2026-05-01T13:22:05.504Z</time></trkpt><trkpt lat="43.5120412" lon="12.6571654"><ele>770.5</ele><time>2026-05-01T13:22:06.504Z</time></trkpt><trkpt lat="43.5119894" lon="12.6573352"><ele>764.0</ele><time>2026-05-01T13:22:07.504Z</time></trkpt><trkpt lat="43.5119371" lon="12.6575152"><ele>757.5</ele><time>2026-05-01T13:22:08.504Z</time></trkpt><trkpt lat="43.5118956" lon="12.657714"><ele>751.0</ele><time>2026-05-01T13:22:09.503Z</time></trkpt><trkpt lat="43.5118768" lon="12.657937"><ele>748.3333333333334</ele><time>2026-05-01T13:22:10.504Z</time></trkpt><trkpt lat="43.5118681" lon="12.6581684"><ele>745.6666666666666</ele><time>2026-05-01T13:22:11.504Z</time></trkpt><trkpt lat="43.5118702" lon="12.6584069"><ele>743.0</ele><time>2026-05-01T13:22:12.504Z</time></trkpt><trkpt lat="43.5118606" lon="12.658652"><ele>740.0</ele><time>2026-05-01T13:22:13.504Z</time></trkpt><trkpt lat="43.5118533" lon="12.6589069"><ele>737.0</ele><time>2026-05-01T13:22:14.504Z</time></trkpt><trkpt lat="43.5118542" lon="12.6591604"><ele>734.0</ele><time>2026-05-01T13:22:15.503Z</time></trkpt><trkpt lat="43.5118688" lon="12.659409"><ele>732.6666666666666</ele><time>2026-05-01T13:22:16.504Z</time></trkpt><trkpt lat="43.5118772" lon="12.6596501"><ele>731.3333333333334</ele><time>2026-05-01T13:22:17.503Z</time></trkpt><trkpt lat="43.5118821" lon="12.6598848"><ele>730.0</ele><time>2026-05-01T13:22:18.504Z</time></trkpt><trkpt lat="43.5118772" lon="12.660119"><ele>729.3333333333334</ele><time>2026-05-01T13:22:19.503Z</time></trkpt><trkpt lat="43.5118731" lon="12.6603528"><ele>728.6666666666666</ele><time>2026-05-01T13:22:20.504Z</time></trkpt><trkpt lat="43.5118681" lon="12.6605746"><ele>728.0</ele><time>2026-05-01T13:22:21.504Z</time></trkpt><trkpt lat="43.5118605" lon="12.6607866"><ele>728.0</ele><time>2026-05-01T13:22:22.504Z</time></trkpt><trkpt lat="43.5118535" lon="12.6609917"><ele>728.0</ele><time>2026-05-01T13:22:23.503Z</time></trkpt><trkpt lat="43.5118449" lon="12.6611968"><ele>728.0</ele><time>2026-05-01T13:22:24.504Z</time></trkpt><trkpt lat="43.5118378" lon="12.6613894"><ele>728.0</ele><time>2026-05-01T13:22:25.504Z</time></trkpt><trkpt lat="43.5118285" lon="12.66158"><ele>724.8</ele><time>2026-05-01T13:22:26.504Z</time></trkpt><trkpt lat="43.5118138" lon="12.6617577"><ele>721.5999999999999</ele><time>2026-05-01T13:22:27.504Z</time></trkpt><trkpt lat="43.511797" lon="12.6619173"><ele>718.4000000000001</ele><time>2026-05-01T13:22:28.504Z</time></trkpt><trkpt lat="43.5117749" lon="12.6620448"><ele>715.2</ele><time>2026-05-01T13:22:29.504Z</time></trkpt><trkpt lat="43.5117631" lon="12.6621613"><ele>712.0</ele><time>2026-05-01T13:22:30.503Z</time></trkpt><trkpt lat="43.511776" lon="12.6622654"><ele>711.6666666666667</ele><time>2026-05-01T13:22:31.504Z</time></trkpt><trkpt lat="43.5118228" lon="12.6623433"><ele>711.3333333333334</ele><time>2026-05-01T13:22:32.503Z</time></trkpt><trkpt lat="43.5118835" lon="12.662383"><ele>711.0</ele><time>2026-05-01T13:22:33.504Z</time></trkpt><trkpt lat="43.5119489" lon="12.6623537"><ele>710.6666666666666</ele><time>2026-05-01T13:22:34.504Z</time></trkpt><trkpt lat="43.5120131" lon="12.6622326"><ele>710.3333333333333</ele><time>2026-05-01T13:22:35.504Z</time></trkpt><trkpt lat="43.5120712" lon="12.6621002"><ele>710.0</ele><time>2026-05-01T13:22:36.504Z</time></trkpt><trkpt lat="43.5121265" lon="12.661945"><ele>712.2</ele><time>2026-05-01T13:22:37.504Z</time></trkpt><trkpt lat="43.5121861" lon="12.6617853"><ele>714.4</ele><time>2026-05-01T13:22:38.503Z</time></trkpt><trkpt lat="43.5122409" lon="12.6616479"><ele>716.5999999999999</ele><time>2026-05-01T13:22:39.504Z</time></trkpt><trkpt lat="43.5123203" lon="12.6615412"><ele>718.8</ele><time>2026-05-01T13:22:40.504Z</time></trkpt><trkpt lat="43.512403" lon="12.6614858"><ele>721.0</ele><time>2026-05-01T13:22:41.504Z</time></trkpt><trkpt lat="43.5124878" lon="12.6614682"><ele>721.0</ele><time>2026-05-01T13:22:42.504Z</time></trkpt><trkpt lat="43.5125851" lon="12.661505"><ele>721.0</ele><time>2026-05-01T13:22:43.504Z</time></trkpt><trkpt lat="43.5126957" lon="12.6615607"><ele>721.0</ele><time>2026-05-01T13:22:44.504Z</time></trkpt><trkpt lat="43.5128035" lon="12.6616185"><ele>721.0</ele><time>2026-05-01T13:22:45.504Z</time></trkpt><trkpt lat="43.512912" lon="12.6616831"><ele>722.75</ele><time>2026-05-01T13:22:46.504Z</time></trkpt><trkpt lat="43.5130055" lon="12.6617819"><ele>724.5</ele><time>2026-05-01T13:22:47.503Z</time></trkpt><trkpt lat="43.5130777" lon="12.6619279"><ele>726.25</ele><time>2026-05-01T13:22:48.504Z</time></trkpt><trkpt lat="43.5131187" lon="12.6620946"><ele>728.0</ele><time>2026-05-01T13:22:49.504Z</time></trkpt><trkpt lat="43.5131584" lon="12.662278"><ele>728.0</ele><time>2026-05-01T13:22:50.503Z</time></trkpt><trkpt lat="43.5131977" lon="12.6624664"><ele>728.0</ele><time>2026-05-01T13:22:51.504Z</time></trkpt><trkpt lat="43.513237" lon="12.6626653"><ele>728.0</ele><time>2026-05-01T13:22:52.504Z</time></trkpt><trkpt lat="43.5132676" lon="12.662855"><ele>728.0</ele><time>2026-05-01T13:22:53.504Z</time></trkpt><trkpt lat="43.5132965" lon="12.663045"><ele>724.0</ele><time>2026-05-01T13:22:54.504Z</time></trkpt><trkpt lat="43.5133196" lon="12.6632334"><ele>720.0</ele><time>2026-05-01T13:22:55.504Z</time></trkpt><trkpt lat="43.513348" lon="12.6634091"><ele>716.0</ele><time>2026-05-01T13:22:56.504Z</time></trkpt><trkpt lat="43.5133788" lon="12.6635705"><ele>712.0</ele><time>2026-05-01T13:22:57.504Z</time></trkpt><trkpt lat="43.5134111" lon="12.6636992"><ele>707.2</ele><time>2026-05-01T13:22:58.504Z</time></trkpt><trkpt lat="43.5134514" lon="12.6637926"><ele>702.4000000000001</ele><time>2026-05-01T13:22:59.504Z</time></trkpt><trkpt lat="43.5135164" lon="12.6638663"><ele>697.5999999999999</ele><time>2026-05-01T13:23:00.503Z</time></trkpt><trkpt lat="43.5136007" lon="12.663896"><ele>692.8</ele><time>2026-05-01T13:23:01.504Z</time></trkpt><trkpt lat="43.5137027" lon="12.6638925"><ele>688.0</ele><time>2026-05-01T13:23:02.504Z</time></trkpt><trkpt lat="43.5138248" lon="12.6638489"><ele>687.0</ele><time>2026-05-01T13:23:03.504Z</time></trkpt><trkpt lat="43.5139575" lon="12.6638021"><ele>686.0</ele><time>2026-05-01T13:23:04.504Z</time></trkpt><trkpt lat="43.5140818" lon="12.6637528"><ele>685.0</ele><time>2026-05-01T13:23:05.504Z</time></trkpt><trkpt lat="43.5141906" lon="12.6636965"><ele>684.0</ele><time>2026-05-01T13:23:06.504Z</time></trkpt><trkpt lat="43.5142875" lon="12.663638"><ele>683.0</ele><time>2026-05-01T13:23:07.504Z</time></trkpt><trkpt lat="43.5143708" lon="12.6635778"><ele>682.0</ele><time>2026-05-01T13:23:08.503Z</time></trkpt><trkpt lat="43.5144489" lon="12.6635394"><ele>681.0</ele><time>2026-05-01T13:23:09.504Z</time></trkpt><trkpt lat="43.5145422" lon="12.6635365"><ele>680.0</ele><time>2026-05-01T13:23:10.503Z</time></trkpt><trkpt lat="43.5146247" lon="12.6635726"><ele>679.0</ele><time>2026-05-01T13:23:11.504Z</time></trkpt><trkpt lat="43.5146917" lon="12.6636766"><ele>679.0</ele><time>2026-05-01T13:23:12.503Z</time></trkpt><trkpt lat="43.5147234" lon="12.6637846"><ele>679.0</ele><time>2026-05-01T13:23:13.503Z</time></trkpt><trkpt lat="43.5147617" lon="12.6638883"><ele>679.0</ele><time>2026-05-01T13:23:14.504Z</time></trkpt><trkpt lat="43.5148364" lon="12.6639468"><ele>679.0</ele><time>2026-05-01T13:23:15.504Z</time></trkpt><trkpt lat="43.5149492" lon="12.6639904"><ele>679.0</ele><time>2026-05-01T13:23:16.504Z</time></trkpt><trkpt lat="43.5150764" lon="12.6640181"><ele>679.0</ele><time>2026-05-01T13:23:17.504Z</time></trkpt><trkpt lat="43.5151984" lon="12.6640519"><ele>679.0</ele><time>2026-05-01T13:23:18.504Z</time></trkpt><trkpt lat="43.5153155" lon="12.6640914"><ele>679.0</ele><time>2026-05-01T13:23:19.504Z</time></trkpt><trkpt lat="43.5154326" lon="12.6641324"><ele>679.0</ele><time>2026-05-01T13:23:20.504Z</time></trkpt><trkpt lat="43.5155565" lon="12.6641493"><ele>679.5</ele><time>2026-05-01T13:23:21.504Z</time></trkpt><trkpt lat="43.5156829" lon="12.6641408"><ele>680.0</ele><time>2026-05-01T13:23:22.503Z</time></trkpt><trkpt lat="43.5158141" lon="12.6641261"><ele>680.5</ele><time>2026-05-01T13:23:23.503Z</time></trkpt><trkpt lat="43.5159474" lon="12.6640974"><ele>681.0</ele><time>2026-05-01T13:23:24.504Z</time></trkpt><trkpt lat="43.5160791" lon="12.6640775"><ele>681.0</ele><time>2026-05-01T13:23:25.504Z</time></trkpt><trkpt lat="43.5162067" lon="12.6640773"><ele>681.0</ele><time>2026-05-01T13:23:26.504Z</time></trkpt><trkpt lat="43.5163277" lon="12.6640698"><ele>681.0</ele><time>2026-05-01T13:23:27.503Z</time></trkpt><trkpt lat="43.5164436" lon="12.6640394"><ele>681.0</ele><time>2026-05-01T13:23:28.503Z</time></trkpt><trkpt lat="43.5165515" lon="12.6639485"><ele>686.25</ele><time>2026-05-01T13:23:29.503Z</time></trkpt><trkpt lat="43.5166413" lon="12.6638255"><ele>691.5</ele><time>2026-05-01T13:23:30.504Z</time></trkpt><trkpt lat="43.5167144" lon="12.6636835"><ele>696.75</ele><time>2026-05-01T13:23:31.503Z</time></trkpt><trkpt lat="43.5167761" lon="12.6635411"><ele>702.0</ele><time>2026-05-01T13:23:32.504Z</time></trkpt><trkpt lat="43.5168306" lon="12.6634071"><ele>702.0</ele><time>2026-05-01T13:23:33.504Z</time></trkpt><trkpt lat="43.5168885" lon="12.6632753"><ele>702.0</ele><time>2026-05-01T13:23:34.503Z</time></trkpt><trkpt lat="43.5169566" lon="12.6631542"><ele>702.0</ele><time>2026-05-01T13:23:35.503Z</time></trkpt><trkpt lat="43.5170337" lon="12.6630668"><ele>702.0</ele><time>2026-05-01T13:23:36.504Z</time></trkpt><trkpt lat="43.5171049" lon="12.6630242"><ele>702.0</ele><time>2026-05-01T13:23:37.503Z</time></trkpt><trkpt lat="43.5171893" lon="12.6630266"><ele>694.6</ele><time>2026-05-01T13:23:38.503Z</time></trkpt><trkpt lat="43.5172807" lon="12.6630564"><ele>687.2</ele><time>2026-05-01T13:23:39.504Z</time></trkpt><trkpt lat="43.5173825" lon="12.6631089"><ele>679.8</ele><time>2026-05-01T13:23:40.504Z</time></trkpt><trkpt lat="43.5174971" lon="12.6631727"><ele>672.4</ele><time>2026-05-01T13:23:41.504Z</time></trkpt><trkpt lat="43.5176088" lon="12.6632348"><ele>665.0</ele><time>2026-05-01T13:23:42.503Z</time></trkpt><trkpt lat="43.5177206" lon="12.663286"><ele>665.0</ele><time>2026-05-01T13:23:43.504Z</time></trkpt><trkpt lat="43.5178355" lon="12.6633453"><ele>665.0</ele><time>2026-05-01T13:23:44.504Z</time></trkpt><trkpt lat="43.5179456" lon="12.6634128"><ele>665.0</ele><time>2026-05-01T13:23:45.504Z</time></trkpt><trkpt lat="43.5180441" lon="12.6635063"><ele>665.0</ele><time>2026-05-01T13:23:46.504Z</time></trkpt><trkpt lat="43.5181242" lon="12.6636284"><ele>664.25</ele><time>2026-05-01T13:23:47.504Z</time></trkpt><trkpt lat="43.5181944" lon="12.6637896"><ele>663.5</ele><time>2026-05-01T13:23:48.503Z</time></trkpt><trkpt lat="43.5182638" lon="12.6639769"><ele>662.75</ele><time>2026-05-01T13:23:49.503Z</time></trkpt><trkpt lat="43.5183262" lon="12.6641701"><ele>662.0</ele><time>2026-05-01T13:23:50.504Z</time></trkpt><trkpt lat="43.5183931" lon="12.6643513"><ele>656.25</ele><time>2026-05-01T13:23:51.504Z</time></trkpt><trkpt lat="43.518453" lon="12.6645272"><ele>650.5</ele><time>2026-05-01T13:23:52.504Z</time></trkpt><trkpt lat="43.5185115" lon="12.6647022"><ele>644.75</ele><time>2026-05-01T13:23:53.504Z</time></trkpt><trkpt lat="43.5185639" lon="12.6648778"><ele>639.0</ele><time>2026-05-01T13:23:54.504Z</time></trkpt><trkpt lat="43.5186147" lon="12.6650466"><ele>639.0</ele><time>2026-05-01T13:23:55.503Z</time></trkpt><trkpt lat="43.5186665" lon="12.6652103"><ele>639.0</ele><time>2026-05-01T13:23:56.504Z</time></trkpt><trkpt lat="43.518724" lon="12.6653659"><ele>639.0</ele><time>2026-05-01T13:23:57.504Z</time></trkpt><trkpt lat="43.5187904" lon="12.6655072"><ele>639.0</ele><time>2026-05-01T13:23:58.503Z</time></trkpt><trkpt lat="43.5188675" lon="12.6656366"><ele>645.25</ele><time>2026-05-01T13:23:59.504Z</time></trkpt><trkpt lat="43.518957" lon="12.665741"><ele>651.5</ele><time>2026-05-01T13:24:00.504Z</time></trkpt><trkpt lat="43.5190533" lon="12.66583"><ele>657.75</ele><time>2026-05-01T13:24:01.504Z</time></trkpt><trkpt lat="43.5191423" lon="12.6659285"><ele>664.0</ele><time>2026-05-01T13:24:02.504Z</time></trkpt><trkpt lat="43.5192162" lon="12.6660434"><ele>656.75</ele><time>2026-05-01T13:24:03.504Z</time></trkpt><trkpt lat="43.5192655" lon="12.6661919"><ele>649.5</ele><time>2026-05-01T13:24:04.503Z</time></trkpt><trkpt lat="43.5193054" lon="12.6663577"><ele>642.25</ele><time>2026-05-01T13:24:05.504Z</time></trkpt><trkpt lat="43.5193361" lon="12.6665218"><ele>635.0</ele><time>2026-05-01T13:24:06.504Z</time></trkpt><trkpt lat="43.5193709" lon="12.6666817"><ele>635.0</ele><time>2026-05-01T13:24:07.504Z</time></trkpt><trkpt lat="43.5194151" lon="12.6668327"><ele>635.0</ele><time>2026-05-01T13:24:08.504Z</time></trkpt><trkpt lat="43.5194615" lon="12.6669684"><ele>635.0</ele><time>2026-05-01T13:24:09.503Z</time></trkpt><trkpt lat="43.5195239" lon="12.6670928"><ele>635.0</ele><time>2026-05-01T13:24:10.503Z</time></trkpt><trkpt lat="43.5195989" lon="12.6672063"><ele>635.0</ele><time>2026-05-01T13:24:11.504Z</time></trkpt><trkpt lat="43.519682" lon="12.6673006"><ele>637.0</ele><time>2026-05-01T13:24:12.504Z</time></trkpt><trkpt lat="43.5197691" lon="12.6673801"><ele>639.0</ele><time>2026-05-01T13:24:13.504Z</time></trkpt><trkpt lat="43.5198496" lon="12.6674566"><ele>641.0</ele><time>2026-05-01T13:24:14.504Z</time></trkpt><trkpt lat="43.5199195" lon="12.6675548"><ele>643.0</ele><time>2026-05-01T13:24:15.504Z</time></trkpt><trkpt lat="43.5199688" lon="12.6676742"><ele>645.0</ele><time>2026-05-01T13:24:16.504Z</time></trkpt><trkpt lat="43.5200019" lon="12.6678088"><ele>639.25</ele><time>2026-05-01T13:24:17.504Z</time></trkpt><trkpt lat="43.5200429" lon="12.6679628"><ele>633.5</ele><time>2026-05-01T13:24:18.504Z</time></trkpt><trkpt lat="43.520095" lon="12.668142"><ele>627.75</ele><time>2026-05-01T13:24:19.503Z</time></trkpt><trkpt lat="43.5201548" lon="12.6683357"><ele>622.0</ele><time>2026-05-01T13:24:20.504Z</time></trkpt><trkpt lat="43.520227" lon="12.6685499"><ele>628.6666666666667</ele><time>2026-05-01T13:24:21.504Z</time></trkpt><trkpt lat="43.5203036" lon="12.6687692"><ele>635.3333333333334</ele><time>2026-05-01T13:24:22.504Z</time></trkpt><trkpt lat="43.5203715" lon="12.668965"><ele>642.0</ele><time>2026-05-01T13:24:23.504Z</time></trkpt><trkpt lat="43.5204243" lon="12.6691647"><ele>642.0</ele><time>2026-05-01T13:24:24.504Z</time></trkpt><trkpt lat="43.5204666" lon="12.6693631"><ele>642.0</ele><time>2026-05-01T13:24:25.504Z</time></trkpt><trkpt lat="43.5205035" lon="12.669552"><ele>642.0</ele><time>2026-05-01T13:24:26.504Z</time></trkpt><trkpt lat="43.5205516" lon="12.6697248"><ele>642.0</ele><time>2026-05-01T13:24:27.504Z</time></trkpt><trkpt lat="43.5206161" lon="12.6698986"><ele>636.75</ele><time>2026-05-01T13:24:28.504Z</time></trkpt><trkpt lat="43.5206932" lon="12.6700758"><ele>631.5</ele><time>2026-05-01T13:24:29.504Z</time></trkpt><trkpt lat="43.5207756" lon="12.6702393"><ele>626.25</ele><time>2026-05-01T13:24:30.504Z</time></trkpt><trkpt lat="43.5208709" lon="12.6703743"><ele>621.0</ele><time>2026-05-01T13:24:31.504Z</time></trkpt><trkpt lat="43.5209723" lon="12.6704884"><ele>619.25</ele><time>2026-05-01T13:24:32.504Z</time></trkpt><trkpt lat="43.5210793" lon="12.6705851"><ele>617.5</ele><time>2026-05-01T13:24:33.503Z</time></trkpt><trkpt lat="43.521192" lon="12.6706705"><ele>615.75</ele><time>2026-05-01T13:24:34.504Z</time></trkpt><trkpt lat="43.5212989" lon="12.6707558"><ele>614.0</ele><time>2026-05-01T13:24:35.504Z</time></trkpt><trkpt lat="43.5214179" lon="12.6708544"><ele>614.0</ele><time>2026-05-01T13:24:36.504Z</time></trkpt><trkpt lat="43.5215435" lon="12.6709585"><ele>614.0</ele><time>2026-05-01T13:24:37.504Z</time></trkpt><trkpt lat="43.5216835" lon="12.6710608"><ele>614.0</ele><time>2026-05-01T13:24:38.504Z</time></trkpt><trkpt lat="43.5218252" lon="12.6711634"><ele>608.6666666666666</ele><time>2026-05-01T13:24:39.504Z</time></trkpt><trkpt lat="43.5219641" lon="12.6712553"><ele>603.3333333333334</ele><time>2026-05-01T13:24:40.504Z</time></trkpt><trkpt lat="43.5221058" lon="12.6713518"><ele>598.0</ele><time>2026-05-01T13:24:41.503Z</time></trkpt><trkpt lat="43.5222493" lon="12.6714404"><ele>598.0</ele><time>2026-05-01T13:24:42.504Z</time></trkpt><trkpt lat="43.5223864" lon="12.6715226"><ele>598.0</ele><time>2026-05-01T13:24:43.504Z</time></trkpt><trkpt lat="43.522514" lon="12.671596"><ele>598.0</ele><time>2026-05-01T13:24:44.504Z</time></trkpt><trkpt lat="43.5226383" lon="12.6716589"><ele>598.0</ele><time>2026-05-01T13:24:45.503Z</time></trkpt><trkpt lat="43.5227616" lon="12.6717154"><ele>598.0</ele><time>2026-05-01T13:24:46.504Z</time></trkpt><trkpt lat="43.5228821" lon="12.6717722"><ele>598.0</ele><time>2026-05-01T13:24:47.503Z</time></trkpt><trkpt lat="43.522997" lon="12.6718166"><ele>598.0</ele><time>2026-05-01T13:24:48.503Z</time></trkpt><trkpt lat="43.5231004" lon="12.6718526"><ele>598.0</ele><time>2026-05-01T13:24:49.504Z</time></trkpt><trkpt lat="43.5232002" lon="12.6718738"><ele>599.8</ele><time>2026-05-01T13:24:50.504Z</time></trkpt><trkpt lat="43.5232751" lon="12.671882"><ele>601.5999999999999</ele><time>2026-05-01T13:24:51.503Z</time></trkpt><trkpt lat="43.5233815" lon="12.6719061"><ele>603.4000000000001</ele><time>2026-05-01T13:24:53.504Z</time></trkpt><trkpt lat="43.5233899" lon="12.6720167"><ele>605.2</ele><time>2026-05-01T13:24:55.504Z</time></trkpt><trkpt lat="43.5232775" lon="12.6720907"><ele>607.0</ele><time>2026-05-01T13:24:57.504Z</time></trkpt><trkpt lat="43.523189" lon="12.672078"><ele>604.75</ele><time>2026-05-01T13:24:58.504Z</time></trkpt><trkpt lat="43.523065" lon="12.6720226"><ele>602.5</ele><time>2026-05-01T13:24:59.504Z</time></trkpt><trkpt lat="43.5229353" lon="12.6719895"><ele>600.25</ele><time>2026-05-01T13:25:00.504Z</time></trkpt><trkpt lat="43.5228" lon="12.6719641"><ele>598.0</ele><time>2026-05-01T13:25:01.504Z</time></trkpt><trkpt lat="43.5226583" lon="12.6719347"><ele>598.0</ele><time>2026-05-01T13:25:02.503Z</time></trkpt><trkpt lat="43.5225112" lon="12.6719038"><ele>598.0</ele><time>2026-05-01T13:25:03.504Z</time></trkpt><trkpt lat="43.5223603" lon="12.6718753"><ele>598.0</ele><time>2026-05-01T13:25:04.503Z</time></trkpt><trkpt lat="43.5222066" lon="12.6718467"><ele>593.0</ele><time>2026-05-01T13:25:05.503Z</time></trkpt><trkpt lat="43.5220537" lon="12.671814"><ele>588.0</ele><time>2026-05-01T13:25:06.503Z</time></trkpt><trkpt lat="43.5218972" lon="12.671784"><ele>583.0</ele><time>2026-05-01T13:25:07.504Z</time></trkpt><trkpt lat="43.5217417" lon="12.6717537"><ele>583.0</ele><time>2026-05-01T13:25:08.504Z</time></trkpt><trkpt lat="43.5215875" lon="12.6717332"><ele>583.0</ele><time>2026-05-01T13:25:09.503Z</time></trkpt><trkpt lat="43.5214373" lon="12.6717193"><ele>583.0</ele><time>2026-05-01T13:25:10.504Z</time></trkpt><trkpt lat="43.5212942" lon="12.6717129"><ele>583.0</ele><time>2026-05-01T13:25:11.504Z</time></trkpt><trkpt lat="43.5211555" lon="12.6717127"><ele>579.5</ele><time>2026-05-01T13:25:12.503Z</time></trkpt><trkpt lat="43.5210299" lon="12.6717186"><ele>576.0</ele><time>2026-05-01T13:25:13.504Z</time></trkpt><trkpt lat="43.5209051" lon="12.6717387"><ele>572.5</ele><time>2026-05-01T13:25:14.504Z</time></trkpt><trkpt lat="43.520783" lon="12.6717487"><ele>569.0</ele><time>2026-05-01T13:25:15.504Z</time></trkpt><trkpt lat="43.5206663" lon="12.6717454"><ele>569.0</ele><time>2026-05-01T13:25:16.504Z</time></trkpt><trkpt lat="43.5205608" lon="12.6717154"><ele>569.0</ele><time>2026-05-01T13:25:17.503Z</time></trkpt><trkpt lat="43.5204721" lon="12.6716564"><ele>569.0</ele><time>2026-05-01T13:25:18.504Z</time></trkpt><trkpt lat="43.5204028" lon="12.6715927"><ele>569.0</ele><time>2026-05-01T13:25:19.504Z</time></trkpt><trkpt lat="43.5203515" lon="12.6715353"><ele>569.0</ele><time>2026-05-01T13:25:20.504Z</time></trkpt><trkpt lat="43.5202472" lon="12.6715392"><ele>569.0</ele><time>2026-05-01T13:25:22.503Z</time></trkpt><trkpt lat="43.5202349" lon="12.6716936"><ele>569.0</ele><time>2026-05-01T13:25:24.503Z</time></trkpt><trkpt lat="43.520286" lon="12.6717849"><ele>569.0</ele><time>2026-05-01T13:25:25.504Z</time></trkpt><trkpt lat="43.5203776" lon="12.6718591"><ele>569.0</ele><time>2026-05-01T13:25:26.504Z</time></trkpt><trkpt lat="43.5204908" lon="12.6719272"><ele>569.0</ele><time>2026-05-01T13:25:27.504Z</time></trkpt><trkpt lat="43.5206091" lon="12.6720024"><ele>561.75</ele><time>2026-05-01T13:25:28.504Z</time></trkpt><trkpt lat="43.5207315" lon="12.6720626"><ele>554.5</ele><time>2026-05-01T13:25:29.504Z</time></trkpt><trkpt lat="43.52087" lon="12.6721036"><ele>547.25</ele><time>2026-05-01T13:25:30.504Z</time></trkpt><trkpt lat="43.5210171" lon="12.672133"><ele>540.0</ele><time>2026-05-01T13:25:31.504Z</time></trkpt><trkpt lat="43.5211615" lon="12.672167"><ele>542.5</ele><time>2026-05-01T13:25:32.504Z</time></trkpt><trkpt lat="43.5213045" lon="12.6722045"><ele>545.0</ele><time>2026-05-01T13:25:33.503Z</time></trkpt><trkpt lat="43.5214412" lon="12.6722719"><ele>547.5</ele><time>2026-05-01T13:25:34.504Z</time></trkpt><trkpt lat="43.5215726" lon="12.6723566"><ele>550.0</ele><time>2026-05-01T13:25:35.504Z</time></trkpt><trkpt lat="43.5216981" lon="12.6724505"><ele>550.0</ele><time>2026-05-01T13:25:36.503Z</time></trkpt><trkpt lat="43.5218253" lon="12.672544"><ele>550.0</ele><time>2026-05-01T13:25:37.503Z</time></trkpt><trkpt lat="43.5219577" lon="12.672638"><ele>550.0</ele><time>2026-05-01T13:25:38.504Z</time></trkpt><trkpt lat="43.5220795" lon="12.6727333"><ele>550.0</ele><time>2026-05-01T13:25:39.504Z</time></trkpt><trkpt lat="43.5222052" lon="12.6728281"><ele>543.0</ele><time>2026-05-01T13:25:40.504Z</time></trkpt><trkpt lat="43.5223261" lon="12.672922"><ele>536.0</ele><time>2026-05-01T13:25:41.504Z</time></trkpt><trkpt lat="43.5224453" lon="12.6730059"><ele>529.0</ele><time>2026-05-01T13:25:42.503Z</time></trkpt><trkpt lat="43.5225697" lon="12.6730708"><ele>522.0</ele><time>2026-05-01T13:25:43.503Z</time></trkpt><trkpt lat="43.5226981" lon="12.6731145"><ele>522.0</ele><time>2026-05-01T13:25:44.503Z</time></trkpt><trkpt lat="43.5228318" lon="12.6731373"><ele>522.0</ele><time>2026-05-01T13:25:45.504Z</time></trkpt><trkpt lat="43.5229646" lon="12.673161"><ele>522.0</ele><time>2026-05-01T13:25:46.504Z</time></trkpt><trkpt lat="43.5231005" lon="12.673195"><ele>522.0</ele><time>2026-05-01T13:25:47.504Z</time></trkpt><trkpt lat="43.5232354" lon="12.6732485"><ele>524.5</ele><time>2026-05-01T13:25:48.503Z</time></trkpt><trkpt lat="43.523359" lon="12.6733306"><ele>527.0</ele><time>2026-05-01T13:25:49.504Z</time></trkpt><trkpt lat="43.5234684" lon="12.673436"><ele>529.5</ele><time>2026-05-01T13:25:50.504Z</time></trkpt><trkpt lat="43.5235777" lon="12.673533"><ele>532.0</ele><time>2026-05-01T13:25:51.504Z</time></trkpt><trkpt lat="43.5236997" lon="12.6735994"><ele>524.5</ele><time>2026-05-01T13:25:52.504Z</time></trkpt><trkpt lat="43.5238376" lon="12.6736418"><ele>517.0</ele><time>2026-05-01T13:25:53.504Z</time></trkpt><trkpt lat="43.5239737" lon="12.6736779"><ele>509.5</ele><time>2026-05-01T13:25:54.504Z</time></trkpt><trkpt lat="43.5241045" lon="12.6736953"><ele>502.0</ele><time>2026-05-01T13:25:55.503Z</time></trkpt><trkpt lat="43.5242378" lon="12.6737229"><ele>502.0</ele><time>2026-05-01T13:25:56.503Z</time></trkpt><trkpt lat="43.5243549" lon="12.6737419"><ele>502.00000000000006</ele><time>2026-05-01T13:25:57.503Z</time></trkpt><trkpt lat="43.5244628" lon="12.6737517"><ele>502.00000000000006</ele><time>2026-05-01T13:25:58.504Z</time></trkpt><trkpt lat="43.5245533" lon="12.673732"><ele>502.0</ele><time>2026-05-01T13:25:59.503Z</time></trkpt><trkpt lat="43.5246308" lon="12.6737109"><ele>502.0</ele><time>2026-05-01T13:26:00.504Z</time></trkpt><trkpt lat="43.5247043" lon="12.6737142"><ele>502.00000000000006</ele><time>2026-05-01T13:26:01.504Z</time></trkpt><trkpt lat="43.524771" lon="12.673752"><ele>502.0</ele><time>2026-05-01T13:26:02.504Z</time></trkpt><trkpt lat="43.5248148" lon="12.6738227"><ele>502.0</ele><time>2026-05-01T13:26:03.504Z</time></trkpt><trkpt lat="43.5247689" lon="12.6739729"><ele>502.0</ele><time>2026-05-01T13:26:05.503Z</time></trkpt><trkpt lat="43.5246932" lon="12.6740011"><ele>502.00000000000006</ele><time>2026-05-01T13:26:06.504Z</time></trkpt><trkpt lat="43.5245913" lon="12.6739895"><ele>502.0</ele><time>2026-05-01T13:26:07.504Z</time></trkpt><trkpt lat="43.5244732" lon="12.673964"><ele>502.0</ele><time>2026-05-01T13:26:08.503Z</time></trkpt><trkpt lat="43.5243602" lon="12.6739835"><ele>502.0</ele><time>2026-05-01T13:26:09.504Z</time></trkpt><trkpt lat="43.5242393" lon="12.6740134"><ele>502.0</ele><time>2026-05-01T13:26:10.504Z</time></trkpt><trkpt lat="43.5241212" lon="12.6740377"><ele>502.0</ele><time>2026-05-01T13:26:11.504Z</time></trkpt><trkpt lat="43.5240067" lon="12.6740641"><ele>502.0</ele><time>2026-05-01T13:26:12.504Z</time></trkpt><trkpt lat="43.5238974" lon="12.6740891"><ele>502.00000000000006</ele><time>2026-05-01T13:26:13.504Z</time></trkpt><trkpt lat="43.5237894" lon="12.6741036"><ele>502.00000000000006</ele><time>2026-05-01T13:26:14.503Z</time></trkpt><trkpt lat="43.5236909" lon="12.6741109"><ele>502.0</ele><time>2026-05-01T13:26:15.503Z</time></trkpt><trkpt lat="43.5236019" lon="12.6740749"><ele>502.0</ele><time>2026-05-01T13:26:16.504Z</time></trkpt><trkpt lat="43.5235247" lon="12.67403"><ele>501.1666666666667</ele><time>2026-05-01T13:26:17.503Z</time></trkpt><trkpt lat="43.5234563" lon="12.6740201"><ele>500.33333333333337</ele><time>2026-05-01T13:26:18.504Z</time></trkpt><trkpt lat="43.5234016" lon="12.6740962"><ele>499.5</ele><time>2026-05-01T13:26:19.504Z</time></trkpt><trkpt lat="43.5233752" lon="12.6742012"><ele>498.66666666666663</ele><time>2026-05-01T13:26:20.504Z</time></trkpt><trkpt lat="43.5233947" lon="12.6743152"><ele>497.8333333333333</ele><time>2026-05-01T13:26:21.504Z</time></trkpt><trkpt lat="43.5234616" lon="12.6743781"><ele>497.0</ele><time>2026-05-01T13:26:22.504Z</time></trkpt><trkpt lat="43.5235738" lon="12.6743795"><ele>497.0</ele><time>2026-05-01T13:26:23.503Z</time></trkpt><trkpt lat="43.5236839" lon="12.6743797"><ele>497.0</ele><time>2026-05-01T13:26:24.504Z</time></trkpt><trkpt lat="43.5237998" lon="12.6743983"><ele>497.0</ele><time>2026-05-01T13:26:25.504Z</time></trkpt><trkpt lat="43.5239243" lon="12.6744576"><ele>497.0</ele><time>2026-05-01T13:26:26.504Z</time></trkpt><trkpt lat="43.5240603" lon="12.6745157"><ele>492.5</ele><time>2026-05-01T13:26:27.503Z</time></trkpt><trkpt lat="43.5241966" lon="12.6745731"><ele>488.0</ele><time>2026-05-01T13:26:28.503Z</time></trkpt><trkpt lat="43.5243379" lon="12.6746389"><ele>483.5</ele><time>2026-05-01T13:26:29.504Z</time></trkpt><trkpt lat="43.5244865" lon="12.6747096"><ele>479.0</ele><time>2026-05-01T13:26:30.504Z</time></trkpt><trkpt lat="43.5246425" lon="12.6747629"><ele>478.0</ele><time>2026-05-01T13:26:31.504Z</time></trkpt><trkpt lat="43.5247985" lon="12.6748205"><ele>477.0</ele><time>2026-05-01T13:26:32.504Z</time></trkpt><trkpt lat="43.5249508" lon="12.6748747"><ele>476.0</ele><time>2026-05-01T13:26:33.504Z</time></trkpt><trkpt lat="43.5250971" lon="12.6749228"><ele>476.0</ele><time>2026-05-01T13:26:34.503Z</time></trkpt><trkpt lat="43.5252377" lon="12.674966"><ele>476.0</ele><time>2026-05-01T13:26:35.504Z</time></trkpt><trkpt lat="43.5253553" lon="12.6750017"><ele>476.0</ele><time>2026-05-01T13:26:36.504Z</time></trkpt><trkpt lat="43.5254467" lon="12.6750375"><ele>476.0</ele><time>2026-05-01T13:26:37.504Z</time></trkpt><trkpt lat="43.5255185" lon="12.675083"><ele>476.0</ele><time>2026-05-01T13:26:38.503Z</time></trkpt><trkpt lat="43.5255939" lon="12.6751316"><ele>474.3333333333333</ele><time>2026-05-01T13:26:39.504Z</time></trkpt><trkpt lat="43.5256599" lon="12.6751975"><ele>472.66666666666663</ele><time>2026-05-01T13:26:40.504Z</time></trkpt><trkpt lat="43.5257265" lon="12.6752708"><ele>471.0</ele><time>2026-05-01T13:26:41.503Z</time></trkpt><trkpt lat="43.525795" lon="12.6753472"><ele>469.33333333333337</ele><time>2026-05-01T13:26:42.504Z</time></trkpt><trkpt lat="43.5258613" lon="12.6754321"><ele>467.6666666666667</ele><time>2026-05-01T13:26:43.503Z</time></trkpt><trkpt lat="43.5259257" lon="12.6755227"><ele>466.0</ele><time>2026-05-01T13:26:44.504Z</time></trkpt><trkpt lat="43.5259839" lon="12.6756078"><ele>466.00000000000006</ele><time>2026-05-01T13:26:45.504Z</time></trkpt><trkpt lat="43.5260373" lon="12.6756827"><ele>466.0</ele><time>2026-05-01T13:26:46.503Z</time></trkpt><trkpt lat="43.5261108" lon="12.6757741"><ele>466.0</ele><time>2026-05-01T13:26:48.504Z</time></trkpt><trkpt lat="43.526185" lon="12.6757614"><ele>466.0</ele><time>2026-05-01T13:26:51.504Z</time></trkpt><trkpt lat="43.5261873" lon="12.6756561"><ele>466.00000000000006</ele><time>2026-05-01T13:30:16.505Z</time></trkpt><trkpt lat="43.5261456" lon="12.6755306"><ele>466.0</ele><time>2026-05-01T13:30:18.505Z</time></trkpt><trkpt lat="43.5261226" lon="12.6754329"><ele>466.0</ele><time>2026-05-01T13:30:19.505Z</time></trkpt><trkpt lat="43.5260941" lon="12.6753195"><ele>466.0</ele><time>2026-05-01T13:30:20.504Z</time></trkpt><trkpt lat="43.5260738" lon="12.6752019"><ele>466.0</ele><time>2026-05-01T13:30:21.505Z</time></trkpt><trkpt lat="43.5260637" lon="12.6750643"><ele>466.0</ele><time>2026-05-01T13:30:22.505Z</time></trkpt><trkpt lat="43.526059" lon="12.6749263"><ele>466.0</ele><time>2026-05-01T13:30:23.504Z</time></trkpt><trkpt lat="43.5260518" lon="12.6748056"><ele>466.0</ele><time>2026-05-01T13:30:24.505Z</time></trkpt><trkpt lat="43.5260344" lon="12.6746837"><ele>466.0</ele><time>2026-05-01T13:30:25.505Z</time></trkpt><trkpt lat="43.5260058" lon="12.6745628"><ele>466.0</ele><time>2026-05-01T13:30:26.505Z</time></trkpt><trkpt lat="43.5259606" lon="12.6744532"><ele>466.0</ele><time>2026-05-01T13:30:27.505Z</time></trkpt><trkpt lat="43.5259115" lon="12.6743423"><ele>466.0</ele><time>2026-05-01T13:30:28.504Z</time></trkpt><trkpt lat="43.5258782" lon="12.6742244"><ele>465.8</ele><time>2026-05-01T13:30:29.505Z</time></trkpt><trkpt lat="43.5258596" lon="12.6740973"><ele>465.6</ele><time>2026-05-01T13:30:30.505Z</time></trkpt><trkpt lat="43.5258662" lon="12.6739673"><ele>465.4</ele><time>2026-05-01T13:30:31.504Z</time></trkpt><trkpt lat="43.5258804" lon="12.673828"><ele>465.2</ele><time>2026-05-01T13:30:32.504Z</time></trkpt><trkpt lat="43.5259018" lon="12.6736824"><ele>465.0</ele><time>2026-05-01T13:30:33.505Z</time></trkpt><trkpt lat="43.5259189" lon="12.673528"><ele>465.0</ele><time>2026-05-01T13:30:34.504Z</time></trkpt><trkpt lat="43.5259327" lon="12.6733689"><ele>465.0</ele><time>2026-05-01T13:30:35.505Z</time></trkpt><trkpt lat="43.5259288" lon="12.6731933"><ele>465.0</ele><time>2026-05-01T13:30:36.505Z</time></trkpt><trkpt lat="43.5259101" lon="12.6730094"><ele>465.0</ele><time>2026-05-01T13:30:37.505Z</time></trkpt><trkpt lat="43.525884" lon="12.6728028"><ele>465.75</ele><time>2026-05-01T13:30:38.505Z</time></trkpt><trkpt lat="43.5258817" lon="12.6726005"><ele>466.5</ele><time>2026-05-01T13:30:39.505Z</time></trkpt><trkpt lat="43.5258734" lon="12.6724049"><ele>467.25</ele><time>2026-05-01T13:30:40.504Z</time></trkpt><trkpt lat="43.5258578" lon="12.6722088"><ele>468.0</ele><time>2026-05-01T13:30:41.505Z</time></trkpt><trkpt lat="43.5258466" lon="12.6720231"><ele>467.79999999999995</ele><time>2026-05-01T13:30:42.505Z</time></trkpt><trkpt lat="43.5258527" lon="12.6718632"><ele>467.59999999999997</ele><time>2026-05-01T13:30:43.505Z</time></trkpt><trkpt lat="43.5258521" lon="12.6717265"><ele>467.40000000000003</ele><time>2026-05-01T13:30:44.505Z</time></trkpt><trkpt lat="43.5258515" lon="12.6715968"><ele>467.20000000000005</ele><time>2026-05-01T13:30:45.505Z</time></trkpt><trkpt lat="43.5258352" lon="12.671474"><ele>467.0</ele><time>2026-05-01T13:30:46.505Z</time></trkpt><trkpt lat="43.5258052" lon="12.6713453"><ele>467.0</ele><time>2026-05-01T13:30:47.505Z</time></trkpt><trkpt lat="43.5257665" lon="12.6712104"><ele>467.0</ele><time>2026-05-01T13:30:48.504Z</time></trkpt><trkpt lat="43.5257461" lon="12.6710505"><ele>467.0</ele><time>2026-05-01T13:30:49.505Z</time></trkpt><trkpt lat="43.5257443" lon="12.6708695"><ele>467.0</ele><time>2026-05-01T13:30:50.505Z</time></trkpt><trkpt lat="43.5257499" lon="12.6706758"><ele>467.0</ele><time>2026-05-01T13:30:51.505Z</time></trkpt><trkpt lat="43.5257705" lon="12.6704776"><ele>467.0</ele><time>2026-05-01T13:30:52.505Z</time></trkpt><trkpt lat="43.5258233" lon="12.6702771"><ele>467.0</ele><time>2026-05-01T13:30:53.505Z</time></trkpt><trkpt lat="43.5258873" lon="12.6700599"><ele>470.25</ele><time>2026-05-01T13:30:54.505Z</time></trkpt><trkpt lat="43.5259476" lon="12.6698539"><ele>473.5</ele><time>2026-05-01T13:30:55.505Z</time></trkpt><trkpt lat="43.5259961" lon="12.6696652"><ele>476.75</ele><time>2026-05-01T13:30:56.504Z</time></trkpt><trkpt lat="43.526051" lon="12.6695098"><ele>480.0</ele><time>2026-05-01T13:30:57.505Z</time></trkpt><trkpt lat="43.5261134" lon="12.6693888"><ele>482.6</ele><time>2026-05-01T13:30:58.504Z</time></trkpt><trkpt lat="43.5261671" lon="12.6692974"><ele>485.2</ele><time>2026-05-01T13:30:59.505Z</time></trkpt><trkpt lat="43.5262011" lon="12.6691948"><ele>487.79999999999995</ele><time>2026-05-01T13:31:00.504Z</time></trkpt><trkpt lat="43.5262189" lon="12.6690433"><ele>490.4</ele><time>2026-05-01T13:31:01.505Z</time></trkpt><trkpt lat="43.5262333" lon="12.6688768"><ele>493.0</ele><time>2026-05-01T13:31:02.505Z</time></trkpt><trkpt lat="43.5262434" lon="12.6687243"><ele>493.0</ele><time>2026-05-01T13:31:03.505Z</time></trkpt><trkpt lat="43.5262504" lon="12.6685759"><ele>493.0</ele><time>2026-05-01T13:31:04.505Z</time></trkpt><trkpt lat="43.5262423" lon="12.6684133"><ele>493.0</ele><time>2026-05-01T13:31:05.505Z</time></trkpt><trkpt lat="43.526203" lon="12.6682454"><ele>493.0</ele><time>2026-05-01T13:31:06.504Z</time></trkpt><trkpt lat="43.5261697" lon="12.6680931"><ele>493.0</ele><time>2026-05-01T13:31:07.505Z</time></trkpt><trkpt lat="43.5261563" lon="12.6679666"><ele>493.0</ele><time>2026-05-01T13:31:08.505Z</time></trkpt><trkpt lat="43.5261536" lon="12.667864"><ele>493.0</ele><time>2026-05-01T13:31:09.505Z</time></trkpt><trkpt lat="43.5261417" lon="12.6677629"><ele>493.0</ele><time>2026-05-01T13:31:10.505Z</time></trkpt><trkpt lat="43.5261241" lon="12.6676765"><ele>493.0</ele><time>2026-05-01T13:31:11.505Z</time></trkpt><trkpt lat="43.5260865" lon="12.667601"><ele>493.0</ele><time>2026-05-01T13:31:12.505Z</time></trkpt><trkpt lat="43.5260254" lon="12.6675483"><ele>493.0</ele><time>2026-05-01T13:31:13.504Z</time></trkpt><trkpt lat="43.5259726" lon="12.6674869"><ele>492.83333333333337</ele><time>2026-05-01T13:31:14.505Z</time></trkpt><trkpt lat="43.5259219" lon="12.6674137"><ele>492.6666666666667</ele><time>2026-05-01T13:31:15.505Z</time></trkpt><trkpt lat="43.5259601" lon="12.6673072"><ele>492.5</ele><time>2026-05-01T13:31:17.504Z</time></trkpt><trkpt lat="43.5260558" lon="12.6672699"><ele>492.33333333333337</ele><time>2026-05-01T13:31:19.505Z</time></trkpt><trkpt lat="43.5261236" lon="12.6672896"><ele>492.1666666666667</ele><time>2026-05-01T13:31:20.504Z</time></trkpt><trkpt lat="43.5262066" lon="12.6673239"><ele>492.0</ele><time>2026-05-01T13:31:21.504Z</time></trkpt><trkpt lat="43.5262887" lon="12.6674027"><ele>493.5</ele><time>2026-05-01T13:31:22.505Z</time></trkpt><trkpt lat="43.5263705" lon="12.6675216"><ele>495.0</ele><time>2026-05-01T13:31:23.504Z</time></trkpt><trkpt lat="43.5264626" lon="12.6676615"><ele>496.5</ele><time>2026-05-01T13:31:24.505Z</time></trkpt><trkpt lat="43.5265668" lon="12.667762"><ele>498.0</ele><time>2026-05-01T13:31:25.505Z</time></trkpt><trkpt lat="43.5266651" lon="12.6678357"><ele>497.0</ele><time>2026-05-01T13:31:26.505Z</time></trkpt><trkpt lat="43.5267464" lon="12.6679086"><ele>496.0</ele><time>2026-05-01T13:31:27.505Z</time></trkpt><trkpt lat="43.5268203" lon="12.6679731"><ele>495.0</ele><time>2026-05-01T13:31:28.504Z</time></trkpt><trkpt lat="43.5268945" lon="12.6680277"><ele>494.0</ele><time>2026-05-01T13:31:29.505Z</time></trkpt><trkpt lat="43.5269681" lon="12.6680833"><ele>493.0</ele><time>2026-05-01T13:31:30.504Z</time></trkpt><trkpt lat="43.5270361" lon="12.6681404"><ele>492.0</ele><time>2026-05-01T13:31:31.505Z</time></trkpt><trkpt lat="43.5271086" lon="12.6681884"><ele>492.0</ele><time>2026-05-01T13:31:32.505Z</time></trkpt><trkpt lat="43.5271852" lon="12.6682346"><ele>492.0</ele><time>2026-05-01T13:31:33.505Z</time></trkpt><trkpt lat="43.5272528" lon="12.6682924"><ele>492.0</ele><time>2026-05-01T13:31:34.505Z</time></trkpt><trkpt lat="43.5273121" lon="12.6683566"><ele>492.0</ele><time>2026-05-01T13:31:35.505Z</time></trkpt><trkpt lat="43.5273784" lon="12.668433"><ele>492.0</ele><time>2026-05-01T13:31:36.505Z</time></trkpt><trkpt lat="43.5274529" lon="12.6685234"><ele>492.0</ele><time>2026-05-01T13:31:37.505Z</time></trkpt><trkpt lat="43.5275285" lon="12.6686095"><ele>489.40000000000003</ele><time>2026-05-01T13:31:38.505Z</time></trkpt><trkpt lat="43.5276039" lon="12.6686981"><ele>486.80000000000007</ele><time>2026-05-01T13:31:39.505Z</time></trkpt><trkpt lat="43.5276867" lon="12.6687741"><ele>484.2</ele><time>2026-05-01T13:31:40.504Z</time></trkpt><trkpt lat="43.527761" lon="12.6688531"><ele>481.6</ele><time>2026-05-01T13:31:41.505Z</time></trkpt><trkpt lat="43.5278216" lon="12.6689295"><ele>479.0</ele><time>2026-05-01T13:31:42.504Z</time></trkpt><trkpt lat="43.5278644" lon="12.6690172"><ele>479.0</ele><time>2026-05-01T13:31:43.505Z</time></trkpt><trkpt lat="43.5278769" lon="12.6691187"><ele>479.0</ele><time>2026-05-01T13:31:44.505Z</time></trkpt><trkpt lat="43.5278659" lon="12.6692198"><ele>479.0</ele><time>2026-05-01T13:31:45.505Z</time></trkpt><trkpt lat="43.5278259" lon="12.6693378"><ele>479.0</ele><time>2026-05-01T13:31:46.505Z</time></trkpt><trkpt lat="43.5277689" lon="12.669473"><ele>479.0</ele><time>2026-05-01T13:31:47.505Z</time></trkpt><trkpt lat="43.5277116" lon="12.6696211"><ele>478.5</ele><time>2026-05-01T13:31:48.504Z</time></trkpt><trkpt lat="43.5276543" lon="12.6697828"><ele>478.0</ele><time>2026-05-01T13:31:49.504Z</time></trkpt><trkpt lat="43.5275973" lon="12.6699397"><ele>477.5</ele><time>2026-05-01T13:31:50.505Z</time></trkpt><trkpt lat="43.5275468" lon="12.6700889"><ele>477.0</ele><time>2026-05-01T13:31:51.505Z</time></trkpt><trkpt lat="43.5274881" lon="12.6702208"><ele>477.1666666666667</ele><time>2026-05-01T13:31:52.505Z</time></trkpt><trkpt lat="43.5274337" lon="12.6703362"><ele>477.33333333333337</ele><time>2026-05-01T13:31:53.504Z</time></trkpt><trkpt lat="43.5273932" lon="12.6704174"><ele>477.5</ele><time>2026-05-01T13:31:54.505Z</time></trkpt><trkpt lat="43.5273628" lon="12.6705123"><ele>477.6666666666667</ele><time>2026-05-01T13:31:55.505Z</time></trkpt><trkpt lat="43.527344" lon="12.6706048"><ele>477.83333333333337</ele><time>2026-05-01T13:31:56.504Z</time></trkpt><trkpt lat="43.5273358" lon="12.6706988"><ele>478.0</ele><time>2026-05-01T13:31:57.504Z</time></trkpt><trkpt lat="43.5273787" lon="12.6708043"><ele>478.0</ele><time>2026-05-01T13:31:58.504Z</time></trkpt><trkpt lat="43.5274457" lon="12.6709167"><ele>478.0</ele><time>2026-05-01T13:31:59.505Z</time></trkpt><trkpt lat="43.5275357" lon="12.6710397"><ele>478.0</ele><time>2026-05-01T13:32:00.505Z</time></trkpt><trkpt lat="43.5276394" lon="12.6711899"><ele>478.0</ele><time>2026-05-01T13:32:01.504Z</time></trkpt><trkpt lat="43.5277455" lon="12.671352"><ele>475.0</ele><time>2026-05-01T13:32:02.505Z</time></trkpt><trkpt lat="43.5278233" lon="12.6715218"><ele>472.0</ele><time>2026-05-01T13:32:03.505Z</time></trkpt><trkpt lat="43.5278645" lon="12.6716701"><ele>469.0</ele><time>2026-05-01T13:32:04.505Z</time></trkpt><trkpt lat="43.527898" lon="12.6718031"><ele>466.0</ele><time>2026-05-01T13:32:05.505Z</time></trkpt><trkpt lat="43.5279547" lon="12.6719313"><ele>468.4</ele><time>2026-05-01T13:32:06.505Z</time></trkpt><trkpt lat="43.5280397" lon="12.6720487"><ele>470.8</ele><time>2026-05-01T13:32:07.504Z</time></trkpt><trkpt lat="43.5281333" lon="12.6721477"><ele>473.19999999999993</ele><time>2026-05-01T13:32:08.505Z</time></trkpt><trkpt lat="43.5282146" lon="12.6722386"><ele>475.59999999999997</ele><time>2026-05-01T13:32:09.504Z</time></trkpt><trkpt lat="43.5282927" lon="12.6723333"><ele>478.0</ele><time>2026-05-01T13:32:10.505Z</time></trkpt><trkpt lat="43.5283516" lon="12.6724425"><ele>478.00000000000006</ele><time>2026-05-01T13:32:11.504Z</time></trkpt><trkpt lat="43.5283866" lon="12.6725612"><ele>478.0</ele><time>2026-05-01T13:32:12.505Z</time></trkpt><trkpt lat="43.5283845" lon="12.672684"><ele>478.0</ele><time>2026-05-01T13:32:13.505Z</time></trkpt><trkpt lat="43.5283693" lon="12.6727863"><ele>478.0</ele><time>2026-05-01T13:32:14.505Z</time></trkpt><trkpt lat="43.528366" lon="12.6728769"><ele>478.00000000000006</ele><time>2026-05-01T13:32:15.505Z</time></trkpt><trkpt lat="43.5283898" lon="12.6729681"><ele>478.0</ele><time>2026-05-01T13:32:16.505Z</time></trkpt><trkpt lat="43.5284421" lon="12.6730683"><ele>476.00000000000006</ele><time>2026-05-01T13:32:17.504Z</time></trkpt><trkpt lat="43.528514" lon="12.6731422"><ele>474.0</ele><time>2026-05-01T13:32:18.505Z</time></trkpt><trkpt lat="43.5286005" lon="12.6731841"><ele>472.0</ele><time>2026-05-01T13:32:19.505Z</time></trkpt><trkpt lat="43.5286833" lon="12.673198"><ele>470.0</ele><time>2026-05-01T13:32:20.505Z</time></trkpt><trkpt lat="43.528775" lon="12.6731999"><ele>468.00000000000006</ele><time>2026-05-01T13:32:21.505Z</time></trkpt><trkpt lat="43.5288657" lon="12.6732022"><ele>466.0</ele><time>2026-05-01T13:32:22.504Z</time></trkpt><trkpt lat="43.528967" lon="12.673214"><ele>466.0</ele><time>2026-05-01T13:32:23.505Z</time></trkpt><trkpt lat="43.5290768" lon="12.6732462"><ele>466.0</ele><time>2026-05-01T13:32:24.505Z</time></trkpt><trkpt lat="43.5291775" lon="12.6732927"><ele>466.0</ele><time>2026-05-01T13:32:25.505Z</time></trkpt><trkpt lat="43.5292608" lon="12.6733572"><ele>466.0</ele><time>2026-05-01T13:32:26.505Z</time></trkpt><trkpt lat="43.5293445" lon="12.6734254"><ele>466.0</ele><time>2026-05-01T13:32:27.505Z</time></trkpt><trkpt lat="43.5294189" lon="12.6734942"><ele>466.00000000000006</ele><time>2026-05-01T13:32:28.505Z</time></trkpt><trkpt lat="43.5294874" lon="12.6735606"><ele>466.0</ele><time>2026-05-01T13:32:29.504Z</time></trkpt><trkpt lat="43.5295531" lon="12.6736185"><ele>466.0</ele><time>2026-05-01T13:32:30.505Z</time></trkpt><trkpt lat="43.5296148" lon="12.6736763"><ele>466.0</ele><time>2026-05-01T13:32:31.504Z</time></trkpt><trkpt lat="43.5296712" lon="12.6737231"><ele>466.00000000000006</ele><time>2026-05-01T13:32:32.505Z</time></trkpt><trkpt lat="43.5297463" lon="12.6737978"><ele>466.0</ele><time>2026-05-01T13:32:34.505Z</time></trkpt><trkpt lat="43.5298043" lon="12.6738824"><ele>463.4</ele><time>2026-05-01T13:32:36.505Z</time></trkpt><trkpt lat="43.5298649" lon="12.6739624"><ele>460.8</ele><time>2026-05-01T13:32:38.505Z</time></trkpt><trkpt lat="43.5299442" lon="12.6740293"><ele>458.19999999999993</ele><time>2026-05-01T13:32:40.505Z</time></trkpt><trkpt lat="43.5300469" lon="12.6740681"><ele>455.59999999999997</ele><time>2026-05-01T13:32:42.504Z</time></trkpt><trkpt lat="43.5301428" lon="12.6740837"><ele>453.0</ele><time>2026-05-01T13:32:44.505Z</time></trkpt><trkpt lat="43.5302172" lon="12.6740727"><ele>453.0</ele><time>2026-05-01T13:32:46.505Z</time></trkpt><trkpt lat="43.530293" lon="12.6740456"><ele>453.0</ele><time>2026-05-01T13:32:48.504Z</time></trkpt><trkpt lat="43.530386" lon="12.6739931"><ele>453.0</ele><time>2026-05-01T13:32:50.505Z</time></trkpt><trkpt lat="43.530503" lon="12.67392"><ele>453.0</ele><time>2026-05-01T13:32:52.505Z</time></trkpt><trkpt lat="43.5305638" lon="12.6738852"><ele>453.0</ele><time>2026-05-01T13:32:53.505Z</time></trkpt><trkpt lat="43.5306214" lon="12.6738425"><ele>453.0</ele><time>2026-05-01T13:32:54.504Z</time></trkpt><trkpt lat="43.5306851" lon="12.6737693"><ele>452.79999999999995</ele><time>2026-05-01T13:32:55.505Z</time></trkpt><trkpt lat="43.5307596" lon="12.6736784"><ele>452.59999999999997</ele><time>2026-05-01T13:32:56.505Z</time></trkpt><trkpt lat="43.5308235" lon="12.6735725"><ele>452.40000000000003</ele><time>2026-05-01T13:32:57.505Z</time></trkpt><trkpt lat="43.5309004" lon="12.6734515"><ele>452.20000000000005</ele><time>2026-05-01T13:32:58.505Z</time></trkpt><trkpt lat="43.5309722" lon="12.6733352"><ele>452.0</ele><time>2026-05-01T13:32:59.505Z</time></trkpt><trkpt lat="43.5310481" lon="12.6732161"><ele>452.0</ele><time>2026-05-01T13:33:00.504Z</time></trkpt><trkpt lat="43.5311274" lon="12.6730968"><ele>452.0</ele><time>2026-05-01T13:33:01.505Z</time></trkpt><trkpt lat="43.5312073" lon="12.6729789"><ele>452.0</ele><time>2026-05-01T13:33:02.504Z</time></trkpt><trkpt lat="43.5312945" lon="12.6728753"><ele>452.0</ele><time>2026-05-01T13:33:03.505Z</time></trkpt><trkpt lat="43.5313985" lon="12.6727756"><ele>447.0</ele><time>2026-05-01T13:33:04.504Z</time></trkpt><trkpt lat="43.5315149" lon="12.6726796"><ele>442.0</ele><time>2026-05-01T13:33:05.505Z</time></trkpt><trkpt lat="43.5316307" lon="12.6725803"><ele>437.0</ele><time>2026-05-01T13:33:06.505Z</time></trkpt><trkpt lat="43.5317511" lon="12.6724933"><ele>432.0</ele><time>2026-05-01T13:33:07.505Z</time></trkpt><trkpt lat="43.5318672" lon="12.6723974"><ele>432.0</ele><time>2026-05-01T13:33:08.504Z</time></trkpt><trkpt lat="43.5319756" lon="12.6723157"><ele>432.00000000000006</ele><time>2026-05-01T13:33:09.504Z</time></trkpt><trkpt lat="43.5320812" lon="12.6722438"><ele>432.00000000000006</ele><time>2026-05-01T13:33:10.504Z</time></trkpt><trkpt lat="43.5321751" lon="12.6721849"><ele>432.0</ele><time>2026-05-01T13:33:11.505Z</time></trkpt><trkpt lat="43.5322651" lon="12.6721371"><ele>432.0</ele><time>2026-05-01T13:33:12.505Z</time></trkpt><trkpt lat="43.5323511" lon="12.6721066"><ele>431.0</ele><time>2026-05-01T13:33:13.505Z</time></trkpt><trkpt lat="43.5324195" lon="12.6720553"><ele>430.0</ele><time>2026-05-01T13:33:14.505Z</time></trkpt><trkpt lat="43.5324895" lon="12.6720062"><ele>429.0</ele><time>2026-05-01T13:33:15.505Z</time></trkpt><trkpt lat="43.5325559" lon="12.6719411"><ele>428.0</ele><time>2026-05-01T13:33:16.505Z</time></trkpt><trkpt lat="43.5326103" lon="12.6718474"><ele>427.0</ele><time>2026-05-01T13:33:17.505Z</time></trkpt><trkpt lat="43.5326687" lon="12.6717466"><ele>426.0</ele><time>2026-05-01T13:33:18.505Z</time></trkpt><trkpt lat="43.5327274" lon="12.6716474"><ele>426.0</ele><time>2026-05-01T13:33:19.505Z</time></trkpt><trkpt lat="43.5327848" lon="12.6715448"><ele>426.0</ele><time>2026-05-01T13:33:20.505Z</time></trkpt><trkpt lat="43.5328387" lon="12.6714485"><ele>426.0</ele><time>2026-05-01T13:33:21.505Z</time></trkpt><trkpt lat="43.5328851" lon="12.6713639"><ele>426.0</ele><time>2026-05-01T13:33:22.505Z</time></trkpt><trkpt lat="43.5329244" lon="12.6712896"><ele>426.0</ele><time>2026-05-01T13:33:23.505Z</time></trkpt><trkpt lat="43.5330047" lon="12.6711993"><ele>426.0</ele><time>2026-05-01T13:33:25.505Z</time></trkpt><trkpt lat="43.5330826" lon="12.6712672"><ele>422.20000000000005</ele><time>2026-05-01T13:33:27.504Z</time></trkpt><trkpt lat="43.5330833" lon="12.6713627"><ele>418.40000000000003</ele><time>2026-05-01T13:33:28.504Z</time></trkpt><trkpt lat="43.5330649" lon="12.6714801"><ele>414.6</ele><time>2026-05-01T13:33:29.505Z</time></trkpt><trkpt lat="43.5330296" lon="12.6716124"><ele>410.8</ele><time>2026-05-01T13:33:30.505Z</time></trkpt><trkpt lat="43.5329996" lon="12.6717648"><ele>407.0</ele><time>2026-05-01T13:33:31.505Z</time></trkpt><trkpt lat="43.5329753" lon="12.6719144"><ele>405.99999999999994</ele><time>2026-05-01T13:33:32.504Z</time></trkpt><trkpt lat="43.5329542" lon="12.6720547"><ele>405.0</ele><time>2026-05-01T13:33:33.505Z</time></trkpt><trkpt lat="43.5329328" lon="12.6721901"><ele>404.0</ele><time>2026-05-01T13:33:34.505Z</time></trkpt><trkpt lat="43.5329183" lon="12.6723107"><ele>403.0</ele><time>2026-05-01T13:33:35.505Z</time></trkpt><trkpt lat="43.5328999" lon="12.6724137"><ele>401.99999999999994</ele><time>2026-05-01T13:33:36.505Z</time></trkpt><trkpt lat="43.5328782" lon="12.6725023"><ele>401.0</ele><time>2026-05-01T13:33:37.504Z</time></trkpt><trkpt lat="43.5328242" lon="12.6726155"><ele>401.0</ele><time>2026-05-01T13:33:39.505Z</time></trkpt><trkpt lat="43.5328141" lon="12.6727341"><ele>401.0</ele><time>2026-05-01T13:33:41.504Z</time></trkpt><trkpt lat="43.5329054" lon="12.6728158"><ele>401.0</ele><time>2026-05-01T13:33:43.504Z</time></trkpt><trkpt lat="43.5330327" lon="12.6727712"><ele>401.0</ele><time>2026-05-01T13:33:45.504Z</time></trkpt><trkpt lat="43.5331099" lon="12.6727214"><ele>401.0</ele><time>2026-05-01T13:33:46.505Z</time></trkpt><trkpt lat="43.5331951" lon="12.6726537"><ele>401.0</ele><time>2026-05-01T13:33:47.505Z</time></trkpt><trkpt lat="43.5332767" lon="12.6725694"><ele>401.0</ele><time>2026-05-01T13:33:48.505Z</time></trkpt><trkpt lat="43.5333477" lon="12.6724803"><ele>401.0</ele><time>2026-05-01T13:33:49.505Z</time></trkpt><trkpt lat="43.5334105" lon="12.6723765"><ele>401.0</ele><time>2026-05-01T13:33:50.505Z</time></trkpt><trkpt lat="43.5334718" lon="12.6722758"><ele>401.0</ele><time>2026-05-01T13:33:51.505Z</time></trkpt><trkpt lat="43.5335295" lon="12.6721767"><ele>400.99999999999994</ele><time>2026-05-01T13:33:52.505Z</time></trkpt><trkpt lat="43.5335933" lon="12.6720886"><ele>401.0</ele><time>2026-05-01T13:33:53.505Z</time></trkpt><trkpt lat="43.5336648" lon="12.6720229"><ele>401.0</ele><time>2026-05-01T13:33:54.505Z</time></trkpt><trkpt lat="43.5337445" lon="12.6719869"><ele>401.0</ele><time>2026-05-01T13:33:55.505Z</time></trkpt><trkpt lat="43.5338213" lon="12.671944"><ele>400.99999999999994</ele><time>2026-05-01T13:33:56.505Z</time></trkpt><trkpt lat="43.5338936" lon="12.6718943"><ele>401.0</ele><time>2026-05-01T13:33:57.505Z</time></trkpt><trkpt lat="43.5339625" lon="12.6718135"><ele>398.8</ele><time>2026-05-01T13:33:58.505Z</time></trkpt><trkpt lat="43.5340304" lon="12.6717126"><ele>396.6</ele><time>2026-05-01T13:33:59.505Z</time></trkpt><trkpt lat="43.5340923" lon="12.6715962"><ele>394.4</ele><time>2026-05-01T13:34:00.505Z</time></trkpt><trkpt lat="43.5341406" lon="12.6714766"><ele>392.2</ele><time>2026-05-01T13:34:01.504Z</time></trkpt><trkpt lat="43.5341781" lon="12.6713476"><ele>390.0</ele><time>2026-05-01T13:34:02.505Z</time></trkpt><trkpt lat="43.5342199" lon="12.6712252"><ele>390.2</ele><time>2026-05-01T13:34:03.504Z</time></trkpt><trkpt lat="43.5342591" lon="12.6711005"><ele>390.4</ele><time>2026-05-01T13:34:04.505Z</time></trkpt><trkpt lat="43.5342951" lon="12.6709845"><ele>390.6</ele><time>2026-05-01T13:34:05.505Z</time></trkpt><trkpt lat="43.5343412" lon="12.6708695"><ele>390.8</ele><time>2026-05-01T13:34:06.505Z</time></trkpt><trkpt lat="43.5343982" lon="12.6707581"><ele>391.0</ele><time>2026-05-01T13:34:07.505Z</time></trkpt><trkpt lat="43.5344721" lon="12.670672"><ele>391.00000000000006</ele><time>2026-05-01T13:34:08.505Z</time></trkpt><trkpt lat="43.5345472" lon="12.6706095"><ele>391.0</ele><time>2026-05-01T13:34:09.505Z</time></trkpt><trkpt lat="43.534618" lon="12.6705563"><ele>391.0</ele><time>2026-05-01T13:34:10.505Z</time></trkpt><trkpt lat="43.5346883" lon="12.6704961"><ele>391.0</ele><time>2026-05-01T13:34:11.505Z</time></trkpt><trkpt lat="43.5347543" lon="12.6704208"><ele>391.00000000000006</ele><time>2026-05-01T13:34:12.505Z</time></trkpt><trkpt lat="43.5348036" lon="12.6703132"><ele>391.0</ele><time>2026-05-01T13:34:13.505Z</time></trkpt><trkpt lat="43.534851" lon="12.670189"><ele>388.1666666666667</ele><time>2026-05-01T13:34:14.504Z</time></trkpt><trkpt lat="43.5348896" lon="12.670064"><ele>385.33333333333337</ele><time>2026-05-01T13:34:15.505Z</time></trkpt><trkpt lat="43.5349243" lon="12.6699411"><ele>382.5</ele><time>2026-05-01T13:34:16.505Z</time></trkpt><trkpt lat="43.5349543" lon="12.6698358"><ele>379.6666666666667</ele><time>2026-05-01T13:34:17.505Z</time></trkpt><trkpt lat="43.5349818" lon="12.6697339"><ele>376.83333333333337</ele><time>2026-05-01T13:34:18.505Z</time></trkpt><trkpt lat="43.5349976" lon="12.6696367"><ele>374.0</ele><time>2026-05-01T13:34:19.505Z</time></trkpt><trkpt lat="43.5349955" lon="12.6695485"><ele>374.0</ele><time>2026-05-01T13:34:20.505Z</time></trkpt><trkpt lat="43.5349926" lon="12.6694173"><ele>374.0</ele><time>2026-05-01T13:34:22.504Z</time></trkpt><trkpt lat="43.535057" lon="12.6693347"><ele>374.0</ele><time>2026-05-01T13:34:24.505Z</time></trkpt><trkpt lat="43.5351283" lon="12.6693488"><ele>374.0</ele><time>2026-05-01T13:34:25.505Z</time></trkpt><trkpt lat="43.5352008" lon="12.6693978"><ele>374.0</ele><time>2026-05-01T13:34:26.505Z</time></trkpt><trkpt lat="43.5352864" lon="12.6694615"><ele>374.0</ele><time>2026-05-01T13:34:27.505Z</time></trkpt><trkpt lat="43.5353897" lon="12.6695226"><ele>371.0</ele><time>2026-05-01T13:34:28.505Z</time></trkpt><trkpt lat="43.5355005" lon="12.6695673"><ele>368.0</ele><time>2026-05-01T13:34:29.505Z</time></trkpt><trkpt lat="43.5356113" lon="12.6696134"><ele>365.0</ele><time>2026-05-01T13:34:30.505Z</time></trkpt><trkpt lat="43.5357192" lon="12.6696626"><ele>362.0</ele><time>2026-05-01T13:34:31.505Z</time></trkpt><trkpt lat="43.535828" lon="12.6697147"><ele>362.0</ele><time>2026-05-01T13:34:32.505Z</time></trkpt><trkpt lat="43.5359437" lon="12.6697595"><ele>362.0</ele><time>2026-05-01T13:34:33.505Z</time></trkpt><trkpt lat="43.5360588" lon="12.6698098"><ele>362.0</ele><time>2026-05-01T13:34:34.504Z</time></trkpt><trkpt lat="43.5361751" lon="12.6698505"><ele>362.0</ele><time>2026-05-01T13:34:35.504Z</time></trkpt><trkpt lat="43.536286" lon="12.6698772"><ele>361.1666666666667</ele><time>2026-05-01T13:34:36.505Z</time></trkpt><trkpt lat="43.5363856" lon="12.6699032"><ele>360.33333333333337</ele><time>2026-05-01T13:34:37.505Z</time></trkpt><trkpt lat="43.5364757" lon="12.669919"><ele>359.5</ele><time>2026-05-01T13:34:38.505Z</time></trkpt><trkpt lat="43.5365592" lon="12.6699249"><ele>358.6666666666667</ele><time>2026-05-01T13:34:39.504Z</time></trkpt><trkpt lat="43.5366334" lon="12.6699403"><ele>357.8333333333333</ele><time>2026-05-01T13:34:40.505Z</time></trkpt><trkpt lat="43.5367067" lon="12.6699688"><ele>357.0</ele><time>2026-05-01T13:34:41.505Z</time></trkpt><trkpt lat="43.5367781" lon="12.6700278"><ele>357.0</ele><time>2026-05-01T13:34:42.505Z</time></trkpt><trkpt lat="43.5368601" lon="12.6701131"><ele>357.0</ele><time>2026-05-01T13:34:43.505Z</time></trkpt><trkpt lat="43.5369446" lon="12.6701941"><ele>357.0</ele><time>2026-05-01T13:34:44.505Z</time></trkpt><trkpt lat="43.5370162" lon="12.6702711"><ele>357.0</ele><time>2026-05-01T13:34:45.505Z</time></trkpt><trkpt lat="43.5370939" lon="12.6703305"><ele>357.0</ele><time>2026-05-01T13:34:46.505Z</time></trkpt><trkpt lat="43.5371851" lon="12.6703735"><ele>355.0</ele><time>2026-05-01T13:34:47.505Z</time></trkpt><trkpt lat="43.5372812" lon="12.6703962"><ele>353.0</ele><time>2026-05-01T13:34:48.505Z</time></trkpt><trkpt lat="43.5373734" lon="12.6704214"><ele>351.0</ele><time>2026-05-01T13:34:49.504Z</time></trkpt><trkpt lat="43.5374705" lon="12.6704488"><ele>349.0</ele><time>2026-05-01T13:34:50.505Z</time></trkpt><trkpt lat="43.5375527" lon="12.6704699"><ele>347.0</ele><time>2026-05-01T13:34:51.505Z</time></trkpt><trkpt lat="43.5376365" lon="12.6704966"><ele>347.0</ele><time>2026-05-01T13:34:52.505Z</time></trkpt><trkpt lat="43.53772" lon="12.6705168"><ele>347.0</ele><time>2026-05-01T13:34:53.505Z</time></trkpt><trkpt lat="43.537813" lon="12.6705077"><ele>347.0</ele><time>2026-05-01T13:34:54.505Z</time></trkpt><trkpt lat="43.5379088" lon="12.6704762"><ele>347.0</ele><time>2026-05-01T13:34:55.504Z</time></trkpt><trkpt lat="43.5380027" lon="12.6704531"><ele>347.0</ele><time>2026-05-01T13:34:56.505Z</time></trkpt><trkpt lat="43.5380935" lon="12.6704227"><ele>347.0</ele><time>2026-05-01T13:34:57.505Z</time></trkpt><trkpt lat="43.5381741" lon="12.6703817"><ele>347.0</ele><time>2026-05-01T13:34:58.504Z</time></trkpt><trkpt lat="43.5382448" lon="12.6703215"><ele>347.0</ele><time>2026-05-01T13:34:59.505Z</time></trkpt><trkpt lat="43.5382952" lon="12.6702393"><ele>347.0</ele><time>2026-05-01T13:35:00.505Z</time></trkpt><trkpt lat="43.5383444" lon="12.6701666"><ele>347.0</ele><time>2026-05-01T13:35:01.505Z</time></trkpt><trkpt lat="43.5384049" lon="12.6701236"><ele>347.0</ele><time>2026-05-01T13:35:02.505Z</time></trkpt><trkpt lat="43.5384838" lon="12.6701425"><ele>347.0</ele><time>2026-05-01T13:35:03.504Z</time></trkpt><trkpt lat="43.5385364" lon="12.6702086"><ele>347.0</ele><time>2026-05-01T13:35:04.505Z</time></trkpt><trkpt lat="43.5385057" lon="12.6703508"><ele>347.0</ele><time>2026-05-01T13:35:06.505Z</time></trkpt><trkpt lat="43.5384474" lon="12.6704245"><ele>347.0</ele><time>2026-05-01T13:35:07.504Z</time></trkpt><trkpt lat="43.5383769" lon="12.6705147"><ele>347.0</ele><time>2026-05-01T13:35:08.505Z</time></trkpt><trkpt lat="43.5383127" lon="12.6706046"><ele>347.0</ele><time>2026-05-01T13:35:09.505Z</time></trkpt><trkpt lat="43.5382524" lon="12.6707052"><ele>344.8</ele><time>2026-05-01T13:35:10.505Z</time></trkpt><trkpt lat="43.5381915" lon="12.6708094"><ele>342.6</ele><time>2026-05-01T13:35:11.505Z</time></trkpt><trkpt lat="43.5381365" lon="12.6709115"><ele>340.40000000000003</ele><time>2026-05-01T13:35:12.505Z</time></trkpt><trkpt lat="43.5380802" lon="12.6710212"><ele>338.20000000000005</ele><time>2026-05-01T13:35:13.505Z</time></trkpt><trkpt lat="43.5380303" lon="12.6711306"><ele>336.0</ele><time>2026-05-01T13:35:14.504Z</time></trkpt><trkpt lat="43.5379768" lon="12.6712357"><ele>334.7142857142857</ele><time>2026-05-01T13:35:15.505Z</time></trkpt><trkpt lat="43.5379297" lon="12.6713189"><ele>333.42857142857144</ele><time>2026-05-01T13:35:16.505Z</time></trkpt><trkpt lat="43.5379003" lon="12.6714037"><ele>332.1428571428571</ele><time>2026-05-01T13:35:17.504Z</time></trkpt><trkpt lat="43.5379065" lon="12.6714906"><ele>330.8571428571429</ele><time>2026-05-01T13:35:18.505Z</time></trkpt><trkpt lat="43.5379487" lon="12.6715611"><ele>329.57142857142856</ele><time>2026-05-01T13:35:19.505Z</time></trkpt><trkpt lat="43.5380212" lon="12.6716007"><ele>328.2857142857143</ele><time>2026-05-01T13:35:20.505Z</time></trkpt><trkpt lat="43.5381147" lon="12.6716081"><ele>327.0</ele><time>2026-05-01T13:35:21.504Z</time></trkpt><trkpt lat="43.5382205" lon="12.671591"><ele>327.0</ele><time>2026-05-01T13:35:22.505Z</time></trkpt><trkpt lat="43.5383481" lon="12.6715608"><ele>327.0</ele><time>2026-05-01T13:35:23.504Z</time></trkpt><trkpt lat="43.5384794" lon="12.6715181"><ele>327.0</ele><time>2026-05-01T13:35:24.504Z</time></trkpt><trkpt lat="43.5386167" lon="12.6714766"><ele>327.0</ele><time>2026-05-01T13:35:25.504Z</time></trkpt><trkpt lat="43.5387633" lon="12.6714345"><ele>326.0</ele><time>2026-05-01T13:35:26.505Z</time></trkpt><trkpt lat="43.5389064" lon="12.6713927"><ele>325.0</ele><time>2026-05-01T13:35:27.505Z</time></trkpt><trkpt lat="43.5390426" lon="12.6713541"><ele>324.0</ele><time>2026-05-01T13:35:28.504Z</time></trkpt><trkpt lat="43.5391834" lon="12.6713166"><ele>323.0</ele><time>2026-05-01T13:35:29.505Z</time></trkpt><trkpt lat="43.5393243" lon="12.6712788"><ele>323.0</ele><time>2026-05-01T13:35:30.504Z</time></trkpt><trkpt lat="43.5394534" lon="12.6712524"><ele>323.0</ele><time>2026-05-01T13:35:31.505Z</time></trkpt><trkpt lat="43.5395781" lon="12.6712291"><ele>323.0</ele><time>2026-05-01T13:35:32.505Z</time></trkpt><trkpt lat="43.5396978" lon="12.6712087"><ele>323.0</ele><time>2026-05-01T13:35:33.505Z</time></trkpt><trkpt lat="43.5398097" lon="12.6711821"><ele>322.0</ele><time>2026-05-01T13:35:34.505Z</time></trkpt><trkpt lat="43.5399088" lon="12.671158"><ele>321.0</ele><time>2026-05-01T13:35:35.505Z</time></trkpt><trkpt lat="43.539999" lon="12.671141"><ele>320.0</ele><time>2026-05-01T13:35:36.505Z</time></trkpt><trkpt lat="43.5400843" lon="12.6711222"><ele>319.0</ele><time>2026-05-01T13:35:37.505Z</time></trkpt><trkpt lat="43.5401611" lon="12.6711058"><ele>318.0</ele><time>2026-05-01T13:35:38.505Z</time></trkpt><trkpt lat="43.540241" lon="12.6710941"><ele>317.0</ele><time>2026-05-01T13:35:39.505Z</time></trkpt><trkpt lat="43.5403184" lon="12.6710959"><ele>314.83333333333337</ele><time>2026-05-01T13:35:40.505Z</time></trkpt><trkpt lat="43.5403966" lon="12.6711275"><ele>312.6666666666667</ele><time>2026-05-01T13:35:41.505Z</time></trkpt><trkpt lat="43.5404597" lon="12.6712083"><ele>310.5</ele><time>2026-05-01T13:35:42.505Z</time></trkpt><trkpt lat="43.5404904" lon="12.6713056"><ele>308.3333333333333</ele><time>2026-05-01T13:35:43.505Z</time></trkpt><trkpt lat="43.5405167" lon="12.6713965"><ele>306.16666666666663</ele><time>2026-05-01T13:35:44.504Z</time></trkpt><trkpt lat="43.54061" lon="12.67149"><ele>304.0</ele><time>2026-05-01T13:35:46.505Z</time></trkpt><trkpt lat="43.5406731" lon="12.6714456"><ele>304.0</ele><time>2026-05-01T13:35:47.505Z</time></trkpt><trkpt lat="43.540736" lon="12.6713709"><ele>304.0</ele><time>2026-05-01T13:35:48.505Z</time></trkpt><trkpt lat="43.5407961" lon="12.6712909"><ele>304.0</ele><time>2026-05-01T13:35:49.505Z</time></trkpt><trkpt lat="43.5408547" lon="12.6711964"><ele>304.0</ele><time>2026-05-01T13:35:50.505Z</time></trkpt><trkpt lat="43.5409135" lon="12.6711078"><ele>304.0</ele><time>2026-05-01T13:35:51.505Z</time></trkpt><trkpt lat="43.5409732" lon="12.6710108"><ele>304.0</ele><time>2026-05-01T13:35:52.504Z</time></trkpt><trkpt lat="43.5410546" lon="12.6709014"><ele>304.25</ele><time>2026-05-01T13:35:53.505Z</time></trkpt><trkpt lat="43.5411431" lon="12.6707816"><ele>304.5</ele><time>2026-05-01T13:35:54.504Z</time></trkpt><trkpt lat="43.5412573" lon="12.6706757"><ele>304.75</ele><time>2026-05-01T13:35:55.505Z</time></trkpt><trkpt lat="43.541399" lon="12.6705738"><ele>305.0</ele><time>2026-05-01T13:35:56.505Z</time></trkpt><trkpt lat="43.5415306" lon="12.6704365"><ele>304.4</ele><time>2026-05-01T13:35:57.505Z</time></trkpt><trkpt lat="43.5416406" lon="12.6703103"><ele>303.8</ele><time>2026-05-01T13:35:58.505Z</time></trkpt><trkpt lat="43.541723" lon="12.6702195"><ele>303.2</ele><time>2026-05-01T13:35:59.505Z</time></trkpt><trkpt lat="43.5417818" lon="12.6701721"><ele>302.6</ele><time>2026-05-01T13:36:00.505Z</time></trkpt><trkpt lat="43.5418534" lon="12.6701153"><ele>302.0</ele><time>2026-05-01T13:36:02.505Z</time></trkpt><trkpt lat="43.5419208" lon="12.670118"><ele>302.0</ele><time>2026-05-01T13:36:05.505Z</time></trkpt><trkpt lat="43.5419919" lon="12.670051"><ele>302.0</ele><time>2026-05-01T13:36:12.504Z</time></trkpt><trkpt lat="43.5420512" lon="12.6699278"><ele>302.0</ele><time>2026-05-01T13:36:13.505Z</time></trkpt><trkpt lat="43.5421072" lon="12.6697947"><ele>302.0</ele><time>2026-05-01T13:36:14.505Z</time></trkpt><trkpt lat="43.5421644" lon="12.6696504"><ele>302.0</ele><time>2026-05-01T13:36:15.505Z</time></trkpt><trkpt lat="43.5422295" lon="12.6694818"><ele>302.6666666666667</ele><time>2026-05-01T13:36:16.505Z</time></trkpt><trkpt lat="43.5423069" lon="12.6692918"><ele>303.3333333333333</ele><time>2026-05-01T13:36:17.504Z</time></trkpt><trkpt lat="43.542383" lon="12.6690827"><ele>304.0</ele><time>2026-05-01T13:36:18.505Z</time></trkpt><trkpt lat="43.542446" lon="12.6688766"><ele>304.0</ele><time>2026-05-01T13:36:19.505Z</time></trkpt><trkpt lat="43.5424903" lon="12.6686919"><ele>304.0</ele><time>2026-05-01T13:36:20.505Z</time></trkpt><trkpt lat="43.542546" lon="12.6685064"><ele>304.0</ele><time>2026-05-01T13:36:21.505Z</time></trkpt><trkpt lat="43.5426024" lon="12.6683152"><ele>304.0</ele><time>2026-05-01T13:36:22.504Z</time></trkpt><trkpt lat="43.5426587" lon="12.6681083"><ele>304.0</ele><time>2026-05-01T13:36:23.505Z</time></trkpt><trkpt lat="43.5427082" lon="12.6678875"><ele>304.0</ele><time>2026-05-01T13:36:24.505Z</time></trkpt><trkpt lat="43.5427385" lon="12.6676574"><ele>304.0</ele><time>2026-05-01T13:36:25.504Z</time></trkpt><trkpt lat="43.5427596" lon="12.6674206"><ele>304.3333333333333</ele><time>2026-05-01T13:36:26.505Z</time></trkpt><trkpt lat="43.542778" lon="12.6671912"><ele>304.6666666666667</ele><time>2026-05-01T13:36:27.505Z</time></trkpt><trkpt lat="43.5428126" lon="12.6669782"><ele>305.0</ele><time>2026-05-01T13:36:28.505Z</time></trkpt><trkpt lat="43.5428629" lon="12.6667731"><ele>302.33333333333337</ele><time>2026-05-01T13:36:29.505Z</time></trkpt><trkpt lat="43.5429348" lon="12.6665792"><ele>299.6666666666667</ele><time>2026-05-01T13:36:30.505Z</time></trkpt><trkpt lat="43.5430166" lon="12.6663865"><ele>297.0</ele><time>2026-05-01T13:36:31.505Z</time></trkpt><trkpt lat="43.5431067" lon="12.6661894"><ele>298.3333333333333</ele><time>2026-05-01T13:36:32.505Z</time></trkpt><trkpt lat="43.5432023" lon="12.6659572"><ele>299.66666666666663</ele><time>2026-05-01T13:36:33.504Z</time></trkpt><trkpt lat="43.543284" lon="12.6656966"><ele>301.0</ele><time>2026-05-01T13:36:34.504Z</time></trkpt><trkpt lat="43.54336" lon="12.6654682"><ele>301.0</ele><time>2026-05-01T13:36:35.505Z</time></trkpt><trkpt lat="43.5434288" lon="12.6652461"><ele>301.0</ele><time>2026-05-01T13:36:36.504Z</time></trkpt><trkpt lat="43.5434909" lon="12.6650262"><ele>301.0</ele><time>2026-05-01T13:36:37.504Z</time></trkpt><trkpt lat="43.5435517" lon="12.6648083"><ele>301.0</ele><time>2026-05-01T13:36:38.504Z</time></trkpt><trkpt lat="43.543619" lon="12.6645953"><ele>301.0</ele><time>2026-05-01T13:36:39.505Z</time></trkpt><trkpt lat="43.543687" lon="12.6643924"><ele>301.0</ele><time>2026-05-01T13:36:40.505Z</time></trkpt><trkpt lat="43.543755" lon="12.6641934"><ele>299.25</ele><time>2026-05-01T13:36:41.504Z</time></trkpt><trkpt lat="43.5438254" lon="12.6640004"><ele>297.5</ele><time>2026-05-01T13:36:42.504Z</time></trkpt><trkpt lat="43.5438926" lon="12.663822"><ele>295.75</ele><time>2026-05-01T13:36:43.505Z</time></trkpt><trkpt lat="43.5439551" lon="12.6636646"><ele>294.0</ele><time>2026-05-01T13:36:44.505Z</time></trkpt><trkpt lat="43.5440103" lon="12.6635223"><ele>294.0</ele><time>2026-05-01T13:36:45.505Z</time></trkpt><trkpt lat="43.5440711" lon="12.6633686"><ele>294.0</ele><time>2026-05-01T13:36:46.504Z</time></trkpt><trkpt lat="43.544128" lon="12.6632265"><ele>294.0</ele><time>2026-05-01T13:36:47.505Z</time></trkpt><trkpt lat="43.5441759" lon="12.6630936"><ele>294.0</ele><time>2026-05-01T13:36:48.504Z</time></trkpt><trkpt lat="43.5442168" lon="12.6629799"><ele>294.0</ele><time>2026-05-01T13:36:49.504Z</time></trkpt><trkpt lat="43.5442643" lon="12.6628649"><ele>294.25</ele><time>2026-05-01T13:36:50.505Z</time></trkpt><trkpt lat="43.5443204" lon="12.6627259"><ele>294.5</ele><time>2026-05-01T13:36:51.505Z</time></trkpt><trkpt lat="43.5443824" lon="12.6625684"><ele>294.75</ele><time>2026-05-01T13:36:52.505Z</time></trkpt><trkpt lat="43.5444498" lon="12.6623975"><ele>295.0</ele><time>2026-05-01T13:36:53.504Z</time></trkpt><trkpt lat="43.5445203" lon="12.662227"><ele>292.75</ele><time>2026-05-01T13:36:54.505Z</time></trkpt><trkpt lat="43.544583" lon="12.6620535"><ele>290.5</ele><time>2026-05-01T13:36:55.505Z</time></trkpt><trkpt lat="43.5446473" lon="12.6618855"><ele>288.25</ele><time>2026-05-01T13:36:56.504Z</time></trkpt><trkpt lat="43.5447148" lon="12.6617168"><ele>286.0</ele><time>2026-05-01T13:36:57.505Z</time></trkpt><trkpt lat="43.5447782" lon="12.6615545"><ele>286.0</ele><time>2026-05-01T13:36:58.505Z</time></trkpt><trkpt lat="43.5448398" lon="12.6613983"><ele>286.0</ele><time>2026-05-01T13:36:59.505Z</time></trkpt><trkpt lat="43.5449047" lon="12.6612469"><ele>286.0</ele><time>2026-05-01T13:37:00.505Z</time></trkpt><trkpt lat="43.5449696" lon="12.6611002"><ele>286.0</ele><time>2026-05-01T13:37:01.505Z</time></trkpt><trkpt lat="43.5450383" lon="12.6609613"><ele>286.75</ele><time>2026-05-01T13:37:02.504Z</time></trkpt><trkpt lat="43.5451148" lon="12.6608349"><ele>287.5</ele><time>2026-05-01T13:37:03.505Z</time></trkpt><trkpt lat="43.5452004" lon="12.6607285"><ele>288.25</ele><time>2026-05-01T13:37:04.505Z</time></trkpt><trkpt lat="43.5452842" lon="12.6606321"><ele>289.0</ele><time>2026-05-01T13:37:05.504Z</time></trkpt><trkpt lat="43.5453725" lon="12.6605434"><ele>288.0</ele><time>2026-05-01T13:37:06.504Z</time></trkpt><trkpt lat="43.545453" lon="12.6604733"><ele>287.0</ele><time>2026-05-01T13:37:07.504Z</time></trkpt><trkpt lat="43.5455203" lon="12.6604151"><ele>286.0</ele><time>2026-05-01T13:37:08.505Z</time></trkpt><trkpt lat="43.5455707" lon="12.6603507"><ele>285.0</ele><time>2026-05-01T13:37:09.505Z</time></trkpt><trkpt lat="43.5456223" lon="12.6602802"><ele>284.0</ele><time>2026-05-01T13:37:10.504Z</time></trkpt><trkpt lat="43.5456758" lon="12.6602125"><ele>283.0</ele><time>2026-05-01T13:37:11.504Z</time></trkpt><trkpt lat="43.5457318" lon="12.6601721"><ele>283.0</ele><time>2026-05-01T13:37:12.505Z</time></trkpt><trkpt lat="43.5458018" lon="12.660128"><ele>283.0</ele><time>2026-05-01T13:37:13.505Z</time></trkpt><trkpt lat="43.5458701" lon="12.660068"><ele>283.0</ele><time>2026-05-01T13:37:14.505Z</time></trkpt><trkpt lat="43.5459279" lon="12.6599856"><ele>283.0</ele><time>2026-05-01T13:37:15.505Z</time></trkpt><trkpt lat="43.5459864" lon="12.6598891"><ele>283.0</ele><time>2026-05-01T13:37:16.505Z</time></trkpt><trkpt lat="43.5460431" lon="12.6597795"><ele>283.0</ele><time>2026-05-01T13:37:17.505Z</time></trkpt><trkpt lat="43.5461015" lon="12.6596522"><ele>283.0</ele><time>2026-05-01T13:37:18.505Z</time></trkpt><trkpt lat="43.5461525" lon="12.6595191"><ele>283.0</ele><time>2026-05-01T13:37:19.504Z</time></trkpt><trkpt lat="43.5462084" lon="12.6593749"><ele>283.0</ele><time>2026-05-01T13:37:20.505Z</time></trkpt><trkpt lat="43.5462625" lon="12.6592333"><ele>283.0</ele><time>2026-05-01T13:37:21.504Z</time></trkpt><trkpt lat="43.5463136" lon="12.6590814"><ele>282.75</ele><time>2026-05-01T13:37:22.505Z</time></trkpt><trkpt lat="43.5463613" lon="12.6589298"><ele>282.5</ele><time>2026-05-01T13:37:23.505Z</time></trkpt><trkpt lat="43.5464116" lon="12.658792"><ele>282.25</ele><time>2026-05-01T13:37:24.505Z</time></trkpt><trkpt lat="43.5464597" lon="12.6586517"><ele>282.0</ele><time>2026-05-01T13:37:25.505Z</time></trkpt><trkpt lat="43.5465094" lon="12.6585141"><ele>282.0</ele><time>2026-05-01T13:37:26.505Z</time></trkpt><trkpt lat="43.5465616" lon="12.6583768"><ele>282.0</ele><time>2026-05-01T13:37:27.505Z</time></trkpt><trkpt lat="43.5466084" lon="12.6582303"><ele>282.0</ele><time>2026-05-01T13:37:28.504Z</time></trkpt><trkpt lat="43.5466579" lon="12.658098"><ele>282.0</ele><time>2026-05-01T13:37:29.504Z</time></trkpt><trkpt lat="43.5467099" lon="12.6579618"><ele>282.0</ele><time>2026-05-01T13:37:30.504Z</time></trkpt><trkpt lat="43.5467601" lon="12.6578237"><ele>282.0</ele><time>2026-05-01T13:37:31.505Z</time></trkpt><trkpt lat="43.5468115" lon="12.6576851"><ele>282.0</ele><time>2026-05-01T13:37:32.505Z</time></trkpt><trkpt lat="43.5468603" lon="12.6575461"><ele>282.0</ele><time>2026-05-01T13:37:33.504Z</time></trkpt><trkpt lat="43.5469139" lon="12.6574023"><ele>282.0</ele><time>2026-05-01T13:37:34.504Z</time></trkpt><trkpt lat="43.5469574" lon="12.6572402"><ele>282.0</ele><time>2026-05-01T13:37:35.505Z</time></trkpt><trkpt lat="43.5469942" lon="12.6570708"><ele>282.0</ele><time>2026-05-01T13:37:36.505Z</time></trkpt><trkpt lat="43.5470165" lon="12.6569084"><ele>282.0</ele><time>2026-05-01T13:37:37.505Z</time></trkpt><trkpt lat="43.547033" lon="12.6567497"><ele>282.0</ele><time>2026-05-01T13:37:38.505Z</time></trkpt><trkpt lat="43.5470481" lon="12.6565855"><ele>281.25</ele><time>2026-05-01T13:37:39.505Z</time></trkpt><trkpt lat="43.5470518" lon="12.6564173"><ele>280.5</ele><time>2026-05-01T13:37:40.505Z</time></trkpt><trkpt lat="43.5470514" lon="12.6562451"><ele>279.75</ele><time>2026-05-01T13:37:41.505Z</time></trkpt><trkpt lat="43.5470417" lon="12.656065"><ele>279.0</ele><time>2026-05-01T13:37:42.505Z</time></trkpt><trkpt lat="43.5470218" lon="12.6558861"><ele>279.0</ele><time>2026-05-01T13:37:43.505Z</time></trkpt><trkpt lat="43.5469906" lon="12.6557124"><ele>279.0</ele><time>2026-05-01T13:37:44.505Z</time></trkpt><trkpt lat="43.5469538" lon="12.6555485"><ele>279.0</ele><time>2026-05-01T13:37:45.505Z</time></trkpt><trkpt lat="43.5469069" lon="12.6553903"><ele>279.0</ele><time>2026-05-01T13:37:46.505Z</time></trkpt><trkpt lat="43.5468472" lon="12.6552309"><ele>277.0</ele><time>2026-05-01T13:37:47.505Z</time></trkpt><trkpt lat="43.5467758" lon="12.6550754"><ele>275.0</ele><time>2026-05-01T13:37:48.504Z</time></trkpt><trkpt lat="43.5466994" lon="12.6549314"><ele>273.0</ele><time>2026-05-01T13:37:49.505Z</time></trkpt><trkpt lat="43.5466219" lon="12.6548"><ele>271.0</ele><time>2026-05-01T13:37:50.504Z</time></trkpt><trkpt lat="43.546543" lon="12.6546792"><ele>271.0</ele><time>2026-05-01T13:37:51.505Z</time></trkpt><trkpt lat="43.5464648" lon="12.654561"><ele>271.0</ele><time>2026-05-01T13:37:52.505Z</time></trkpt><trkpt lat="43.5463875" lon="12.6544416"><ele>271.0</ele><time>2026-05-01T13:37:53.505Z</time></trkpt><trkpt lat="43.5463081" lon="12.6543264"><ele>271.0</ele><time>2026-05-01T13:37:54.505Z</time></trkpt><trkpt lat="43.5462278" lon="12.6542196"><ele>272.2</ele><time>2026-05-01T13:37:55.505Z</time></trkpt><trkpt lat="43.5461483" lon="12.6541172"><ele>273.40000000000003</ele><time>2026-05-01T13:37:56.504Z</time></trkpt><trkpt lat="43.5460747" lon="12.6540169"><ele>274.6</ele><time>2026-05-01T13:37:57.505Z</time></trkpt><trkpt lat="43.5460012" lon="12.6539137"><ele>275.8</ele><time>2026-05-01T13:37:58.504Z</time></trkpt><trkpt lat="43.5459328" lon="12.6538153"><ele>277.0</ele><time>2026-05-01T13:37:59.505Z</time></trkpt><trkpt lat="43.5458657" lon="12.6537277"><ele>277.0</ele><time>2026-05-01T13:38:00.504Z</time></trkpt><trkpt lat="43.5458034" lon="12.6536416"><ele>277.0</ele><time>2026-05-01T13:38:01.504Z</time></trkpt><trkpt lat="43.5457362" lon="12.6535605"><ele>277.0</ele><time>2026-05-01T13:38:02.504Z</time></trkpt><trkpt lat="43.5456637" lon="12.6534728"><ele>277.0</ele><time>2026-05-01T13:38:03.505Z</time></trkpt><trkpt lat="43.5455847" lon="12.6533669"><ele>277.0</ele><time>2026-05-01T13:38:04.505Z</time></trkpt><trkpt lat="43.5455085" lon="12.6532528"><ele>276.4</ele><time>2026-05-01T13:38:05.505Z</time></trkpt><trkpt lat="43.5454408" lon="12.6531321"><ele>275.79999999999995</ele><time>2026-05-01T13:38:06.505Z</time></trkpt><trkpt lat="43.5453882" lon="12.6530041"><ele>275.2</ele><time>2026-05-01T13:38:07.505Z</time></trkpt><trkpt lat="43.5453471" lon="12.6528698"><ele>274.59999999999997</ele><time>2026-05-01T13:38:08.505Z</time></trkpt><trkpt lat="43.5453182" lon="12.6527382"><ele>274.0</ele><time>2026-05-01T13:38:09.505Z</time></trkpt><trkpt lat="43.5453091" lon="12.6526024"><ele>273.4</ele><time>2026-05-01T13:38:10.505Z</time></trkpt><trkpt lat="43.545319" lon="12.6524648"><ele>272.79999999999995</ele><time>2026-05-01T13:38:11.505Z</time></trkpt><trkpt lat="43.5453434" lon="12.6523275"><ele>272.20000000000005</ele><time>2026-05-01T13:38:12.504Z</time></trkpt><trkpt lat="43.5453798" lon="12.6521856"><ele>271.6</ele><time>2026-05-01T13:38:13.504Z</time></trkpt><trkpt lat="43.5454256" lon="12.6520383"><ele>271.0</ele><time>2026-05-01T13:38:14.505Z</time></trkpt><trkpt lat="43.5454769" lon="12.6518797"><ele>267.3333333333333</ele><time>2026-05-01T13:38:15.504Z</time></trkpt><trkpt lat="43.5455236" lon="12.651746"><ele>263.66666666666663</ele><time>2026-05-01T13:38:16.505Z</time></trkpt><trkpt lat="43.5455634" lon="12.6516266"><ele>260.0</ele><time>2026-05-01T13:38:17.505Z</time></trkpt><trkpt lat="43.5455976" lon="12.6515255"><ele>256.3333333333333</ele><time>2026-05-01T13:38:18.505Z</time></trkpt><trkpt lat="43.545633" lon="12.6514314"><ele>252.66666666666666</ele><time>2026-05-01T13:38:19.504Z</time></trkpt><trkpt lat="43.5456621" lon="12.6513426"><ele>249.0</ele><time>2026-05-01T13:38:20.505Z</time></trkpt><trkpt lat="43.5456922" lon="12.651252"><ele>249.0</ele><time>2026-05-01T13:38:21.504Z</time></trkpt><trkpt lat="43.5457121" lon="12.6511627"><ele>248.99999999999997</ele><time>2026-05-01T13:38:22.505Z</time></trkpt><trkpt lat="43.5457376" lon="12.6510684"><ele>249.0</ele><time>2026-05-01T13:38:23.505Z</time></trkpt><trkpt lat="43.5457634" lon="12.6509769"><ele>249.0</ele><time>2026-05-01T13:38:24.505Z</time></trkpt><trkpt lat="43.5457909" lon="12.6508968"><ele>248.99999999999997</ele><time>2026-05-01T13:38:25.505Z</time></trkpt><trkpt lat="43.5458351" lon="12.6507834"><ele>249.0</ele><time>2026-05-01T13:38:27.505Z</time></trkpt><trkpt lat="43.5458665" lon="12.6507067"><ele>249.0</ele><time>2026-05-01T13:38:58.505Z</time></trkpt><trkpt lat="43.5459007" lon="12.6506164"><ele>250.39999999999998</ele><time>2026-05-01T13:39:00.505Z</time></trkpt><trkpt lat="43.5459454" lon="12.6504864"><ele>251.79999999999998</ele><time>2026-05-01T13:39:02.505Z</time></trkpt><trkpt lat="43.5459244" lon="12.6503512"><ele>253.20000000000002</ele><time>2026-05-01T13:39:04.505Z</time></trkpt><trkpt lat="43.5458566" lon="12.6502781"><ele>254.60000000000002</ele><time>2026-05-01T13:39:05.504Z</time></trkpt><trkpt lat="43.5457784" lon="12.6502335"><ele>256.0</ele><time>2026-05-01T13:39:06.505Z</time></trkpt><trkpt lat="43.5456795" lon="12.6501866"><ele>256.2</ele><time>2026-05-01T13:39:07.505Z</time></trkpt><trkpt lat="43.5455927" lon="12.6501339"><ele>256.40000000000003</ele><time>2026-05-01T13:39:08.504Z</time></trkpt><trkpt lat="43.5454996" lon="12.6500836"><ele>256.6</ele><time>2026-05-01T13:39:09.505Z</time></trkpt><trkpt lat="43.5454023" lon="12.6500304"><ele>256.8</ele><time>2026-05-01T13:39:10.505Z</time></trkpt><trkpt lat="43.5453004" lon="12.649969"><ele>257.0</ele><time>2026-05-01T13:39:11.505Z</time></trkpt><trkpt lat="43.5451988" lon="12.6499019"><ele>257.0</ele><time>2026-05-01T13:39:12.504Z</time></trkpt><trkpt lat="43.5450955" lon="12.6498338"><ele>257.0</ele><time>2026-05-01T13:39:13.505Z</time></trkpt><trkpt lat="43.5449934" lon="12.649757"><ele>257.0</ele><time>2026-05-01T13:39:14.505Z</time></trkpt><trkpt lat="43.5449041" lon="12.6496674"><ele>257.0</ele><time>2026-05-01T13:39:15.505Z</time></trkpt><trkpt lat="43.544823" lon="12.6495579"><ele>260.0</ele><time>2026-05-01T13:39:16.505Z</time></trkpt><trkpt lat="43.544739" lon="12.6494473"><ele>263.0</ele><time>2026-05-01T13:39:17.504Z</time></trkpt><trkpt lat="43.544637" lon="12.6493738"><ele>266.0</ele><time>2026-05-01T13:39:18.505Z</time></trkpt><trkpt lat="43.5445161" lon="12.6493294"><ele>269.0</ele><time>2026-05-01T13:39:19.505Z</time></trkpt><trkpt lat="43.544387" lon="12.6493047"><ele>269.0</ele><time>2026-05-01T13:39:20.505Z</time></trkpt><trkpt lat="43.5442575" lon="12.64928"><ele>269.0</ele><time>2026-05-01T13:39:21.504Z</time></trkpt><trkpt lat="43.544119" lon="12.6492597"><ele>269.0</ele><time>2026-05-01T13:39:22.505Z</time></trkpt><trkpt lat="43.5439822" lon="12.6492342"><ele>269.0</ele><time>2026-05-01T13:39:23.505Z</time></trkpt><trkpt lat="43.5438465" lon="12.6491918"><ele>269.0</ele><time>2026-05-01T13:39:24.504Z</time></trkpt><trkpt lat="43.5437048" lon="12.6491442"><ele>269.0</ele><time>2026-05-01T13:39:25.504Z</time></trkpt><trkpt lat="43.543582" lon="12.6490865"><ele>269.0</ele><time>2026-05-01T13:39:26.505Z</time></trkpt><trkpt lat="43.5434861" lon="12.6490288"><ele>269.0</ele><time>2026-05-01T13:39:27.504Z</time></trkpt><trkpt lat="43.5434031" lon="12.6489801"><ele>269.0</ele><time>2026-05-01T13:39:28.505Z</time></trkpt><trkpt lat="43.5433415" lon="12.6489344"><ele>269.0</ele><time>2026-05-01T13:39:29.505Z</time></trkpt><trkpt lat="43.5433101" lon="12.648859"><ele>269.0</ele><time>2026-05-01T13:39:30.504Z</time></trkpt><trkpt lat="43.543299" lon="12.6487685"><ele>269.0</ele><time>2026-05-01T13:39:31.505Z</time></trkpt><trkpt lat="43.54332" lon="12.6486553"><ele>269.0</ele><time>2026-05-01T13:39:32.505Z</time></trkpt><trkpt lat="43.54335" lon="12.6485418"><ele>269.0</ele><time>2026-05-01T13:39:33.505Z</time></trkpt><trkpt lat="43.5433937" lon="12.6484245"><ele>269.8</ele><time>2026-05-01T13:39:34.505Z</time></trkpt><trkpt lat="43.5434374" lon="12.6483088"><ele>270.59999999999997</ele><time>2026-05-01T13:39:35.504Z</time></trkpt><trkpt lat="43.5434766" lon="12.6481868"><ele>271.4</ele><time>2026-05-01T13:39:36.505Z</time></trkpt><trkpt lat="43.5435145" lon="12.6480706"><ele>272.2</ele><time>2026-05-01T13:39:37.505Z</time></trkpt><trkpt lat="43.5435554" lon="12.6479584"><ele>273.0</ele><time>2026-05-01T13:39:38.504Z</time></trkpt><trkpt lat="43.5435929" lon="12.6478489"><ele>274.0</ele><time>2026-05-01T13:39:39.505Z</time></trkpt><trkpt lat="43.5436275" lon="12.6477316"><ele>275.0</ele><time>2026-05-01T13:39:40.505Z</time></trkpt><trkpt lat="43.5436634" lon="12.6476025"><ele>276.0</ele><time>2026-05-01T13:39:41.504Z</time></trkpt><trkpt lat="43.5437025" lon="12.647466"><ele>277.0</ele><time>2026-05-01T13:39:42.505Z</time></trkpt><trkpt lat="43.5437523" lon="12.6473479"><ele>278.0</ele><time>2026-05-01T13:39:43.505Z</time></trkpt><trkpt lat="43.5438198" lon="12.6472338"><ele>278.6</ele><time>2026-05-01T13:39:44.505Z</time></trkpt><trkpt lat="43.5439088" lon="12.6471691"><ele>279.20000000000005</ele><time>2026-05-01T13:39:45.505Z</time></trkpt><trkpt lat="43.5440073" lon="12.6471165"><ele>279.8</ele><time>2026-05-01T13:39:46.505Z</time></trkpt><trkpt lat="43.5441179" lon="12.6470779"><ele>280.40000000000003</ele><time>2026-05-01T13:39:47.505Z</time></trkpt><trkpt lat="43.5442319" lon="12.6470307"><ele>281.0</ele><time>2026-05-01T13:39:48.505Z</time></trkpt><trkpt lat="43.5443396" lon="12.6469758"><ele>282.8</ele><time>2026-05-01T13:39:49.505Z</time></trkpt><trkpt lat="43.5444455" lon="12.6469303"><ele>284.6</ele><time>2026-05-01T13:39:50.505Z</time></trkpt><trkpt lat="43.5445504" lon="12.6468855"><ele>286.4</ele><time>2026-05-01T13:39:51.505Z</time></trkpt><trkpt lat="43.5446578" lon="12.6468365"><ele>288.2</ele><time>2026-05-01T13:39:52.505Z</time></trkpt><trkpt lat="43.5447588" lon="12.6467952"><ele>290.0</ele><time>2026-05-01T13:39:53.505Z</time></trkpt><trkpt lat="43.5448593" lon="12.6467432"><ele>290.0</ele><time>2026-05-01T13:39:54.505Z</time></trkpt><trkpt lat="43.5449583" lon="12.6466939"><ele>290.0</ele><time>2026-05-01T13:39:55.505Z</time></trkpt><trkpt lat="43.5450622" lon="12.6466516"><ele>290.0</ele><time>2026-05-01T13:39:56.505Z</time></trkpt><trkpt lat="43.545173" lon="12.6466053"><ele>290.0</ele><time>2026-05-01T13:39:57.504Z</time></trkpt><trkpt lat="43.5452757" lon="12.6465764"><ele>290.0</ele><time>2026-05-01T13:39:58.504Z</time></trkpt><trkpt lat="43.5453794" lon="12.6465388"><ele>288.4</ele><time>2026-05-01T13:39:59.505Z</time></trkpt><trkpt lat="43.5454818" lon="12.6464947"><ele>286.8</ele><time>2026-05-01T13:40:00.505Z</time></trkpt><trkpt lat="43.5455778" lon="12.6464594"><ele>285.2</ele><time>2026-05-01T13:40:01.505Z</time></trkpt><trkpt lat="43.5456599" lon="12.6464158"><ele>283.6</ele><time>2026-05-01T13:40:02.505Z</time></trkpt><trkpt lat="43.5457408" lon="12.6463889"><ele>282.0</ele><time>2026-05-01T13:40:03.505Z</time></trkpt><trkpt lat="43.5458149" lon="12.6463628"><ele>282.0</ele><time>2026-05-01T13:40:04.505Z</time></trkpt><trkpt lat="43.5458856" lon="12.6463397"><ele>282.0</ele><time>2026-05-01T13:40:05.505Z</time></trkpt><trkpt lat="43.5459563" lon="12.6463002"><ele>282.0</ele><time>2026-05-01T13:40:06.505Z</time></trkpt><trkpt lat="43.5460173" lon="12.646218"><ele>282.0</ele><time>2026-05-01T13:40:07.505Z</time></trkpt><trkpt lat="43.5460488" lon="12.6460956"><ele>282.0</ele><time>2026-05-01T13:40:08.505Z</time></trkpt><trkpt lat="43.5460515" lon="12.6459367"><ele>282.0</ele><time>2026-05-01T13:40:09.505Z</time></trkpt><trkpt lat="43.5460295" lon="12.6457406"><ele>281.5</ele><time>2026-05-01T13:40:10.505Z</time></trkpt><trkpt lat="43.5460054" lon="12.645556"><ele>281.0</ele><time>2026-05-01T13:40:11.505Z</time></trkpt><trkpt lat="43.5459812" lon="12.6453867"><ele>280.5</ele><time>2026-05-01T13:40:12.505Z</time></trkpt><trkpt lat="43.5459449" lon="12.6452164"><ele>280.0</ele><time>2026-05-01T13:40:13.505Z</time></trkpt><trkpt lat="43.545896" lon="12.645055"><ele>280.0</ele><time>2026-05-01T13:40:14.504Z</time></trkpt><trkpt lat="43.5458382" lon="12.6449027"><ele>280.0</ele><time>2026-05-01T13:40:15.505Z</time></trkpt><trkpt lat="43.545783" lon="12.6447622"><ele>280.0</ele><time>2026-05-01T13:40:16.505Z</time></trkpt><trkpt lat="43.5457213" lon="12.6446256"><ele>280.0</ele><time>2026-05-01T13:40:17.505Z</time></trkpt><trkpt lat="43.5456419" lon="12.6444896"><ele>278.0</ele><time>2026-05-01T13:40:18.505Z</time></trkpt><trkpt lat="43.5455577" lon="12.6443454"><ele>276.0</ele><time>2026-05-01T13:40:19.505Z</time></trkpt><trkpt lat="43.5454746" lon="12.6441993"><ele>274.0</ele><time>2026-05-01T13:40:20.505Z</time></trkpt><trkpt lat="43.5453851" lon="12.6440528"><ele>272.0</ele><time>2026-05-01T13:40:21.505Z</time></trkpt><trkpt lat="43.5452935" lon="12.6438971"><ele>274.33333333333337</ele><time>2026-05-01T13:40:22.505Z</time></trkpt><trkpt lat="43.5451962" lon="12.6437423"><ele>276.6666666666667</ele><time>2026-05-01T13:40:23.505Z</time></trkpt><trkpt lat="43.5450837" lon="12.6435538"><ele>279.0</ele><time>2026-05-01T13:40:24.505Z</time></trkpt><trkpt lat="43.5449556" lon="12.6433393"><ele>279.0</ele><time>2026-05-01T13:40:25.505Z</time></trkpt><trkpt lat="43.5448249" lon="12.6431131"><ele>279.0</ele><time>2026-05-01T13:40:26.505Z</time></trkpt><trkpt lat="43.5447025" lon="12.6429137"><ele>279.0</ele><time>2026-05-01T13:40:27.505Z</time></trkpt><trkpt lat="43.5445756" lon="12.6427081"><ele>283.3333333333333</ele><time>2026-05-01T13:40:28.505Z</time></trkpt><trkpt lat="43.5444487" lon="12.6425005"><ele>287.66666666666663</ele><time>2026-05-01T13:40:29.505Z</time></trkpt><trkpt lat="43.5443308" lon="12.642311"><ele>292.0</ele><time>2026-05-01T13:40:30.505Z</time></trkpt><trkpt lat="43.5442082" lon="12.6421196"><ele>288.66666666666663</ele><time>2026-05-01T13:40:31.505Z</time></trkpt><trkpt lat="43.5440915" lon="12.6419336"><ele>285.3333333333333</ele><time>2026-05-01T13:40:32.504Z</time></trkpt><trkpt lat="43.5439848" lon="12.6417527"><ele>282.0</ele><time>2026-05-01T13:40:33.505Z</time></trkpt><trkpt lat="43.5438806" lon="12.6415906"><ele>282.0</ele><time>2026-05-01T13:40:34.504Z</time></trkpt><trkpt lat="43.543777" lon="12.6414381"><ele>282.0</ele><time>2026-05-01T13:40:35.504Z</time></trkpt><trkpt lat="43.5436753" lon="12.6412884"><ele>282.0</ele><time>2026-05-01T13:40:36.505Z</time></trkpt><trkpt lat="43.5435675" lon="12.6411254"><ele>283.0</ele><time>2026-05-01T13:40:37.505Z</time></trkpt><trkpt lat="43.5434492" lon="12.64096"><ele>284.0</ele><time>2026-05-01T13:40:38.504Z</time></trkpt><trkpt lat="43.5433236" lon="12.6407942"><ele>285.0</ele><time>2026-05-01T13:40:39.504Z</time></trkpt><trkpt lat="43.5431789" lon="12.6406292"><ele>285.0</ele><time>2026-05-01T13:40:40.505Z</time></trkpt><trkpt lat="43.5430104" lon="12.6404638"><ele>285.0</ele><time>2026-05-01T13:40:41.504Z</time></trkpt><trkpt lat="43.5428482" lon="12.6403139"><ele>285.0</ele><time>2026-05-01T13:40:42.505Z</time></trkpt><trkpt lat="43.5426806" lon="12.640174"><ele>282.6666666666667</ele><time>2026-05-01T13:40:43.505Z</time></trkpt><trkpt lat="43.5425098" lon="12.640039"><ele>280.33333333333337</ele><time>2026-05-01T13:40:44.505Z</time></trkpt><trkpt lat="43.5423313" lon="12.6399054"><ele>278.0</ele><time>2026-05-01T13:40:45.505Z</time></trkpt><trkpt lat="43.5421552" lon="12.6397885"><ele>278.0</ele><time>2026-05-01T13:40:46.505Z</time></trkpt><trkpt lat="43.5419905" lon="12.6396782"><ele>278.0</ele><time>2026-05-01T13:40:47.505Z</time></trkpt><trkpt lat="43.5418246" lon="12.6395719"><ele>278.0</ele><time>2026-05-01T13:40:48.505Z</time></trkpt><trkpt lat="43.5416526" lon="12.639458"><ele>278.0</ele><time>2026-05-01T13:40:49.505Z</time></trkpt><trkpt lat="43.5414724" lon="12.6393461"><ele>278.0</ele><time>2026-05-01T13:40:50.505Z</time></trkpt><trkpt lat="43.5413014" lon="12.6392341"><ele>278.0</ele><time>2026-05-01T13:40:51.505Z</time></trkpt><trkpt lat="43.5411217" lon="12.6391178"><ele>281.0</ele><time>2026-05-01T13:40:52.505Z</time></trkpt><trkpt lat="43.5409589" lon="12.6390169"><ele>284.0</ele><time>2026-05-01T13:40:53.505Z</time></trkpt><trkpt lat="43.5407989" lon="12.6389102"><ele>287.0</ele><time>2026-05-01T13:40:54.504Z</time></trkpt><trkpt lat="43.5406377" lon="12.6388062"><ele>287.0</ele><time>2026-05-01T13:40:55.505Z</time></trkpt><trkpt lat="43.5404804" lon="12.638701"><ele>287.0</ele><time>2026-05-01T13:40:56.504Z</time></trkpt><trkpt lat="43.5403258" lon="12.6385931"><ele>287.0</ele><time>2026-05-01T13:40:57.505Z</time></trkpt><trkpt lat="43.5401724" lon="12.6384903"><ele>285.6666666666667</ele><time>2026-05-01T13:40:58.505Z</time></trkpt><trkpt lat="43.5400181" lon="12.6383993"><ele>284.3333333333333</ele><time>2026-05-01T13:40:59.505Z</time></trkpt><trkpt lat="43.5398547" lon="12.6383256"><ele>283.0</ele><time>2026-05-01T13:41:00.504Z</time></trkpt><trkpt lat="43.5396734" lon="12.6382819"><ele>288.0</ele><time>2026-05-01T13:41:01.505Z</time></trkpt><trkpt lat="43.539504" lon="12.6382569"><ele>293.0</ele><time>2026-05-01T13:41:02.505Z</time></trkpt><trkpt lat="43.5393525" lon="12.6382361"><ele>298.0</ele><time>2026-05-01T13:41:03.505Z</time></trkpt><trkpt lat="43.5392079" lon="12.6382023"><ele>298.0</ele><time>2026-05-01T13:41:04.505Z</time></trkpt><trkpt lat="43.5390631" lon="12.6381394"><ele>298.0</ele><time>2026-05-01T13:41:05.505Z</time></trkpt><trkpt lat="43.5389355" lon="12.6380409"><ele>298.0</ele><time>2026-05-01T13:41:06.504Z</time></trkpt><trkpt lat="43.5388245" lon="12.637901"><ele>298.0</ele><time>2026-05-01T13:41:07.504Z</time></trkpt><trkpt lat="43.5387353" lon="12.6377372"><ele>306.3333333333333</ele><time>2026-05-01T13:41:08.505Z</time></trkpt><trkpt lat="43.5386664" lon="12.6375436"><ele>314.6666666666667</ele><time>2026-05-01T13:41:09.505Z</time></trkpt><trkpt lat="43.5386234" lon="12.6373227"><ele>323.0</ele><time>2026-05-01T13:41:10.505Z</time></trkpt><trkpt lat="43.5386065" lon="12.6370793"><ele>323.6666666666667</ele><time>2026-05-01T13:41:11.505Z</time></trkpt><trkpt lat="43.53863" lon="12.6368436"><ele>324.3333333333333</ele><time>2026-05-01T13:41:12.505Z</time></trkpt><trkpt lat="43.5386874" lon="12.63663"><ele>325.0</ele><time>2026-05-01T13:41:13.504Z</time></trkpt><trkpt lat="43.5387809" lon="12.6364353"><ele>316.0</ele><time>2026-05-01T13:41:14.505Z</time></trkpt><trkpt lat="43.538893" lon="12.6362499"><ele>307.0</ele><time>2026-05-01T13:41:15.505Z</time></trkpt><trkpt lat="43.5389859" lon="12.6360598"><ele>298.0</ele><time>2026-05-01T13:41:16.505Z</time></trkpt><trkpt lat="43.5390937" lon="12.6358722"><ele>298.0</ele><time>2026-05-01T13:41:17.505Z</time></trkpt><trkpt lat="43.5392013" lon="12.6356726"><ele>298.0</ele><time>2026-05-01T13:41:18.505Z</time></trkpt><trkpt lat="43.5393025" lon="12.6354397"><ele>298.0</ele><time>2026-05-01T13:41:19.504Z</time></trkpt><trkpt lat="43.5394045" lon="12.6351857"><ele>298.3333333333333</ele><time>2026-05-01T13:41:20.505Z</time></trkpt><trkpt lat="43.539508" lon="12.6349073"><ele>298.6666666666667</ele><time>2026-05-01T13:41:21.504Z</time></trkpt><trkpt lat="43.5396102" lon="12.6346368"><ele>299.0</ele><time>2026-05-01T13:41:22.505Z</time></trkpt><trkpt lat="43.5397074" lon="12.6343907"><ele>299.0</ele><time>2026-05-01T13:41:23.505Z</time></trkpt><trkpt lat="43.5398071" lon="12.6341737"><ele>299.0</ele><time>2026-05-01T13:41:24.505Z</time></trkpt><trkpt lat="43.5399137" lon="12.6339851"><ele>299.0</ele><time>2026-05-01T13:41:25.504Z</time></trkpt><trkpt lat="43.5400105" lon="12.6338189"><ele>299.0</ele><time>2026-05-01T13:41:26.505Z</time></trkpt><trkpt lat="43.5401007" lon="12.6336453"><ele>299.0</ele><time>2026-05-01T13:41:27.505Z</time></trkpt><trkpt lat="43.5401879" lon="12.6334568"><ele>299.0</ele><time>2026-05-01T13:41:28.504Z</time></trkpt><trkpt lat="43.5402623" lon="12.6332485"><ele>295.33333333333337</ele><time>2026-05-01T13:41:29.505Z</time></trkpt><trkpt lat="43.5403304" lon="12.6330078"><ele>291.6666666666667</ele><time>2026-05-01T13:41:30.505Z</time></trkpt><trkpt lat="43.5403918" lon="12.6327704"><ele>288.0</ele><time>2026-05-01T13:41:31.505Z</time></trkpt><trkpt lat="43.5404502" lon="12.6325395"><ele>288.0</ele><time>2026-05-01T13:41:32.505Z</time></trkpt><trkpt lat="43.5405051" lon="12.632328"><ele>288.0</ele><time>2026-05-01T13:41:33.505Z</time></trkpt><trkpt lat="43.5405591" lon="12.6321313"><ele>288.0</ele><time>2026-05-01T13:41:34.505Z</time></trkpt><trkpt lat="43.5406343" lon="12.6319478"><ele>292.6666666666667</ele><time>2026-05-01T13:41:35.505Z</time></trkpt><trkpt lat="43.5407338" lon="12.6317727"><ele>297.33333333333337</ele><time>2026-05-01T13:41:36.505Z</time></trkpt><trkpt lat="43.5408588" lon="12.6315898"><ele>302.0</ele><time>2026-05-01T13:41:37.505Z</time></trkpt><trkpt lat="43.5409875" lon="12.6313907"><ele>302.0</ele><time>2026-05-01T13:41:38.504Z</time></trkpt><trkpt lat="43.541121" lon="12.6311875"><ele>302.0</ele><time>2026-05-01T13:41:39.505Z</time></trkpt><trkpt lat="43.5412535" lon="12.6309703"><ele>302.0</ele><time>2026-05-01T13:41:40.505Z</time></trkpt><trkpt lat="43.5413854" lon="12.6307382"><ele>304.6666666666667</ele><time>2026-05-01T13:41:41.504Z</time></trkpt><trkpt lat="43.5415022" lon="12.6304929"><ele>307.3333333333333</ele><time>2026-05-01T13:41:42.505Z</time></trkpt><trkpt lat="43.5416106" lon="12.6302426"><ele>310.0</ele><time>2026-05-01T13:41:43.504Z</time></trkpt><trkpt lat="43.5417073" lon="12.6299907"><ele>310.0</ele><time>2026-05-01T13:41:44.504Z</time></trkpt><trkpt lat="43.5418035" lon="12.6297623"><ele>310.0</ele><time>2026-05-01T13:41:45.505Z</time></trkpt><trkpt lat="43.5419021" lon="12.6295304"><ele>310.0</ele><time>2026-05-01T13:41:46.505Z</time></trkpt><trkpt lat="43.5419797" lon="12.6293061"><ele>303.0</ele><time>2026-05-01T13:41:47.504Z</time></trkpt><trkpt lat="43.5420602" lon="12.6291003"><ele>296.0</ele><time>2026-05-01T13:41:48.505Z</time></trkpt><trkpt lat="43.5421375" lon="12.6289081"><ele>289.0</ele><time>2026-05-01T13:41:49.504Z</time></trkpt><trkpt lat="43.5422209" lon="12.6287242"><ele>295.3333333333333</ele><time>2026-05-01T13:41:50.505Z</time></trkpt><trkpt lat="43.5423203" lon="12.6285486"><ele>301.6666666666667</ele><time>2026-05-01T13:41:51.504Z</time></trkpt><trkpt lat="43.5424401" lon="12.6283875"><ele>308.0</ele><time>2026-05-01T13:41:52.505Z</time></trkpt><trkpt lat="43.5425815" lon="12.6282415"><ele>308.0</ele><time>2026-05-01T13:41:53.505Z</time></trkpt><trkpt lat="43.5427465" lon="12.6281143"><ele>308.0</ele><time>2026-05-01T13:41:54.504Z</time></trkpt><trkpt lat="43.5429298" lon="12.6280037"><ele>308.0</ele><time>2026-05-01T13:41:55.505Z</time></trkpt><trkpt lat="43.5431111" lon="12.6279093"><ele>312.0</ele><time>2026-05-01T13:41:56.505Z</time></trkpt><trkpt lat="43.5432849" lon="12.6278261"><ele>316.0</ele><time>2026-05-01T13:41:57.505Z</time></trkpt><trkpt lat="43.5434556" lon="12.627798"><ele>320.0</ele><time>2026-05-01T13:41:58.505Z</time></trkpt><trkpt lat="43.5436249" lon="12.627793"><ele>307.6666666666667</ele><time>2026-05-01T13:41:59.504Z</time></trkpt><trkpt lat="43.5437822" lon="12.6278281"><ele>295.3333333333333</ele><time>2026-05-01T13:42:00.504Z</time></trkpt><trkpt lat="43.5439321" lon="12.6278672"><ele>283.0</ele><time>2026-05-01T13:42:01.505Z</time></trkpt><trkpt lat="43.5440761" lon="12.6278911"><ele>283.0</ele><time>2026-05-01T13:42:02.505Z</time></trkpt><trkpt lat="43.5442165" lon="12.6278752"><ele>283.0</ele><time>2026-05-01T13:42:03.505Z</time></trkpt><trkpt lat="43.5443616" lon="12.6277811"><ele>283.0</ele><time>2026-05-01T13:42:04.505Z</time></trkpt><trkpt lat="43.5444984" lon="12.6276343"><ele>285.66666666666663</ele><time>2026-05-01T13:42:05.505Z</time></trkpt><trkpt lat="43.5446264" lon="12.6274392"><ele>288.3333333333333</ele><time>2026-05-01T13:42:06.505Z</time></trkpt><trkpt lat="43.5447544" lon="12.6272495"><ele>291.0</ele><time>2026-05-01T13:42:07.505Z</time></trkpt><trkpt lat="43.5448973" lon="12.6270982"><ele>296.0</ele><time>2026-05-01T13:42:08.505Z</time></trkpt><trkpt lat="43.5450339" lon="12.6269461"><ele>301.0</ele><time>2026-05-01T13:42:09.505Z</time></trkpt><trkpt lat="43.5451851" lon="12.6268048"><ele>306.0</ele><time>2026-05-01T13:42:10.505Z</time></trkpt><trkpt lat="43.5453459" lon="12.6266686"><ele>300.6666666666667</ele><time>2026-05-01T13:42:11.505Z</time></trkpt><trkpt lat="43.5455212" lon="12.6265221"><ele>295.33333333333337</ele><time>2026-05-01T13:42:12.504Z</time></trkpt><trkpt lat="43.5457069" lon="12.6263773"><ele>290.0</ele><time>2026-05-01T13:42:13.505Z</time></trkpt><trkpt lat="43.5458954" lon="12.6262417"><ele>291.6666666666667</ele><time>2026-05-01T13:42:14.505Z</time></trkpt><trkpt lat="43.5460773" lon="12.6261158"><ele>293.3333333333333</ele><time>2026-05-01T13:42:15.505Z</time></trkpt><trkpt lat="43.5462393" lon="12.6260083"><ele>295.0</ele><time>2026-05-01T13:42:16.504Z</time></trkpt><trkpt lat="43.5464143" lon="12.6259042"><ele>295.0</ele><time>2026-05-01T13:42:17.505Z</time></trkpt><trkpt lat="43.5465796" lon="12.6258097"><ele>295.0</ele><time>2026-05-01T13:42:18.505Z</time></trkpt><trkpt lat="43.5467624" lon="12.625731"><ele>295.0</ele><time>2026-05-01T13:42:19.505Z</time></trkpt><trkpt lat="43.54696" lon="12.625659"><ele>292.66666666666663</ele><time>2026-05-01T13:42:20.505Z</time></trkpt><trkpt lat="43.547169" lon="12.6255939"><ele>290.3333333333333</ele><time>2026-05-01T13:42:21.505Z</time></trkpt><trkpt lat="43.5473793" lon="12.6255463"><ele>288.0</ele><time>2026-05-01T13:42:22.505Z</time></trkpt><trkpt lat="43.5475767" lon="12.6255037"><ele>288.0</ele><time>2026-05-01T13:42:23.505Z</time></trkpt><trkpt lat="43.5477709" lon="12.6254525"><ele>288.0</ele><time>2026-05-01T13:42:24.505Z</time></trkpt><trkpt lat="43.5479648" lon="12.6254007"><ele>288.0</ele><time>2026-05-01T13:42:25.504Z</time></trkpt><trkpt lat="43.5481567" lon="12.6253538"><ele>293.3333333333333</ele><time>2026-05-01T13:42:26.505Z</time></trkpt><trkpt lat="43.5483456" lon="12.6253074"><ele>298.66666666666663</ele><time>2026-05-01T13:42:27.505Z</time></trkpt><trkpt lat="43.5485278" lon="12.6252643"><ele>304.0</ele><time>2026-05-01T13:42:28.505Z</time></trkpt><trkpt lat="43.5487044" lon="12.6252447"><ele>302.3333333333333</ele><time>2026-05-01T13:42:29.504Z</time></trkpt><trkpt lat="43.5488679" lon="12.6252018"><ele>300.6666666666667</ele><time>2026-05-01T13:42:30.505Z</time></trkpt><trkpt lat="43.5490293" lon="12.6251639"><ele>299.0</ele><time>2026-05-01T13:42:31.505Z</time></trkpt><trkpt lat="43.5491771" lon="12.6251117"><ele>299.0</ele><time>2026-05-01T13:42:32.505Z</time></trkpt><trkpt lat="43.5493226" lon="12.62502"><ele>299.0</ele><time>2026-05-01T13:42:33.505Z</time></trkpt><trkpt lat="43.5494481" lon="12.6248823"><ele>299.0</ele><time>2026-05-01T13:42:34.504Z</time></trkpt><trkpt lat="43.5495504" lon="12.6246991"><ele>298.33333333333337</ele><time>2026-05-01T13:42:35.505Z</time></trkpt><trkpt lat="43.5496441" lon="12.6244836"><ele>297.6666666666667</ele><time>2026-05-01T13:42:36.505Z</time></trkpt><trkpt lat="43.5496925" lon="12.6242727"><ele>297.0</ele><time>2026-05-01T13:42:37.505Z</time></trkpt><trkpt lat="43.5496967" lon="12.6240568"><ele>297.0</ele><time>2026-05-01T13:42:38.504Z</time></trkpt><trkpt lat="43.5496702" lon="12.6238407"><ele>297.0</ele><time>2026-05-01T13:42:39.505Z</time></trkpt><trkpt lat="43.5496132" lon="12.6236172"><ele>297.0</ele><time>2026-05-01T13:42:40.504Z</time></trkpt><trkpt lat="43.5495118" lon="12.623373"><ele>300.0</ele><time>2026-05-01T13:42:41.505Z</time></trkpt><trkpt lat="43.5494093" lon="12.6231282"><ele>303.0</ele><time>2026-05-01T13:42:42.505Z</time></trkpt><trkpt lat="43.5493062" lon="12.6228813"><ele>306.0</ele><time>2026-05-01T13:42:43.504Z</time></trkpt><trkpt lat="43.549197" lon="12.6226481"><ele>306.0</ele><time>2026-05-01T13:42:44.505Z</time></trkpt><trkpt lat="43.5490962" lon="12.6224224"><ele>306.0</ele><time>2026-05-01T13:42:45.504Z</time></trkpt><trkpt lat="43.548996" lon="12.6222015"><ele>306.0</ele><time>2026-05-01T13:42:46.505Z</time></trkpt><trkpt lat="43.5488845" lon="12.6219932"><ele>308.0</ele><time>2026-05-01T13:42:47.505Z</time></trkpt><trkpt lat="43.5487626" lon="12.6218152"><ele>310.0</ele><time>2026-05-01T13:42:48.504Z</time></trkpt><trkpt lat="43.5485913" lon="12.6216558"><ele>312.0</ele><time>2026-05-01T13:42:49.505Z</time></trkpt><trkpt lat="43.548439" lon="12.6215203"><ele>312.0</ele><time>2026-05-01T13:42:50.505Z</time></trkpt><trkpt lat="43.5482931" lon="12.6213856"><ele>312.0</ele><time>2026-05-01T13:42:51.505Z</time></trkpt><trkpt lat="43.5481491" lon="12.6212597"><ele>312.0</ele><time>2026-05-01T13:42:52.505Z</time></trkpt><trkpt lat="43.5480177" lon="12.6211363"><ele>308.0</ele><time>2026-05-01T13:42:53.505Z</time></trkpt><trkpt lat="43.5479084" lon="12.6210031"><ele>304.0</ele><time>2026-05-01T13:42:54.505Z</time></trkpt><trkpt lat="43.5478197" lon="12.6208362"><ele>300.0</ele><time>2026-05-01T13:42:55.505Z</time></trkpt><trkpt lat="43.5477513" lon="12.6206464"><ele>296.0</ele><time>2026-05-01T13:42:56.504Z</time></trkpt><trkpt lat="43.5476974" lon="12.6204386"><ele>304.6666666666667</ele><time>2026-05-01T13:42:57.505Z</time></trkpt><trkpt lat="43.5476601" lon="12.6202123"><ele>313.3333333333333</ele><time>2026-05-01T13:42:58.505Z</time></trkpt><trkpt lat="43.5476336" lon="12.6199934"><ele>322.0</ele><time>2026-05-01T13:42:59.504Z</time></trkpt><trkpt lat="43.5476228" lon="12.6197608"><ele>322.0</ele><time>2026-05-01T13:43:00.505Z</time></trkpt><trkpt lat="43.5476469" lon="12.6195135"><ele>322.0</ele><time>2026-05-01T13:43:01.505Z</time></trkpt><trkpt lat="43.5476937" lon="12.6192269"><ele>322.0</ele><time>2026-05-01T13:43:02.505Z</time></trkpt><trkpt lat="43.5477552" lon="12.6189499"><ele>320.66666666666663</ele><time>2026-05-01T13:43:03.505Z</time></trkpt><trkpt lat="43.5478109" lon="12.6187161"><ele>319.3333333333333</ele><time>2026-05-01T13:43:04.505Z</time></trkpt><trkpt lat="43.5478554" lon="12.6185076"><ele>318.0</ele><time>2026-05-01T13:43:05.505Z</time></trkpt><trkpt lat="43.5479367" lon="12.618321"><ele>312.3333333333333</ele><time>2026-05-01T13:43:06.504Z</time></trkpt><trkpt lat="43.5480278" lon="12.6181615"><ele>306.66666666666663</ele><time>2026-05-01T13:43:07.505Z</time></trkpt><trkpt lat="43.5481492" lon="12.6180295"><ele>301.0</ele><time>2026-05-01T13:43:08.504Z</time></trkpt><trkpt lat="43.5482884" lon="12.6179201"><ele>301.0</ele><time>2026-05-01T13:43:09.505Z</time></trkpt><trkpt lat="43.5484407" lon="12.6178196"><ele>301.0</ele><time>2026-05-01T13:43:10.505Z</time></trkpt><trkpt lat="43.5486021" lon="12.6177151"><ele>301.0</ele><time>2026-05-01T13:43:11.505Z</time></trkpt><trkpt lat="43.5487583" lon="12.6176135"><ele>300.66666666666663</ele><time>2026-05-01T13:43:12.505Z</time></trkpt><trkpt lat="43.5489007" lon="12.6175002"><ele>300.3333333333333</ele><time>2026-05-01T13:43:13.505Z</time></trkpt><trkpt lat="43.5490082" lon="12.6173891"><ele>300.0</ele><time>2026-05-01T13:43:14.505Z</time></trkpt><trkpt lat="43.5491098" lon="12.6172082"><ele>300.0</ele><time>2026-05-01T13:43:15.504Z</time></trkpt><trkpt lat="43.5491992" lon="12.6170174"><ele>300.0</ele><time>2026-05-01T13:43:16.505Z</time></trkpt><trkpt lat="43.549293" lon="12.6168204"><ele>300.0</ele><time>2026-05-01T13:43:17.505Z</time></trkpt><trkpt lat="43.5493857" lon="12.616625"><ele>300.6666666666667</ele><time>2026-05-01T13:43:18.505Z</time></trkpt><trkpt lat="43.5494808" lon="12.6164431"><ele>301.33333333333337</ele><time>2026-05-01T13:43:19.504Z</time></trkpt><trkpt lat="43.5495732" lon="12.6162589"><ele>302.0</ele><time>2026-05-01T13:43:20.504Z</time></trkpt><trkpt lat="43.549665" lon="12.6160671"><ele>302.0</ele><time>2026-05-01T13:43:21.504Z</time></trkpt><trkpt lat="43.5497538" lon="12.6158752"><ele>302.0</ele><time>2026-05-01T13:43:22.505Z</time></trkpt><trkpt lat="43.5498356" lon="12.6156829"><ele>302.0</ele><time>2026-05-01T13:43:23.505Z</time></trkpt><trkpt lat="43.5499157" lon="12.6154855"><ele>303.0</ele><time>2026-05-01T13:43:24.505Z</time></trkpt><trkpt lat="43.5499846" lon="12.6152743"><ele>304.0</ele><time>2026-05-01T13:43:25.505Z</time></trkpt><trkpt lat="43.5500138" lon="12.6150446"><ele>305.0</ele><time>2026-05-01T13:43:26.505Z</time></trkpt><trkpt lat="43.5500109" lon="12.6148016"><ele>305.0</ele><time>2026-05-01T13:43:27.504Z</time></trkpt><trkpt lat="43.5499852" lon="12.6145509"><ele>305.0</ele><time>2026-05-01T13:43:28.505Z</time></trkpt><trkpt lat="43.5499473" lon="12.6142946"><ele>305.0</ele><time>2026-05-01T13:43:29.504Z</time></trkpt><trkpt lat="43.5499018" lon="12.6140274"><ele>307.6666666666667</ele><time>2026-05-01T13:43:30.505Z</time></trkpt><trkpt lat="43.5498597" lon="12.6137748"><ele>310.3333333333333</ele><time>2026-05-01T13:43:31.505Z</time></trkpt><trkpt lat="43.5498171" lon="12.6135316"><ele>313.0</ele><time>2026-05-01T13:43:32.505Z</time></trkpt><trkpt lat="43.5497783" lon="12.6133"><ele>316.0</ele><time>2026-05-01T13:43:33.505Z</time></trkpt><trkpt lat="43.5497425" lon="12.6130568"><ele>319.0</ele><time>2026-05-01T13:43:34.505Z</time></trkpt><trkpt lat="43.5497034" lon="12.6128178"><ele>322.0</ele><time>2026-05-01T13:43:35.505Z</time></trkpt><trkpt lat="43.5496606" lon="12.6125815"><ele>324.3333333333333</ele><time>2026-05-01T13:43:36.504Z</time></trkpt><trkpt lat="43.549607" lon="12.6123529"><ele>326.6666666666667</ele><time>2026-05-01T13:43:37.504Z</time></trkpt><trkpt lat="43.5495389" lon="12.6121291"><ele>329.0</ele><time>2026-05-01T13:43:38.504Z</time></trkpt><trkpt lat="43.5494286" lon="12.6118931"><ele>324.0</ele><time>2026-05-01T13:43:39.504Z</time></trkpt><trkpt lat="43.549329" lon="12.6116789"><ele>319.0</ele><time>2026-05-01T13:43:40.505Z</time></trkpt><trkpt lat="43.5492281" lon="12.6114683"><ele>314.0</ele><time>2026-05-01T13:43:41.505Z</time></trkpt><trkpt lat="43.5491279" lon="12.6112737"><ele>318.0</ele><time>2026-05-01T13:43:42.504Z</time></trkpt><trkpt lat="43.5490279" lon="12.6110649"><ele>322.0</ele><time>2026-05-01T13:43:43.505Z</time></trkpt><trkpt lat="43.548924" lon="12.6108503"><ele>326.0</ele><time>2026-05-01T13:43:44.505Z</time></trkpt><trkpt lat="43.548821" lon="12.6106339"><ele>326.0</ele><time>2026-05-01T13:43:45.504Z</time></trkpt><trkpt lat="43.5487231" lon="12.6104266"><ele>326.0</ele><time>2026-05-01T13:43:46.505Z</time></trkpt><trkpt lat="43.5486282" lon="12.6102297"><ele>326.0</ele><time>2026-05-01T13:43:47.505Z</time></trkpt><trkpt lat="43.5485317" lon="12.6100323"><ele>324.33333333333337</ele><time>2026-05-01T13:43:48.505Z</time></trkpt><trkpt lat="43.5484462" lon="12.6098205"><ele>322.6666666666667</ele><time>2026-05-01T13:43:49.505Z</time></trkpt><trkpt lat="43.5483791" lon="12.6095884"><ele>321.0</ele><time>2026-05-01T13:43:50.505Z</time></trkpt><trkpt lat="43.5483303" lon="12.6093496"><ele>321.0</ele><time>2026-05-01T13:43:51.504Z</time></trkpt><trkpt lat="43.5482935" lon="12.6091014"><ele>321.0</ele><time>2026-05-01T13:43:52.504Z</time></trkpt><trkpt lat="43.5482684" lon="12.608845"><ele>321.0</ele><time>2026-05-01T13:43:53.505Z</time></trkpt><trkpt lat="43.5482717" lon="12.6085842"><ele>321.6666666666667</ele><time>2026-05-01T13:43:54.505Z</time></trkpt><trkpt lat="43.5482992" lon="12.6083174"><ele>322.33333333333337</ele><time>2026-05-01T13:43:55.505Z</time></trkpt><trkpt lat="43.5483394" lon="12.6080662"><ele>323.0</ele><time>2026-05-01T13:43:56.505Z</time></trkpt><trkpt lat="43.5483906" lon="12.6078334"><ele>322.6666666666667</ele><time>2026-05-01T13:43:57.505Z</time></trkpt><trkpt lat="43.5484378" lon="12.6076193"><ele>322.3333333333333</ele><time>2026-05-01T13:43:58.505Z</time></trkpt><trkpt lat="43.5484761" lon="12.6074164"><ele>322.0</ele><time>2026-05-01T13:43:59.505Z</time></trkpt><trkpt lat="43.5485122" lon="12.6072252"><ele>322.0</ele><time>2026-05-01T13:44:00.504Z</time></trkpt><trkpt lat="43.5485511" lon="12.607057"><ele>322.0</ele><time>2026-05-01T13:44:01.504Z</time></trkpt><trkpt lat="43.5485876" lon="12.6069072"><ele>322.0</ele><time>2026-05-01T13:44:02.505Z</time></trkpt><trkpt lat="43.5486177" lon="12.6067734"><ele>322.0</ele><time>2026-05-01T13:44:03.505Z</time></trkpt><trkpt lat="43.5486273" lon="12.6066482"><ele>322.0</ele><time>2026-05-01T13:44:04.505Z</time></trkpt><trkpt lat="43.5485997" lon="12.6065415"><ele>321.40000000000003</ele><time>2026-05-01T13:44:05.505Z</time></trkpt><trkpt lat="43.5485479" lon="12.6064418"><ele>320.8</ele><time>2026-05-01T13:44:06.505Z</time></trkpt><trkpt lat="43.5484888" lon="12.6063686"><ele>320.2</ele><time>2026-05-01T13:44:07.504Z</time></trkpt><trkpt lat="43.5483943" lon="12.6062767"><ele>319.6</ele><time>2026-05-01T13:44:09.504Z</time></trkpt><trkpt lat="43.5483631" lon="12.6061303"><ele>319.0</ele><time>2026-05-01T13:44:11.505Z</time></trkpt><trkpt lat="43.5483951" lon="12.6060535"><ele>320.79999999999995</ele><time>2026-05-01T13:44:12.504Z</time></trkpt><trkpt lat="43.5484392" lon="12.6059722"><ele>322.59999999999997</ele><time>2026-05-01T13:44:13.505Z</time></trkpt><trkpt lat="43.5485531" lon="12.6058576"><ele>324.4</ele><time>2026-05-01T13:44:15.505Z</time></trkpt><trkpt lat="43.5486259" lon="12.6058023"><ele>326.2</ele><time>2026-05-01T13:44:16.505Z</time></trkpt><trkpt lat="43.5486935" lon="12.6057401"><ele>328.0</ele><time>2026-05-01T13:44:17.505Z</time></trkpt><trkpt lat="43.5487627" lon="12.605647"><ele>328.25</ele><time>2026-05-01T13:44:18.505Z</time></trkpt><trkpt lat="43.5488392" lon="12.6055297"><ele>328.5</ele><time>2026-05-01T13:44:19.505Z</time></trkpt><trkpt lat="43.5489393" lon="12.6054124"><ele>328.75</ele><time>2026-05-01T13:44:20.504Z</time></trkpt><trkpt lat="43.5490499" lon="12.6052897"><ele>329.0</ele><time>2026-05-01T13:44:21.504Z</time></trkpt><trkpt lat="43.5491454" lon="12.6051817"><ele>331.0</ele><time>2026-05-01T13:44:22.504Z</time></trkpt><trkpt lat="43.5492335" lon="12.6050764"><ele>333.0</ele><time>2026-05-01T13:44:23.504Z</time></trkpt><trkpt lat="43.5493099" lon="12.6049611"><ele>335.0</ele><time>2026-05-01T13:44:24.504Z</time></trkpt><trkpt lat="43.5493701" lon="12.604823"><ele>337.0</ele><time>2026-05-01T13:44:25.505Z</time></trkpt><trkpt lat="43.549418" lon="12.6046649"><ele>337.0</ele><time>2026-05-01T13:44:26.505Z</time></trkpt><trkpt lat="43.5494634" lon="12.6045075"><ele>337.0</ele><time>2026-05-01T13:44:27.505Z</time></trkpt><trkpt lat="43.549507" lon="12.604363"><ele>337.0</ele><time>2026-05-01T13:44:28.505Z</time></trkpt><trkpt lat="43.5495757" lon="12.6042258"><ele>337.0</ele><time>2026-05-01T13:44:29.505Z</time></trkpt><trkpt lat="43.5496613" lon="12.6040927"><ele>338.0</ele><time>2026-05-01T13:44:30.505Z</time></trkpt><trkpt lat="43.5497408" lon="12.6039444"><ele>339.0</ele><time>2026-05-01T13:44:31.505Z</time></trkpt><trkpt lat="43.5498278" lon="12.6037874"><ele>340.0</ele><time>2026-05-01T13:44:32.505Z</time></trkpt><trkpt lat="43.5499176" lon="12.6036275"><ele>341.0</ele><time>2026-05-01T13:44:33.505Z</time></trkpt><trkpt lat="43.5499978" lon="12.6034744"><ele>342.75</ele><time>2026-05-01T13:44:34.504Z</time></trkpt><trkpt lat="43.5500753" lon="12.6033191"><ele>344.5</ele><time>2026-05-01T13:44:35.505Z</time></trkpt><trkpt lat="43.5501566" lon="12.6031784"><ele>346.25</ele><time>2026-05-01T13:44:36.505Z</time></trkpt><trkpt lat="43.550237" lon="12.6030589"><ele>348.0</ele><time>2026-05-01T13:44:37.504Z</time></trkpt><trkpt lat="43.5503289" lon="12.6029475"><ele>349.5</ele><time>2026-05-01T13:44:38.505Z</time></trkpt><trkpt lat="43.5504167" lon="12.6028348"><ele>351.0</ele><time>2026-05-01T13:44:39.504Z</time></trkpt><trkpt lat="43.550513" lon="12.6027188"><ele>352.5</ele><time>2026-05-01T13:44:40.504Z</time></trkpt><trkpt lat="43.5506112" lon="12.6026273"><ele>354.0</ele><time>2026-05-01T13:44:41.505Z</time></trkpt><trkpt lat="43.5507233" lon="12.60256"><ele>354.0</ele><time>2026-05-01T13:44:42.505Z</time></trkpt><trkpt lat="43.5508435" lon="12.6025243"><ele>354.0</ele><time>2026-05-01T13:44:43.505Z</time></trkpt><trkpt lat="43.5509616" lon="12.6024798"><ele>354.0</ele><time>2026-05-01T13:44:44.504Z</time></trkpt><trkpt lat="43.551085" lon="12.6023982"><ele>354.0</ele><time>2026-05-01T13:44:45.505Z</time></trkpt><trkpt lat="43.5511926" lon="12.6023379"><ele>355.2</ele><time>2026-05-01T13:44:46.505Z</time></trkpt><trkpt lat="43.5512847" lon="12.6023042"><ele>356.4</ele><time>2026-05-01T13:44:47.505Z</time></trkpt><trkpt lat="43.5513762" lon="12.6022669"><ele>357.6</ele><time>2026-05-01T13:44:48.505Z</time></trkpt><trkpt lat="43.5514685" lon="12.6022284"><ele>358.8</ele><time>2026-05-01T13:44:49.505Z</time></trkpt><trkpt lat="43.5515576" lon="12.6021571"><ele>360.0</ele><time>2026-05-01T13:44:50.505Z</time></trkpt><trkpt lat="43.5516456" lon="12.6020736"><ele>360.2</ele><time>2026-05-01T13:44:51.504Z</time></trkpt><trkpt lat="43.5517339" lon="12.6019859"><ele>360.4</ele><time>2026-05-01T13:44:52.504Z</time></trkpt><trkpt lat="43.5518099" lon="12.6019207"><ele>360.6</ele><time>2026-05-01T13:44:53.505Z</time></trkpt><trkpt lat="43.5518974" lon="12.6018873"><ele>360.8</ele><time>2026-05-01T13:44:54.505Z</time></trkpt><trkpt lat="43.551988" lon="12.6018919"><ele>361.0</ele><time>2026-05-01T13:44:55.505Z</time></trkpt><trkpt lat="43.5520871" lon="12.6019023"><ele>362.4</ele><time>2026-05-01T13:44:56.505Z</time></trkpt><trkpt lat="43.5521853" lon="12.6019128"><ele>363.8</ele><time>2026-05-01T13:44:57.504Z</time></trkpt><trkpt lat="43.552283" lon="12.6018745"><ele>365.2</ele><time>2026-05-01T13:44:58.505Z</time></trkpt><trkpt lat="43.5523798" lon="12.6017648"><ele>366.59999999999997</ele><time>2026-05-01T13:44:59.505Z</time></trkpt><trkpt lat="43.5524688" lon="12.6016492"><ele>368.0</ele><time>2026-05-01T13:45:00.505Z</time></trkpt><trkpt lat="43.5525502" lon="12.601548"><ele>368.0</ele><time>2026-05-01T13:45:01.505Z</time></trkpt><trkpt lat="43.5526305" lon="12.6014539"><ele>368.0</ele><time>2026-05-01T13:45:02.505Z</time></trkpt><trkpt lat="43.5527177" lon="12.6013572"><ele>368.0</ele><time>2026-05-01T13:45:03.504Z</time></trkpt><trkpt lat="43.5528127" lon="12.6012708"><ele>368.0</ele><time>2026-05-01T13:45:04.505Z</time></trkpt><trkpt lat="43.5529261" lon="12.6012027"><ele>366.5</ele><time>2026-05-01T13:45:05.505Z</time></trkpt><trkpt lat="43.5530514" lon="12.6011501"><ele>365.0</ele><time>2026-05-01T13:45:06.505Z</time></trkpt><trkpt lat="43.5531786" lon="12.601101"><ele>363.5</ele><time>2026-05-01T13:45:07.505Z</time></trkpt><trkpt lat="43.5533182" lon="12.6010448"><ele>362.0</ele><time>2026-05-01T13:45:08.504Z</time></trkpt><trkpt lat="43.5534679" lon="12.6009786"><ele>362.0</ele><time>2026-05-01T13:45:09.505Z</time></trkpt><trkpt lat="43.5536178" lon="12.6009207"><ele>362.0</ele><time>2026-05-01T13:45:10.505Z</time></trkpt><trkpt lat="43.5537604" lon="12.600862"><ele>362.0</ele><time>2026-05-01T13:45:11.505Z</time></trkpt><trkpt lat="43.5539042" lon="12.6008053"><ele>367.6666666666667</ele><time>2026-05-01T13:45:12.505Z</time></trkpt><trkpt lat="43.5540564" lon="12.6007339"><ele>373.3333333333333</ele><time>2026-05-01T13:45:13.504Z</time></trkpt><trkpt lat="43.5541939" lon="12.6006222"><ele>379.0</ele><time>2026-05-01T13:45:14.505Z</time></trkpt><trkpt lat="43.5543253" lon="12.600512"><ele>379.0</ele><time>2026-05-01T13:45:15.504Z</time></trkpt><trkpt lat="43.5544245" lon="12.600399"><ele>379.0</ele><time>2026-05-01T13:45:16.504Z</time></trkpt><trkpt lat="43.5544938" lon="12.6002646"><ele>379.0</ele><time>2026-05-01T13:45:17.504Z</time></trkpt><trkpt lat="43.5545515" lon="12.6001189"><ele>379.0</ele><time>2026-05-01T13:45:18.505Z</time></trkpt><trkpt lat="43.554619" lon="12.5999803"><ele>378.75</ele><time>2026-05-01T13:45:19.505Z</time></trkpt><trkpt lat="43.554706" lon="12.5998615"><ele>378.5</ele><time>2026-05-01T13:45:20.505Z</time></trkpt><trkpt lat="43.5548063" lon="12.5997624"><ele>378.25</ele><time>2026-05-01T13:45:21.505Z</time></trkpt><trkpt lat="43.5549198" lon="12.5996768"><ele>378.0</ele><time>2026-05-01T13:45:22.505Z</time></trkpt><trkpt lat="43.5550545" lon="12.5996136"><ele>378.0</ele><time>2026-05-01T13:45:23.505Z</time></trkpt><trkpt lat="43.5551858" lon="12.5995391"><ele>378.0</ele><time>2026-05-01T13:45:24.505Z</time></trkpt><trkpt lat="43.5553178" lon="12.5994587"><ele>378.0</ele><time>2026-05-01T13:45:25.504Z</time></trkpt><trkpt lat="43.5554569" lon="12.5993858"><ele>378.0</ele><time>2026-05-01T13:45:26.504Z</time></trkpt><trkpt lat="43.5555926" lon="12.5993088"><ele>379.5</ele><time>2026-05-01T13:45:27.505Z</time></trkpt><trkpt lat="43.5557189" lon="12.5992195"><ele>381.0</ele><time>2026-05-01T13:45:28.505Z</time></trkpt><trkpt lat="43.5558331" lon="12.5990923"><ele>382.5</ele><time>2026-05-01T13:45:29.505Z</time></trkpt><trkpt lat="43.5559437" lon="12.5989439"><ele>384.0</ele><time>2026-05-01T13:45:30.505Z</time></trkpt><trkpt lat="43.5560559" lon="12.5987773"><ele>380.3333333333333</ele><time>2026-05-01T13:45:31.505Z</time></trkpt><trkpt lat="43.5561615" lon="12.5986054"><ele>376.66666666666663</ele><time>2026-05-01T13:45:32.505Z</time></trkpt><trkpt lat="43.5562661" lon="12.5984334"><ele>373.0</ele><time>2026-05-01T13:45:33.505Z</time></trkpt><trkpt lat="43.5563771" lon="12.5982824"><ele>376.66666666666663</ele><time>2026-05-01T13:45:34.505Z</time></trkpt><trkpt lat="43.5564841" lon="12.5981272"><ele>380.3333333333333</ele><time>2026-05-01T13:45:35.504Z</time></trkpt><trkpt lat="43.5566006" lon="12.5979716"><ele>384.0</ele><time>2026-05-01T13:45:36.505Z</time></trkpt><trkpt lat="43.5567221" lon="12.5977908"><ele>384.0</ele><time>2026-05-01T13:45:37.505Z</time></trkpt><trkpt lat="43.5568362" lon="12.5976066"><ele>384.0</ele><time>2026-05-01T13:45:38.504Z</time></trkpt><trkpt lat="43.5569441" lon="12.5974329"><ele>384.0</ele><time>2026-05-01T13:45:39.504Z</time></trkpt><trkpt lat="43.5570476" lon="12.5972704"><ele>388.75</ele><time>2026-05-01T13:45:40.505Z</time></trkpt><trkpt lat="43.5571324" lon="12.5971586"><ele>393.5</ele><time>2026-05-01T13:45:41.505Z</time></trkpt><trkpt lat="43.5572236" lon="12.5970771"><ele>398.25</ele><time>2026-05-01T13:45:42.505Z</time></trkpt><trkpt lat="43.557323" lon="12.5970332"><ele>403.0</ele><time>2026-05-01T13:45:43.505Z</time></trkpt><trkpt lat="43.5574492" lon="12.5970321"><ele>403.0</ele><time>2026-05-01T13:45:44.505Z</time></trkpt><trkpt lat="43.5575711" lon="12.5970749"><ele>403.0</ele><time>2026-05-01T13:45:45.504Z</time></trkpt><trkpt lat="43.5577066" lon="12.5971205"><ele>403.0</ele><time>2026-05-01T13:45:46.504Z</time></trkpt><trkpt lat="43.5578478" lon="12.5971763"><ele>403.0</ele><time>2026-05-01T13:45:47.505Z</time></trkpt><trkpt lat="43.557984" lon="12.5972183"><ele>406.75</ele><time>2026-05-01T13:45:48.504Z</time></trkpt><trkpt lat="43.5581221" lon="12.5972367"><ele>410.5</ele><time>2026-05-01T13:45:49.504Z</time></trkpt><trkpt lat="43.5582643" lon="12.597227"><ele>414.25</ele><time>2026-05-01T13:45:50.505Z</time></trkpt><trkpt lat="43.5584002" lon="12.5971952"><ele>418.0</ele><time>2026-05-01T13:45:51.505Z</time></trkpt><trkpt lat="43.5585285" lon="12.5971402"><ele>418.0</ele><time>2026-05-01T13:45:52.505Z</time></trkpt><trkpt lat="43.5586328" lon="12.5970715"><ele>418.0</ele><time>2026-05-01T13:45:53.505Z</time></trkpt><trkpt lat="43.558727" lon="12.5969968"><ele>418.0</ele><time>2026-05-01T13:45:54.505Z</time></trkpt><trkpt lat="43.5588197" lon="12.5969009"><ele>418.0</ele><time>2026-05-01T13:45:55.505Z</time></trkpt><trkpt lat="43.558896" lon="12.5967888"><ele>416.79999999999995</ele><time>2026-05-01T13:45:56.504Z</time></trkpt><trkpt lat="43.5589517" lon="12.5966689"><ele>415.6</ele><time>2026-05-01T13:45:57.504Z</time></trkpt><trkpt lat="43.5589758" lon="12.5965619"><ele>414.4</ele><time>2026-05-01T13:45:58.505Z</time></trkpt><trkpt lat="43.558965" lon="12.5964551"><ele>413.20000000000005</ele><time>2026-05-01T13:45:59.504Z</time></trkpt><trkpt lat="43.5589149" lon="12.5963422"><ele>412.0</ele><time>2026-05-01T13:46:00.505Z</time></trkpt><trkpt lat="43.5588132" lon="12.5962717"><ele>412.0</ele><time>2026-05-01T13:46:01.505Z</time></trkpt><trkpt lat="43.5587168" lon="12.5962582"><ele>412.0</ele><time>2026-05-01T13:46:02.505Z</time></trkpt><trkpt lat="43.5586135" lon="12.596296"><ele>412.0</ele><time>2026-05-01T13:46:03.505Z</time></trkpt><trkpt lat="43.5585002" lon="12.596355"><ele>412.0</ele><time>2026-05-01T13:46:04.505Z</time></trkpt><trkpt lat="43.558403" lon="12.5964084"><ele>412.0</ele><time>2026-05-01T13:46:05.505Z</time></trkpt><trkpt lat="43.5583198" lon="12.5964525"><ele>411.00000000000006</ele><time>2026-05-01T13:46:06.504Z</time></trkpt><trkpt lat="43.5582425" lon="12.5964543"><ele>410.0</ele><time>2026-05-01T13:46:07.505Z</time></trkpt><trkpt lat="43.5581818" lon="12.5964068"><ele>409.0</ele><time>2026-05-01T13:46:08.505Z</time></trkpt><trkpt lat="43.5581253" lon="12.5962988"><ele>408.0</ele><time>2026-05-01T13:46:09.505Z</time></trkpt><trkpt lat="43.5581025" lon="12.5961682"><ele>407.00000000000006</ele><time>2026-05-01T13:46:10.505Z</time></trkpt><trkpt lat="43.5581181" lon="12.5960306"><ele>406.0</ele><time>2026-05-01T13:46:11.504Z</time></trkpt><trkpt lat="43.5581766" lon="12.5958809"><ele>406.0</ele><time>2026-05-01T13:46:12.504Z</time></trkpt><trkpt lat="43.5582398" lon="12.5957374"><ele>406.0</ele><time>2026-05-01T13:46:13.505Z</time></trkpt><trkpt lat="43.5583128" lon="12.5955944"><ele>406.0</ele><time>2026-05-01T13:46:14.504Z</time></trkpt><trkpt lat="43.558393" lon="12.5954518"><ele>406.0</ele><time>2026-05-01T13:46:15.504Z</time></trkpt><trkpt lat="43.5584704" lon="12.5953042"><ele>406.5</ele><time>2026-05-01T13:46:16.505Z</time></trkpt><trkpt lat="43.5585404" lon="12.5951416"><ele>407.0</ele><time>2026-05-01T13:46:17.505Z</time></trkpt><trkpt lat="43.5585838" lon="12.59495"><ele>407.5</ele><time>2026-05-01T13:46:18.505Z</time></trkpt><trkpt lat="43.5586122" lon="12.594743"><ele>408.0</ele><time>2026-05-01T13:46:19.505Z</time></trkpt><trkpt lat="43.5586276" lon="12.594539"><ele>408.0</ele><time>2026-05-01T13:46:20.504Z</time></trkpt><trkpt lat="43.5586447" lon="12.5943398"><ele>408.0</ele><time>2026-05-01T13:46:21.505Z</time></trkpt><trkpt lat="43.5586535" lon="12.5941448"><ele>408.0</ele><time>2026-05-01T13:46:22.505Z</time></trkpt><trkpt lat="43.5586603" lon="12.5939554"><ele>408.0</ele><time>2026-05-01T13:46:23.505Z</time></trkpt><trkpt lat="43.5586737" lon="12.5937908"><ele>419.0</ele><time>2026-05-01T13:46:24.505Z</time></trkpt><trkpt lat="43.5587139" lon="12.5936383"><ele>430.0</ele><time>2026-05-01T13:46:25.505Z</time></trkpt><trkpt lat="43.5587807" lon="12.5934864"><ele>441.0</ele><time>2026-05-01T13:46:26.505Z</time></trkpt><trkpt lat="43.5588499" lon="12.5933234"><ele>452.0</ele><time>2026-05-01T13:46:27.505Z</time></trkpt><trkpt lat="43.5589143" lon="12.5931515"><ele>452.0</ele><time>2026-05-01T13:46:28.504Z</time></trkpt><trkpt lat="43.5589729" lon="12.5929864"><ele>452.0</ele><time>2026-05-01T13:46:29.505Z</time></trkpt><trkpt lat="43.5590161" lon="12.5928223"><ele>452.0</ele><time>2026-05-01T13:46:30.505Z</time></trkpt><trkpt lat="43.5590441" lon="12.5926687"><ele>452.0</ele><time>2026-05-01T13:46:31.505Z</time></trkpt><trkpt lat="43.5590607" lon="12.5925284"><ele>450.20000000000005</ele><time>2026-05-01T13:46:32.505Z</time></trkpt><trkpt lat="43.5590994" lon="12.5924078"><ele>448.40000000000003</ele><time>2026-05-01T13:46:33.505Z</time></trkpt><trkpt lat="43.5591712" lon="12.5922978"><ele>446.59999999999997</ele><time>2026-05-01T13:46:34.505Z</time></trkpt><trkpt lat="43.5592469" lon="12.5921925"><ele>444.79999999999995</ele><time>2026-05-01T13:46:35.505Z</time></trkpt><trkpt lat="43.5592959" lon="12.5920554"><ele>443.0</ele><time>2026-05-01T13:46:36.504Z</time></trkpt><trkpt lat="43.5593135" lon="12.59188"><ele>443.0</ele><time>2026-05-01T13:46:37.505Z</time></trkpt><trkpt lat="43.5592907" lon="12.5916961"><ele>443.0</ele><time>2026-05-01T13:46:38.504Z</time></trkpt><trkpt lat="43.5592655" lon="12.5915198"><ele>443.0</ele><time>2026-05-01T13:46:39.505Z</time></trkpt><trkpt lat="43.5592673" lon="12.5913643"><ele>443.0</ele><time>2026-05-01T13:46:40.505Z</time></trkpt><trkpt lat="43.5592982" lon="12.5912238"><ele>443.5</ele><time>2026-05-01T13:46:41.505Z</time></trkpt><trkpt lat="43.5593573" lon="12.5910954"><ele>444.0</ele><time>2026-05-01T13:46:42.505Z</time></trkpt><trkpt lat="43.5594087" lon="12.5909739"><ele>444.5</ele><time>2026-05-01T13:46:43.505Z</time></trkpt><trkpt lat="43.5594313" lon="12.5908193"><ele>445.0</ele><time>2026-05-01T13:46:44.505Z</time></trkpt><trkpt lat="43.5594126" lon="12.5906412"><ele>445.0</ele><time>2026-05-01T13:46:45.505Z</time></trkpt><trkpt lat="43.5594036" lon="12.5904822"><ele>445.0</ele><time>2026-05-01T13:46:46.505Z</time></trkpt><trkpt lat="43.5593737" lon="12.5903547"><ele>445.0</ele><time>2026-05-01T13:46:47.505Z</time></trkpt><trkpt lat="43.5593396" lon="12.5902267"><ele>445.0</ele><time>2026-05-01T13:46:48.505Z</time></trkpt><trkpt lat="43.5593626" lon="12.5900632"><ele>445.0</ele><time>2026-05-01T13:46:49.505Z</time></trkpt><trkpt lat="43.5594069" lon="12.589921"><ele>448.25</ele><time>2026-05-01T13:46:50.504Z</time></trkpt><trkpt lat="43.5594262" lon="12.5897476"><ele>451.5</ele><time>2026-05-01T13:46:51.504Z</time></trkpt><trkpt lat="43.5594278" lon="12.5895642"><ele>454.75</ele><time>2026-05-01T13:46:52.505Z</time></trkpt><trkpt lat="43.5594404" lon="12.5893875"><ele>458.0</ele><time>2026-05-01T13:46:53.505Z</time></trkpt><trkpt lat="43.5594658" lon="12.5892063"><ele>458.75</ele><time>2026-05-01T13:46:54.505Z</time></trkpt><trkpt lat="43.5595073" lon="12.5890359"><ele>459.5</ele><time>2026-05-01T13:46:55.505Z</time></trkpt><trkpt lat="43.5595735" lon="12.5888824"><ele>460.25</ele><time>2026-05-01T13:46:56.504Z</time></trkpt><trkpt lat="43.5596621" lon="12.5887351"><ele>461.0</ele><time>2026-05-01T13:46:57.505Z</time></trkpt><trkpt lat="43.5597473" lon="12.5885722"><ele>464.0</ele><time>2026-05-01T13:46:58.505Z</time></trkpt><trkpt lat="43.5598134" lon="12.5883939"><ele>467.0</ele><time>2026-05-01T13:46:59.505Z</time></trkpt><trkpt lat="43.559874" lon="12.5882136"><ele>470.0</ele><time>2026-05-01T13:47:00.504Z</time></trkpt><trkpt lat="43.5599284" lon="12.5880527"><ele>473.0</ele><time>2026-05-01T13:47:01.505Z</time></trkpt><trkpt lat="43.5599856" lon="12.5879169"><ele>472.79999999999995</ele><time>2026-05-01T13:47:02.505Z</time></trkpt><trkpt lat="43.5600616" lon="12.5877973"><ele>472.59999999999997</ele><time>2026-05-01T13:47:03.505Z</time></trkpt><trkpt lat="43.5601436" lon="12.5877048"><ele>472.40000000000003</ele><time>2026-05-01T13:47:04.505Z</time></trkpt><trkpt lat="43.5602248" lon="12.5876162"><ele>472.20000000000005</ele><time>2026-05-01T13:47:05.505Z</time></trkpt><trkpt lat="43.560277" lon="12.5875135"><ele>472.0</ele><time>2026-05-01T13:47:06.504Z</time></trkpt><trkpt lat="43.5602907" lon="12.5874074"><ele>472.00000000000006</ele><time>2026-05-01T13:47:07.505Z</time></trkpt><trkpt lat="43.5602616" lon="12.5873058"><ele>472.0</ele><time>2026-05-01T13:47:08.505Z</time></trkpt><trkpt lat="43.5601848" lon="12.5872871"><ele>472.0</ele><time>2026-05-01T13:47:09.505Z</time></trkpt><trkpt lat="43.5601207" lon="12.5873194"><ele>472.0</ele><time>2026-05-01T13:47:10.504Z</time></trkpt><trkpt lat="43.5600471" lon="12.5874478"><ele>472.00000000000006</ele><time>2026-05-01T13:47:12.505Z</time></trkpt><trkpt lat="43.5599577" lon="12.587412"><ele>472.0</ele><time>2026-05-01T13:47:14.505Z</time></trkpt><trkpt lat="43.5599457" lon="12.5873019"><ele>472.0</ele><time>2026-05-01T13:47:15.505Z</time></trkpt><trkpt lat="43.5599451" lon="12.5871757"><ele>472.00000000000006</ele><time>2026-05-01T13:47:16.505Z</time></trkpt><trkpt lat="43.5599344" lon="12.5870295"><ele>472.00000000000006</ele><time>2026-05-01T13:47:17.505Z</time></trkpt><trkpt lat="43.5599221" lon="12.5869049"><ele>472.0</ele><time>2026-05-01T13:47:18.505Z</time></trkpt><trkpt lat="43.5599104" lon="12.5867929"><ele>472.0</ele><time>2026-05-01T13:47:19.505Z</time></trkpt><trkpt lat="43.5598778" lon="12.5866933"><ele>473.1666666666667</ele><time>2026-05-01T13:47:20.505Z</time></trkpt><trkpt lat="43.5598152" lon="12.5866184"><ele>474.33333333333337</ele><time>2026-05-01T13:47:21.505Z</time></trkpt><trkpt lat="43.5597283" lon="12.5865742"><ele>475.5</ele><time>2026-05-01T13:47:22.505Z</time></trkpt><trkpt lat="43.5596347" lon="12.5865871"><ele>476.66666666666663</ele><time>2026-05-01T13:47:23.505Z</time></trkpt><trkpt lat="43.5595624" lon="12.5866496"><ele>477.8333333333333</ele><time>2026-05-01T13:47:24.505Z</time></trkpt><trkpt lat="43.5595184" lon="12.5867637"><ele>479.0</ele><time>2026-05-01T13:47:25.505Z</time></trkpt><trkpt lat="43.5594964" lon="12.5869141"><ele>481.0</ele><time>2026-05-01T13:47:26.505Z</time></trkpt><trkpt lat="43.559483" lon="12.5870778"><ele>483.0</ele><time>2026-05-01T13:47:27.505Z</time></trkpt><trkpt lat="43.5594722" lon="12.5872641"><ele>485.0</ele><time>2026-05-01T13:47:28.505Z</time></trkpt><trkpt lat="43.559455" lon="12.5874487"><ele>487.0</ele><time>2026-05-01T13:47:29.505Z</time></trkpt><trkpt lat="43.5594412" lon="12.5876117"><ele>487.0</ele><time>2026-05-01T13:47:30.505Z</time></trkpt><trkpt lat="43.5594137" lon="12.5877577"><ele>487.00000000000006</ele><time>2026-05-01T13:47:31.505Z</time></trkpt><trkpt lat="43.559367" lon="12.5878958"><ele>487.00000000000006</ele><time>2026-05-01T13:47:32.505Z</time></trkpt><trkpt lat="43.5592983" lon="12.588019"><ele>487.0</ele><time>2026-05-01T13:47:33.504Z</time></trkpt><trkpt lat="43.5592218" lon="12.5881345"><ele>487.0</ele><time>2026-05-01T13:47:34.505Z</time></trkpt><trkpt lat="43.5591447" lon="12.588249"><ele>485.0</ele><time>2026-05-01T13:47:35.505Z</time></trkpt><trkpt lat="43.5590896" lon="12.5883505"><ele>483.00000000000006</ele><time>2026-05-01T13:47:36.505Z</time></trkpt><trkpt lat="43.5590473" lon="12.5884244"><ele>481.00000000000006</ele><time>2026-05-01T13:47:37.504Z</time></trkpt><trkpt lat="43.5589853" lon="12.5884636"><ele>479.0</ele><time>2026-05-01T13:47:38.505Z</time></trkpt><trkpt lat="43.5588986" lon="12.5884166"><ele>477.0</ele><time>2026-05-01T13:47:40.505Z</time></trkpt><trkpt lat="43.5589266" lon="12.5882372"><ele>477.0</ele><time>2026-05-01T13:47:42.505Z</time></trkpt><trkpt lat="43.5589903" lon="12.5881481"><ele>477.00000000000006</ele><time>2026-05-01T13:47:43.505Z</time></trkpt><trkpt lat="43.559068" lon="12.5880725"><ele>477.00000000000006</ele><time>2026-05-01T13:47:44.504Z</time></trkpt><trkpt lat="43.5591298" lon="12.5879787"><ele>477.0</ele><time>2026-05-01T13:47:45.505Z</time></trkpt><trkpt lat="43.5591762" lon="12.587857"><ele>477.0</ele><time>2026-05-01T13:47:46.505Z</time></trkpt><trkpt lat="43.559199" lon="12.5877222"><ele>478.6666666666667</ele><time>2026-05-01T13:47:47.505Z</time></trkpt><trkpt lat="43.5592048" lon="12.5876049"><ele>480.33333333333337</ele><time>2026-05-01T13:47:48.505Z</time></trkpt><trkpt lat="43.5592005" lon="12.5875091"><ele>482.0</ele><time>2026-05-01T13:47:49.504Z</time></trkpt><trkpt lat="43.5591699" lon="12.5874163"><ele>483.6666666666667</ele><time>2026-05-01T13:47:50.504Z</time></trkpt><trkpt lat="43.5590946" lon="12.5873467"><ele>485.33333333333337</ele><time>2026-05-01T13:47:51.504Z</time></trkpt><trkpt lat="43.5589927" lon="12.5873311"><ele>487.0</ele><time>2026-05-01T13:47:52.504Z</time></trkpt><trkpt lat="43.5588847" lon="12.5873707"><ele>487.0</ele><time>2026-05-01T13:47:53.505Z</time></trkpt><trkpt lat="43.5587658" lon="12.5874056"><ele>487.0</ele><time>2026-05-01T13:47:54.505Z</time></trkpt><trkpt lat="43.5586397" lon="12.587444"><ele>487.0</ele><time>2026-05-01T13:47:55.505Z</time></trkpt><trkpt lat="43.5585195" lon="12.5874816"><ele>487.0</ele><time>2026-05-01T13:47:56.504Z</time></trkpt><trkpt lat="43.5584109" lon="12.5875073"><ele>489.20000000000005</ele><time>2026-05-01T13:47:57.505Z</time></trkpt><trkpt lat="43.5583041" lon="12.5875421"><ele>491.40000000000003</ele><time>2026-05-01T13:47:58.505Z</time></trkpt><trkpt lat="43.5582048" lon="12.5875591"><ele>493.59999999999997</ele><time>2026-05-01T13:47:59.505Z</time></trkpt><trkpt lat="43.5581157" lon="12.5875493"><ele>495.79999999999995</ele><time>2026-05-01T13:48:00.505Z</time></trkpt><trkpt lat="43.5580223" lon="12.5875126"><ele>498.0</ele><time>2026-05-01T13:48:01.505Z</time></trkpt><trkpt lat="43.5579349" lon="12.5874263"><ele>497.4</ele><time>2026-05-01T13:48:02.505Z</time></trkpt><trkpt lat="43.5578657" lon="12.5873024"><ele>496.79999999999995</ele><time>2026-05-01T13:48:03.505Z</time></trkpt><trkpt lat="43.5578039" lon="12.5871891"><ele>496.2</ele><time>2026-05-01T13:48:04.505Z</time></trkpt><trkpt lat="43.55777" lon="12.5870609"><ele>495.6</ele><time>2026-05-01T13:48:05.505Z</time></trkpt><trkpt lat="43.5577632" lon="12.5869382"><ele>495.0</ele><time>2026-05-01T13:48:06.505Z</time></trkpt><trkpt lat="43.5577805" lon="12.5868054"><ele>495.0</ele><time>2026-05-01T13:48:07.505Z</time></trkpt><trkpt lat="43.5578047" lon="12.5866577"><ele>495.0</ele><time>2026-05-01T13:48:08.505Z</time></trkpt><trkpt lat="43.5578397" lon="12.5864971"><ele>495.0</ele><time>2026-05-01T13:48:09.505Z</time></trkpt><trkpt lat="43.55787" lon="12.5863346"><ele>495.0</ele><time>2026-05-01T13:48:10.505Z</time></trkpt><trkpt lat="43.5579145" lon="12.5861599"><ele>497.75</ele><time>2026-05-01T13:48:11.505Z</time></trkpt><trkpt lat="43.5579727" lon="12.5859713"><ele>500.5</ele><time>2026-05-01T13:48:12.505Z</time></trkpt><trkpt lat="43.5580242" lon="12.5857969"><ele>503.25</ele><time>2026-05-01T13:48:13.505Z</time></trkpt><trkpt lat="43.5580624" lon="12.5856251"><ele>506.0</ele><time>2026-05-01T13:48:14.505Z</time></trkpt><trkpt lat="43.5580783" lon="12.5854264"><ele>508.75</ele><time>2026-05-01T13:48:15.505Z</time></trkpt><trkpt lat="43.5580748" lon="12.5852086"><ele>511.5</ele><time>2026-05-01T13:48:16.505Z</time></trkpt><trkpt lat="43.5580717" lon="12.584999"><ele>514.25</ele><time>2026-05-01T13:48:17.504Z</time></trkpt><trkpt lat="43.5580687" lon="12.5848125"><ele>517.0</ele><time>2026-05-01T13:48:18.505Z</time></trkpt><trkpt lat="43.5580685" lon="12.5846426"><ele>519.75</ele><time>2026-05-01T13:48:19.505Z</time></trkpt><trkpt lat="43.5580847" lon="12.5844805"><ele>522.5</ele><time>2026-05-01T13:48:20.505Z</time></trkpt><trkpt lat="43.5581247" lon="12.5843233"><ele>525.25</ele><time>2026-05-01T13:48:21.504Z</time></trkpt><trkpt lat="43.5581761" lon="12.5841847"><ele>528.0</ele><time>2026-05-01T13:48:22.505Z</time></trkpt><trkpt lat="43.5582394" lon="12.584058"><ele>528.0</ele><time>2026-05-01T13:48:23.504Z</time></trkpt><trkpt lat="43.5583208" lon="12.5839433"><ele>528.0</ele><time>2026-05-01T13:48:24.505Z</time></trkpt><trkpt lat="43.5584251" lon="12.58385"><ele>528.0</ele><time>2026-05-01T13:48:25.505Z</time></trkpt><trkpt lat="43.5585359" lon="12.5837866"><ele>528.0</ele><time>2026-05-01T13:48:26.505Z</time></trkpt><trkpt lat="43.5586552" lon="12.5837342"><ele>527.5</ele><time>2026-05-01T13:48:27.505Z</time></trkpt><trkpt lat="43.5587846" lon="12.5836885"><ele>527.0</ele><time>2026-05-01T13:48:28.505Z</time></trkpt><trkpt lat="43.5589091" lon="12.5836503"><ele>526.5</ele><time>2026-05-01T13:48:29.505Z</time></trkpt><trkpt lat="43.5590513" lon="12.5836367"><ele>526.0</ele><time>2026-05-01T13:48:30.504Z</time></trkpt><trkpt lat="43.5591959" lon="12.5836641"><ele>526.0</ele><time>2026-05-01T13:48:31.505Z</time></trkpt><trkpt lat="43.5593347" lon="12.5836942"><ele>526.0</ele><time>2026-05-01T13:48:32.505Z</time></trkpt><trkpt lat="43.5594531" lon="12.5837135"><ele>526.0</ele><time>2026-05-01T13:48:33.505Z</time></trkpt><trkpt lat="43.5595499" lon="12.5837182"><ele>526.0</ele><time>2026-05-01T13:48:34.504Z</time></trkpt><trkpt lat="43.5596359" lon="12.5836814"><ele>526.0</ele><time>2026-05-01T13:48:35.504Z</time></trkpt><trkpt lat="43.5597137" lon="12.5835926"><ele>527.5</ele><time>2026-05-01T13:48:36.505Z</time></trkpt><trkpt lat="43.5597895" lon="12.5834841"><ele>529.0</ele><time>2026-05-01T13:48:37.505Z</time></trkpt><trkpt lat="43.5598784" lon="12.5833725"><ele>530.5</ele><time>2026-05-01T13:48:38.505Z</time></trkpt><trkpt lat="43.5599776" lon="12.5832647"><ele>532.0</ele><time>2026-05-01T13:48:39.505Z</time></trkpt><trkpt lat="43.5600716" lon="12.5831596"><ele>532.0</ele><time>2026-05-01T13:48:40.505Z</time></trkpt><trkpt lat="43.560135" lon="12.5830233"><ele>532.0</ele><time>2026-05-01T13:48:41.505Z</time></trkpt><trkpt lat="43.5601672" lon="12.5828601"><ele>532.0</ele><time>2026-05-01T13:48:42.504Z</time></trkpt><trkpt lat="43.5601754" lon="12.5826822"><ele>532.0</ele><time>2026-05-01T13:48:43.505Z</time></trkpt><trkpt lat="43.5601935" lon="12.5825157"><ele>532.75</ele><time>2026-05-01T13:48:44.505Z</time></trkpt><trkpt lat="43.5602386" lon="12.5823552"><ele>533.5</ele><time>2026-05-01T13:48:45.505Z</time></trkpt><trkpt lat="43.5603184" lon="12.5822342"><ele>534.25</ele><time>2026-05-01T13:48:46.505Z</time></trkpt><trkpt lat="43.5604121" lon="12.5821439"><ele>535.0</ele><time>2026-05-01T13:48:47.505Z</time></trkpt><trkpt lat="43.5605015" lon="12.5820738"><ele>535.0</ele><time>2026-05-01T13:48:48.505Z</time></trkpt><trkpt lat="43.5605658" lon="12.5820547"><ele>535.0</ele><time>2026-05-01T13:48:49.505Z</time></trkpt><trkpt lat="43.5606639" lon="12.5820376"><ele>535.0</ele><time>2026-05-01T13:48:51.504Z</time></trkpt><trkpt lat="43.5607066" lon="12.5819437"><ele>535.0</ele><time>2026-05-01T13:48:53.505Z</time></trkpt><trkpt lat="43.5606327" lon="12.5818894"><ele>535.0</ele><time>2026-05-01T13:48:55.505Z</time></trkpt><trkpt lat="43.5605466" lon="12.5818888"><ele>535.0</ele><time>2026-05-01T13:48:56.504Z</time></trkpt><trkpt lat="43.5604459" lon="12.5819074"><ele>538.75</ele><time>2026-05-01T13:48:57.505Z</time></trkpt><trkpt lat="43.5603422" lon="12.5819274"><ele>542.5</ele><time>2026-05-01T13:48:58.505Z</time></trkpt><trkpt lat="43.5602229" lon="12.581962"><ele>546.25</ele><time>2026-05-01T13:48:59.505Z</time></trkpt><trkpt lat="43.5600915" lon="12.5820039"><ele>550.0</ele><time>2026-05-01T13:49:00.505Z</time></trkpt><trkpt lat="43.5599631" lon="12.5820483"><ele>550.0</ele><time>2026-05-01T13:49:01.505Z</time></trkpt><trkpt lat="43.5598543" lon="12.5820987"><ele>550.0</ele><time>2026-05-01T13:49:02.505Z</time></trkpt><trkpt lat="43.5597692" lon="12.5821444"><ele>550.0</ele><time>2026-05-01T13:49:03.505Z</time></trkpt><trkpt lat="43.5597031" lon="12.5821757"><ele>550.0</ele><time>2026-05-01T13:49:04.505Z</time></trkpt><trkpt lat="43.5596517" lon="12.5820768"><ele>550.0</ele><time>2026-05-01T13:49:06.504Z</time></trkpt><trkpt lat="43.5597395" lon="12.5819841"><ele>552.8333333333334</ele><time>2026-05-01T13:49:08.505Z</time></trkpt><trkpt lat="43.559801" lon="12.5819543"><ele>555.6666666666667</ele><time>2026-05-01T13:49:09.505Z</time></trkpt><trkpt lat="43.5598774" lon="12.5819246"><ele>558.5</ele><time>2026-05-01T13:49:10.505Z</time></trkpt><trkpt lat="43.5599539" lon="12.5818651"><ele>561.3333333333334</ele><time>2026-05-01T13:49:11.505Z</time></trkpt><trkpt lat="43.5600306" lon="12.5817714"><ele>564.1666666666666</ele><time>2026-05-01T13:49:12.504Z</time></trkpt><trkpt lat="43.5601091" lon="12.581668"><ele>567.0</ele><time>2026-05-01T13:49:13.504Z</time></trkpt><trkpt lat="43.5601941" lon="12.5815537"><ele>567.0</ele><time>2026-05-01T13:49:14.505Z</time></trkpt><trkpt lat="43.5602834" lon="12.5814368"><ele>567.0</ele><time>2026-05-01T13:49:15.504Z</time></trkpt><trkpt lat="43.5603828" lon="12.5813276"><ele>567.0</ele><time>2026-05-01T13:49:16.505Z</time></trkpt><trkpt lat="43.5604842" lon="12.5812291"><ele>567.0</ele><time>2026-05-01T13:49:17.505Z</time></trkpt><trkpt lat="43.5605907" lon="12.5811325"><ele>567.6</ele><time>2026-05-01T13:49:18.505Z</time></trkpt><trkpt lat="43.5606828" lon="12.5810513"><ele>568.2</ele><time>2026-05-01T13:49:19.505Z</time></trkpt><trkpt lat="43.560763" lon="12.5809628"><ele>568.8</ele><time>2026-05-01T13:49:20.505Z</time></trkpt><trkpt lat="43.5608196" lon="12.5808562"><ele>569.4</ele><time>2026-05-01T13:49:21.505Z</time></trkpt><trkpt lat="43.560875" lon="12.5807525"><ele>570.0</ele><time>2026-05-01T13:49:22.504Z</time></trkpt><trkpt lat="43.5609273" lon="12.5806625"><ele>570.0</ele><time>2026-05-01T13:49:23.505Z</time></trkpt><trkpt lat="43.5609664" lon="12.5805908"><ele>570.0</ele><time>2026-05-01T13:49:24.505Z</time></trkpt><trkpt lat="43.5609773" lon="12.5804248"><ele>570.0</ele><time>2026-05-01T13:49:26.505Z</time></trkpt><trkpt lat="43.5609401" lon="12.5803364"><ele>570.0</ele><time>2026-05-01T13:49:27.505Z</time></trkpt><trkpt lat="43.5608689" lon="12.5802597"><ele>570.0</ele><time>2026-05-01T13:49:28.505Z</time></trkpt><trkpt lat="43.5607749" lon="12.58019"><ele>569.4</ele><time>2026-05-01T13:49:29.505Z</time></trkpt><trkpt lat="43.5606846" lon="12.5801121"><ele>568.8</ele><time>2026-05-01T13:49:30.505Z</time></trkpt><trkpt lat="43.5605999" lon="12.580021"><ele>568.2</ele><time>2026-05-01T13:49:31.504Z</time></trkpt><trkpt lat="43.5605199" lon="12.5799325"><ele>567.6</ele><time>2026-05-01T13:49:32.505Z</time></trkpt><trkpt lat="43.5604561" lon="12.5798417"><ele>567.0</ele><time>2026-05-01T13:49:33.505Z</time></trkpt><trkpt lat="43.5603854" lon="12.5797307"><ele>573.3333333333334</ele><time>2026-05-01T13:49:34.505Z</time></trkpt><trkpt lat="43.5603244" lon="12.5796309"><ele>579.6666666666666</ele><time>2026-05-01T13:49:35.505Z</time></trkpt><trkpt lat="43.5602758" lon="12.5795307"><ele>586.0</ele><time>2026-05-01T13:49:36.505Z</time></trkpt><trkpt lat="43.5602401" lon="12.5794385"><ele>592.3333333333333</ele><time>2026-05-01T13:49:37.504Z</time></trkpt><trkpt lat="43.5602378" lon="12.5793436"><ele>598.6666666666666</ele><time>2026-05-01T13:49:38.505Z</time></trkpt><trkpt lat="43.5602595" lon="12.5792564"><ele>605.0</ele><time>2026-05-01T13:49:39.505Z</time></trkpt><trkpt lat="43.560288" lon="12.5791769"><ele>605.8333333333333</ele><time>2026-05-01T13:49:40.504Z</time></trkpt><trkpt lat="43.5603323" lon="12.5791046"><ele>606.6666666666666</ele><time>2026-05-01T13:49:41.504Z</time></trkpt><trkpt lat="43.5603759" lon="12.5790343"><ele>607.5</ele><time>2026-05-01T13:49:42.505Z</time></trkpt><trkpt lat="43.5604295" lon="12.5789313"><ele>608.3333333333334</ele><time>2026-05-01T13:49:44.505Z</time></trkpt><trkpt lat="43.5604655" lon="12.5788377"><ele>609.1666666666667</ele><time>2026-05-01T13:49:46.504Z</time></trkpt><trkpt lat="43.5605105" lon="12.5786862"><ele>610.0</ele><time>2026-05-01T13:49:48.504Z</time></trkpt><trkpt lat="43.560552" lon="12.5786104"><ele>604.8</ele><time>2026-05-01T13:49:49.505Z</time></trkpt><trkpt lat="43.5605753" lon="12.5784995"><ele>599.6</ele><time>2026-05-01T13:49:50.505Z</time></trkpt><trkpt lat="43.5605929" lon="12.57837"><ele>594.4</ele><time>2026-05-01T13:49:51.505Z</time></trkpt><trkpt lat="43.5606007" lon="12.578241"><ele>589.2</ele><time>2026-05-01T13:49:52.505Z</time></trkpt><trkpt lat="43.5605925" lon="12.5780816"><ele>584.0</ele><time>2026-05-01T13:49:53.505Z</time></trkpt><trkpt lat="43.5606046" lon="12.5779365"><ele>585.0</ele><time>2026-05-01T13:49:54.504Z</time></trkpt><trkpt lat="43.5606283" lon="12.5778083"><ele>586.0</ele><time>2026-05-01T13:49:55.505Z</time></trkpt><trkpt lat="43.5606295" lon="12.5776923"><ele>587.0</ele><time>2026-05-01T13:49:56.504Z</time></trkpt><trkpt lat="43.5606307" lon="12.5775688"><ele>588.0</ele><time>2026-05-01T13:49:57.504Z</time></trkpt><trkpt lat="43.5606202" lon="12.577437"><ele>589.0</ele><time>2026-05-01T13:49:58.505Z</time></trkpt><trkpt lat="43.5605937" lon="12.5773198"><ele>589.0</ele><time>2026-05-01T13:49:59.505Z</time></trkpt><trkpt lat="43.5605466" lon="12.5771887"><ele>589.0</ele><time>2026-05-01T13:50:00.505Z</time></trkpt><trkpt lat="43.5605096" lon="12.5770512"><ele>589.0</ele><time>2026-05-01T13:50:01.505Z</time></trkpt><trkpt lat="43.5604821" lon="12.5769289"><ele>589.0</ele><time>2026-05-01T13:50:02.505Z</time></trkpt><trkpt lat="43.5604407" lon="12.576796"><ele>589.0</ele><time>2026-05-01T13:50:03.505Z</time></trkpt><trkpt lat="43.560385" lon="12.5766311"><ele>596.75</ele><time>2026-05-01T13:50:04.505Z</time></trkpt><trkpt lat="43.5603252" lon="12.576474"><ele>604.5</ele><time>2026-05-01T13:50:05.505Z</time></trkpt><trkpt lat="43.5602631" lon="12.5763021"><ele>612.25</ele><time>2026-05-01T13:50:06.505Z</time></trkpt><trkpt lat="43.5601993" lon="12.5761387"><ele>620.0</ele><time>2026-05-01T13:50:07.505Z</time></trkpt><trkpt lat="43.5601256" lon="12.5759626"><ele>620.0</ele><time>2026-05-01T13:50:08.504Z</time></trkpt><trkpt lat="43.5600431" lon="12.5758049"><ele>620.0</ele><time>2026-05-01T13:50:09.504Z</time></trkpt><trkpt lat="43.5599529" lon="12.5756579"><ele>620.0</ele><time>2026-05-01T13:50:10.504Z</time></trkpt><trkpt lat="43.5598736" lon="12.5755248"><ele>620.0</ele><time>2026-05-01T13:50:11.505Z</time></trkpt><trkpt lat="43.5598027" lon="12.5754239"><ele>616.25</ele><time>2026-05-01T13:50:12.505Z</time></trkpt><trkpt lat="43.5597368" lon="12.5752833"><ele>612.5</ele><time>2026-05-01T13:50:13.505Z</time></trkpt><trkpt lat="43.5596854" lon="12.5751309"><ele>608.75</ele><time>2026-05-01T13:50:14.505Z</time></trkpt><trkpt lat="43.5596307" lon="12.5749745"><ele>605.0</ele><time>2026-05-01T13:50:15.505Z</time></trkpt><trkpt lat="43.559591" lon="12.5748501"><ele>605.0</ele><time>2026-05-01T13:50:16.504Z</time></trkpt><trkpt lat="43.5595735" lon="12.574757"><ele>605.0</ele><time>2026-05-01T13:50:17.505Z</time></trkpt><trkpt lat="43.5595096" lon="12.5746369"><ele>605.0</ele><time>2026-05-01T13:50:19.505Z</time></trkpt><trkpt lat="43.5593916" lon="12.5745829"><ele>605.0</ele><time>2026-05-01T13:50:21.504Z</time></trkpt><trkpt lat="43.5593169" lon="12.5745913"><ele>605.0</ele><time>2026-05-01T13:50:22.505Z</time></trkpt><trkpt lat="43.559232" lon="12.5746274"><ele>613.2</ele><time>2026-05-01T13:50:23.504Z</time></trkpt><trkpt lat="43.5591439" lon="12.5746836"><ele>621.4</ele><time>2026-05-01T13:50:24.505Z</time></trkpt><trkpt lat="43.5590478" lon="12.5747485"><ele>629.5999999999999</ele><time>2026-05-01T13:50:25.504Z</time></trkpt><trkpt lat="43.5589464" lon="12.5747945"><ele>637.8</ele><time>2026-05-01T13:50:26.505Z</time></trkpt><trkpt lat="43.5588612" lon="12.5748221"><ele>646.0</ele><time>2026-05-01T13:50:27.504Z</time></trkpt><trkpt lat="43.5587343" lon="12.5748002"><ele>642.8</ele><time>2026-05-01T13:50:29.505Z</time></trkpt><trkpt lat="43.5586556" lon="12.5747468"><ele>639.5999999999999</ele><time>2026-05-01T13:50:30.505Z</time></trkpt><trkpt lat="43.5585824" lon="12.5746731"><ele>636.4</ele><time>2026-05-01T13:50:31.505Z</time></trkpt><trkpt lat="43.5585061" lon="12.5746005"><ele>633.2</ele><time>2026-05-01T13:50:32.505Z</time></trkpt><trkpt lat="43.5584248" lon="12.5745597"><ele>630.0</ele><time>2026-05-01T13:50:33.505Z</time></trkpt><trkpt lat="43.5583387" lon="12.5745071"><ele>630.0</ele><time>2026-05-01T13:50:34.505Z</time></trkpt><trkpt lat="43.5582557" lon="12.5744341"><ele>630.0</ele><time>2026-05-01T13:50:35.505Z</time></trkpt><trkpt lat="43.5581667" lon="12.5743725"><ele>630.0</ele><time>2026-05-01T13:50:36.505Z</time></trkpt><trkpt lat="43.5580783" lon="12.5743347"><ele>630.0</ele><time>2026-05-01T13:50:37.505Z</time></trkpt><trkpt lat="43.5579871" lon="12.5743095"><ele>630.0</ele><time>2026-05-01T13:50:38.505Z</time></trkpt><trkpt lat="43.5579042" lon="12.5742778"><ele>638.0</ele><time>2026-05-01T13:50:39.505Z</time></trkpt><trkpt lat="43.5578319" lon="12.5742649"><ele>646.0</ele><time>2026-05-01T13:50:40.505Z</time></trkpt><trkpt lat="43.5577749" lon="12.5742172"><ele>654.0</ele><time>2026-05-01T13:50:41.505Z</time></trkpt><trkpt lat="43.557674" lon="12.5740831"><ele>662.0</ele><time>2026-05-01T13:50:43.504Z</time></trkpt><trkpt lat="43.5576183" lon="12.574004"><ele>670.0</ele><time>2026-05-01T13:50:44.505Z</time></trkpt><trkpt lat="43.5575543" lon="12.5739173"><ele>678.0</ele><time>2026-05-01T13:50:45.505Z</time></trkpt><trkpt lat="43.5574921" lon="12.5738186"><ele>678.0</ele><time>2026-05-01T13:50:46.504Z</time></trkpt><trkpt lat="43.5574399" lon="12.5737116"><ele>678.0</ele><time>2026-05-01T13:50:47.505Z</time></trkpt><trkpt lat="43.557387" lon="12.5735987"><ele>678.0</ele><time>2026-05-01T13:50:48.505Z</time></trkpt><trkpt lat="43.5573475" lon="12.5734733"><ele>678.0</ele><time>2026-05-01T13:50:49.504Z</time></trkpt><trkpt lat="43.5573077" lon="12.5733223"><ele>678.0</ele><time>2026-05-01T13:50:50.505Z</time></trkpt><trkpt lat="43.5572757" lon="12.5731635"><ele>673.5</ele><time>2026-05-01T13:50:51.505Z</time></trkpt><trkpt lat="43.5572564" lon="12.573008"><ele>669.0</ele><time>2026-05-01T13:50:52.505Z</time></trkpt><trkpt lat="43.5572553" lon="12.5728427"><ele>664.5</ele><time>2026-05-01T13:50:53.505Z</time></trkpt><trkpt lat="43.5572587" lon="12.5726707"><ele>660.0</ele><time>2026-05-01T13:50:54.505Z</time></trkpt><trkpt lat="43.5572589" lon="12.5725008"><ele>659.8</ele><time>2026-05-01T13:50:55.505Z</time></trkpt><trkpt lat="43.5572622" lon="12.5723439"><ele>659.6</ele><time>2026-05-01T13:50:56.505Z</time></trkpt><trkpt lat="43.5572801" lon="12.572195"><ele>659.4000000000001</ele><time>2026-05-01T13:50:57.505Z</time></trkpt><trkpt lat="43.5572922" lon="12.5720795"><ele>659.2</ele><time>2026-05-01T13:50:58.505Z</time></trkpt><trkpt lat="43.5572889" lon="12.5719839"><ele>659.0</ele><time>2026-05-01T13:50:59.504Z</time></trkpt><trkpt lat="43.5572173" lon="12.5718624"><ele>658.0</ele><time>2026-05-01T13:51:01.504Z</time></trkpt><trkpt lat="43.5571505" lon="12.5718297"><ele>657.0</ele><time>2026-05-01T13:51:02.505Z</time></trkpt><trkpt lat="43.557081" lon="12.5718112"><ele>656.0</ele><time>2026-05-01T13:51:03.505Z</time></trkpt><trkpt lat="43.5570136" lon="12.5717979"><ele>655.0</ele><time>2026-05-01T13:51:04.504Z</time></trkpt><trkpt lat="43.5569466" lon="12.5717951"><ele>654.0</ele><time>2026-05-01T13:51:05.505Z</time></trkpt><trkpt lat="43.5568741" lon="12.5717776"><ele>653.0</ele><time>2026-05-01T13:51:06.504Z</time></trkpt><trkpt lat="43.5568061" lon="12.5717469"><ele>652.0</ele><time>2026-05-01T13:51:07.505Z</time></trkpt><trkpt lat="43.5567461" lon="12.5716939"><ele>657.8333333333334</ele><time>2026-05-01T13:51:08.505Z</time></trkpt><trkpt lat="43.5566703" lon="12.5716445"><ele>663.6666666666667</ele><time>2026-05-01T13:51:09.505Z</time></trkpt><trkpt lat="43.5565907" lon="12.5716002"><ele>669.5</ele><time>2026-05-01T13:51:10.505Z</time></trkpt><trkpt lat="43.5565074" lon="12.5715675"><ele>675.3333333333334</ele><time>2026-05-01T13:51:11.505Z</time></trkpt><trkpt lat="43.5564388" lon="12.5715201"><ele>681.1666666666666</ele><time>2026-05-01T13:51:12.505Z</time></trkpt><trkpt lat="43.5563774" lon="12.5714606"><ele>687.0</ele><time>2026-05-01T13:51:13.505Z</time></trkpt><trkpt lat="43.5563269" lon="12.5713992"><ele>687.0</ele><time>2026-05-01T13:51:14.505Z</time></trkpt><trkpt lat="43.5562832" lon="12.5713185"><ele>687.0</ele><time>2026-05-01T13:51:15.505Z</time></trkpt><trkpt lat="43.556254" lon="12.5712013"><ele>687.0</ele><time>2026-05-01T13:51:16.504Z</time></trkpt><trkpt lat="43.5562264" lon="12.5710831"><ele>687.0</ele><time>2026-05-01T13:51:17.505Z</time></trkpt><trkpt lat="43.5561961" lon="12.5709581"><ele>687.0</ele><time>2026-05-01T13:51:18.505Z</time></trkpt><trkpt lat="43.556156" lon="12.5708276"><ele>690.8</ele><time>2026-05-01T13:51:19.505Z</time></trkpt><trkpt lat="43.5561174" lon="12.5706759"><ele>694.6</ele><time>2026-05-01T13:51:20.505Z</time></trkpt><trkpt lat="43.5560868" lon="12.5705495"><ele>698.4</ele><time>2026-05-01T13:51:21.504Z</time></trkpt><trkpt lat="43.5560496" lon="12.5704088"><ele>702.1999999999999</ele><time>2026-05-01T13:51:22.505Z</time></trkpt><trkpt lat="43.5560198" lon="12.5702891"><ele>706.0</ele><time>2026-05-01T13:51:23.505Z</time></trkpt><trkpt lat="43.555992" lon="12.5701794"><ele>706.0</ele><time>2026-05-01T13:51:24.505Z</time></trkpt><trkpt lat="43.5559748" lon="12.5700814"><ele>706.0</ele><time>2026-05-01T13:51:25.504Z</time></trkpt><trkpt lat="43.5559717" lon="12.5699627"><ele>706.0</ele><time>2026-05-01T13:51:26.505Z</time></trkpt><trkpt lat="43.5559975" lon="12.5698563"><ele>706.0</ele><time>2026-05-01T13:51:27.504Z</time></trkpt><trkpt lat="43.5560195" lon="12.5697675"><ele>706.0</ele><time>2026-05-01T13:51:28.505Z</time></trkpt><trkpt lat="43.5559363" lon="12.5696485"><ele>706.0</ele><time>2026-05-01T13:51:30.505Z</time></trkpt><trkpt lat="43.5558414" lon="12.5696602"><ele>706.0</ele><time>2026-05-01T13:51:32.505Z</time></trkpt><trkpt lat="43.5557983" lon="12.5698126"><ele>706.0</ele><time>2026-05-01T13:51:34.505Z</time></trkpt><trkpt lat="43.5557753" lon="12.569948"><ele>706.0</ele><time>2026-05-01T13:51:35.504Z</time></trkpt><trkpt lat="43.5557616" lon="12.5700969"><ele>706.0</ele><time>2026-05-01T13:51:36.504Z</time></trkpt><trkpt lat="43.555747" lon="12.5702418"><ele>706.0</ele><time>2026-05-01T13:51:37.505Z</time></trkpt><trkpt lat="43.5557432" lon="12.5703873"><ele>708.0</ele><time>2026-05-01T13:51:38.505Z</time></trkpt><trkpt lat="43.5557512" lon="12.5705327"><ele>710.0</ele><time>2026-05-01T13:51:39.504Z</time></trkpt><trkpt lat="43.5557713" lon="12.5706927"><ele>712.0</ele><time>2026-05-01T13:51:40.505Z</time></trkpt><trkpt lat="43.5557888" lon="12.5708337"><ele>714.0</ele><time>2026-05-01T13:51:41.505Z</time></trkpt><trkpt lat="43.5558069" lon="12.5709648"><ele>716.0</ele><time>2026-05-01T13:51:42.504Z</time></trkpt><trkpt lat="43.5558209" lon="12.5710894"><ele>718.8</ele><time>2026-05-01T13:51:43.504Z</time></trkpt><trkpt lat="43.5558269" lon="12.57121"><ele>721.5999999999999</ele><time>2026-05-01T13:51:44.505Z</time></trkpt><trkpt lat="43.5558264" lon="12.5713343"><ele>724.4</ele><time>2026-05-01T13:51:45.504Z</time></trkpt><trkpt lat="43.5558235" lon="12.5714624"><ele>727.2</ele><time>2026-05-01T13:51:46.505Z</time></trkpt><trkpt lat="43.555821" lon="12.571586"><ele>730.0</ele><time>2026-05-01T13:51:47.504Z</time></trkpt><trkpt lat="43.5558521" lon="12.5717019"><ele>730.0</ele><time>2026-05-01T13:51:48.505Z</time></trkpt><trkpt lat="43.5558979" lon="12.5718163"><ele>730.0</ele><time>2026-05-01T13:51:49.505Z</time></trkpt><trkpt lat="43.5559507" lon="12.5719234"><ele>730.0</ele><time>2026-05-01T13:51:50.505Z</time></trkpt><trkpt lat="43.5560139" lon="12.5720286"><ele>730.0</ele><time>2026-05-01T13:51:51.505Z</time></trkpt><trkpt lat="43.5560906" lon="12.5721322"><ele>730.0</ele><time>2026-05-01T13:51:52.504Z</time></trkpt><trkpt lat="43.5561742" lon="12.5722104"><ele>726.4</ele><time>2026-05-01T13:51:53.505Z</time></trkpt><trkpt lat="43.5562528" lon="12.5722684"><ele>722.8</ele><time>2026-05-01T13:51:54.505Z</time></trkpt><trkpt lat="43.5563237" lon="12.5723353"><ele>719.2</ele><time>2026-05-01T13:51:55.505Z</time></trkpt><trkpt lat="43.5563859" lon="12.57242"><ele>715.6</ele><time>2026-05-01T13:51:56.505Z</time></trkpt><trkpt lat="43.5564318" lon="12.5725038"><ele>712.0</ele><time>2026-05-01T13:51:57.505Z</time></trkpt><trkpt lat="43.5564943" lon="12.5726494"><ele>712.0</ele><time>2026-05-01T13:51:59.505Z</time></trkpt><trkpt lat="43.5564991" lon="12.5728036"><ele>712.0</ele><time>2026-05-01T13:52:01.505Z</time></trkpt><trkpt lat="43.5564852" lon="12.5729098"><ele>712.0</ele><time>2026-05-01T13:52:02.504Z</time></trkpt><trkpt lat="43.5564664" lon="12.573028"><ele>712.0</ele><time>2026-05-01T13:52:03.505Z</time></trkpt><trkpt lat="43.5564431" lon="12.5731563"><ele>712.0</ele><time>2026-05-01T13:52:04.505Z</time></trkpt><trkpt lat="43.5564311" lon="12.5732951"><ele>714.6</ele><time>2026-05-01T13:52:05.504Z</time></trkpt><trkpt lat="43.5564224" lon="12.5734273"><ele>717.2</ele><time>2026-05-01T13:52:06.505Z</time></trkpt><trkpt lat="43.5564232" lon="12.5735766"><ele>719.8</ele><time>2026-05-01T13:52:07.504Z</time></trkpt><trkpt lat="43.5564337" lon="12.5737255"><ele>722.4</ele><time>2026-05-01T13:52:08.505Z</time></trkpt><trkpt lat="43.5564446" lon="12.5738685"><ele>725.0</ele><time>2026-05-01T13:52:09.505Z</time></trkpt><trkpt lat="43.5564552" lon="12.5740184"><ele>726.5</ele><time>2026-05-01T13:52:10.505Z</time></trkpt><trkpt lat="43.5564665" lon="12.5741311"><ele>728.0</ele><time>2026-05-01T13:52:11.505Z</time></trkpt><trkpt lat="43.5564673" lon="12.5742323"><ele>729.5</ele><time>2026-05-01T13:52:12.504Z</time></trkpt><trkpt lat="43.5564635" lon="12.5743389"><ele>731.0</ele><time>2026-05-01T13:52:13.505Z</time></trkpt><trkpt lat="43.5564415" lon="12.5744539"><ele>732.5</ele><time>2026-05-01T13:52:14.504Z</time></trkpt><trkpt lat="43.556424" lon="12.574589"><ele>734.0</ele><time>2026-05-01T13:52:15.505Z</time></trkpt><trkpt lat="43.5564112" lon="12.5747192"><ele>737.4000000000001</ele><time>2026-05-01T13:52:16.505Z</time></trkpt><trkpt lat="43.5564119" lon="12.5748579"><ele>740.8</ele><time>2026-05-01T13:52:17.505Z</time></trkpt><trkpt lat="43.556444" lon="12.575002"><ele>744.2</ele><time>2026-05-01T13:52:18.504Z</time></trkpt><trkpt lat="43.5564934" lon="12.5751422"><ele>747.5999999999999</ele><time>2026-05-01T13:52:19.505Z</time></trkpt><trkpt lat="43.5565521" lon="12.5752755"><ele>751.0</ele><time>2026-05-01T13:52:20.505Z</time></trkpt><trkpt lat="43.5566036" lon="12.5753907"><ele>758.0</ele><time>2026-05-01T13:52:21.505Z</time></trkpt><trkpt lat="43.5566419" lon="12.5755268"><ele>765.0</ele><time>2026-05-01T13:52:22.505Z</time></trkpt><trkpt lat="43.5566868" lon="12.5756688"><ele>772.0</ele><time>2026-05-01T13:52:23.505Z</time></trkpt><trkpt lat="43.5567441" lon="12.5757971"><ele>779.0</ele><time>2026-05-01T13:52:24.505Z</time></trkpt><trkpt lat="43.5568592" lon="12.5758893"><ele>779.0</ele><time>2026-05-01T13:52:25.504Z</time></trkpt><trkpt lat="43.5569664" lon="12.5759686"><ele>779.0</ele><time>2026-05-01T13:52:26.505Z</time></trkpt><trkpt lat="43.5570821" lon="12.5760208"><ele>779.0</ele><time>2026-05-01T13:52:27.504Z</time></trkpt><trkpt lat="43.5571933" lon="12.5760585"><ele>779.0</ele><time>2026-05-01T13:52:28.505Z</time></trkpt><trkpt lat="43.5573147" lon="12.5760965"><ele>777.2</ele><time>2026-05-01T13:52:29.505Z</time></trkpt><trkpt lat="43.55741" lon="12.5761343"><ele>775.4000000000001</ele><time>2026-05-01T13:52:30.504Z</time></trkpt><trkpt lat="43.5574841" lon="12.5761707"><ele>773.6</ele><time>2026-05-01T13:52:31.505Z</time></trkpt><trkpt lat="43.557585" lon="12.5762721"><ele>771.8</ele><time>2026-05-01T13:52:33.504Z</time></trkpt><trkpt lat="43.5576505" lon="12.57642"><ele>770.0</ele><time>2026-05-01T13:52:35.505Z</time></trkpt><trkpt lat="43.557648" lon="12.5765617"><ele>770.0000000000001</ele><time>2026-05-01T13:52:37.505Z</time></trkpt><trkpt lat="43.557574" lon="12.5766829"><ele>770.0</ele><time>2026-05-01T13:52:39.505Z</time></trkpt><trkpt lat="43.5575216" lon="12.5767357"><ele>770.0</ele><time>2026-05-01T13:52:40.505Z</time></trkpt><trkpt lat="43.5574602" lon="12.5767823"><ele>770.0</ele><time>2026-05-01T13:52:41.504Z</time></trkpt><trkpt lat="43.5573893" lon="12.5768343"><ele>770.0000000000001</ele><time>2026-05-01T13:52:42.505Z</time></trkpt><trkpt lat="43.557329" lon="12.5769072"><ele>770.0</ele><time>2026-05-01T13:52:43.505Z</time></trkpt><trkpt lat="43.557289" lon="12.5770011"><ele>768.0</ele><time>2026-05-01T13:52:44.505Z</time></trkpt><trkpt lat="43.5572537" lon="12.5771286"><ele>766.0</ele><time>2026-05-01T13:52:45.505Z</time></trkpt><trkpt lat="43.5572242" lon="12.5772604"><ele>764.0</ele><time>2026-05-01T13:52:46.505Z</time></trkpt><trkpt lat="43.5571891" lon="12.5774068"><ele>762.0</ele><time>2026-05-01T13:52:47.505Z</time></trkpt><trkpt lat="43.5571521" lon="12.577525"><ele>760.0</ele><time>2026-05-01T13:52:48.504Z</time></trkpt><trkpt lat="43.5571018" lon="12.5776164"><ele>760.0</ele><time>2026-05-01T13:52:49.505Z</time></trkpt><trkpt lat="43.5570498" lon="12.5777061"><ele>760.0</ele><time>2026-05-01T13:52:50.505Z</time></trkpt><trkpt lat="43.5569924" lon="12.5777868"><ele>760.0</ele><time>2026-05-01T13:52:51.505Z</time></trkpt><trkpt lat="43.5569305" lon="12.5778676"><ele>760.0</ele><time>2026-05-01T13:52:52.504Z</time></trkpt><trkpt lat="43.5568514" lon="12.5779567"><ele>760.0</ele><time>2026-05-01T13:52:53.505Z</time></trkpt><trkpt lat="43.5567621" lon="12.5780077"><ele>760.0</ele><time>2026-05-01T13:52:54.504Z</time></trkpt><trkpt lat="43.5566711" lon="12.5780625"><ele>764.2</ele><time>2026-05-01T13:52:55.505Z</time></trkpt><trkpt lat="43.5565913" lon="12.5780935"><ele>768.4</ele><time>2026-05-01T13:52:56.505Z</time></trkpt><trkpt lat="43.5565015" lon="12.5780995"><ele>772.5999999999999</ele><time>2026-05-01T13:52:57.505Z</time></trkpt><trkpt lat="43.5564104" lon="12.5780889"><ele>776.8</ele><time>2026-05-01T13:52:58.505Z</time></trkpt><trkpt lat="43.5563038" lon="12.578087"><ele>781.0</ele><time>2026-05-01T13:52:59.505Z</time></trkpt><trkpt lat="43.5562" lon="12.5780955"><ele>784.5999999999999</ele><time>2026-05-01T13:53:00.505Z</time></trkpt><trkpt lat="43.5561006" lon="12.5781193"><ele>788.2</ele><time>2026-05-01T13:53:01.505Z</time></trkpt><trkpt lat="43.5560053" lon="12.5781551"><ele>791.8</ele><time>2026-05-01T13:53:02.505Z</time></trkpt><trkpt lat="43.5559187" lon="12.5781876"><ele>795.4000000000001</ele><time>2026-05-01T13:53:03.505Z</time></trkpt><trkpt lat="43.5558219" lon="12.5782134"><ele>799.0</ele><time>2026-05-01T13:53:04.505Z</time></trkpt><trkpt lat="43.5557261" lon="12.5782308"><ele>799.0</ele><time>2026-05-01T13:53:05.505Z</time></trkpt><trkpt lat="43.5556227" lon="12.5782431"><ele>799.0</ele><time>2026-05-01T13:53:06.504Z</time></trkpt><trkpt lat="43.5555163" lon="12.5782414"><ele>799.0</ele><time>2026-05-01T13:53:07.504Z</time></trkpt><trkpt lat="43.5553953" lon="12.5782417"><ele>799.0</ele><time>2026-05-01T13:53:08.505Z</time></trkpt><trkpt lat="43.5552769" lon="12.5782291"><ele>801.25</ele><time>2026-05-01T13:53:09.504Z</time></trkpt><trkpt lat="43.5551501" lon="12.5782105"><ele>803.5</ele><time>2026-05-01T13:53:10.504Z</time></trkpt><trkpt lat="43.5550065" lon="12.5781977"><ele>805.75</ele><time>2026-05-01T13:53:11.505Z</time></trkpt><trkpt lat="43.5548775" lon="12.5781967"><ele>808.0</ele><time>2026-05-01T13:53:12.505Z</time></trkpt><trkpt lat="43.5547627" lon="12.5781847"><ele>808.0</ele><time>2026-05-01T13:53:13.504Z</time></trkpt><trkpt lat="43.5546511" lon="12.5781805"><ele>808.0</ele><time>2026-05-01T13:53:14.504Z</time></trkpt><trkpt lat="43.5545425" lon="12.5782014"><ele>808.0</ele><time>2026-05-01T13:53:15.505Z</time></trkpt><trkpt lat="43.5544258" lon="12.5782553"><ele>808.0</ele><time>2026-05-01T13:53:16.505Z</time></trkpt><trkpt lat="43.554309" lon="12.5783204"><ele>814.0</ele><time>2026-05-01T13:53:17.505Z</time></trkpt><trkpt lat="43.5542106" lon="12.5784006"><ele>820.0</ele><time>2026-05-01T13:53:18.505Z</time></trkpt><trkpt lat="43.5541117" lon="12.5784863"><ele>826.0</ele><time>2026-05-01T13:53:19.505Z</time></trkpt><trkpt lat="43.5540121" lon="12.5785865"><ele>832.0</ele><time>2026-05-01T13:53:20.505Z</time></trkpt><trkpt lat="43.5539095" lon="12.5786824"><ele>832.75</ele><time>2026-05-01T13:53:21.504Z</time></trkpt><trkpt lat="43.5538088" lon="12.5787851"><ele>833.5</ele><time>2026-05-01T13:53:22.504Z</time></trkpt><trkpt lat="43.5537156" lon="12.5788712"><ele>834.25</ele><time>2026-05-01T13:53:23.505Z</time></trkpt><trkpt lat="43.553619" lon="12.578945"><ele>835.0</ele><time>2026-05-01T13:53:24.505Z</time></trkpt><trkpt lat="43.5534969" lon="12.5790174"><ele>835.0</ele><time>2026-05-01T13:53:25.505Z</time></trkpt><trkpt lat="43.5533813" lon="12.5790958"><ele>835.0</ele><time>2026-05-01T13:53:26.504Z</time></trkpt><trkpt lat="43.5532561" lon="12.5791818"><ele>835.0</ele><time>2026-05-01T13:53:27.504Z</time></trkpt><trkpt lat="43.5531193" lon="12.5792703"><ele>835.0</ele><time>2026-05-01T13:53:28.505Z</time></trkpt><trkpt lat="43.5529826" lon="12.5793662"><ele>834.5</ele><time>2026-05-01T13:53:29.505Z</time></trkpt><trkpt lat="43.5528461" lon="12.5794511"><ele>834.0</ele><time>2026-05-01T13:53:30.504Z</time></trkpt><trkpt lat="43.5527166" lon="12.5795614"><ele>833.5</ele><time>2026-05-01T13:53:31.504Z</time></trkpt><trkpt lat="43.5526039" lon="12.5796555"><ele>833.0</ele><time>2026-05-01T13:53:32.504Z</time></trkpt><trkpt lat="43.5524934" lon="12.5797464"><ele>833.0</ele><time>2026-05-01T13:53:33.505Z</time></trkpt><trkpt lat="43.5523734" lon="12.5798294"><ele>833.0</ele><time>2026-05-01T13:53:34.505Z</time></trkpt><trkpt lat="43.5522508" lon="12.5799159"><ele>833.0</ele><time>2026-05-01T13:53:35.505Z</time></trkpt><trkpt lat="43.5521343" lon="12.5800044"><ele>833.0</ele><time>2026-05-01T13:53:36.504Z</time></trkpt><trkpt lat="43.5520161" lon="12.5800809"><ele>832.0</ele><time>2026-05-01T13:53:37.505Z</time></trkpt><trkpt lat="43.5518964" lon="12.5801478"><ele>831.0</ele><time>2026-05-01T13:53:38.505Z</time></trkpt><trkpt lat="43.5517803" lon="12.580226"><ele>830.0</ele><time>2026-05-01T13:53:39.505Z</time></trkpt><trkpt lat="43.5516684" lon="12.5803042"><ele>829.0</ele><time>2026-05-01T13:53:40.505Z</time></trkpt><trkpt lat="43.5515493" lon="12.5803876"><ele>829.0</ele><time>2026-05-01T13:53:41.505Z</time></trkpt><trkpt lat="43.5514365" lon="12.5804682"><ele>829.0</ele><time>2026-05-01T13:53:42.505Z</time></trkpt><trkpt lat="43.5513267" lon="12.5805488"><ele>829.0</ele><time>2026-05-01T13:53:43.504Z</time></trkpt><trkpt lat="43.5512193" lon="12.5806265"><ele>829.0</ele><time>2026-05-01T13:53:44.505Z</time></trkpt><trkpt lat="43.5511292" lon="12.580727"><ele>835.6</ele><time>2026-05-01T13:53:45.504Z</time></trkpt><trkpt lat="43.5510626" lon="12.5808296"><ele>842.2</ele><time>2026-05-01T13:53:46.505Z</time></trkpt><trkpt lat="43.5510037" lon="12.5809354"><ele>848.8000000000001</ele><time>2026-05-01T13:53:47.504Z</time></trkpt><trkpt lat="43.5509509" lon="12.5810573"><ele>855.4000000000001</ele><time>2026-05-01T13:53:48.505Z</time></trkpt><trkpt lat="43.550907" lon="12.5811729"><ele>862.0</ele><time>2026-05-01T13:53:49.504Z</time></trkpt><trkpt lat="43.5508722" lon="12.5813068"><ele>862.0</ele><time>2026-05-01T13:53:50.505Z</time></trkpt><trkpt lat="43.5508383" lon="12.5814438"><ele>862.0</ele><time>2026-05-01T13:53:51.505Z</time></trkpt><trkpt lat="43.5508004" lon="12.5815812"><ele>862.0</ele><time>2026-05-01T13:53:52.505Z</time></trkpt><trkpt lat="43.5507598" lon="12.5817454"><ele>862.0</ele><time>2026-05-01T13:53:53.505Z</time></trkpt><trkpt lat="43.5507283" lon="12.5819082"><ele>859.5</ele><time>2026-05-01T13:53:54.505Z</time></trkpt><trkpt lat="43.5506947" lon="12.5820899"><ele>857.0</ele><time>2026-05-01T13:53:55.505Z</time></trkpt><trkpt lat="43.5506611" lon="12.5822598"><ele>854.5</ele><time>2026-05-01T13:53:56.504Z</time></trkpt><trkpt lat="43.5506253" lon="12.5824257"><ele>852.0</ele><time>2026-05-01T13:53:57.505Z</time></trkpt><trkpt lat="43.5505974" lon="12.5825939"><ele>852.0</ele><time>2026-05-01T13:53:58.505Z</time></trkpt><trkpt lat="43.5505637" lon="12.5827461"><ele>852.0</ele><time>2026-05-01T13:53:59.505Z</time></trkpt><trkpt lat="43.5505309" lon="12.5828919"><ele>852.0</ele><time>2026-05-01T13:54:00.505Z</time></trkpt><trkpt lat="43.5505011" lon="12.5830384"><ele>852.0</ele><time>2026-05-01T13:54:01.505Z</time></trkpt><trkpt lat="43.5504648" lon="12.583185"><ele>852.0</ele><time>2026-05-01T13:54:02.505Z</time></trkpt><trkpt lat="43.5504274" lon="12.5833086"><ele>850.25</ele><time>2026-05-01T13:54:03.505Z</time></trkpt><trkpt lat="43.5503796" lon="12.5834586"><ele>848.5</ele><time>2026-05-01T13:54:04.505Z</time></trkpt><trkpt lat="43.5503355" lon="12.5836294"><ele>846.75</ele><time>2026-05-01T13:54:05.505Z</time></trkpt><trkpt lat="43.5502918" lon="12.5838617"><ele>845.0</ele><time>2026-05-01T13:54:06.504Z</time></trkpt><trkpt lat="43.5502493" lon="12.5840601"><ele>856.25</ele><time>2026-05-01T13:54:07.504Z</time></trkpt><trkpt lat="43.5502071" lon="12.5842408"><ele>867.5</ele><time>2026-05-01T13:54:08.505Z</time></trkpt><trkpt lat="43.5501766" lon="12.5844052"><ele>878.75</ele><time>2026-05-01T13:54:09.505Z</time></trkpt><trkpt lat="43.5501392" lon="12.5845572"><ele>890.0</ele><time>2026-05-01T13:54:10.505Z</time></trkpt><trkpt lat="43.5500991" lon="12.5847146"><ele>890.0</ele><time>2026-05-01T13:54:11.505Z</time></trkpt><trkpt lat="43.5500701" lon="12.5848755"><ele>890.0</ele><time>2026-05-01T13:54:12.505Z</time></trkpt><trkpt lat="43.5500377" lon="12.5850425"><ele>890.0</ele><time>2026-05-01T13:54:13.505Z</time></trkpt><trkpt lat="43.5500225" lon="12.5852212"><ele>890.0</ele><time>2026-05-01T13:54:14.505Z</time></trkpt><trkpt lat="43.550011" lon="12.58541"><ele>890.25</ele><time>2026-05-01T13:54:15.505Z</time></trkpt><trkpt lat="43.5500053" lon="12.5856041"><ele>890.5</ele><time>2026-05-01T13:54:16.505Z</time></trkpt><trkpt lat="43.5499908" lon="12.585788"><ele>890.75</ele><time>2026-05-01T13:54:17.505Z</time></trkpt><trkpt lat="43.5499785" lon="12.5859767"><ele>891.0</ele><time>2026-05-01T13:54:18.505Z</time></trkpt><trkpt lat="43.5499606" lon="12.5861668"><ele>892.0</ele><time>2026-05-01T13:54:19.505Z</time></trkpt><trkpt lat="43.5499402" lon="12.5863705"><ele>893.0</ele><time>2026-05-01T13:54:20.505Z</time></trkpt><trkpt lat="43.5499196" lon="12.5865779"><ele>894.0</ele><time>2026-05-01T13:54:21.504Z</time></trkpt><trkpt lat="43.5499022" lon="12.5867968"><ele>894.0</ele><time>2026-05-01T13:54:22.505Z</time></trkpt><trkpt lat="43.549894" lon="12.5870064"><ele>894.0</ele><time>2026-05-01T13:54:23.505Z</time></trkpt><trkpt lat="43.5498941" lon="12.587191"><ele>894.0</ele><time>2026-05-01T13:54:24.505Z</time></trkpt><trkpt lat="43.5498982" lon="12.587355"><ele>894.0</ele><time>2026-05-01T13:54:25.505Z</time></trkpt><trkpt lat="43.5498884" lon="12.587513"><ele>893.8333333333334</ele><time>2026-05-01T13:54:26.505Z</time></trkpt><trkpt lat="43.549873" lon="12.5876596"><ele>893.6666666666667</ele><time>2026-05-01T13:54:27.505Z</time></trkpt><trkpt lat="43.5498476" lon="12.5877735"><ele>893.5</ele><time>2026-05-01T13:54:28.504Z</time></trkpt><trkpt lat="43.5498069" lon="12.58788"><ele>893.3333333333334</ele><time>2026-05-01T13:54:29.504Z</time></trkpt><trkpt lat="43.5497584" lon="12.5879656"><ele>893.1666666666667</ele><time>2026-05-01T13:54:30.505Z</time></trkpt><trkpt lat="43.5497082" lon="12.5880252"><ele>893.0</ele><time>2026-05-01T13:54:31.505Z</time></trkpt><trkpt lat="43.549645" lon="12.5880605"><ele>891.0</ele><time>2026-05-01T13:54:32.504Z</time></trkpt><trkpt lat="43.5495721" lon="12.5880825"><ele>889.0</ele><time>2026-05-01T13:54:33.505Z</time></trkpt><trkpt lat="43.5494867" lon="12.5880944"><ele>887.0</ele><time>2026-05-01T13:54:34.504Z</time></trkpt><trkpt lat="43.5493915" lon="12.5880967"><ele>885.0</ele><time>2026-05-01T13:54:35.504Z</time></trkpt><trkpt lat="43.5492839" lon="12.5880966"><ele>883.0</ele><time>2026-05-01T13:54:36.505Z</time></trkpt><trkpt lat="43.5491778" lon="12.5881081"><ele>888.25</ele><time>2026-05-01T13:54:37.504Z</time></trkpt><trkpt lat="43.5490591" lon="12.5881284"><ele>893.5</ele><time>2026-05-01T13:54:38.505Z</time></trkpt><trkpt lat="43.5489358" lon="12.5881594"><ele>898.75</ele><time>2026-05-01T13:54:39.505Z</time></trkpt><trkpt lat="43.5488196" lon="12.5881935"><ele>904.0</ele><time>2026-05-01T13:54:40.505Z</time></trkpt><trkpt lat="43.548717" lon="12.5882185"><ele>907.0</ele><time>2026-05-01T13:54:41.504Z</time></trkpt><trkpt lat="43.5486224" lon="12.5882406"><ele>910.0000000000001</ele><time>2026-05-01T13:54:42.504Z</time></trkpt><trkpt lat="43.5485438" lon="12.5882659"><ele>913.0000000000001</ele><time>2026-05-01T13:54:43.505Z</time></trkpt><trkpt lat="43.5484485" lon="12.5882759"><ele>916.0</ele><time>2026-05-01T13:54:45.505Z</time></trkpt><trkpt lat="43.5484689" lon="12.5881391"><ele>919.0</ele><time>2026-05-01T13:54:48.505Z</time></trkpt><trkpt lat="43.5485747" lon="12.5880907"><ele>918.9999999999999</ele><time>2026-05-01T13:54:50.505Z</time></trkpt><trkpt lat="43.5486522" lon="12.5880772"><ele>919.0</ele><time>2026-05-01T13:54:51.505Z</time></trkpt><trkpt lat="43.5487234" lon="12.5880381"><ele>919.0</ele><time>2026-05-01T13:54:52.505Z</time></trkpt><trkpt lat="43.5487924" lon="12.5879769"><ele>919.0</ele><time>2026-05-01T13:54:53.505Z</time></trkpt><trkpt lat="43.5488649" lon="12.5879103"><ele>918.9999999999999</ele><time>2026-05-01T13:54:54.505Z</time></trkpt><trkpt lat="43.5489443" lon="12.5878462"><ele>919.0</ele><time>2026-05-01T13:54:55.505Z</time></trkpt><trkpt lat="43.5490246" lon="12.5877802"><ele>922.0</ele><time>2026-05-01T13:54:56.505Z</time></trkpt><trkpt lat="43.5491097" lon="12.5877265"><ele>925.0000000000001</ele><time>2026-05-01T13:54:57.505Z</time></trkpt><trkpt lat="43.5491828" lon="12.587677"><ele>928.0000000000001</ele><time>2026-05-01T13:54:58.505Z</time></trkpt><trkpt lat="43.5492383" lon="12.5876138"><ele>931.0</ele><time>2026-05-01T13:54:59.505Z</time></trkpt><trkpt lat="43.5492527" lon="12.5874171"><ele>934.0</ele><time>2026-05-01T13:55:01.504Z</time></trkpt><trkpt lat="43.5492493" lon="12.5872967"><ele>934.0</ele><time>2026-05-01T13:55:02.504Z</time></trkpt><trkpt lat="43.5492346" lon="12.5871724"><ele>934.0000000000001</ele><time>2026-05-01T13:55:03.504Z</time></trkpt><trkpt lat="43.5491967" lon="12.5870487"><ele>934.0000000000001</ele><time>2026-05-01T13:55:04.505Z</time></trkpt><trkpt lat="43.5491546" lon="12.5869126"><ele>934.0</ele><time>2026-05-01T13:55:05.505Z</time></trkpt><trkpt lat="43.5491178" lon="12.5867611"><ele>934.0</ele><time>2026-05-01T13:55:06.505Z</time></trkpt><trkpt lat="43.5490858" lon="12.5865845"><ele>935.0</ele><time>2026-05-01T13:55:07.504Z</time></trkpt><trkpt lat="43.5490546" lon="12.5864028"><ele>936.0</ele><time>2026-05-01T13:55:08.504Z</time></trkpt><trkpt lat="43.5490229" lon="12.5862247"><ele>937.0</ele><time>2026-05-01T13:55:09.505Z</time></trkpt><trkpt lat="43.5490038" lon="12.5860452"><ele>938.0</ele><time>2026-05-01T13:55:10.504Z</time></trkpt><trkpt lat="43.5489818" lon="12.5858752"><ele>938.0</ele><time>2026-05-01T13:55:11.505Z</time></trkpt><trkpt lat="43.5489575" lon="12.5857085"><ele>938.0</ele><time>2026-05-01T13:55:12.505Z</time></trkpt><trkpt lat="43.5489352" lon="12.5855397"><ele>938.0</ele><time>2026-05-01T13:55:13.505Z</time></trkpt><trkpt lat="43.5489105" lon="12.5853702"><ele>938.0</ele><time>2026-05-01T13:55:14.505Z</time></trkpt><trkpt lat="43.5488801" lon="12.5851948"><ele>938.5</ele><time>2026-05-01T13:55:15.505Z</time></trkpt><trkpt lat="43.5488517" lon="12.5850273"><ele>939.0</ele><time>2026-05-01T13:55:16.504Z</time></trkpt><trkpt lat="43.5488221" lon="12.5848562"><ele>939.5</ele><time>2026-05-01T13:55:17.505Z</time></trkpt><trkpt lat="43.5487992" lon="12.5846792"><ele>940.0</ele><time>2026-05-01T13:55:18.505Z</time></trkpt><trkpt lat="43.5487803" lon="12.5844957"><ele>940.75</ele><time>2026-05-01T13:55:19.505Z</time></trkpt><trkpt lat="43.5487553" lon="12.5843058"><ele>941.5</ele><time>2026-05-01T13:55:20.505Z</time></trkpt><trkpt lat="43.5487212" lon="12.5841063"><ele>942.25</ele><time>2026-05-01T13:55:21.505Z</time></trkpt><trkpt lat="43.548694" lon="12.5839159"><ele>943.0</ele><time>2026-05-01T13:55:22.504Z</time></trkpt><trkpt lat="43.548679" lon="12.5837362"><ele>955.75</ele><time>2026-05-01T13:55:23.505Z</time></trkpt><trkpt lat="43.5486657" lon="12.5835543"><ele>968.5</ele><time>2026-05-01T13:55:24.505Z</time></trkpt><trkpt lat="43.5486562" lon="12.5833859"><ele>981.25</ele><time>2026-05-01T13:55:25.504Z</time></trkpt><trkpt lat="43.5486478" lon="12.5832272"><ele>994.0</ele><time>2026-05-01T13:55:26.505Z</time></trkpt><trkpt lat="43.5486307" lon="12.5830674"><ele>994.0</ele><time>2026-05-01T13:55:27.505Z</time></trkpt><trkpt lat="43.5486093" lon="12.582901"><ele>994.0</ele><time>2026-05-01T13:55:28.505Z</time></trkpt><trkpt lat="43.5485718" lon="12.5827426"><ele>994.0</ele><time>2026-05-01T13:55:29.504Z</time></trkpt><trkpt lat="43.5485406" lon="12.5825736"><ele>994.0</ele><time>2026-05-01T13:55:30.505Z</time></trkpt><trkpt lat="43.5485071" lon="12.5824055"><ele>993.75</ele><time>2026-05-01T13:55:31.505Z</time></trkpt><trkpt lat="43.5484746" lon="12.5822326"><ele>993.5</ele><time>2026-05-01T13:55:32.505Z</time></trkpt><trkpt lat="43.5484501" lon="12.5820527"><ele>993.25</ele><time>2026-05-01T13:55:33.504Z</time></trkpt><trkpt lat="43.5484391" lon="12.5819024"><ele>993.0</ele><time>2026-05-01T13:55:34.505Z</time></trkpt><trkpt lat="43.5484384" lon="12.5817825"><ele>993.0</ele><time>2026-05-01T13:55:35.505Z</time></trkpt><trkpt lat="43.5484269" lon="12.5816542"><ele>993.0</ele><time>2026-05-01T13:55:36.504Z</time></trkpt><trkpt lat="43.5483966" lon="12.5815304"><ele>993.0</ele><time>2026-05-01T13:55:37.504Z</time></trkpt><trkpt lat="43.5483568" lon="12.5814279"><ele>993.0</ele><time>2026-05-01T13:55:38.505Z</time></trkpt><trkpt lat="43.5483183" lon="12.5813396"><ele>993.0</ele><time>2026-05-01T13:55:39.505Z</time></trkpt><trkpt lat="43.5482863" lon="12.5812477"><ele>993.0</ele><time>2026-05-01T13:55:40.505Z</time></trkpt><trkpt lat="43.5482504" lon="12.5811373"><ele>996.2</ele><time>2026-05-01T13:55:41.505Z</time></trkpt><trkpt lat="43.5482345" lon="12.5810041"><ele>999.4</ele><time>2026-05-01T13:55:42.504Z</time></trkpt><trkpt lat="43.5482584" lon="12.5808656"><ele>1002.6000000000001</ele><time>2026-05-01T13:55:43.505Z</time></trkpt><trkpt lat="43.5482814" lon="12.5807349"><ele>1005.8000000000001</ele><time>2026-05-01T13:55:44.505Z</time></trkpt><trkpt lat="43.5483365" lon="12.5806037"><ele>1009.0</ele><time>2026-05-01T13:55:45.505Z</time></trkpt><trkpt lat="43.5483911" lon="12.5804939"><ele>1009.0</ele><time>2026-05-01T13:55:46.505Z</time></trkpt><trkpt lat="43.5484366" lon="12.5803898"><ele>1009.0000000000001</ele><time>2026-05-01T13:55:47.505Z</time></trkpt><trkpt lat="43.5485114" lon="12.5802816"><ele>1009.0000000000001</ele><time>2026-05-01T13:55:48.504Z</time></trkpt><trkpt lat="43.5485572" lon="12.5801777"><ele>1009.0</ele><time>2026-05-01T13:55:49.505Z</time></trkpt><trkpt lat="43.5485836" lon="12.5800707"><ele>1009.0</ele><time>2026-05-01T13:55:50.505Z</time></trkpt><trkpt lat="43.5485934" lon="12.5799492"><ele>1007.8000000000001</ele><time>2026-05-01T13:55:51.504Z</time></trkpt><trkpt lat="43.5486063" lon="12.5798303"><ele>1006.6000000000001</ele><time>2026-05-01T13:55:52.505Z</time></trkpt><trkpt lat="43.5486378" lon="12.5796977"><ele>1005.4</ele><time>2026-05-01T13:55:53.504Z</time></trkpt><trkpt lat="43.5486698" lon="12.5795562"><ele>1004.2</ele><time>2026-05-01T13:55:54.504Z</time></trkpt><trkpt lat="43.5487223" lon="12.5794232"><ele>1003.0</ele><time>2026-05-01T13:55:55.505Z</time></trkpt><trkpt lat="43.5487908" lon="12.5792909"><ele>1003.0</ele><time>2026-05-01T13:55:56.505Z</time></trkpt><trkpt lat="43.5488546" lon="12.5791615"><ele>1003.0</ele><time>2026-05-01T13:55:57.505Z</time></trkpt><trkpt lat="43.5489131" lon="12.5790383"><ele>1003.0</ele><time>2026-05-01T13:55:58.505Z</time></trkpt><trkpt lat="43.5489672" lon="12.5789151"><ele>1003.0</ele><time>2026-05-01T13:55:59.505Z</time></trkpt><trkpt lat="43.5490229" lon="12.5787746"><ele>1003.0</ele><time>2026-05-01T13:56:00.505Z</time></trkpt><trkpt lat="43.549051" lon="12.5786104"><ele>1007.4</ele><time>2026-05-01T13:56:01.505Z</time></trkpt><trkpt lat="43.5490742" lon="12.578464"><ele>1011.8</ele><time>2026-05-01T13:56:02.505Z</time></trkpt><trkpt lat="43.5491244" lon="12.5783291"><ele>1016.2</ele><time>2026-05-01T13:56:03.505Z</time></trkpt><trkpt lat="43.5491559" lon="12.5782053"><ele>1020.6</ele><time>2026-05-01T13:56:04.505Z</time></trkpt><trkpt lat="43.5492055" lon="12.5781214"><ele>1025.0</ele><time>2026-05-01T13:56:05.505Z</time></trkpt><trkpt lat="43.5492615" lon="12.5780193"><ele>1025.0</ele><time>2026-05-01T13:56:06.504Z</time></trkpt><trkpt lat="43.549351" lon="12.5779244"><ele>1025.0</ele><time>2026-05-01T13:56:07.505Z</time></trkpt><trkpt lat="43.5494491" lon="12.5778122"><ele>1025.0</ele><time>2026-05-01T13:56:08.505Z</time></trkpt><trkpt lat="43.5495428" lon="12.5777088"><ele>1025.0</ele><time>2026-05-01T13:56:09.505Z</time></trkpt><trkpt lat="43.5496339" lon="12.5775974"><ele>1024.5</ele><time>2026-05-01T13:56:10.504Z</time></trkpt><trkpt lat="43.5497254" lon="12.5774681"><ele>1024.0</ele><time>2026-05-01T13:56:11.505Z</time></trkpt><trkpt lat="43.5498183" lon="12.577332"><ele>1023.5</ele><time>2026-05-01T13:56:12.505Z</time></trkpt><trkpt lat="43.5499099" lon="12.5771976"><ele>1023.0</ele><time>2026-05-01T13:56:13.505Z</time></trkpt><trkpt lat="43.5500072" lon="12.577077"><ele>1029.75</ele><time>2026-05-01T13:56:14.504Z</time></trkpt><trkpt lat="43.5500904" lon="12.5769419"><ele>1036.5</ele><time>2026-05-01T13:56:15.505Z</time></trkpt><trkpt lat="43.5501788" lon="12.5768245"><ele>1043.25</ele><time>2026-05-01T13:56:16.505Z</time></trkpt><trkpt lat="43.5502491" lon="12.576714"><ele>1050.0</ele><time>2026-05-01T13:56:17.504Z</time></trkpt><trkpt lat="43.5503198" lon="12.5766119"><ele>1048.1666666666667</ele><time>2026-05-01T13:56:18.504Z</time></trkpt><trkpt lat="43.5503825" lon="12.5765332"><ele>1046.3333333333333</ele><time>2026-05-01T13:56:19.504Z</time></trkpt><trkpt lat="43.5504428" lon="12.5764502"><ele>1044.5</ele><time>2026-05-01T13:56:20.505Z</time></trkpt><trkpt lat="43.5504951" lon="12.5763543"><ele>1042.6666666666665</ele><time>2026-05-01T13:56:21.505Z</time></trkpt><trkpt lat="43.5505465" lon="12.5762661"><ele>1040.8333333333333</ele><time>2026-05-01T13:56:22.505Z</time></trkpt><trkpt lat="43.5505762" lon="12.576174"><ele>1039.0</ele><time>2026-05-01T13:56:23.505Z</time></trkpt><trkpt lat="43.5505845" lon="12.5760758"><ele>1039.0</ele><time>2026-05-01T13:56:24.505Z</time></trkpt><trkpt lat="43.5505687" lon="12.5759618"><ele>1039.0</ele><time>2026-05-01T13:56:25.505Z</time></trkpt><trkpt lat="43.5505364" lon="12.575846"><ele>1039.0</ele><time>2026-05-01T13:56:26.505Z</time></trkpt><trkpt lat="43.5505168" lon="12.5757357"><ele>1039.0</ele><time>2026-05-01T13:56:27.505Z</time></trkpt><trkpt lat="43.5505281" lon="12.5756354"><ele>1039.0</ele><time>2026-05-01T13:56:28.505Z</time></trkpt><trkpt lat="43.5505649" lon="12.575541"><ele>1039.0</ele><time>2026-05-01T13:56:29.505Z</time></trkpt><trkpt lat="43.5506099" lon="12.5754714"><ele>1039.0</ele><time>2026-05-01T13:56:30.504Z</time></trkpt><trkpt lat="43.550703" lon="12.5753782"><ele>1039.0</ele><time>2026-05-01T13:56:32.504Z</time></trkpt><trkpt lat="43.5507939" lon="12.575301"><ele>1039.0</ele><time>2026-05-01T13:56:34.504Z</time></trkpt><trkpt lat="43.5508641" lon="12.5752175"><ele>1039.0</ele><time>2026-05-01T13:56:36.504Z</time></trkpt><trkpt lat="43.5509303" lon="12.5751502"><ele>1039.0</ele><time>2026-05-01T13:56:38.505Z</time></trkpt><trkpt lat="43.5509896" lon="12.5750749"><ele>1040.4</ele><time>2026-05-01T13:59:26.504Z</time></trkpt><trkpt lat="43.5510401" lon="12.5750073"><ele>1041.8000000000002</ele><time>2026-05-01T13:59:28.505Z</time></trkpt><trkpt lat="43.5510945" lon="12.5749175"><ele>1043.1999999999998</ele><time>2026-05-01T13:59:30.505Z</time></trkpt><trkpt lat="43.5511538" lon="12.5748193"><ele>1044.6</ele><time>2026-05-01T13:59:32.505Z</time></trkpt><trkpt lat="43.5511987" lon="12.5746544"><ele>1046.0</ele><time>2026-05-01T13:59:34.505Z</time></trkpt><trkpt lat="43.5511995" lon="12.5745439"><ele>1047.3999999999999</ele><time>2026-05-01T13:59:35.504Z</time></trkpt><trkpt lat="43.5511794" lon="12.5744378"><ele>1048.8</ele><time>2026-05-01T13:59:36.505Z</time></trkpt><trkpt lat="43.5511397" lon="12.5743265"><ele>1050.1999999999998</ele><time>2026-05-01T13:59:37.505Z</time></trkpt><trkpt lat="43.5510972" lon="12.5741956"><ele>1051.6</ele><time>2026-05-01T13:59:38.505Z</time></trkpt><trkpt lat="43.5510467" lon="12.5740427"><ele>1053.0</ele><time>2026-05-01T13:59:39.505Z</time></trkpt><trkpt lat="43.5509918" lon="12.57389"><ele>1053.0</ele><time>2026-05-01T13:59:40.505Z</time></trkpt><trkpt lat="43.5509165" lon="12.5737385"><ele>1053.0</ele><time>2026-05-01T13:59:41.505Z</time></trkpt><trkpt lat="43.5508307" lon="12.5735758"><ele>1053.0</ele><time>2026-05-01T13:59:42.504Z</time></trkpt><trkpt lat="43.5507444" lon="12.5734188"><ele>1053.0</ele><time>2026-05-01T13:59:43.505Z</time></trkpt><trkpt lat="43.5506648" lon="12.573269"><ele>1050.75</ele><time>2026-05-01T13:59:44.505Z</time></trkpt><trkpt lat="43.5505776" lon="12.5731361"><ele>1048.5</ele><time>2026-05-01T13:59:45.504Z</time></trkpt><trkpt lat="43.5504739" lon="12.5730162"><ele>1046.25</ele><time>2026-05-01T13:59:46.504Z</time></trkpt><trkpt lat="43.5503543" lon="12.57289"><ele>1044.0</ele><time>2026-05-01T13:59:47.504Z</time></trkpt><trkpt lat="43.5502384" lon="12.5727625"><ele>1050.4</ele><time>2026-05-01T13:59:48.505Z</time></trkpt><trkpt lat="43.5501321" lon="12.5726538"><ele>1056.8000000000002</ele><time>2026-05-01T13:59:49.505Z</time></trkpt><trkpt lat="43.5500379" lon="12.5725595"><ele>1063.1999999999998</ele><time>2026-05-01T13:59:50.505Z</time></trkpt><trkpt lat="43.5499563" lon="12.5724819"><ele>1069.6</ele><time>2026-05-01T13:59:51.504Z</time></trkpt><trkpt lat="43.5498833" lon="12.5724"><ele>1076.0</ele><time>2026-05-01T13:59:52.505Z</time></trkpt><trkpt lat="43.5498139" lon="12.5723028"><ele>1076.0</ele><time>2026-05-01T13:59:53.505Z</time></trkpt><trkpt lat="43.5497438" lon="12.5721994"><ele>1076.0</ele><time>2026-05-01T13:59:54.505Z</time></trkpt><trkpt lat="43.5496873" lon="12.5720928"><ele>1076.0</ele><time>2026-05-01T13:59:55.505Z</time></trkpt><trkpt lat="43.5496413" lon="12.5719751"><ele>1076.0</ele><time>2026-05-01T13:59:56.505Z</time></trkpt><trkpt lat="43.5496065" lon="12.5718533"><ele>1076.0</ele><time>2026-05-01T13:59:57.505Z</time></trkpt><trkpt lat="43.549583" lon="12.5717282"><ele>1079.3999999999999</ele><time>2026-05-01T13:59:58.504Z</time></trkpt><trkpt lat="43.5495805" lon="12.5716117"><ele>1082.8</ele><time>2026-05-01T13:59:59.505Z</time></trkpt><trkpt lat="43.5495876" lon="12.5714883"><ele>1086.1999999999998</ele><time>2026-05-01T14:00:00.504Z</time></trkpt><trkpt lat="43.5496003" lon="12.5713524"><ele>1089.6</ele><time>2026-05-01T14:00:01.505Z</time></trkpt><trkpt lat="43.5496042" lon="12.5712123"><ele>1093.0</ele><time>2026-05-01T14:00:02.505Z</time></trkpt><trkpt lat="43.5496063" lon="12.5710652"><ele>1093.4</ele><time>2026-05-01T14:00:03.505Z</time></trkpt><trkpt lat="43.5496" lon="12.5709019"><ele>1093.8</ele><time>2026-05-01T14:00:04.505Z</time></trkpt><trkpt lat="43.549591" lon="12.5707444"><ele>1094.2</ele><time>2026-05-01T14:00:05.505Z</time></trkpt><trkpt lat="43.549578" lon="12.5705974"><ele>1094.6</ele><time>2026-05-01T14:00:06.504Z</time></trkpt><trkpt lat="43.5495568" lon="12.5704595"><ele>1095.0</ele><time>2026-05-01T14:00:07.505Z</time></trkpt><trkpt lat="43.5495158" lon="12.5703263"><ele>1093.75</ele><time>2026-05-01T14:00:08.505Z</time></trkpt><trkpt lat="43.5494555" lon="12.5701933"><ele>1092.5</ele><time>2026-05-01T14:00:09.504Z</time></trkpt><trkpt lat="43.5493755" lon="12.5700669"><ele>1091.25</ele><time>2026-05-01T14:00:10.505Z</time></trkpt><trkpt lat="43.5492787" lon="12.5699445"><ele>1090.0</ele><time>2026-05-01T14:00:11.505Z</time></trkpt><trkpt lat="43.5491754" lon="12.5698101"><ele>1090.0</ele><time>2026-05-01T14:00:12.504Z</time></trkpt><trkpt lat="43.5490847" lon="12.5696694"><ele>1090.0</ele><time>2026-05-01T14:00:13.505Z</time></trkpt><trkpt lat="43.548995" lon="12.5695514"><ele>1090.0</ele><time>2026-05-01T14:00:14.505Z</time></trkpt><trkpt lat="43.5488954" lon="12.5694499"><ele>1090.0</ele><time>2026-05-01T14:00:15.505Z</time></trkpt><trkpt lat="43.5487849" lon="12.569368"><ele>1096.25</ele><time>2026-05-01T14:00:16.505Z</time></trkpt><trkpt lat="43.5486735" lon="12.5692976"><ele>1102.5</ele><time>2026-05-01T14:00:17.505Z</time></trkpt><trkpt lat="43.5485548" lon="12.5692615"><ele>1108.75</ele><time>2026-05-01T14:00:18.505Z</time></trkpt><trkpt lat="43.5484187" lon="12.5692353"><ele>1115.0</ele><time>2026-05-01T14:00:19.505Z</time></trkpt><trkpt lat="43.5482683" lon="12.5692095"><ele>1115.0</ele><time>2026-05-01T14:00:20.505Z</time></trkpt><trkpt lat="43.5481171" lon="12.5691813"><ele>1115.0</ele><time>2026-05-01T14:00:21.505Z</time></trkpt><trkpt lat="43.5479832" lon="12.5691632"><ele>1115.0</ele><time>2026-05-01T14:00:22.505Z</time></trkpt><trkpt lat="43.5478579" lon="12.5691688"><ele>1115.0</ele><time>2026-05-01T14:00:23.505Z</time></trkpt><trkpt lat="43.5477168" lon="12.5691775"><ele>1115.25</ele><time>2026-05-01T14:00:24.505Z</time></trkpt><trkpt lat="43.5475615" lon="12.5691822"><ele>1115.5</ele><time>2026-05-01T14:00:25.504Z</time></trkpt><trkpt lat="43.5474183" lon="12.5692041"><ele>1115.75</ele><time>2026-05-01T14:00:26.504Z</time></trkpt><trkpt lat="43.5472803" lon="12.5692427"><ele>1116.0</ele><time>2026-05-01T14:00:27.505Z</time></trkpt><trkpt lat="43.5471501" lon="12.5692783"><ele>1116.75</ele><time>2026-05-01T14:00:28.505Z</time></trkpt><trkpt lat="43.5470118" lon="12.5692945"><ele>1117.5</ele><time>2026-05-01T14:00:29.505Z</time></trkpt><trkpt lat="43.5468654" lon="12.5693085"><ele>1118.25</ele><time>2026-05-01T14:00:30.505Z</time></trkpt><trkpt lat="43.5467065" lon="12.5693069"><ele>1119.0</ele><time>2026-05-01T14:00:31.505Z</time></trkpt><trkpt lat="43.5465352" lon="12.5692803"><ele>1119.0</ele><time>2026-05-01T14:00:32.505Z</time></trkpt><trkpt lat="43.5463793" lon="12.5692333"><ele>1119.0</ele><time>2026-05-01T14:00:33.505Z</time></trkpt><trkpt lat="43.5462356" lon="12.5691837"><ele>1119.0</ele><time>2026-05-01T14:00:34.505Z</time></trkpt><trkpt lat="43.5461027" lon="12.5691537"><ele>1119.0</ele><time>2026-05-01T14:00:35.505Z</time></trkpt><trkpt lat="43.5459681" lon="12.5691177"><ele>1119.75</ele><time>2026-05-01T14:00:36.505Z</time></trkpt><trkpt lat="43.5458276" lon="12.5690634"><ele>1120.5</ele><time>2026-05-01T14:00:37.505Z</time></trkpt><trkpt lat="43.5456881" lon="12.5689858"><ele>1121.25</ele><time>2026-05-01T14:00:38.505Z</time></trkpt><trkpt lat="43.5455614" lon="12.568889"><ele>1122.0</ele><time>2026-05-01T14:00:39.505Z</time></trkpt><trkpt lat="43.5454429" lon="12.5687901"><ele>1120.25</ele><time>2026-05-01T14:00:40.504Z</time></trkpt><trkpt lat="43.545346" lon="12.568681"><ele>1118.5</ele><time>2026-05-01T14:00:41.505Z</time></trkpt><trkpt lat="43.5452687" lon="12.5685518"><ele>1116.75</ele><time>2026-05-01T14:00:42.505Z</time></trkpt><trkpt lat="43.5452046" lon="12.5683928"><ele>1115.0</ele><time>2026-05-01T14:00:43.505Z</time></trkpt><trkpt lat="43.5451513" lon="12.5681932"><ele>1115.0</ele><time>2026-05-01T14:00:44.505Z</time></trkpt><trkpt lat="43.5451023" lon="12.5680014"><ele>1115.0</ele><time>2026-05-01T14:00:45.505Z</time></trkpt><trkpt lat="43.5450672" lon="12.5678376"><ele>1115.0</ele><time>2026-05-01T14:00:46.505Z</time></trkpt><trkpt lat="43.5450504" lon="12.567683"><ele>1115.0</ele><time>2026-05-01T14:00:47.505Z</time></trkpt><trkpt lat="43.5450539" lon="12.5675074"><ele>1116.5</ele><time>2026-05-01T14:00:48.505Z</time></trkpt><trkpt lat="43.5450579" lon="12.5673101"><ele>1118.0</ele><time>2026-05-01T14:00:49.505Z</time></trkpt><trkpt lat="43.5450523" lon="12.5671185"><ele>1119.5</ele><time>2026-05-01T14:00:50.505Z</time></trkpt><trkpt lat="43.5450284" lon="12.5669268"><ele>1121.0</ele><time>2026-05-01T14:00:51.505Z</time></trkpt><trkpt lat="43.5450042" lon="12.5667512"><ele>1123.75</ele><time>2026-05-01T14:00:52.505Z</time></trkpt><trkpt lat="43.5449744" lon="12.5665807"><ele>1126.5</ele><time>2026-05-01T14:00:53.505Z</time></trkpt><trkpt lat="43.5449556" lon="12.5664037"><ele>1129.25</ele><time>2026-05-01T14:00:54.505Z</time></trkpt><trkpt lat="43.544941" lon="12.5662289"><ele>1132.0</ele><time>2026-05-01T14:00:55.505Z</time></trkpt><trkpt lat="43.5449068" lon="12.5660516"><ele>1138.0</ele><time>2026-05-01T14:00:56.505Z</time></trkpt><trkpt lat="43.5448474" lon="12.5658418"><ele>1144.0</ele><time>2026-05-01T14:00:57.505Z</time></trkpt><trkpt lat="43.5447867" lon="12.5656172"><ele>1150.0</ele><time>2026-05-01T14:00:58.505Z</time></trkpt><trkpt lat="43.5447254" lon="12.5653981"><ele>1152.25</ele><time>2026-05-01T14:00:59.504Z</time></trkpt><trkpt lat="43.5446517" lon="12.5652038"><ele>1154.5</ele><time>2026-05-01T14:01:00.504Z</time></trkpt><trkpt lat="43.5445862" lon="12.5650295"><ele>1156.75</ele><time>2026-05-01T14:01:01.505Z</time></trkpt><trkpt lat="43.5445378" lon="12.5648724"><ele>1159.0</ele><time>2026-05-01T14:01:02.504Z</time></trkpt><trkpt lat="43.5445211" lon="12.5647456"><ele>1151.4</ele><time>2026-05-01T14:01:03.504Z</time></trkpt><trkpt lat="43.5445294" lon="12.5646135"><ele>1143.8000000000002</ele><time>2026-05-01T14:01:04.505Z</time></trkpt><trkpt lat="43.5445388" lon="12.5644571"><ele>1136.1999999999998</ele><time>2026-05-01T14:01:05.504Z</time></trkpt><trkpt lat="43.5445353" lon="12.5643077"><ele>1128.6</ele><time>2026-05-01T14:01:06.505Z</time></trkpt><trkpt lat="43.5445286" lon="12.5641854"><ele>1121.0</ele><time>2026-05-01T14:01:07.505Z</time></trkpt><trkpt lat="43.5445232" lon="12.5640754"><ele>1121.0</ele><time>2026-05-01T14:01:08.505Z</time></trkpt><trkpt lat="43.5445232" lon="12.5639841"><ele>1121.0</ele><time>2026-05-01T14:01:09.505Z</time></trkpt><trkpt lat="43.5445139" lon="12.5638171"><ele>1121.0</ele><time>2026-05-01T14:01:11.505Z</time></trkpt><trkpt lat="43.5445161" lon="12.5637258"><ele>1121.0</ele><time>2026-05-01T14:01:12.505Z</time></trkpt><trkpt lat="43.544515" lon="12.5636273"><ele>1121.0</ele><time>2026-05-01T14:01:13.504Z</time></trkpt><trkpt lat="43.5445141" lon="12.5635054"><ele>1121.0</ele><time>2026-05-01T14:01:14.504Z</time></trkpt><trkpt lat="43.5445039" lon="12.5633835"><ele>1122.0</ele><time>2026-05-01T14:01:15.505Z</time></trkpt><trkpt lat="43.5444995" lon="12.5632472"><ele>1123.0</ele><time>2026-05-01T14:01:16.505Z</time></trkpt><trkpt lat="43.5445002" lon="12.5631191"><ele>1124.0</ele><time>2026-05-01T14:01:17.505Z</time></trkpt><trkpt lat="43.5445158" lon="12.5629826"><ele>1125.0</ele><time>2026-05-01T14:01:18.505Z</time></trkpt><trkpt lat="43.5445477" lon="12.5628435"><ele>1126.0</ele><time>2026-05-01T14:01:19.505Z</time></trkpt><trkpt lat="43.5445842" lon="12.5627016"><ele>1135.0</ele><time>2026-05-01T14:01:20.505Z</time></trkpt><trkpt lat="43.5446148" lon="12.5625539"><ele>1144.0</ele><time>2026-05-01T14:01:21.504Z</time></trkpt><trkpt lat="43.5446431" lon="12.5623966"><ele>1153.0</ele><time>2026-05-01T14:01:22.505Z</time></trkpt><trkpt lat="43.5446647" lon="12.5622135"><ele>1162.0</ele><time>2026-05-01T14:01:23.504Z</time></trkpt><trkpt lat="43.5446685" lon="12.5620235"><ele>1162.0</ele><time>2026-05-01T14:01:24.504Z</time></trkpt><trkpt lat="43.5446609" lon="12.5618233"><ele>1162.0</ele><time>2026-05-01T14:01:25.505Z</time></trkpt><trkpt lat="43.544656" lon="12.561613"><ele>1162.0</ele><time>2026-05-01T14:01:26.504Z</time></trkpt><trkpt lat="43.5446515" lon="12.5614171"><ele>1162.0</ele><time>2026-05-01T14:01:27.505Z</time></trkpt><trkpt lat="43.5446399" lon="12.561226"><ele>1162.25</ele><time>2026-05-01T14:01:28.505Z</time></trkpt><trkpt lat="43.5446338" lon="12.5610398"><ele>1162.5</ele><time>2026-05-01T14:01:29.505Z</time></trkpt><trkpt lat="43.544639" lon="12.5608591"><ele>1162.75</ele><time>2026-05-01T14:01:30.505Z</time></trkpt><trkpt lat="43.5446433" lon="12.5606777"><ele>1163.0</ele><time>2026-05-01T14:01:31.505Z</time></trkpt><trkpt lat="43.544631" lon="12.5604898"><ele>1162.75</ele><time>2026-05-01T14:01:32.505Z</time></trkpt><trkpt lat="43.5446019" lon="12.5602998"><ele>1162.5</ele><time>2026-05-01T14:01:33.505Z</time></trkpt><trkpt lat="43.5445639" lon="12.5601101"><ele>1162.25</ele><time>2026-05-01T14:01:34.504Z</time></trkpt><trkpt lat="43.5445229" lon="12.5599325"><ele>1162.0</ele><time>2026-05-01T14:01:35.505Z</time></trkpt><trkpt lat="43.5444782" lon="12.5597719"><ele>1156.5</ele><time>2026-05-01T14:01:36.505Z</time></trkpt><trkpt lat="43.5444419" lon="12.559608"><ele>1151.0</ele><time>2026-05-01T14:01:37.505Z</time></trkpt><trkpt lat="43.5444245" lon="12.5594374"><ele>1145.5</ele><time>2026-05-01T14:01:38.504Z</time></trkpt><trkpt lat="43.5444255" lon="12.559255"><ele>1140.0</ele><time>2026-05-01T14:01:39.504Z</time></trkpt><trkpt lat="43.5444388" lon="12.559068"><ele>1140.0</ele><time>2026-05-01T14:01:40.505Z</time></trkpt><trkpt lat="43.5444498" lon="12.5588846"><ele>1140.0</ele><time>2026-05-01T14:01:41.505Z</time></trkpt><trkpt lat="43.5444661" lon="12.5587013"><ele>1140.0</ele><time>2026-05-01T14:01:42.505Z</time></trkpt><trkpt lat="43.5444946" lon="12.5585168"><ele>1140.0</ele><time>2026-05-01T14:01:43.505Z</time></trkpt><trkpt lat="43.5445241" lon="12.5583471"><ele>1146.25</ele><time>2026-05-01T14:01:44.505Z</time></trkpt><trkpt lat="43.5445484" lon="12.5581832"><ele>1152.5</ele><time>2026-05-01T14:01:45.505Z</time></trkpt><trkpt lat="43.544587" lon="12.5580321"><ele>1158.75</ele><time>2026-05-01T14:01:46.505Z</time></trkpt><trkpt lat="43.5446466" lon="12.5578807"><ele>1165.0</ele><time>2026-05-01T14:01:47.504Z</time></trkpt><trkpt lat="43.5447223" lon="12.5577312"><ele>1166.0</ele><time>2026-05-01T14:01:48.505Z</time></trkpt><trkpt lat="43.5448061" lon="12.5575933"><ele>1167.0</ele><time>2026-05-01T14:01:49.505Z</time></trkpt><trkpt lat="43.5448954" lon="12.5574501"><ele>1168.0</ele><time>2026-05-01T14:01:50.505Z</time></trkpt><trkpt lat="43.544978" lon="12.557302"><ele>1169.0</ele><time>2026-05-01T14:01:51.505Z</time></trkpt><trkpt lat="43.5450578" lon="12.5571662"><ele>1168.5</ele><time>2026-05-01T14:01:52.505Z</time></trkpt><trkpt lat="43.5451457" lon="12.5570348"><ele>1168.0</ele><time>2026-05-01T14:01:53.504Z</time></trkpt><trkpt lat="43.5452468" lon="12.5569047"><ele>1167.5</ele><time>2026-05-01T14:01:54.505Z</time></trkpt><trkpt lat="43.5453462" lon="12.5567801"><ele>1167.0</ele><time>2026-05-01T14:01:55.504Z</time></trkpt><trkpt lat="43.5454334" lon="12.5566343"><ele>1172.0</ele><time>2026-05-01T14:01:56.505Z</time></trkpt><trkpt lat="43.5454945" lon="12.5564648"><ele>1177.0</ele><time>2026-05-01T14:01:57.505Z</time></trkpt><trkpt lat="43.5455347" lon="12.5562714"><ele>1182.0</ele><time>2026-05-01T14:01:58.505Z</time></trkpt><trkpt lat="43.5455759" lon="12.5560753"><ele>1187.0</ele><time>2026-05-01T14:01:59.505Z</time></trkpt><trkpt lat="43.5456129" lon="12.5558866"><ele>1187.25</ele><time>2026-05-01T14:02:00.505Z</time></trkpt><trkpt lat="43.5456539" lon="12.5557058"><ele>1187.5</ele><time>2026-05-01T14:02:01.504Z</time></trkpt><trkpt lat="43.5456998" lon="12.5555325"><ele>1187.75</ele><time>2026-05-01T14:02:02.505Z</time></trkpt><trkpt lat="43.5457613" lon="12.5553625"><ele>1188.0</ele><time>2026-05-01T14:02:03.505Z</time></trkpt><trkpt lat="43.5458174" lon="12.5551918"><ele>1188.0</ele><time>2026-05-01T14:02:04.505Z</time></trkpt><trkpt lat="43.5458713" lon="12.5550121"><ele>1188.0</ele><time>2026-05-01T14:02:05.505Z</time></trkpt><trkpt lat="43.545922" lon="12.554834"><ele>1188.0</ele><time>2026-05-01T14:02:06.505Z</time></trkpt><trkpt lat="43.5459617" lon="12.5546721"><ele>1188.0</ele><time>2026-05-01T14:02:07.505Z</time></trkpt><trkpt lat="43.5459879" lon="12.5545093"><ele>1188.0</ele><time>2026-05-01T14:02:08.505Z</time></trkpt><trkpt lat="43.5460211" lon="12.55438"><ele>1188.0</ele><time>2026-05-01T14:02:09.505Z</time></trkpt><trkpt lat="43.546051" lon="12.5542735"><ele>1188.0</ele><time>2026-05-01T14:02:10.505Z</time></trkpt><trkpt lat="43.5460985" lon="12.55419"><ele>1188.0</ele><time>2026-05-01T14:02:11.505Z</time></trkpt><trkpt lat="43.5461711" lon="12.554132"><ele>1188.0</ele><time>2026-05-01T14:02:12.504Z</time></trkpt><trkpt lat="43.54626" lon="12.5541049"><ele>1188.0</ele><time>2026-05-01T14:02:13.505Z</time></trkpt><trkpt lat="43.5463597" lon="12.5540943"><ele>1191.5</ele><time>2026-05-01T14:02:14.504Z</time></trkpt><trkpt lat="43.546469" lon="12.5540773"><ele>1195.0</ele><time>2026-05-01T14:02:15.505Z</time></trkpt><trkpt lat="43.546583" lon="12.5540609"><ele>1198.5</ele><time>2026-05-01T14:02:16.505Z</time></trkpt><trkpt lat="43.5467097" lon="12.5540441"><ele>1202.0</ele><time>2026-05-01T14:02:17.504Z</time></trkpt><trkpt lat="43.5468464" lon="12.5540238"><ele>1202.0</ele><time>2026-05-01T14:02:18.505Z</time></trkpt><trkpt lat="43.5469885" lon="12.5540003"><ele>1202.0</ele><time>2026-05-01T14:02:19.505Z</time></trkpt><trkpt lat="43.5471352" lon="12.5539743"><ele>1202.0</ele><time>2026-05-01T14:02:20.505Z</time></trkpt><trkpt lat="43.5472903" lon="12.5539518"><ele>1202.0</ele><time>2026-05-01T14:02:21.505Z</time></trkpt><trkpt lat="43.5474625" lon="12.5539232"><ele>1200.6666666666667</ele><time>2026-05-01T14:02:22.504Z</time></trkpt><trkpt lat="43.5476411" lon="12.5538962"><ele>1199.3333333333333</ele><time>2026-05-01T14:02:23.505Z</time></trkpt><trkpt lat="43.5478055" lon="12.5538682"><ele>1198.0</ele><time>2026-05-01T14:02:24.504Z</time></trkpt><trkpt lat="43.5479509" lon="12.5538338"><ele>1198.0</ele><time>2026-05-01T14:02:25.505Z</time></trkpt><trkpt lat="43.5480682" lon="12.553795"><ele>1198.0</ele><time>2026-05-01T14:02:26.505Z</time></trkpt><trkpt lat="43.5481603" lon="12.5537543"><ele>1198.0</ele><time>2026-05-01T14:02:27.505Z</time></trkpt><trkpt lat="43.5482383" lon="12.5536869"><ele>1198.0</ele><time>2026-05-01T14:02:28.504Z</time></trkpt><trkpt lat="43.5482801" lon="12.5535892"><ele>1198.0</ele><time>2026-05-01T14:02:29.505Z</time></trkpt><trkpt lat="43.5482896" lon="12.5534624"><ele>1200.75</ele><time>2026-05-01T14:02:30.504Z</time></trkpt><trkpt lat="43.5482659" lon="12.5533198"><ele>1203.5</ele><time>2026-05-01T14:02:31.504Z</time></trkpt><trkpt lat="43.5482375" lon="12.5531741"><ele>1206.25</ele><time>2026-05-01T14:02:32.505Z</time></trkpt><trkpt lat="43.5482058" lon="12.5530013"><ele>1209.0</ele><time>2026-05-01T14:02:33.505Z</time></trkpt><trkpt lat="43.5481692" lon="12.5528169"><ele>1211.0</ele><time>2026-05-01T14:02:34.505Z</time></trkpt><trkpt lat="43.5481354" lon="12.5526235"><ele>1213.0</ele><time>2026-05-01T14:02:35.505Z</time></trkpt><trkpt lat="43.548097" lon="12.5524276"><ele>1215.0</ele><time>2026-05-01T14:02:36.505Z</time></trkpt><trkpt lat="43.5480629" lon="12.5522599"><ele>1217.0</ele><time>2026-05-01T14:02:37.505Z</time></trkpt><trkpt lat="43.5480323" lon="12.5521133"><ele>1219.5</ele><time>2026-05-01T14:02:38.505Z</time></trkpt><trkpt lat="43.5480063" lon="12.5519668"><ele>1222.0</ele><time>2026-05-01T14:02:39.505Z</time></trkpt><trkpt lat="43.547993" lon="12.5518137"><ele>1224.5</ele><time>2026-05-01T14:02:40.504Z</time></trkpt><trkpt lat="43.5480078" lon="12.5516459"><ele>1227.0</ele><time>2026-05-01T14:02:41.505Z</time></trkpt><trkpt lat="43.5480416" lon="12.5514828"><ele>1227.0</ele><time>2026-05-01T14:02:42.505Z</time></trkpt><trkpt lat="43.5480722" lon="12.5513296"><ele>1227.0</ele><time>2026-05-01T14:02:43.505Z</time></trkpt><trkpt lat="43.5480986" lon="12.551179"><ele>1227.0</ele><time>2026-05-01T14:02:44.505Z</time></trkpt><trkpt lat="43.5481394" lon="12.5510189"><ele>1227.0</ele><time>2026-05-01T14:02:45.505Z</time></trkpt><trkpt lat="43.5481843" lon="12.5508622"><ele>1226.75</ele><time>2026-05-01T14:02:46.505Z</time></trkpt><trkpt lat="43.5482467" lon="12.5506948"><ele>1226.5</ele><time>2026-05-01T14:02:47.505Z</time></trkpt><trkpt lat="43.5483231" lon="12.5505425"><ele>1226.25</ele><time>2026-05-01T14:02:48.505Z</time></trkpt><trkpt lat="43.5483984" lon="12.5503903"><ele>1226.0</ele><time>2026-05-01T14:02:49.505Z</time></trkpt><trkpt lat="43.5484751" lon="12.5502313"><ele>1227.5</ele><time>2026-05-01T14:02:50.504Z</time></trkpt><trkpt lat="43.5485326" lon="12.5500637"><ele>1229.0</ele><time>2026-05-01T14:02:51.505Z</time></trkpt><trkpt lat="43.548573" lon="12.5498865"><ele>1230.5</ele><time>2026-05-01T14:02:52.505Z</time></trkpt><trkpt lat="43.5485829" lon="12.5497208"><ele>1232.0</ele><time>2026-05-01T14:02:53.505Z</time></trkpt><trkpt lat="43.5485783" lon="12.5495947"><ele>1231.5</ele><time>2026-05-01T14:02:54.505Z</time></trkpt><trkpt lat="43.548594" lon="12.5494984"><ele>1231.0</ele><time>2026-05-01T14:02:55.504Z</time></trkpt><trkpt lat="43.5486805" lon="12.5494114"><ele>1230.5</ele><time>2026-05-01T14:02:57.505Z</time></trkpt><trkpt lat="43.5487692" lon="12.5495122"><ele>1230.0</ele><time>2026-05-01T14:02:59.505Z</time></trkpt><trkpt lat="43.5487797" lon="12.5496121"><ele>1229.5</ele><time>2026-05-01T14:03:00.505Z</time></trkpt><trkpt lat="43.5487715" lon="12.5497231"><ele>1229.0</ele><time>2026-05-01T14:03:01.504Z</time></trkpt><trkpt lat="43.5487517" lon="12.5498507"><ele>1234.4</ele><time>2026-05-01T14:03:02.505Z</time></trkpt><trkpt lat="43.5487338" lon="12.5499848"><ele>1239.8000000000002</ele><time>2026-05-01T14:03:03.505Z</time></trkpt><trkpt lat="43.5487142" lon="12.550124"><ele>1245.1999999999998</ele><time>2026-05-01T14:03:04.504Z</time></trkpt><trkpt lat="43.5487158" lon="12.5502768"><ele>1250.6</ele><time>2026-05-01T14:03:05.504Z</time></trkpt><trkpt lat="43.5487288" lon="12.5504428"><ele>1256.0</ele><time>2026-05-01T14:03:06.504Z</time></trkpt><trkpt lat="43.5487471" lon="12.5505839"><ele>1256.0</ele><time>2026-05-01T14:03:07.505Z</time></trkpt><trkpt lat="43.548776" lon="12.5506964"><ele>1256.0</ele><time>2026-05-01T14:03:08.504Z</time></trkpt><trkpt lat="43.5488346" lon="12.5507828"><ele>1256.0</ele><time>2026-05-01T14:03:09.505Z</time></trkpt><trkpt lat="43.5489094" lon="12.5508469"><ele>1256.0</ele><time>2026-05-01T14:03:10.505Z</time></trkpt><trkpt lat="43.5489979" lon="12.5509196"><ele>1256.0</ele><time>2026-05-01T14:03:11.505Z</time></trkpt><trkpt lat="43.5490811" lon="12.5510114"><ele>1256.0</ele><time>2026-05-01T14:03:12.505Z</time></trkpt><trkpt lat="43.5491623" lon="12.5511169"><ele>1256.0</ele><time>2026-05-01T14:03:13.505Z</time></trkpt><trkpt lat="43.5492324" lon="12.5512153"><ele>1256.0</ele><time>2026-05-01T14:03:14.505Z</time></trkpt><trkpt lat="43.5493114" lon="12.5512786"><ele>1256.0</ele><time>2026-05-01T14:03:15.504Z</time></trkpt><trkpt lat="43.5494255" lon="12.5513153"><ele>1256.0</ele><time>2026-05-01T14:03:16.505Z</time></trkpt><trkpt lat="43.5495639" lon="12.5513247"><ele>1254.6666666666667</ele><time>2026-05-01T14:03:17.505Z</time></trkpt><trkpt lat="43.5497123" lon="12.5513385"><ele>1253.3333333333333</ele><time>2026-05-01T14:03:18.504Z</time></trkpt><trkpt lat="43.5498714" lon="12.5513334"><ele>1252.0</ele><time>2026-05-01T14:03:19.505Z</time></trkpt><trkpt lat="43.5500224" lon="12.5513222"><ele>1252.0</ele><time>2026-05-01T14:03:20.505Z</time></trkpt><trkpt lat="43.5501703" lon="12.5513157"><ele>1252.0</ele><time>2026-05-01T14:03:21.505Z</time></trkpt><trkpt lat="43.5503359" lon="12.551281"><ele>1252.0</ele><time>2026-05-01T14:03:22.504Z</time></trkpt><trkpt lat="43.5505075" lon="12.5512294"><ele>1260.0</ele><time>2026-05-01T14:03:23.505Z</time></trkpt><trkpt lat="43.5506821" lon="12.5511784"><ele>1268.0</ele><time>2026-05-01T14:03:24.505Z</time></trkpt><trkpt lat="43.5508629" lon="12.5511269"><ele>1276.0</ele><time>2026-05-01T14:03:25.505Z</time></trkpt><trkpt lat="43.5510325" lon="12.5510824"><ele>1276.0</ele><time>2026-05-01T14:03:26.505Z</time></trkpt><trkpt lat="43.5511664" lon="12.5510615"><ele>1276.0</ele><time>2026-05-01T14:03:27.505Z</time></trkpt><trkpt lat="43.5512769" lon="12.5510433"><ele>1276.0</ele><time>2026-05-01T14:03:28.505Z</time></trkpt><trkpt lat="43.5513587" lon="12.5510218"><ele>1276.0</ele><time>2026-05-01T14:03:29.505Z</time></trkpt><trkpt lat="43.5514226" lon="12.5509647"><ele>1276.0</ele><time>2026-05-01T14:03:30.505Z</time></trkpt><trkpt lat="43.5514248" lon="12.550811"><ele>1276.0</ele><time>2026-05-01T14:03:32.504Z</time></trkpt><trkpt lat="43.5513726" lon="12.5507544"><ele>1276.0</ele><time>2026-05-01T14:03:33.506Z</time></trkpt><trkpt lat="43.5512921" lon="12.5507591"><ele>1276.0</ele><time>2026-05-01T14:03:34.506Z</time></trkpt><trkpt lat="43.5512025" lon="12.5507566"><ele>1276.0</ele><time>2026-05-01T14:03:35.506Z</time></trkpt><trkpt lat="43.5511085" lon="12.5507376"><ele>1276.0</ele><time>2026-05-01T14:03:36.506Z</time></trkpt><trkpt lat="43.5510023" lon="12.5506809"><ele>1276.0</ele><time>2026-05-01T14:03:37.506Z</time></trkpt><trkpt lat="43.5508889" lon="12.5506314"><ele>1276.0</ele><time>2026-05-01T14:03:38.506Z</time></trkpt><trkpt lat="43.5507544" lon="12.5505547"><ele>1276.0</ele><time>2026-05-01T14:03:39.506Z</time></trkpt><trkpt lat="43.5506171" lon="12.5504678"><ele>1276.0</ele><time>2026-05-01T14:03:40.506Z</time></trkpt><trkpt lat="43.5504977" lon="12.5503732"><ele>1276.0</ele><time>2026-05-01T14:03:41.505Z</time></trkpt><trkpt lat="43.5503834" lon="12.5502529"><ele>1277.4</ele><time>2026-05-01T14:03:42.505Z</time></trkpt><trkpt lat="43.5502789" lon="12.5501281"><ele>1278.8</ele><time>2026-05-01T14:03:43.506Z</time></trkpt><trkpt lat="43.5501878" lon="12.5500069"><ele>1280.2</ele><time>2026-05-01T14:03:44.506Z</time></trkpt><trkpt lat="43.5501217" lon="12.5499045"><ele>1281.6000000000001</ele><time>2026-05-01T14:03:45.505Z</time></trkpt><trkpt lat="43.5501006" lon="12.5497932"><ele>1283.0</ele><time>2026-05-01T14:03:46.505Z</time></trkpt><trkpt lat="43.5501102" lon="12.5496594"><ele>1283.0</ele><time>2026-05-01T14:03:47.505Z</time></trkpt><trkpt lat="43.5501549" lon="12.5495226"><ele>1283.0</ele><time>2026-05-01T14:03:48.506Z</time></trkpt><trkpt lat="43.5502181" lon="12.5493936"><ele>1283.0</ele><time>2026-05-01T14:03:49.506Z</time></trkpt><trkpt lat="43.5502912" lon="12.549279"><ele>1283.0</ele><time>2026-05-01T14:03:50.506Z</time></trkpt><trkpt lat="43.5503668" lon="12.5491624"><ele>1283.0</ele><time>2026-05-01T14:03:51.506Z</time></trkpt><trkpt lat="43.5504366" lon="12.54903"><ele>1288.0</ele><time>2026-05-01T14:03:52.506Z</time></trkpt><trkpt lat="43.5504748" lon="12.5488949"><ele>1293.0</ele><time>2026-05-01T14:03:53.505Z</time></trkpt><trkpt lat="43.5504828" lon="12.5487192"><ele>1298.0</ele><time>2026-05-01T14:03:54.506Z</time></trkpt><trkpt lat="43.550478" lon="12.5485091"><ele>1303.0</ele><time>2026-05-01T14:03:55.505Z</time></trkpt><trkpt lat="43.5504724" lon="12.5482877"><ele>1304.6666666666665</ele><time>2026-05-01T14:03:56.506Z</time></trkpt><trkpt lat="43.5504687" lon="12.5480666"><ele>1306.3333333333333</ele><time>2026-05-01T14:03:57.506Z</time></trkpt><trkpt lat="43.5504547" lon="12.5478319"><ele>1308.0</ele><time>2026-05-01T14:03:58.505Z</time></trkpt><trkpt lat="43.5504205" lon="12.5475786"><ele>1309.3333333333333</ele><time>2026-05-01T14:03:59.506Z</time></trkpt><trkpt lat="43.550369" lon="12.5473296"><ele>1310.6666666666665</ele><time>2026-05-01T14:04:00.505Z</time></trkpt><trkpt lat="43.5503022" lon="12.5471159"><ele>1312.0</ele><time>2026-05-01T14:04:01.506Z</time></trkpt><trkpt lat="43.5502427" lon="12.5469667"><ele>1312.0</ele><time>2026-05-01T14:04:02.506Z</time></trkpt><trkpt lat="43.550179" lon="12.5468601"><ele>1312.0</ele><time>2026-05-01T14:04:03.506Z</time></trkpt><trkpt lat="43.5501566" lon="12.5467622"><ele>1312.0</ele><time>2026-05-01T14:04:04.505Z</time></trkpt><trkpt lat="43.550229" lon="12.546646"><ele>1312.0</ele><time>2026-05-01T14:04:06.505Z</time></trkpt><trkpt lat="43.5502948" lon="12.5466596"><ele>1312.0</ele><time>2026-05-01T14:04:07.505Z</time></trkpt><trkpt lat="43.5503618" lon="12.5467238"><ele>1312.0</ele><time>2026-05-01T14:04:08.505Z</time></trkpt><trkpt lat="43.5504264" lon="12.5468035"><ele>1312.6666666666665</ele><time>2026-05-01T14:04:09.506Z</time></trkpt><trkpt lat="43.550488" lon="12.5468669"><ele>1313.3333333333333</ele><time>2026-05-01T14:04:10.506Z</time></trkpt><trkpt lat="43.5505487" lon="12.5469113"><ele>1314.0</ele><time>2026-05-01T14:04:11.505Z</time></trkpt><trkpt lat="43.5506497" lon="12.5469664"><ele>1314.6666666666667</ele><time>2026-05-01T14:04:13.506Z</time></trkpt><trkpt lat="43.5507609" lon="12.5470092"><ele>1315.3333333333335</ele><time>2026-05-01T14:04:15.506Z</time></trkpt><trkpt lat="43.5508342" lon="12.5470333"><ele>1316.0</ele><time>2026-05-01T14:04:16.505Z</time></trkpt><trkpt lat="43.5509134" lon="12.5470633"><ele>1316.0</ele><time>2026-05-01T14:04:17.506Z</time></trkpt><trkpt lat="43.5509958" lon="12.5470986"><ele>1316.0</ele><time>2026-05-01T14:04:18.506Z</time></trkpt><trkpt lat="43.5510908" lon="12.5471409"><ele>1316.0</ele><time>2026-05-01T14:04:19.506Z</time></trkpt><trkpt lat="43.5511801" lon="12.5472001"><ele>1316.0</ele><time>2026-05-01T14:04:20.506Z</time></trkpt><trkpt lat="43.5512787" lon="12.5472754"><ele>1316.0</ele><time>2026-05-01T14:04:21.506Z</time></trkpt><trkpt lat="43.5513885" lon="12.5473706"><ele>1320.1999999999998</ele><time>2026-05-01T14:04:22.505Z</time></trkpt><trkpt lat="43.551494" lon="12.5474447"><ele>1324.3999999999999</ele><time>2026-05-01T14:04:23.506Z</time></trkpt><trkpt lat="43.5515876" lon="12.5475154"><ele>1328.6</ele><time>2026-05-01T14:04:24.506Z</time></trkpt><trkpt lat="43.551663" lon="12.5475834"><ele>1332.8</ele><time>2026-05-01T14:04:25.505Z</time></trkpt><trkpt lat="43.5517008" lon="12.5476897"><ele>1337.0</ele><time>2026-05-01T14:04:26.505Z</time></trkpt><trkpt lat="43.5517222" lon="12.547816"><ele>1334.6</ele><time>2026-05-01T14:04:27.506Z</time></trkpt><trkpt lat="43.5517374" lon="12.5479535"><ele>1332.1999999999998</ele><time>2026-05-01T14:04:28.506Z</time></trkpt><trkpt lat="43.5517493" lon="12.5480883"><ele>1329.8</ele><time>2026-05-01T14:04:29.506Z</time></trkpt><trkpt lat="43.5517491" lon="12.5482335"><ele>1327.4</ele><time>2026-05-01T14:04:30.506Z</time></trkpt><trkpt lat="43.5517505" lon="12.548372"><ele>1325.0</ele><time>2026-05-01T14:04:31.506Z</time></trkpt><trkpt lat="43.5517611" lon="12.5484893"><ele>1325.0</ele><time>2026-05-01T14:04:32.506Z</time></trkpt><trkpt lat="43.5517986" lon="12.5485956"><ele>1325.0</ele><time>2026-05-01T14:04:33.505Z</time></trkpt><trkpt lat="43.5518704" lon="12.5486588"><ele>1325.0</ele><time>2026-05-01T14:04:34.506Z</time></trkpt><trkpt lat="43.5519649" lon="12.548669"><ele>1325.0</ele><time>2026-05-01T14:04:35.506Z</time></trkpt><trkpt lat="43.5520656" lon="12.5486474"><ele>1325.0</ele><time>2026-05-01T14:04:36.506Z</time></trkpt><trkpt lat="43.5521773" lon="12.5486255"><ele>1328.5</ele><time>2026-05-01T14:04:37.506Z</time></trkpt><trkpt lat="43.5523125" lon="12.548586"><ele>1332.0</ele><time>2026-05-01T14:04:38.506Z</time></trkpt><trkpt lat="43.5524504" lon="12.5485331"><ele>1335.5</ele><time>2026-05-01T14:04:39.506Z</time></trkpt><trkpt lat="43.5525848" lon="12.5484664"><ele>1339.0</ele><time>2026-05-01T14:04:40.506Z</time></trkpt><trkpt lat="43.5526944" lon="12.5484007"><ele>1339.0</ele><time>2026-05-01T14:04:41.506Z</time></trkpt><trkpt lat="43.552777" lon="12.5483416"><ele>1339.0</ele><time>2026-05-01T14:04:42.506Z</time></trkpt><trkpt lat="43.5528328" lon="12.5482618"><ele>1339.0</ele><time>2026-05-01T14:04:43.506Z</time></trkpt><trkpt lat="43.552839" lon="12.5481714"><ele>1339.0</ele><time>2026-05-01T14:04:44.506Z</time></trkpt><trkpt lat="43.5527897" lon="12.5481135"><ele>1339.0</ele><time>2026-05-01T14:04:45.506Z</time></trkpt><trkpt lat="43.552719" lon="12.548104"><ele>1339.0</ele><time>2026-05-01T14:04:46.506Z</time></trkpt><trkpt lat="43.5526263" lon="12.5481089"><ele>1339.0</ele><time>2026-05-01T14:04:47.506Z</time></trkpt><trkpt lat="43.5525154" lon="12.5480977"><ele>1339.0</ele><time>2026-05-01T14:04:48.506Z</time></trkpt><trkpt lat="43.5524023" lon="12.5480459"><ele>1339.0</ele><time>2026-05-01T14:04:49.506Z</time></trkpt><trkpt lat="43.5523113" lon="12.547985"><ele>1339.0</ele><time>2026-05-01T14:04:50.506Z</time></trkpt><trkpt lat="43.5522535" lon="12.5478954"><ele>1339.0</ele><time>2026-05-01T14:04:51.506Z</time></trkpt><trkpt lat="43.5522476" lon="12.5477769"><ele>1342.0</ele><time>2026-05-01T14:04:52.506Z</time></trkpt><trkpt lat="43.552281" lon="12.5476453"><ele>1345.0</ele><time>2026-05-01T14:04:53.505Z</time></trkpt><trkpt lat="43.5523403" lon="12.5475101"><ele>1348.0</ele><time>2026-05-01T14:04:54.506Z</time></trkpt><trkpt lat="43.5524128" lon="12.5473528"><ele>1351.0</ele><time>2026-05-01T14:04:55.506Z</time></trkpt><trkpt lat="43.5524732" lon="12.5471843"><ele>1351.75</ele><time>2026-05-01T14:04:56.506Z</time></trkpt><trkpt lat="43.5525131" lon="12.5469996"><ele>1352.5</ele><time>2026-05-01T14:04:57.506Z</time></trkpt><trkpt lat="43.5525223" lon="12.54681"><ele>1353.25</ele><time>2026-05-01T14:04:58.506Z</time></trkpt><trkpt lat="43.5525239" lon="12.5466148"><ele>1354.0</ele><time>2026-05-01T14:04:59.505Z</time></trkpt><trkpt lat="43.5525172" lon="12.5464438"><ele>1354.0</ele><time>2026-05-01T14:05:00.506Z</time></trkpt><trkpt lat="43.5525025" lon="12.54631"><ele>1354.0</ele><time>2026-05-01T14:05:01.506Z</time></trkpt><trkpt lat="43.5524426" lon="12.5462067"><ele>1354.0</ele><time>2026-05-01T14:05:02.506Z</time></trkpt><trkpt lat="43.5523499" lon="12.5460909"><ele>1354.0</ele><time>2026-05-01T14:05:03.505Z</time></trkpt><trkpt lat="43.5522443" lon="12.5459959"><ele>1354.0</ele><time>2026-05-01T14:05:04.505Z</time></trkpt><trkpt lat="43.5521572" lon="12.5459162"><ele>1355.0</ele><time>2026-05-01T14:05:05.505Z</time></trkpt><trkpt lat="43.5520712" lon="12.545847"><ele>1356.0</ele><time>2026-05-01T14:05:06.506Z</time></trkpt><trkpt lat="43.5519805" lon="12.5457784"><ele>1357.0</ele><time>2026-05-01T14:05:07.506Z</time></trkpt><trkpt lat="43.5518886" lon="12.5456852"><ele>1358.0</ele><time>2026-05-01T14:05:08.506Z</time></trkpt><trkpt lat="43.5517877" lon="12.5455791"><ele>1359.0</ele><time>2026-05-01T14:05:09.506Z</time></trkpt><trkpt lat="43.5516976" lon="12.5454763"><ele>1364.75</ele><time>2026-05-01T14:05:10.505Z</time></trkpt><trkpt lat="43.5516081" lon="12.5453661"><ele>1370.5</ele><time>2026-05-01T14:05:11.506Z</time></trkpt><trkpt lat="43.5515189" lon="12.5452484"><ele>1376.25</ele><time>2026-05-01T14:05:12.506Z</time></trkpt><trkpt lat="43.5514288" lon="12.5451271"><ele>1382.0</ele><time>2026-05-01T14:05:13.506Z</time></trkpt><trkpt lat="43.5513559" lon="12.5450218"><ele>1382.0</ele><time>2026-05-01T14:05:14.506Z</time></trkpt><trkpt lat="43.5512964" lon="12.5449244"><ele>1382.0</ele><time>2026-05-01T14:05:15.505Z</time></trkpt><trkpt lat="43.5512667" lon="12.5448417"><ele>1382.0</ele><time>2026-05-01T14:05:16.506Z</time></trkpt><trkpt lat="43.5512751" lon="12.5447539"><ele>1382.0</ele><time>2026-05-01T14:05:17.505Z</time></trkpt><trkpt lat="43.5513198" lon="12.5446877"><ele>1382.0</ele><time>2026-05-01T14:05:18.506Z</time></trkpt><trkpt lat="43.5514069" lon="12.5446696"><ele>1382.0</ele><time>2026-05-01T14:05:19.506Z</time></trkpt><trkpt lat="43.5514928" lon="12.5446867"><ele>1382.0</ele><time>2026-05-01T14:05:20.505Z</time></trkpt><trkpt lat="43.5515797" lon="12.5447242"><ele>1382.0</ele><time>2026-05-01T14:05:21.506Z</time></trkpt><trkpt lat="43.551671" lon="12.5447543"><ele>1382.0</ele><time>2026-05-01T14:05:22.506Z</time></trkpt><trkpt lat="43.5517651" lon="12.5447803"><ele>1382.0</ele><time>2026-05-01T14:05:23.506Z</time></trkpt><trkpt lat="43.5518622" lon="12.5448021"><ele>1382.0</ele><time>2026-05-01T14:05:24.506Z</time></trkpt><trkpt lat="43.5519663" lon="12.5448288"><ele>1383.75</ele><time>2026-05-01T14:05:25.506Z</time></trkpt><trkpt lat="43.552075" lon="12.5448374"><ele>1385.5</ele><time>2026-05-01T14:05:26.506Z</time></trkpt><trkpt lat="43.5521858" lon="12.5448065"><ele>1387.25</ele><time>2026-05-01T14:05:27.506Z</time></trkpt><trkpt lat="43.5523074" lon="12.5447464"><ele>1389.0</ele><time>2026-05-01T14:05:28.506Z</time></trkpt><trkpt lat="43.5524089" lon="12.5446891"><ele>1389.0</ele><time>2026-05-01T14:05:29.506Z</time></trkpt><trkpt lat="43.5524977" lon="12.5446212"><ele>1389.0</ele><time>2026-05-01T14:05:30.506Z</time></trkpt><trkpt lat="43.5525682" lon="12.5445196"><ele>1389.0</ele><time>2026-05-01T14:05:31.506Z</time></trkpt><trkpt lat="43.5526393" lon="12.5444139"><ele>1389.0</ele><time>2026-05-01T14:05:32.506Z</time></trkpt><trkpt lat="43.5527228" lon="12.5443235"><ele>1389.0</ele><time>2026-05-01T14:05:33.506Z</time></trkpt><trkpt lat="43.5528268" lon="12.5442625"><ele>1394.5</ele><time>2026-05-01T14:05:34.506Z</time></trkpt><trkpt lat="43.5529307" lon="12.5442394"><ele>1400.0</ele><time>2026-05-01T14:05:35.506Z</time></trkpt><trkpt lat="43.5530445" lon="12.5442674"><ele>1405.5</ele><time>2026-05-01T14:05:36.505Z</time></trkpt><trkpt lat="43.5531597" lon="12.5443133"><ele>1411.0</ele><time>2026-05-01T14:05:37.506Z</time></trkpt><trkpt lat="43.5532692" lon="12.5443576"><ele>1411.0</ele><time>2026-05-01T14:05:38.505Z</time></trkpt><trkpt lat="43.5533798" lon="12.5443798"><ele>1411.0</ele><time>2026-05-01T14:05:39.506Z</time></trkpt><trkpt lat="43.5535024" lon="12.5443715"><ele>1411.0</ele><time>2026-05-01T14:05:40.506Z</time></trkpt><trkpt lat="43.5536317" lon="12.5443191"><ele>1411.0</ele><time>2026-05-01T14:05:41.506Z</time></trkpt><trkpt lat="43.5537597" lon="12.544249"><ele>1410.25</ele><time>2026-05-01T14:05:42.505Z</time></trkpt><trkpt lat="43.5538833" lon="12.544155"><ele>1409.5</ele><time>2026-05-01T14:05:43.506Z</time></trkpt><trkpt lat="43.5539936" lon="12.5440336"><ele>1408.75</ele><time>2026-05-01T14:05:44.505Z</time></trkpt><trkpt lat="43.5540918" lon="12.5439017"><ele>1408.0</ele><time>2026-05-01T14:05:45.505Z</time></trkpt><trkpt lat="43.5541699" lon="12.5437924"><ele>1408.0</ele><time>2026-05-01T14:05:46.506Z</time></trkpt><trkpt lat="43.5542221" lon="12.5437157"><ele>1408.0</ele><time>2026-05-01T14:05:47.506Z</time></trkpt><trkpt lat="43.5542918" lon="12.5436526"><ele>1408.0</ele><time>2026-05-01T14:05:49.506Z</time></trkpt><trkpt lat="43.5543247" lon="12.5435743"><ele>1408.0</ele><time>2026-05-01T14:05:53.506Z</time></trkpt><trkpt lat="43.554309" lon="12.5434804"><ele>1408.0</ele><time>2026-05-01T14:09:07.506Z</time></trkpt><trkpt lat="43.5543246" lon="12.5435681"><ele>1408.0</ele><time>2026-05-01T14:10:53.506Z</time></trkpt><trkpt lat="43.5543626" lon="12.5434619"><ele>1408.0</ele><time>2026-05-01T14:12:54.506Z</time></trkpt><trkpt lat="43.5543578" lon="12.5433174"><ele>1409.1666666666665</ele><time>2026-05-01T14:12:56.505Z</time></trkpt><trkpt lat="43.5543658" lon="12.5432112"><ele>1410.3333333333333</ele><time>2026-05-01T14:12:57.506Z</time></trkpt><trkpt lat="43.5543843" lon="12.5430947"><ele>1411.5</ele><time>2026-05-01T14:12:58.506Z</time></trkpt><trkpt lat="43.5544036" lon="12.5429892"><ele>1412.6666666666667</ele><time>2026-05-01T14:12:59.506Z</time></trkpt><trkpt lat="43.5544304" lon="12.5428948"><ele>1413.8333333333335</ele><time>2026-05-01T14:13:00.506Z</time></trkpt><trkpt lat="43.5544639" lon="12.5428076"><ele>1415.0</ele><time>2026-05-01T14:13:01.506Z</time></trkpt><trkpt lat="43.55451" lon="12.5427178"><ele>1413.0</ele><time>2026-05-01T14:13:02.505Z</time></trkpt><trkpt lat="43.5545619" lon="12.5426046"><ele>1411.0</ele><time>2026-05-01T14:13:03.505Z</time></trkpt><trkpt lat="43.554608" lon="12.5424917"><ele>1409.0</ele><time>2026-05-01T14:13:04.506Z</time></trkpt><trkpt lat="43.5546455" lon="12.5423763"><ele>1407.0</ele><time>2026-05-01T14:13:05.506Z</time></trkpt><trkpt lat="43.5546775" lon="12.542258"><ele>1405.0</ele><time>2026-05-01T14:13:06.505Z</time></trkpt><trkpt lat="43.5546945" lon="12.5421526"><ele>1403.4</ele><time>2026-05-01T14:13:07.505Z</time></trkpt><trkpt lat="43.5547014" lon="12.5420311"><ele>1401.8</ele><time>2026-05-01T14:13:08.506Z</time></trkpt><trkpt lat="43.5546978" lon="12.5418899"><ele>1400.1999999999998</ele><time>2026-05-01T14:13:09.506Z</time></trkpt><trkpt lat="43.5546687" lon="12.5417486"><ele>1398.6</ele><time>2026-05-01T14:13:10.506Z</time></trkpt><trkpt lat="43.5546225" lon="12.5416235"><ele>1397.0</ele><time>2026-05-01T14:13:11.506Z</time></trkpt><trkpt lat="43.5545734" lon="12.5415038"><ele>1400.8</ele><time>2026-05-01T14:13:12.506Z</time></trkpt><trkpt lat="43.5545289" lon="12.5413888"><ele>1404.6</ele><time>2026-05-01T14:13:13.506Z</time></trkpt><trkpt lat="43.5544876" lon="12.5412703"><ele>1408.3999999999999</ele><time>2026-05-01T14:13:14.506Z</time></trkpt><trkpt lat="43.5544565" lon="12.5411423"><ele>1412.1999999999998</ele><time>2026-05-01T14:13:15.506Z</time></trkpt><trkpt lat="43.5544336" lon="12.5410233"><ele>1416.0</ele><time>2026-05-01T14:13:16.506Z</time></trkpt><trkpt lat="43.5544305" lon="12.5408858"><ele>1416.0</ele><time>2026-05-01T14:13:17.505Z</time></trkpt><trkpt lat="43.5544347" lon="12.5407505"><ele>1416.0</ele><time>2026-05-01T14:13:18.506Z</time></trkpt><trkpt lat="43.5544829" lon="12.5406085"><ele>1416.0</ele><time>2026-05-01T14:13:19.506Z</time></trkpt><trkpt lat="43.5545583" lon="12.5404585"><ele>1416.0</ele><time>2026-05-01T14:13:20.505Z</time></trkpt><trkpt lat="43.5546383" lon="12.5403202"><ele>1412.0</ele><time>2026-05-01T14:13:21.506Z</time></trkpt><trkpt lat="43.5547156" lon="12.5401865"><ele>1408.0</ele><time>2026-05-01T14:13:22.506Z</time></trkpt><trkpt lat="43.554786" lon="12.5400484"><ele>1404.0</ele><time>2026-05-01T14:13:23.506Z</time></trkpt><trkpt lat="43.5548415" lon="12.5399171"><ele>1400.0</ele><time>2026-05-01T14:13:24.506Z</time></trkpt><trkpt lat="43.5548756" lon="12.5398115"><ele>1396.0</ele><time>2026-05-01T14:13:25.506Z</time></trkpt><trkpt lat="43.5548943" lon="12.5397116"><ele>1396.0</ele><time>2026-05-01T14:13:26.506Z</time></trkpt><trkpt lat="43.5549028" lon="12.5395894"><ele>1396.0</ele><time>2026-05-01T14:13:27.506Z</time></trkpt><trkpt lat="43.5548925" lon="12.5394571"><ele>1396.0</ele><time>2026-05-01T14:13:28.506Z</time></trkpt><trkpt lat="43.5548854" lon="12.5393319"><ele>1396.0</ele><time>2026-05-01T14:13:29.506Z</time></trkpt><trkpt lat="43.5548805" lon="12.5392022"><ele>1396.0</ele><time>2026-05-01T14:13:30.506Z</time></trkpt><trkpt lat="43.5548839" lon="12.5390748"><ele>1395.8333333333333</ele><time>2026-05-01T14:13:31.505Z</time></trkpt><trkpt lat="43.55489" lon="12.538947"><ele>1395.6666666666665</ele><time>2026-05-01T14:13:32.506Z</time></trkpt><trkpt lat="43.5548972" lon="12.5388252"><ele>1395.5</ele><time>2026-05-01T14:13:33.506Z</time></trkpt><trkpt lat="43.5549018" lon="12.5387051"><ele>1395.3333333333333</ele><time>2026-05-01T14:13:34.506Z</time></trkpt><trkpt lat="43.5548977" lon="12.5385874"><ele>1395.1666666666667</ele><time>2026-05-01T14:13:35.506Z</time></trkpt><trkpt lat="43.5548954" lon="12.5384776"><ele>1395.0</ele><time>2026-05-01T14:13:36.506Z</time></trkpt><trkpt lat="43.5548772" lon="12.5383779"><ele>1395.0</ele><time>2026-05-01T14:13:37.506Z</time></trkpt><trkpt lat="43.5548572" lon="12.5382771"><ele>1395.0</ele><time>2026-05-01T14:13:38.506Z</time></trkpt><trkpt lat="43.5548353" lon="12.5381715"><ele>1395.0</ele><time>2026-05-01T14:13:39.505Z</time></trkpt><trkpt lat="43.5548019" lon="12.5380576"><ele>1395.0</ele><time>2026-05-01T14:13:40.506Z</time></trkpt><trkpt lat="43.5547477" lon="12.5379309"><ele>1395.0</ele><time>2026-05-01T14:13:41.506Z</time></trkpt><trkpt lat="43.5546996" lon="12.5378203"><ele>1395.0</ele><time>2026-05-01T14:13:42.506Z</time></trkpt><trkpt lat="43.5546439" lon="12.537704"><ele>1396.0</ele><time>2026-05-01T14:13:43.506Z</time></trkpt><trkpt lat="43.5545928" lon="12.5375942"><ele>1397.0</ele><time>2026-05-01T14:13:44.506Z</time></trkpt><trkpt lat="43.5545447" lon="12.5374804"><ele>1398.0</ele><time>2026-05-01T14:13:45.506Z</time></trkpt><trkpt lat="43.5544909" lon="12.5373662"><ele>1399.0</ele><time>2026-05-01T14:13:46.505Z</time></trkpt><trkpt lat="43.5544418" lon="12.5372597"><ele>1400.0</ele><time>2026-05-01T14:13:47.506Z</time></trkpt><trkpt lat="43.5543819" lon="12.5371649"><ele>1400.0</ele><time>2026-05-01T14:13:48.506Z</time></trkpt><trkpt lat="43.554305" lon="12.5370796"><ele>1400.0</ele><time>2026-05-01T14:13:49.506Z</time></trkpt><trkpt lat="43.5542326" lon="12.5370084"><ele>1400.0</ele><time>2026-05-01T14:13:50.506Z</time></trkpt><trkpt lat="43.5541681" lon="12.5369328"><ele>1400.0</ele><time>2026-05-01T14:13:51.506Z</time></trkpt><trkpt lat="43.554119" lon="12.5368298"><ele>1400.0</ele><time>2026-05-01T14:13:52.506Z</time></trkpt><trkpt lat="43.554101" lon="12.5367153"><ele>1400.0</ele><time>2026-05-01T14:13:53.506Z</time></trkpt><trkpt lat="43.5541044" lon="12.536607"><ele>1397.8</ele><time>2026-05-01T14:13:54.506Z</time></trkpt><trkpt lat="43.5541278" lon="12.5364841"><ele>1395.6</ele><time>2026-05-01T14:13:55.506Z</time></trkpt><trkpt lat="43.5541841" lon="12.5363515"><ele>1393.4</ele><time>2026-05-01T14:13:56.506Z</time></trkpt><trkpt lat="43.5542331" lon="12.5362118"><ele>1391.2</ele><time>2026-05-01T14:13:57.505Z</time></trkpt><trkpt lat="43.5542836" lon="12.5360916"><ele>1389.0</ele><time>2026-05-01T14:13:58.506Z</time></trkpt><trkpt lat="43.5543287" lon="12.5359667"><ele>1388.4</ele><time>2026-05-01T14:13:59.505Z</time></trkpt><trkpt lat="43.5543725" lon="12.5358478"><ele>1387.8000000000002</ele><time>2026-05-01T14:14:00.505Z</time></trkpt><trkpt lat="43.5544173" lon="12.5357363"><ele>1387.1999999999998</ele><time>2026-05-01T14:14:01.506Z</time></trkpt><trkpt lat="43.5544784" lon="12.5356234"><ele>1386.6</ele><time>2026-05-01T14:14:02.505Z</time></trkpt><trkpt lat="43.5545447" lon="12.5355104"><ele>1386.0</ele><time>2026-05-01T14:14:03.505Z</time></trkpt><trkpt lat="43.5546072" lon="12.5353829"><ele>1381.8</ele><time>2026-05-01T14:14:04.506Z</time></trkpt><trkpt lat="43.5546622" lon="12.5352585"><ele>1377.6</ele><time>2026-05-01T14:14:05.506Z</time></trkpt><trkpt lat="43.5547102" lon="12.5351313"><ele>1373.4</ele><time>2026-05-01T14:14:06.506Z</time></trkpt><trkpt lat="43.5547506" lon="12.5350099"><ele>1369.2</ele><time>2026-05-01T14:14:07.506Z</time></trkpt><trkpt lat="43.55479" lon="12.5348921"><ele>1365.0</ele><time>2026-05-01T14:14:08.506Z</time></trkpt><trkpt lat="43.5548053" lon="12.5347501"><ele>1365.0</ele><time>2026-05-01T14:14:09.506Z</time></trkpt><trkpt lat="43.5548152" lon="12.5346072"><ele>1365.0</ele><time>2026-05-01T14:14:10.506Z</time></trkpt><trkpt lat="43.5548098" lon="12.5344537"><ele>1365.0</ele><time>2026-05-01T14:14:11.506Z</time></trkpt><trkpt lat="43.5547973" lon="12.5343105"><ele>1365.0</ele><time>2026-05-01T14:14:12.505Z</time></trkpt><trkpt lat="43.554777" lon="12.5341488"><ele>1365.0</ele><time>2026-05-01T14:14:13.506Z</time></trkpt><trkpt lat="43.5547415" lon="12.5340018"><ele>1364.4</ele><time>2026-05-01T14:14:14.505Z</time></trkpt><trkpt lat="43.5546838" lon="12.5338654"><ele>1363.8</ele><time>2026-05-01T14:14:15.506Z</time></trkpt><trkpt lat="43.5546004" lon="12.5337502"><ele>1363.1999999999998</ele><time>2026-05-01T14:14:16.506Z</time></trkpt><trkpt lat="43.5545293" lon="12.5336467"><ele>1362.6</ele><time>2026-05-01T14:14:17.506Z</time></trkpt><trkpt lat="43.5544675" lon="12.5335417"><ele>1362.0</ele><time>2026-05-01T14:14:18.506Z</time></trkpt><trkpt lat="43.5544125" lon="12.5334151"><ele>1361.75</ele><time>2026-05-01T14:14:19.506Z</time></trkpt><trkpt lat="43.5543647" lon="12.5332664"><ele>1361.5</ele><time>2026-05-01T14:14:20.505Z</time></trkpt><trkpt lat="43.5543252" lon="12.5330926"><ele>1361.25</ele><time>2026-05-01T14:14:21.506Z</time></trkpt><trkpt lat="43.5542934" lon="12.5329376"><ele>1361.0</ele><time>2026-05-01T14:14:22.506Z</time></trkpt><trkpt lat="43.554263" lon="12.5327875"><ele>1359.0</ele><time>2026-05-01T14:14:23.505Z</time></trkpt><trkpt lat="43.5542308" lon="12.5326319"><ele>1357.0</ele><time>2026-05-01T14:14:24.506Z</time></trkpt><trkpt lat="43.5541958" lon="12.5324616"><ele>1355.0</ele><time>2026-05-01T14:14:25.506Z</time></trkpt><trkpt lat="43.5541577" lon="12.5322744"><ele>1353.0</ele><time>2026-05-01T14:14:26.506Z</time></trkpt><trkpt lat="43.5541269" lon="12.5320878"><ele>1354.0</ele><time>2026-05-01T14:14:27.506Z</time></trkpt><trkpt lat="43.5540945" lon="12.5319003"><ele>1355.0</ele><time>2026-05-01T14:14:28.506Z</time></trkpt><trkpt lat="43.5540703" lon="12.5317214"><ele>1356.0</ele><time>2026-05-01T14:14:29.506Z</time></trkpt><trkpt lat="43.5540422" lon="12.531543"><ele>1357.0</ele><time>2026-05-01T14:14:30.506Z</time></trkpt><trkpt lat="43.5540111" lon="12.5313627"><ele>1358.25</ele><time>2026-05-01T14:14:31.506Z</time></trkpt><trkpt lat="43.5539793" lon="12.5311822"><ele>1359.5</ele><time>2026-05-01T14:14:32.506Z</time></trkpt><trkpt lat="43.5539461" lon="12.5309991"><ele>1360.75</ele><time>2026-05-01T14:14:33.506Z</time></trkpt><trkpt lat="43.5539118" lon="12.5308198"><ele>1362.0</ele><time>2026-05-01T14:14:34.506Z</time></trkpt><trkpt lat="43.5538734" lon="12.5306625"><ele>1362.0</ele><time>2026-05-01T14:14:35.506Z</time></trkpt><trkpt lat="43.5538099" lon="12.5305292"><ele>1362.0</ele><time>2026-05-01T14:14:36.506Z</time></trkpt><trkpt lat="43.5537368" lon="12.5304298"><ele>1362.0</ele><time>2026-05-01T14:14:37.506Z</time></trkpt><trkpt lat="43.5536656" lon="12.5303481"><ele>1362.0</ele><time>2026-05-01T14:14:38.506Z</time></trkpt><trkpt lat="43.5536099" lon="12.5302632"><ele>1362.0</ele><time>2026-05-01T14:14:39.506Z</time></trkpt><trkpt lat="43.5535687" lon="12.5301557"><ele>1361.3999999999999</ele><time>2026-05-01T14:14:40.506Z</time></trkpt><trkpt lat="43.5535232" lon="12.5300244"><ele>1360.8</ele><time>2026-05-01T14:14:41.505Z</time></trkpt><trkpt lat="43.553483" lon="12.5299002"><ele>1360.2</ele><time>2026-05-01T14:14:42.506Z</time></trkpt><trkpt lat="43.5534452" lon="12.5297779"><ele>1359.6</ele><time>2026-05-01T14:14:43.506Z</time></trkpt><trkpt lat="43.5534032" lon="12.5296628"><ele>1359.0</ele><time>2026-05-01T14:14:44.506Z</time></trkpt><trkpt lat="43.5533606" lon="12.5295512"><ele>1360.8000000000002</ele><time>2026-05-01T14:14:45.506Z</time></trkpt><trkpt lat="43.5533164" lon="12.5294279"><ele>1362.6000000000001</ele><time>2026-05-01T14:14:46.506Z</time></trkpt><trkpt lat="43.5532685" lon="12.529295"><ele>1364.4</ele><time>2026-05-01T14:14:47.505Z</time></trkpt><trkpt lat="43.5532293" lon="12.5291624"><ele>1366.2</ele><time>2026-05-01T14:14:48.506Z</time></trkpt><trkpt lat="43.553188" lon="12.5290295"><ele>1368.0</ele><time>2026-05-01T14:14:49.506Z</time></trkpt><trkpt lat="43.5531613" lon="12.5289044"><ele>1368.0</ele><time>2026-05-01T14:14:50.505Z</time></trkpt><trkpt lat="43.553149" lon="12.5287915"><ele>1368.0</ele><time>2026-05-01T14:14:51.506Z</time></trkpt><trkpt lat="43.553166" lon="12.528695"><ele>1368.0</ele><time>2026-05-01T14:14:52.506Z</time></trkpt><trkpt lat="43.5532116" lon="12.5286201"><ele>1368.0</ele><time>2026-05-01T14:14:53.506Z</time></trkpt><trkpt lat="43.5532816" lon="12.5285494"><ele>1368.0</ele><time>2026-05-01T14:14:54.506Z</time></trkpt><trkpt lat="43.5533604" lon="12.5284852"><ele>1368.0</ele><time>2026-05-01T14:14:55.506Z</time></trkpt><trkpt lat="43.5534263" lon="12.5284056"><ele>1367.8000000000002</ele><time>2026-05-01T14:14:56.506Z</time></trkpt><trkpt lat="43.5534822" lon="12.5283012"><ele>1367.6</ele><time>2026-05-01T14:14:57.506Z</time></trkpt><trkpt lat="43.5535241" lon="12.5281713"><ele>1367.4</ele><time>2026-05-01T14:14:58.505Z</time></trkpt><trkpt lat="43.5535583" lon="12.5280449"><ele>1367.1999999999998</ele><time>2026-05-01T14:14:59.505Z</time></trkpt><trkpt lat="43.5535867" lon="12.5279151"><ele>1367.0</ele><time>2026-05-01T14:15:00.506Z</time></trkpt><trkpt lat="43.553609" lon="12.5277678"><ele>1366.1999999999998</ele><time>2026-05-01T14:15:01.505Z</time></trkpt><trkpt lat="43.5536252" lon="12.5276134"><ele>1365.4</ele><time>2026-05-01T14:15:02.506Z</time></trkpt><trkpt lat="43.5536356" lon="12.5274569"><ele>1364.6</ele><time>2026-05-01T14:15:03.506Z</time></trkpt><trkpt lat="43.5536342" lon="12.5273082"><ele>1363.8000000000002</ele><time>2026-05-01T14:15:04.505Z</time></trkpt><trkpt lat="43.553631" lon="12.5271727"><ele>1363.0</ele><time>2026-05-01T14:15:05.506Z</time></trkpt><trkpt lat="43.5536363" lon="12.527038"><ele>1362.75</ele><time>2026-05-01T14:15:06.505Z</time></trkpt><trkpt lat="43.5536485" lon="12.5268978"><ele>1362.5</ele><time>2026-05-01T14:15:07.506Z</time></trkpt><trkpt lat="43.553671" lon="12.5267491"><ele>1362.25</ele><time>2026-05-01T14:15:08.506Z</time></trkpt><trkpt lat="43.5537153" lon="12.5265978"><ele>1362.0</ele><time>2026-05-01T14:15:09.506Z</time></trkpt><trkpt lat="43.5537692" lon="12.5264476"><ele>1365.5</ele><time>2026-05-01T14:15:10.506Z</time></trkpt><trkpt lat="43.5538213" lon="12.526293"><ele>1369.0</ele><time>2026-05-01T14:15:11.506Z</time></trkpt><trkpt lat="43.5538776" lon="12.5261288"><ele>1372.5</ele><time>2026-05-01T14:15:12.506Z</time></trkpt><trkpt lat="43.5539383" lon="12.5259586"><ele>1376.0</ele><time>2026-05-01T14:15:13.506Z</time></trkpt><trkpt lat="43.5539995" lon="12.5257867"><ele>1376.0</ele><time>2026-05-01T14:15:14.505Z</time></trkpt><trkpt lat="43.5540594" lon="12.5256215"><ele>1376.0</ele><time>2026-05-01T14:15:15.506Z</time></trkpt><trkpt lat="43.5541215" lon="12.5254672"><ele>1376.0</ele><time>2026-05-01T14:15:16.506Z</time></trkpt><trkpt lat="43.5541826" lon="12.5253204"><ele>1376.0</ele><time>2026-05-01T14:15:17.505Z</time></trkpt><trkpt lat="43.5542475" lon="12.5251658"><ele>1376.0</ele><time>2026-05-01T14:15:18.506Z</time></trkpt><trkpt lat="43.5543092" lon="12.5250252"><ele>1376.0</ele><time>2026-05-01T14:15:19.506Z</time></trkpt><trkpt lat="43.5543647" lon="12.5248936"><ele>1376.0</ele><time>2026-05-01T14:15:20.506Z</time></trkpt><trkpt lat="43.5544181" lon="12.5247599"><ele>1376.0</ele><time>2026-05-01T14:15:21.505Z</time></trkpt><trkpt lat="43.5544698" lon="12.524627"><ele>1376.0</ele><time>2026-05-01T14:15:22.506Z</time></trkpt><trkpt lat="43.5545145" lon="12.5244813"><ele>1374.5</ele><time>2026-05-01T14:15:23.506Z</time></trkpt><trkpt lat="43.5545548" lon="12.5243224"><ele>1373.0</ele><time>2026-05-01T14:15:24.506Z</time></trkpt><trkpt lat="43.5545911" lon="12.5241649"><ele>1371.5</ele><time>2026-05-01T14:15:25.505Z</time></trkpt><trkpt lat="43.5546308" lon="12.524002"><ele>1370.0</ele><time>2026-05-01T14:15:26.506Z</time></trkpt><trkpt lat="43.5546707" lon="12.5238441"><ele>1370.8</ele><time>2026-05-01T14:15:27.506Z</time></trkpt><trkpt lat="43.5547078" lon="12.5236979"><ele>1371.6</ele><time>2026-05-01T14:15:28.506Z</time></trkpt><trkpt lat="43.554743" lon="12.5235649"><ele>1372.4</ele><time>2026-05-01T14:15:29.506Z</time></trkpt><trkpt lat="43.554776" lon="12.5234355"><ele>1373.2</ele><time>2026-05-01T14:15:30.506Z</time></trkpt><trkpt lat="43.5548026" lon="12.5233118"><ele>1374.0</ele><time>2026-05-01T14:15:31.506Z</time></trkpt><trkpt lat="43.5548321" lon="12.5231995"><ele>1374.0</ele><time>2026-05-01T14:15:32.506Z</time></trkpt><trkpt lat="43.5548622" lon="12.5230878"><ele>1374.0</ele><time>2026-05-01T14:15:33.506Z</time></trkpt><trkpt lat="43.5548859" lon="12.5229756"><ele>1374.0</ele><time>2026-05-01T14:15:34.505Z</time></trkpt><trkpt lat="43.5548993" lon="12.5228554"><ele>1374.0</ele><time>2026-05-01T14:15:35.506Z</time></trkpt><trkpt lat="43.5548918" lon="12.5227418"><ele>1374.0</ele><time>2026-05-01T14:15:36.506Z</time></trkpt><trkpt lat="43.5548725" lon="12.5226386"><ele>1374.0</ele><time>2026-05-01T14:15:37.506Z</time></trkpt><trkpt lat="43.5548569" lon="12.5225238"><ele>1376.6</ele><time>2026-05-01T14:15:38.506Z</time></trkpt><trkpt lat="43.5548503" lon="12.5224048"><ele>1379.2</ele><time>2026-05-01T14:15:39.506Z</time></trkpt><trkpt lat="43.554848" lon="12.5222786"><ele>1381.8</ele><time>2026-05-01T14:15:40.506Z</time></trkpt><trkpt lat="43.5548404" lon="12.5221418"><ele>1384.3999999999999</ele><time>2026-05-01T14:15:41.505Z</time></trkpt><trkpt lat="43.5548261" lon="12.5220028"><ele>1387.0</ele><time>2026-05-01T14:15:42.506Z</time></trkpt><trkpt lat="43.554814" lon="12.521877"><ele>1388.3999999999999</ele><time>2026-05-01T14:15:43.506Z</time></trkpt><trkpt lat="43.5548039" lon="12.5217485"><ele>1389.8</ele><time>2026-05-01T14:15:44.505Z</time></trkpt><trkpt lat="43.5548044" lon="12.5216131"><ele>1391.2</ele><time>2026-05-01T14:15:45.506Z</time></trkpt><trkpt lat="43.5548187" lon="12.5214722"><ele>1392.6</ele><time>2026-05-01T14:15:46.505Z</time></trkpt><trkpt lat="43.5548418" lon="12.5213287"><ele>1394.0</ele><time>2026-05-01T14:15:47.506Z</time></trkpt><trkpt lat="43.5548666" lon="12.5211903"><ele>1394.2</ele><time>2026-05-01T14:15:48.506Z</time></trkpt><trkpt lat="43.5548919" lon="12.521051"><ele>1394.4</ele><time>2026-05-01T14:15:49.506Z</time></trkpt><trkpt lat="43.5549179" lon="12.5209227"><ele>1394.6</ele><time>2026-05-01T14:15:50.506Z</time></trkpt><trkpt lat="43.5549412" lon="12.5208271"><ele>1394.8</ele><time>2026-05-01T14:15:51.506Z</time></trkpt><trkpt lat="43.5549781" lon="12.5206966"><ele>1395.0</ele><time>2026-05-01T14:15:53.506Z</time></trkpt><trkpt lat="43.5550174" lon="12.5206076"><ele>1395.0</ele><time>2026-05-01T14:15:55.506Z</time></trkpt><trkpt lat="43.5550549" lon="12.5206832"><ele>1395.0</ele><time>2026-05-01T14:16:04.505Z</time></trkpt><trkpt lat="43.5550399" lon="12.5207699"><ele>1395.0</ele><time>2026-05-01T14:16:08.506Z</time></trkpt></trkseg><trkseg><trkpt lat="43.555067" lon="12.5206801"><ele>1395.0</ele><time>2026-05-01T14:32:31.51Z</time></trkpt><trkpt lat="43.5550471" lon="12.5205744"><ele>1395.0</ele><time>2026-05-01T14:32:34.511Z</time></trkpt><trkpt lat="43.5550492" lon="12.5204585"><ele>1395.0</ele><time>2026-05-01T14:32:36.511Z</time></trkpt><trkpt lat="43.5550694" lon="12.5203384"><ele>1395.0</ele><time>2026-05-01T14:32:38.511Z</time></trkpt><trkpt lat="43.5551043" lon="12.5201925"><ele>1395.0</ele><time>2026-05-01T14:32:40.511Z</time></trkpt><trkpt lat="43.5551339" lon="12.5200299"><ele>1394.8333333333333</ele><time>2026-05-01T14:32:42.511Z</time></trkpt><trkpt lat="43.5551574" lon="12.5199264"><ele>1394.6666666666667</ele><time>2026-05-01T14:32:43.51Z</time></trkpt><trkpt lat="43.5551798" lon="12.5198195"><ele>1394.5</ele><time>2026-05-01T14:32:44.511Z</time></trkpt><trkpt lat="43.5552057" lon="12.5197309"><ele>1394.3333333333335</ele><time>2026-05-01T14:32:45.51Z</time></trkpt><trkpt lat="43.5552457" lon="12.519598"><ele>1394.1666666666667</ele><time>2026-05-01T14:32:47.51Z</time></trkpt><trkpt lat="43.5552655" lon="12.5194448"><ele>1394.0</ele><time>2026-05-01T14:32:49.511Z</time></trkpt><trkpt lat="43.55528" lon="12.519359"><ele>1394.0</ele><time>2026-05-01T14:32:50.511Z</time></trkpt><trkpt lat="43.5553099" lon="12.5192686"><ele>1394.0</ele><time>2026-05-01T14:32:51.511Z</time></trkpt><trkpt lat="43.5553498" lon="12.5191758"><ele>1394.0</ele><time>2026-05-01T14:32:52.511Z</time></trkpt><trkpt lat="43.5553905" lon="12.5190996"><ele>1394.0</ele><time>2026-05-01T14:32:53.51Z</time></trkpt><trkpt lat="43.5554618" lon="12.5189661"><ele>1394.0</ele><time>2026-05-01T14:32:55.511Z</time></trkpt><trkpt lat="43.5554944" lon="12.5188821"><ele>1394.0</ele><time>2026-05-01T14:32:56.511Z</time></trkpt><trkpt lat="43.5555203" lon="12.5187922"><ele>1399.0</ele><time>2026-05-01T14:32:57.511Z</time></trkpt><trkpt lat="43.555533" lon="12.5187053"><ele>1404.0</ele><time>2026-05-01T14:32:58.511Z</time></trkpt><trkpt lat="43.5555336" lon="12.5185402"><ele>1409.0</ele><time>2026-05-01T14:33:00.511Z</time></trkpt><trkpt lat="43.5555321" lon="12.5183955"><ele>1414.0</ele><time>2026-05-01T14:33:02.51Z</time></trkpt><trkpt lat="43.5555371" lon="12.518258"><ele>1419.0</ele><time>2026-05-01T14:33:04.511Z</time></trkpt><trkpt lat="43.5555423" lon="12.5181409"><ele>1419.0</ele><time>2026-05-01T14:33:06.511Z</time></trkpt><trkpt lat="43.5554896" lon="12.5180728"><ele>1419.0</ele><time>2026-05-01T14:33:08.51Z</time></trkpt><trkpt lat="43.5553834" lon="12.5180546"><ele>1419.0</ele><time>2026-05-01T14:33:10.511Z</time></trkpt><trkpt lat="43.5552827" lon="12.5179681"><ele>1419.0</ele><time>2026-05-01T14:33:12.51Z</time></trkpt><trkpt lat="43.5552477" lon="12.5178918"><ele>1419.0</ele><time>2026-05-01T14:33:13.511Z</time></trkpt><trkpt lat="43.555221" lon="12.5178106"><ele>1419.0</ele><time>2026-05-01T14:33:14.511Z</time></trkpt><trkpt lat="43.5551731" lon="12.5176763"><ele>1415.0</ele><time>2026-05-01T14:33:16.511Z</time></trkpt><trkpt lat="43.5551257" lon="12.5175411"><ele>1411.0</ele><time>2026-05-01T14:33:18.511Z</time></trkpt><trkpt lat="43.55508" lon="12.517401"><ele>1407.0</ele><time>2026-05-01T14:33:20.511Z</time></trkpt><trkpt lat="43.5550287" lon="12.5172502"><ele>1403.0</ele><time>2026-05-01T14:33:22.511Z</time></trkpt><trkpt lat="43.5549972" lon="12.5171577"><ele>1399.0</ele><time>2026-05-01T14:33:23.511Z</time></trkpt><trkpt lat="43.5549646" lon="12.5170688"><ele>1398.8000000000002</ele><time>2026-05-01T14:33:24.51Z</time></trkpt><trkpt lat="43.5549335" lon="12.5169854"><ele>1398.6000000000001</ele><time>2026-05-01T14:33:25.511Z</time></trkpt><trkpt lat="43.5549056" lon="12.5169057"><ele>1398.4</ele><time>2026-05-01T14:33:26.511Z</time></trkpt><trkpt lat="43.5548535" lon="12.5167542"><ele>1398.2</ele><time>2026-05-01T14:33:28.51Z</time></trkpt><trkpt lat="43.5548004" lon="12.5166056"><ele>1398.0</ele><time>2026-05-01T14:33:30.511Z</time></trkpt><trkpt lat="43.554759" lon="12.5164975"><ele>1398.0</ele><time>2026-05-01T14:33:32.51Z</time></trkpt><trkpt lat="43.5547149" lon="12.516403"><ele>1398.0</ele><time>2026-05-01T14:33:34.511Z</time></trkpt><trkpt lat="43.5546619" lon="12.51626"><ele>1398.0</ele><time>2026-05-01T14:33:36.511Z</time></trkpt><trkpt lat="43.5546334" lon="12.5161753"><ele>1398.0</ele><time>2026-05-01T14:33:37.511Z</time></trkpt><trkpt lat="43.5545971" lon="12.5160857"><ele>1398.0</ele><time>2026-05-01T14:33:38.511Z</time></trkpt><trkpt lat="43.5545539" lon="12.5159792"><ele>1398.0</ele><time>2026-05-01T14:33:39.511Z</time></trkpt><trkpt lat="43.5545237" lon="12.5158595"><ele>1396.5</ele><time>2026-05-01T14:33:40.511Z</time></trkpt><trkpt lat="43.5545088" lon="12.5157347"><ele>1395.0</ele><time>2026-05-01T14:33:41.51Z</time></trkpt><trkpt lat="43.5545303" lon="12.5156297"><ele>1393.5</ele><time>2026-05-01T14:33:42.511Z</time></trkpt><trkpt lat="43.554585" lon="12.5155608"><ele>1392.0</ele><time>2026-05-01T14:33:43.511Z</time></trkpt><trkpt lat="43.5546596" lon="12.5155375"><ele>1390.5</ele><time>2026-05-01T14:33:44.511Z</time></trkpt><trkpt lat="43.5547314" lon="12.5155625"><ele>1389.0</ele><time>2026-05-01T14:33:45.511Z</time></trkpt><trkpt lat="43.554795" lon="12.5156636"><ele>1389.0</ele><time>2026-05-01T14:33:46.511Z</time></trkpt><trkpt lat="43.5548435" lon="12.5157912"><ele>1389.0</ele><time>2026-05-01T14:33:47.511Z</time></trkpt><trkpt lat="43.5548917" lon="12.5158963"><ele>1389.0</ele><time>2026-05-01T14:33:48.51Z</time></trkpt><trkpt lat="43.5549595" lon="12.51594"><ele>1389.0</ele><time>2026-05-01T14:33:49.511Z</time></trkpt><trkpt lat="43.5550426" lon="12.5159447"><ele>1389.0</ele><time>2026-05-01T14:33:50.511Z</time></trkpt><trkpt lat="43.5551122" lon="12.5158995"><ele>1389.0</ele><time>2026-05-01T14:33:51.511Z</time></trkpt><trkpt lat="43.5551642" lon="12.5157973"><ele>1389.0</ele><time>2026-05-01T14:33:52.511Z</time></trkpt><trkpt lat="43.5551829" lon="12.5156567"><ele>1389.0</ele><time>2026-05-01T14:33:53.511Z</time></trkpt><trkpt lat="43.5551677" lon="12.5154913"><ele>1389.0</ele><time>2026-05-01T14:33:54.51Z</time></trkpt><trkpt lat="43.5551393" lon="12.5153228"><ele>1389.0</ele><time>2026-05-01T14:33:55.51Z</time></trkpt><trkpt lat="43.5551167" lon="12.5151498"><ele>1387.25</ele><time>2026-05-01T14:33:56.511Z</time></trkpt><trkpt lat="43.5550957" lon="12.5149704"><ele>1385.5</ele><time>2026-05-01T14:33:57.51Z</time></trkpt><trkpt lat="43.5550763" lon="12.5147949"><ele>1383.75</ele><time>2026-05-01T14:33:58.511Z</time></trkpt><trkpt lat="43.5550535" lon="12.5146223"><ele>1382.0</ele><time>2026-05-01T14:33:59.511Z</time></trkpt><trkpt lat="43.555033" lon="12.5144541"><ele>1381.25</ele><time>2026-05-01T14:34:00.511Z</time></trkpt><trkpt lat="43.5550079" lon="12.5142935"><ele>1380.5</ele><time>2026-05-01T14:34:01.511Z</time></trkpt><trkpt lat="43.5549507" lon="12.5141624"><ele>1379.75</ele><time>2026-05-01T14:34:02.511Z</time></trkpt><trkpt lat="43.5548616" lon="12.5140601"><ele>1379.0</ele><time>2026-05-01T14:34:03.51Z</time></trkpt><trkpt lat="43.5547619" lon="12.5139965"><ele>1379.0</ele><time>2026-05-01T14:34:04.51Z</time></trkpt><trkpt lat="43.5546529" lon="12.5139802"><ele>1379.0</ele><time>2026-05-01T14:34:05.511Z</time></trkpt><trkpt lat="43.5545491" lon="12.5140131"><ele>1379.0</ele><time>2026-05-01T14:34:06.511Z</time></trkpt><trkpt lat="43.5544584" lon="12.5141093"><ele>1379.0</ele><time>2026-05-01T14:34:07.511Z</time></trkpt><trkpt lat="43.5543777" lon="12.5142412"><ele>1374.5</ele><time>2026-05-01T14:34:08.511Z</time></trkpt><trkpt lat="43.5543048" lon="12.5143924"><ele>1370.0</ele><time>2026-05-01T14:34:09.51Z</time></trkpt><trkpt lat="43.5542335" lon="12.5145494"><ele>1365.5</ele><time>2026-05-01T14:34:10.51Z</time></trkpt><trkpt lat="43.5541625" lon="12.5146958"><ele>1361.0</ele><time>2026-05-01T14:34:11.511Z</time></trkpt><trkpt lat="43.554088" lon="12.5148299"><ele>1361.0</ele><time>2026-05-01T14:34:12.51Z</time></trkpt><trkpt lat="43.5540024" lon="12.5149521"><ele>1361.0</ele><time>2026-05-01T14:34:13.511Z</time></trkpt><trkpt lat="43.5539023" lon="12.5150614"><ele>1361.0</ele><time>2026-05-01T14:34:14.51Z</time></trkpt><trkpt lat="43.5537894" lon="12.5151761"><ele>1361.0</ele><time>2026-05-01T14:34:15.511Z</time></trkpt><trkpt lat="43.553674" lon="12.515309"><ele>1356.0</ele><time>2026-05-01T14:34:16.511Z</time></trkpt><trkpt lat="43.5535584" lon="12.5154384"><ele>1351.0</ele><time>2026-05-01T14:34:17.51Z</time></trkpt><trkpt lat="43.553436" lon="12.5155622"><ele>1346.0</ele><time>2026-05-01T14:34:18.511Z</time></trkpt><trkpt lat="43.553319" lon="12.5156958"><ele>1346.0</ele><time>2026-05-01T14:34:19.511Z</time></trkpt><trkpt lat="43.5532149" lon="12.5158375"><ele>1346.0</ele><time>2026-05-01T14:34:20.511Z</time></trkpt><trkpt lat="43.5531141" lon="12.5159857"><ele>1346.0</ele><time>2026-05-01T14:34:21.511Z</time></trkpt><trkpt lat="43.5530117" lon="12.5161353"><ele>1346.0</ele><time>2026-05-01T14:34:22.511Z</time></trkpt><trkpt lat="43.5529067" lon="12.5162717"><ele>1340.6666666666667</ele><time>2026-05-01T14:34:23.51Z</time></trkpt><trkpt lat="43.5528005" lon="12.5164084"><ele>1335.3333333333333</ele><time>2026-05-01T14:34:24.511Z</time></trkpt><trkpt lat="43.5526851" lon="12.5165445"><ele>1330.0</ele><time>2026-05-01T14:34:25.511Z</time></trkpt><trkpt lat="43.5525629" lon="12.5166716"><ele>1330.0</ele><time>2026-05-01T14:34:26.51Z</time></trkpt><trkpt lat="43.5524416" lon="12.5167965"><ele>1330.0</ele><time>2026-05-01T14:34:27.511Z</time></trkpt><trkpt lat="43.5523247" lon="12.5169129"><ele>1330.0</ele><time>2026-05-01T14:34:28.511Z</time></trkpt><trkpt lat="43.5522116" lon="12.5170244"><ele>1330.0</ele><time>2026-05-01T14:34:29.511Z</time></trkpt><trkpt lat="43.5521091" lon="12.5171516"><ele>1323.0</ele><time>2026-05-01T14:34:30.511Z</time></trkpt><trkpt lat="43.5520121" lon="12.5172895"><ele>1316.0</ele><time>2026-05-01T14:34:31.511Z</time></trkpt><trkpt lat="43.5519207" lon="12.517457"><ele>1309.0</ele><time>2026-05-01T14:34:32.511Z</time></trkpt><trkpt lat="43.5518359" lon="12.5176508"><ele>1309.0</ele><time>2026-05-01T14:34:33.511Z</time></trkpt><trkpt lat="43.5517441" lon="12.5178503"><ele>1309.0</ele><time>2026-05-01T14:34:34.511Z</time></trkpt><trkpt lat="43.5516435" lon="12.5180459"><ele>1309.0</ele><time>2026-05-01T14:34:35.511Z</time></trkpt><trkpt lat="43.5515446" lon="12.518242"><ele>1310.6666666666665</ele><time>2026-05-01T14:34:36.511Z</time></trkpt><trkpt lat="43.5514497" lon="12.5184358"><ele>1312.3333333333333</ele><time>2026-05-01T14:34:37.511Z</time></trkpt><trkpt lat="43.551358" lon="12.5186234"><ele>1314.0</ele><time>2026-05-01T14:34:38.511Z</time></trkpt><trkpt lat="43.5512755" lon="12.5187934"><ele>1309.0</ele><time>2026-05-01T14:34:39.51Z</time></trkpt><trkpt lat="43.5511885" lon="12.5189656"><ele>1304.0</ele><time>2026-05-01T14:34:40.511Z</time></trkpt><trkpt lat="43.5511028" lon="12.51914"><ele>1299.0</ele><time>2026-05-01T14:34:41.511Z</time></trkpt><trkpt lat="43.5510173" lon="12.5193075"><ele>1299.0</ele><time>2026-05-01T14:34:42.511Z</time></trkpt><trkpt lat="43.5509324" lon="12.5194737"><ele>1299.0</ele><time>2026-05-01T14:34:43.511Z</time></trkpt><trkpt lat="43.5508515" lon="12.5196315"><ele>1299.0</ele><time>2026-05-01T14:34:44.51Z</time></trkpt><trkpt lat="43.5507729" lon="12.5197866"><ele>1299.0</ele><time>2026-05-01T14:34:45.511Z</time></trkpt><trkpt lat="43.5506859" lon="12.5199133"><ele>1300.25</ele><time>2026-05-01T14:34:46.511Z</time></trkpt><trkpt lat="43.550579" lon="12.5199925"><ele>1301.5</ele><time>2026-05-01T14:34:47.511Z</time></trkpt><trkpt lat="43.550455" lon="12.5200369"><ele>1302.75</ele><time>2026-05-01T14:34:48.511Z</time></trkpt><trkpt lat="43.5503449" lon="12.5200149"><ele>1304.0</ele><time>2026-05-01T14:34:49.511Z</time></trkpt><trkpt lat="43.5502496" lon="12.5199658"><ele>1301.1666666666667</ele><time>2026-05-01T14:34:50.511Z</time></trkpt><trkpt lat="43.550177" lon="12.519894"><ele>1298.3333333333335</ele><time>2026-05-01T14:34:51.511Z</time></trkpt><trkpt lat="43.5501285" lon="12.5198007"><ele>1295.5</ele><time>2026-05-01T14:34:52.511Z</time></trkpt><trkpt lat="43.5500928" lon="12.5196963"><ele>1292.6666666666667</ele><time>2026-05-01T14:34:53.51Z</time></trkpt><trkpt lat="43.5500716" lon="12.519579"><ele>1289.8333333333333</ele><time>2026-05-01T14:34:54.51Z</time></trkpt><trkpt lat="43.5500732" lon="12.5194408"><ele>1287.0</ele><time>2026-05-01T14:34:55.51Z</time></trkpt><trkpt lat="43.5500868" lon="12.5193035"><ele>1286.8333333333333</ele><time>2026-05-01T14:34:56.51Z</time></trkpt><trkpt lat="43.5501054" lon="12.5191718"><ele>1286.6666666666667</ele><time>2026-05-01T14:34:57.511Z</time></trkpt><trkpt lat="43.5501234" lon="12.5190499"><ele>1286.5</ele><time>2026-05-01T14:34:58.51Z</time></trkpt><trkpt lat="43.5501386" lon="12.5189408"><ele>1286.3333333333335</ele><time>2026-05-01T14:34:59.511Z</time></trkpt><trkpt lat="43.5501446" lon="12.5188446"><ele>1286.1666666666667</ele><time>2026-05-01T14:35:00.51Z</time></trkpt><trkpt lat="43.5501622" lon="12.518695"><ele>1286.0</ele><time>2026-05-01T14:35:02.511Z</time></trkpt><trkpt lat="43.550127" lon="12.5186178"><ele>1286.0</ele><time>2026-05-01T14:35:04.511Z</time></trkpt><trkpt lat="43.5500553" lon="12.5186029"><ele>1286.0</ele><time>2026-05-01T14:35:06.51Z</time></trkpt><trkpt lat="43.5499745" lon="12.518672"><ele>1286.0</ele><time>2026-05-01T14:35:08.511Z</time></trkpt><trkpt lat="43.5498914" lon="12.5187937"><ele>1286.0</ele><time>2026-05-01T14:35:10.511Z</time></trkpt><trkpt lat="43.5498373" lon="12.5188657"><ele>1286.0</ele><time>2026-05-01T14:35:11.511Z</time></trkpt><trkpt lat="43.5497719" lon="12.5189438"><ele>1286.0</ele><time>2026-05-01T14:35:12.511Z</time></trkpt><trkpt lat="43.5497058" lon="12.5190225"><ele>1286.0</ele><time>2026-05-01T14:35:13.511Z</time></trkpt><trkpt lat="43.5496369" lon="12.5191044"><ele>1286.0</ele><time>2026-05-01T14:35:14.511Z</time></trkpt><trkpt lat="43.5495703" lon="12.5191811"><ele>1286.0</ele><time>2026-05-01T14:35:15.51Z</time></trkpt><trkpt lat="43.5495078" lon="12.5192615"><ele>1286.0</ele><time>2026-05-01T14:35:16.511Z</time></trkpt><trkpt lat="43.5494481" lon="12.5193394"><ele>1286.0</ele><time>2026-05-01T14:35:17.511Z</time></trkpt><trkpt lat="43.5493977" lon="12.5194187"><ele>1283.5</ele><time>2026-05-01T14:35:18.511Z</time></trkpt><trkpt lat="43.5493573" lon="12.5194951"><ele>1281.0</ele><time>2026-05-01T14:35:19.51Z</time></trkpt><trkpt lat="43.5493284" lon="12.5195741"><ele>1278.5</ele><time>2026-05-01T14:35:20.51Z</time></trkpt><trkpt lat="43.5493145" lon="12.5196658"><ele>1276.0</ele><time>2026-05-01T14:35:21.51Z</time></trkpt><trkpt lat="43.5493194" lon="12.5197715"><ele>1273.5</ele><time>2026-05-01T14:35:22.511Z</time></trkpt><trkpt lat="43.5493325" lon="12.5198897"><ele>1271.0</ele><time>2026-05-01T14:35:23.51Z</time></trkpt><trkpt lat="43.5493537" lon="12.5200122"><ele>1270.6</ele><time>2026-05-01T14:35:24.511Z</time></trkpt><trkpt lat="43.5493845" lon="12.520138"><ele>1270.1999999999998</ele><time>2026-05-01T14:35:25.51Z</time></trkpt><trkpt lat="43.5494251" lon="12.520261"><ele>1269.8000000000002</ele><time>2026-05-01T14:35:26.51Z</time></trkpt><trkpt lat="43.549464" lon="12.5203708"><ele>1269.4</ele><time>2026-05-01T14:35:27.511Z</time></trkpt><trkpt lat="43.5495081" lon="12.5204776"><ele>1269.0</ele><time>2026-05-01T14:35:28.511Z</time></trkpt><trkpt lat="43.5495413" lon="12.5205798"><ele>1271.0</ele><time>2026-05-01T14:35:29.511Z</time></trkpt><trkpt lat="43.549588" lon="12.520671"><ele>1273.0</ele><time>2026-05-01T14:35:30.51Z</time></trkpt><trkpt lat="43.5496558" lon="12.5207308"><ele>1275.0</ele><time>2026-05-01T14:35:31.511Z</time></trkpt><trkpt lat="43.5497463" lon="12.5207571"><ele>1277.0</ele><time>2026-05-01T14:35:32.51Z</time></trkpt><trkpt lat="43.5498255" lon="12.520752"><ele>1279.0</ele><time>2026-05-01T14:35:33.511Z</time></trkpt><trkpt lat="43.5498932" lon="12.5207583"><ele>1281.0</ele><time>2026-05-01T14:35:34.51Z</time></trkpt><trkpt lat="43.5499629" lon="12.5207752"><ele>1281.0</ele><time>2026-05-01T14:35:35.51Z</time></trkpt><trkpt lat="43.5500047" lon="12.5208632"><ele>1281.0</ele><time>2026-05-01T14:35:37.511Z</time></trkpt><trkpt lat="43.5499201" lon="12.5209457"><ele>1281.0</ele><time>2026-05-01T14:35:39.511Z</time></trkpt><trkpt lat="43.5497772" lon="12.5209541"><ele>1281.0</ele><time>2026-05-01T14:35:41.511Z</time></trkpt><trkpt lat="43.5496823" lon="12.52093"><ele>1281.0</ele><time>2026-05-01T14:35:42.51Z</time></trkpt><trkpt lat="43.5495851" lon="12.5209155"><ele>1278.8333333333333</ele><time>2026-05-01T14:35:43.511Z</time></trkpt><trkpt lat="43.5494948" lon="12.5208915"><ele>1276.6666666666667</ele><time>2026-05-01T14:35:44.511Z</time></trkpt><trkpt lat="43.5494105" lon="12.5208646"><ele>1274.5</ele><time>2026-05-01T14:35:45.511Z</time></trkpt><trkpt lat="43.5493331" lon="12.5208318"><ele>1272.3333333333335</ele><time>2026-05-01T14:35:46.511Z</time></trkpt><trkpt lat="43.5492539" lon="12.5208094"><ele>1270.1666666666667</ele><time>2026-05-01T14:35:47.51Z</time></trkpt><trkpt lat="43.5491693" lon="12.5208067"><ele>1268.0</ele><time>2026-05-01T14:35:48.51Z</time></trkpt><trkpt lat="43.549079" lon="12.5208189"><ele>1268.0</ele><time>2026-05-01T14:35:49.511Z</time></trkpt><trkpt lat="43.548982" lon="12.5208441"><ele>1268.0</ele><time>2026-05-01T14:35:50.511Z</time></trkpt><trkpt lat="43.5488821" lon="12.5208585"><ele>1268.0</ele><time>2026-05-01T14:35:51.511Z</time></trkpt><trkpt lat="43.5487785" lon="12.5208363"><ele>1268.0</ele><time>2026-05-01T14:35:52.511Z</time></trkpt><trkpt lat="43.5486769" lon="12.5208105"><ele>1268.0</ele><time>2026-05-01T14:35:53.51Z</time></trkpt><trkpt lat="43.5485944" lon="12.5207824"><ele>1262.8333333333335</ele><time>2026-05-01T14:35:54.51Z</time></trkpt><trkpt lat="43.5485166" lon="12.5207694"><ele>1257.6666666666667</ele><time>2026-05-01T14:35:55.51Z</time></trkpt><trkpt lat="43.5484475" lon="12.5207803"><ele>1252.5</ele><time>2026-05-01T14:35:56.511Z</time></trkpt><trkpt lat="43.5483874" lon="12.5208121"><ele>1247.3333333333333</ele><time>2026-05-01T14:35:57.511Z</time></trkpt><trkpt lat="43.5482915" lon="12.5209232"><ele>1242.1666666666665</ele><time>2026-05-01T14:35:59.511Z</time></trkpt><trkpt lat="43.5482609" lon="12.5210209"><ele>1237.0</ele><time>2026-05-01T14:36:00.511Z</time></trkpt><trkpt lat="43.5482426" lon="12.521131"><ele>1239.5</ele><time>2026-05-01T14:36:01.511Z</time></trkpt><trkpt lat="43.548218" lon="12.5212467"><ele>1242.0</ele><time>2026-05-01T14:36:02.511Z</time></trkpt><trkpt lat="43.5481948" lon="12.5213647"><ele>1244.5</ele><time>2026-05-01T14:36:03.511Z</time></trkpt><trkpt lat="43.5481712" lon="12.5214806"><ele>1247.0</ele><time>2026-05-01T14:36:04.511Z</time></trkpt><trkpt lat="43.5481517" lon="12.5215916"><ele>1249.5</ele><time>2026-05-01T14:36:05.511Z</time></trkpt><trkpt lat="43.5481434" lon="12.5216978"><ele>1252.0</ele><time>2026-05-01T14:36:06.511Z</time></trkpt><trkpt lat="43.5481485" lon="12.5217954"><ele>1252.0</ele><time>2026-05-01T14:36:07.511Z</time></trkpt><trkpt lat="43.5481654" lon="12.5218853"><ele>1252.0</ele><time>2026-05-01T14:36:08.511Z</time></trkpt><trkpt lat="43.5482063" lon="12.5219599"><ele>1252.0</ele><time>2026-05-01T14:36:09.511Z</time></trkpt><trkpt lat="43.548257" lon="12.5220188"><ele>1252.0</ele><time>2026-05-01T14:36:10.51Z</time></trkpt><trkpt lat="43.5483188" lon="12.5220798"><ele>1252.0</ele><time>2026-05-01T14:36:11.511Z</time></trkpt><trkpt lat="43.5483827" lon="12.5221342"><ele>1252.0</ele><time>2026-05-01T14:36:12.51Z</time></trkpt><trkpt lat="43.548456" lon="12.522182"><ele>1252.0</ele><time>2026-05-01T14:36:13.511Z</time></trkpt><trkpt lat="43.5485335" lon="12.5222309"><ele>1252.6666666666665</ele><time>2026-05-01T14:36:14.511Z</time></trkpt><trkpt lat="43.5486085" lon="12.5222776"><ele>1253.3333333333333</ele><time>2026-05-01T14:36:15.51Z</time></trkpt><trkpt lat="43.5486905" lon="12.5223305"><ele>1254.0</ele><time>2026-05-01T14:36:16.511Z</time></trkpt><trkpt lat="43.5487709" lon="12.5223897"><ele>1254.6666666666667</ele><time>2026-05-01T14:36:17.511Z</time></trkpt><trkpt lat="43.5488504" lon="12.5224421"><ele>1255.3333333333335</ele><time>2026-05-01T14:36:18.511Z</time></trkpt><trkpt lat="43.5489315" lon="12.5224938"><ele>1256.0</ele><time>2026-05-01T14:36:19.511Z</time></trkpt><trkpt lat="43.5490075" lon="12.5225468"><ele>1256.0</ele><time>2026-05-01T14:36:20.511Z</time></trkpt><trkpt lat="43.5490728" lon="12.522612"><ele>1256.0</ele><time>2026-05-01T14:36:21.511Z</time></trkpt><trkpt lat="43.5491268" lon="12.5226887"><ele>1256.0</ele><time>2026-05-01T14:36:22.511Z</time></trkpt><trkpt lat="43.5491707" lon="12.5227907"><ele>1256.0</ele><time>2026-05-01T14:36:23.511Z</time></trkpt><trkpt lat="43.5491976" lon="12.5229153"><ele>1256.0</ele><time>2026-05-01T14:36:24.511Z</time></trkpt><trkpt lat="43.5492068" lon="12.5230316"><ele>1256.0</ele><time>2026-05-01T14:36:25.51Z</time></trkpt><trkpt lat="43.549204" lon="12.5231548"><ele>1253.8333333333335</ele><time>2026-05-01T14:36:26.51Z</time></trkpt><trkpt lat="43.5491926" lon="12.5232662"><ele>1251.6666666666667</ele><time>2026-05-01T14:36:27.51Z</time></trkpt><trkpt lat="43.5491939" lon="12.5233709"><ele>1249.5</ele><time>2026-05-01T14:36:28.511Z</time></trkpt><trkpt lat="43.5492022" lon="12.5234806"><ele>1247.3333333333333</ele><time>2026-05-01T14:36:29.511Z</time></trkpt><trkpt lat="43.5492259" lon="12.5235826"><ele>1245.1666666666665</ele><time>2026-05-01T14:36:30.511Z</time></trkpt><trkpt lat="43.5492704" lon="12.5236762"><ele>1243.0</ele><time>2026-05-01T14:36:31.511Z</time></trkpt><trkpt lat="43.5493296" lon="12.5237468"><ele>1240.3333333333333</ele><time>2026-05-01T14:36:32.511Z</time></trkpt><trkpt lat="43.5493977" lon="12.5237946"><ele>1237.6666666666665</ele><time>2026-05-01T14:36:33.511Z</time></trkpt><trkpt lat="43.5494715" lon="12.5238224"><ele>1235.0</ele><time>2026-05-01T14:36:34.51Z</time></trkpt><trkpt lat="43.5495332" lon="12.5238469"><ele>1232.3333333333333</ele><time>2026-05-01T14:36:35.511Z</time></trkpt><trkpt lat="43.5495843" lon="12.5238997"><ele>1229.6666666666667</ele><time>2026-05-01T14:36:36.51Z</time></trkpt><trkpt lat="43.5495862" lon="12.5240692"><ele>1227.0</ele><time>2026-05-01T14:36:38.51Z</time></trkpt><trkpt lat="43.5495669" lon="12.5241691"><ele>1227.0</ele><time>2026-05-01T14:36:39.511Z</time></trkpt><trkpt lat="43.5495355" lon="12.5242717"><ele>1227.0</ele><time>2026-05-01T14:36:40.51Z</time></trkpt><trkpt lat="43.5495019" lon="12.5243871"><ele>1227.0</ele><time>2026-05-01T14:36:41.511Z</time></trkpt><trkpt lat="43.5494625" lon="12.5245095"><ele>1227.0</ele><time>2026-05-01T14:36:42.511Z</time></trkpt><trkpt lat="43.5494212" lon="12.5246373"><ele>1227.0</ele><time>2026-05-01T14:36:43.511Z</time></trkpt><trkpt lat="43.5493815" lon="12.5247679"><ele>1226.4</ele><time>2026-05-01T14:36:44.511Z</time></trkpt><trkpt lat="43.549342" lon="12.5248952"><ele>1225.8000000000002</ele><time>2026-05-01T14:36:45.511Z</time></trkpt><trkpt lat="43.5493051" lon="12.525025"><ele>1225.2</ele><time>2026-05-01T14:36:46.511Z</time></trkpt><trkpt lat="43.5492731" lon="12.5251525"><ele>1224.6000000000001</ele><time>2026-05-01T14:36:47.51Z</time></trkpt><trkpt lat="43.5492409" lon="12.5252775"><ele>1224.0</ele><time>2026-05-01T14:36:48.511Z</time></trkpt><trkpt lat="43.5492137" lon="12.5253992"><ele>1222.8333333333333</ele><time>2026-05-01T14:36:49.51Z</time></trkpt><trkpt lat="43.549192" lon="12.5255078"><ele>1221.6666666666667</ele><time>2026-05-01T14:36:50.51Z</time></trkpt><trkpt lat="43.5491806" lon="12.5256185"><ele>1220.5</ele><time>2026-05-01T14:36:51.51Z</time></trkpt><trkpt lat="43.5491801" lon="12.5257274"><ele>1219.3333333333335</ele><time>2026-05-01T14:36:52.51Z</time></trkpt><trkpt lat="43.5491908" lon="12.5258324"><ele>1218.1666666666667</ele><time>2026-05-01T14:36:53.511Z</time></trkpt><trkpt lat="43.5492136" lon="12.5259359"><ele>1217.0</ele><time>2026-05-01T14:36:54.51Z</time></trkpt><trkpt lat="43.5492435" lon="12.5260294"><ele>1217.0</ele><time>2026-05-01T14:36:55.511Z</time></trkpt><trkpt lat="43.5492769" lon="12.5261233"><ele>1217.0</ele><time>2026-05-01T14:36:56.511Z</time></trkpt><trkpt lat="43.5493112" lon="12.5262104"><ele>1217.0</ele><time>2026-05-01T14:36:57.511Z</time></trkpt><trkpt lat="43.549355" lon="12.5262919"><ele>1217.0</ele><time>2026-05-01T14:36:58.51Z</time></trkpt><trkpt lat="43.549406" lon="12.5263668"><ele>1217.0</ele><time>2026-05-01T14:36:59.511Z</time></trkpt><trkpt lat="43.5494645" lon="12.5264399"><ele>1217.0</ele><time>2026-05-01T14:37:00.511Z</time></trkpt><trkpt lat="43.5495338" lon="12.5264992"><ele>1219.3333333333335</ele><time>2026-05-01T14:37:01.51Z</time></trkpt><trkpt lat="43.5496096" lon="12.5265534"><ele>1221.6666666666667</ele><time>2026-05-01T14:37:02.511Z</time></trkpt><trkpt lat="43.5496857" lon="12.5266022"><ele>1224.0</ele><time>2026-05-01T14:37:03.511Z</time></trkpt><trkpt lat="43.5497674" lon="12.52665"><ele>1226.3333333333333</ele><time>2026-05-01T14:37:04.51Z</time></trkpt><trkpt lat="43.5498526" lon="12.526701"><ele>1228.6666666666665</ele><time>2026-05-01T14:37:05.511Z</time></trkpt><trkpt lat="43.5499321" lon="12.5267722"><ele>1231.0</ele><time>2026-05-01T14:37:06.511Z</time></trkpt><trkpt lat="43.5499988" lon="12.5268446"><ele>1231.0</ele><time>2026-05-01T14:37:07.511Z</time></trkpt><trkpt lat="43.5500632" lon="12.5269126"><ele>1231.0</ele><time>2026-05-01T14:37:08.511Z</time></trkpt><trkpt lat="43.550131" lon="12.5269618"><ele>1231.0</ele><time>2026-05-01T14:37:09.51Z</time></trkpt><trkpt lat="43.5502058" lon="12.5270063"><ele>1231.0</ele><time>2026-05-01T14:37:10.511Z</time></trkpt><trkpt lat="43.5502787" lon="12.5270378"><ele>1231.0</ele><time>2026-05-01T14:37:11.511Z</time></trkpt><trkpt lat="43.5503468" lon="12.5270634"><ele>1231.0</ele><time>2026-05-01T14:37:12.51Z</time></trkpt><trkpt lat="43.550454" lon="12.5271048"><ele>1233.6</ele><time>2026-05-01T14:37:14.51Z</time></trkpt><trkpt lat="43.5504902" lon="12.5272371"><ele>1236.1999999999998</ele><time>2026-05-01T14:37:16.51Z</time></trkpt><trkpt lat="43.5504651" lon="12.5273568"><ele>1238.8000000000002</ele><time>2026-05-01T14:37:17.511Z</time></trkpt><trkpt lat="43.5504267" lon="12.5275115"><ele>1241.4</ele><time>2026-05-01T14:37:18.511Z</time></trkpt><trkpt lat="43.5503858" lon="12.5276714"><ele>1244.0</ele><time>2026-05-01T14:37:19.511Z</time></trkpt><trkpt lat="43.550352" lon="12.5278451"><ele>1231.8</ele><time>2026-05-01T14:37:20.511Z</time></trkpt><trkpt lat="43.5503295" lon="12.5279821"><ele>1219.6000000000001</ele><time>2026-05-01T14:37:21.51Z</time></trkpt><trkpt lat="43.5503109" lon="12.528122"><ele>1207.4</ele><time>2026-05-01T14:37:22.511Z</time></trkpt><trkpt lat="43.5502927" lon="12.528269"><ele>1195.2</ele><time>2026-05-01T14:37:23.511Z</time></trkpt><trkpt lat="43.5502802" lon="12.5284134"><ele>1183.0</ele><time>2026-05-01T14:37:24.511Z</time></trkpt><trkpt lat="43.5502686" lon="12.5285473"><ele>1183.0</ele><time>2026-05-01T14:37:25.511Z</time></trkpt><trkpt lat="43.5502659" lon="12.5286753"><ele>1183.0</ele><time>2026-05-01T14:37:26.511Z</time></trkpt><trkpt lat="43.5502588" lon="12.5288006"><ele>1183.0</ele><time>2026-05-01T14:37:27.511Z</time></trkpt><trkpt lat="43.5502544" lon="12.5289144"><ele>1183.0</ele><time>2026-05-01T14:37:28.511Z</time></trkpt><trkpt lat="43.550261" lon="12.5290314"><ele>1183.0</ele><time>2026-05-01T14:37:29.511Z</time></trkpt><trkpt lat="43.5502633" lon="12.5291309"><ele>1183.0</ele><time>2026-05-01T14:37:30.511Z</time></trkpt><trkpt lat="43.5502606" lon="12.5292205"><ele>1182.5</ele><time>2026-05-01T14:37:31.51Z</time></trkpt><trkpt lat="43.5502755" lon="12.5293534"><ele>1182.0</ele><time>2026-05-01T14:37:33.511Z</time></trkpt><trkpt lat="43.5502452" lon="12.5294645"><ele>1181.5</ele><time>2026-05-01T14:37:35.511Z</time></trkpt><trkpt lat="43.5501613" lon="12.5294278"><ele>1181.0</ele><time>2026-05-01T14:37:37.511Z</time></trkpt><trkpt lat="43.5501253" lon="12.5293036"><ele>1180.5</ele><time>2026-05-01T14:37:39.511Z</time></trkpt><trkpt lat="43.5501209" lon="12.5291956"><ele>1180.0</ele><time>2026-05-01T14:37:40.511Z</time></trkpt><trkpt lat="43.5501069" lon="12.5290727"><ele>1180.0</ele><time>2026-05-01T14:37:41.511Z</time></trkpt><trkpt lat="43.5500888" lon="12.5289512"><ele>1180.0</ele><time>2026-05-01T14:37:42.51Z</time></trkpt><trkpt lat="43.5500667" lon="12.5288335"><ele>1180.0</ele><time>2026-05-01T14:37:43.511Z</time></trkpt><trkpt lat="43.5500457" lon="12.5287245"><ele>1180.0</ele><time>2026-05-01T14:37:44.511Z</time></trkpt><trkpt lat="43.5500333" lon="12.5286245"><ele>1180.0</ele><time>2026-05-01T14:37:45.511Z</time></trkpt><trkpt lat="43.549995" lon="12.5284823"><ele>1180.0</ele><time>2026-05-01T14:37:47.51Z</time></trkpt><trkpt lat="43.5499435" lon="12.5284263"><ele>1180.0</ele><time>2026-05-01T14:37:49.511Z</time></trkpt><trkpt lat="43.5498808" lon="12.5284922"><ele>1180.0</ele><time>2026-05-01T14:37:51.51Z</time></trkpt><trkpt lat="43.5498748" lon="12.5286344"><ele>1180.0</ele><time>2026-05-01T14:37:53.511Z</time></trkpt><trkpt lat="43.549892" lon="12.5287304"><ele>1180.0</ele><time>2026-05-01T14:37:54.51Z</time></trkpt><trkpt lat="43.549898" lon="12.5288588"><ele>1180.0</ele><time>2026-05-01T14:37:55.511Z</time></trkpt><trkpt lat="43.5499036" lon="12.5289913"><ele>1180.0</ele><time>2026-05-01T14:37:56.511Z</time></trkpt><trkpt lat="43.5499004" lon="12.5291294"><ele>1180.0</ele><time>2026-05-01T14:37:57.51Z</time></trkpt><trkpt lat="43.5498875" lon="12.5292609"><ele>1180.0</ele><time>2026-05-01T14:37:58.51Z</time></trkpt><trkpt lat="43.5498614" lon="12.5293836"><ele>1180.0</ele><time>2026-05-01T14:37:59.511Z</time></trkpt><trkpt lat="43.5498264" lon="12.5294942"><ele>1180.0</ele><time>2026-05-01T14:38:00.511Z</time></trkpt><trkpt lat="43.5497942" lon="12.5295861"><ele>1180.0</ele><time>2026-05-01T14:38:01.511Z</time></trkpt><trkpt lat="43.5497725" lon="12.5296703"><ele>1180.0</ele><time>2026-05-01T14:38:02.511Z</time></trkpt><trkpt lat="43.5497808" lon="12.5298554"><ele>1179.0</ele><time>2026-05-01T14:38:04.511Z</time></trkpt><trkpt lat="43.5498094" lon="12.5299462"><ele>1178.0</ele><time>2026-05-01T14:38:05.511Z</time></trkpt><trkpt lat="43.549853" lon="12.5300092"><ele>1177.0</ele><time>2026-05-01T14:38:06.511Z</time></trkpt><trkpt lat="43.5499797" lon="12.5300309"><ele>1176.0</ele><time>2026-05-01T14:38:08.511Z</time></trkpt><trkpt lat="43.5500524" lon="12.5300129"><ele>1175.0</ele><time>2026-05-01T14:38:09.511Z</time></trkpt><trkpt lat="43.5501162" lon="12.5299875"><ele>1174.0</ele><time>2026-05-01T14:38:10.511Z</time></trkpt><trkpt lat="43.5502101" lon="12.5300057"><ele>1174.0</ele><time>2026-05-01T14:38:12.511Z</time></trkpt><trkpt lat="43.5502382" lon="12.5301173"><ele>1174.0</ele><time>2026-05-01T14:38:14.511Z</time></trkpt><trkpt lat="43.5502175" lon="12.5302006"><ele>1174.0</ele><time>2026-05-01T14:38:15.51Z</time></trkpt><trkpt lat="43.5501783" lon="12.5303033"><ele>1174.0</ele><time>2026-05-01T14:38:16.511Z</time></trkpt><trkpt lat="43.5501144" lon="12.5303924"><ele>1174.0</ele><time>2026-05-01T14:38:17.511Z</time></trkpt><trkpt lat="43.5500404" lon="12.5304538"><ele>1174.0</ele><time>2026-05-01T14:38:18.511Z</time></trkpt><trkpt lat="43.5499574" lon="12.5305267"><ele>1171.8</ele><time>2026-05-01T14:38:19.511Z</time></trkpt><trkpt lat="43.5498647" lon="12.5305827"><ele>1169.6000000000001</ele><time>2026-05-01T14:38:20.511Z</time></trkpt><trkpt lat="43.5497731" lon="12.5306057"><ele>1167.4</ele><time>2026-05-01T14:38:21.51Z</time></trkpt><trkpt lat="43.549687" lon="12.5306284"><ele>1165.2</ele><time>2026-05-01T14:38:22.511Z</time></trkpt><trkpt lat="43.5495994" lon="12.5306281"><ele>1163.0</ele><time>2026-05-01T14:38:23.511Z</time></trkpt><trkpt lat="43.5495076" lon="12.5306074"><ele>1163.0</ele><time>2026-05-01T14:38:24.511Z</time></trkpt><trkpt lat="43.5494207" lon="12.5305829"><ele>1163.0</ele><time>2026-05-01T14:38:25.51Z</time></trkpt><trkpt lat="43.5493477" lon="12.5305402"><ele>1163.0</ele><time>2026-05-01T14:38:26.511Z</time></trkpt><trkpt lat="43.5492744" lon="12.5305132"><ele>1163.0</ele><time>2026-05-01T14:38:27.511Z</time></trkpt><trkpt lat="43.5491993" lon="12.5304767"><ele>1163.0</ele><time>2026-05-01T14:38:28.511Z</time></trkpt><trkpt lat="43.5491329" lon="12.5304363"><ele>1163.0</ele><time>2026-05-01T14:38:29.511Z</time></trkpt><trkpt lat="43.5490326" lon="12.5303657"><ele>1163.0</ele><time>2026-05-01T14:38:31.51Z</time></trkpt><trkpt lat="43.5489288" lon="12.5304123"><ele>1163.0</ele><time>2026-05-01T14:38:33.51Z</time></trkpt><trkpt lat="43.5488857" lon="12.5304899"><ele>1163.0</ele><time>2026-05-01T14:38:34.511Z</time></trkpt><trkpt lat="43.5488476" lon="12.530578"><ele>1163.0</ele><time>2026-05-01T14:38:35.511Z</time></trkpt><trkpt lat="43.5488111" lon="12.5306661"><ele>1163.0</ele><time>2026-05-01T14:38:36.511Z</time></trkpt><trkpt lat="43.5487664" lon="12.5307366"><ele>1163.0</ele><time>2026-05-01T14:38:37.51Z</time></trkpt><trkpt lat="43.5487039" lon="12.530795"><ele>1157.6</ele><time>2026-05-01T14:38:38.511Z</time></trkpt><trkpt lat="43.5486254" lon="12.5308328"><ele>1152.1999999999998</ele><time>2026-05-01T14:38:39.511Z</time></trkpt><trkpt lat="43.5485412" lon="12.5308843"><ele>1146.8</ele><time>2026-05-01T14:38:40.511Z</time></trkpt><trkpt lat="43.5484547" lon="12.5309274"><ele>1141.3999999999999</ele><time>2026-05-01T14:38:41.51Z</time></trkpt><trkpt lat="43.5483619" lon="12.5309744"><ele>1136.0</ele><time>2026-05-01T14:38:42.511Z</time></trkpt><trkpt lat="43.5482616" lon="12.5310286"><ele>1136.0</ele><time>2026-05-01T14:38:43.511Z</time></trkpt><trkpt lat="43.5481638" lon="12.5310741"><ele>1136.0</ele><time>2026-05-01T14:38:44.511Z</time></trkpt><trkpt lat="43.5480633" lon="12.5311077"><ele>1136.0</ele><time>2026-05-01T14:38:45.511Z</time></trkpt><trkpt lat="43.5479718" lon="12.5311376"><ele>1136.0</ele><time>2026-05-01T14:38:46.51Z</time></trkpt><trkpt lat="43.5478828" lon="12.5311695"><ele>1136.0</ele><time>2026-05-01T14:38:47.511Z</time></trkpt><trkpt lat="43.5477934" lon="12.5311983"><ele>1139.1666666666667</ele><time>2026-05-01T14:38:48.51Z</time></trkpt><trkpt lat="43.5477033" lon="12.5312265"><ele>1142.3333333333335</ele><time>2026-05-01T14:38:49.511Z</time></trkpt><trkpt lat="43.5476115" lon="12.5312542"><ele>1145.5</ele><time>2026-05-01T14:38:50.511Z</time></trkpt><trkpt lat="43.547527" lon="12.5312879"><ele>1148.6666666666667</ele><time>2026-05-01T14:38:51.51Z</time></trkpt><trkpt lat="43.5474565" lon="12.5313052"><ele>1151.8333333333333</ele><time>2026-05-01T14:38:52.511Z</time></trkpt><trkpt lat="43.5473615" lon="12.5313568"><ele>1155.0</ele><time>2026-05-01T14:38:54.511Z</time></trkpt><trkpt lat="43.5472754" lon="12.531312"><ele>1147.6666666666667</ele><time>2026-05-01T14:38:56.511Z</time></trkpt><trkpt lat="43.5472739" lon="12.5312"><ele>1140.3333333333333</ele><time>2026-05-01T14:38:58.511Z</time></trkpt><trkpt lat="43.5473531" lon="12.53114"><ele>1133.0</ele><time>2026-05-01T14:39:00.51Z</time></trkpt><trkpt lat="43.5474231" lon="12.531118"><ele>1125.6666666666665</ele><time>2026-05-01T14:39:01.511Z</time></trkpt><trkpt lat="43.5475118" lon="12.5310948"><ele>1118.3333333333333</ele><time>2026-05-01T14:39:02.51Z</time></trkpt><trkpt lat="43.5476109" lon="12.5310354"><ele>1111.0</ele><time>2026-05-01T14:39:03.511Z</time></trkpt><trkpt lat="43.5477116" lon="12.5309669"><ele>1111.0</ele><time>2026-05-01T14:39:04.511Z</time></trkpt><trkpt lat="43.5478074" lon="12.5309032"><ele>1111.0</ele><time>2026-05-01T14:39:05.511Z</time></trkpt><trkpt lat="43.5479031" lon="12.5308321"><ele>1111.0</ele><time>2026-05-01T14:39:06.511Z</time></trkpt><trkpt lat="43.5479941" lon="12.5307535"><ele>1111.0</ele><time>2026-05-01T14:39:07.511Z</time></trkpt><trkpt lat="43.5480752" lon="12.5306708"><ele>1111.0</ele><time>2026-05-01T14:39:08.511Z</time></trkpt><trkpt lat="43.5481491" lon="12.5305994"><ele>1112.3333333333333</ele><time>2026-05-01T14:39:09.51Z</time></trkpt><trkpt lat="43.5482089" lon="12.5305198"><ele>1113.6666666666665</ele><time>2026-05-01T14:39:10.511Z</time></trkpt><trkpt lat="43.5482597" lon="12.5304327"><ele>1115.0</ele><time>2026-05-01T14:39:11.511Z</time></trkpt><trkpt lat="43.5482872" lon="12.5303301"><ele>1116.3333333333333</ele><time>2026-05-01T14:39:12.511Z</time></trkpt><trkpt lat="43.5482912" lon="12.5302245"><ele>1117.6666666666667</ele><time>2026-05-01T14:39:13.51Z</time></trkpt><trkpt lat="43.5482711" lon="12.5301051"><ele>1119.0</ele><time>2026-05-01T14:39:14.511Z</time></trkpt><trkpt lat="43.548236" lon="12.5299663"><ele>1119.0</ele><time>2026-05-01T14:39:15.511Z</time></trkpt><trkpt lat="43.5482018" lon="12.5298438"><ele>1119.0</ele><time>2026-05-01T14:39:16.51Z</time></trkpt><trkpt lat="43.5481623" lon="12.5297192"><ele>1119.0</ele><time>2026-05-01T14:39:17.511Z</time></trkpt><trkpt lat="43.5481227" lon="12.5296017"><ele>1119.0</ele><time>2026-05-01T14:39:18.51Z</time></trkpt><trkpt lat="43.5480843" lon="12.5294817"><ele>1119.0</ele><time>2026-05-01T14:39:19.511Z</time></trkpt><trkpt lat="43.5480721" lon="12.5293805"><ele>1117.8</ele><time>2026-05-01T14:39:20.511Z</time></trkpt><trkpt lat="43.5480861" lon="12.5292218"><ele>1116.6000000000001</ele><time>2026-05-01T14:39:22.511Z</time></trkpt><trkpt lat="43.5480902" lon="12.5290692"><ele>1115.4</ele><time>2026-05-01T14:39:24.511Z</time></trkpt><trkpt lat="43.5480665" lon="12.5289659"><ele>1114.2</ele><time>2026-05-01T14:39:26.511Z</time></trkpt><trkpt lat="43.547986" lon="12.5289449"><ele>1113.0</ele><time>2026-05-01T14:39:28.511Z</time></trkpt><trkpt lat="43.5479231" lon="12.5290674"><ele>1113.0</ele><time>2026-05-01T14:39:30.511Z</time></trkpt><trkpt lat="43.5479078" lon="12.5291605"><ele>1113.0</ele><time>2026-05-01T14:39:31.511Z</time></trkpt><trkpt lat="43.547893" lon="12.5292816"><ele>1113.0</ele><time>2026-05-01T14:39:32.51Z</time></trkpt><trkpt lat="43.5478763" lon="12.5294112"><ele>1113.0</ele><time>2026-05-01T14:39:33.511Z</time></trkpt><trkpt lat="43.547863" lon="12.5295334"><ele>1113.0</ele><time>2026-05-01T14:39:34.51Z</time></trkpt><trkpt lat="43.5478546" lon="12.5296626"><ele>1113.0</ele><time>2026-05-01T14:39:35.511Z</time></trkpt><trkpt lat="43.5478495" lon="12.5297812"><ele>1108.5</ele><time>2026-05-01T14:39:36.511Z</time></trkpt><trkpt lat="43.5478502" lon="12.5298983"><ele>1104.0</ele><time>2026-05-01T14:39:37.511Z</time></trkpt><trkpt lat="43.5478412" lon="12.5300117"><ele>1099.5</ele><time>2026-05-01T14:39:38.511Z</time></trkpt><trkpt lat="43.5478198" lon="12.5301181"><ele>1095.0</ele><time>2026-05-01T14:39:39.511Z</time></trkpt><trkpt lat="43.5477859" lon="12.530209"><ele>1090.5</ele><time>2026-05-01T14:39:40.511Z</time></trkpt><trkpt lat="43.5477233" lon="12.5302682"><ele>1086.0</ele><time>2026-05-01T14:39:41.511Z</time></trkpt><trkpt lat="43.5476296" lon="12.5303115"><ele>1086.0</ele><time>2026-05-01T14:39:42.511Z</time></trkpt><trkpt lat="43.547523" lon="12.5303374"><ele>1086.0</ele><time>2026-05-01T14:39:43.511Z</time></trkpt><trkpt lat="43.547408" lon="12.5303466"><ele>1086.0</ele><time>2026-05-01T14:39:44.511Z</time></trkpt><trkpt lat="43.5473007" lon="12.5303563"><ele>1086.0</ele><time>2026-05-01T14:39:45.51Z</time></trkpt><trkpt lat="43.5472016" lon="12.5303491"><ele>1086.0</ele><time>2026-05-01T14:39:46.511Z</time></trkpt><trkpt lat="43.547108" lon="12.5303355"><ele>1085.0</ele><time>2026-05-01T14:39:47.511Z</time></trkpt><trkpt lat="43.5470128" lon="12.5303159"><ele>1084.0</ele><time>2026-05-01T14:39:48.511Z</time></trkpt><trkpt lat="43.5469115" lon="12.530278"><ele>1083.0</ele><time>2026-05-01T14:39:49.511Z</time></trkpt><trkpt lat="43.5468137" lon="12.530233"><ele>1082.0</ele><time>2026-05-01T14:39:50.511Z</time></trkpt><trkpt lat="43.5467287" lon="12.5301855"><ele>1081.0</ele><time>2026-05-01T14:39:51.51Z</time></trkpt><trkpt lat="43.5466422" lon="12.5301371"><ele>1081.0</ele><time>2026-05-01T14:39:52.51Z</time></trkpt><trkpt lat="43.5465543" lon="12.5300935"><ele>1081.0</ele><time>2026-05-01T14:39:53.511Z</time></trkpt><trkpt lat="43.5464637" lon="12.5300426"><ele>1081.0</ele><time>2026-05-01T14:39:54.511Z</time></trkpt><trkpt lat="43.5463816" lon="12.5299858"><ele>1081.0</ele><time>2026-05-01T14:39:55.51Z</time></trkpt><trkpt lat="43.5463052" lon="12.5299286"><ele>1081.0</ele><time>2026-05-01T14:39:56.51Z</time></trkpt><trkpt lat="43.5462239" lon="12.5298726"><ele>1082.8333333333333</ele><time>2026-05-01T14:39:57.511Z</time></trkpt><trkpt lat="43.5461477" lon="12.5298129"><ele>1084.6666666666665</ele><time>2026-05-01T14:39:58.511Z</time></trkpt><trkpt lat="43.5460755" lon="12.5297615"><ele>1086.5</ele><time>2026-05-01T14:39:59.511Z</time></trkpt><trkpt lat="43.5459965" lon="12.5297072"><ele>1088.3333333333333</ele><time>2026-05-01T14:40:00.511Z</time></trkpt><trkpt lat="43.5459214" lon="12.5296496"><ele>1090.1666666666667</ele><time>2026-05-01T14:40:01.51Z</time></trkpt><trkpt lat="43.5458493" lon="12.5295868"><ele>1092.0</ele><time>2026-05-01T14:40:02.511Z</time></trkpt><trkpt lat="43.5457773" lon="12.5295266"><ele>1085.3333333333333</ele><time>2026-05-01T14:40:03.511Z</time></trkpt><trkpt lat="43.5456956" lon="12.5294823"><ele>1078.6666666666667</ele><time>2026-05-01T14:40:04.51Z</time></trkpt><trkpt lat="43.5456155" lon="12.5294428"><ele>1072.0</ele><time>2026-05-01T14:40:05.511Z</time></trkpt><trkpt lat="43.5455377" lon="12.5294083"><ele>1065.3333333333335</ele><time>2026-05-01T14:40:06.511Z</time></trkpt><trkpt lat="43.5454559" lon="12.5293772"><ele>1058.6666666666667</ele><time>2026-05-01T14:40:07.511Z</time></trkpt><trkpt lat="43.5453681" lon="12.52936"><ele>1052.0</ele><time>2026-05-01T14:40:08.511Z</time></trkpt><trkpt lat="43.5452777" lon="12.5293563"><ele>1050.6</ele><time>2026-05-01T14:40:09.511Z</time></trkpt><trkpt lat="43.5451744" lon="12.5293559"><ele>1049.2</ele><time>2026-05-01T14:40:10.511Z</time></trkpt><trkpt lat="43.5450612" lon="12.5293513"><ele>1047.8</ele><time>2026-05-01T14:40:11.51Z</time></trkpt><trkpt lat="43.5449484" lon="12.5293473"><ele>1046.4</ele><time>2026-05-01T14:40:12.511Z</time></trkpt><trkpt lat="43.5448294" lon="12.5293502"><ele>1045.0</ele><time>2026-05-01T14:40:13.51Z</time></trkpt><trkpt lat="43.5447134" lon="12.5293583"><ele>1045.0</ele><time>2026-05-01T14:40:14.511Z</time></trkpt><trkpt lat="43.5446005" lon="12.5293741"><ele>1045.0</ele><time>2026-05-01T14:40:15.511Z</time></trkpt><trkpt lat="43.5444884" lon="12.5293876"><ele>1045.0</ele><time>2026-05-01T14:40:16.511Z</time></trkpt><trkpt lat="43.5443799" lon="12.5293923"><ele>1045.0</ele><time>2026-05-01T14:40:17.511Z</time></trkpt><trkpt lat="43.5442764" lon="12.5294058"><ele>1045.0</ele><time>2026-05-01T14:40:18.511Z</time></trkpt><trkpt lat="43.5441739" lon="12.5294118"><ele>1042.6</ele><time>2026-05-01T14:40:19.51Z</time></trkpt><trkpt lat="43.5440765" lon="12.5294225"><ele>1040.2</ele><time>2026-05-01T14:40:20.511Z</time></trkpt><trkpt lat="43.5439707" lon="12.5294365"><ele>1037.8</ele><time>2026-05-01T14:40:21.51Z</time></trkpt><trkpt lat="43.5438627" lon="12.5294558"><ele>1035.4</ele><time>2026-05-01T14:40:22.511Z</time></trkpt><trkpt lat="43.5437545" lon="12.529484"><ele>1033.0</ele><time>2026-05-01T14:40:23.511Z</time></trkpt><trkpt lat="43.5436463" lon="12.5295104"><ele>1029.2</ele><time>2026-05-01T14:40:24.511Z</time></trkpt><trkpt lat="43.5435412" lon="12.5295415"><ele>1025.4</ele><time>2026-05-01T14:40:25.511Z</time></trkpt><trkpt lat="43.5434313" lon="12.529573"><ele>1021.6000000000001</ele><time>2026-05-01T14:40:26.51Z</time></trkpt><trkpt lat="43.5433267" lon="12.5296064"><ele>1017.8000000000001</ele><time>2026-05-01T14:40:27.51Z</time></trkpt><trkpt lat="43.5432213" lon="12.5296415"><ele>1014.0</ele><time>2026-05-01T14:40:28.511Z</time></trkpt><trkpt lat="43.5431145" lon="12.5296674"><ele>1018.8000000000001</ele><time>2026-05-01T14:40:29.511Z</time></trkpt><trkpt lat="43.5430035" lon="12.5296995"><ele>1023.6000000000001</ele><time>2026-05-01T14:40:30.511Z</time></trkpt><trkpt lat="43.5428976" lon="12.5297394"><ele>1028.4</ele><time>2026-05-01T14:40:31.511Z</time></trkpt><trkpt lat="43.5427894" lon="12.5297657"><ele>1033.2</ele><time>2026-05-01T14:40:32.511Z</time></trkpt><trkpt lat="43.5426827" lon="12.5297877"><ele>1038.0</ele><time>2026-05-01T14:40:33.511Z</time></trkpt><trkpt lat="43.5425764" lon="12.5298111"><ele>1038.0</ele><time>2026-05-01T14:40:34.51Z</time></trkpt><trkpt lat="43.5424728" lon="12.5298459"><ele>1038.0</ele><time>2026-05-01T14:40:35.511Z</time></trkpt><trkpt lat="43.5423683" lon="12.5298685"><ele>1038.0</ele><time>2026-05-01T14:40:36.511Z</time></trkpt><trkpt lat="43.5422648" lon="12.5298951"><ele>1038.0</ele><time>2026-05-01T14:40:37.51Z</time></trkpt><trkpt lat="43.5421645" lon="12.5299194"><ele>1038.0</ele><time>2026-05-01T14:40:38.51Z</time></trkpt><trkpt lat="43.5420654" lon="12.529943"><ele>1033.4</ele><time>2026-05-01T14:40:39.511Z</time></trkpt><trkpt lat="43.5419673" lon="12.5299665"><ele>1028.8</ele><time>2026-05-01T14:40:40.511Z</time></trkpt><trkpt lat="43.5418679" lon="12.5299998"><ele>1024.2</ele><time>2026-05-01T14:40:41.511Z</time></trkpt><trkpt lat="43.5417733" lon="12.5300473"><ele>1019.6</ele><time>2026-05-01T14:40:42.511Z</time></trkpt><trkpt lat="43.541681" lon="12.530098"><ele>1015.0</ele><time>2026-05-01T14:40:43.511Z</time></trkpt><trkpt lat="43.5415939" lon="12.5301515"><ele>1014.9999999999999</ele><time>2026-05-01T14:40:44.511Z</time></trkpt><trkpt lat="43.5415168" lon="12.5302005"><ele>1015.0</ele><time>2026-05-01T14:40:45.51Z</time></trkpt><trkpt lat="43.5414482" lon="12.5302353"><ele>1015.0</ele><time>2026-05-01T14:40:46.511Z</time></trkpt><trkpt lat="43.5413868" lon="12.5302696"><ele>1015.0</ele><time>2026-05-01T14:40:47.51Z</time></trkpt><trkpt lat="43.5412753" lon="12.5303032"><ele>1014.9999999999999</ele><time>2026-05-01T14:40:49.511Z</time></trkpt><trkpt lat="43.5412176" lon="12.5302287"><ele>1015.0</ele><time>2026-05-01T14:40:51.511Z</time></trkpt><trkpt lat="43.5412617" lon="12.5301017"><ele>1015.0</ele><time>2026-05-01T14:40:53.511Z</time></trkpt><trkpt lat="43.5413215" lon="12.53005"><ele>1015.0</ele><time>2026-05-01T14:40:54.511Z</time></trkpt><trkpt lat="43.5414032" lon="12.5299862"><ele>1015.0</ele><time>2026-05-01T14:40:55.511Z</time></trkpt><trkpt lat="43.5414952" lon="12.5298918"><ele>1015.0</ele><time>2026-05-01T14:40:56.511Z</time></trkpt><trkpt lat="43.5416005" lon="12.5297866"><ele>1015.0</ele><time>2026-05-01T14:40:57.511Z</time></trkpt><trkpt lat="43.5417077" lon="12.5296765"><ele>1015.0</ele><time>2026-05-01T14:40:58.51Z</time></trkpt><trkpt lat="43.5418206" lon="12.5295719"><ele>1015.0</ele><time>2026-05-01T14:40:59.511Z</time></trkpt><trkpt lat="43.5419399" lon="12.5294749"><ele>1015.0</ele><time>2026-05-01T14:41:00.51Z</time></trkpt><trkpt lat="43.5420706" lon="12.5293808"><ele>1015.0</ele><time>2026-05-01T14:41:01.511Z</time></trkpt><trkpt lat="43.5422015" lon="12.5292922"><ele>1009.75</ele><time>2026-05-01T14:41:02.511Z</time></trkpt><trkpt lat="43.5423324" lon="12.5292151"><ele>1004.5</ele><time>2026-05-01T14:41:03.511Z</time></trkpt><trkpt lat="43.5424662" lon="12.5291411"><ele>999.25</ele><time>2026-05-01T14:41:04.511Z</time></trkpt><trkpt lat="43.5426001" lon="12.5290576"><ele>994.0</ele><time>2026-05-01T14:41:05.511Z</time></trkpt><trkpt lat="43.5427338" lon="12.528959"><ele>994.0</ele><time>2026-05-01T14:41:06.511Z</time></trkpt><trkpt lat="43.5428592" lon="12.5288573"><ele>994.0</ele><time>2026-05-01T14:41:07.511Z</time></trkpt><trkpt lat="43.5429778" lon="12.5287586"><ele>994.0</ele><time>2026-05-01T14:41:08.51Z</time></trkpt><trkpt lat="43.5430951" lon="12.5286654"><ele>994.0</ele><time>2026-05-01T14:41:09.511Z</time></trkpt><trkpt lat="43.5432045" lon="12.5285765"><ele>991.25</ele><time>2026-05-01T14:41:10.511Z</time></trkpt><trkpt lat="43.5433094" lon="12.5284982"><ele>988.5</ele><time>2026-05-01T14:41:11.511Z</time></trkpt><trkpt lat="43.5434116" lon="12.5284329"><ele>985.75</ele><time>2026-05-01T14:41:12.51Z</time></trkpt><trkpt lat="43.5435158" lon="12.5283704"><ele>983.0</ele><time>2026-05-01T14:41:13.511Z</time></trkpt><trkpt lat="43.5436294" lon="12.5283175"><ele>987.25</ele><time>2026-05-01T14:41:14.511Z</time></trkpt><trkpt lat="43.5437463" lon="12.528267"><ele>991.5</ele><time>2026-05-01T14:41:15.511Z</time></trkpt><trkpt lat="43.5438676" lon="12.5282258"><ele>995.75</ele><time>2026-05-01T14:41:16.511Z</time></trkpt><trkpt lat="43.5439851" lon="12.5281793"><ele>1000.0</ele><time>2026-05-01T14:41:17.511Z</time></trkpt><trkpt lat="43.5440984" lon="12.5281247"><ele>1000.0</ele><time>2026-05-01T14:41:18.511Z</time></trkpt><trkpt lat="43.5442051" lon="12.5280739"><ele>1000.0</ele><time>2026-05-01T14:41:19.511Z</time></trkpt><trkpt lat="43.5442958" lon="12.528019"><ele>1000.0</ele><time>2026-05-01T14:41:20.511Z</time></trkpt><trkpt lat="43.544373" lon="12.5279645"><ele>1000.0</ele><time>2026-05-01T14:41:21.51Z</time></trkpt><trkpt lat="43.5444366" lon="12.5279201"><ele>1000.0</ele><time>2026-05-01T14:41:22.51Z</time></trkpt><trkpt lat="43.5445396" lon="12.5278424"><ele>999.0</ele><time>2026-05-01T14:41:24.511Z</time></trkpt><trkpt lat="43.5445978" lon="12.5277261"><ele>998.0</ele><time>2026-05-01T14:41:26.511Z</time></trkpt><trkpt lat="43.5445567" lon="12.5276158"><ele>997.0</ele><time>2026-05-01T14:41:28.511Z</time></trkpt><trkpt lat="43.5444288" lon="12.5275995"><ele>996.0</ele><time>2026-05-01T14:41:30.51Z</time></trkpt><trkpt lat="43.5443445" lon="12.5276453"><ele>995.0</ele><time>2026-05-01T14:41:31.511Z</time></trkpt><trkpt lat="43.5442502" lon="12.5277013"><ele>990.5</ele><time>2026-05-01T14:41:32.511Z</time></trkpt><trkpt lat="43.544139" lon="12.5277524"><ele>986.0</ele><time>2026-05-01T14:41:33.51Z</time></trkpt><trkpt lat="43.5440114" lon="12.5277967"><ele>981.5</ele><time>2026-05-01T14:41:34.51Z</time></trkpt><trkpt lat="43.5438804" lon="12.5278279"><ele>977.0</ele><time>2026-05-01T14:41:35.511Z</time></trkpt><trkpt lat="43.5437505" lon="12.527846"><ele>978.5</ele><time>2026-05-01T14:41:36.511Z</time></trkpt><trkpt lat="43.5436223" lon="12.52786"><ele>980.0</ele><time>2026-05-01T14:41:37.511Z</time></trkpt><trkpt lat="43.5435037" lon="12.5278705"><ele>981.5</ele><time>2026-05-01T14:41:38.51Z</time></trkpt><trkpt lat="43.5433962" lon="12.5278961"><ele>983.0</ele><time>2026-05-01T14:41:39.511Z</time></trkpt><trkpt lat="43.5432943" lon="12.5279171"><ele>983.0</ele><time>2026-05-01T14:41:40.511Z</time></trkpt><trkpt lat="43.5431939" lon="12.5279472"><ele>983.0</ele><time>2026-05-01T14:41:41.511Z</time></trkpt><trkpt lat="43.5430915" lon="12.5279813"><ele>983.0</ele><time>2026-05-01T14:41:42.511Z</time></trkpt><trkpt lat="43.5429854" lon="12.5280308"><ele>983.0</ele><time>2026-05-01T14:41:43.511Z</time></trkpt><trkpt lat="43.5428806" lon="12.5280796"><ele>983.0</ele><time>2026-05-01T14:41:44.511Z</time></trkpt><trkpt lat="43.5427759" lon="12.5281308"><ele>978.8</ele><time>2026-05-01T14:41:45.511Z</time></trkpt><trkpt lat="43.5426688" lon="12.5281767"><ele>974.5999999999999</ele><time>2026-05-01T14:41:46.511Z</time></trkpt><trkpt lat="43.542563" lon="12.528221"><ele>970.4000000000001</ele><time>2026-05-01T14:41:47.511Z</time></trkpt><trkpt lat="43.5424588" lon="12.5282609"><ele>966.2</ele><time>2026-05-01T14:41:48.51Z</time></trkpt><trkpt lat="43.5423578" lon="12.5282989"><ele>962.0</ele><time>2026-05-01T14:41:49.511Z</time></trkpt><trkpt lat="43.54226" lon="12.5283247"><ele>962.0</ele><time>2026-05-01T14:41:50.511Z</time></trkpt><trkpt lat="43.5421591" lon="12.5283466"><ele>962.0</ele><time>2026-05-01T14:41:51.511Z</time></trkpt><trkpt lat="43.542055" lon="12.5283633"><ele>962.0</ele><time>2026-05-01T14:41:52.511Z</time></trkpt><trkpt lat="43.5419445" lon="12.5283802"><ele>962.0</ele><time>2026-05-01T14:41:53.51Z</time></trkpt><trkpt lat="43.5418354" lon="12.5283979"><ele>962.0</ele><time>2026-05-01T14:41:54.51Z</time></trkpt><trkpt lat="43.5417258" lon="12.5284206"><ele>959.0</ele><time>2026-05-01T14:41:55.511Z</time></trkpt><trkpt lat="43.5416223" lon="12.5284436"><ele>956.0</ele><time>2026-05-01T14:41:56.511Z</time></trkpt><trkpt lat="43.5415211" lon="12.5284869"><ele>953.0</ele><time>2026-05-01T14:41:57.511Z</time></trkpt><trkpt lat="43.5414205" lon="12.5285313"><ele>950.0</ele><time>2026-05-01T14:41:58.511Z</time></trkpt><trkpt lat="43.541319" lon="12.5285716"><ele>947.0</ele><time>2026-05-01T14:41:59.511Z</time></trkpt><trkpt lat="43.54122" lon="12.5286024"><ele>944.4000000000001</ele><time>2026-05-01T14:42:00.511Z</time></trkpt><trkpt lat="43.541123" lon="12.5286252"><ele>941.8000000000001</ele><time>2026-05-01T14:42:01.51Z</time></trkpt><trkpt lat="43.5410183" lon="12.5286365"><ele>939.2</ele><time>2026-05-01T14:42:02.51Z</time></trkpt><trkpt lat="43.54091" lon="12.5286357"><ele>936.6</ele><time>2026-05-01T14:42:03.51Z</time></trkpt><trkpt lat="43.5407976" lon="12.5286264"><ele>934.0</ele><time>2026-05-01T14:42:04.51Z</time></trkpt><trkpt lat="43.5406819" lon="12.5286059"><ele>934.0</ele><time>2026-05-01T14:42:05.511Z</time></trkpt><trkpt lat="43.5405643" lon="12.5285852"><ele>934.0</ele><time>2026-05-01T14:42:06.51Z</time></trkpt><trkpt lat="43.5404452" lon="12.5285533"><ele>934.0</ele><time>2026-05-01T14:42:07.511Z</time></trkpt><trkpt lat="43.5403228" lon="12.5285206"><ele>934.0</ele><time>2026-05-01T14:42:08.511Z</time></trkpt><trkpt lat="43.5402071" lon="12.5284897"><ele>933.2</ele><time>2026-05-01T14:42:09.511Z</time></trkpt><trkpt lat="43.5400964" lon="12.5284582"><ele>932.4000000000001</ele><time>2026-05-01T14:42:10.511Z</time></trkpt><trkpt lat="43.5399876" lon="12.5284286"><ele>931.6</ele><time>2026-05-01T14:42:11.51Z</time></trkpt><trkpt lat="43.5398838" lon="12.528392"><ele>930.8</ele><time>2026-05-01T14:42:12.511Z</time></trkpt><trkpt lat="43.539785" lon="12.5283567"><ele>930.0</ele><time>2026-05-01T14:42:13.511Z</time></trkpt><trkpt lat="43.5396821" lon="12.5283266"><ele>930.0</ele><time>2026-05-01T14:42:14.511Z</time></trkpt><trkpt lat="43.5395763" lon="12.5283049"><ele>930.0</ele><time>2026-05-01T14:42:15.511Z</time></trkpt><trkpt lat="43.5394671" lon="12.528298"><ele>930.0</ele><time>2026-05-01T14:42:16.511Z</time></trkpt><trkpt lat="43.5393617" lon="12.5282915"><ele>930.0</ele><time>2026-05-01T14:42:17.51Z</time></trkpt><trkpt lat="43.5392629" lon="12.5282897"><ele>930.0</ele><time>2026-05-01T14:42:18.51Z</time></trkpt><trkpt lat="43.5391611" lon="12.5282909"><ele>930.2</ele><time>2026-05-01T14:42:19.511Z</time></trkpt><trkpt lat="43.5390576" lon="12.5282953"><ele>930.4</ele><time>2026-05-01T14:42:20.511Z</time></trkpt><trkpt lat="43.5389558" lon="12.5283016"><ele>930.5999999999999</ele><time>2026-05-01T14:42:21.511Z</time></trkpt><trkpt lat="43.5388582" lon="12.5283122"><ele>930.8</ele><time>2026-05-01T14:42:22.51Z</time></trkpt><trkpt lat="43.5387621" lon="12.5283301"><ele>931.0</ele><time>2026-05-01T14:42:23.51Z</time></trkpt><trkpt lat="43.5386637" lon="12.5283525"><ele>926.6666666666666</ele><time>2026-05-01T14:42:24.51Z</time></trkpt><trkpt lat="43.5385747" lon="12.5283729"><ele>922.3333333333333</ele><time>2026-05-01T14:42:25.511Z</time></trkpt><trkpt lat="43.5384888" lon="12.5284013"><ele>918.0</ele><time>2026-05-01T14:42:26.511Z</time></trkpt><trkpt lat="43.5384047" lon="12.5284341"><ele>913.6666666666667</ele><time>2026-05-01T14:42:27.511Z</time></trkpt><trkpt lat="43.5383277" lon="12.5284846"><ele>909.3333333333334</ele><time>2026-05-01T14:42:28.51Z</time></trkpt><trkpt lat="43.5382489" lon="12.5285434"><ele>905.0</ele><time>2026-05-01T14:42:29.511Z</time></trkpt><trkpt lat="43.5381708" lon="12.5286014"><ele>905.0000000000001</ele><time>2026-05-01T14:42:30.511Z</time></trkpt><trkpt lat="43.5380975" lon="12.5286585"><ele>905.0</ele><time>2026-05-01T14:42:31.51Z</time></trkpt><trkpt lat="43.538042" lon="12.5287323"><ele>905.0</ele><time>2026-05-01T14:42:32.511Z</time></trkpt><trkpt lat="43.5379873" lon="12.5288219"><ele>905.0</ele><time>2026-05-01T14:42:33.511Z</time></trkpt><trkpt lat="43.5379364" lon="12.5289006"><ele>905.0000000000001</ele><time>2026-05-01T14:42:34.51Z</time></trkpt><trkpt lat="43.5378951" lon="12.5289676"><ele>905.0</ele><time>2026-05-01T14:42:35.511Z</time></trkpt><trkpt lat="43.5378412" lon="12.5290696"><ele>905.0000000000001</ele><time>2026-05-01T14:42:37.511Z</time></trkpt><trkpt lat="43.5377774" lon="12.5290943"><ele>905.0</ele><time>2026-05-01T14:42:39.511Z</time></trkpt><trkpt lat="43.5377514" lon="12.5290066"><ele>905.0</ele><time>2026-05-01T14:42:41.51Z</time></trkpt><trkpt lat="43.5378057" lon="12.5288743"><ele>905.0</ele><time>2026-05-01T14:42:43.511Z</time></trkpt><trkpt lat="43.5378672" lon="12.5287813"><ele>905.0000000000001</ele><time>2026-05-01T14:42:44.511Z</time></trkpt><trkpt lat="43.5379324" lon="12.5286678"><ele>905.0</ele><time>2026-05-01T14:42:45.511Z</time></trkpt><trkpt lat="43.5379945" lon="12.5285488"><ele>905.0</ele><time>2026-05-01T14:42:46.511Z</time></trkpt><trkpt lat="43.5380539" lon="12.5284297"><ele>905.0</ele><time>2026-05-01T14:42:47.511Z</time></trkpt><trkpt lat="43.5381143" lon="12.5283155"><ele>905.0</ele><time>2026-05-01T14:42:48.511Z</time></trkpt><trkpt lat="43.5381814" lon="12.5282156"><ele>905.0</ele><time>2026-05-01T14:42:49.511Z</time></trkpt><trkpt lat="43.538261" lon="12.5281198"><ele>905.0</ele><time>2026-05-01T14:42:50.511Z</time></trkpt><trkpt lat="43.538347" lon="12.5280222"><ele>905.0</ele><time>2026-05-01T14:42:51.511Z</time></trkpt><trkpt lat="43.5384408" lon="12.527929"><ele>905.0</ele><time>2026-05-01T14:42:52.51Z</time></trkpt><trkpt lat="43.5385376" lon="12.5278389"><ele>905.0</ele><time>2026-05-01T14:42:53.511Z</time></trkpt><trkpt lat="43.5386336" lon="12.5277513"><ele>905.0</ele><time>2026-05-01T14:42:54.511Z</time></trkpt><trkpt lat="43.538726" lon="12.5276746"><ele>904.0</ele><time>2026-05-01T14:42:55.51Z</time></trkpt><trkpt lat="43.5388151" lon="12.5275971"><ele>903.0</ele><time>2026-05-01T14:42:56.511Z</time></trkpt><trkpt lat="43.5388954" lon="12.5275171"><ele>902.0</ele><time>2026-05-01T14:42:57.511Z</time></trkpt><trkpt lat="43.538967" lon="12.5274298"><ele>901.0</ele><time>2026-05-01T14:42:58.511Z</time></trkpt><trkpt lat="43.5390284" lon="12.5273341"><ele>900.0</ele><time>2026-05-01T14:42:59.511Z</time></trkpt><trkpt lat="43.5390907" lon="12.5272475"><ele>900.0</ele><time>2026-05-01T14:43:00.511Z</time></trkpt><trkpt lat="43.5391608" lon="12.5271798"><ele>900.0</ele><time>2026-05-01T14:43:01.51Z</time></trkpt><trkpt lat="43.5392357" lon="12.5271194"><ele>900.0</ele><time>2026-05-01T14:43:02.51Z</time></trkpt><trkpt lat="43.5393069" lon="12.5270733"><ele>900.0</ele><time>2026-05-01T14:43:03.511Z</time></trkpt><trkpt lat="43.5393759" lon="12.527037"><ele>900.0</ele><time>2026-05-01T14:43:04.511Z</time></trkpt><trkpt lat="43.5394357" lon="12.5270019"><ele>900.0</ele><time>2026-05-01T14:43:05.511Z</time></trkpt><trkpt lat="43.5394907" lon="12.5269026"><ele>895.2</ele><time>2026-05-01T14:43:07.511Z</time></trkpt><trkpt lat="43.5394437" lon="12.5267854"><ele>890.4</ele><time>2026-05-01T14:43:09.511Z</time></trkpt><trkpt lat="43.5393687" lon="12.5267556"><ele>885.5999999999999</ele><time>2026-05-01T14:43:10.511Z</time></trkpt><trkpt lat="43.5392663" lon="12.526775"><ele>880.8</ele><time>2026-05-01T14:43:11.511Z</time></trkpt><trkpt lat="43.5391578" lon="12.5268163"><ele>876.0</ele><time>2026-05-01T14:43:12.511Z</time></trkpt><trkpt lat="43.5390517" lon="12.5268557"><ele>876.0</ele><time>2026-05-01T14:43:13.51Z</time></trkpt><trkpt lat="43.5389602" lon="12.5268977"><ele>875.9999999999999</ele><time>2026-05-01T14:43:14.51Z</time></trkpt><trkpt lat="43.5388754" lon="12.5269612"><ele>875.9999999999999</ele><time>2026-05-01T14:43:15.511Z</time></trkpt><trkpt lat="43.5387902" lon="12.5270262"><ele>876.0</ele><time>2026-05-01T14:43:16.511Z</time></trkpt><trkpt lat="43.5387072" lon="12.5270749"><ele>876.0</ele><time>2026-05-01T14:43:17.511Z</time></trkpt><trkpt lat="43.5386283" lon="12.5271147"><ele>876.8333333333334</ele><time>2026-05-01T14:43:18.511Z</time></trkpt><trkpt lat="43.5385511" lon="12.5271431"><ele>877.6666666666667</ele><time>2026-05-01T14:43:19.511Z</time></trkpt><trkpt lat="43.53847" lon="12.5271788"><ele>878.5</ele><time>2026-05-01T14:43:20.511Z</time></trkpt><trkpt lat="43.5383833" lon="12.527229"><ele>879.3333333333334</ele><time>2026-05-01T14:43:21.511Z</time></trkpt><trkpt lat="43.5383081" lon="12.5272832"><ele>880.1666666666667</ele><time>2026-05-01T14:43:22.51Z</time></trkpt><trkpt lat="43.5382255" lon="12.5273344"><ele>881.0</ele><time>2026-05-01T14:43:23.511Z</time></trkpt><trkpt lat="43.538143" lon="12.5273823"><ele>881.0</ele><time>2026-05-01T14:43:24.511Z</time></trkpt><trkpt lat="43.5380613" lon="12.527443"><ele>880.9999999999999</ele><time>2026-05-01T14:43:25.511Z</time></trkpt><trkpt lat="43.5379816" lon="12.5274992"><ele>880.9999999999999</ele><time>2026-05-01T14:43:26.511Z</time></trkpt><trkpt lat="43.5378996" lon="12.5275551"><ele>881.0</ele><time>2026-05-01T14:43:27.511Z</time></trkpt><trkpt lat="43.5378216" lon="12.5276328"><ele>881.0</ele><time>2026-05-01T14:43:28.511Z</time></trkpt><trkpt lat="43.5377451" lon="12.5277223"><ele>876.5</ele><time>2026-05-01T14:43:29.511Z</time></trkpt><trkpt lat="43.5376744" lon="12.5278256"><ele>872.0</ele><time>2026-05-01T14:43:30.51Z</time></trkpt><trkpt lat="43.5375964" lon="12.5279328"><ele>867.5</ele><time>2026-05-01T14:43:31.511Z</time></trkpt><trkpt lat="43.5375151" lon="12.5280532"><ele>863.0</ele><time>2026-05-01T14:43:32.51Z</time></trkpt><trkpt lat="43.5374366" lon="12.5281809"><ele>863.0</ele><time>2026-05-01T14:43:33.51Z</time></trkpt><trkpt lat="43.5373511" lon="12.5283166"><ele>863.0</ele><time>2026-05-01T14:43:34.511Z</time></trkpt><trkpt lat="43.5372696" lon="12.5284479"><ele>863.0</ele><time>2026-05-01T14:43:35.51Z</time></trkpt><trkpt lat="43.5372022" lon="12.5285674"><ele>863.0</ele><time>2026-05-01T14:43:36.51Z</time></trkpt><trkpt lat="43.5371485" lon="12.5286864"><ele>866.5000000000001</ele><time>2026-05-01T14:43:37.51Z</time></trkpt><trkpt lat="43.537103" lon="12.5287866"><ele>870.0</ele><time>2026-05-01T14:43:38.51Z</time></trkpt><trkpt lat="43.5370649" lon="12.5288666"><ele>873.5</ele><time>2026-05-01T14:43:39.511Z</time></trkpt><trkpt lat="43.5370136" lon="12.5290059"><ele>877.0</ele><time>2026-05-01T14:43:41.51Z</time></trkpt><trkpt lat="43.5369377" lon="12.5290857"><ele>880.5000000000001</ele><time>2026-05-01T14:43:43.511Z</time></trkpt><trkpt lat="43.5368923" lon="12.5289941"><ele>884.0</ele><time>2026-05-01T14:43:46.511Z</time></trkpt><trkpt lat="43.5369691" lon="12.5288539"><ele>878.75</ele><time>2026-05-01T14:43:48.511Z</time></trkpt><trkpt lat="43.5370283" lon="12.5287257"><ele>873.5</ele><time>2026-05-01T14:43:49.511Z</time></trkpt><trkpt lat="43.5370922" lon="12.5285861"><ele>868.25</ele><time>2026-05-01T14:43:50.511Z</time></trkpt><trkpt lat="43.5371574" lon="12.5284608"><ele>863.0</ele><time>2026-05-01T14:43:51.511Z</time></trkpt><trkpt lat="43.5372184" lon="12.5283298"><ele>863.0</ele><time>2026-05-01T14:43:52.511Z</time></trkpt><trkpt lat="43.5372821" lon="12.5281985"><ele>863.0</ele><time>2026-05-01T14:43:53.51Z</time></trkpt><trkpt lat="43.5373363" lon="12.5280752"><ele>863.0</ele><time>2026-05-01T14:43:54.511Z</time></trkpt><trkpt lat="43.5373859" lon="12.5279498"><ele>863.0</ele><time>2026-05-01T14:43:55.511Z</time></trkpt><trkpt lat="43.537433" lon="12.5278303"><ele>863.0</ele><time>2026-05-01T14:43:56.511Z</time></trkpt><trkpt lat="43.5374703" lon="12.5276972"><ele>859.2</ele><time>2026-05-01T14:43:57.51Z</time></trkpt><trkpt lat="43.5374991" lon="12.5275558"><ele>855.4</ele><time>2026-05-01T14:43:58.511Z</time></trkpt><trkpt lat="43.5375168" lon="12.5274328"><ele>851.6</ele><time>2026-05-01T14:43:59.511Z</time></trkpt><trkpt lat="43.5375327" lon="12.5272999"><ele>847.8000000000001</ele><time>2026-05-01T14:44:00.511Z</time></trkpt><trkpt lat="43.5375441" lon="12.5271586"><ele>844.0</ele><time>2026-05-01T14:44:01.511Z</time></trkpt><trkpt lat="43.5375445" lon="12.5270127"><ele>841.6</ele><time>2026-05-01T14:44:02.51Z</time></trkpt><trkpt lat="43.5375431" lon="12.5268585"><ele>839.2</ele><time>2026-05-01T14:44:03.511Z</time></trkpt><trkpt lat="43.5375444" lon="12.526702"><ele>836.8000000000001</ele><time>2026-05-01T14:44:04.511Z</time></trkpt><trkpt lat="43.5375467" lon="12.5265596"><ele>834.4000000000001</ele><time>2026-05-01T14:44:05.511Z</time></trkpt><trkpt lat="43.5375445" lon="12.5264039"><ele>832.0</ele><time>2026-05-01T14:44:06.51Z</time></trkpt><trkpt lat="43.5375385" lon="12.5262536"><ele>832.4000000000001</ele><time>2026-05-01T14:44:07.511Z</time></trkpt><trkpt lat="43.5375285" lon="12.5261167"><ele>832.8000000000001</ele><time>2026-05-01T14:44:08.511Z</time></trkpt><trkpt lat="43.5375231" lon="12.525987"><ele>833.2</ele><time>2026-05-01T14:44:09.511Z</time></trkpt><trkpt lat="43.5375134" lon="12.5258577"><ele>833.6</ele><time>2026-05-01T14:44:10.51Z</time></trkpt><trkpt lat="43.5375016" lon="12.5257309"><ele>834.0</ele><time>2026-05-01T14:44:11.511Z</time></trkpt><trkpt lat="43.5374677" lon="12.5256325"><ele>834.0</ele><time>2026-05-01T14:44:12.511Z</time></trkpt><trkpt lat="43.5374145" lon="12.5255372"><ele>834.0</ele><time>2026-05-01T14:44:13.511Z</time></trkpt><trkpt lat="43.537354" lon="12.5254374"><ele>834.0</ele><time>2026-05-01T14:44:14.51Z</time></trkpt><trkpt lat="43.5373258" lon="12.5253429"><ele>834.0</ele><time>2026-05-01T14:44:15.511Z</time></trkpt><trkpt lat="43.5373201" lon="12.5252404"><ele>834.0</ele><time>2026-05-01T14:44:16.511Z</time></trkpt><trkpt lat="43.5373184" lon="12.5251475"><ele>834.0</ele><time>2026-05-01T14:44:17.511Z</time></trkpt><trkpt lat="43.5373239" lon="12.5250476"><ele>834.3333333333334</ele><time>2026-05-01T14:44:18.511Z</time></trkpt><trkpt lat="43.5373523" lon="12.5249466"><ele>834.6666666666667</ele><time>2026-05-01T14:44:19.511Z</time></trkpt><trkpt lat="43.5373859" lon="12.5248607"><ele>835.0</ele><time>2026-05-01T14:44:20.51Z</time></trkpt><trkpt lat="43.5374397" lon="12.5248012"><ele>835.3333333333334</ele><time>2026-05-01T14:44:21.51Z</time></trkpt><trkpt lat="43.5374791" lon="12.5246761"><ele>835.6666666666667</ele><time>2026-05-01T14:44:23.511Z</time></trkpt><trkpt lat="43.5374515" lon="12.5245792"><ele>836.0</ele><time>2026-05-01T14:44:25.511Z</time></trkpt><trkpt lat="43.5373434" lon="12.5246136"><ele>836.0</ele><time>2026-05-01T14:44:27.511Z</time></trkpt><trkpt lat="43.5372746" lon="12.5247139"><ele>836.0</ele><time>2026-05-01T14:44:28.511Z</time></trkpt><trkpt lat="43.5371839" lon="12.524814"><ele>836.0</ele><time>2026-05-01T14:44:29.511Z</time></trkpt><trkpt lat="43.5370948" lon="12.5249151"><ele>836.0</ele><time>2026-05-01T14:44:30.51Z</time></trkpt><trkpt lat="43.5370193" lon="12.5249999"><ele>836.0</ele><time>2026-05-01T14:44:31.511Z</time></trkpt><trkpt lat="43.5369588" lon="12.5250916"><ele>832.0000000000001</ele><time>2026-05-01T14:44:32.51Z</time></trkpt><trkpt lat="43.5369271" lon="12.5251953"><ele>828.0</ele><time>2026-05-01T14:44:33.51Z</time></trkpt><trkpt lat="43.5369032" lon="12.5252865"><ele>824.0</ele><time>2026-05-01T14:44:34.511Z</time></trkpt><trkpt lat="43.5369049" lon="12.5254084"><ele>820.0</ele><time>2026-05-01T14:44:35.511Z</time></trkpt><trkpt lat="43.5369171" lon="12.5255294"><ele>816.0000000000001</ele><time>2026-05-01T14:44:36.511Z</time></trkpt><trkpt lat="43.5369318" lon="12.5256724"><ele>812.0</ele><time>2026-05-01T14:44:37.51Z</time></trkpt><trkpt lat="43.5369559" lon="12.525821"><ele>810.6</ele><time>2026-05-01T14:44:38.51Z</time></trkpt><trkpt lat="43.5369717" lon="12.5259768"><ele>809.2</ele><time>2026-05-01T14:44:39.511Z</time></trkpt><trkpt lat="43.5369753" lon="12.5261241"><ele>807.8</ele><time>2026-05-01T14:44:40.511Z</time></trkpt><trkpt lat="43.536987" lon="12.5262734"><ele>806.4</ele><time>2026-05-01T14:44:41.511Z</time></trkpt><trkpt lat="43.5369998" lon="12.5264101"><ele>805.0</ele><time>2026-05-01T14:44:42.51Z</time></trkpt><trkpt lat="43.5370091" lon="12.5265483"><ele>803.4</ele><time>2026-05-01T14:44:43.51Z</time></trkpt><trkpt lat="43.5370155" lon="12.526675"><ele>801.8</ele><time>2026-05-01T14:44:44.511Z</time></trkpt><trkpt lat="43.5370151" lon="12.5268018"><ele>800.2</ele><time>2026-05-01T14:44:45.51Z</time></trkpt><trkpt lat="43.5370135" lon="12.5269187"><ele>798.6</ele><time>2026-05-01T14:44:46.51Z</time></trkpt><trkpt lat="43.5369928" lon="12.5270383"><ele>797.0</ele><time>2026-05-01T14:44:47.511Z</time></trkpt><trkpt lat="43.5369671" lon="12.5271628"><ele>797.0</ele><time>2026-05-01T14:44:48.51Z</time></trkpt><trkpt lat="43.5369476" lon="12.5272813"><ele>797.0</ele><time>2026-05-01T14:44:49.511Z</time></trkpt><trkpt lat="43.5369239" lon="12.5273911"><ele>797.0</ele><time>2026-05-01T14:44:50.511Z</time></trkpt><trkpt lat="43.5368854" lon="12.5275303"><ele>797.0</ele><time>2026-05-01T14:44:52.511Z</time></trkpt><trkpt lat="43.5368023" lon="12.5275372"><ele>797.0</ele><time>2026-05-01T14:44:54.511Z</time></trkpt><trkpt lat="43.5368037" lon="12.5273963"><ele>797.0</ele><time>2026-05-01T14:44:56.511Z</time></trkpt><trkpt lat="43.5368283" lon="12.5272753"><ele>797.0</ele><time>2026-05-01T14:44:57.511Z</time></trkpt><trkpt lat="43.5368581" lon="12.5271218"><ele>797.0</ele><time>2026-05-01T14:44:58.511Z</time></trkpt><trkpt lat="43.5368677" lon="12.5269635"><ele>797.0</ele><time>2026-05-01T14:44:59.511Z</time></trkpt><trkpt lat="43.5368502" lon="12.5268071"><ele>797.0</ele><time>2026-05-01T14:45:00.51Z</time></trkpt><trkpt lat="43.5368186" lon="12.5266514"><ele>796.4000000000001</ele><time>2026-05-01T14:45:01.51Z</time></trkpt><trkpt lat="43.5367805" lon="12.5264965"><ele>795.8000000000001</ele><time>2026-05-01T14:45:02.511Z</time></trkpt><trkpt lat="43.5367293" lon="12.5263624"><ele>795.2</ele><time>2026-05-01T14:45:03.51Z</time></trkpt><trkpt lat="43.5366826" lon="12.5262378"><ele>794.6</ele><time>2026-05-01T14:45:04.51Z</time></trkpt><trkpt lat="43.5366202" lon="12.5261203"><ele>794.0</ele><time>2026-05-01T14:45:05.511Z</time></trkpt><trkpt lat="43.5365544" lon="12.5260174"><ele>795.8333333333334</ele><time>2026-05-01T14:45:06.511Z</time></trkpt><trkpt lat="43.5364977" lon="12.5259252"><ele>797.6666666666667</ele><time>2026-05-01T14:45:07.51Z</time></trkpt><trkpt lat="43.5364386" lon="12.5258411"><ele>799.5</ele><time>2026-05-01T14:45:08.51Z</time></trkpt><trkpt lat="43.5363654" lon="12.5257915"><ele>801.3333333333333</ele><time>2026-05-01T14:45:09.511Z</time></trkpt><trkpt lat="43.5362993" lon="12.5257377"><ele>803.1666666666666</ele><time>2026-05-01T14:45:10.511Z</time></trkpt><trkpt lat="43.5362416" lon="12.5256626"><ele>805.0</ele><time>2026-05-01T14:45:11.511Z</time></trkpt><trkpt lat="43.5362056" lon="12.5255647"><ele>801.2</ele><time>2026-05-01T14:45:12.511Z</time></trkpt><trkpt lat="43.5361826" lon="12.5254501"><ele>797.4</ele><time>2026-05-01T14:45:13.51Z</time></trkpt><trkpt lat="43.5361506" lon="12.5253238"><ele>793.5999999999999</ele><time>2026-05-01T14:45:14.511Z</time></trkpt><trkpt lat="43.5361117" lon="12.5251955"><ele>789.8</ele><time>2026-05-01T14:45:15.511Z</time></trkpt><trkpt lat="43.5360849" lon="12.5250758"><ele>786.0</ele><time>2026-05-01T14:45:16.51Z</time></trkpt><trkpt lat="43.5360522" lon="12.5249658"><ele>786.0000000000001</ele><time>2026-05-01T14:45:17.511Z</time></trkpt><trkpt lat="43.5360292" lon="12.5248793"><ele>786.0</ele><time>2026-05-01T14:45:18.511Z</time></trkpt><trkpt lat="43.5360004" lon="12.5247863"><ele>786.0</ele><time>2026-05-01T14:45:19.511Z</time></trkpt><trkpt lat="43.5359768" lon="12.5246934"><ele>786.0</ele><time>2026-05-01T14:45:20.511Z</time></trkpt><trkpt lat="43.5359564" lon="12.5245904"><ele>786.0</ele><time>2026-05-01T14:45:21.511Z</time></trkpt><trkpt lat="43.5359436" lon="12.5244987"><ele>786.0000000000001</ele><time>2026-05-01T14:45:22.51Z</time></trkpt><trkpt lat="43.5359296" lon="12.5244119"><ele>786.0</ele><time>2026-05-01T14:45:23.511Z</time></trkpt><trkpt lat="43.5359129" lon="12.5243153"><ele>787.4</ele><time>2026-05-01T14:45:24.511Z</time></trkpt><trkpt lat="43.5358717" lon="12.5242432"><ele>788.8</ele><time>2026-05-01T14:45:25.511Z</time></trkpt><trkpt lat="43.5358092" lon="12.5241793"><ele>790.1999999999999</ele><time>2026-05-01T14:45:26.51Z</time></trkpt><trkpt lat="43.5357098" lon="12.5241299"><ele>791.5999999999999</ele><time>2026-05-01T14:45:27.51Z</time></trkpt><trkpt lat="43.5355854" lon="12.5240982"><ele>793.0</ele><time>2026-05-01T14:45:28.511Z</time></trkpt><trkpt lat="43.5354758" lon="12.5240583"><ele>792.9999999999999</ele><time>2026-05-01T14:45:29.511Z</time></trkpt><trkpt lat="43.5353955" lon="12.5240221"><ele>793.0</ele><time>2026-05-01T14:45:30.511Z</time></trkpt><trkpt lat="43.5353234" lon="12.5240038"><ele>793.0</ele><time>2026-05-01T14:45:31.51Z</time></trkpt><trkpt lat="43.5352581" lon="12.5239987"><ele>793.0</ele><time>2026-05-01T14:45:32.511Z</time></trkpt><trkpt lat="43.5351653" lon="12.5240505"><ele>792.9999999999999</ele><time>2026-05-01T14:45:34.511Z</time></trkpt><trkpt lat="43.5351287" lon="12.5241799"><ele>793.0</ele><time>2026-05-01T14:45:36.511Z</time></trkpt><trkpt lat="43.5351424" lon="12.5242686"><ele>793.1666666666666</ele><time>2026-05-01T14:45:37.511Z</time></trkpt><trkpt lat="43.535172" lon="12.5243685"><ele>793.3333333333333</ele><time>2026-05-01T14:45:38.511Z</time></trkpt><trkpt lat="43.535212" lon="12.5244708"><ele>793.5</ele><time>2026-05-01T14:45:39.511Z</time></trkpt><trkpt lat="43.535244" lon="12.5245666"><ele>793.6666666666667</ele><time>2026-05-01T14:45:40.511Z</time></trkpt><trkpt lat="43.5352621" lon="12.5246706"><ele>793.8333333333334</ele><time>2026-05-01T14:45:41.511Z</time></trkpt><trkpt lat="43.5352726" lon="12.5247629"><ele>794.0</ele><time>2026-05-01T14:45:42.511Z</time></trkpt><trkpt lat="43.5353072" lon="12.5249032"><ele>792.4000000000001</ele><time>2026-05-01T14:45:44.511Z</time></trkpt><trkpt lat="43.5353921" lon="12.5250036"><ele>790.8</ele><time>2026-05-01T14:45:46.511Z</time></trkpt><trkpt lat="43.5354568" lon="12.5250311"><ele>789.2</ele><time>2026-05-01T14:45:47.511Z</time></trkpt><trkpt lat="43.5355541" lon="12.525091"><ele>787.5999999999999</ele><time>2026-05-01T14:45:49.511Z</time></trkpt><trkpt lat="43.5355206" lon="12.5252679"><ele>786.0</ele><time>2026-05-01T14:45:51.511Z</time></trkpt><trkpt lat="43.5354859" lon="12.5253827"><ele>786.6666666666666</ele><time>2026-05-01T14:45:52.511Z</time></trkpt><trkpt lat="43.535454" lon="12.525501"><ele>787.3333333333333</ele><time>2026-05-01T14:45:53.511Z</time></trkpt><trkpt lat="43.5354245" lon="12.5256118"><ele>788.0</ele><time>2026-05-01T14:45:54.511Z</time></trkpt><trkpt lat="43.5353977" lon="12.5257106"><ele>788.6666666666666</ele><time>2026-05-01T14:45:55.511Z</time></trkpt><trkpt lat="43.5353605" lon="12.525812"><ele>789.3333333333333</ele><time>2026-05-01T14:45:56.511Z</time></trkpt><trkpt lat="43.5353188" lon="12.52591"><ele>790.0</ele><time>2026-05-01T14:45:57.511Z</time></trkpt><trkpt lat="43.5352661" lon="12.5260039"><ele>789.9999999999999</ele><time>2026-05-01T14:45:58.511Z</time></trkpt><trkpt lat="43.5352009" lon="12.5260945"><ele>790.0</ele><time>2026-05-01T14:45:59.511Z</time></trkpt><trkpt lat="43.5351371" lon="12.5261698"><ele>790.0</ele><time>2026-05-01T14:46:00.51Z</time></trkpt><trkpt lat="43.5350715" lon="12.5262433"><ele>790.0</ele><time>2026-05-01T14:46:01.511Z</time></trkpt><trkpt lat="43.5350111" lon="12.5263061"><ele>789.9999999999999</ele><time>2026-05-01T14:46:02.51Z</time></trkpt><trkpt lat="43.5349477" lon="12.5263558"><ele>790.0</ele><time>2026-05-01T14:46:03.511Z</time></trkpt><trkpt lat="43.5348884" lon="12.5263888"><ele>779.4999999999999</ele><time>2026-05-01T14:46:04.51Z</time></trkpt><trkpt lat="43.5348209" lon="12.5264123"><ele>769.0</ele><time>2026-05-01T14:46:05.51Z</time></trkpt><trkpt lat="43.5347476" lon="12.5264279"><ele>758.5</ele><time>2026-05-01T14:46:06.511Z</time></trkpt><trkpt lat="43.5346661" lon="12.5264225"><ele>748.0</ele><time>2026-05-01T14:46:07.511Z</time></trkpt><trkpt lat="43.5345827" lon="12.5264191"><ele>737.5</ele><time>2026-05-01T14:46:08.511Z</time></trkpt><trkpt lat="43.5345046" lon="12.5264038"><ele>727.0</ele><time>2026-05-01T14:46:09.511Z</time></trkpt><trkpt lat="43.5344338" lon="12.526379"><ele>726.1666666666667</ele><time>2026-05-01T14:46:10.511Z</time></trkpt><trkpt lat="43.5343608" lon="12.5263525"><ele>725.3333333333334</ele><time>2026-05-01T14:46:11.51Z</time></trkpt><trkpt lat="43.5342833" lon="12.5263321"><ele>724.5</ele><time>2026-05-01T14:46:12.51Z</time></trkpt><trkpt lat="43.5342167" lon="12.5263009"><ele>723.6666666666666</ele><time>2026-05-01T14:46:13.51Z</time></trkpt><trkpt lat="43.5341497" lon="12.5262686"><ele>722.8333333333333</ele><time>2026-05-01T14:46:14.51Z</time></trkpt><trkpt lat="43.5340432" lon="12.5261945"><ele>722.0</ele><time>2026-05-01T14:46:16.511Z</time></trkpt><trkpt lat="43.5339613" lon="12.5261209"><ele>722.0</ele><time>2026-05-01T14:46:18.511Z</time></trkpt><trkpt lat="43.5338908" lon="12.5261945"><ele>722.0</ele><time>2026-05-01T14:46:21.511Z</time></trkpt><trkpt lat="43.5339084" lon="12.5263223"><ele>722.0</ele><time>2026-05-01T14:46:23.511Z</time></trkpt><trkpt lat="43.5340326" lon="12.5264217"><ele>722.0</ele><time>2026-05-01T14:46:25.51Z</time></trkpt><trkpt lat="43.5341097" lon="12.5264577"><ele>722.0</ele><time>2026-05-01T14:46:26.511Z</time></trkpt><trkpt lat="43.5341827" lon="12.5265152"><ele>722.0</ele><time>2026-05-01T14:46:27.511Z</time></trkpt><trkpt lat="43.5342565" lon="12.5265689"><ele>722.0</ele><time>2026-05-01T14:46:28.511Z</time></trkpt><trkpt lat="43.5343358" lon="12.5266198"><ele>722.0</ele><time>2026-05-01T14:46:29.511Z</time></trkpt><trkpt lat="43.53442" lon="12.5266701"><ele>722.0</ele><time>2026-05-01T14:46:30.511Z</time></trkpt><trkpt lat="43.5344967" lon="12.5267139"><ele>722.0</ele><time>2026-05-01T14:46:31.51Z</time></trkpt><trkpt lat="43.5345798" lon="12.5267682"><ele>722.0</ele><time>2026-05-01T14:46:32.511Z</time></trkpt><trkpt lat="43.5346655" lon="12.5268215"><ele>722.8333333333333</ele><time>2026-05-01T14:46:33.511Z</time></trkpt><trkpt lat="43.5347504" lon="12.5268652"><ele>723.6666666666666</ele><time>2026-05-01T14:46:34.511Z</time></trkpt><trkpt lat="43.5348303" lon="12.52689"><ele>724.5</ele><time>2026-05-01T14:46:35.511Z</time></trkpt><trkpt lat="43.5349087" lon="12.5269133"><ele>725.3333333333334</ele><time>2026-05-01T14:46:36.511Z</time></trkpt><trkpt lat="43.534992" lon="12.5269189"><ele>726.1666666666667</ele><time>2026-05-01T14:46:37.511Z</time></trkpt><trkpt lat="43.5350593" lon="12.5269214"><ele>727.0</ele><time>2026-05-01T14:46:38.511Z</time></trkpt><trkpt lat="43.5351281" lon="12.5269346"><ele>727.0</ele><time>2026-05-01T14:46:39.511Z</time></trkpt><trkpt lat="43.5351911" lon="12.5269699"><ele>727.0</ele><time>2026-05-01T14:46:40.511Z</time></trkpt><trkpt lat="43.5352908" lon="12.5270467"><ele>727.0</ele><time>2026-05-01T14:46:42.51Z</time></trkpt><trkpt lat="43.5352849" lon="12.527171"><ele>727.0</ele><time>2026-05-01T14:46:44.511Z</time></trkpt><trkpt lat="43.5352348" lon="12.5272587"><ele>727.0</ele><time>2026-05-01T14:46:45.511Z</time></trkpt><trkpt lat="43.5351726" lon="12.5273324"><ele>727.0</ele><time>2026-05-01T14:46:46.511Z</time></trkpt><trkpt lat="43.535076" lon="12.5274051"><ele>724.25</ele><time>2026-05-01T14:46:47.511Z</time></trkpt><trkpt lat="43.5349684" lon="12.5274899"><ele>721.5</ele><time>2026-05-01T14:46:48.51Z</time></trkpt><trkpt lat="43.5348781" lon="12.527599"><ele>718.75</ele><time>2026-05-01T14:46:49.511Z</time></trkpt><trkpt lat="43.5347844" lon="12.5277025"><ele>716.0</ele><time>2026-05-01T14:46:50.511Z</time></trkpt><trkpt lat="43.5346932" lon="12.5277674"><ele>716.0</ele><time>2026-05-01T14:46:51.511Z</time></trkpt><trkpt lat="43.5346239" lon="12.5278151"><ele>716.0</ele><time>2026-05-01T14:46:52.51Z</time></trkpt><trkpt lat="43.5345331" lon="12.5278366"><ele>716.0</ele><time>2026-05-01T14:46:53.511Z</time></trkpt><trkpt lat="43.5344395" lon="12.5278344"><ele>716.0</ele><time>2026-05-01T14:46:54.51Z</time></trkpt><trkpt lat="43.5343391" lon="12.527818"><ele>716.0</ele><time>2026-05-01T14:46:55.511Z</time></trkpt><trkpt lat="43.5342379" lon="12.5277952"><ele>712.8</ele><time>2026-05-01T14:46:56.511Z</time></trkpt><trkpt lat="43.5341275" lon="12.5277652"><ele>709.5999999999999</ele><time>2026-05-01T14:46:57.511Z</time></trkpt><trkpt lat="43.5340242" lon="12.5277413"><ele>706.4</ele><time>2026-05-01T14:46:58.511Z</time></trkpt><trkpt lat="43.5339272" lon="12.527722"><ele>703.2</ele><time>2026-05-01T14:46:59.51Z</time></trkpt><trkpt lat="43.5338334" lon="12.5276997"><ele>700.0</ele><time>2026-05-01T14:47:00.511Z</time></trkpt><trkpt lat="43.5337391" lon="12.5276739"><ele>697.8</ele><time>2026-05-01T14:47:01.511Z</time></trkpt><trkpt lat="43.5336347" lon="12.5276505"><ele>695.6</ele><time>2026-05-01T14:47:02.51Z</time></trkpt><trkpt lat="43.5335281" lon="12.5276248"><ele>693.4000000000001</ele><time>2026-05-01T14:47:03.511Z</time></trkpt><trkpt lat="43.5334188" lon="12.5276127"><ele>691.2</ele><time>2026-05-01T14:47:04.511Z</time></trkpt><trkpt lat="43.5333177" lon="12.5276126"><ele>689.0</ele><time>2026-05-01T14:47:05.511Z</time></trkpt><trkpt lat="43.5332113" lon="12.5276053"><ele>689.0</ele><time>2026-05-01T14:47:06.51Z</time></trkpt><trkpt lat="43.5331038" lon="12.5276021"><ele>689.0</ele><time>2026-05-01T14:47:07.511Z</time></trkpt><trkpt lat="43.5329946" lon="12.5275929"><ele>689.0</ele><time>2026-05-01T14:47:08.511Z</time></trkpt><trkpt lat="43.532886" lon="12.5275935"><ele>689.0</ele><time>2026-05-01T14:47:09.511Z</time></trkpt><trkpt lat="43.5327851" lon="12.5275823"><ele>689.0</ele><time>2026-05-01T14:47:10.511Z</time></trkpt><trkpt lat="43.5326784" lon="12.5275693"><ele>688.0</ele><time>2026-05-01T14:47:11.511Z</time></trkpt><trkpt lat="43.5325728" lon="12.5275661"><ele>687.0</ele><time>2026-05-01T14:47:12.51Z</time></trkpt><trkpt lat="43.5324697" lon="12.5275687"><ele>686.0</ele><time>2026-05-01T14:47:13.51Z</time></trkpt><trkpt lat="43.5323663" lon="12.5275623"><ele>685.0</ele><time>2026-05-01T14:47:14.51Z</time></trkpt><trkpt lat="43.5322684" lon="12.5275516"><ele>684.0</ele><time>2026-05-01T14:47:15.511Z</time></trkpt><trkpt lat="43.5321715" lon="12.5275504"><ele>684.0</ele><time>2026-05-01T14:47:16.51Z</time></trkpt><trkpt lat="43.5320853" lon="12.5275484"><ele>684.0</ele><time>2026-05-01T14:47:17.51Z</time></trkpt><trkpt lat="43.531998" lon="12.5275648"><ele>684.0</ele><time>2026-05-01T14:47:18.511Z</time></trkpt><trkpt lat="43.5319099" lon="12.5276027"><ele>684.0</ele><time>2026-05-01T14:47:19.511Z</time></trkpt><trkpt lat="43.5318206" lon="12.5276514"><ele>684.0</ele><time>2026-05-01T14:47:20.511Z</time></trkpt><trkpt lat="43.5317197" lon="12.5277123"><ele>683.0</ele><time>2026-05-01T14:47:21.51Z</time></trkpt><trkpt lat="43.5316255" lon="12.527797"><ele>682.0</ele><time>2026-05-01T14:47:22.51Z</time></trkpt><trkpt lat="43.5315479" lon="12.5278728"><ele>681.0</ele><time>2026-05-01T14:47:23.51Z</time></trkpt><trkpt lat="43.531461" lon="12.5279388"><ele>680.0</ele><time>2026-05-01T14:47:24.511Z</time></trkpt><trkpt lat="43.5313855" lon="12.5280119"><ele>679.0</ele><time>2026-05-01T14:47:25.511Z</time></trkpt><trkpt lat="43.5313139" lon="12.5280878"><ele>679.0</ele><time>2026-05-01T14:47:26.511Z</time></trkpt><trkpt lat="43.5312573" lon="12.5281604"><ele>679.0</ele><time>2026-05-01T14:47:27.511Z</time></trkpt><trkpt lat="43.5311964" lon="12.5282838"><ele>679.0</ele><time>2026-05-01T14:47:29.511Z</time></trkpt><trkpt lat="43.5311457" lon="12.5283596"><ele>679.0</ele><time>2026-05-01T14:47:31.511Z</time></trkpt><trkpt lat="43.5310823" lon="12.528269"><ele>679.0</ele><time>2026-05-01T14:49:58.511Z</time></trkpt><trkpt lat="43.5310494" lon="12.5281906"><ele>679.0</ele><time>2026-05-01T14:49:59.511Z</time></trkpt><trkpt lat="43.5310165" lon="12.5280921"><ele>677.6</ele><time>2026-05-01T14:50:00.511Z</time></trkpt><trkpt lat="43.53098" lon="12.5279833"><ele>676.2</ele><time>2026-05-01T14:50:01.51Z</time></trkpt><trkpt lat="43.5309391" lon="12.5278753"><ele>674.8000000000001</ele><time>2026-05-01T14:50:02.511Z</time></trkpt><trkpt lat="43.5308898" lon="12.5277741"><ele>673.4000000000001</ele><time>2026-05-01T14:50:03.511Z</time></trkpt><trkpt lat="43.5308243" lon="12.5276806"><ele>672.0</ele><time>2026-05-01T14:50:04.511Z</time></trkpt><trkpt lat="43.5307402" lon="12.5275865"><ele>672.0</ele><time>2026-05-01T14:50:05.511Z</time></trkpt><trkpt lat="43.5306303" lon="12.527489"><ele>672.0</ele><time>2026-05-01T14:50:06.51Z</time></trkpt><trkpt lat="43.5305195" lon="12.5273927"><ele>672.0</ele><time>2026-05-01T14:50:07.51Z</time></trkpt><trkpt lat="43.5304179" lon="12.5273071"><ele>672.0</ele><time>2026-05-01T14:50:08.511Z</time></trkpt><trkpt lat="43.5303372" lon="12.5272408"><ele>672.1666666666666</ele><time>2026-05-01T14:50:09.511Z</time></trkpt><trkpt lat="43.53027" lon="12.5271948"><ele>672.3333333333334</ele><time>2026-05-01T14:50:10.51Z</time></trkpt><trkpt lat="43.530195" lon="12.5271701"><ele>672.5</ele><time>2026-05-01T14:50:11.511Z</time></trkpt><trkpt lat="43.5301128" lon="12.5271734"><ele>672.6666666666667</ele><time>2026-05-01T14:50:12.511Z</time></trkpt><trkpt lat="43.5300288" lon="12.5272155"><ele>672.8333333333334</ele><time>2026-05-01T14:50:13.511Z</time></trkpt><trkpt lat="43.5299467" lon="12.527283"><ele>673.0</ele><time>2026-05-01T14:50:14.51Z</time></trkpt><trkpt lat="43.5298652" lon="12.5273631"><ele>673.0</ele><time>2026-05-01T14:50:15.511Z</time></trkpt><trkpt lat="43.5297977" lon="12.5274383"><ele>673.0</ele><time>2026-05-01T14:50:16.511Z</time></trkpt><trkpt lat="43.5297536" lon="12.5275354"><ele>673.0</ele><time>2026-05-01T14:50:17.51Z</time></trkpt><trkpt lat="43.5297136" lon="12.5276752"><ele>673.0</ele><time>2026-05-01T14:50:18.511Z</time></trkpt><trkpt lat="43.529687" lon="12.5278393"><ele>673.0</ele><time>2026-05-01T14:50:19.51Z</time></trkpt><trkpt lat="43.5296605" lon="12.5280005"><ele>672.8</ele><time>2026-05-01T14:50:20.511Z</time></trkpt><trkpt lat="43.5296431" lon="12.5281447"><ele>672.5999999999999</ele><time>2026-05-01T14:50:21.511Z</time></trkpt><trkpt lat="43.5296373" lon="12.5282909"><ele>672.4000000000001</ele><time>2026-05-01T14:50:22.511Z</time></trkpt><trkpt lat="43.5296517" lon="12.5284291"><ele>672.2</ele><time>2026-05-01T14:50:23.51Z</time></trkpt><trkpt lat="43.5296825" lon="12.5285599"><ele>672.0</ele><time>2026-05-01T14:50:24.511Z</time></trkpt><trkpt lat="43.52972" lon="12.5286846"><ele>674.0</ele><time>2026-05-01T14:50:25.51Z</time></trkpt><trkpt lat="43.5297548" lon="12.5287942"><ele>676.0</ele><time>2026-05-01T14:50:26.511Z</time></trkpt><trkpt lat="43.5297841" lon="12.5288923"><ele>678.0</ele><time>2026-05-01T14:50:27.511Z</time></trkpt><trkpt lat="43.5297975" lon="12.5289793"><ele>680.0</ele><time>2026-05-01T14:50:28.511Z</time></trkpt><trkpt lat="43.5297565" lon="12.5291228"><ele>682.0</ele><time>2026-05-01T14:50:30.511Z</time></trkpt><trkpt lat="43.5296551" lon="12.5291032"><ele>684.0</ele><time>2026-05-01T14:50:32.511Z</time></trkpt><trkpt lat="43.5295672" lon="12.5289668"><ele>689.2</ele><time>2026-05-01T14:50:34.51Z</time></trkpt><trkpt lat="43.529512" lon="12.5288699"><ele>694.4000000000001</ele><time>2026-05-01T14:50:35.511Z</time></trkpt><trkpt lat="43.5294499" lon="12.5287547"><ele>699.6</ele><time>2026-05-01T14:50:36.511Z</time></trkpt><trkpt lat="43.5293903" lon="12.5286219"><ele>704.8</ele><time>2026-05-01T14:50:37.511Z</time></trkpt><trkpt lat="43.52933" lon="12.5284772"><ele>710.0</ele><time>2026-05-01T14:50:38.511Z</time></trkpt><trkpt lat="43.5292778" lon="12.5283237"><ele>710.0</ele><time>2026-05-01T14:50:39.511Z</time></trkpt><trkpt lat="43.5292298" lon="12.5281687"><ele>710.0</ele><time>2026-05-01T14:50:40.51Z</time></trkpt><trkpt lat="43.5291868" lon="12.5280158"><ele>710.0</ele><time>2026-05-01T14:50:41.511Z</time></trkpt><trkpt lat="43.5291445" lon="12.5278631"><ele>710.0</ele><time>2026-05-01T14:50:42.511Z</time></trkpt><trkpt lat="43.5291056" lon="12.5276955"><ele>708.6</ele><time>2026-05-01T14:50:43.51Z</time></trkpt><trkpt lat="43.52907" lon="12.5275331"><ele>707.2</ele><time>2026-05-01T14:50:44.511Z</time></trkpt><trkpt lat="43.5290397" lon="12.5273922"><ele>705.8</ele><time>2026-05-01T14:50:45.511Z</time></trkpt><trkpt lat="43.5290173" lon="12.5272627"><ele>704.4</ele><time>2026-05-01T14:50:46.511Z</time></trkpt><trkpt lat="43.5289897" lon="12.5271145"><ele>703.0</ele><time>2026-05-01T14:50:47.51Z</time></trkpt><trkpt lat="43.5289582" lon="12.5269569"><ele>703.0</ele><time>2026-05-01T14:50:48.511Z</time></trkpt><trkpt lat="43.5289226" lon="12.5267967"><ele>703.0</ele><time>2026-05-01T14:50:49.51Z</time></trkpt><trkpt lat="43.528889" lon="12.5266423"><ele>703.0</ele><time>2026-05-01T14:50:50.51Z</time></trkpt><trkpt lat="43.528852" lon="12.5264862"><ele>703.0</ele><time>2026-05-01T14:50:51.511Z</time></trkpt><trkpt lat="43.5288126" lon="12.5263308"><ele>704.25</ele><time>2026-05-01T14:50:52.511Z</time></trkpt><trkpt lat="43.5287619" lon="12.5261852"><ele>705.5</ele><time>2026-05-01T14:50:53.511Z</time></trkpt><trkpt lat="43.5286952" lon="12.52605"><ele>706.75</ele><time>2026-05-01T14:50:54.511Z</time></trkpt><trkpt lat="43.5286189" lon="12.5259156"><ele>708.0</ele><time>2026-05-01T14:50:55.511Z</time></trkpt><trkpt lat="43.5285412" lon="12.5257568"><ele>712.5999999999999</ele><time>2026-05-01T14:50:56.51Z</time></trkpt><trkpt lat="43.5284764" lon="12.5256143"><ele>717.1999999999999</ele><time>2026-05-01T14:50:57.51Z</time></trkpt><trkpt lat="43.5284421" lon="12.5254689"><ele>721.8</ele><time>2026-05-01T14:50:58.511Z</time></trkpt><trkpt lat="43.5284222" lon="12.5253212"><ele>726.4</ele><time>2026-05-01T14:50:59.511Z</time></trkpt><trkpt lat="43.5284077" lon="12.5251756"><ele>731.0</ele><time>2026-05-01T14:51:00.51Z</time></trkpt><trkpt lat="43.5284169" lon="12.5250315"><ele>731.0</ele><time>2026-05-01T14:51:01.511Z</time></trkpt><trkpt lat="43.5284326" lon="12.5248906"><ele>731.0</ele><time>2026-05-01T14:51:02.511Z</time></trkpt><trkpt lat="43.5284671" lon="12.524719"><ele>731.0</ele><time>2026-05-01T14:51:03.511Z</time></trkpt><trkpt lat="43.5285058" lon="12.5245333"><ele>731.0</ele><time>2026-05-01T14:51:04.51Z</time></trkpt><trkpt lat="43.5285472" lon="12.5243779"><ele>730.8</ele><time>2026-05-01T14:51:05.51Z</time></trkpt><trkpt lat="43.5285864" lon="12.5242589"><ele>730.5999999999999</ele><time>2026-05-01T14:51:06.511Z</time></trkpt><trkpt lat="43.5285979" lon="12.5241646"><ele>730.4</ele><time>2026-05-01T14:51:07.511Z</time></trkpt><trkpt lat="43.5285929" lon="12.5240683"><ele>730.2</ele><time>2026-05-01T14:51:08.511Z</time></trkpt><trkpt lat="43.528578" lon="12.5239724"><ele>730.0</ele><time>2026-05-01T14:51:09.511Z</time></trkpt><trkpt lat="43.5284857" lon="12.5238176"><ele>730.0</ele><time>2026-05-01T14:51:11.511Z</time></trkpt><trkpt lat="43.5284284" lon="12.5237387"><ele>730.0</ele><time>2026-05-01T14:51:12.511Z</time></trkpt><trkpt lat="43.5283723" lon="12.5236718"><ele>730.0</ele><time>2026-05-01T14:51:13.51Z</time></trkpt><trkpt lat="43.5282703" lon="12.5236102"><ele>730.0</ele><time>2026-05-01T14:51:15.511Z</time></trkpt><trkpt lat="43.5281567" lon="12.5236898"><ele>730.0</ele><time>2026-05-01T14:51:17.511Z</time></trkpt><trkpt lat="43.5281069" lon="12.5237616"><ele>730.0000000000001</ele><time>2026-05-01T14:51:18.511Z</time></trkpt><trkpt lat="43.5280586" lon="12.5238447"><ele>730.0</ele><time>2026-05-01T14:51:19.511Z</time></trkpt><trkpt lat="43.5280165" lon="12.5239247"><ele>730.0</ele><time>2026-05-01T14:51:20.511Z</time></trkpt><trkpt lat="43.5279775" lon="12.5240077"><ele>730.0</ele><time>2026-05-01T14:51:21.51Z</time></trkpt><trkpt lat="43.5279354" lon="12.5240891"><ele>730.0</ele><time>2026-05-01T14:51:22.511Z</time></trkpt><trkpt lat="43.5279049" lon="12.5241748"><ele>730.0000000000001</ele><time>2026-05-01T14:51:23.51Z</time></trkpt><trkpt lat="43.5278719" lon="12.5242567"><ele>730.0</ele><time>2026-05-01T14:51:24.51Z</time></trkpt><trkpt lat="43.5278318" lon="12.5243279"><ele>726.5</ele><time>2026-05-01T14:51:25.511Z</time></trkpt><trkpt lat="43.527792" lon="12.5243981"><ele>723.0</ele><time>2026-05-01T14:51:26.51Z</time></trkpt><trkpt lat="43.5277211" lon="12.52454"><ele>719.5</ele><time>2026-05-01T14:51:28.511Z</time></trkpt><trkpt lat="43.5276826" lon="12.5246098"><ele>716.0</ele><time>2026-05-01T14:51:29.511Z</time></trkpt><trkpt lat="43.5276401" lon="12.5246824"><ele>712.5</ele><time>2026-05-01T14:51:30.51Z</time></trkpt><trkpt lat="43.5275997" lon="12.5247592"><ele>709.0</ele><time>2026-05-01T14:51:31.511Z</time></trkpt><trkpt lat="43.5275623" lon="12.5248335"><ele>709.0000000000001</ele><time>2026-05-01T14:51:32.51Z</time></trkpt><trkpt lat="43.5275217" lon="12.524904"><ele>709.0</ele><time>2026-05-01T14:51:33.51Z</time></trkpt><trkpt lat="43.527484" lon="12.5249751"><ele>709.0</ele><time>2026-05-01T14:51:34.511Z</time></trkpt><trkpt lat="43.5274395" lon="12.525049"><ele>709.0</ele><time>2026-05-01T14:51:35.51Z</time></trkpt><trkpt lat="43.5273883" lon="12.5251254"><ele>709.0</ele><time>2026-05-01T14:51:36.511Z</time></trkpt><trkpt lat="43.5273351" lon="12.5252026"><ele>709.0000000000001</ele><time>2026-05-01T14:51:37.511Z</time></trkpt><trkpt lat="43.5272825" lon="12.525284"><ele>709.0</ele><time>2026-05-01T14:51:38.511Z</time></trkpt><trkpt lat="43.5272242" lon="12.5253652"><ele>712.6666666666667</ele><time>2026-05-01T14:51:39.51Z</time></trkpt><trkpt lat="43.5271541" lon="12.5254377"><ele>716.3333333333334</ele><time>2026-05-01T14:51:40.511Z</time></trkpt><trkpt lat="43.5270893" lon="12.5255174"><ele>720.0</ele><time>2026-05-01T14:51:41.511Z</time></trkpt><trkpt lat="43.5270256" lon="12.5255978"><ele>723.6666666666666</ele><time>2026-05-01T14:51:42.511Z</time></trkpt><trkpt lat="43.526963" lon="12.5256889"><ele>727.3333333333333</ele><time>2026-05-01T14:51:43.51Z</time></trkpt><trkpt lat="43.5269031" lon="12.5257941"><ele>731.0</ele><time>2026-05-01T14:51:44.51Z</time></trkpt><trkpt lat="43.5268404" lon="12.5259298"><ele>724.0</ele><time>2026-05-01T14:51:45.511Z</time></trkpt><trkpt lat="43.5267864" lon="12.5260735"><ele>717.0</ele><time>2026-05-01T14:51:46.511Z</time></trkpt><trkpt lat="43.5267405" lon="12.5262081"><ele>710.0</ele><time>2026-05-01T14:51:47.511Z</time></trkpt><trkpt lat="43.5267007" lon="12.5263388"><ele>703.0</ele><time>2026-05-01T14:51:48.511Z</time></trkpt><trkpt lat="43.5266577" lon="12.5264768"><ele>696.0</ele><time>2026-05-01T14:51:49.51Z</time></trkpt><trkpt lat="43.5266144" lon="12.526619"><ele>696.0</ele><time>2026-05-01T14:51:50.51Z</time></trkpt><trkpt lat="43.5265622" lon="12.5267646"><ele>696.0</ele><time>2026-05-01T14:51:51.511Z</time></trkpt><trkpt lat="43.5265154" lon="12.5269052"><ele>696.0</ele><time>2026-05-01T14:51:52.511Z</time></trkpt><trkpt lat="43.5264725" lon="12.5270547"><ele>696.0</ele><time>2026-05-01T14:51:53.511Z</time></trkpt><trkpt lat="43.5264226" lon="12.5272062"><ele>700.0</ele><time>2026-05-01T14:51:54.511Z</time></trkpt><trkpt lat="43.5263726" lon="12.5273518"><ele>704.0</ele><time>2026-05-01T14:51:55.511Z</time></trkpt><trkpt lat="43.5263266" lon="12.5274836"><ele>708.0</ele><time>2026-05-01T14:51:56.511Z</time></trkpt><trkpt lat="43.5262784" lon="12.5276144"><ele>712.0</ele><time>2026-05-01T14:51:57.51Z</time></trkpt><trkpt lat="43.5262258" lon="12.5277387"><ele>716.0</ele><time>2026-05-01T14:51:58.511Z</time></trkpt><trkpt lat="43.5261733" lon="12.527866"><ele>705.1999999999999</ele><time>2026-05-01T14:51:59.511Z</time></trkpt><trkpt lat="43.5261233" lon="12.5280039"><ele>694.4</ele><time>2026-05-01T14:52:00.51Z</time></trkpt><trkpt lat="43.5260719" lon="12.5281312"><ele>683.6</ele><time>2026-05-01T14:52:01.511Z</time></trkpt><trkpt lat="43.5260308" lon="12.5282497"><ele>672.8</ele><time>2026-05-01T14:52:02.511Z</time></trkpt><trkpt lat="43.5259894" lon="12.52836"><ele>662.0</ele><time>2026-05-01T14:52:03.511Z</time></trkpt><trkpt lat="43.5259668" lon="12.5284862"><ele>662.0</ele><time>2026-05-01T14:52:04.511Z</time></trkpt><trkpt lat="43.5259473" lon="12.5286268"><ele>662.0</ele><time>2026-05-01T14:52:05.511Z</time></trkpt><trkpt lat="43.5259268" lon="12.5287754"><ele>662.0</ele><time>2026-05-01T14:52:06.51Z</time></trkpt><trkpt lat="43.5259034" lon="12.5289183"><ele>662.0</ele><time>2026-05-01T14:52:07.511Z</time></trkpt><trkpt lat="43.5258755" lon="12.5290565"><ele>662.0</ele><time>2026-05-01T14:52:08.511Z</time></trkpt><trkpt lat="43.5258305" lon="12.5291649"><ele>664.0</ele><time>2026-05-01T14:52:09.511Z</time></trkpt><trkpt lat="43.5257852" lon="12.5292559"><ele>666.0</ele><time>2026-05-01T14:52:10.51Z</time></trkpt><trkpt lat="43.5257457" lon="12.5293451"><ele>668.0</ele><time>2026-05-01T14:52:11.511Z</time></trkpt><trkpt lat="43.5257326" lon="12.5294415"><ele>670.0</ele><time>2026-05-01T14:52:12.511Z</time></trkpt><trkpt lat="43.525731" lon="12.5295554"><ele>672.0</ele><time>2026-05-01T14:52:13.511Z</time></trkpt><trkpt lat="43.5257337" lon="12.5296761"><ele>674.0</ele><time>2026-05-01T14:52:14.511Z</time></trkpt><trkpt lat="43.5257192" lon="12.5298082"><ele>676.0</ele><time>2026-05-01T14:52:15.511Z</time></trkpt><trkpt lat="43.5256883" lon="12.5299463"><ele>678.0</ele><time>2026-05-01T14:52:16.51Z</time></trkpt><trkpt lat="43.5256567" lon="12.5300874"><ele>680.0</ele><time>2026-05-01T14:52:17.51Z</time></trkpt><trkpt lat="43.5256273" lon="12.5302276"><ele>682.0</ele><time>2026-05-01T14:52:18.511Z</time></trkpt><trkpt lat="43.5256035" lon="12.5303675"><ele>684.0</ele><time>2026-05-01T14:52:19.511Z</time></trkpt><trkpt lat="43.5255923" lon="12.5304971"><ele>685.6</ele><time>2026-05-01T14:52:20.511Z</time></trkpt><trkpt lat="43.5255822" lon="12.5306255"><ele>687.2</ele><time>2026-05-01T14:52:21.511Z</time></trkpt><trkpt lat="43.5255639" lon="12.5307446"><ele>688.8000000000001</ele><time>2026-05-01T14:52:22.511Z</time></trkpt><trkpt lat="43.5255361" lon="12.5308589"><ele>690.4000000000001</ele><time>2026-05-01T14:52:23.511Z</time></trkpt><trkpt lat="43.5254969" lon="12.5309713"><ele>692.0</ele><time>2026-05-01T14:52:24.511Z</time></trkpt><trkpt lat="43.5254427" lon="12.5310824"><ele>685.2</ele><time>2026-05-01T14:52:25.511Z</time></trkpt><trkpt lat="43.5253825" lon="12.5311835"><ele>678.4000000000001</ele><time>2026-05-01T14:52:26.51Z</time></trkpt><trkpt lat="43.5253185" lon="12.5312843"><ele>671.5999999999999</ele><time>2026-05-01T14:52:27.511Z</time></trkpt><trkpt lat="43.5252554" lon="12.5313825"><ele>664.8</ele><time>2026-05-01T14:52:28.51Z</time></trkpt><trkpt lat="43.5251947" lon="12.5314792"><ele>658.0</ele><time>2026-05-01T14:52:29.511Z</time></trkpt><trkpt lat="43.5251406" lon="12.5315705"><ele>658.0</ele><time>2026-05-01T14:52:30.511Z</time></trkpt><trkpt lat="43.5250942" lon="12.5316474"><ele>658.0</ele><time>2026-05-01T14:52:31.511Z</time></trkpt><trkpt lat="43.5250104" lon="12.5317872"><ele>658.0</ele><time>2026-05-01T14:52:33.511Z</time></trkpt><trkpt lat="43.5249465" lon="12.5318687"><ele>658.0</ele><time>2026-05-01T14:52:34.511Z</time></trkpt><trkpt lat="43.5248668" lon="12.531964"><ele>658.0</ele><time>2026-05-01T14:52:35.51Z</time></trkpt><trkpt lat="43.5247924" lon="12.5320594"><ele>662.0</ele><time>2026-05-01T14:52:36.511Z</time></trkpt><trkpt lat="43.5247254" lon="12.5321701"><ele>666.0</ele><time>2026-05-01T14:52:37.51Z</time></trkpt><trkpt lat="43.5246479" lon="12.5322454"><ele>670.0</ele><time>2026-05-01T14:52:38.511Z</time></trkpt><trkpt lat="43.5245858" lon="12.5323157"><ele>674.0</ele><time>2026-05-01T14:52:39.511Z</time></trkpt><trkpt lat="43.5245299" lon="12.5323683"><ele>678.0</ele><time>2026-05-01T14:52:40.511Z</time></trkpt><trkpt lat="43.5244236" lon="12.5324073"><ele>674.0</ele><time>2026-05-01T14:52:42.511Z</time></trkpt><trkpt lat="43.5243828" lon="12.5323278"><ele>670.0</ele><time>2026-05-01T14:52:44.511Z</time></trkpt><trkpt lat="43.5243979" lon="12.5321799"><ele>666.0</ele><time>2026-05-01T14:52:46.511Z</time></trkpt><trkpt lat="43.5244477" lon="12.5320853"><ele>662.0</ele><time>2026-05-01T14:52:47.511Z</time></trkpt><trkpt lat="43.5245146" lon="12.5319795"><ele>658.0</ele><time>2026-05-01T14:52:48.511Z</time></trkpt><trkpt lat="43.5245847" lon="12.5318923"><ele>658.0</ele><time>2026-05-01T14:52:49.511Z</time></trkpt><trkpt lat="43.5246521" lon="12.5318108"><ele>658.0</ele><time>2026-05-01T14:52:50.51Z</time></trkpt><trkpt lat="43.5247264" lon="12.5317332"><ele>658.0</ele><time>2026-05-01T14:52:51.51Z</time></trkpt><trkpt lat="43.5248061" lon="12.5316577"><ele>658.0</ele><time>2026-05-01T14:52:52.511Z</time></trkpt><trkpt lat="43.5248852" lon="12.5315744"><ele>658.0</ele><time>2026-05-01T14:52:53.511Z</time></trkpt><trkpt lat="43.5249495" lon="12.5314827"><ele>658.0</ele><time>2026-05-01T14:52:54.51Z</time></trkpt><trkpt lat="43.525006" lon="12.5313772"><ele>658.0</ele><time>2026-05-01T14:52:55.511Z</time></trkpt><trkpt lat="43.5250679" lon="12.5312583"><ele>658.0</ele><time>2026-05-01T14:52:56.511Z</time></trkpt><trkpt lat="43.5251268" lon="12.5311319"><ele>658.0</ele><time>2026-05-01T14:52:57.51Z</time></trkpt><trkpt lat="43.5251818" lon="12.5310033"><ele>658.0</ele><time>2026-05-01T14:52:58.511Z</time></trkpt><trkpt lat="43.5252271" lon="12.5308773"><ele>652.25</ele><time>2026-05-01T14:52:59.511Z</time></trkpt><trkpt lat="43.5252542" lon="12.5307263"><ele>646.5</ele><time>2026-05-01T14:53:00.511Z</time></trkpt><trkpt lat="43.5252624" lon="12.5305586"><ele>640.75</ele><time>2026-05-01T14:53:01.511Z</time></trkpt><trkpt lat="43.5252672" lon="12.5303677"><ele>635.0</ele><time>2026-05-01T14:53:02.51Z</time></trkpt><trkpt lat="43.5252757" lon="12.5301858"><ele>632.5</ele><time>2026-05-01T14:53:03.511Z</time></trkpt><trkpt lat="43.5252816" lon="12.5299892"><ele>630.0</ele><time>2026-05-01T14:53:04.511Z</time></trkpt><trkpt lat="43.5252889" lon="12.5297895"><ele>627.5</ele><time>2026-05-01T14:53:05.511Z</time></trkpt><trkpt lat="43.525297" lon="12.5295994"><ele>625.0</ele><time>2026-05-01T14:53:06.51Z</time></trkpt><trkpt lat="43.5253134" lon="12.5293982"><ele>623.25</ele><time>2026-05-01T14:53:07.51Z</time></trkpt><trkpt lat="43.5253307" lon="12.5291971"><ele>621.5</ele><time>2026-05-01T14:53:08.511Z</time></trkpt><trkpt lat="43.5253509" lon="12.529002"><ele>619.75</ele><time>2026-05-01T14:53:09.511Z</time></trkpt><trkpt lat="43.5253843" lon="12.528815"><ele>618.0</ele><time>2026-05-01T14:53:10.511Z</time></trkpt><trkpt lat="43.5254158" lon="12.528628"><ele>629.0</ele><time>2026-05-01T14:53:11.511Z</time></trkpt><trkpt lat="43.5254522" lon="12.5284476"><ele>640.0</ele><time>2026-05-01T14:53:12.51Z</time></trkpt><trkpt lat="43.5254936" lon="12.5282878"><ele>651.0</ele><time>2026-05-01T14:53:13.51Z</time></trkpt><trkpt lat="43.5255298" lon="12.5281394"><ele>662.0</ele><time>2026-05-01T14:53:14.511Z</time></trkpt><trkpt lat="43.5255731" lon="12.5279744"><ele>659.0</ele><time>2026-05-01T14:53:15.511Z</time></trkpt><trkpt lat="43.5256183" lon="12.5277982"><ele>656.0</ele><time>2026-05-01T14:53:16.511Z</time></trkpt><trkpt lat="43.5256647" lon="12.5276258"><ele>653.0</ele><time>2026-05-01T14:53:17.511Z</time></trkpt><trkpt lat="43.5257042" lon="12.5274855"><ele>650.0</ele><time>2026-05-01T14:53:18.511Z</time></trkpt><trkpt lat="43.5257406" lon="12.5273571"><ele>650.0</ele><time>2026-05-01T14:53:19.511Z</time></trkpt><trkpt lat="43.5257756" lon="12.5272348"><ele>650.0</ele><time>2026-05-01T14:53:20.511Z</time></trkpt><trkpt lat="43.5257978" lon="12.5271179"><ele>650.0</ele><time>2026-05-01T14:53:21.51Z</time></trkpt><trkpt lat="43.5258105" lon="12.5269791"><ele>650.0</ele><time>2026-05-01T14:53:22.511Z</time></trkpt><trkpt lat="43.5258216" lon="12.5268279"><ele>650.0</ele><time>2026-05-01T14:53:23.51Z</time></trkpt><trkpt lat="43.5258301" lon="12.5266882"><ele>646.2</ele><time>2026-05-01T14:53:24.51Z</time></trkpt><trkpt lat="43.5258364" lon="12.5265532"><ele>642.4</ele><time>2026-05-01T14:53:25.511Z</time></trkpt><trkpt lat="43.5258408" lon="12.5264232"><ele>638.6</ele><time>2026-05-01T14:53:26.511Z</time></trkpt><trkpt lat="43.5258488" lon="12.5262883"><ele>634.8</ele><time>2026-05-01T14:53:27.511Z</time></trkpt><trkpt lat="43.5258658" lon="12.5261463"><ele>631.0</ele><time>2026-05-01T14:53:28.511Z</time></trkpt><trkpt lat="43.5258865" lon="12.5260062"><ele>629.6666666666667</ele><time>2026-05-01T14:53:29.511Z</time></trkpt><trkpt lat="43.5259017" lon="12.5258844"><ele>628.3333333333334</ele><time>2026-05-01T14:53:30.511Z</time></trkpt><trkpt lat="43.5259114" lon="12.5257716"><ele>627.0</ele><time>2026-05-01T14:53:31.512Z</time></trkpt><trkpt lat="43.5259231" lon="12.5256614"><ele>625.6666666666666</ele><time>2026-05-01T14:53:32.512Z</time></trkpt><trkpt lat="43.5259361" lon="12.525553"><ele>624.3333333333333</ele><time>2026-05-01T14:53:33.512Z</time></trkpt><trkpt lat="43.5259539" lon="12.525445"><ele>623.0</ele><time>2026-05-01T14:53:34.512Z</time></trkpt><trkpt lat="43.5259859" lon="12.5253452"><ele>623.0</ele><time>2026-05-01T14:53:35.512Z</time></trkpt><trkpt lat="43.5260376" lon="12.525206"><ele>623.0</ele><time>2026-05-01T14:53:37.512Z</time></trkpt><trkpt lat="43.5260246" lon="12.5251021"><ele>623.0</ele><time>2026-05-01T14:53:39.512Z</time></trkpt><trkpt lat="43.5259456" lon="12.52508"><ele>623.0</ele><time>2026-05-01T14:53:41.511Z</time></trkpt><trkpt lat="43.5258773" lon="12.5252661"><ele>623.0</ele><time>2026-05-01T14:53:43.511Z</time></trkpt><trkpt lat="43.5258349" lon="12.5253968"><ele>623.0</ele><time>2026-05-01T14:53:44.512Z</time></trkpt><trkpt lat="43.5257915" lon="12.5255325"><ele>623.0</ele><time>2026-05-01T14:53:45.512Z</time></trkpt><trkpt lat="43.5257462" lon="12.5256513"><ele>623.0</ele><time>2026-05-01T14:53:46.512Z</time></trkpt><trkpt lat="43.5257081" lon="12.5257639"><ele>623.0</ele><time>2026-05-01T14:53:47.512Z</time></trkpt><trkpt lat="43.5256715" lon="12.5258838"><ele>623.0</ele><time>2026-05-01T14:53:48.512Z</time></trkpt><trkpt lat="43.5256398" lon="12.5260043"><ele>623.0</ele><time>2026-05-01T14:53:49.511Z</time></trkpt><trkpt lat="43.5256131" lon="12.5261358"><ele>623.0</ele><time>2026-05-01T14:53:50.512Z</time></trkpt><trkpt lat="43.5255868" lon="12.5262679"><ele>623.0</ele><time>2026-05-01T14:53:51.512Z</time></trkpt><trkpt lat="43.5255664" lon="12.5263873"><ele>623.0</ele><time>2026-05-01T14:53:52.511Z</time></trkpt><trkpt lat="43.52555" lon="12.5265011"><ele>623.0</ele><time>2026-05-01T14:53:53.512Z</time></trkpt><trkpt lat="43.5255382" lon="12.5266156"><ele>624.3333333333333</ele><time>2026-05-01T14:53:54.511Z</time></trkpt><trkpt lat="43.5255281" lon="12.526725"><ele>625.6666666666666</ele><time>2026-05-01T14:53:55.511Z</time></trkpt><trkpt lat="43.5255196" lon="12.5268327"><ele>627.0</ele><time>2026-05-01T14:53:56.512Z</time></trkpt><trkpt lat="43.5255041" lon="12.526938"><ele>628.3333333333334</ele><time>2026-05-01T14:53:57.512Z</time></trkpt><trkpt lat="43.5254766" lon="12.5270403"><ele>629.6666666666667</ele><time>2026-05-01T14:53:58.512Z</time></trkpt><trkpt lat="43.5254461" lon="12.5271426"><ele>631.0</ele><time>2026-05-01T14:53:59.511Z</time></trkpt><trkpt lat="43.5253971" lon="12.5272546"><ele>626.0</ele><time>2026-05-01T14:54:00.512Z</time></trkpt><trkpt lat="43.525345" lon="12.5273849"><ele>621.0</ele><time>2026-05-01T14:54:01.512Z</time></trkpt><trkpt lat="43.5252968" lon="12.5275234"><ele>616.0</ele><time>2026-05-01T14:54:02.511Z</time></trkpt><trkpt lat="43.5252496" lon="12.5276489"><ele>611.0</ele><time>2026-05-01T14:54:03.511Z</time></trkpt><trkpt lat="43.5252065" lon="12.5277797"><ele>606.0</ele><time>2026-05-01T14:54:04.512Z</time></trkpt><trkpt lat="43.5251751" lon="12.5279145"><ele>606.0</ele><time>2026-05-01T14:54:05.511Z</time></trkpt><trkpt lat="43.5251472" lon="12.5280383"><ele>606.0</ele><time>2026-05-01T14:54:06.512Z</time></trkpt><trkpt lat="43.5251143" lon="12.5281533"><ele>606.0</ele><time>2026-05-01T14:54:07.512Z</time></trkpt><trkpt lat="43.5250785" lon="12.5282712"><ele>606.0</ele><time>2026-05-01T14:54:08.512Z</time></trkpt><trkpt lat="43.5250338" lon="12.5283864"><ele>606.0</ele><time>2026-05-01T14:54:09.512Z</time></trkpt><trkpt lat="43.5249795" lon="12.5284945"><ele>606.0</ele><time>2026-05-01T14:54:10.511Z</time></trkpt><trkpt lat="43.5249072" lon="12.528595"><ele>606.0</ele><time>2026-05-01T14:54:11.511Z</time></trkpt><trkpt lat="43.5248259" lon="12.5286891"><ele>606.0</ele><time>2026-05-01T14:54:12.512Z</time></trkpt><trkpt lat="43.5247485" lon="12.5287709"><ele>606.0</ele><time>2026-05-01T14:54:13.512Z</time></trkpt><trkpt lat="43.5246752" lon="12.5288539"><ele>606.0</ele><time>2026-05-01T14:54:14.512Z</time></trkpt><trkpt lat="43.524608" lon="12.5289269"><ele>600.2</ele><time>2026-05-01T14:54:15.512Z</time></trkpt><trkpt lat="43.5245344" lon="12.5290007"><ele>594.4000000000001</ele><time>2026-05-01T14:54:16.512Z</time></trkpt><trkpt lat="43.5244671" lon="12.529084"><ele>588.6</ele><time>2026-05-01T14:54:17.514Z</time></trkpt><trkpt lat="43.5244017" lon="12.5291719"><ele>582.8000000000001</ele><time>2026-05-01T14:54:18.514Z</time></trkpt><trkpt lat="43.5243186" lon="12.5292656"><ele>577.0</ele><time>2026-05-01T14:54:19.514Z</time></trkpt><trkpt lat="43.5242511" lon="12.5293477"><ele>577.0</ele><time>2026-05-01T14:54:20.514Z</time></trkpt><trkpt lat="43.5241916" lon="12.5294273"><ele>577.0</ele><time>2026-05-01T14:54:21.514Z</time></trkpt><trkpt lat="43.5241383" lon="12.529518"><ele>577.0</ele><time>2026-05-01T14:54:22.514Z</time></trkpt><trkpt lat="43.5240919" lon="12.5296172"><ele>577.0</ele><time>2026-05-01T14:54:23.514Z</time></trkpt><trkpt lat="43.5240586" lon="12.5297187"><ele>577.0</ele><time>2026-05-01T14:54:24.513Z</time></trkpt><trkpt lat="43.5240418" lon="12.5298284"><ele>577.0</ele><time>2026-05-01T14:54:25.514Z</time></trkpt><trkpt lat="43.5240297" lon="12.5299341"><ele>578.4285714285714</ele><time>2026-05-01T14:54:26.514Z</time></trkpt><trkpt lat="43.5240213" lon="12.5300335"><ele>579.8571428571429</ele><time>2026-05-01T14:54:27.514Z</time></trkpt><trkpt lat="43.5240242" lon="12.5301363"><ele>581.2857142857143</ele><time>2026-05-01T14:54:28.513Z</time></trkpt><trkpt lat="43.5240126" lon="12.530235"><ele>582.7142857142858</ele><time>2026-05-01T14:54:29.514Z</time></trkpt><trkpt lat="43.523996" lon="12.530331"><ele>584.1428571428572</ele><time>2026-05-01T14:54:30.514Z</time></trkpt><trkpt lat="43.5239598" lon="12.5304225"><ele>585.5714285714286</ele><time>2026-05-01T14:54:31.513Z</time></trkpt><trkpt lat="43.5239087" lon="12.5305049"><ele>587.0</ele><time>2026-05-01T14:54:32.514Z</time></trkpt><trkpt lat="43.5238616" lon="12.5306117"><ele>588.6</ele><time>2026-05-01T14:54:33.514Z</time></trkpt><trkpt lat="43.5238082" lon="12.5307435"><ele>590.2</ele><time>2026-05-01T14:54:34.514Z</time></trkpt><trkpt lat="43.5237609" lon="12.5308626"><ele>591.8</ele><time>2026-05-01T14:54:35.514Z</time></trkpt><trkpt lat="43.5237122" lon="12.5309748"><ele>593.4</ele><time>2026-05-01T14:54:36.513Z</time></trkpt><trkpt lat="43.5236482" lon="12.5310838"><ele>595.0</ele><time>2026-05-01T14:54:37.514Z</time></trkpt><trkpt lat="43.523575" lon="12.5311757"><ele>590.4</ele><time>2026-05-01T14:54:38.514Z</time></trkpt><trkpt lat="43.5234986" lon="12.5312596"><ele>585.8</ele><time>2026-05-01T14:54:39.514Z</time></trkpt><trkpt lat="43.5234289" lon="12.5313503"><ele>581.2</ele><time>2026-05-01T14:54:40.514Z</time></trkpt><trkpt lat="43.5233706" lon="12.5314493"><ele>576.6</ele><time>2026-05-01T14:54:41.514Z</time></trkpt><trkpt lat="43.5233185" lon="12.5315768"><ele>572.0</ele><time>2026-05-01T14:54:42.513Z</time></trkpt><trkpt lat="43.5232815" lon="12.5317082"><ele>572.0</ele><time>2026-05-01T14:54:43.514Z</time></trkpt><trkpt lat="43.5232436" lon="12.5318523"><ele>572.0</ele><time>2026-05-01T14:54:44.513Z</time></trkpt><trkpt lat="43.5232255" lon="12.5319979"><ele>572.0</ele><time>2026-05-01T14:54:45.514Z</time></trkpt><trkpt lat="43.5232223" lon="12.5321621"><ele>572.0</ele><time>2026-05-01T14:54:46.514Z</time></trkpt><trkpt lat="43.5232248" lon="12.5323229"><ele>572.4</ele><time>2026-05-01T14:54:47.514Z</time></trkpt><trkpt lat="43.5232371" lon="12.5324884"><ele>572.8000000000001</ele><time>2026-05-01T14:54:48.514Z</time></trkpt><trkpt lat="43.5232571" lon="12.5326473"><ele>573.2</ele><time>2026-05-01T14:54:49.513Z</time></trkpt><trkpt lat="43.5232787" lon="12.5328007"><ele>573.6</ele><time>2026-05-01T14:54:50.514Z</time></trkpt><trkpt lat="43.5233031" lon="12.5329321"><ele>574.0</ele><time>2026-05-01T14:54:51.514Z</time></trkpt><trkpt lat="43.523321" lon="12.5330461"><ele>574.5</ele><time>2026-05-01T14:54:52.513Z</time></trkpt><trkpt lat="43.5233235" lon="12.5331462"><ele>575.0</ele><time>2026-05-01T14:54:53.514Z</time></trkpt><trkpt lat="43.5232921" lon="12.5332407"><ele>575.5</ele><time>2026-05-01T14:54:54.514Z</time></trkpt><trkpt lat="43.5232415" lon="12.533339"><ele>576.0</ele><time>2026-05-01T14:54:55.514Z</time></trkpt><trkpt lat="43.5231744" lon="12.533424"><ele>576.5</ele><time>2026-05-01T14:54:56.514Z</time></trkpt><trkpt lat="43.5230997" lon="12.5334978"><ele>577.0</ele><time>2026-05-01T14:54:57.513Z</time></trkpt><trkpt lat="43.5230176" lon="12.533543"><ele>577.0</ele><time>2026-05-01T14:54:58.514Z</time></trkpt><trkpt lat="43.522935" lon="12.5335769"><ele>577.0</ele><time>2026-05-01T14:54:59.514Z</time></trkpt><trkpt lat="43.5228468" lon="12.5336072"><ele>577.0</ele><time>2026-05-01T14:55:00.514Z</time></trkpt><trkpt lat="43.5227586" lon="12.5336367"><ele>577.0</ele><time>2026-05-01T14:55:01.514Z</time></trkpt><trkpt lat="43.5226676" lon="12.5336782"><ele>577.0</ele><time>2026-05-01T14:55:02.514Z</time></trkpt><trkpt lat="43.5225788" lon="12.5337248"><ele>575.6</ele><time>2026-05-01T14:55:03.514Z</time></trkpt><trkpt lat="43.5224937" lon="12.533768"><ele>574.2</ele><time>2026-05-01T14:55:04.514Z</time></trkpt><trkpt lat="43.5224096" lon="12.5338139"><ele>572.8</ele><time>2026-05-01T14:55:05.514Z</time></trkpt><trkpt lat="43.5223235" lon="12.5338682"><ele>571.4</ele><time>2026-05-01T14:55:06.514Z</time></trkpt><trkpt lat="43.5222427" lon="12.5339298"><ele>570.0</ele><time>2026-05-01T14:55:07.514Z</time></trkpt><trkpt lat="43.5221649" lon="12.5340082"><ele>570.0</ele><time>2026-05-01T14:55:08.514Z</time></trkpt><trkpt lat="43.5221019" lon="12.5341058"><ele>570.0</ele><time>2026-05-01T14:55:09.514Z</time></trkpt><trkpt lat="43.5220389" lon="12.5342128"><ele>570.0</ele><time>2026-05-01T14:55:10.513Z</time></trkpt><trkpt lat="43.5219806" lon="12.534322"><ele>570.0</ele><time>2026-05-01T14:55:11.514Z</time></trkpt><trkpt lat="43.5219135" lon="12.5344413"><ele>570.0</ele><time>2026-05-01T14:55:12.514Z</time></trkpt><trkpt lat="43.5218504" lon="12.5345473"><ele>565.0</ele><time>2026-05-01T14:55:13.514Z</time></trkpt><trkpt lat="43.5217858" lon="12.5346539"><ele>560.0</ele><time>2026-05-01T14:55:14.514Z</time></trkpt><trkpt lat="43.5217359" lon="12.534776"><ele>555.0</ele><time>2026-05-01T14:55:15.514Z</time></trkpt><trkpt lat="43.5217116" lon="12.5348784"><ele>550.0</ele><time>2026-05-01T14:55:16.513Z</time></trkpt><trkpt lat="43.5216761" lon="12.5349909"><ele>545.0</ele><time>2026-05-01T14:55:18.514Z</time></trkpt><trkpt lat="43.5215784" lon="12.5349829"><ele>545.0</ele><time>2026-05-01T14:55:20.514Z</time></trkpt><trkpt lat="43.5215557" lon="12.5347824"><ele>545.0</ele><time>2026-05-01T14:55:22.513Z</time></trkpt><trkpt lat="43.5215719" lon="12.5346505"><ele>545.0</ele><time>2026-05-01T14:55:23.514Z</time></trkpt><trkpt lat="43.521574" lon="12.5345019"><ele>545.0</ele><time>2026-05-01T14:55:24.514Z</time></trkpt><trkpt lat="43.5215735" lon="12.5343377"><ele>543.8</ele><time>2026-05-01T14:55:25.514Z</time></trkpt><trkpt lat="43.5215796" lon="12.5341902"><ele>542.6</ele><time>2026-05-01T14:55:26.514Z</time></trkpt><trkpt lat="43.5215833" lon="12.5340319"><ele>541.4</ele><time>2026-05-01T14:55:27.514Z</time></trkpt><trkpt lat="43.5215848" lon="12.5338704"><ele>540.2</ele><time>2026-05-01T14:55:28.514Z</time></trkpt><trkpt lat="43.5215943" lon="12.5337205"><ele>539.0</ele><time>2026-05-01T14:55:29.514Z</time></trkpt><trkpt lat="43.5216107" lon="12.5335772"><ele>536.2</ele><time>2026-05-01T14:55:30.513Z</time></trkpt><trkpt lat="43.5216496" lon="12.5334544"><ele>533.4</ele><time>2026-05-01T14:55:31.514Z</time></trkpt><trkpt lat="43.5216941" lon="12.5333633"><ele>530.6</ele><time>2026-05-01T14:55:32.514Z</time></trkpt><trkpt lat="43.5217166" lon="12.5332461"><ele>527.8</ele><time>2026-05-01T14:55:34.513Z</time></trkpt><trkpt lat="43.5216073" lon="12.5332327"><ele>525.0</ele><time>2026-05-01T14:55:36.514Z</time></trkpt><trkpt lat="43.5215532" lon="12.5333415"><ele>525.0</ele><time>2026-05-01T14:55:37.513Z</time></trkpt><trkpt lat="43.5215028" lon="12.5334826"><ele>525.0</ele><time>2026-05-01T14:55:38.513Z</time></trkpt><trkpt lat="43.521448" lon="12.5336285"><ele>525.0</ele><time>2026-05-01T14:55:39.513Z</time></trkpt><trkpt lat="43.5213806" lon="12.5337643"><ele>525.0</ele><time>2026-05-01T14:55:40.514Z</time></trkpt><trkpt lat="43.5213095" lon="12.5338903"><ele>519.0</ele><time>2026-05-01T14:55:41.514Z</time></trkpt><trkpt lat="43.5212244" lon="12.5340103"><ele>513.0</ele><time>2026-05-01T14:55:42.514Z</time></trkpt><trkpt lat="43.5211525" lon="12.5341341"><ele>507.0</ele><time>2026-05-01T14:55:43.513Z</time></trkpt><trkpt lat="43.5210794" lon="12.5342594"><ele>501.0</ele><time>2026-05-01T14:55:44.514Z</time></trkpt><trkpt lat="43.5210242" lon="12.5343981"><ele>501.0</ele><time>2026-05-01T14:55:45.514Z</time></trkpt><trkpt lat="43.5209813" lon="12.5345276"><ele>501.0</ele><time>2026-05-01T14:55:46.514Z</time></trkpt><trkpt lat="43.5209534" lon="12.5346432"><ele>501.0</ele><time>2026-05-01T14:55:47.514Z</time></trkpt><trkpt lat="43.5209347" lon="12.5347692"><ele>501.0</ele><time>2026-05-01T14:55:48.513Z</time></trkpt><trkpt lat="43.5209206" lon="12.5348823"><ele>501.0</ele><time>2026-05-01T14:55:49.514Z</time></trkpt><trkpt lat="43.5209083" lon="12.5349926"><ele>501.0</ele><time>2026-05-01T14:55:50.514Z</time></trkpt><trkpt lat="43.5208997" lon="12.5350911"><ele>502.3333333333333</ele><time>2026-05-01T14:55:51.514Z</time></trkpt><trkpt lat="43.5208872" lon="12.5352281"><ele>503.66666666666663</ele><time>2026-05-01T14:55:53.514Z</time></trkpt><trkpt lat="43.5208682" lon="12.5353426"><ele>505.0</ele><time>2026-05-01T14:55:55.514Z</time></trkpt><trkpt lat="43.5208501" lon="12.5354328"><ele>506.3333333333333</ele><time>2026-05-01T14:55:58.514Z</time></trkpt><trkpt lat="43.5208145" lon="12.5355213"><ele>507.66666666666663</ele><time>2026-05-01T14:58:14.514Z</time></trkpt><trkpt lat="43.5208062" lon="12.535646"><ele>509.0</ele><time>2026-05-01T14:58:15.514Z</time></trkpt><trkpt lat="43.5208061" lon="12.5357849"><ele>509.2</ele><time>2026-05-01T14:58:16.514Z</time></trkpt><trkpt lat="43.520784" lon="12.5359143"><ele>509.4</ele><time>2026-05-01T14:58:17.513Z</time></trkpt><trkpt lat="43.520757" lon="12.5360573"><ele>509.6</ele><time>2026-05-01T14:58:18.514Z</time></trkpt><trkpt lat="43.5207279" lon="12.5361767"><ele>509.8</ele><time>2026-05-01T14:58:19.513Z</time></trkpt><trkpt lat="43.5206949" lon="12.5362934"><ele>510.0</ele><time>2026-05-01T14:58:20.513Z</time></trkpt><trkpt lat="43.5206776" lon="12.5363995"><ele>510.1666666666667</ele><time>2026-05-01T14:58:21.514Z</time></trkpt><trkpt lat="43.520675" lon="12.5365048"><ele>510.33333333333337</ele><time>2026-05-01T14:58:22.514Z</time></trkpt><trkpt lat="43.5207098" lon="12.5366038"><ele>510.5</ele><time>2026-05-01T14:58:23.514Z</time></trkpt><trkpt lat="43.5207823" lon="12.5366641"><ele>510.6666666666667</ele><time>2026-05-01T14:58:24.514Z</time></trkpt><trkpt lat="43.5208743" lon="12.536681"><ele>510.83333333333337</ele><time>2026-05-01T14:58:25.514Z</time></trkpt><trkpt lat="43.5209809" lon="12.5367166"><ele>511.0</ele><time>2026-05-01T14:58:26.514Z</time></trkpt><trkpt lat="43.5210845" lon="12.536782"><ele>511.0</ele><time>2026-05-01T14:58:27.513Z</time></trkpt><trkpt lat="43.5211667" lon="12.5368863"><ele>511.0</ele><time>2026-05-01T14:58:28.513Z</time></trkpt><trkpt lat="43.5212191" lon="12.5370402"><ele>511.0</ele><time>2026-05-01T14:58:29.514Z</time></trkpt><trkpt lat="43.5212252" lon="12.537225"><ele>511.0</ele><time>2026-05-01T14:58:30.514Z</time></trkpt><trkpt lat="43.521198" lon="12.5374352"><ele>509.6666666666667</ele><time>2026-05-01T14:58:31.514Z</time></trkpt><trkpt lat="43.5211501" lon="12.5376449"><ele>508.33333333333337</ele><time>2026-05-01T14:58:32.513Z</time></trkpt><trkpt lat="43.521078" lon="12.5378679"><ele>507.0</ele><time>2026-05-01T14:58:33.514Z</time></trkpt><trkpt lat="43.5209888" lon="12.5380807"><ele>507.0</ele><time>2026-05-01T14:58:34.514Z</time></trkpt><trkpt lat="43.5208914" lon="12.538278"><ele>507.0</ele><time>2026-05-01T14:58:35.514Z</time></trkpt><trkpt lat="43.5207848" lon="12.5384591"><ele>507.0</ele><time>2026-05-01T14:58:36.514Z</time></trkpt><trkpt lat="43.5206829" lon="12.5386243"><ele>510.33333333333337</ele><time>2026-05-01T14:58:37.514Z</time></trkpt><trkpt lat="43.5206102" lon="12.5387961"><ele>513.6666666666667</ele><time>2026-05-01T14:58:38.514Z</time></trkpt><trkpt lat="43.5205657" lon="12.5389826"><ele>517.0</ele><time>2026-05-01T14:58:39.514Z</time></trkpt><trkpt lat="43.520548" lon="12.5392084"><ele>517.0</ele><time>2026-05-01T14:58:40.514Z</time></trkpt><trkpt lat="43.5205552" lon="12.5394544"><ele>517.0</ele><time>2026-05-01T14:58:41.513Z</time></trkpt><trkpt lat="43.5205647" lon="12.5396681"><ele>517.0</ele><time>2026-05-01T14:58:42.513Z</time></trkpt><trkpt lat="43.5205654" lon="12.539859"><ele>516.75</ele><time>2026-05-01T14:58:43.514Z</time></trkpt><trkpt lat="43.520538" lon="12.5400229"><ele>516.5</ele><time>2026-05-01T14:58:44.514Z</time></trkpt><trkpt lat="43.5204759" lon="12.5401643"><ele>516.25</ele><time>2026-05-01T14:58:45.513Z</time></trkpt><trkpt lat="43.5203566" lon="12.5402706"><ele>516.0</ele><time>2026-05-01T14:58:46.513Z</time></trkpt><trkpt lat="43.5202167" lon="12.5403321"><ele>511.5</ele><time>2026-05-01T14:58:47.513Z</time></trkpt><trkpt lat="43.5200866" lon="12.5403158"><ele>507.0</ele><time>2026-05-01T14:58:48.514Z</time></trkpt><trkpt lat="43.5199697" lon="12.5402042"><ele>502.5</ele><time>2026-05-01T14:58:49.514Z</time></trkpt><trkpt lat="43.519872" lon="12.5400383"><ele>498.0</ele><time>2026-05-01T14:58:50.514Z</time></trkpt><trkpt lat="43.5198003" lon="12.5398387"><ele>498.0</ele><time>2026-05-01T14:58:51.514Z</time></trkpt><trkpt lat="43.5197454" lon="12.5396399"><ele>498.0</ele><time>2026-05-01T14:58:52.514Z</time></trkpt><trkpt lat="43.5196852" lon="12.5394788"><ele>498.0</ele><time>2026-05-01T14:58:53.514Z</time></trkpt><trkpt lat="43.5195912" lon="12.5393737"><ele>498.0</ele><time>2026-05-01T14:58:54.514Z</time></trkpt><trkpt lat="43.5194749" lon="12.5393178"><ele>493.25</ele><time>2026-05-01T14:58:55.514Z</time></trkpt><trkpt lat="43.5193355" lon="12.539291"><ele>488.5</ele><time>2026-05-01T14:58:56.514Z</time></trkpt><trkpt lat="43.5191905" lon="12.5393138"><ele>483.75</ele><time>2026-05-01T14:58:57.513Z</time></trkpt><trkpt lat="43.5190678" lon="12.5393216"><ele>479.0</ele><time>2026-05-01T14:58:58.514Z</time></trkpt><trkpt lat="43.5189655" lon="12.5393595"><ele>479.0</ele><time>2026-05-01T14:58:59.514Z</time></trkpt><trkpt lat="43.5188872" lon="12.5394735"><ele>479.0</ele><time>2026-05-01T14:59:00.513Z</time></trkpt><trkpt lat="43.5188264" lon="12.5396509"><ele>479.0</ele><time>2026-05-01T14:59:01.514Z</time></trkpt><trkpt lat="43.5187967" lon="12.5398752"><ele>479.0</ele><time>2026-05-01T14:59:02.513Z</time></trkpt><trkpt lat="43.5187675" lon="12.5401048"><ele>478.3333333333333</ele><time>2026-05-01T14:59:03.514Z</time></trkpt><trkpt lat="43.51871" lon="12.5403458"><ele>477.66666666666663</ele><time>2026-05-01T14:59:04.514Z</time></trkpt><trkpt lat="43.5186374" lon="12.5405953"><ele>477.0</ele><time>2026-05-01T14:59:05.513Z</time></trkpt><trkpt lat="43.5185568" lon="12.5408483"><ele>477.0</ele><time>2026-05-01T14:59:06.514Z</time></trkpt><trkpt lat="43.5184652" lon="12.5410997"><ele>477.0</ele><time>2026-05-01T14:59:07.514Z</time></trkpt><trkpt lat="43.5183568" lon="12.541348"><ele>477.0</ele><time>2026-05-01T14:59:08.514Z</time></trkpt><trkpt lat="43.5182417" lon="12.5415836"><ele>480.66666666666663</ele><time>2026-05-01T14:59:09.514Z</time></trkpt><trkpt lat="43.5181249" lon="12.5418006"><ele>484.3333333333333</ele><time>2026-05-01T14:59:10.514Z</time></trkpt><trkpt lat="43.5180097" lon="12.5420074"><ele>488.0</ele><time>2026-05-01T14:59:11.513Z</time></trkpt><trkpt lat="43.5178963" lon="12.5422073"><ele>481.25</ele><time>2026-05-01T14:59:12.513Z</time></trkpt><trkpt lat="43.51779" lon="12.5423898"><ele>474.5</ele><time>2026-05-01T14:59:13.513Z</time></trkpt><trkpt lat="43.5176984" lon="12.5425433"><ele>467.75</ele><time>2026-05-01T14:59:14.513Z</time></trkpt><trkpt lat="43.5176183" lon="12.5426812"><ele>461.0</ele><time>2026-05-01T14:59:15.514Z</time></trkpt><trkpt lat="43.517558" lon="12.5428214"><ele>463.0</ele><time>2026-05-01T14:59:16.514Z</time></trkpt><trkpt lat="43.5175363" lon="12.5430024"><ele>465.0</ele><time>2026-05-01T14:59:17.514Z</time></trkpt><trkpt lat="43.5175493" lon="12.5432096"><ele>467.0</ele><time>2026-05-01T14:59:18.514Z</time></trkpt><trkpt lat="43.5176176" lon="12.5434282"><ele>467.0</ele><time>2026-05-01T14:59:19.514Z</time></trkpt><trkpt lat="43.5176929" lon="12.5436603"><ele>467.0</ele><time>2026-05-01T14:59:20.514Z</time></trkpt><trkpt lat="43.5177652" lon="12.5438897"><ele>467.0</ele><time>2026-05-01T14:59:21.514Z</time></trkpt><trkpt lat="43.5178312" lon="12.5440949"><ele>465.25</ele><time>2026-05-01T14:59:22.514Z</time></trkpt><trkpt lat="43.5178937" lon="12.5442801"><ele>463.5</ele><time>2026-05-01T14:59:23.513Z</time></trkpt><trkpt lat="43.5179385" lon="12.5444474"><ele>461.75</ele><time>2026-05-01T14:59:24.514Z</time></trkpt><trkpt lat="43.5179422" lon="12.5446002"><ele>460.0</ele><time>2026-05-01T14:59:25.513Z</time></trkpt><trkpt lat="43.5179112" lon="12.5447346"><ele>462.25</ele><time>2026-05-01T14:59:26.514Z</time></trkpt><trkpt lat="43.5178014" lon="12.5448476"><ele>464.5</ele><time>2026-05-01T14:59:27.514Z</time></trkpt><trkpt lat="43.5176698" lon="12.5449172"><ele>466.75</ele><time>2026-05-01T14:59:28.513Z</time></trkpt><trkpt lat="43.5175064" lon="12.5449184"><ele>469.0</ele><time>2026-05-01T14:59:29.514Z</time></trkpt><trkpt lat="43.5173316" lon="12.544899"><ele>469.0</ele><time>2026-05-01T14:59:30.514Z</time></trkpt><trkpt lat="43.5171612" lon="12.5448806"><ele>469.0</ele><time>2026-05-01T14:59:31.514Z</time></trkpt><trkpt lat="43.5170034" lon="12.5448766"><ele>469.0</ele><time>2026-05-01T14:59:32.514Z</time></trkpt><trkpt lat="43.5168527" lon="12.5449047"><ele>463.0</ele><time>2026-05-01T14:59:33.514Z</time></trkpt><trkpt lat="43.5167197" lon="12.5449942"><ele>457.0</ele><time>2026-05-01T14:59:34.513Z</time></trkpt><trkpt lat="43.5166188" lon="12.5451542"><ele>451.0</ele><time>2026-05-01T14:59:35.514Z</time></trkpt><trkpt lat="43.5165207" lon="12.5453557"><ele>455.0</ele><time>2026-05-01T14:59:36.513Z</time></trkpt><trkpt lat="43.5164203" lon="12.5455919"><ele>459.0</ele><time>2026-05-01T14:59:37.514Z</time></trkpt><trkpt lat="43.5163174" lon="12.5458429"><ele>463.0</ele><time>2026-05-01T14:59:38.513Z</time></trkpt><trkpt lat="43.5162165" lon="12.546087"><ele>458.0</ele><time>2026-05-01T14:59:39.514Z</time></trkpt><trkpt lat="43.5161232" lon="12.5463105"><ele>453.0</ele><time>2026-05-01T14:59:40.513Z</time></trkpt><trkpt lat="43.5160319" lon="12.5465148"><ele>448.0</ele><time>2026-05-01T14:59:41.514Z</time></trkpt><trkpt lat="43.5159356" lon="12.5466722"><ele>448.0</ele><time>2026-05-01T14:59:42.514Z</time></trkpt><trkpt lat="43.5158201" lon="12.5467652"><ele>448.0</ele><time>2026-05-01T14:59:43.514Z</time></trkpt><trkpt lat="43.5156885" lon="12.54679"><ele>448.0</ele><time>2026-05-01T14:59:44.514Z</time></trkpt><trkpt lat="43.5155583" lon="12.546788"><ele>448.0</ele><time>2026-05-01T14:59:45.514Z</time></trkpt><trkpt lat="43.5154434" lon="12.5466907"><ele>446.75</ele><time>2026-05-01T14:59:46.514Z</time></trkpt><trkpt lat="43.5153616" lon="12.5465434"><ele>445.5</ele><time>2026-05-01T14:59:47.513Z</time></trkpt><trkpt lat="43.5153073" lon="12.5463689"><ele>444.25</ele><time>2026-05-01T14:59:48.514Z</time></trkpt><trkpt lat="43.5152753" lon="12.5461777"><ele>443.0</ele><time>2026-05-01T14:59:49.514Z</time></trkpt><trkpt lat="43.5152553" lon="12.5460063"><ele>442.0</ele><time>2026-05-01T14:59:50.514Z</time></trkpt><trkpt lat="43.5152144" lon="12.5458828"><ele>440.99999999999994</ele><time>2026-05-01T14:59:51.514Z</time></trkpt><trkpt lat="43.5151255" lon="12.5457986"><ele>439.99999999999994</ele><time>2026-05-01T14:59:52.514Z</time></trkpt><trkpt lat="43.5150175" lon="12.545787"><ele>439.0</ele><time>2026-05-01T14:59:53.513Z</time></trkpt><trkpt lat="43.5149126" lon="12.5458543"><ele>438.0</ele><time>2026-05-01T14:59:54.513Z</time></trkpt><trkpt lat="43.5148436" lon="12.5459835"><ele>438.0</ele><time>2026-05-01T14:59:55.514Z</time></trkpt><trkpt lat="43.5148089" lon="12.5461717"><ele>438.0</ele><time>2026-05-01T14:59:56.514Z</time></trkpt><trkpt lat="43.51478" lon="12.5463817"><ele>438.0</ele><time>2026-05-01T14:59:57.514Z</time></trkpt><trkpt lat="43.514715" lon="12.5465483"><ele>438.0</ele><time>2026-05-01T14:59:58.513Z</time></trkpt><trkpt lat="43.5145962" lon="12.5466943"><ele>435.0</ele><time>2026-05-01T14:59:59.514Z</time></trkpt><trkpt lat="43.5144608" lon="12.5468099"><ele>432.0</ele><time>2026-05-01T15:00:00.514Z</time></trkpt><trkpt lat="43.5143064" lon="12.5469108"><ele>429.0</ele><time>2026-05-01T15:00:01.514Z</time></trkpt><trkpt lat="43.5141598" lon="12.547017"><ele>435.0</ele><time>2026-05-01T15:00:02.513Z</time></trkpt><trkpt lat="43.5140189" lon="12.5471219"><ele>441.0</ele><time>2026-05-01T15:00:03.514Z</time></trkpt><trkpt lat="43.5138866" lon="12.5472116"><ele>447.0</ele><time>2026-05-01T15:00:04.514Z</time></trkpt><trkpt lat="43.5137508" lon="12.547313"><ele>441.25</ele><time>2026-05-01T15:00:05.514Z</time></trkpt><trkpt lat="43.5136276" lon="12.5474169"><ele>435.5</ele><time>2026-05-01T15:00:06.513Z</time></trkpt><trkpt lat="43.5135147" lon="12.5475014"><ele>429.75</ele><time>2026-05-01T15:00:07.514Z</time></trkpt><trkpt lat="43.513406" lon="12.5475907"><ele>424.0</ele><time>2026-05-01T15:00:08.513Z</time></trkpt><trkpt lat="43.5132937" lon="12.547673"><ele>424.0</ele><time>2026-05-01T15:00:09.513Z</time></trkpt><trkpt lat="43.5131894" lon="12.5477455"><ele>424.0</ele><time>2026-05-01T15:00:10.514Z</time></trkpt><trkpt lat="43.5130955" lon="12.5478368"><ele>424.0</ele><time>2026-05-01T15:00:11.514Z</time></trkpt><trkpt lat="43.5130239" lon="12.5479492"><ele>424.0</ele><time>2026-05-01T15:00:12.513Z</time></trkpt><trkpt lat="43.5129809" lon="12.5480882"><ele>425.25</ele><time>2026-05-01T15:00:13.514Z</time></trkpt><trkpt lat="43.512968" lon="12.548254"><ele>426.5</ele><time>2026-05-01T15:00:14.514Z</time></trkpt><trkpt lat="43.5129743" lon="12.5484301"><ele>427.75</ele><time>2026-05-01T15:00:15.514Z</time></trkpt><trkpt lat="43.5129785" lon="12.5486164"><ele>429.0</ele><time>2026-05-01T15:00:16.514Z</time></trkpt><trkpt lat="43.512987" lon="12.5487975"><ele>429.0</ele><time>2026-05-01T15:00:17.514Z</time></trkpt><trkpt lat="43.5129998" lon="12.5489787"><ele>429.0</ele><time>2026-05-01T15:00:18.513Z</time></trkpt><trkpt lat="43.5130251" lon="12.549153"><ele>429.0</ele><time>2026-05-01T15:00:19.514Z</time></trkpt><trkpt lat="43.5130744" lon="12.5493361"><ele>429.0</ele><time>2026-05-01T15:00:20.514Z</time></trkpt><trkpt lat="43.5131398" lon="12.5495123"><ele>424.0</ele><time>2026-05-01T15:00:21.514Z</time></trkpt><trkpt lat="43.5132202" lon="12.5496904"><ele>419.0</ele><time>2026-05-01T15:00:22.514Z</time></trkpt><trkpt lat="43.5133129" lon="12.5498749"><ele>414.0</ele><time>2026-05-01T15:00:23.514Z</time></trkpt><trkpt lat="43.5133982" lon="12.5500401"><ele>414.0</ele><time>2026-05-01T15:00:24.513Z</time></trkpt><trkpt lat="43.5134805" lon="12.5502021"><ele>414.0</ele><time>2026-05-01T15:00:25.514Z</time></trkpt><trkpt lat="43.5135608" lon="12.5503685"><ele>414.0</ele><time>2026-05-01T15:00:26.513Z</time></trkpt><trkpt lat="43.5136426" lon="12.5505287"><ele>414.0</ele><time>2026-05-01T15:00:27.514Z</time></trkpt><trkpt lat="43.5137232" lon="12.5506923"><ele>413.75</ele><time>2026-05-01T15:00:28.514Z</time></trkpt><trkpt lat="43.5138051" lon="12.5508521"><ele>413.5</ele><time>2026-05-01T15:00:29.513Z</time></trkpt><trkpt lat="43.5138814" lon="12.5510102"><ele>413.25</ele><time>2026-05-01T15:00:30.514Z</time></trkpt><trkpt lat="43.5139405" lon="12.5511813"><ele>413.0</ele><time>2026-05-01T15:00:31.514Z</time></trkpt><trkpt lat="43.5139653" lon="12.5513727"><ele>412.0</ele><time>2026-05-01T15:00:32.513Z</time></trkpt><trkpt lat="43.5139531" lon="12.5515575"><ele>411.0</ele><time>2026-05-01T15:00:33.513Z</time></trkpt><trkpt lat="43.5138901" lon="12.5517333"><ele>410.0</ele><time>2026-05-01T15:00:34.513Z</time></trkpt><trkpt lat="43.5138081" lon="12.5518992"><ele>409.0</ele><time>2026-05-01T15:00:35.513Z</time></trkpt><trkpt lat="43.5137112" lon="12.5520681"><ele>404.25</ele><time>2026-05-01T15:00:36.513Z</time></trkpt><trkpt lat="43.5136239" lon="12.5522358"><ele>399.5</ele><time>2026-05-01T15:00:37.514Z</time></trkpt><trkpt lat="43.5135427" lon="12.5523973"><ele>394.75</ele><time>2026-05-01T15:00:38.514Z</time></trkpt><trkpt lat="43.5134608" lon="12.5525628"><ele>390.0</ele><time>2026-05-01T15:00:39.514Z</time></trkpt><trkpt lat="43.5133785" lon="12.552726"><ele>389.75</ele><time>2026-05-01T15:00:40.514Z</time></trkpt><trkpt lat="43.5133016" lon="12.552885"><ele>389.5</ele><time>2026-05-01T15:00:41.514Z</time></trkpt><trkpt lat="43.513223" lon="12.5530456"><ele>389.25</ele><time>2026-05-01T15:00:42.513Z</time></trkpt><trkpt lat="43.5131403" lon="12.5532019"><ele>389.0</ele><time>2026-05-01T15:00:43.514Z</time></trkpt><trkpt lat="43.5130618" lon="12.5533574"><ele>389.0</ele><time>2026-05-01T15:00:44.514Z</time></trkpt><trkpt lat="43.5129785" lon="12.5535099"><ele>389.0</ele><time>2026-05-01T15:00:45.513Z</time></trkpt><trkpt lat="43.5129079" lon="12.5536552"><ele>389.0</ele><time>2026-05-01T15:00:46.514Z</time></trkpt><trkpt lat="43.5128424" lon="12.5537941"><ele>389.0</ele><time>2026-05-01T15:00:47.514Z</time></trkpt><trkpt lat="43.5127742" lon="12.5539186"><ele>389.8333333333333</ele><time>2026-05-01T15:00:48.514Z</time></trkpt><trkpt lat="43.5126891" lon="12.5539799"><ele>390.66666666666663</ele><time>2026-05-01T15:00:49.514Z</time></trkpt><trkpt lat="43.512613" lon="12.5539665"><ele>391.5</ele><time>2026-05-01T15:00:50.513Z</time></trkpt><trkpt lat="43.5125633" lon="12.5539005"><ele>392.33333333333337</ele><time>2026-05-01T15:00:51.513Z</time></trkpt><trkpt lat="43.5125197" lon="12.5537931"><ele>393.1666666666667</ele><time>2026-05-01T15:00:52.514Z</time></trkpt><trkpt lat="43.5124771" lon="12.5536827"><ele>394.0</ele><time>2026-05-01T15:00:53.513Z</time></trkpt><trkpt lat="43.5124338" lon="12.5535606"><ele>394.00000000000006</ele><time>2026-05-01T15:00:54.514Z</time></trkpt><trkpt lat="43.5123911" lon="12.5534647"><ele>394.0</ele><time>2026-05-01T15:00:55.514Z</time></trkpt><trkpt lat="43.5123441" lon="12.5533735"><ele>394.0</ele><time>2026-05-01T15:00:56.514Z</time></trkpt><trkpt lat="43.5122917" lon="12.5533074"><ele>394.0</ele><time>2026-05-01T15:00:57.513Z</time></trkpt><trkpt lat="43.5122243" lon="12.5532581"><ele>394.00000000000006</ele><time>2026-05-01T15:00:58.513Z</time></trkpt><trkpt lat="43.5121484" lon="12.55323"><ele>394.0</ele><time>2026-05-01T15:00:59.514Z</time></trkpt><trkpt lat="43.5120747" lon="12.5532036"><ele>395.2</ele><time>2026-05-01T15:01:00.514Z</time></trkpt><trkpt lat="43.5120037" lon="12.5531636"><ele>396.4</ele><time>2026-05-01T15:01:01.513Z</time></trkpt><trkpt lat="43.5119308" lon="12.5530932"><ele>397.6</ele><time>2026-05-01T15:01:02.514Z</time></trkpt><trkpt lat="43.5118534" lon="12.5529658"><ele>398.8</ele><time>2026-05-01T15:01:03.513Z</time></trkpt><trkpt lat="43.5117822" lon="12.5528037"><ele>400.0</ele><time>2026-05-01T15:01:04.514Z</time></trkpt><trkpt lat="43.5117091" lon="12.5526249"><ele>400.0</ele><time>2026-05-01T15:01:05.514Z</time></trkpt><trkpt lat="43.511639" lon="12.5524448"><ele>400.0</ele><time>2026-05-01T15:01:06.514Z</time></trkpt><trkpt lat="43.5115638" lon="12.5522733"><ele>400.0</ele><time>2026-05-01T15:01:07.514Z</time></trkpt><trkpt lat="43.5114911" lon="12.5521092"><ele>400.0</ele><time>2026-05-01T15:01:08.514Z</time></trkpt><trkpt lat="43.5114118" lon="12.5519361"><ele>398.33333333333337</ele><time>2026-05-01T15:01:09.513Z</time></trkpt><trkpt lat="43.5113211" lon="12.5517578"><ele>396.66666666666663</ele><time>2026-05-01T15:01:10.513Z</time></trkpt><trkpt lat="43.5112295" lon="12.5515874"><ele>395.0</ele><time>2026-05-01T15:01:11.514Z</time></trkpt><trkpt lat="43.5111329" lon="12.5514147"><ele>397.0</ele><time>2026-05-01T15:01:12.514Z</time></trkpt><trkpt lat="43.5110397" lon="12.5512507"><ele>399.0</ele><time>2026-05-01T15:01:13.514Z</time></trkpt><trkpt lat="43.5109488" lon="12.5510816"><ele>401.0</ele><time>2026-05-01T15:01:14.514Z</time></trkpt><trkpt lat="43.5108689" lon="12.550902"><ele>401.0</ele><time>2026-05-01T15:01:15.513Z</time></trkpt><trkpt lat="43.5108001" lon="12.5507178"><ele>401.0</ele><time>2026-05-01T15:01:16.514Z</time></trkpt><trkpt lat="43.5107449" lon="12.5505212"><ele>401.0</ele><time>2026-05-01T15:01:17.514Z</time></trkpt><trkpt lat="43.5106954" lon="12.550321"><ele>400.3333333333333</ele><time>2026-05-01T15:01:18.514Z</time></trkpt><trkpt lat="43.5106398" lon="12.5501151"><ele>399.66666666666663</ele><time>2026-05-01T15:01:19.513Z</time></trkpt><trkpt lat="43.5105774" lon="12.5499038"><ele>399.0</ele><time>2026-05-01T15:01:20.514Z</time></trkpt><trkpt lat="43.510525" lon="12.5496852"><ele>399.33333333333337</ele><time>2026-05-01T15:01:21.514Z</time></trkpt><trkpt lat="43.5104745" lon="12.549454"><ele>399.6666666666667</ele><time>2026-05-01T15:01:22.513Z</time></trkpt><trkpt lat="43.5104234" lon="12.5492159"><ele>400.0</ele><time>2026-05-01T15:01:23.513Z</time></trkpt><trkpt lat="43.5103636" lon="12.5489762"><ele>403.0</ele><time>2026-05-01T15:01:24.514Z</time></trkpt><trkpt lat="43.5103005" lon="12.548737"><ele>406.0</ele><time>2026-05-01T15:01:25.514Z</time></trkpt><trkpt lat="43.5102419" lon="12.548496"><ele>409.0</ele><time>2026-05-01T15:01:26.513Z</time></trkpt><trkpt lat="43.5101858" lon="12.5482602"><ele>409.0</ele><time>2026-05-01T15:01:27.514Z</time></trkpt><trkpt lat="43.510123" lon="12.5480148"><ele>409.0</ele><time>2026-05-01T15:01:28.514Z</time></trkpt><trkpt lat="43.5100651" lon="12.5477816"><ele>409.0</ele><time>2026-05-01T15:01:29.514Z</time></trkpt><trkpt lat="43.5100013" lon="12.5475429"><ele>408.6666666666667</ele><time>2026-05-01T15:01:30.513Z</time></trkpt><trkpt lat="43.5099379" lon="12.547302"><ele>408.33333333333337</ele><time>2026-05-01T15:01:31.513Z</time></trkpt><trkpt lat="43.5098795" lon="12.5470749"><ele>408.0</ele><time>2026-05-01T15:01:32.514Z</time></trkpt><trkpt lat="43.5098263" lon="12.5468534"><ele>406.66666666666663</ele><time>2026-05-01T15:01:33.514Z</time></trkpt><trkpt lat="43.5097694" lon="12.5466347"><ele>405.3333333333333</ele><time>2026-05-01T15:01:34.514Z</time></trkpt><trkpt lat="43.509716" lon="12.5464209"><ele>404.0</ele><time>2026-05-01T15:01:35.514Z</time></trkpt><trkpt lat="43.5096648" lon="12.5461914"><ele>404.0</ele><time>2026-05-01T15:01:36.513Z</time></trkpt><trkpt lat="43.5096181" lon="12.5459642"><ele>404.0</ele><time>2026-05-01T15:01:37.513Z</time></trkpt><trkpt lat="43.5095788" lon="12.5457357"><ele>404.0</ele><time>2026-05-01T15:01:38.513Z</time></trkpt><trkpt lat="43.5095387" lon="12.545507"><ele>410.66666666666663</ele><time>2026-05-01T15:01:39.513Z</time></trkpt><trkpt lat="43.5094976" lon="12.545274"><ele>417.33333333333337</ele><time>2026-05-01T15:01:40.514Z</time></trkpt><trkpt lat="43.5094405" lon="12.5450548"><ele>424.0</ele><time>2026-05-01T15:01:41.513Z</time></trkpt><trkpt lat="43.5093616" lon="12.5448351"><ele>424.0</ele><time>2026-05-01T15:01:42.514Z</time></trkpt><trkpt lat="43.5092726" lon="12.5446371"><ele>424.0</ele><time>2026-05-01T15:01:43.514Z</time></trkpt><trkpt lat="43.5091635" lon="12.5444326"><ele>424.0</ele><time>2026-05-01T15:01:44.514Z</time></trkpt><trkpt lat="43.5090512" lon="12.5442225"><ele>421.33333333333337</ele><time>2026-05-01T15:01:45.513Z</time></trkpt><trkpt lat="43.5089354" lon="12.5440164"><ele>418.66666666666663</ele><time>2026-05-01T15:01:46.514Z</time></trkpt><trkpt lat="43.5088258" lon="12.5438161"><ele>416.0</ele><time>2026-05-01T15:01:47.514Z</time></trkpt><trkpt lat="43.5087224" lon="12.5436095"><ele>416.0</ele><time>2026-05-01T15:01:48.514Z</time></trkpt><trkpt lat="43.5086181" lon="12.5434044"><ele>416.0</ele><time>2026-05-01T15:01:49.513Z</time></trkpt><trkpt lat="43.5085166" lon="12.5432012"><ele>416.0</ele><time>2026-05-01T15:01:50.513Z</time></trkpt><trkpt lat="43.5084153" lon="12.5429931"><ele>413.66666666666663</ele><time>2026-05-01T15:01:51.514Z</time></trkpt><trkpt lat="43.5083087" lon="12.5427836"><ele>411.33333333333337</ele><time>2026-05-01T15:01:52.514Z</time></trkpt><trkpt lat="43.5082054" lon="12.5425763"><ele>409.0</ele><time>2026-05-01T15:01:53.514Z</time></trkpt><trkpt lat="43.5080963" lon="12.5423694"><ele>409.0</ele><time>2026-05-01T15:01:54.514Z</time></trkpt><trkpt lat="43.5079876" lon="12.5421627"><ele>409.0</ele><time>2026-05-01T15:01:55.513Z</time></trkpt><trkpt lat="43.507879" lon="12.5419571"><ele>409.0</ele><time>2026-05-01T15:01:56.514Z</time></trkpt><trkpt lat="43.5077713" lon="12.5417512"><ele>411.33333333333337</ele><time>2026-05-01T15:01:57.514Z</time></trkpt><trkpt lat="43.5076643" lon="12.5415506"><ele>413.66666666666663</ele><time>2026-05-01T15:01:58.514Z</time></trkpt><trkpt lat="43.5075556" lon="12.5413543"><ele>416.0</ele><time>2026-05-01T15:01:59.514Z</time></trkpt><trkpt lat="43.5074338" lon="12.5411699"><ele>416.0</ele><time>2026-05-01T15:02:00.514Z</time></trkpt><trkpt lat="43.5073016" lon="12.5409906"><ele>416.0</ele><time>2026-05-01T15:02:01.513Z</time></trkpt><trkpt lat="43.5071718" lon="12.5408041"><ele>416.0</ele><time>2026-05-01T15:02:02.513Z</time></trkpt><trkpt lat="43.5070398" lon="12.5406182"><ele>417.0</ele><time>2026-05-01T15:02:03.513Z</time></trkpt><trkpt lat="43.5069054" lon="12.5404201"><ele>418.0</ele><time>2026-05-01T15:02:04.514Z</time></trkpt><trkpt lat="43.5067636" lon="12.5402243"><ele>419.0</ele><time>2026-05-01T15:02:05.513Z</time></trkpt><trkpt lat="43.5066332" lon="12.5400402"><ele>419.0</ele><time>2026-05-01T15:02:06.514Z</time></trkpt><trkpt lat="43.5065119" lon="12.5398687"><ele>419.0</ele><time>2026-05-01T15:02:07.513Z</time></trkpt><trkpt lat="43.506399" lon="12.539709"><ele>419.0</ele><time>2026-05-01T15:02:08.514Z</time></trkpt><trkpt lat="43.5062896" lon="12.5395474"><ele>423.3333333333333</ele><time>2026-05-01T15:02:09.513Z</time></trkpt><trkpt lat="43.5061993" lon="12.5393571"><ele>427.66666666666663</ele><time>2026-05-01T15:02:10.514Z</time></trkpt><trkpt lat="43.506127" lon="12.5391476"><ele>432.0</ele><time>2026-05-01T15:02:11.514Z</time></trkpt><trkpt lat="43.5060706" lon="12.5389111"><ele>430.66666666666663</ele><time>2026-05-01T15:02:12.514Z</time></trkpt><trkpt lat="43.5060283" lon="12.5386712"><ele>429.3333333333333</ele><time>2026-05-01T15:02:13.513Z</time></trkpt><trkpt lat="43.5059833" lon="12.5384281"><ele>428.0</ele><time>2026-05-01T15:02:14.514Z</time></trkpt><trkpt lat="43.5059388" lon="12.5381867"><ele>428.0</ele><time>2026-05-01T15:02:15.513Z</time></trkpt><trkpt lat="43.5058949" lon="12.5379355"><ele>428.0</ele><time>2026-05-01T15:02:16.513Z</time></trkpt><trkpt lat="43.5058551" lon="12.5376923"><ele>428.0</ele><time>2026-05-01T15:02:17.513Z</time></trkpt><trkpt lat="43.50581" lon="12.5374588"><ele>427.3333333333333</ele><time>2026-05-01T15:02:18.513Z</time></trkpt><trkpt lat="43.5057732" lon="12.5372302"><ele>426.66666666666663</ele><time>2026-05-01T15:02:19.514Z</time></trkpt><trkpt lat="43.5057373" lon="12.5369947"><ele>426.0</ele><time>2026-05-01T15:02:20.514Z</time></trkpt><trkpt lat="43.5056994" lon="12.5367631"><ele>426.0</ele><time>2026-05-01T15:02:21.514Z</time></trkpt><trkpt lat="43.5056584" lon="12.5365418"><ele>426.0</ele><time>2026-05-01T15:02:22.514Z</time></trkpt><trkpt lat="43.5056141" lon="12.5363159"><ele>426.0</ele><time>2026-05-01T15:02:23.514Z</time></trkpt><trkpt lat="43.5055657" lon="12.5360975"><ele>425.33333333333337</ele><time>2026-05-01T15:02:24.513Z</time></trkpt><trkpt lat="43.5054922" lon="12.5358899"><ele>424.6666666666667</ele><time>2026-05-01T15:02:25.514Z</time></trkpt><trkpt lat="43.5053935" lon="12.5356984"><ele>424.0</ele><time>2026-05-01T15:02:26.513Z</time></trkpt><trkpt lat="43.5052692" lon="12.5355072"><ele>425.33333333333337</ele><time>2026-05-01T15:02:27.514Z</time></trkpt><trkpt lat="43.5051316" lon="12.5353428"><ele>426.66666666666663</ele><time>2026-05-01T15:02:28.514Z</time></trkpt><trkpt lat="43.5049909" lon="12.5351779"><ele>428.0</ele><time>2026-05-01T15:02:29.514Z</time></trkpt><trkpt lat="43.5048532" lon="12.5350103"><ele>428.0</ele><time>2026-05-01T15:02:30.514Z</time></trkpt><trkpt lat="43.5047274" lon="12.5348483"><ele>428.0</ele><time>2026-05-01T15:02:31.514Z</time></trkpt><trkpt lat="43.5046046" lon="12.5346854"><ele>428.0</ele><time>2026-05-01T15:02:32.514Z</time></trkpt><trkpt lat="43.504481" lon="12.5345261"><ele>428.66666666666663</ele><time>2026-05-01T15:02:33.513Z</time></trkpt><trkpt lat="43.504356" lon="12.5343728"><ele>429.33333333333337</ele><time>2026-05-01T15:02:34.514Z</time></trkpt><trkpt lat="43.5042322" lon="12.5342192"><ele>430.0</ele><time>2026-05-01T15:02:35.513Z</time></trkpt><trkpt lat="43.5041159" lon="12.5340559"><ele>430.0</ele><time>2026-05-01T15:02:36.514Z</time></trkpt><trkpt lat="43.5040041" lon="12.533869"><ele>430.0</ele><time>2026-05-01T15:02:37.514Z</time></trkpt><trkpt lat="43.503895" lon="12.5336754"><ele>430.0</ele><time>2026-05-01T15:02:38.514Z</time></trkpt><trkpt lat="43.5037819" lon="12.5334824"><ele>436.33333333333337</ele><time>2026-05-01T15:02:39.514Z</time></trkpt><trkpt lat="43.5036712" lon="12.5332879"><ele>442.66666666666663</ele><time>2026-05-01T15:02:40.513Z</time></trkpt><trkpt lat="43.5035664" lon="12.5331027"><ele>449.0</ele><time>2026-05-01T15:02:41.514Z</time></trkpt><trkpt lat="43.5034652" lon="12.532924"><ele>446.66666666666663</ele><time>2026-05-01T15:02:42.514Z</time></trkpt><trkpt lat="43.5033753" lon="12.5327349"><ele>444.33333333333337</ele><time>2026-05-01T15:02:43.514Z</time></trkpt><trkpt lat="43.5033169" lon="12.5325375"><ele>442.0</ele><time>2026-05-01T15:02:44.514Z</time></trkpt><trkpt lat="43.5032781" lon="12.5323319"><ele>442.0</ele><time>2026-05-01T15:02:45.514Z</time></trkpt><trkpt lat="43.5032506" lon="12.5321126"><ele>442.0</ele><time>2026-05-01T15:02:46.513Z</time></trkpt><trkpt lat="43.5032274" lon="12.5318868"><ele>442.0</ele><time>2026-05-01T15:02:47.513Z</time></trkpt><trkpt lat="43.5032101" lon="12.531655"><ele>441.33333333333337</ele><time>2026-05-01T15:02:48.514Z</time></trkpt><trkpt lat="43.5031996" lon="12.5314146"><ele>440.66666666666663</ele><time>2026-05-01T15:02:49.514Z</time></trkpt><trkpt lat="43.503187" lon="12.5311695"><ele>440.0</ele><time>2026-05-01T15:02:50.514Z</time></trkpt><trkpt lat="43.5031578" lon="12.5309357"><ele>440.0</ele><time>2026-05-01T15:02:51.513Z</time></trkpt><trkpt lat="43.503098" lon="12.5306991"><ele>440.0</ele><time>2026-05-01T15:02:52.514Z</time></trkpt><trkpt lat="43.5030022" lon="12.5304728"><ele>440.0</ele><time>2026-05-01T15:02:53.513Z</time></trkpt><trkpt lat="43.5028784" lon="12.5302687"><ele>445.0</ele><time>2026-05-01T15:02:54.514Z</time></trkpt><trkpt lat="43.5027472" lon="12.5300771"><ele>450.0</ele><time>2026-05-01T15:02:55.514Z</time></trkpt><trkpt lat="43.5026213" lon="12.529906"><ele>455.0</ele><time>2026-05-01T15:02:56.514Z</time></trkpt><trkpt lat="43.5025073" lon="12.5297436"><ele>455.0</ele><time>2026-05-01T15:02:57.514Z</time></trkpt><trkpt lat="43.5023972" lon="12.5295761"><ele>455.0</ele><time>2026-05-01T15:02:58.514Z</time></trkpt><trkpt lat="43.5022859" lon="12.5294203"><ele>455.0</ele><time>2026-05-01T15:02:59.514Z</time></trkpt><trkpt lat="43.5021816" lon="12.5292684"><ele>452.66666666666663</ele><time>2026-05-01T15:03:00.513Z</time></trkpt><trkpt lat="43.5020998" lon="12.5291042"><ele>450.33333333333337</ele><time>2026-05-01T15:03:01.514Z</time></trkpt><trkpt lat="43.5020414" lon="12.5289126"><ele>448.0</ele><time>2026-05-01T15:03:02.514Z</time></trkpt><trkpt lat="43.5020154" lon="12.528697"><ele>455.0</ele><time>2026-05-01T15:03:03.513Z</time></trkpt><trkpt lat="43.5020059" lon="12.5284707"><ele>462.0</ele><time>2026-05-01T15:03:04.514Z</time></trkpt><trkpt lat="43.5020087" lon="12.5282526"><ele>469.0</ele><time>2026-05-01T15:03:05.513Z</time></trkpt><trkpt lat="43.502017" lon="12.5280351"><ele>470.33333333333337</ele><time>2026-05-01T15:03:06.514Z</time></trkpt><trkpt lat="43.5020229" lon="12.5278246"><ele>471.66666666666663</ele><time>2026-05-01T15:03:07.514Z</time></trkpt><trkpt lat="43.5020261" lon="12.5276014"><ele>473.0</ele><time>2026-05-01T15:03:08.514Z</time></trkpt><trkpt lat="43.5020272" lon="12.527379"><ele>473.0</ele><time>2026-05-01T15:03:09.514Z</time></trkpt><trkpt lat="43.5020296" lon="12.5271539"><ele>473.0</ele><time>2026-05-01T15:03:10.513Z</time></trkpt><trkpt lat="43.5020304" lon="12.5269226"><ele>473.0</ele><time>2026-05-01T15:03:11.514Z</time></trkpt><trkpt lat="43.5020366" lon="12.5266789"><ele>473.3333333333333</ele><time>2026-05-01T15:03:12.514Z</time></trkpt><trkpt lat="43.502036" lon="12.5264354"><ele>473.66666666666663</ele><time>2026-05-01T15:03:13.514Z</time></trkpt><trkpt lat="43.5020367" lon="12.5261908"><ele>474.0</ele><time>2026-05-01T15:03:14.514Z</time></trkpt><trkpt lat="43.5020267" lon="12.525955"><ele>474.0</ele><time>2026-05-01T15:03:15.514Z</time></trkpt><trkpt lat="43.5019895" lon="12.5257128"><ele>474.0</ele><time>2026-05-01T15:03:16.514Z</time></trkpt><trkpt lat="43.5019363" lon="12.5254687"><ele>474.0</ele><time>2026-05-01T15:03:17.513Z</time></trkpt><trkpt lat="43.5018802" lon="12.5252261"><ele>474.0</ele><time>2026-05-01T15:03:18.514Z</time></trkpt><trkpt lat="43.5018292" lon="12.5249725"><ele>474.0</ele><time>2026-05-01T15:03:19.514Z</time></trkpt><trkpt lat="43.5017737" lon="12.5247138"><ele>474.0</ele><time>2026-05-01T15:03:20.514Z</time></trkpt><trkpt lat="43.5017159" lon="12.5244551"><ele>469.66666666666663</ele><time>2026-05-01T15:03:21.513Z</time></trkpt><trkpt lat="43.5016639" lon="12.5241825"><ele>465.3333333333333</ele><time>2026-05-01T15:03:22.514Z</time></trkpt><trkpt lat="43.5016214" lon="12.5238858"><ele>461.0</ele><time>2026-05-01T15:03:23.514Z</time></trkpt><trkpt lat="43.5015931" lon="12.5235824"><ele>460.0</ele><time>2026-05-01T15:03:24.514Z</time></trkpt><trkpt lat="43.5015618" lon="12.5233166"><ele>459.0</ele><time>2026-05-01T15:03:25.513Z</time></trkpt><trkpt lat="43.5015322" lon="12.5230647"><ele>458.0</ele><time>2026-05-01T15:03:26.514Z</time></trkpt><trkpt lat="43.5015034" lon="12.5228332"><ele>457.66666666666663</ele><time>2026-05-01T15:03:27.514Z</time></trkpt><trkpt lat="43.5014795" lon="12.522612"><ele>457.33333333333337</ele><time>2026-05-01T15:03:28.514Z</time></trkpt><trkpt lat="43.5014567" lon="12.5223939"><ele>457.0</ele><time>2026-05-01T15:03:29.513Z</time></trkpt><trkpt lat="43.5014342" lon="12.5221808"><ele>458.33333333333337</ele><time>2026-05-01T15:03:30.514Z</time></trkpt><trkpt lat="43.5014086" lon="12.5219766"><ele>459.66666666666663</ele><time>2026-05-01T15:03:31.513Z</time></trkpt><trkpt lat="43.5013715" lon="12.521774"><ele>461.0</ele><time>2026-05-01T15:03:32.513Z</time></trkpt><trkpt lat="43.5013303" lon="12.5215744"><ele>461.0</ele><time>2026-05-01T15:03:33.513Z</time></trkpt><trkpt lat="43.5012874" lon="12.521368"><ele>461.0</ele><time>2026-05-01T15:03:34.513Z</time></trkpt><trkpt lat="43.5012355" lon="12.5211588"><ele>461.0</ele><time>2026-05-01T15:03:35.514Z</time></trkpt><trkpt lat="43.5011788" lon="12.5209461"><ele>460.0</ele><time>2026-05-01T15:03:36.514Z</time></trkpt><trkpt lat="43.5011001" lon="12.5207285"><ele>459.0</ele><time>2026-05-01T15:03:37.514Z</time></trkpt><trkpt lat="43.5010106" lon="12.520519"><ele>458.0</ele><time>2026-05-01T15:03:38.514Z</time></trkpt><trkpt lat="43.5009157" lon="12.520312"><ele>458.0</ele><time>2026-05-01T15:03:39.514Z</time></trkpt><trkpt lat="43.5008213" lon="12.5201091"><ele>458.0</ele><time>2026-05-01T15:03:40.514Z</time></trkpt><trkpt lat="43.5007293" lon="12.5199012"><ele>458.0</ele><time>2026-05-01T15:03:41.514Z</time></trkpt><trkpt lat="43.5006429" lon="12.5196914"><ele>461.0</ele><time>2026-05-01T15:03:42.513Z</time></trkpt><trkpt lat="43.500554" lon="12.5194864"><ele>464.0</ele><time>2026-05-01T15:03:43.514Z</time></trkpt><trkpt lat="43.5004595" lon="12.5192755"><ele>467.0</ele><time>2026-05-01T15:03:44.514Z</time></trkpt><trkpt lat="43.5003646" lon="12.5190542"><ele>467.0</ele><time>2026-05-01T15:03:45.514Z</time></trkpt><trkpt lat="43.5002725" lon="12.5188307"><ele>467.0</ele><time>2026-05-01T15:03:46.514Z</time></trkpt><trkpt lat="43.5001873" lon="12.5186278"><ele>467.0</ele><time>2026-05-01T15:03:47.513Z</time></trkpt><trkpt lat="43.5001114" lon="12.5184363"><ele>466.66666666666663</ele><time>2026-05-01T15:03:48.513Z</time></trkpt><trkpt lat="43.5000391" lon="12.5182465"><ele>466.33333333333337</ele><time>2026-05-01T15:03:49.514Z</time></trkpt><trkpt lat="43.4999819" lon="12.5180525"><ele>466.0</ele><time>2026-05-01T15:03:50.513Z</time></trkpt><trkpt lat="43.4999327" lon="12.5178418"><ele>468.6666666666667</ele><time>2026-05-01T15:03:51.514Z</time></trkpt><trkpt lat="43.4999" lon="12.5176246"><ele>471.33333333333337</ele><time>2026-05-01T15:03:52.513Z</time></trkpt><trkpt lat="43.4998882" lon="12.5174028"><ele>474.0</ele><time>2026-05-01T15:03:53.513Z</time></trkpt><trkpt lat="43.4998957" lon="12.51718"><ele>475.0</ele><time>2026-05-01T15:03:54.514Z</time></trkpt><trkpt lat="43.4999063" lon="12.5169723"><ele>476.0</ele><time>2026-05-01T15:03:55.514Z</time></trkpt><trkpt lat="43.4999089" lon="12.5167761"><ele>477.0</ele><time>2026-05-01T15:03:56.513Z</time></trkpt><trkpt lat="43.4998989" lon="12.5165854"><ele>478.0</ele><time>2026-05-01T15:03:57.514Z</time></trkpt><trkpt lat="43.4998753" lon="12.5163894"><ele>479.33333333333337</ele><time>2026-05-01T15:03:58.514Z</time></trkpt><trkpt lat="43.499809" lon="12.5162112"><ele>480.66666666666663</ele><time>2026-05-01T15:03:59.514Z</time></trkpt><trkpt lat="43.4997042" lon="12.5160673"><ele>482.0</ele><time>2026-05-01T15:04:00.514Z</time></trkpt><trkpt lat="43.4995669" lon="12.5159371"><ele>478.66666666666663</ele><time>2026-05-01T15:04:01.514Z</time></trkpt><trkpt lat="43.4994144" lon="12.5158106"><ele>475.33333333333337</ele><time>2026-05-01T15:04:02.514Z</time></trkpt><trkpt lat="43.4992547" lon="12.5156838"><ele>472.0</ele><time>2026-05-01T15:04:03.514Z</time></trkpt><trkpt lat="43.4990889" lon="12.5155718"><ele>472.0</ele><time>2026-05-01T15:04:04.513Z</time></trkpt><trkpt lat="43.4989237" lon="12.5154537"><ele>472.0</ele><time>2026-05-01T15:04:05.513Z</time></trkpt><trkpt lat="43.4987737" lon="12.5153451"><ele>472.0</ele><time>2026-05-01T15:04:06.514Z</time></trkpt><trkpt lat="43.4986318" lon="12.5152325"><ele>472.33333333333337</ele><time>2026-05-01T15:04:07.514Z</time></trkpt><trkpt lat="43.4985112" lon="12.5150935"><ele>472.66666666666663</ele><time>2026-05-01T15:04:08.514Z</time></trkpt><trkpt lat="43.4984048" lon="12.5149269"><ele>473.0</ele><time>2026-05-01T15:04:09.514Z</time></trkpt><trkpt lat="43.4983017" lon="12.5147534"><ele>473.0</ele><time>2026-05-01T15:04:10.514Z</time></trkpt><trkpt lat="43.4982137" lon="12.5145879"><ele>473.0</ele><time>2026-05-01T15:04:11.513Z</time></trkpt><trkpt lat="43.4981329" lon="12.5144246"><ele>473.0</ele><time>2026-05-01T15:04:12.514Z</time></trkpt><trkpt lat="43.4980697" lon="12.5142523"><ele>473.0</ele><time>2026-05-01T15:04:13.513Z</time></trkpt><trkpt lat="43.4980303" lon="12.514076"><ele>473.49999999999994</ele><time>2026-05-01T15:04:14.514Z</time></trkpt><trkpt lat="43.4980091" lon="12.5139191"><ele>474.0</ele><time>2026-05-01T15:04:15.513Z</time></trkpt><trkpt lat="43.4979867" lon="12.5138145"><ele>474.5</ele><time>2026-05-01T15:04:16.514Z</time></trkpt><trkpt lat="43.4979841" lon="12.5137261"><ele>475.0</ele><time>2026-05-01T15:04:17.514Z</time></trkpt><trkpt lat="43.4979905" lon="12.5136346"><ele>475.49999999999994</ele><time>2026-05-01T15:04:18.513Z</time></trkpt><trkpt lat="43.4979931" lon="12.5135464"><ele>476.0</ele><time>2026-05-01T15:04:19.513Z</time></trkpt><trkpt lat="43.4979699" lon="12.5134392"><ele>476.3333333333333</ele><time>2026-05-01T15:04:21.514Z</time></trkpt><trkpt lat="43.4979735" lon="12.5133436"><ele>476.66666666666663</ele><time>2026-05-01T15:04:24.514Z</time></trkpt><trkpt lat="43.497971" lon="12.5132484"><ele>477.0</ele><time>2026-05-01T15:04:27.514Z</time></trkpt><trkpt lat="43.4979137" lon="12.5133106"><ele>477.33333333333337</ele><time>2026-05-01T15:04:34.514Z</time></trkpt><trkpt lat="43.4979388" lon="12.5133973"><ele>477.6666666666667</ele><time>2026-05-01T15:04:35.514Z</time></trkpt><trkpt lat="43.497957" lon="12.5135214"><ele>478.0</ele><time>2026-05-01T15:04:36.513Z</time></trkpt><trkpt lat="43.497977" lon="12.5136468"><ele>477.6666666666667</ele><time>2026-05-01T15:04:37.514Z</time></trkpt><trkpt lat="43.4979845" lon="12.513748"><ele>477.33333333333337</ele><time>2026-05-01T15:04:38.514Z</time></trkpt><trkpt lat="43.4979806" lon="12.5138862"><ele>477.0</ele><time>2026-05-01T15:04:40.514Z</time></trkpt><trkpt lat="43.4979252" lon="12.5139291"><ele>476.66666666666663</ele><time>2026-05-01T15:04:44.514Z</time></trkpt><trkpt lat="43.4978664" lon="12.513867"><ele>476.3333333333333</ele><time>2026-05-01T15:04:48.514Z</time></trkpt><trkpt lat="43.4978156" lon="12.5137714"><ele>476.0</ele><time>2026-05-01T15:04:51.514Z</time></trkpt><trkpt lat="43.4977714" lon="12.5137017"><ele>475.99999999999994</ele><time>2026-05-01T15:04:56.514Z</time></trkpt><trkpt lat="43.4977034" lon="12.5137129"><ele>476.0</ele><time>2026-05-01T15:05:34.514Z</time></trkpt><trkpt lat="43.4977866" lon="12.5137389"><ele>476.0</ele><time>2026-05-01T15:11:39.515Z</time></trkpt><trkpt lat="43.4978437" lon="12.5138105"><ele>476.0</ele><time>2026-05-01T15:11:40.515Z</time></trkpt><trkpt lat="43.4978697" lon="12.5139105"><ele>475.99999999999994</ele><time>2026-05-01T15:11:42.515Z</time></trkpt><trkpt lat="43.4979227" lon="12.5140125"><ele>476.0</ele><time>2026-05-01T15:11:44.515Z</time></trkpt><trkpt lat="43.4979508" lon="12.5140936"><ele>475.99999999999994</ele><time>2026-05-01T15:11:47.515Z</time></trkpt><trkpt lat="43.4979901" lon="12.5141636"><ele>476.0</ele><time>2026-05-01T15:13:02.515Z</time></trkpt><trkpt lat="43.4980252" lon="12.5142389"><ele>476.0</ele><time>2026-05-01T15:13:03.515Z</time></trkpt><trkpt lat="43.4980512" lon="12.5143413"><ele>476.0</ele><time>2026-05-01T15:13:04.515Z</time></trkpt><trkpt lat="43.4980762" lon="12.5144479"><ele>475.99999999999994</ele><time>2026-05-01T15:13:05.515Z</time></trkpt><trkpt lat="43.498134" lon="12.5145774"><ele>476.0</ele><time>2026-05-01T15:13:06.515Z</time></trkpt><trkpt lat="43.4982033" lon="12.5147151"><ele>475.25</ele><time>2026-05-01T15:13:07.515Z</time></trkpt><trkpt lat="43.498296" lon="12.5148558"><ele>474.5</ele><time>2026-05-01T15:13:08.514Z</time></trkpt><trkpt lat="43.4983952" lon="12.5150107"><ele>473.75</ele><time>2026-05-01T15:13:09.515Z</time></trkpt><trkpt lat="43.4984979" lon="12.5151619"><ele>473.0</ele><time>2026-05-01T15:13:10.514Z</time></trkpt><trkpt lat="43.4986048" lon="12.515302"><ele>472.66666666666663</ele><time>2026-05-01T15:13:11.515Z</time></trkpt><trkpt lat="43.4987235" lon="12.515432"><ele>472.33333333333337</ele><time>2026-05-01T15:13:12.515Z</time></trkpt><trkpt lat="43.4988638" lon="12.5155442"><ele>472.0</ele><time>2026-05-01T15:13:13.515Z</time></trkpt><trkpt lat="43.4990122" lon="12.5156508"><ele>472.0</ele><time>2026-05-01T15:13:14.515Z</time></trkpt><trkpt lat="43.4991578" lon="12.5157582"><ele>472.0</ele><time>2026-05-01T15:13:15.515Z</time></trkpt><trkpt lat="43.4993012" lon="12.5158633"><ele>472.0</ele><time>2026-05-01T15:13:16.515Z</time></trkpt><trkpt lat="43.4994288" lon="12.5159669"><ele>472.0</ele><time>2026-05-01T15:13:17.514Z</time></trkpt><trkpt lat="43.4995506" lon="12.5160654"><ele>472.0</ele><time>2026-05-01T15:13:18.515Z</time></trkpt><trkpt lat="43.4996769" lon="12.5161652"><ele>472.0</ele><time>2026-05-01T15:13:19.514Z</time></trkpt><trkpt lat="43.4997805" lon="12.5162777"><ele>472.0</ele><time>2026-05-01T15:13:20.514Z</time></trkpt><trkpt lat="43.4998495" lon="12.5164377"><ele>472.6666666666667</ele><time>2026-05-01T15:13:21.514Z</time></trkpt><trkpt lat="43.4998819" lon="12.5166484"><ele>473.33333333333337</ele><time>2026-05-01T15:13:22.514Z</time></trkpt><trkpt lat="43.4998842" lon="12.516881"><ele>474.0</ele><time>2026-05-01T15:13:23.515Z</time></trkpt><trkpt lat="43.4998747" lon="12.5171166"><ele>474.0</ele><time>2026-05-01T15:13:24.515Z</time></trkpt><trkpt lat="43.4998819" lon="12.5173485"><ele>474.0</ele><time>2026-05-01T15:13:25.514Z</time></trkpt><trkpt lat="43.4998832" lon="12.5175579"><ele>474.0</ele><time>2026-05-01T15:13:26.514Z</time></trkpt><trkpt lat="43.499897" lon="12.5177666"><ele>471.33333333333337</ele><time>2026-05-01T15:13:27.515Z</time></trkpt><trkpt lat="43.499938" lon="12.5179687"><ele>468.6666666666667</ele><time>2026-05-01T15:13:28.515Z</time></trkpt><trkpt lat="43.4999942" lon="12.5181685"><ele>466.0</ele><time>2026-05-01T15:13:29.515Z</time></trkpt><trkpt lat="43.5000657" lon="12.5183768"><ele>466.0</ele><time>2026-05-01T15:13:30.515Z</time></trkpt><trkpt lat="43.5001548" lon="12.5185851"><ele>466.0</ele><time>2026-05-01T15:13:31.515Z</time></trkpt><trkpt lat="43.5002416" lon="12.5187889"><ele>466.0</ele><time>2026-05-01T15:13:32.515Z</time></trkpt><trkpt lat="43.5003281" lon="12.5189845"><ele>466.25</ele><time>2026-05-01T15:13:33.515Z</time></trkpt><trkpt lat="43.5004065" lon="12.5191657"><ele>466.5</ele><time>2026-05-01T15:13:34.515Z</time></trkpt><trkpt lat="43.5004854" lon="12.5193363"><ele>466.75</ele><time>2026-05-01T15:13:35.515Z</time></trkpt><trkpt lat="43.5005564" lon="12.5194814"><ele>467.0</ele><time>2026-05-01T15:13:36.515Z</time></trkpt><trkpt lat="43.500617" lon="12.5196121"><ele>465.20000000000005</ele><time>2026-05-01T15:13:37.514Z</time></trkpt><trkpt lat="43.5006661" lon="12.5197222"><ele>463.40000000000003</ele><time>2026-05-01T15:13:38.515Z</time></trkpt><trkpt lat="43.5007248" lon="12.5198559"><ele>461.59999999999997</ele><time>2026-05-01T15:13:40.515Z</time></trkpt><trkpt lat="43.5006704" lon="12.51995"><ele>459.79999999999995</ele><time>2026-05-01T15:13:43.514Z</time></trkpt><trkpt lat="43.5005849" lon="12.519894"><ele>458.0</ele><time>2026-05-01T15:13:45.515Z</time></trkpt><trkpt lat="43.5005325" lon="12.519824"><ele>458.0</ele><time>2026-05-01T15:13:46.515Z</time></trkpt><trkpt lat="43.5004751" lon="12.5197552"><ele>457.99999999999994</ele><time>2026-05-01T15:13:47.515Z</time></trkpt><trkpt lat="43.5003891" lon="12.5196816"><ele>457.99999999999994</ele><time>2026-05-01T15:13:48.514Z</time></trkpt><trkpt lat="43.500277" lon="12.5196044"><ele>458.0</ele><time>2026-05-01T15:13:49.514Z</time></trkpt><trkpt lat="43.500146" lon="12.5195358"><ele>458.0</ele><time>2026-05-01T15:13:50.514Z</time></trkpt><trkpt lat="43.5000031" lon="12.5194595"><ele>461.0</ele><time>2026-05-01T15:13:51.514Z</time></trkpt><trkpt lat="43.4998625" lon="12.5193848"><ele>464.0</ele><time>2026-05-01T15:13:52.515Z</time></trkpt><trkpt lat="43.4997175" lon="12.5193038"><ele>467.0</ele><time>2026-05-01T15:13:53.515Z</time></trkpt><trkpt lat="43.4995786" lon="12.5192408"><ele>473.0</ele><time>2026-05-01T15:13:54.514Z</time></trkpt><trkpt lat="43.4994693" lon="12.5191844"><ele>479.0</ele><time>2026-05-01T15:13:55.514Z</time></trkpt><trkpt lat="43.4993632" lon="12.5191178"><ele>485.0</ele><time>2026-05-01T15:13:56.515Z</time></trkpt><trkpt lat="43.4992735" lon="12.51901"><ele>491.0</ele><time>2026-05-01T15:13:57.514Z</time></trkpt><trkpt lat="43.4991768" lon="12.5188803"><ele>491.0</ele><time>2026-05-01T15:13:58.515Z</time></trkpt><trkpt lat="43.4990785" lon="12.5187482"><ele>491.0</ele><time>2026-05-01T15:13:59.514Z</time></trkpt><trkpt lat="43.4989752" lon="12.5186501"><ele>491.0</ele><time>2026-05-01T15:14:00.514Z</time></trkpt><trkpt lat="43.4988772" lon="12.5185529"><ele>491.0</ele><time>2026-05-01T15:14:01.515Z</time></trkpt><trkpt lat="43.4987935" lon="12.5184298"><ele>490.0</ele><time>2026-05-01T15:14:02.515Z</time></trkpt><trkpt lat="43.4987231" lon="12.5182896"><ele>489.0</ele><time>2026-05-01T15:14:03.515Z</time></trkpt><trkpt lat="43.4986873" lon="12.5181276"><ele>488.0</ele><time>2026-05-01T15:14:04.514Z</time></trkpt><trkpt lat="43.4986726" lon="12.517959"><ele>487.0</ele><time>2026-05-01T15:14:05.515Z</time></trkpt><trkpt lat="43.4986853" lon="12.5177979"><ele>487.0</ele><time>2026-05-01T15:14:06.515Z</time></trkpt><trkpt lat="43.4987143" lon="12.5176126"><ele>487.0</ele><time>2026-05-01T15:14:07.515Z</time></trkpt><trkpt lat="43.4987666" lon="12.5174096"><ele>487.0</ele><time>2026-05-01T15:14:08.515Z</time></trkpt><trkpt lat="43.4988109" lon="12.5172029"><ele>483.5</ele><time>2026-05-01T15:14:09.515Z</time></trkpt><trkpt lat="43.4988529" lon="12.5170169"><ele>480.0</ele><time>2026-05-01T15:14:10.515Z</time></trkpt><trkpt lat="43.4988789" lon="12.5168469"><ele>476.5</ele><time>2026-05-01T15:14:11.514Z</time></trkpt><trkpt lat="43.4988946" lon="12.5166926"><ele>473.0</ele><time>2026-05-01T15:14:12.515Z</time></trkpt><trkpt lat="43.4988806" lon="12.5165508"><ele>473.0</ele><time>2026-05-01T15:14:13.515Z</time></trkpt><trkpt lat="43.4988402" lon="12.5164321"><ele>472.99999999999994</ele><time>2026-05-01T15:14:14.515Z</time></trkpt><trkpt lat="43.498784" lon="12.5163349"><ele>472.99999999999994</ele><time>2026-05-01T15:14:15.515Z</time></trkpt><trkpt lat="43.4986983" lon="12.5162561"><ele>473.0</ele><time>2026-05-01T15:14:16.514Z</time></trkpt><trkpt lat="43.4985969" lon="12.5161877"><ele>473.0</ele><time>2026-05-01T15:14:17.514Z</time></trkpt><trkpt lat="43.4984971" lon="12.5161207"><ele>473.4</ele><time>2026-05-01T15:14:18.515Z</time></trkpt><trkpt lat="43.4984017" lon="12.5160589"><ele>473.79999999999995</ele><time>2026-05-01T15:14:19.515Z</time></trkpt><trkpt lat="43.4983174" lon="12.5160063"><ele>474.2</ele><time>2026-05-01T15:14:20.515Z</time></trkpt><trkpt lat="43.498242" lon="12.5159544"><ele>474.6</ele><time>2026-05-01T15:14:21.515Z</time></trkpt><trkpt lat="43.4981635" lon="12.5159037"><ele>475.0</ele><time>2026-05-01T15:14:22.515Z</time></trkpt><trkpt lat="43.4980901" lon="12.5158492"><ele>475.00000000000006</ele><time>2026-05-01T15:14:23.514Z</time></trkpt><trkpt lat="43.498026" lon="12.515806"><ele>475.0</ele><time>2026-05-01T15:14:24.515Z</time></trkpt><trkpt lat="43.4979619" lon="12.5157442"><ele>475.0</ele><time>2026-05-01T15:14:25.515Z</time></trkpt><trkpt lat="43.497895" lon="12.5156661"><ele>475.0</ele><time>2026-05-01T15:14:26.515Z</time></trkpt><trkpt lat="43.4978343" lon="12.5155925"><ele>475.00000000000006</ele><time>2026-05-01T15:14:27.515Z</time></trkpt><trkpt lat="43.4977661" lon="12.5155159"><ele>475.0</ele><time>2026-05-01T15:14:28.515Z</time></trkpt><trkpt lat="43.4977071" lon="12.5154326"><ele>475.0</ele><time>2026-05-01T15:14:29.515Z</time></trkpt><trkpt lat="43.4976528" lon="12.5153169"><ele>475.0</ele><time>2026-05-01T15:14:30.515Z</time></trkpt><trkpt lat="43.497594" lon="12.515185"><ele>475.0</ele><time>2026-05-01T15:14:31.514Z</time></trkpt><trkpt lat="43.4975388" lon="12.5150493"><ele>475.0</ele><time>2026-05-01T15:14:32.514Z</time></trkpt><trkpt lat="43.497482" lon="12.5149249"><ele>475.0</ele><time>2026-05-01T15:14:33.514Z</time></trkpt><trkpt lat="43.4974101" lon="12.5148079"><ele>475.0</ele><time>2026-05-01T15:14:34.515Z</time></trkpt><trkpt lat="43.4973317" lon="12.5146973"><ele>475.0</ele><time>2026-05-01T15:14:35.515Z</time></trkpt><trkpt lat="43.497254" lon="12.514573"><ele>475.0</ele><time>2026-05-01T15:14:36.515Z</time></trkpt><trkpt lat="43.4971718" lon="12.5144648"><ele>475.0</ele><time>2026-05-01T15:14:37.514Z</time></trkpt><trkpt lat="43.4970956" lon="12.5143715"><ele>475.0</ele><time>2026-05-01T15:14:38.515Z</time></trkpt><trkpt lat="43.4970003" lon="12.5142992"><ele>474.6</ele><time>2026-05-01T15:14:39.515Z</time></trkpt><trkpt lat="43.4968965" lon="12.5142426"><ele>474.2</ele><time>2026-05-01T15:14:40.515Z</time></trkpt><trkpt lat="43.4967977" lon="12.5141902"><ele>473.79999999999995</ele><time>2026-05-01T15:14:41.515Z</time></trkpt><trkpt lat="43.4967213" lon="12.5141203"><ele>473.4</ele><time>2026-05-01T15:14:42.515Z</time></trkpt><trkpt lat="43.4966408" lon="12.5140408"><ele>473.0</ele><time>2026-05-01T15:14:43.515Z</time></trkpt><trkpt lat="43.4965866" lon="12.5139498"><ele>473.0</ele><time>2026-05-01T15:14:44.514Z</time></trkpt><trkpt lat="43.4965303" lon="12.513844"><ele>472.99999999999994</ele><time>2026-05-01T15:14:45.515Z</time></trkpt><trkpt lat="43.4964698" lon="12.513766"><ele>472.99999999999994</ele><time>2026-05-01T15:14:46.515Z</time></trkpt><trkpt lat="43.4963597" lon="12.5137"><ele>473.0</ele><time>2026-05-01T15:14:48.515Z</time></trkpt><trkpt lat="43.4962751" lon="12.5136659"><ele>473.0</ele><time>2026-05-01T15:14:50.515Z</time></trkpt><trkpt lat="43.4962098" lon="12.5136352"><ele>472.3333333333333</ele><time>2026-05-01T15:14:52.515Z</time></trkpt><trkpt lat="43.4961323" lon="12.5136129"><ele>471.66666666666663</ele><time>2026-05-01T15:14:55.515Z</time></trkpt><trkpt lat="43.4960603" lon="12.513615"><ele>471.0</ele><time>2026-05-01T15:14:57.515Z</time></trkpt><trkpt lat="43.4959367" lon="12.5136314"><ele>470.33333333333337</ele><time>2026-05-01T15:14:59.515Z</time></trkpt><trkpt lat="43.4958695" lon="12.5136377"><ele>469.6666666666667</ele><time>2026-05-01T15:15:00.515Z</time></trkpt><trkpt lat="43.4957684" lon="12.5136016"><ele>469.0</ele><time>2026-05-01T15:15:02.515Z</time></trkpt><trkpt lat="43.4957287" lon="12.513473"><ele>469.0</ele><time>2026-05-01T15:15:04.515Z</time></trkpt><trkpt lat="43.495745" lon="12.5133117"><ele>469.0</ele><time>2026-05-01T15:15:06.514Z</time></trkpt><trkpt lat="43.4957483" lon="12.5131967"><ele>469.0</ele><time>2026-05-01T15:15:07.514Z</time></trkpt><trkpt lat="43.495751" lon="12.5130457"><ele>469.0</ele><time>2026-05-01T15:15:08.514Z</time></trkpt><trkpt lat="43.4957561" lon="12.5128837"><ele>469.0</ele><time>2026-05-01T15:15:09.515Z</time></trkpt><trkpt lat="43.495763" lon="12.512727"><ele>468.75</ele><time>2026-05-01T15:15:10.515Z</time></trkpt><trkpt lat="43.4957517" lon="12.5125684"><ele>468.5</ele><time>2026-05-01T15:15:11.515Z</time></trkpt><trkpt lat="43.4957201" lon="12.5124177"><ele>468.25</ele><time>2026-05-01T15:15:12.515Z</time></trkpt><trkpt lat="43.4956722" lon="12.5122374"><ele>468.0</ele><time>2026-05-01T15:15:13.515Z</time></trkpt><trkpt lat="43.4956129" lon="12.5120319"><ele>469.66666666666663</ele><time>2026-05-01T15:15:14.514Z</time></trkpt><trkpt lat="43.4955454" lon="12.5118269"><ele>471.3333333333333</ele><time>2026-05-01T15:15:15.515Z</time></trkpt><trkpt lat="43.4954761" lon="12.5116094"><ele>473.0</ele><time>2026-05-01T15:15:16.515Z</time></trkpt><trkpt lat="43.4954053" lon="12.5113858"><ele>474.66666666666663</ele><time>2026-05-01T15:15:17.515Z</time></trkpt><trkpt lat="43.4953425" lon="12.511158"><ele>476.33333333333337</ele><time>2026-05-01T15:15:18.515Z</time></trkpt><trkpt lat="43.4952884" lon="12.5109536"><ele>478.0</ele><time>2026-05-01T15:15:19.514Z</time></trkpt><trkpt lat="43.4952348" lon="12.5107744"><ele>478.0</ele><time>2026-05-01T15:15:20.515Z</time></trkpt><trkpt lat="43.4951875" lon="12.5106062"><ele>477.99999999999994</ele><time>2026-05-01T15:15:21.515Z</time></trkpt><trkpt lat="43.4951502" lon="12.510458"><ele>477.99999999999994</ele><time>2026-05-01T15:15:22.515Z</time></trkpt><trkpt lat="43.4951081" lon="12.5103363"><ele>478.0</ele><time>2026-05-01T15:15:23.514Z</time></trkpt><trkpt lat="43.4950634" lon="12.5102402"><ele>478.0</ele><time>2026-05-01T15:15:24.515Z</time></trkpt><trkpt lat="43.4950073" lon="12.5101616"><ele>480.0</ele><time>2026-05-01T15:15:25.515Z</time></trkpt><trkpt lat="43.4949283" lon="12.5101159"><ele>481.99999999999994</ele><time>2026-05-01T15:15:26.515Z</time></trkpt><trkpt lat="43.4948217" lon="12.5100811"><ele>483.99999999999994</ele><time>2026-05-01T15:15:27.514Z</time></trkpt><trkpt lat="43.4947057" lon="12.5100674"><ele>486.0</ele><time>2026-05-01T15:15:28.515Z</time></trkpt><trkpt lat="43.494595" lon="12.5100392"><ele>488.0</ele><time>2026-05-01T15:15:29.515Z</time></trkpt><trkpt lat="43.4945081" lon="12.5100163"><ele>487.99999999999994</ele><time>2026-05-01T15:15:30.515Z</time></trkpt><trkpt lat="43.4944473" lon="12.5099834"><ele>488.0</ele><time>2026-05-01T15:15:31.515Z</time></trkpt><trkpt lat="43.4944157" lon="12.5098769"><ele>488.0</ele><time>2026-05-01T15:15:33.515Z</time></trkpt><trkpt lat="43.4944887" lon="12.509808"><ele>488.0</ele><time>2026-05-01T15:15:35.515Z</time></trkpt><trkpt lat="43.4945606" lon="12.5098076"><ele>487.99999999999994</ele><time>2026-05-01T15:15:36.515Z</time></trkpt><trkpt lat="43.4946359" lon="12.5098047"><ele>488.0</ele><time>2026-05-01T15:15:37.515Z</time></trkpt><trkpt lat="43.4947109" lon="12.5097762"><ele>487.99999999999994</ele><time>2026-05-01T15:15:38.515Z</time></trkpt><trkpt lat="43.4947817" lon="12.5097258"><ele>488.0</ele><time>2026-05-01T15:15:39.514Z</time></trkpt><trkpt lat="43.4948352" lon="12.5096468"><ele>488.0</ele><time>2026-05-01T15:15:40.515Z</time></trkpt><trkpt lat="43.4948836" lon="12.5095613"><ele>488.0</ele><time>2026-05-01T15:15:41.514Z</time></trkpt><trkpt lat="43.4949217" lon="12.5094678"><ele>487.99999999999994</ele><time>2026-05-01T15:15:42.514Z</time></trkpt><trkpt lat="43.4949497" lon="12.5093817"><ele>488.0</ele><time>2026-05-01T15:15:43.515Z</time></trkpt><trkpt lat="43.4949482" lon="12.5092572"><ele>490.16666666666663</ele><time>2026-05-01T15:15:45.515Z</time></trkpt><trkpt lat="43.4948575" lon="12.5092508"><ele>492.3333333333333</ele><time>2026-05-01T15:15:47.515Z</time></trkpt><trkpt lat="43.4947942" lon="12.5092964"><ele>494.5</ele><time>2026-05-01T15:15:48.515Z</time></trkpt><trkpt lat="43.4947274" lon="12.5093411"><ele>496.66666666666663</ele><time>2026-05-01T15:15:49.515Z</time></trkpt><trkpt lat="43.4946514" lon="12.5093648"><ele>498.8333333333333</ele><time>2026-05-01T15:15:50.515Z</time></trkpt><trkpt lat="43.4945753" lon="12.5093638"><ele>501.0</ele><time>2026-05-01T15:15:51.515Z</time></trkpt><trkpt lat="43.4944972" lon="12.5093379"><ele>503.6</ele><time>2026-05-01T15:15:52.515Z</time></trkpt><trkpt lat="43.4944155" lon="12.5092985"><ele>506.20000000000005</ele><time>2026-05-01T15:15:53.514Z</time></trkpt><trkpt lat="43.494318" lon="12.5092587"><ele>508.79999999999995</ele><time>2026-05-01T15:15:54.515Z</time></trkpt><trkpt lat="43.4942074" lon="12.5092247"><ele>511.4</ele><time>2026-05-01T15:15:55.514Z</time></trkpt><trkpt lat="43.4941012" lon="12.5091911"><ele>514.0</ele><time>2026-05-01T15:15:56.515Z</time></trkpt><trkpt lat="43.493991" lon="12.5091489"><ele>514.0</ele><time>2026-05-01T15:15:57.515Z</time></trkpt><trkpt lat="43.4938599" lon="12.5091358"><ele>514.0</ele><time>2026-05-01T15:15:58.514Z</time></trkpt><trkpt lat="43.4937354" lon="12.50915"><ele>514.0</ele><time>2026-05-01T15:15:59.515Z</time></trkpt><trkpt lat="43.4936308" lon="12.5091346"><ele>514.0</ele><time>2026-05-01T15:16:00.515Z</time></trkpt><trkpt lat="43.4935283" lon="12.5090823"><ele>513.8</ele><time>2026-05-01T15:16:01.515Z</time></trkpt><trkpt lat="43.4934316" lon="12.5090011"><ele>513.5999999999999</ele><time>2026-05-01T15:16:02.515Z</time></trkpt><trkpt lat="43.4933383" lon="12.5088986"><ele>513.4</ele><time>2026-05-01T15:16:03.515Z</time></trkpt><trkpt lat="43.4932465" lon="12.508822"><ele>513.1999999999999</ele><time>2026-05-01T15:16:04.514Z</time></trkpt><trkpt lat="43.4931635" lon="12.5087669"><ele>513.0</ele><time>2026-05-01T15:16:05.515Z</time></trkpt><trkpt lat="43.4930479" lon="12.5088068"><ele>513.0</ele><time>2026-05-01T15:16:07.515Z</time></trkpt><trkpt lat="43.4929908" lon="12.5088829"><ele>513.0</ele><time>2026-05-01T15:16:08.515Z</time></trkpt><trkpt lat="43.4929341" lon="12.508964"><ele>513.0</ele><time>2026-05-01T15:16:09.515Z</time></trkpt><trkpt lat="43.4928841" lon="12.5090573"><ele>513.0</ele><time>2026-05-01T15:16:10.515Z</time></trkpt><trkpt lat="43.4928096" lon="12.5091872"><ele>513.0</ele><time>2026-05-01T15:16:11.515Z</time></trkpt><trkpt lat="43.4927341" lon="12.509287"><ele>516.1666666666666</ele><time>2026-05-01T15:16:12.515Z</time></trkpt><trkpt lat="43.4926497" lon="12.5093452"><ele>519.3333333333334</ele><time>2026-05-01T15:16:13.515Z</time></trkpt><trkpt lat="43.4925686" lon="12.5093834"><ele>522.5</ele><time>2026-05-01T15:16:14.515Z</time></trkpt><trkpt lat="43.4924969" lon="12.5093816"><ele>525.6666666666667</ele><time>2026-05-01T15:16:15.515Z</time></trkpt><trkpt lat="43.4924029" lon="12.5093635"><ele>528.8333333333334</ele><time>2026-05-01T15:16:16.515Z</time></trkpt><trkpt lat="43.4923107" lon="12.509346"><ele>532.0</ele><time>2026-05-01T15:16:17.515Z</time></trkpt><trkpt lat="43.4922287" lon="12.5092852"><ele>532.0</ele><time>2026-05-01T15:16:18.515Z</time></trkpt><trkpt lat="43.4921613" lon="12.5091928"><ele>532.0</ele><time>2026-05-01T15:16:19.514Z</time></trkpt><trkpt lat="43.492115" lon="12.5090945"><ele>532.0</ele><time>2026-05-01T15:16:20.515Z</time></trkpt><trkpt lat="43.492086" lon="12.5089795"><ele>532.0</ele><time>2026-05-01T15:16:21.514Z</time></trkpt><trkpt lat="43.492061" lon="12.5088408"><ele>532.0</ele><time>2026-05-01T15:16:22.515Z</time></trkpt><trkpt lat="43.4920375" lon="12.5087194"><ele>532.1666666666667</ele><time>2026-05-01T15:16:23.515Z</time></trkpt><trkpt lat="43.4919921" lon="12.5086159"><ele>532.3333333333334</ele><time>2026-05-01T15:16:24.514Z</time></trkpt><trkpt lat="43.4919258" lon="12.5085521"><ele>532.5</ele><time>2026-05-01T15:16:25.515Z</time></trkpt><trkpt lat="43.4918409" lon="12.5085355"><ele>532.6666666666666</ele><time>2026-05-01T15:16:26.515Z</time></trkpt><trkpt lat="43.4917676" lon="12.5085763"><ele>532.8333333333333</ele><time>2026-05-01T15:16:27.515Z</time></trkpt><trkpt lat="43.4917082" lon="12.5086863"><ele>533.0</ele><time>2026-05-01T15:16:28.515Z</time></trkpt><trkpt lat="43.4916437" lon="12.5088158"><ele>533.0</ele><time>2026-05-01T15:16:29.514Z</time></trkpt><trkpt lat="43.4915691" lon="12.5089497"><ele>533.0</ele><time>2026-05-01T15:16:30.515Z</time></trkpt><trkpt lat="43.4915079" lon="12.5090557"><ele>533.0</ele><time>2026-05-01T15:16:31.515Z</time></trkpt><trkpt lat="43.4913885" lon="12.5091028"><ele>533.0</ele><time>2026-05-01T15:16:33.514Z</time></trkpt><trkpt lat="43.4913329" lon="12.5090363"><ele>533.0</ele><time>2026-05-01T15:16:34.514Z</time></trkpt><trkpt lat="43.4913078" lon="12.5089458"><ele>533.0</ele><time>2026-05-01T15:16:35.514Z</time></trkpt><trkpt lat="43.4913051" lon="12.5088355"><ele>533.0</ele><time>2026-05-01T15:16:36.515Z</time></trkpt><trkpt lat="43.4913293" lon="12.5087109"><ele>533.0</ele><time>2026-05-01T15:16:37.515Z</time></trkpt><trkpt lat="43.4913618" lon="12.5085796"><ele>533.0</ele><time>2026-05-01T15:16:38.514Z</time></trkpt><trkpt lat="43.4913973" lon="12.5084071"><ele>533.0</ele><time>2026-05-01T15:16:39.514Z</time></trkpt><trkpt lat="43.4914189" lon="12.5082193"><ele>536.4</ele><time>2026-05-01T15:16:40.515Z</time></trkpt><trkpt lat="43.4914254" lon="12.5080726"><ele>539.8</ele><time>2026-05-01T15:16:41.515Z</time></trkpt><trkpt lat="43.491412" lon="12.5079465"><ele>543.2</ele><time>2026-05-01T15:16:42.515Z</time></trkpt><trkpt lat="43.4913772" lon="12.5078113"><ele>546.6</ele><time>2026-05-01T15:16:43.515Z</time></trkpt><trkpt lat="43.4913188" lon="12.5076999"><ele>550.0</ele><time>2026-05-01T15:16:44.515Z</time></trkpt><trkpt lat="43.4912275" lon="12.5075903"><ele>551.25</ele><time>2026-05-01T15:16:45.515Z</time></trkpt><trkpt lat="43.4911377" lon="12.5074949"><ele>552.5</ele><time>2026-05-01T15:16:46.515Z</time></trkpt><trkpt lat="43.4910369" lon="12.5074113"><ele>553.75</ele><time>2026-05-01T15:16:47.514Z</time></trkpt><trkpt lat="43.4909258" lon="12.5073464"><ele>555.0</ele><time>2026-05-01T15:16:48.514Z</time></trkpt><trkpt lat="43.4908028" lon="12.5072915"><ele>555.0</ele><time>2026-05-01T15:16:49.515Z</time></trkpt><trkpt lat="43.4906915" lon="12.507237"><ele>555.0</ele><time>2026-05-01T15:16:50.514Z</time></trkpt><trkpt lat="43.4905914" lon="12.5071646"><ele>555.0</ele><time>2026-05-01T15:16:51.515Z</time></trkpt><trkpt lat="43.4904947" lon="12.5070659"><ele>555.0</ele><time>2026-05-01T15:16:52.515Z</time></trkpt><trkpt lat="43.4903842" lon="12.506953"><ele>557.75</ele><time>2026-05-01T15:16:53.515Z</time></trkpt><trkpt lat="43.4902612" lon="12.5068469"><ele>560.5</ele><time>2026-05-01T15:16:54.514Z</time></trkpt><trkpt lat="43.4901409" lon="12.5067366"><ele>563.25</ele><time>2026-05-01T15:16:55.515Z</time></trkpt><trkpt lat="43.4900167" lon="12.5066253"><ele>566.0</ele><time>2026-05-01T15:16:56.515Z</time></trkpt><trkpt lat="43.4899127" lon="12.5065319"><ele>566.0</ele><time>2026-05-01T15:16:57.515Z</time></trkpt><trkpt lat="43.4898193" lon="12.5064665"><ele>566.0</ele><time>2026-05-01T15:16:58.515Z</time></trkpt><trkpt lat="43.4897127" lon="12.5064347"><ele>566.0</ele><time>2026-05-01T15:16:59.515Z</time></trkpt><trkpt lat="43.4895889" lon="12.5064371"><ele>566.0</ele><time>2026-05-01T15:17:00.514Z</time></trkpt><trkpt lat="43.4894641" lon="12.5064271"><ele>567.0</ele><time>2026-05-01T15:17:01.515Z</time></trkpt><trkpt lat="43.4893526" lon="12.5064169"><ele>568.0</ele><time>2026-05-01T15:17:02.514Z</time></trkpt><trkpt lat="43.4892539" lon="12.5064157"><ele>569.0</ele><time>2026-05-01T15:17:03.515Z</time></trkpt><trkpt lat="43.4891738" lon="12.5064733"><ele>570.0</ele><time>2026-05-01T15:17:04.514Z</time></trkpt><trkpt lat="43.4890946" lon="12.5065358"><ele>571.0</ele><time>2026-05-01T15:17:05.515Z</time></trkpt><trkpt lat="43.4890286" lon="12.5066117"><ele>571.0</ele><time>2026-05-01T15:17:06.515Z</time></trkpt><trkpt lat="43.4889656" lon="12.5066725"><ele>571.0</ele><time>2026-05-01T15:17:07.515Z</time></trkpt><trkpt lat="43.4888753" lon="12.5066586"><ele>571.0</ele><time>2026-05-01T15:17:09.515Z</time></trkpt><trkpt lat="43.4888177" lon="12.5065775"><ele>571.0</ele><time>2026-05-01T15:17:11.514Z</time></trkpt><trkpt lat="43.4888027" lon="12.5064646"><ele>571.0</ele><time>2026-05-01T15:17:13.514Z</time></trkpt><trkpt lat="43.4887952" lon="12.5063507"><ele>571.0</ele><time>2026-05-01T15:17:15.515Z</time></trkpt><trkpt lat="43.4887621" lon="12.5062265"><ele>572.8</ele><time>2026-05-01T15:17:17.514Z</time></trkpt><trkpt lat="43.4887093" lon="12.5060826"><ele>574.6</ele><time>2026-05-01T15:17:19.514Z</time></trkpt><trkpt lat="43.4886767" lon="12.5059538"><ele>576.4</ele><time>2026-05-01T15:17:21.515Z</time></trkpt><trkpt lat="43.4886969" lon="12.5058638"><ele>578.2</ele><time>2026-05-01T15:17:23.515Z</time></trkpt><trkpt lat="43.4887789" lon="12.5058367"><ele>580.0</ele><time>2026-05-01T15:17:25.515Z</time></trkpt><trkpt lat="43.4888573" lon="12.5059046"><ele>583.0</ele><time>2026-05-01T15:17:27.515Z</time></trkpt><trkpt lat="43.4889327" lon="12.5060059"><ele>586.0</ele><time>2026-05-01T15:17:29.515Z</time></trkpt><trkpt lat="43.4890181" lon="12.5060528"><ele>589.0</ele><time>2026-05-01T15:17:31.515Z</time></trkpt><trkpt lat="43.4891392" lon="12.5059999"><ele>592.0</ele><time>2026-05-01T15:17:33.515Z</time></trkpt><trkpt lat="43.489207" lon="12.5059473"><ele>595.0</ele><time>2026-05-01T15:17:34.515Z</time></trkpt><trkpt lat="43.4892736" lon="12.505883"><ele>595.0</ele><time>2026-05-01T15:17:35.514Z</time></trkpt><trkpt lat="43.4893491" lon="12.5058423"><ele>595.0</ele><time>2026-05-01T15:17:36.514Z</time></trkpt><trkpt lat="43.4894436" lon="12.5058083"><ele>595.0</ele><time>2026-05-01T15:17:37.515Z</time></trkpt><trkpt lat="43.489578" lon="12.5057932"><ele>595.0</ele><time>2026-05-01T15:17:38.514Z</time></trkpt><trkpt lat="43.4897149" lon="12.5057819"><ele>595.5</ele><time>2026-05-01T15:17:39.514Z</time></trkpt><trkpt lat="43.4898491" lon="12.505767"><ele>596.0</ele><time>2026-05-01T15:17:40.515Z</time></trkpt><trkpt lat="43.4899842" lon="12.505751"><ele>596.5</ele><time>2026-05-01T15:17:41.515Z</time></trkpt><trkpt lat="43.4901092" lon="12.5057319"><ele>597.0</ele><time>2026-05-01T15:17:42.515Z</time></trkpt><trkpt lat="43.4902024" lon="12.5057"><ele>597.0</ele><time>2026-05-01T15:17:43.515Z</time></trkpt><trkpt lat="43.4902703" lon="12.5056713"><ele>597.0</ele><time>2026-05-01T15:17:44.514Z</time></trkpt><trkpt lat="43.4903678" lon="12.5056523"><ele>597.0</ele><time>2026-05-01T15:17:46.514Z</time></trkpt><trkpt lat="43.4904047" lon="12.5055603"><ele>597.0</ele><time>2026-05-01T15:17:49.515Z</time></trkpt><trkpt lat="43.4903327" lon="12.5054985"><ele>597.0</ele><time>2026-05-01T15:18:51.515Z</time></trkpt><trkpt lat="43.4902274" lon="12.5055399"><ele>597.0</ele><time>2026-05-01T15:18:53.515Z</time></trkpt><trkpt lat="43.490152" lon="12.5055824"><ele>597.0</ele><time>2026-05-01T15:18:54.515Z</time></trkpt><trkpt lat="43.4900722" lon="12.5056229"><ele>597.0</ele><time>2026-05-01T15:18:55.515Z</time></trkpt><trkpt lat="43.4899865" lon="12.5056463"><ele>597.0</ele><time>2026-05-01T15:18:56.515Z</time></trkpt><trkpt lat="43.4898914" lon="12.5056564"><ele>597.0</ele><time>2026-05-01T15:18:57.515Z</time></trkpt><trkpt lat="43.4897928" lon="12.5056406"><ele>597.0</ele><time>2026-05-01T15:18:58.514Z</time></trkpt><trkpt lat="43.4896854" lon="12.5056111"><ele>596.6</ele><time>2026-05-01T15:18:59.515Z</time></trkpt><trkpt lat="43.489573" lon="12.5055678"><ele>596.2</ele><time>2026-05-01T15:19:00.514Z</time></trkpt><trkpt lat="43.4894814" lon="12.5055096"><ele>595.8</ele><time>2026-05-01T15:19:01.515Z</time></trkpt><trkpt lat="43.4893973" lon="12.5054237"><ele>595.4</ele><time>2026-05-01T15:19:02.514Z</time></trkpt><trkpt lat="43.4893258" lon="12.5053194"><ele>595.0</ele><time>2026-05-01T15:19:03.514Z</time></trkpt><trkpt lat="43.4892562" lon="12.5051976"><ele>600.25</ele><time>2026-05-01T15:19:04.515Z</time></trkpt><trkpt lat="43.4891808" lon="12.5050621"><ele>605.5</ele><time>2026-05-01T15:19:05.514Z</time></trkpt><trkpt lat="43.4890913" lon="12.5049432"><ele>610.75</ele><time>2026-05-01T15:19:06.514Z</time></trkpt><trkpt lat="43.4889928" lon="12.5048336"><ele>616.0</ele><time>2026-05-01T15:19:07.514Z</time></trkpt><trkpt lat="43.4888912" lon="12.5047409"><ele>616.0</ele><time>2026-05-01T15:19:08.515Z</time></trkpt><trkpt lat="43.4887875" lon="12.5046698"><ele>616.0</ele><time>2026-05-01T15:19:09.515Z</time></trkpt><trkpt lat="43.4886791" lon="12.504618"><ele>616.0</ele><time>2026-05-01T15:19:10.515Z</time></trkpt><trkpt lat="43.4885864" lon="12.5045785"><ele>616.0</ele><time>2026-05-01T15:19:11.514Z</time></trkpt><trkpt lat="43.4885076" lon="12.5045381"><ele>616.0</ele><time>2026-05-01T15:19:12.515Z</time></trkpt><trkpt lat="43.488443" lon="12.5044553"><ele>616.6</ele><time>2026-05-01T15:19:13.514Z</time></trkpt><trkpt lat="43.4883842" lon="12.5043545"><ele>617.2</ele><time>2026-05-01T15:19:14.515Z</time></trkpt><trkpt lat="43.4883428" lon="12.5042247"><ele>617.8</ele><time>2026-05-01T15:19:15.514Z</time></trkpt><trkpt lat="43.4883099" lon="12.5041071"><ele>618.4</ele><time>2026-05-01T15:19:16.514Z</time></trkpt><trkpt lat="43.4882979" lon="12.5039846"><ele>619.0</ele><time>2026-05-01T15:19:17.515Z</time></trkpt><trkpt lat="43.488291" lon="12.5038565"><ele>624.8</ele><time>2026-05-01T15:19:18.515Z</time></trkpt><trkpt lat="43.4882645" lon="12.5037443"><ele>630.5999999999999</ele><time>2026-05-01T15:19:19.515Z</time></trkpt><trkpt lat="43.4882116" lon="12.503644"><ele>636.4</ele><time>2026-05-01T15:19:20.515Z</time></trkpt><trkpt lat="43.4881368" lon="12.5035627"><ele>642.1999999999999</ele><time>2026-05-01T15:19:21.515Z</time></trkpt><trkpt lat="43.4880561" lon="12.5035041"><ele>648.0</ele><time>2026-05-01T15:19:22.515Z</time></trkpt><trkpt lat="43.4879629" lon="12.503473"><ele>643.0</ele><time>2026-05-01T15:19:23.515Z</time></trkpt><trkpt lat="43.4878641" lon="12.5034612"><ele>638.0</ele><time>2026-05-01T15:19:24.514Z</time></trkpt><trkpt lat="43.4877839" lon="12.5034492"><ele>633.0</ele><time>2026-05-01T15:19:25.515Z</time></trkpt><trkpt lat="43.4876841" lon="12.5033637"><ele>628.0</ele><time>2026-05-01T15:19:27.514Z</time></trkpt><trkpt lat="43.4876557" lon="12.5032431"><ele>623.0</ele><time>2026-05-01T15:19:28.515Z</time></trkpt><trkpt lat="43.4876353" lon="12.5031154"><ele>623.0</ele><time>2026-05-01T15:19:29.515Z</time></trkpt><trkpt lat="43.4876217" lon="12.5030014"><ele>623.0</ele><time>2026-05-01T15:19:30.515Z</time></trkpt><trkpt lat="43.4876148" lon="12.5029067"><ele>623.0</ele><time>2026-05-01T15:19:31.515Z</time></trkpt><trkpt lat="43.4875953" lon="12.5028148"><ele>623.0</ele><time>2026-05-01T15:19:32.515Z</time></trkpt><trkpt lat="43.4875463" lon="12.5027038"><ele>623.0</ele><time>2026-05-01T15:19:33.515Z</time></trkpt><trkpt lat="43.4874662" lon="12.5026022"><ele>623.0</ele><time>2026-05-01T15:19:34.515Z</time></trkpt><trkpt lat="43.4873588" lon="12.5025104"><ele>627.5</ele><time>2026-05-01T15:19:35.515Z</time></trkpt><trkpt lat="43.4872349" lon="12.5024495"><ele>632.0</ele><time>2026-05-01T15:19:36.515Z</time></trkpt><trkpt lat="43.4871028" lon="12.5024093"><ele>636.5</ele><time>2026-05-01T15:19:37.515Z</time></trkpt><trkpt lat="43.4869753" lon="12.5023987"><ele>641.0</ele><time>2026-05-01T15:19:38.515Z</time></trkpt><trkpt lat="43.4868564" lon="12.5024072"><ele>641.0</ele><time>2026-05-01T15:19:39.515Z</time></trkpt><trkpt lat="43.4867609" lon="12.5023971"><ele>641.0</ele><time>2026-05-01T15:19:40.515Z</time></trkpt><trkpt lat="43.4866725" lon="12.5023606"><ele>641.0</ele><time>2026-05-01T15:19:41.515Z</time></trkpt><trkpt lat="43.4865819" lon="12.5023221"><ele>641.0</ele><time>2026-05-01T15:19:42.515Z</time></trkpt><trkpt lat="43.4864978" lon="12.5023116"><ele>641.0</ele><time>2026-05-01T15:19:43.514Z</time></trkpt><trkpt lat="43.4864218" lon="12.5023656"><ele>641.0</ele><time>2026-05-01T15:19:44.515Z</time></trkpt><trkpt lat="43.4863384" lon="12.5024357"><ele>641.0</ele><time>2026-05-01T15:19:45.515Z</time></trkpt><trkpt lat="43.4862723" lon="12.5025226"><ele>641.0</ele><time>2026-05-01T15:19:46.514Z</time></trkpt><trkpt lat="43.4861985" lon="12.5026352"><ele>641.0</ele><time>2026-05-01T15:19:47.515Z</time></trkpt><trkpt lat="43.4861241" lon="12.5027388"><ele>641.0</ele><time>2026-05-01T15:19:48.515Z</time></trkpt><trkpt lat="43.4860765" lon="12.5028411"><ele>644.8</ele><time>2026-05-01T15:19:49.515Z</time></trkpt><trkpt lat="43.4860547" lon="12.502953"><ele>648.5999999999999</ele><time>2026-05-01T15:19:50.515Z</time></trkpt><trkpt lat="43.4860418" lon="12.5030813"><ele>652.4</ele><time>2026-05-01T15:19:51.515Z</time></trkpt><trkpt lat="43.4860363" lon="12.5032044"><ele>656.2</ele><time>2026-05-01T15:19:52.515Z</time></trkpt><trkpt lat="43.4860445" lon="12.5033332"><ele>660.0</ele><time>2026-05-01T15:19:53.515Z</time></trkpt><trkpt lat="43.4860649" lon="12.5034559"><ele>660.0</ele><time>2026-05-01T15:19:54.514Z</time></trkpt><trkpt lat="43.4860819" lon="12.5035855"><ele>660.0</ele><time>2026-05-01T15:19:55.515Z</time></trkpt><trkpt lat="43.4860881" lon="12.5037103"><ele>660.0</ele><time>2026-05-01T15:19:56.515Z</time></trkpt><trkpt lat="43.486087" lon="12.5038382"><ele>660.0</ele><time>2026-05-01T15:19:57.515Z</time></trkpt><trkpt lat="43.4860797" lon="12.5039696"><ele>660.0</ele><time>2026-05-01T15:19:58.515Z</time></trkpt><trkpt lat="43.4860687" lon="12.5041084"><ele>659.2</ele><time>2026-05-01T15:19:59.515Z</time></trkpt><trkpt lat="43.4860648" lon="12.5042436"><ele>658.4</ele><time>2026-05-01T15:20:00.515Z</time></trkpt><trkpt lat="43.486059" lon="12.5043823"><ele>657.5999999999999</ele><time>2026-05-01T15:20:01.515Z</time></trkpt><trkpt lat="43.4860571" lon="12.5045224"><ele>656.8</ele><time>2026-05-01T15:20:02.515Z</time></trkpt><trkpt lat="43.4860529" lon="12.5046523"><ele>656.0</ele><time>2026-05-01T15:20:03.515Z</time></trkpt><trkpt lat="43.4860452" lon="12.5047554"><ele>656.0</ele><time>2026-05-01T15:20:04.514Z</time></trkpt><trkpt lat="43.4859573" lon="12.5048488"><ele>656.0</ele><time>2026-05-01T15:20:06.515Z</time></trkpt><trkpt lat="43.4858243" lon="12.5047659"><ele>656.0</ele><time>2026-05-01T15:20:08.515Z</time></trkpt><trkpt lat="43.4857498" lon="12.5046706"><ele>656.0</ele><time>2026-05-01T15:20:09.515Z</time></trkpt><trkpt lat="43.485656" lon="12.5045525"><ele>656.0</ele><time>2026-05-01T15:20:10.515Z</time></trkpt><trkpt lat="43.4855456" lon="12.5044404"><ele>656.0</ele><time>2026-05-01T15:20:11.515Z</time></trkpt><trkpt lat="43.4854386" lon="12.5043309"><ele>656.0</ele><time>2026-05-01T15:20:12.515Z</time></trkpt><trkpt lat="43.4853343" lon="12.5042191"><ele>656.0</ele><time>2026-05-01T15:20:13.514Z</time></trkpt><trkpt lat="43.4852304" lon="12.5041207"><ele>656.5</ele><time>2026-05-01T15:20:14.515Z</time></trkpt><trkpt lat="43.4851151" lon="12.5040348"><ele>657.0</ele><time>2026-05-01T15:20:15.515Z</time></trkpt><trkpt lat="43.4850051" lon="12.5039672"><ele>657.5</ele><time>2026-05-01T15:20:16.514Z</time></trkpt><trkpt lat="43.4848933" lon="12.5039276"><ele>658.0</ele><time>2026-05-01T15:20:17.515Z</time></trkpt><trkpt lat="43.4847759" lon="12.5039103"><ele>658.0</ele><time>2026-05-01T15:20:18.515Z</time></trkpt><trkpt lat="43.4846594" lon="12.5039121"><ele>658.0</ele><time>2026-05-01T15:20:19.515Z</time></trkpt><trkpt lat="43.4845437" lon="12.5039304"><ele>658.0</ele><time>2026-05-01T15:20:20.515Z</time></trkpt><trkpt lat="43.4844516" lon="12.5039754"><ele>658.0</ele><time>2026-05-01T15:20:21.515Z</time></trkpt><trkpt lat="43.4843812" lon="12.5040271"><ele>658.0</ele><time>2026-05-01T15:20:22.515Z</time></trkpt><trkpt lat="43.4843115" lon="12.5040567"><ele>656.6666666666667</ele><time>2026-05-01T15:20:23.515Z</time></trkpt><trkpt lat="43.4842397" lon="12.5040504"><ele>655.3333333333334</ele><time>2026-05-01T15:20:24.514Z</time></trkpt><trkpt lat="43.4841632" lon="12.5040043"><ele>654.0</ele><time>2026-05-01T15:20:25.515Z</time></trkpt><trkpt lat="43.4840974" lon="12.5039339"><ele>652.6666666666666</ele><time>2026-05-01T15:20:26.515Z</time></trkpt><trkpt lat="43.4840464" lon="12.5038283"><ele>651.3333333333333</ele><time>2026-05-01T15:20:27.515Z</time></trkpt><trkpt lat="43.4839875" lon="12.503716"><ele>650.0</ele><time>2026-05-01T15:20:28.515Z</time></trkpt><trkpt lat="43.4839236" lon="12.5035998"><ele>653.0</ele><time>2026-05-01T15:20:29.515Z</time></trkpt><trkpt lat="43.4838469" lon="12.5034898"><ele>656.0</ele><time>2026-05-01T15:20:30.514Z</time></trkpt><trkpt lat="43.4837641" lon="12.5033879"><ele>659.0</ele><time>2026-05-01T15:20:31.515Z</time></trkpt><trkpt lat="43.4836807" lon="12.5032804"><ele>662.0</ele><time>2026-05-01T15:20:32.515Z</time></trkpt><trkpt lat="43.4835918" lon="12.5031782"><ele>662.0</ele><time>2026-05-01T15:20:33.514Z</time></trkpt><trkpt lat="43.4835048" lon="12.5030838"><ele>662.0</ele><time>2026-05-01T15:20:34.514Z</time></trkpt><trkpt lat="43.4834099" lon="12.5029931"><ele>662.0</ele><time>2026-05-01T15:20:35.514Z</time></trkpt><trkpt lat="43.4833191" lon="12.5029193"><ele>662.0</ele><time>2026-05-01T15:20:36.514Z</time></trkpt><trkpt lat="43.483243" lon="12.5028524"><ele>662.0</ele><time>2026-05-01T15:20:37.514Z</time></trkpt><trkpt lat="43.4831692" lon="12.5028225"><ele>662.0</ele><time>2026-05-01T15:20:38.514Z</time></trkpt><trkpt lat="43.4831046" lon="12.502854"><ele>662.0</ele><time>2026-05-01T15:20:39.515Z</time></trkpt><trkpt lat="43.4830284" lon="12.5029174"><ele>662.0</ele><time>2026-05-01T15:20:40.515Z</time></trkpt><trkpt lat="43.4829427" lon="12.5029934"><ele>662.0</ele><time>2026-05-01T15:20:41.514Z</time></trkpt><trkpt lat="43.4828522" lon="12.5030638"><ele>662.0</ele><time>2026-05-01T15:20:42.515Z</time></trkpt><trkpt lat="43.4827724" lon="12.5031094"><ele>661.6666666666666</ele><time>2026-05-01T15:20:43.514Z</time></trkpt><trkpt lat="43.4827032" lon="12.5031498"><ele>661.3333333333333</ele><time>2026-05-01T15:20:44.515Z</time></trkpt><trkpt lat="43.4826259" lon="12.5031503"><ele>661.0</ele><time>2026-05-01T15:20:45.515Z</time></trkpt><trkpt lat="43.4825391" lon="12.5031055"><ele>660.6666666666666</ele><time>2026-05-01T15:20:46.515Z</time></trkpt><trkpt lat="43.4824451" lon="12.5030521"><ele>660.3333333333334</ele><time>2026-05-01T15:20:47.515Z</time></trkpt><trkpt lat="43.4823555" lon="12.5030098"><ele>660.0</ele><time>2026-05-01T15:20:48.514Z</time></trkpt><trkpt lat="43.4822721" lon="12.5029669"><ele>660.0</ele><time>2026-05-01T15:20:49.515Z</time></trkpt><trkpt lat="43.4821942" lon="12.5029214"><ele>660.0</ele><time>2026-05-01T15:20:50.515Z</time></trkpt><trkpt lat="43.4821282" lon="12.5028789"><ele>660.0</ele><time>2026-05-01T15:20:51.515Z</time></trkpt><trkpt lat="43.482056" lon="12.5027924"><ele>660.0</ele><time>2026-05-01T15:20:52.514Z</time></trkpt><trkpt lat="43.4819934" lon="12.5026991"><ele>660.0</ele><time>2026-05-01T15:20:53.515Z</time></trkpt><trkpt lat="43.4819401" lon="12.5026144"><ele>660.0</ele><time>2026-05-01T15:20:54.515Z</time></trkpt><trkpt lat="43.4818842" lon="12.5025469"><ele>662.8</ele><time>2026-05-01T15:20:55.515Z</time></trkpt><trkpt lat="43.4818093" lon="12.5025182"><ele>665.6</ele><time>2026-05-01T15:20:56.515Z</time></trkpt><trkpt lat="43.4817158" lon="12.502506"><ele>668.4000000000001</ele><time>2026-05-01T15:20:57.515Z</time></trkpt><trkpt lat="43.4816159" lon="12.5024954"><ele>671.2</ele><time>2026-05-01T15:20:58.515Z</time></trkpt><trkpt lat="43.4815151" lon="12.5024799"><ele>674.0</ele><time>2026-05-01T15:20:59.514Z</time></trkpt><trkpt lat="43.4814112" lon="12.502457"><ele>674.0</ele><time>2026-05-01T15:21:00.515Z</time></trkpt><trkpt lat="43.4813037" lon="12.5024354"><ele>674.0</ele><time>2026-05-01T15:21:01.514Z</time></trkpt><trkpt lat="43.4812046" lon="12.5024128"><ele>674.0</ele><time>2026-05-01T15:21:02.514Z</time></trkpt><trkpt lat="43.4810937" lon="12.5024085"><ele>674.0</ele><time>2026-05-01T15:21:03.515Z</time></trkpt><trkpt lat="43.4809888" lon="12.5024134"><ele>674.0</ele><time>2026-05-01T15:21:04.515Z</time></trkpt><trkpt lat="43.4808772" lon="12.5024271"><ele>674.4000000000001</ele><time>2026-05-01T15:21:05.515Z</time></trkpt><trkpt lat="43.4807707" lon="12.5024252"><ele>674.8</ele><time>2026-05-01T15:21:06.515Z</time></trkpt><trkpt lat="43.4806628" lon="12.5024129"><ele>675.2</ele><time>2026-05-01T15:21:07.515Z</time></trkpt><trkpt lat="43.4805491" lon="12.5023863"><ele>675.5999999999999</ele><time>2026-05-01T15:21:08.515Z</time></trkpt><trkpt lat="43.4804436" lon="12.5023422"><ele>676.0</ele><time>2026-05-01T15:21:09.515Z</time></trkpt><trkpt lat="43.4803516" lon="12.5022985"><ele>676.0</ele><time>2026-05-01T15:21:10.515Z</time></trkpt><trkpt lat="43.4802773" lon="12.5022407"><ele>676.0</ele><time>2026-05-01T15:21:11.514Z</time></trkpt><trkpt lat="43.4802183" lon="12.5021573"><ele>676.0</ele><time>2026-05-01T15:21:12.515Z</time></trkpt><trkpt lat="43.4801621" lon="12.502047"><ele>676.0</ele><time>2026-05-01T15:21:13.515Z</time></trkpt><trkpt lat="43.4801246" lon="12.5019353"><ele>676.0</ele><time>2026-05-01T15:21:14.515Z</time></trkpt><trkpt lat="43.4800947" lon="12.5017967"><ele>678.3333333333334</ele><time>2026-05-01T15:21:15.515Z</time></trkpt><trkpt lat="43.4800737" lon="12.5016469"><ele>680.6666666666667</ele><time>2026-05-01T15:21:16.515Z</time></trkpt><trkpt lat="43.4800433" lon="12.5015188"><ele>683.0</ele><time>2026-05-01T15:21:17.515Z</time></trkpt><trkpt lat="43.4800108" lon="12.5014047"><ele>685.3333333333334</ele><time>2026-05-01T15:21:18.515Z</time></trkpt><trkpt lat="43.4799866" lon="12.5012933"><ele>687.6666666666666</ele><time>2026-05-01T15:21:19.514Z</time></trkpt><trkpt lat="43.4799695" lon="12.5012059"><ele>690.0</ele><time>2026-05-01T15:21:20.515Z</time></trkpt><trkpt lat="43.4799423" lon="12.5011177"><ele>690.0</ele><time>2026-05-01T15:21:22.515Z</time></trkpt><trkpt lat="43.4799337" lon="12.5009752"><ele>690.0</ele><time>2026-05-01T15:21:44.515Z</time></trkpt><trkpt lat="43.4799494" lon="12.5008778"><ele>690.0</ele><time>2026-05-01T15:21:45.514Z</time></trkpt><trkpt lat="43.4799458" lon="12.5007892"><ele>690.0</ele><time>2026-05-01T15:21:46.515Z</time></trkpt><trkpt lat="43.4799207" lon="12.5006836"><ele>690.0</ele><time>2026-05-01T15:21:47.515Z</time></trkpt><trkpt lat="43.4798842" lon="12.5006099"><ele>690.0</ele><time>2026-05-01T15:21:48.515Z</time></trkpt><trkpt lat="43.479828" lon="12.5005327"><ele>690.0</ele><time>2026-05-01T15:21:49.515Z</time></trkpt><trkpt lat="43.4797826" lon="12.5004635"><ele>690.0</ele><time>2026-05-01T15:21:50.515Z</time></trkpt><trkpt lat="43.4797893" lon="12.500332"><ele>690.0</ele><time>2026-05-01T15:21:52.514Z</time></trkpt><trkpt lat="43.4798574" lon="12.5003043"><ele>690.0</ele><time>2026-05-01T15:21:53.515Z</time></trkpt><trkpt lat="43.4799625" lon="12.5003242"><ele>690.0</ele><time>2026-05-01T15:21:54.515Z</time></trkpt><trkpt lat="43.4800719" lon="12.5003694"><ele>687.0</ele><time>2026-05-01T15:21:55.515Z</time></trkpt><trkpt lat="43.4801669" lon="12.5003926"><ele>684.0</ele><time>2026-05-01T15:21:56.514Z</time></trkpt><trkpt lat="43.4802717" lon="12.5003725"><ele>681.0</ele><time>2026-05-01T15:21:57.515Z</time></trkpt><trkpt lat="43.4803758" lon="12.5003283"><ele>678.0</ele><time>2026-05-01T15:21:58.515Z</time></trkpt><trkpt lat="43.4804829" lon="12.5002279"><ele>675.0</ele><time>2026-05-01T15:21:59.515Z</time></trkpt><trkpt lat="43.4805768" lon="12.5001307"><ele>675.0</ele><time>2026-05-01T15:22:00.515Z</time></trkpt><trkpt lat="43.4806661" lon="12.5000323"><ele>675.0</ele><time>2026-05-01T15:22:01.514Z</time></trkpt><trkpt lat="43.4807475" lon="12.499943"><ele>675.0</ele><time>2026-05-01T15:22:02.515Z</time></trkpt><trkpt lat="43.480809" lon="12.4998573"><ele>675.0</ele><time>2026-05-01T15:22:03.515Z</time></trkpt><trkpt lat="43.4808343" lon="12.4997107"><ele>675.0</ele><time>2026-05-01T15:22:05.515Z</time></trkpt><trkpt lat="43.4807828" lon="12.499639"><ele>675.0</ele><time>2026-05-01T15:22:06.515Z</time></trkpt><trkpt lat="43.4807147" lon="12.4995952"><ele>675.0</ele><time>2026-05-01T15:22:07.515Z</time></trkpt><trkpt lat="43.4806035" lon="12.4996088"><ele>675.0</ele><time>2026-05-01T15:22:08.515Z</time></trkpt><trkpt lat="43.4804779" lon="12.4996273"><ele>675.0</ele><time>2026-05-01T15:22:09.515Z</time></trkpt><trkpt lat="43.4803587" lon="12.4996332"><ele>675.0</ele><time>2026-05-01T15:22:10.515Z</time></trkpt><trkpt lat="43.4802481" lon="12.499617"><ele>669.25</ele><time>2026-05-01T15:22:11.515Z</time></trkpt><trkpt lat="43.4801297" lon="12.499571"><ele>663.5</ele><time>2026-05-01T15:22:12.515Z</time></trkpt><trkpt lat="43.4800076" lon="12.4995107"><ele>657.75</ele><time>2026-05-01T15:22:13.514Z</time></trkpt><trkpt lat="43.4798778" lon="12.4994412"><ele>652.0</ele><time>2026-05-01T15:22:14.514Z</time></trkpt><trkpt lat="43.4797547" lon="12.4993554"><ele>652.0</ele><time>2026-05-01T15:22:15.515Z</time></trkpt><trkpt lat="43.4796284" lon="12.4992627"><ele>652.0</ele><time>2026-05-01T15:22:16.514Z</time></trkpt><trkpt lat="43.4795001" lon="12.499176"><ele>652.0</ele><time>2026-05-01T15:22:17.515Z</time></trkpt><trkpt lat="43.4793823" lon="12.4990963"><ele>652.0</ele><time>2026-05-01T15:22:18.514Z</time></trkpt><trkpt lat="43.4792601" lon="12.4990235"><ele>651.5</ele><time>2026-05-01T15:22:19.515Z</time></trkpt><trkpt lat="43.4791346" lon="12.4989627"><ele>651.0</ele><time>2026-05-01T15:22:20.515Z</time></trkpt><trkpt lat="43.4790091" lon="12.4988933"><ele>650.5</ele><time>2026-05-01T15:22:21.515Z</time></trkpt><trkpt lat="43.4788903" lon="12.4987975"><ele>650.0</ele><time>2026-05-01T15:22:22.514Z</time></trkpt><trkpt lat="43.4787936" lon="12.4986963"><ele>649.2</ele><time>2026-05-01T15:22:23.515Z</time></trkpt><trkpt lat="43.478708" lon="12.4985955"><ele>648.4</ele><time>2026-05-01T15:22:24.515Z</time></trkpt><trkpt lat="43.4786079" lon="12.4985582"><ele>647.5999999999999</ele><time>2026-05-01T15:22:25.515Z</time></trkpt><trkpt lat="43.4785035" lon="12.4985872"><ele>646.8</ele><time>2026-05-01T15:22:26.515Z</time></trkpt><trkpt lat="43.4784111" lon="12.4986594"><ele>646.0</ele><time>2026-05-01T15:22:27.515Z</time></trkpt><trkpt lat="43.4783281" lon="12.4987584"><ele>646.0</ele><time>2026-05-01T15:22:28.514Z</time></trkpt><trkpt lat="43.4782448" lon="12.4988668"><ele>646.0</ele><time>2026-05-01T15:22:29.514Z</time></trkpt><trkpt lat="43.4781445" lon="12.498941"><ele>646.0</ele><time>2026-05-01T15:22:30.515Z</time></trkpt><trkpt lat="43.4780227" lon="12.498946"><ele>646.0</ele><time>2026-05-01T15:22:31.515Z</time></trkpt><trkpt lat="43.4778917" lon="12.4988786"><ele>644.0</ele><time>2026-05-01T15:22:32.515Z</time></trkpt><trkpt lat="43.477767" lon="12.4988161"><ele>642.0</ele><time>2026-05-01T15:22:33.515Z</time></trkpt><trkpt lat="43.4776451" lon="12.4987691"><ele>640.0</ele><time>2026-05-01T15:22:34.515Z</time></trkpt><trkpt lat="43.4775189" lon="12.4987176"><ele>638.0</ele><time>2026-05-01T15:22:35.515Z</time></trkpt><trkpt lat="43.4773797" lon="12.4986664"><ele>636.0</ele><time>2026-05-01T15:22:36.515Z</time></trkpt><trkpt lat="43.477254" lon="12.4986586"><ele>634.0</ele><time>2026-05-01T15:22:37.515Z</time></trkpt><trkpt lat="43.4771354" lon="12.4987071"><ele>632.0</ele><time>2026-05-01T15:22:38.514Z</time></trkpt><trkpt lat="43.4770323" lon="12.498786"><ele>630.0</ele><time>2026-05-01T15:22:39.514Z</time></trkpt><trkpt lat="43.4769854" lon="12.4988999"><ele>630.0</ele><time>2026-05-01T15:22:40.515Z</time></trkpt><trkpt lat="43.4769509" lon="12.4990278"><ele>630.0</ele><time>2026-05-01T15:22:41.515Z</time></trkpt><trkpt lat="43.4769078" lon="12.4991513"><ele>630.0</ele><time>2026-05-01T15:22:42.515Z</time></trkpt><trkpt lat="43.4768515" lon="12.4992497"><ele>630.0</ele><time>2026-05-01T15:22:43.515Z</time></trkpt><trkpt lat="43.4767535" lon="12.4993051"><ele>630.0</ele><time>2026-05-01T15:22:44.515Z</time></trkpt><trkpt lat="43.4766446" lon="12.4993271"><ele>630.0</ele><time>2026-05-01T15:22:45.514Z</time></trkpt><trkpt lat="43.4765515" lon="12.4993483"><ele>630.0</ele><time>2026-05-01T15:22:46.515Z</time></trkpt><trkpt lat="43.4764637" lon="12.4993197"><ele>630.0</ele><time>2026-05-01T15:22:47.514Z</time></trkpt><trkpt lat="43.476385" lon="12.4992396"><ele>630.0</ele><time>2026-05-01T15:22:48.515Z</time></trkpt><trkpt lat="43.4763298" lon="12.4991098"><ele>630.0</ele><time>2026-05-01T15:22:49.515Z</time></trkpt><trkpt lat="43.4762797" lon="12.4989933"><ele>629.4</ele><time>2026-05-01T15:22:50.515Z</time></trkpt><trkpt lat="43.4762138" lon="12.4989309"><ele>628.8</ele><time>2026-05-01T15:22:51.514Z</time></trkpt><trkpt lat="43.476122" lon="12.4988941"><ele>628.2</ele><time>2026-05-01T15:22:52.514Z</time></trkpt><trkpt lat="43.4760079" lon="12.4989268"><ele>627.6</ele><time>2026-05-01T15:22:53.514Z</time></trkpt><trkpt lat="43.4758952" lon="12.4990029"><ele>627.0</ele><time>2026-05-01T15:22:54.515Z</time></trkpt><trkpt lat="43.4757755" lon="12.4990768"><ele>627.0</ele><time>2026-05-01T15:22:55.515Z</time></trkpt><trkpt lat="43.4756562" lon="12.4991537"><ele>627.0</ele><time>2026-05-01T15:22:56.515Z</time></trkpt><trkpt lat="43.4755318" lon="12.4992207"><ele>627.0</ele><time>2026-05-01T15:22:57.515Z</time></trkpt><trkpt lat="43.4754081" lon="12.4992827"><ele>627.0</ele><time>2026-05-01T15:22:58.515Z</time></trkpt><trkpt lat="43.4752833" lon="12.4993449"><ele>625.3333333333334</ele><time>2026-05-01T15:22:59.514Z</time></trkpt><trkpt lat="43.4751438" lon="12.499411"><ele>623.6666666666667</ele><time>2026-05-01T15:23:00.515Z</time></trkpt><trkpt lat="43.4749986" lon="12.4994867"><ele>622.0</ele><time>2026-05-01T15:23:01.514Z</time></trkpt><trkpt lat="43.4748527" lon="12.4995542"><ele>626.5</ele><time>2026-05-01T15:23:02.515Z</time></trkpt><trkpt lat="43.4747178" lon="12.4996211"><ele>631.0</ele><time>2026-05-01T15:23:03.514Z</time></trkpt><trkpt lat="43.4745916" lon="12.4996902"><ele>635.5</ele><time>2026-05-01T15:23:04.515Z</time></trkpt><trkpt lat="43.474478" lon="12.4997552"><ele>640.0</ele><time>2026-05-01T15:23:05.514Z</time></trkpt><trkpt lat="43.4743918" lon="12.4998058"><ele>640.0</ele><time>2026-05-01T15:23:06.515Z</time></trkpt><trkpt lat="43.4743225" lon="12.4998095"><ele>640.0</ele><time>2026-05-01T15:23:07.515Z</time></trkpt><trkpt lat="43.474259" lon="12.49975"><ele>640.0</ele><time>2026-05-01T15:23:08.514Z</time></trkpt><trkpt lat="43.4741919" lon="12.4996319"><ele>640.0</ele><time>2026-05-01T15:23:09.515Z</time></trkpt><trkpt lat="43.474114" lon="12.4994968"><ele>640.0</ele><time>2026-05-01T15:23:10.515Z</time></trkpt><trkpt lat="43.4740406" lon="12.4993481"><ele>639.5</ele><time>2026-05-01T15:23:11.515Z</time></trkpt><trkpt lat="43.4739585" lon="12.499199"><ele>639.0</ele><time>2026-05-01T15:23:12.515Z</time></trkpt><trkpt lat="43.4738624" lon="12.4990446"><ele>638.5</ele><time>2026-05-01T15:23:13.515Z</time></trkpt><trkpt lat="43.473762" lon="12.4988761"><ele>638.0</ele><time>2026-05-01T15:23:14.515Z</time></trkpt><trkpt lat="43.4736556" lon="12.4987248"><ele>633.0</ele><time>2026-05-01T15:23:15.514Z</time></trkpt><trkpt lat="43.4735543" lon="12.4985752"><ele>628.0</ele><time>2026-05-01T15:23:16.515Z</time></trkpt><trkpt lat="43.4734717" lon="12.498438"><ele>623.0</ele><time>2026-05-01T15:23:17.514Z</time></trkpt><trkpt lat="43.4733879" lon="12.4983271"><ele>618.0</ele><time>2026-05-01T15:23:18.515Z</time></trkpt><trkpt lat="43.4732912" lon="12.4982599"><ele>618.0</ele><time>2026-05-01T15:23:19.515Z</time></trkpt><trkpt lat="43.473172" lon="12.4982235"><ele>618.0</ele><time>2026-05-01T15:23:20.515Z</time></trkpt><trkpt lat="43.4730406" lon="12.4982163"><ele>618.0</ele><time>2026-05-01T15:23:21.515Z</time></trkpt><trkpt lat="43.4729009" lon="12.4982496"><ele>618.0</ele><time>2026-05-01T15:23:22.515Z</time></trkpt><trkpt lat="43.4727597" lon="12.4982813"><ele>617.75</ele><time>2026-05-01T15:23:23.514Z</time></trkpt><trkpt lat="43.4726263" lon="12.4983133"><ele>617.5</ele><time>2026-05-01T15:23:24.515Z</time></trkpt><trkpt lat="43.4724988" lon="12.4983436"><ele>617.25</ele><time>2026-05-01T15:23:25.515Z</time></trkpt><trkpt lat="43.4723683" lon="12.4983755"><ele>617.0</ele><time>2026-05-01T15:23:26.515Z</time></trkpt><trkpt lat="43.4722494" lon="12.4984041"><ele>617.0</ele><time>2026-05-01T15:23:27.515Z</time></trkpt><trkpt lat="43.4721381" lon="12.4984406"><ele>617.0</ele><time>2026-05-01T15:23:28.515Z</time></trkpt><trkpt lat="43.472036" lon="12.4984657"><ele>617.0</ele><time>2026-05-01T15:23:29.515Z</time></trkpt><trkpt lat="43.4719495" lon="12.4984714"><ele>617.0</ele><time>2026-05-01T15:23:30.514Z</time></trkpt><trkpt lat="43.4718862" lon="12.4984322"><ele>617.0</ele><time>2026-05-01T15:23:31.515Z</time></trkpt><trkpt lat="43.4718462" lon="12.4983385"><ele>618.0</ele><time>2026-05-01T15:23:32.515Z</time></trkpt><trkpt lat="43.471842" lon="12.4982123"><ele>619.0</ele><time>2026-05-01T15:23:33.514Z</time></trkpt><trkpt lat="43.4718464" lon="12.4980592"><ele>620.0</ele><time>2026-05-01T15:23:34.515Z</time></trkpt><trkpt lat="43.4718322" lon="12.4978952"><ele>621.0</ele><time>2026-05-01T15:23:35.515Z</time></trkpt><trkpt lat="43.4717901" lon="12.4977249"><ele>621.0</ele><time>2026-05-01T15:23:36.515Z</time></trkpt><trkpt lat="43.471733" lon="12.4975646"><ele>621.0</ele><time>2026-05-01T15:23:37.515Z</time></trkpt><trkpt lat="43.4716828" lon="12.4973917"><ele>621.0</ele><time>2026-05-01T15:23:38.515Z</time></trkpt><trkpt lat="43.4716391" lon="12.4972178"><ele>621.0</ele><time>2026-05-01T15:23:39.515Z</time></trkpt><trkpt lat="43.4716036" lon="12.4970653"><ele>620.6</ele><time>2026-05-01T15:23:40.515Z</time></trkpt><trkpt lat="43.4715644" lon="12.4969148"><ele>620.2</ele><time>2026-05-01T15:23:41.514Z</time></trkpt><trkpt lat="43.4715061" lon="12.4967822"><ele>619.8</ele><time>2026-05-01T15:23:42.515Z</time></trkpt><trkpt lat="43.47143" lon="12.4966909"><ele>619.4</ele><time>2026-05-01T15:23:43.515Z</time></trkpt><trkpt lat="43.4713248" lon="12.4966506"><ele>619.0</ele><time>2026-05-01T15:23:44.515Z</time></trkpt><trkpt lat="43.4712177" lon="12.4966783"><ele>619.0</ele><time>2026-05-01T15:23:45.515Z</time></trkpt><trkpt lat="43.4711031" lon="12.4967474"><ele>619.0</ele><time>2026-05-01T15:23:46.515Z</time></trkpt><trkpt lat="43.4709724" lon="12.4968063"><ele>619.0</ele><time>2026-05-01T15:23:47.515Z</time></trkpt><trkpt lat="43.4708277" lon="12.4968651"><ele>619.0</ele><time>2026-05-01T15:23:48.515Z</time></trkpt><trkpt lat="43.4706934" lon="12.4969233"><ele>619.0</ele><time>2026-05-01T15:23:49.515Z</time></trkpt><trkpt lat="43.4705569" lon="12.4969852"><ele>619.0</ele><time>2026-05-01T15:23:50.515Z</time></trkpt><trkpt lat="43.4704254" lon="12.4970446"><ele>619.0</ele><time>2026-05-01T15:23:51.514Z</time></trkpt><trkpt lat="43.4702935" lon="12.4970756"><ele>619.0</ele><time>2026-05-01T15:23:52.515Z</time></trkpt><trkpt lat="43.4701575" lon="12.4970785"><ele>619.0</ele><time>2026-05-01T15:23:53.515Z</time></trkpt><trkpt lat="43.4700284" lon="12.4970437"><ele>619.0</ele><time>2026-05-01T15:23:54.515Z</time></trkpt><trkpt lat="43.469907" lon="12.4969847"><ele>619.0</ele><time>2026-05-01T15:23:55.515Z</time></trkpt><trkpt lat="43.4697888" lon="12.4969275"><ele>619.0</ele><time>2026-05-01T15:23:56.515Z</time></trkpt><trkpt lat="43.469663" lon="12.4968529"><ele>619.0</ele><time>2026-05-01T15:23:57.514Z</time></trkpt><trkpt lat="43.4695551" lon="12.4967584"><ele>619.0</ele><time>2026-05-01T15:23:58.515Z</time></trkpt><trkpt lat="43.4694698" lon="12.4966267"><ele>619.0</ele><time>2026-05-01T15:23:59.514Z</time></trkpt><trkpt lat="43.4693991" lon="12.4964983"><ele>619.0</ele><time>2026-05-01T15:24:00.514Z</time></trkpt><trkpt lat="43.4693384" lon="12.4963658"><ele>619.0</ele><time>2026-05-01T15:24:01.515Z</time></trkpt><trkpt lat="43.4692875" lon="12.496235"><ele>619.0</ele><time>2026-05-01T15:24:02.515Z</time></trkpt><trkpt lat="43.4692432" lon="12.4961054"><ele>619.0</ele><time>2026-05-01T15:24:03.515Z</time></trkpt><trkpt lat="43.4692084" lon="12.4959623"><ele>619.0</ele><time>2026-05-01T15:24:04.515Z</time></trkpt><trkpt lat="43.4691808" lon="12.4958039"><ele>619.0</ele><time>2026-05-01T15:24:05.515Z</time></trkpt><trkpt lat="43.4691454" lon="12.4956567"><ele>619.0</ele><time>2026-05-01T15:24:06.515Z</time></trkpt><trkpt lat="43.4691157" lon="12.4955376"><ele>619.0</ele><time>2026-05-01T15:24:07.515Z</time></trkpt><trkpt lat="43.4691079" lon="12.4954399"><ele>619.0</ele><time>2026-05-01T15:24:08.515Z</time></trkpt><trkpt lat="43.4691594" lon="12.4953547"><ele>619.0</ele><time>2026-05-01T15:24:09.514Z</time></trkpt><trkpt lat="43.4692383" lon="12.495327"><ele>619.0</ele><time>2026-05-01T15:24:10.515Z</time></trkpt><trkpt lat="43.4693321" lon="12.4953426"><ele>619.0</ele><time>2026-05-01T15:24:11.515Z</time></trkpt><trkpt lat="43.4694253" lon="12.495395"><ele>619.0</ele><time>2026-05-01T15:24:12.515Z</time></trkpt><trkpt lat="43.469522" lon="12.4954329"><ele>619.0</ele><time>2026-05-01T15:24:13.514Z</time></trkpt><trkpt lat="43.4696291" lon="12.4954392"><ele>619.0</ele><time>2026-05-01T15:24:14.515Z</time></trkpt><trkpt lat="43.4697498" lon="12.4954273"><ele>619.0</ele><time>2026-05-01T15:24:15.515Z</time></trkpt><trkpt lat="43.4698693" lon="12.4954148"><ele>619.0</ele><time>2026-05-01T15:24:16.515Z</time></trkpt><trkpt lat="43.4699892" lon="12.4953997"><ele>620.2</ele><time>2026-05-01T15:24:17.515Z</time></trkpt><trkpt lat="43.4701025" lon="12.4953841"><ele>621.4</ele><time>2026-05-01T15:24:18.514Z</time></trkpt><trkpt lat="43.4702142" lon="12.4953703"><ele>622.6</ele><time>2026-05-01T15:24:19.514Z</time></trkpt><trkpt lat="43.4703216" lon="12.4953558"><ele>623.8</ele><time>2026-05-01T15:24:20.515Z</time></trkpt><trkpt lat="43.4704155" lon="12.4952945"><ele>625.0</ele><time>2026-05-01T15:24:21.515Z</time></trkpt><trkpt lat="43.4704965" lon="12.4951923"><ele>625.0</ele><time>2026-05-01T15:24:22.515Z</time></trkpt><trkpt lat="43.4705475" lon="12.4950512"><ele>625.0</ele><time>2026-05-01T15:24:23.514Z</time></trkpt><trkpt lat="43.4705931" lon="12.4948987"><ele>625.0</ele><time>2026-05-01T15:24:24.515Z</time></trkpt><trkpt lat="43.4706375" lon="12.4947624"><ele>625.0</ele><time>2026-05-01T15:24:25.515Z</time></trkpt><trkpt lat="43.4706903" lon="12.4946314"><ele>629.0</ele><time>2026-05-01T15:24:26.515Z</time></trkpt><trkpt lat="43.4707645" lon="12.4945302"><ele>633.0</ele><time>2026-05-01T15:24:27.515Z</time></trkpt><trkpt lat="43.4708579" lon="12.4944412"><ele>637.0</ele><time>2026-05-01T15:24:28.514Z</time></trkpt><trkpt lat="43.4709548" lon="12.494349"><ele>641.0</ele><time>2026-05-01T15:24:29.515Z</time></trkpt><trkpt lat="43.4710562" lon="12.494252"><ele>641.0</ele><time>2026-05-01T15:24:30.515Z</time></trkpt><trkpt lat="43.471153" lon="12.4941456"><ele>641.0</ele><time>2026-05-01T15:24:31.514Z</time></trkpt><trkpt lat="43.4712433" lon="12.494038"><ele>641.0</ele><time>2026-05-01T15:24:32.514Z</time></trkpt><trkpt lat="43.4713309" lon="12.493915"><ele>641.0</ele><time>2026-05-01T15:24:33.515Z</time></trkpt><trkpt lat="43.4714114" lon="12.4937666"><ele>642.25</ele><time>2026-05-01T15:24:34.515Z</time></trkpt><trkpt lat="43.471496" lon="12.4936138"><ele>643.5</ele><time>2026-05-01T15:24:35.515Z</time></trkpt><trkpt lat="43.4715787" lon="12.4934695"><ele>644.75</ele><time>2026-05-01T15:24:36.514Z</time></trkpt><trkpt lat="43.47167" lon="12.493352"><ele>646.0</ele><time>2026-05-01T15:24:37.515Z</time></trkpt><trkpt lat="43.4717683" lon="12.4932578"><ele>646.0</ele><time>2026-05-01T15:24:38.515Z</time></trkpt><trkpt lat="43.4718688" lon="12.4931939"><ele>646.0</ele><time>2026-05-01T15:24:39.514Z</time></trkpt><trkpt lat="43.4719793" lon="12.4931765"><ele>646.0</ele><time>2026-05-01T15:24:40.515Z</time></trkpt><trkpt lat="43.4720914" lon="12.4931809"><ele>646.0</ele><time>2026-05-01T15:24:41.514Z</time></trkpt><trkpt lat="43.4721866" lon="12.4931636"><ele>646.0</ele><time>2026-05-01T15:24:42.515Z</time></trkpt><trkpt lat="43.4722456" lon="12.4930922"><ele>646.4</ele><time>2026-05-01T15:24:43.515Z</time></trkpt><trkpt lat="43.4722795" lon="12.4929761"><ele>646.8</ele><time>2026-05-01T15:24:44.514Z</time></trkpt><trkpt lat="43.4722635" lon="12.4928375"><ele>647.1999999999999</ele><time>2026-05-01T15:24:45.515Z</time></trkpt><trkpt lat="43.4722483" lon="12.4926821"><ele>647.5999999999999</ele><time>2026-05-01T15:24:46.515Z</time></trkpt><trkpt lat="43.4722601" lon="12.4925334"><ele>648.0</ele><time>2026-05-01T15:24:47.515Z</time></trkpt><trkpt lat="43.4722925" lon="12.4924011"><ele>648.0</ele><time>2026-05-01T15:24:48.515Z</time></trkpt><trkpt lat="43.4723589" lon="12.4922892"><ele>648.0</ele><time>2026-05-01T15:24:49.515Z</time></trkpt><trkpt lat="43.472452" lon="12.4922208"><ele>648.0</ele><time>2026-05-01T15:24:50.515Z</time></trkpt><trkpt lat="43.4725531" lon="12.4921421"><ele>648.0</ele><time>2026-05-01T15:24:51.515Z</time></trkpt><trkpt lat="43.4726436" lon="12.4920665"><ele>648.0</ele><time>2026-05-01T15:24:52.515Z</time></trkpt><trkpt lat="43.4727211" lon="12.4919826"><ele>649.8</ele><time>2026-05-01T15:24:53.515Z</time></trkpt><trkpt lat="43.4727644" lon="12.4918648"><ele>651.5999999999999</ele><time>2026-05-01T15:24:54.515Z</time></trkpt><trkpt lat="43.4727862" lon="12.4917247"><ele>653.4000000000001</ele><time>2026-05-01T15:24:55.515Z</time></trkpt><trkpt lat="43.4728047" lon="12.4915926"><ele>655.2</ele><time>2026-05-01T15:24:56.514Z</time></trkpt><trkpt lat="43.4728208" lon="12.4914528"><ele>657.0</ele><time>2026-05-01T15:24:57.515Z</time></trkpt><trkpt lat="43.4728334" lon="12.4913145"><ele>659.0</ele><time>2026-05-01T15:24:58.515Z</time></trkpt><trkpt lat="43.4728272" lon="12.4911732"><ele>661.0</ele><time>2026-05-01T15:24:59.515Z</time></trkpt><trkpt lat="43.4727666" lon="12.4910373"><ele>663.0</ele><time>2026-05-01T15:25:00.514Z</time></trkpt><trkpt lat="43.4726889" lon="12.4909242"><ele>665.0</ele><time>2026-05-01T15:25:01.515Z</time></trkpt><trkpt lat="43.4725849" lon="12.4908432"><ele>665.0</ele><time>2026-05-01T15:25:02.515Z</time></trkpt><trkpt lat="43.4724712" lon="12.4907985"><ele>665.0</ele><time>2026-05-01T15:25:03.515Z</time></trkpt><trkpt lat="43.4723527" lon="12.4907916"><ele>665.0</ele><time>2026-05-01T15:25:04.514Z</time></trkpt><trkpt lat="43.47224" lon="12.4908138"><ele>665.0</ele><time>2026-05-01T15:25:05.515Z</time></trkpt><trkpt lat="43.4721238" lon="12.4908429"><ele>670.25</ele><time>2026-05-01T15:25:06.514Z</time></trkpt><trkpt lat="43.4720066" lon="12.4908885"><ele>675.5</ele><time>2026-05-01T15:25:07.515Z</time></trkpt><trkpt lat="43.4718859" lon="12.4909237"><ele>680.75</ele><time>2026-05-01T15:25:08.515Z</time></trkpt><trkpt lat="43.4717599" lon="12.4909458"><ele>686.0</ele><time>2026-05-01T15:25:09.515Z</time></trkpt><trkpt lat="43.4716317" lon="12.4909475"><ele>686.0</ele><time>2026-05-01T15:25:10.514Z</time></trkpt><trkpt lat="43.471502" lon="12.4909553"><ele>686.0</ele><time>2026-05-01T15:25:11.515Z</time></trkpt><trkpt lat="43.4713762" lon="12.4909636"><ele>686.0</ele><time>2026-05-01T15:25:12.515Z</time></trkpt><trkpt lat="43.4712481" lon="12.4909846"><ele>686.0</ele><time>2026-05-01T15:25:13.515Z</time></trkpt><trkpt lat="43.4711259" lon="12.491021"><ele>685.5</ele><time>2026-05-01T15:25:14.515Z</time></trkpt><trkpt lat="43.4710004" lon="12.4910381"><ele>685.0</ele><time>2026-05-01T15:25:15.515Z</time></trkpt><trkpt lat="43.4708577" lon="12.491035"><ele>684.5</ele><time>2026-05-01T15:25:16.515Z</time></trkpt><trkpt lat="43.4707079" lon="12.4910284"><ele>684.0</ele><time>2026-05-01T15:25:17.515Z</time></trkpt><trkpt lat="43.4705504" lon="12.4910103"><ele>684.0</ele><time>2026-05-01T15:25:18.515Z</time></trkpt><trkpt lat="43.4703962" lon="12.49098"><ele>684.0</ele><time>2026-05-01T15:25:19.515Z</time></trkpt><trkpt lat="43.4702375" lon="12.49094"><ele>684.0</ele><time>2026-05-01T15:25:20.515Z</time></trkpt><trkpt lat="43.4700761" lon="12.4908903"><ele>684.0</ele><time>2026-05-01T15:25:21.514Z</time></trkpt><trkpt lat="43.4699207" lon="12.4908295"><ele>684.0</ele><time>2026-05-01T15:25:22.515Z</time></trkpt><trkpt lat="43.4697788" lon="12.4907825"><ele>684.0</ele><time>2026-05-01T15:25:23.515Z</time></trkpt><trkpt lat="43.4696454" lon="12.4907528"><ele>684.0</ele><time>2026-05-01T15:25:24.515Z</time></trkpt><trkpt lat="43.4695236" lon="12.4907295"><ele>683.25</ele><time>2026-05-01T15:25:25.515Z</time></trkpt><trkpt lat="43.4694109" lon="12.49069"><ele>682.5</ele><time>2026-05-01T15:25:26.515Z</time></trkpt><trkpt lat="43.4692984" lon="12.4906301"><ele>681.75</ele><time>2026-05-01T15:25:27.515Z</time></trkpt><trkpt lat="43.4692002" lon="12.4905406"><ele>681.0</ele><time>2026-05-01T15:25:28.514Z</time></trkpt><trkpt lat="43.4691025" lon="12.4904412"><ele>681.75</ele><time>2026-05-01T15:25:29.515Z</time></trkpt><trkpt lat="43.4689818" lon="12.4903874"><ele>682.5</ele><time>2026-05-01T15:25:30.514Z</time></trkpt><trkpt lat="43.4688606" lon="12.4903486"><ele>683.25</ele><time>2026-05-01T15:25:31.515Z</time></trkpt><trkpt lat="43.4687479" lon="12.4903114"><ele>684.0</ele><time>2026-05-01T15:25:32.515Z</time></trkpt><trkpt lat="43.4686395" lon="12.4902638"><ele>684.0</ele><time>2026-05-01T15:25:33.515Z</time></trkpt><trkpt lat="43.4685478" lon="12.4901752"><ele>684.0</ele><time>2026-05-01T15:25:34.515Z</time></trkpt><trkpt lat="43.4684742" lon="12.490045"><ele>684.0</ele><time>2026-05-01T15:25:35.515Z</time></trkpt><trkpt lat="43.4683888" lon="12.4899059"><ele>684.0</ele><time>2026-05-01T15:25:36.514Z</time></trkpt><trkpt lat="43.4682958" lon="12.4897792"><ele>684.0</ele><time>2026-05-01T15:25:37.515Z</time></trkpt><trkpt lat="43.4681994" lon="12.4896714"><ele>684.0</ele><time>2026-05-01T15:25:38.515Z</time></trkpt><trkpt lat="43.4680873" lon="12.4895723"><ele>684.0</ele><time>2026-05-01T15:25:39.515Z</time></trkpt><trkpt lat="43.4679709" lon="12.489478"><ele>684.0</ele><time>2026-05-01T15:25:40.515Z</time></trkpt><trkpt lat="43.4678555" lon="12.4893858"><ele>685.25</ele><time>2026-05-01T15:25:41.515Z</time></trkpt><trkpt lat="43.4677329" lon="12.4892964"><ele>686.5</ele><time>2026-05-01T15:25:42.515Z</time></trkpt><trkpt lat="43.46762" lon="12.4891908"><ele>687.75</ele><time>2026-05-01T15:25:43.515Z</time></trkpt><trkpt lat="43.4675203" lon="12.4890587"><ele>689.0</ele><time>2026-05-01T15:25:44.514Z</time></trkpt><trkpt lat="43.4674261" lon="12.4889096"><ele>692.6666666666666</ele><time>2026-05-01T15:25:45.515Z</time></trkpt><trkpt lat="43.4673315" lon="12.4887543"><ele>696.3333333333334</ele><time>2026-05-01T15:25:46.514Z</time></trkpt><trkpt lat="43.4672275" lon="12.4885837"><ele>700.0</ele><time>2026-05-01T15:25:47.515Z</time></trkpt><trkpt lat="43.4671258" lon="12.4884076"><ele>698.3333333333334</ele><time>2026-05-01T15:25:48.515Z</time></trkpt><trkpt lat="43.467022" lon="12.4882327"><ele>696.6666666666666</ele><time>2026-05-01T15:25:49.515Z</time></trkpt><trkpt lat="43.466915" lon="12.488046"><ele>695.0</ele><time>2026-05-01T15:25:50.515Z</time></trkpt><trkpt lat="43.4668078" lon="12.4878711"><ele>698.3333333333333</ele><time>2026-05-01T15:25:51.514Z</time></trkpt><trkpt lat="43.4666947" lon="12.4876972"><ele>701.6666666666666</ele><time>2026-05-01T15:25:52.514Z</time></trkpt><trkpt lat="43.4665752" lon="12.487508"><ele>705.0</ele><time>2026-05-01T15:25:53.514Z</time></trkpt><trkpt lat="43.4664584" lon="12.487317"><ele>705.0</ele><time>2026-05-01T15:25:54.514Z</time></trkpt><trkpt lat="43.4663423" lon="12.4871172"><ele>705.0</ele><time>2026-05-01T15:25:55.514Z</time></trkpt><trkpt lat="43.4662233" lon="12.4869237"><ele>705.0</ele><time>2026-05-01T15:25:56.515Z</time></trkpt><trkpt lat="43.4661045" lon="12.4867395"><ele>705.0</ele><time>2026-05-01T15:25:57.515Z</time></trkpt><trkpt lat="43.4659989" lon="12.4865774"><ele>705.0</ele><time>2026-05-01T15:25:58.515Z</time></trkpt><trkpt lat="43.4659061" lon="12.4864223"><ele>705.0</ele><time>2026-05-01T15:25:59.515Z</time></trkpt><trkpt lat="43.4658246" lon="12.4862819"><ele>705.0</ele><time>2026-05-01T15:26:00.515Z</time></trkpt><trkpt lat="43.4657764" lon="12.486155"><ele>707.25</ele><time>2026-05-01T15:26:01.515Z</time></trkpt><trkpt lat="43.4657753" lon="12.4860069"><ele>709.5</ele><time>2026-05-01T15:26:02.515Z</time></trkpt><trkpt lat="43.4658013" lon="12.4858394"><ele>711.75</ele><time>2026-05-01T15:26:03.515Z</time></trkpt><trkpt lat="43.4658321" lon="12.4856723"><ele>714.0</ele><time>2026-05-01T15:26:04.515Z</time></trkpt><trkpt lat="43.4658611" lon="12.4855094"><ele>715.2</ele><time>2026-05-01T15:26:05.515Z</time></trkpt><trkpt lat="43.4658665" lon="12.4853578"><ele>716.4000000000001</ele><time>2026-05-01T15:26:06.515Z</time></trkpt><trkpt lat="43.4658544" lon="12.4852261"><ele>717.6</ele><time>2026-05-01T15:26:07.515Z</time></trkpt><trkpt lat="43.4658334" lon="12.4850934"><ele>718.8</ele><time>2026-05-01T15:26:08.514Z</time></trkpt><trkpt lat="43.4658207" lon="12.484965"><ele>720.0</ele><time>2026-05-01T15:26:09.515Z</time></trkpt><trkpt lat="43.4657978" lon="12.4848304"><ele>720.0</ele><time>2026-05-01T15:26:10.515Z</time></trkpt><trkpt lat="43.4657673" lon="12.4846875"><ele>720.0</ele><time>2026-05-01T15:26:11.515Z</time></trkpt><trkpt lat="43.4657191" lon="12.4845498"><ele>720.0</ele><time>2026-05-01T15:26:12.515Z</time></trkpt><trkpt lat="43.4656527" lon="12.4844072"><ele>720.0</ele><time>2026-05-01T15:26:13.514Z</time></trkpt><trkpt lat="43.4655853" lon="12.4842704"><ele>719.25</ele><time>2026-05-01T15:26:14.515Z</time></trkpt><trkpt lat="43.4655037" lon="12.4841268"><ele>718.5</ele><time>2026-05-01T15:26:15.515Z</time></trkpt><trkpt lat="43.4654265" lon="12.483981"><ele>717.75</ele><time>2026-05-01T15:26:16.515Z</time></trkpt><trkpt lat="43.4653537" lon="12.4838374"><ele>717.0</ele><time>2026-05-01T15:26:17.515Z</time></trkpt><trkpt lat="43.465282" lon="12.483691"><ele>719.5</ele><time>2026-05-01T15:26:18.515Z</time></trkpt><trkpt lat="43.4652257" lon="12.4835228"><ele>722.0</ele><time>2026-05-01T15:26:19.515Z</time></trkpt><trkpt lat="43.4651867" lon="12.483342"><ele>724.5</ele><time>2026-05-01T15:26:20.515Z</time></trkpt><trkpt lat="43.4651576" lon="12.4831526"><ele>727.0</ele><time>2026-05-01T15:26:21.515Z</time></trkpt><trkpt lat="43.4651409" lon="12.4829667"><ele>728.75</ele><time>2026-05-01T15:26:22.515Z</time></trkpt><trkpt lat="43.4651414" lon="12.4827809"><ele>730.5</ele><time>2026-05-01T15:26:23.514Z</time></trkpt><trkpt lat="43.4651535" lon="12.4825952"><ele>732.25</ele><time>2026-05-01T15:26:24.515Z</time></trkpt><trkpt lat="43.4651651" lon="12.4824175"><ele>734.0</ele><time>2026-05-01T15:26:25.515Z</time></trkpt><trkpt lat="43.4651843" lon="12.4822505"><ele>735.25</ele><time>2026-05-01T15:26:26.515Z</time></trkpt><trkpt lat="43.4652246" lon="12.4820734"><ele>736.5</ele><time>2026-05-01T15:26:27.514Z</time></trkpt><trkpt lat="43.465264" lon="12.4819132"><ele>737.75</ele><time>2026-05-01T15:26:28.515Z</time></trkpt><trkpt lat="43.465288" lon="12.4817583"><ele>739.0</ele><time>2026-05-01T15:26:29.515Z</time></trkpt><trkpt lat="43.4652715" lon="12.4815926"><ele>739.0</ele><time>2026-05-01T15:26:30.514Z</time></trkpt><trkpt lat="43.465212" lon="12.4813914"><ele>739.0</ele><time>2026-05-01T15:26:31.515Z</time></trkpt><trkpt lat="43.4651499" lon="12.4811991"><ele>739.0</ele><time>2026-05-01T15:26:32.515Z</time></trkpt><trkpt lat="43.4650857" lon="12.4809992"><ele>741.6666666666667</ele><time>2026-05-01T15:26:33.515Z</time></trkpt><trkpt lat="43.4650274" lon="12.4807857"><ele>744.3333333333334</ele><time>2026-05-01T15:26:34.514Z</time></trkpt><trkpt lat="43.4649699" lon="12.480568"><ele>747.0</ele><time>2026-05-01T15:26:35.515Z</time></trkpt><trkpt lat="43.4649281" lon="12.4803532"><ele>748.3333333333334</ele><time>2026-05-01T15:26:36.514Z</time></trkpt><trkpt lat="43.4649038" lon="12.4801223"><ele>749.6666666666667</ele><time>2026-05-01T15:26:37.515Z</time></trkpt><trkpt lat="43.4648967" lon="12.4799019"><ele>751.0</ele><time>2026-05-01T15:26:38.515Z</time></trkpt><trkpt lat="43.4648963" lon="12.4796965"><ele>751.75</ele><time>2026-05-01T15:26:39.516Z</time></trkpt><trkpt lat="43.4648836" lon="12.4795028"><ele>752.5</ele><time>2026-05-01T15:26:40.516Z</time></trkpt><trkpt lat="43.4648436" lon="12.4793014"><ele>753.25</ele><time>2026-05-01T15:26:41.516Z</time></trkpt><trkpt lat="43.4647852" lon="12.4791086"><ele>754.0</ele><time>2026-05-01T15:26:42.516Z</time></trkpt><trkpt lat="43.4647049" lon="12.4789212"><ele>755.3333333333334</ele><time>2026-05-01T15:26:43.516Z</time></trkpt><trkpt lat="43.4646407" lon="12.4787358"><ele>756.6666666666666</ele><time>2026-05-01T15:26:44.516Z</time></trkpt><trkpt lat="43.4646097" lon="12.4785278"><ele>758.0</ele><time>2026-05-01T15:26:45.516Z</time></trkpt><trkpt lat="43.4645872" lon="12.4783159"><ele>758.0</ele><time>2026-05-01T15:26:46.516Z</time></trkpt><trkpt lat="43.4645598" lon="12.4781217"><ele>758.0</ele><time>2026-05-01T15:26:47.516Z</time></trkpt><trkpt lat="43.4645303" lon="12.4779418"><ele>758.0</ele><time>2026-05-01T15:26:48.516Z</time></trkpt><trkpt lat="43.464489" lon="12.4777677"><ele>758.0</ele><time>2026-05-01T15:26:49.516Z</time></trkpt><trkpt lat="43.464461" lon="12.4775975"><ele>759.6666666666666</ele><time>2026-05-01T15:26:50.515Z</time></trkpt><trkpt lat="43.4644386" lon="12.4774104"><ele>761.3333333333334</ele><time>2026-05-01T15:26:51.516Z</time></trkpt><trkpt lat="43.4644132" lon="12.4772"><ele>763.0</ele><time>2026-05-01T15:26:52.516Z</time></trkpt><trkpt lat="43.4643646" lon="12.4769814"><ele>763.0</ele><time>2026-05-01T15:26:53.516Z</time></trkpt><trkpt lat="43.4642914" lon="12.4767633"><ele>763.0</ele><time>2026-05-01T15:26:54.516Z</time></trkpt><trkpt lat="43.4642149" lon="12.4765434"><ele>763.0</ele><time>2026-05-01T15:26:55.516Z</time></trkpt><trkpt lat="43.4641328" lon="12.4763281"><ele>765.6666666666667</ele><time>2026-05-01T15:26:56.516Z</time></trkpt><trkpt lat="43.4640312" lon="12.4761189"><ele>768.3333333333334</ele><time>2026-05-01T15:26:57.516Z</time></trkpt><trkpt lat="43.4639261" lon="12.4759132"><ele>771.0</ele><time>2026-05-01T15:26:58.515Z</time></trkpt><trkpt lat="43.4638356" lon="12.475734"><ele>771.75</ele><time>2026-05-01T15:26:59.515Z</time></trkpt><trkpt lat="43.4637421" lon="12.4755745"><ele>772.5</ele><time>2026-05-01T15:27:00.516Z</time></trkpt><trkpt lat="43.4636421" lon="12.4754202"><ele>773.25</ele><time>2026-05-01T15:27:01.515Z</time></trkpt><trkpt lat="43.4635371" lon="12.4752817"><ele>774.0</ele><time>2026-05-01T15:27:02.515Z</time></trkpt><trkpt lat="43.4634256" lon="12.475151"><ele>774.0</ele><time>2026-05-01T15:27:03.516Z</time></trkpt><trkpt lat="43.4633017" lon="12.4750382"><ele>774.0</ele><time>2026-05-01T15:27:04.516Z</time></trkpt><trkpt lat="43.4631689" lon="12.47498"><ele>774.0</ele><time>2026-05-01T15:27:05.516Z</time></trkpt><trkpt lat="43.4630211" lon="12.4749768"><ele>774.0</ele><time>2026-05-01T15:27:06.516Z</time></trkpt><trkpt lat="43.4628702" lon="12.475025"><ele>775.6</ele><time>2026-05-01T15:27:07.516Z</time></trkpt><trkpt lat="43.4627474" lon="12.4750881"><ele>777.2</ele><time>2026-05-01T15:27:08.515Z</time></trkpt><trkpt lat="43.4626528" lon="12.4751341"><ele>778.8000000000001</ele><time>2026-05-01T15:27:09.516Z</time></trkpt><trkpt lat="43.4625612" lon="12.4751615"><ele>780.4000000000001</ele><time>2026-05-01T15:27:10.516Z</time></trkpt><trkpt lat="43.4624698" lon="12.4751992"><ele>782.0</ele><time>2026-05-01T15:27:11.516Z</time></trkpt><trkpt lat="43.4623868" lon="12.4752328"><ele>782.0000000000001</ele><time>2026-05-01T15:27:12.516Z</time></trkpt><trkpt lat="43.4623037" lon="12.4752192"><ele>782.0</ele><time>2026-05-01T15:27:13.516Z</time></trkpt><trkpt lat="43.4622377" lon="12.475151"><ele>782.0</ele><time>2026-05-01T15:27:14.516Z</time></trkpt><trkpt lat="43.4622115" lon="12.4750619"><ele>782.0</ele><time>2026-05-01T15:27:15.516Z</time></trkpt><trkpt lat="43.4622232" lon="12.4749262"><ele>782.0000000000001</ele><time>2026-05-01T15:27:16.515Z</time></trkpt><trkpt lat="43.4622441" lon="12.4747988"><ele>782.0</ele><time>2026-05-01T15:27:17.516Z</time></trkpt><trkpt lat="43.462287" lon="12.4746594"><ele>782.25</ele><time>2026-05-01T15:27:18.516Z</time></trkpt><trkpt lat="43.4623399" lon="12.4745162"><ele>782.5</ele><time>2026-05-01T15:27:19.516Z</time></trkpt><trkpt lat="43.462388" lon="12.4743684"><ele>782.75</ele><time>2026-05-01T15:27:20.515Z</time></trkpt><trkpt lat="43.4624403" lon="12.4742021"><ele>783.0</ele><time>2026-05-01T15:27:21.515Z</time></trkpt><trkpt lat="43.4624999" lon="12.4740298"><ele>783.0</ele><time>2026-05-01T15:27:22.515Z</time></trkpt><trkpt lat="43.4625532" lon="12.4738452"><ele>783.0</ele><time>2026-05-01T15:27:23.516Z</time></trkpt><trkpt lat="43.4626049" lon="12.4736566"><ele>783.0</ele><time>2026-05-01T15:27:24.516Z</time></trkpt><trkpt lat="43.4626614" lon="12.4734647"><ele>783.0</ele><time>2026-05-01T15:27:25.516Z</time></trkpt><trkpt lat="43.4627198" lon="12.4732766"><ele>782.0</ele><time>2026-05-01T15:27:26.516Z</time></trkpt><trkpt lat="43.4627718" lon="12.4730886"><ele>781.0</ele><time>2026-05-01T15:27:27.516Z</time></trkpt><trkpt lat="43.4628192" lon="12.4728959"><ele>780.0</ele><time>2026-05-01T15:27:28.516Z</time></trkpt><trkpt lat="43.4628716" lon="12.4727142"><ele>779.0</ele><time>2026-05-01T15:27:29.516Z</time></trkpt><trkpt lat="43.4629426" lon="12.4725366"><ele>779.75</ele><time>2026-05-01T15:27:30.516Z</time></trkpt><trkpt lat="43.4630146" lon="12.4723698"><ele>780.5</ele><time>2026-05-01T15:27:31.516Z</time></trkpt><trkpt lat="43.4631113" lon="12.4722225"><ele>781.25</ele><time>2026-05-01T15:27:32.516Z</time></trkpt><trkpt lat="43.4632142" lon="12.4721014"><ele>782.0</ele><time>2026-05-01T15:27:33.515Z</time></trkpt><trkpt lat="43.4633118" lon="12.471987"><ele>780.5</ele><time>2026-05-01T15:27:34.516Z</time></trkpt><trkpt lat="43.4634191" lon="12.4718949"><ele>779.0</ele><time>2026-05-01T15:27:35.516Z</time></trkpt><trkpt lat="43.4635317" lon="12.4718141"><ele>777.5</ele><time>2026-05-01T15:27:36.516Z</time></trkpt><trkpt lat="43.4636386" lon="12.4717149"><ele>776.0</ele><time>2026-05-01T15:27:37.515Z</time></trkpt><trkpt lat="43.463716" lon="12.4715833"><ele>778.75</ele><time>2026-05-01T15:27:38.516Z</time></trkpt><trkpt lat="43.463786" lon="12.4714217"><ele>781.5</ele><time>2026-05-01T15:27:39.516Z</time></trkpt><trkpt lat="43.4638359" lon="12.4712432"><ele>784.25</ele><time>2026-05-01T15:27:40.516Z</time></trkpt><trkpt lat="43.4638786" lon="12.471073"><ele>787.0</ele><time>2026-05-01T15:27:41.516Z</time></trkpt><trkpt lat="43.4639187" lon="12.4709121"><ele>787.0</ele><time>2026-05-01T15:27:42.516Z</time></trkpt><trkpt lat="43.4639486" lon="12.4707417"><ele>787.0</ele><time>2026-05-01T15:27:43.515Z</time></trkpt><trkpt lat="43.4639331" lon="12.4705566"><ele>787.0</ele><time>2026-05-01T15:27:44.516Z</time></trkpt><trkpt lat="43.4638712" lon="12.4703824"><ele>787.0</ele><time>2026-05-01T15:27:45.516Z</time></trkpt><trkpt lat="43.4637915" lon="12.4702298"><ele>782.0</ele><time>2026-05-01T15:27:46.515Z</time></trkpt><trkpt lat="43.4637219" lon="12.4701076"><ele>777.0</ele><time>2026-05-01T15:27:47.516Z</time></trkpt><trkpt lat="43.4636743" lon="12.4699556"><ele>772.0</ele><time>2026-05-01T15:27:48.516Z</time></trkpt><trkpt lat="43.4636635" lon="12.4697816"><ele>767.0</ele><time>2026-05-01T15:27:49.515Z</time></trkpt><trkpt lat="43.4636576" lon="12.4696195"><ele>766.75</ele><time>2026-05-01T15:27:50.516Z</time></trkpt><trkpt lat="43.4636434" lon="12.4694581"><ele>766.5</ele><time>2026-05-01T15:27:51.516Z</time></trkpt><trkpt lat="43.4636261" lon="12.4693052"><ele>766.25</ele><time>2026-05-01T15:27:52.516Z</time></trkpt><trkpt lat="43.4636052" lon="12.4691519"><ele>766.0</ele><time>2026-05-01T15:27:53.516Z</time></trkpt><trkpt lat="43.4636024" lon="12.4690002"><ele>766.0</ele><time>2026-05-01T15:27:54.516Z</time></trkpt><trkpt lat="43.4636094" lon="12.4688501"><ele>766.0</ele><time>2026-05-01T15:27:55.515Z</time></trkpt><trkpt lat="43.4636351" lon="12.4687281"><ele>766.0</ele><time>2026-05-01T15:27:56.515Z</time></trkpt><trkpt lat="43.4636672" lon="12.4686318"><ele>766.0</ele><time>2026-05-01T15:27:57.516Z</time></trkpt><trkpt lat="43.4636782" lon="12.4685134"><ele>766.0</ele><time>2026-05-01T15:27:58.516Z</time></trkpt><trkpt lat="43.4636357" lon="12.4684095"><ele>767.0</ele><time>2026-05-01T15:27:59.516Z</time></trkpt><trkpt lat="43.4635606" lon="12.4683103"><ele>768.0</ele><time>2026-05-01T15:28:00.516Z</time></trkpt><trkpt lat="43.4634653" lon="12.4682323"><ele>769.0</ele><time>2026-05-01T15:28:01.516Z</time></trkpt><trkpt lat="43.4633602" lon="12.4681538"><ele>770.0</ele><time>2026-05-01T15:28:02.516Z</time></trkpt><trkpt lat="43.4632658" lon="12.4680512"><ele>774.0</ele><time>2026-05-01T15:28:03.516Z</time></trkpt><trkpt lat="43.4631944" lon="12.4679208"><ele>778.0</ele><time>2026-05-01T15:28:04.515Z</time></trkpt><trkpt lat="43.4631176" lon="12.4677917"><ele>782.0</ele><time>2026-05-01T15:28:05.515Z</time></trkpt><trkpt lat="43.4630451" lon="12.4676641"><ele>786.0</ele><time>2026-05-01T15:28:06.516Z</time></trkpt><trkpt lat="43.4629686" lon="12.4675268"><ele>784.25</ele><time>2026-05-01T15:28:07.516Z</time></trkpt><trkpt lat="43.4628939" lon="12.4673921"><ele>782.5</ele><time>2026-05-01T15:28:08.516Z</time></trkpt><trkpt lat="43.4628082" lon="12.4672755"><ele>780.75</ele><time>2026-05-01T15:28:09.516Z</time></trkpt><trkpt lat="43.4626953" lon="12.4671683"><ele>779.0</ele><time>2026-05-01T15:28:10.515Z</time></trkpt><trkpt lat="43.4625883" lon="12.4670701"><ele>779.0</ele><time>2026-05-01T15:28:11.516Z</time></trkpt><trkpt lat="43.4624767" lon="12.4669806"><ele>779.0</ele><time>2026-05-01T15:28:12.516Z</time></trkpt><trkpt lat="43.4623555" lon="12.4668972"><ele>779.0</ele><time>2026-05-01T15:28:13.516Z</time></trkpt><trkpt lat="43.4622381" lon="12.4668549"><ele>779.0</ele><time>2026-05-01T15:28:14.516Z</time></trkpt><trkpt lat="43.4621171" lon="12.4668206"><ele>775.75</ele><time>2026-05-01T15:28:15.516Z</time></trkpt><trkpt lat="43.4619968" lon="12.4667595"><ele>772.5</ele><time>2026-05-01T15:28:16.516Z</time></trkpt><trkpt lat="43.4618949" lon="12.4666589"><ele>769.25</ele><time>2026-05-01T15:28:17.515Z</time></trkpt><trkpt lat="43.4618051" lon="12.4665516"><ele>766.0</ele><time>2026-05-01T15:28:18.516Z</time></trkpt><trkpt lat="43.4617468" lon="12.4664287"><ele>766.0</ele><time>2026-05-01T15:28:19.516Z</time></trkpt><trkpt lat="43.4617086" lon="12.4662956"><ele>766.0</ele><time>2026-05-01T15:28:20.516Z</time></trkpt><trkpt lat="43.4616569" lon="12.4661667"><ele>766.0</ele><time>2026-05-01T15:28:21.515Z</time></trkpt><trkpt lat="43.4615554" lon="12.4660813"><ele>766.0</ele><time>2026-05-01T15:28:22.516Z</time></trkpt><trkpt lat="43.4614311" lon="12.4660727"><ele>766.0</ele><time>2026-05-01T15:28:23.516Z</time></trkpt><trkpt lat="43.4613072" lon="12.4660807"><ele>766.0</ele><time>2026-05-01T15:28:24.515Z</time></trkpt><trkpt lat="43.4611754" lon="12.4660958"><ele>766.0</ele><time>2026-05-01T15:28:25.516Z</time></trkpt><trkpt lat="43.4610325" lon="12.466108"><ele>766.0</ele><time>2026-05-01T15:28:26.516Z</time></trkpt><trkpt lat="43.4609009" lon="12.4661084"><ele>766.0</ele><time>2026-05-01T15:28:27.516Z</time></trkpt><trkpt lat="43.4607763" lon="12.4660922"><ele>766.0</ele><time>2026-05-01T15:28:28.516Z</time></trkpt><trkpt lat="43.460687" lon="12.466058"><ele>766.0</ele><time>2026-05-01T15:28:29.516Z</time></trkpt><trkpt lat="43.460593" lon="12.4660137"><ele>766.0</ele><time>2026-05-01T15:28:30.516Z</time></trkpt><trkpt lat="43.4605162" lon="12.4659224"><ele>766.0</ele><time>2026-05-01T15:28:31.516Z</time></trkpt><trkpt lat="43.4604782" lon="12.4657768"><ele>766.0</ele><time>2026-05-01T15:28:32.516Z</time></trkpt><trkpt lat="43.4604656" lon="12.4656003"><ele>766.0</ele><time>2026-05-01T15:28:33.516Z</time></trkpt><trkpt lat="43.4604709" lon="12.4654324"><ele>766.0</ele><time>2026-05-01T15:28:34.516Z</time></trkpt><trkpt lat="43.4605037" lon="12.4652843"><ele>766.0</ele><time>2026-05-01T15:28:35.515Z</time></trkpt><trkpt lat="43.4605505" lon="12.4651547"><ele>765.5999999999999</ele><time>2026-05-01T15:28:36.516Z</time></trkpt><trkpt lat="43.4605939" lon="12.4650129"><ele>765.2</ele><time>2026-05-01T15:28:37.516Z</time></trkpt><trkpt lat="43.4606155" lon="12.464865"><ele>764.8</ele><time>2026-05-01T15:28:38.516Z</time></trkpt><trkpt lat="43.4606241" lon="12.464721"><ele>764.4000000000001</ele><time>2026-05-01T15:28:39.516Z</time></trkpt><trkpt lat="43.4606253" lon="12.4645908"><ele>764.0</ele><time>2026-05-01T15:28:40.515Z</time></trkpt><trkpt lat="43.4606074" lon="12.4644592"><ele>765.0</ele><time>2026-05-01T15:28:41.516Z</time></trkpt><trkpt lat="43.4605499" lon="12.4643325"><ele>766.0</ele><time>2026-05-01T15:28:42.516Z</time></trkpt><trkpt lat="43.4604409" lon="12.4642308"><ele>767.0</ele><time>2026-05-01T15:28:43.516Z</time></trkpt><trkpt lat="43.460315" lon="12.4641437"><ele>768.0</ele><time>2026-05-01T15:28:44.515Z</time></trkpt><trkpt lat="43.4602049" lon="12.4640814"><ele>763.0</ele><time>2026-05-01T15:28:45.516Z</time></trkpt><trkpt lat="43.4600887" lon="12.4640261"><ele>758.0</ele><time>2026-05-01T15:28:46.516Z</time></trkpt><trkpt lat="43.4599718" lon="12.4639755"><ele>753.0</ele><time>2026-05-01T15:28:47.516Z</time></trkpt><trkpt lat="43.4598565" lon="12.4639447"><ele>748.0</ele><time>2026-05-01T15:28:48.516Z</time></trkpt><trkpt lat="43.4597386" lon="12.4639208"><ele>748.0</ele><time>2026-05-01T15:28:49.516Z</time></trkpt><trkpt lat="43.4596176" lon="12.4639126"><ele>748.0</ele><time>2026-05-01T15:28:50.516Z</time></trkpt><trkpt lat="43.4594935" lon="12.4639018"><ele>748.0</ele><time>2026-05-01T15:28:51.516Z</time></trkpt><trkpt lat="43.4593563" lon="12.4638814"><ele>748.0</ele><time>2026-05-01T15:28:52.516Z</time></trkpt><trkpt lat="43.4592189" lon="12.4638598"><ele>746.25</ele><time>2026-05-01T15:28:53.516Z</time></trkpt><trkpt lat="43.4590785" lon="12.4638304"><ele>744.5</ele><time>2026-05-01T15:28:54.515Z</time></trkpt><trkpt lat="43.458946" lon="12.4638018"><ele>742.75</ele><time>2026-05-01T15:28:55.515Z</time></trkpt><trkpt lat="43.4588152" lon="12.4637707"><ele>741.0</ele><time>2026-05-01T15:28:56.516Z</time></trkpt><trkpt lat="43.4586973" lon="12.4637465"><ele>738.0</ele><time>2026-05-01T15:28:57.516Z</time></trkpt><trkpt lat="43.4585932" lon="12.4637151"><ele>735.0</ele><time>2026-05-01T15:28:58.516Z</time></trkpt><trkpt lat="43.4585057" lon="12.4636901"><ele>732.0</ele><time>2026-05-01T15:28:59.516Z</time></trkpt><trkpt lat="43.4584542" lon="12.4636335"><ele>729.0</ele><time>2026-05-01T15:29:00.516Z</time></trkpt><trkpt lat="43.458476" lon="12.4635"><ele>726.0</ele><time>2026-05-01T15:29:02.516Z</time></trkpt><trkpt lat="43.4585399" lon="12.4634551"><ele>723.0</ele><time>2026-05-01T15:29:03.515Z</time></trkpt><trkpt lat="43.4586295" lon="12.4634372"><ele>723.0</ele><time>2026-05-01T15:29:04.516Z</time></trkpt><trkpt lat="43.458744" lon="12.4634288"><ele>723.0</ele><time>2026-05-01T15:29:05.516Z</time></trkpt><trkpt lat="43.4588551" lon="12.4634005"><ele>723.0</ele><time>2026-05-01T15:29:06.516Z</time></trkpt><trkpt lat="43.458974" lon="12.4633668"><ele>723.0</ele><time>2026-05-01T15:29:07.516Z</time></trkpt><trkpt lat="43.4590679" lon="12.4633028"><ele>724.5</ele><time>2026-05-01T15:29:08.516Z</time></trkpt><trkpt lat="43.4591506" lon="12.4632164"><ele>726.0</ele><time>2026-05-01T15:29:09.516Z</time></trkpt><trkpt lat="43.4592126" lon="12.4630973"><ele>727.5</ele><time>2026-05-01T15:29:10.516Z</time></trkpt><trkpt lat="43.4592514" lon="12.4629279"><ele>729.0</ele><time>2026-05-01T15:29:11.516Z</time></trkpt><trkpt lat="43.4592657" lon="12.462755"><ele>729.0</ele><time>2026-05-01T15:29:12.516Z</time></trkpt><trkpt lat="43.4592565" lon="12.4626203"><ele>729.0</ele><time>2026-05-01T15:29:13.516Z</time></trkpt><trkpt lat="43.4591693" lon="12.4624655"><ele>729.0</ele><time>2026-05-01T15:29:14.515Z</time></trkpt><trkpt lat="43.4590441" lon="12.462291"><ele>729.0</ele><time>2026-05-01T15:29:15.516Z</time></trkpt><trkpt lat="43.4589325" lon="12.4621268"><ele>731.75</ele><time>2026-05-01T15:29:16.516Z</time></trkpt><trkpt lat="43.4588242" lon="12.4619814"><ele>734.5</ele><time>2026-05-01T15:29:17.515Z</time></trkpt><trkpt lat="43.4587178" lon="12.4618725"><ele>737.25</ele><time>2026-05-01T15:29:18.516Z</time></trkpt><trkpt lat="43.4585996" lon="12.4617976"><ele>740.0</ele><time>2026-05-01T15:29:19.516Z</time></trkpt><trkpt lat="43.4584903" lon="12.4617618"><ele>734.5</ele><time>2026-05-01T15:29:20.516Z</time></trkpt><trkpt lat="43.4583685" lon="12.4617284"><ele>729.0</ele><time>2026-05-01T15:29:21.516Z</time></trkpt><trkpt lat="43.4582639" lon="12.4616816"><ele>723.5</ele><time>2026-05-01T15:29:22.516Z</time></trkpt><trkpt lat="43.4581733" lon="12.4616009"><ele>718.0</ele><time>2026-05-01T15:29:23.516Z</time></trkpt><trkpt lat="43.4580911" lon="12.4614982"><ele>718.0</ele><time>2026-05-01T15:29:24.516Z</time></trkpt><trkpt lat="43.4580276" lon="12.4613635"><ele>718.0</ele><time>2026-05-01T15:29:25.516Z</time></trkpt><trkpt lat="43.4579886" lon="12.4612083"><ele>718.0</ele><time>2026-05-01T15:29:26.516Z</time></trkpt><trkpt lat="43.4579719" lon="12.4610626"><ele>718.0</ele><time>2026-05-01T15:29:27.516Z</time></trkpt><trkpt lat="43.4579524" lon="12.4609347"><ele>718.0</ele><time>2026-05-01T15:29:28.516Z</time></trkpt><trkpt lat="43.4579177" lon="12.460814"><ele>717.2</ele><time>2026-05-01T15:29:29.516Z</time></trkpt><trkpt lat="43.4578438" lon="12.4607198"><ele>716.4</ele><time>2026-05-01T15:29:30.516Z</time></trkpt><trkpt lat="43.4577592" lon="12.4606454"><ele>715.6</ele><time>2026-05-01T15:29:31.516Z</time></trkpt><trkpt lat="43.4576604" lon="12.4606208"><ele>714.8000000000001</ele><time>2026-05-01T15:29:32.516Z</time></trkpt><trkpt lat="43.4575671" lon="12.4606337"><ele>714.0</ele><time>2026-05-01T15:29:33.516Z</time></trkpt><trkpt lat="43.4574777" lon="12.4606828"><ele>714.0</ele><time>2026-05-01T15:29:34.516Z</time></trkpt><trkpt lat="43.457388" lon="12.4607631"><ele>714.0</ele><time>2026-05-01T15:29:35.516Z</time></trkpt><trkpt lat="43.4573023" lon="12.4608548"><ele>714.0</ele><time>2026-05-01T15:29:36.516Z</time></trkpt><trkpt lat="43.4572141" lon="12.46092"><ele>714.0</ele><time>2026-05-01T15:29:37.516Z</time></trkpt><trkpt lat="43.4571053" lon="12.4609501"><ele>714.0</ele><time>2026-05-01T15:29:38.516Z</time></trkpt><trkpt lat="43.4569957" lon="12.4609533"><ele>712.75</ele><time>2026-05-01T15:29:39.516Z</time></trkpt><trkpt lat="43.4568836" lon="12.4609637"><ele>711.5</ele><time>2026-05-01T15:29:40.516Z</time></trkpt><trkpt lat="43.4567706" lon="12.4609999"><ele>710.25</ele><time>2026-05-01T15:29:41.515Z</time></trkpt><trkpt lat="43.4566675" lon="12.4610588"><ele>709.0</ele><time>2026-05-01T15:29:42.516Z</time></trkpt><trkpt lat="43.4565511" lon="12.4611297"><ele>709.0</ele><time>2026-05-01T15:29:43.516Z</time></trkpt><trkpt lat="43.4564369" lon="12.4611987"><ele>709.0</ele><time>2026-05-01T15:29:44.516Z</time></trkpt><trkpt lat="43.4563215" lon="12.4612434"><ele>709.0</ele><time>2026-05-01T15:29:45.516Z</time></trkpt><trkpt lat="43.4561954" lon="12.4612518"><ele>709.0</ele><time>2026-05-01T15:29:46.516Z</time></trkpt><trkpt lat="43.4560702" lon="12.4612186"><ele>706.75</ele><time>2026-05-01T15:29:47.515Z</time></trkpt><trkpt lat="43.4559544" lon="12.4611875"><ele>704.5</ele><time>2026-05-01T15:29:48.515Z</time></trkpt><trkpt lat="43.4558346" lon="12.4611734"><ele>702.25</ele><time>2026-05-01T15:29:49.516Z</time></trkpt><trkpt lat="43.4557172" lon="12.461168"><ele>700.0</ele><time>2026-05-01T15:29:50.516Z</time></trkpt><trkpt lat="43.4555967" lon="12.4612034"><ele>700.0</ele><time>2026-05-01T15:29:51.516Z</time></trkpt><trkpt lat="43.4554714" lon="12.4612684"><ele>700.0</ele><time>2026-05-01T15:29:52.515Z</time></trkpt><trkpt lat="43.4553563" lon="12.4613506"><ele>700.0</ele><time>2026-05-01T15:29:53.515Z</time></trkpt><trkpt lat="43.4552387" lon="12.4614457"><ele>700.0</ele><time>2026-05-01T15:29:54.516Z</time></trkpt><trkpt lat="43.4551182" lon="12.4615294"><ele>695.5</ele><time>2026-05-01T15:29:55.516Z</time></trkpt><trkpt lat="43.4550011" lon="12.4615989"><ele>691.0</ele><time>2026-05-01T15:29:56.515Z</time></trkpt><trkpt lat="43.4548742" lon="12.4616487"><ele>686.5</ele><time>2026-05-01T15:29:57.516Z</time></trkpt><trkpt lat="43.4547324" lon="12.4616836"><ele>682.0</ele><time>2026-05-01T15:29:58.515Z</time></trkpt><trkpt lat="43.4545807" lon="12.4616994"><ele>679.0</ele><time>2026-05-01T15:29:59.515Z</time></trkpt><trkpt lat="43.4544143" lon="12.4617101"><ele>676.0</ele><time>2026-05-01T15:30:00.516Z</time></trkpt><trkpt lat="43.4542682" lon="12.4617207"><ele>673.0</ele><time>2026-05-01T15:30:01.516Z</time></trkpt><trkpt lat="43.4541193" lon="12.4617354"><ele>673.0</ele><time>2026-05-01T15:30:02.515Z</time></trkpt><trkpt lat="43.4539744" lon="12.4617564"><ele>673.0</ele><time>2026-05-01T15:30:03.516Z</time></trkpt><trkpt lat="43.453822" lon="12.4617784"><ele>673.0</ele><time>2026-05-01T15:30:04.516Z</time></trkpt><trkpt lat="43.4536772" lon="12.4617945"><ele>673.0</ele><time>2026-05-01T15:30:05.515Z</time></trkpt><trkpt lat="43.4535289" lon="12.4617901"><ele>671.6666666666667</ele><time>2026-05-01T15:30:06.516Z</time></trkpt><trkpt lat="43.4533806" lon="12.4617724"><ele>670.3333333333334</ele><time>2026-05-01T15:30:07.516Z</time></trkpt><trkpt lat="43.4532318" lon="12.4617306"><ele>669.0</ele><time>2026-05-01T15:30:08.515Z</time></trkpt><trkpt lat="43.4530832" lon="12.4616909"><ele>666.25</ele><time>2026-05-01T15:30:09.516Z</time></trkpt><trkpt lat="43.4529382" lon="12.4616458"><ele>663.5</ele><time>2026-05-01T15:30:10.516Z</time></trkpt><trkpt lat="43.4527997" lon="12.4615929"><ele>660.75</ele><time>2026-05-01T15:30:11.516Z</time></trkpt><trkpt lat="43.4526845" lon="12.4615492"><ele>658.0</ele><time>2026-05-01T15:30:12.515Z</time></trkpt><trkpt lat="43.4525775" lon="12.461521"><ele>658.0</ele><time>2026-05-01T15:30:13.515Z</time></trkpt><trkpt lat="43.4524926" lon="12.4615479"><ele>658.0</ele><time>2026-05-01T15:30:14.516Z</time></trkpt><trkpt lat="43.4524294" lon="12.461623"><ele>658.0</ele><time>2026-05-01T15:30:15.516Z</time></trkpt><trkpt lat="43.4523825" lon="12.4617521"><ele>658.0</ele><time>2026-05-01T15:30:16.515Z</time></trkpt><trkpt lat="43.4523654" lon="12.4619204"><ele>658.0</ele><time>2026-05-01T15:30:17.516Z</time></trkpt><trkpt lat="43.4523431" lon="12.4620942"><ele>658.0</ele><time>2026-05-01T15:30:18.515Z</time></trkpt><trkpt lat="43.4523221" lon="12.4622444"><ele>658.0</ele><time>2026-05-01T15:30:19.515Z</time></trkpt><trkpt lat="43.4523082" lon="12.4623973"><ele>658.0</ele><time>2026-05-01T15:30:20.516Z</time></trkpt><trkpt lat="43.4523146" lon="12.4625212"><ele>658.0</ele><time>2026-05-01T15:30:21.516Z</time></trkpt><trkpt lat="43.4523554" lon="12.4626156"><ele>658.0</ele><time>2026-05-01T15:30:22.516Z</time></trkpt><trkpt lat="43.4524234" lon="12.4626919"><ele>658.0</ele><time>2026-05-01T15:30:23.515Z</time></trkpt><trkpt lat="43.4525032" lon="12.4627358"><ele>658.0</ele><time>2026-05-01T15:30:24.516Z</time></trkpt><trkpt lat="43.4525906" lon="12.4627654"><ele>658.0</ele><time>2026-05-01T15:30:25.515Z</time></trkpt><trkpt lat="43.4526827" lon="12.4628059"><ele>658.0</ele><time>2026-05-01T15:30:26.516Z</time></trkpt><trkpt lat="43.4527637" lon="12.4628823"><ele>658.0</ele><time>2026-05-01T15:30:27.516Z</time></trkpt><trkpt lat="43.4528351" lon="12.463004"><ele>659.25</ele><time>2026-05-01T15:30:28.515Z</time></trkpt><trkpt lat="43.4528974" lon="12.4631411"><ele>660.5</ele><time>2026-05-01T15:30:29.516Z</time></trkpt><trkpt lat="43.4529519" lon="12.4632899"><ele>661.75</ele><time>2026-05-01T15:30:30.516Z</time></trkpt><trkpt lat="43.4530126" lon="12.4634402"><ele>663.0</ele><time>2026-05-01T15:30:31.516Z</time></trkpt><trkpt lat="43.4530773" lon="12.4635839"><ele>663.0</ele><time>2026-05-01T15:30:32.516Z</time></trkpt><trkpt lat="43.4531432" lon="12.4637236"><ele>663.0</ele><time>2026-05-01T15:30:33.516Z</time></trkpt><trkpt lat="43.4532107" lon="12.4638496"><ele>663.0</ele><time>2026-05-01T15:30:34.515Z</time></trkpt><trkpt lat="43.453275" lon="12.4639605"><ele>663.0</ele><time>2026-05-01T15:30:35.516Z</time></trkpt><trkpt lat="43.4533521" lon="12.4640572"><ele>663.0</ele><time>2026-05-01T15:30:36.516Z</time></trkpt><trkpt lat="43.453433" lon="12.4641223"><ele>659.4</ele><time>2026-05-01T15:30:37.516Z</time></trkpt><trkpt lat="43.4535073" lon="12.4641578"><ele>655.8</ele><time>2026-05-01T15:30:38.516Z</time></trkpt><trkpt lat="43.4535775" lon="12.4641903"><ele>652.2</ele><time>2026-05-01T15:30:39.515Z</time></trkpt><trkpt lat="43.4536438" lon="12.4642249"><ele>648.6</ele><time>2026-05-01T15:30:40.515Z</time></trkpt><trkpt lat="43.4537046" lon="12.4643052"><ele>645.0</ele><time>2026-05-01T15:30:42.515Z</time></trkpt><trkpt lat="43.4535532" lon="12.4642671"><ele>645.0</ele><time>2026-05-01T15:30:44.515Z</time></trkpt><trkpt lat="43.4534283" lon="12.4641915"><ele>645.0</ele><time>2026-05-01T15:30:45.516Z</time></trkpt><trkpt lat="43.4533078" lon="12.4641278"><ele>645.0</ele><time>2026-05-01T15:30:46.516Z</time></trkpt><trkpt lat="43.4531921" lon="12.4640585"><ele>645.0</ele><time>2026-05-01T15:30:47.516Z</time></trkpt><trkpt lat="43.4530752" lon="12.4639936"><ele>642.2</ele><time>2026-05-01T15:30:48.516Z</time></trkpt><trkpt lat="43.4529555" lon="12.4639596"><ele>639.4</ele><time>2026-05-01T15:30:49.515Z</time></trkpt><trkpt lat="43.4528355" lon="12.4639641"><ele>636.6</ele><time>2026-05-01T15:30:50.516Z</time></trkpt><trkpt lat="43.4527324" lon="12.4639867"><ele>633.8</ele><time>2026-05-01T15:30:51.516Z</time></trkpt><trkpt lat="43.452645" lon="12.4640207"><ele>631.0</ele><time>2026-05-01T15:30:52.516Z</time></trkpt><trkpt lat="43.452561" lon="12.4640107"><ele>631.0</ele><time>2026-05-01T15:30:53.516Z</time></trkpt><trkpt lat="43.4524946" lon="12.4639518"><ele>631.0</ele><time>2026-05-01T15:30:54.516Z</time></trkpt><trkpt lat="43.4524392" lon="12.4637885"><ele>631.0</ele><time>2026-05-01T15:30:56.516Z</time></trkpt><trkpt lat="43.4523901" lon="12.4636736"><ele>631.0</ele><time>2026-05-01T15:30:57.516Z</time></trkpt><trkpt lat="43.4523293" lon="12.4635524"><ele>631.0</ele><time>2026-05-01T15:30:58.516Z</time></trkpt><trkpt lat="43.4522547" lon="12.4634728"><ele>630.75</ele><time>2026-05-01T15:30:59.515Z</time></trkpt><trkpt lat="43.4521421" lon="12.4634341"><ele>630.5</ele><time>2026-05-01T15:31:00.516Z</time></trkpt><trkpt lat="43.4520271" lon="12.4634415"><ele>630.25</ele><time>2026-05-01T15:31:01.516Z</time></trkpt><trkpt lat="43.4519059" lon="12.4634884"><ele>630.0</ele><time>2026-05-01T15:31:02.516Z</time></trkpt><trkpt lat="43.4517954" lon="12.4635397"><ele>630.0</ele><time>2026-05-01T15:31:03.516Z</time></trkpt><trkpt lat="43.4516846" lon="12.463563"><ele>630.0</ele><time>2026-05-01T15:31:04.516Z</time></trkpt><trkpt lat="43.4515783" lon="12.4635685"><ele>630.0</ele><time>2026-05-01T15:31:05.516Z</time></trkpt><trkpt lat="43.4514865" lon="12.463519"><ele>630.0</ele><time>2026-05-01T15:31:06.515Z</time></trkpt><trkpt lat="43.4513936" lon="12.4634273"><ele>630.0</ele><time>2026-05-01T15:31:07.516Z</time></trkpt><trkpt lat="43.4513153" lon="12.4633496"><ele>625.8</ele><time>2026-05-01T15:31:08.515Z</time></trkpt><trkpt lat="43.451223" lon="12.4633089"><ele>621.6</ele><time>2026-05-01T15:31:09.516Z</time></trkpt><trkpt lat="43.4511157" lon="12.4632979"><ele>617.4</ele><time>2026-05-01T15:31:10.515Z</time></trkpt><trkpt lat="43.4510186" lon="12.4632824"><ele>613.2</ele><time>2026-05-01T15:31:11.515Z</time></trkpt><trkpt lat="43.4509276" lon="12.4632553"><ele>609.0</ele><time>2026-05-01T15:31:12.516Z</time></trkpt><trkpt lat="43.4508511" lon="12.4631988"><ele>609.0</ele><time>2026-05-01T15:31:13.516Z</time></trkpt><trkpt lat="43.4508037" lon="12.4631031"><ele>609.0</ele><time>2026-05-01T15:31:14.516Z</time></trkpt><trkpt lat="43.4507896" lon="12.4629585"><ele>609.0</ele><time>2026-05-01T15:31:15.516Z</time></trkpt><trkpt lat="43.4508199" lon="12.4628185"><ele>609.0</ele><time>2026-05-01T15:31:16.516Z</time></trkpt><trkpt lat="43.4508656" lon="12.4626994"><ele>609.0</ele><time>2026-05-01T15:31:17.516Z</time></trkpt><trkpt lat="43.450931" lon="12.4625857"><ele>608.6</ele><time>2026-05-01T15:31:18.516Z</time></trkpt><trkpt lat="43.4510155" lon="12.4624731"><ele>608.2</ele><time>2026-05-01T15:31:19.516Z</time></trkpt><trkpt lat="43.4511008" lon="12.4623743"><ele>607.8000000000001</ele><time>2026-05-01T15:31:20.516Z</time></trkpt><trkpt lat="43.4511915" lon="12.4622847"><ele>607.4</ele><time>2026-05-01T15:31:21.516Z</time></trkpt><trkpt lat="43.451275" lon="12.4622038"><ele>607.0</ele><time>2026-05-01T15:31:22.515Z</time></trkpt><trkpt lat="43.4513436" lon="12.4621284"><ele>607.0</ele><time>2026-05-01T15:31:23.516Z</time></trkpt><trkpt lat="43.4513949" lon="12.4620437"><ele>607.0</ele><time>2026-05-01T15:31:24.516Z</time></trkpt><trkpt lat="43.4513941" lon="12.4619505"><ele>607.0</ele><time>2026-05-01T15:31:25.516Z</time></trkpt><trkpt lat="43.4513334" lon="12.4618742"><ele>607.0</ele><time>2026-05-01T15:31:26.516Z</time></trkpt><trkpt lat="43.4512581" lon="12.4618651"><ele>607.0</ele><time>2026-05-01T15:31:27.516Z</time></trkpt><trkpt lat="43.4511827" lon="12.4619073"><ele>607.0</ele><time>2026-05-01T15:31:28.516Z</time></trkpt><trkpt lat="43.4511266" lon="12.4619984"><ele>607.0</ele><time>2026-05-01T15:31:29.516Z</time></trkpt><trkpt lat="43.4510517" lon="12.4620991"><ele>607.0</ele><time>2026-05-01T15:31:30.516Z</time></trkpt><trkpt lat="43.4509558" lon="12.4622005"><ele>607.0</ele><time>2026-05-01T15:31:31.516Z</time></trkpt><trkpt lat="43.4508555" lon="12.4622985"><ele>607.0</ele><time>2026-05-01T15:31:32.516Z</time></trkpt><trkpt lat="43.4507514" lon="12.4623852"><ele>607.0</ele><time>2026-05-01T15:31:33.516Z</time></trkpt><trkpt lat="43.4506538" lon="12.4624757"><ele>607.0</ele><time>2026-05-01T15:31:34.516Z</time></trkpt><trkpt lat="43.4505454" lon="12.4625835"><ele>607.0</ele><time>2026-05-01T15:31:35.516Z</time></trkpt><trkpt lat="43.4504498" lon="12.4627044"><ele>607.0</ele><time>2026-05-01T15:31:36.515Z</time></trkpt><trkpt lat="43.4503658" lon="12.462823"><ele>604.4</ele><time>2026-05-01T15:31:37.515Z</time></trkpt><trkpt lat="43.4502959" lon="12.4629348"><ele>601.8000000000001</ele><time>2026-05-01T15:31:38.516Z</time></trkpt><trkpt lat="43.4502474" lon="12.4630669"><ele>599.2</ele><time>2026-05-01T15:31:39.516Z</time></trkpt><trkpt lat="43.4502358" lon="12.4632163"><ele>596.6</ele><time>2026-05-01T15:31:40.516Z</time></trkpt><trkpt lat="43.4502755" lon="12.4633438"><ele>594.0</ele><time>2026-05-01T15:31:41.516Z</time></trkpt><trkpt lat="43.4503452" lon="12.4634684"><ele>593.0</ele><time>2026-05-01T15:31:42.515Z</time></trkpt><trkpt lat="43.4504289" lon="12.4635941"><ele>592.0</ele><time>2026-05-01T15:31:43.515Z</time></trkpt><trkpt lat="43.4505166" lon="12.4637032"><ele>591.0</ele><time>2026-05-01T15:31:44.516Z</time></trkpt><trkpt lat="43.4506" lon="12.4638022"><ele>590.0</ele><time>2026-05-01T15:31:45.515Z</time></trkpt><trkpt lat="43.45069" lon="12.4638747"><ele>590.0</ele><time>2026-05-01T15:31:46.516Z</time></trkpt><trkpt lat="43.4507875" lon="12.4639411"><ele>590.0</ele><time>2026-05-01T15:31:47.516Z</time></trkpt><trkpt lat="43.4508721" lon="12.4639983"><ele>590.0</ele><time>2026-05-01T15:31:48.516Z</time></trkpt><trkpt lat="43.4509122" lon="12.4640662"><ele>590.0</ele><time>2026-05-01T15:31:49.515Z</time></trkpt><trkpt lat="43.4508756" lon="12.4641555"><ele>590.0</ele><time>2026-05-01T15:31:51.516Z</time></trkpt><trkpt lat="43.450794" lon="12.4641596"><ele>590.0</ele><time>2026-05-01T15:31:52.516Z</time></trkpt><trkpt lat="43.4507109" lon="12.4640964"><ele>590.0</ele><time>2026-05-01T15:31:53.515Z</time></trkpt><trkpt lat="43.4506225" lon="12.4640116"><ele>590.0</ele><time>2026-05-01T15:31:54.516Z</time></trkpt><trkpt lat="43.4505372" lon="12.4639253"><ele>590.0</ele><time>2026-05-01T15:31:55.515Z</time></trkpt><trkpt lat="43.4504475" lon="12.4638264"><ele>590.0</ele><time>2026-05-01T15:31:56.516Z</time></trkpt><trkpt lat="43.4503404" lon="12.4637303"><ele>588.5</ele><time>2026-05-01T15:31:57.515Z</time></trkpt><trkpt lat="43.4502288" lon="12.4636381"><ele>587.0</ele><time>2026-05-01T15:31:58.515Z</time></trkpt><trkpt lat="43.4501136" lon="12.4635412"><ele>585.5</ele><time>2026-05-01T15:31:59.516Z</time></trkpt><trkpt lat="43.4499984" lon="12.4634401"><ele>584.0</ele><time>2026-05-01T15:32:00.516Z</time></trkpt><trkpt lat="43.4498808" lon="12.4633303"><ele>584.0</ele><time>2026-05-01T15:32:01.516Z</time></trkpt><trkpt lat="43.4497608" lon="12.4632295"><ele>584.0</ele><time>2026-05-01T15:32:02.516Z</time></trkpt><trkpt lat="43.4496394" lon="12.4631227"><ele>584.0</ele><time>2026-05-01T15:32:03.515Z</time></trkpt><trkpt lat="43.4495241" lon="12.4630086"><ele>584.0</ele><time>2026-05-01T15:32:04.515Z</time></trkpt><trkpt lat="43.4494152" lon="12.4628643"><ele>582.0</ele><time>2026-05-01T15:32:05.516Z</time></trkpt><trkpt lat="43.4493129" lon="12.4627019"><ele>580.0</ele><time>2026-05-01T15:32:06.516Z</time></trkpt><trkpt lat="43.4492072" lon="12.4625445"><ele>578.0</ele><time>2026-05-01T15:32:07.516Z</time></trkpt><trkpt lat="43.4491244" lon="12.4624009"><ele>576.0</ele><time>2026-05-01T15:32:08.516Z</time></trkpt><trkpt lat="43.4490478" lon="12.4622657"><ele>576.0</ele><time>2026-05-01T15:32:09.515Z</time></trkpt><trkpt lat="43.4489711" lon="12.4621386"><ele>576.0</ele><time>2026-05-01T15:32:10.516Z</time></trkpt><trkpt lat="43.4488968" lon="12.4620183"><ele>576.0</ele><time>2026-05-01T15:32:11.516Z</time></trkpt><trkpt lat="43.4488219" lon="12.4618836"><ele>576.0</ele><time>2026-05-01T15:32:12.515Z</time></trkpt><trkpt lat="43.4487555" lon="12.4617394"><ele>573.75</ele><time>2026-05-01T15:32:13.515Z</time></trkpt><trkpt lat="43.4487073" lon="12.4615831"><ele>571.5</ele><time>2026-05-01T15:32:14.516Z</time></trkpt><trkpt lat="43.4486749" lon="12.461426"><ele>569.25</ele><time>2026-05-01T15:32:15.516Z</time></trkpt><trkpt lat="43.4486392" lon="12.4612673"><ele>567.0</ele><time>2026-05-01T15:32:16.516Z</time></trkpt><trkpt lat="43.4486026" lon="12.4611007"><ele>567.0</ele><time>2026-05-01T15:32:17.515Z</time></trkpt><trkpt lat="43.4485557" lon="12.4609291"><ele>567.0</ele><time>2026-05-01T15:32:18.515Z</time></trkpt><trkpt lat="43.4484913" lon="12.4607702"><ele>567.0</ele><time>2026-05-01T15:32:19.516Z</time></trkpt><trkpt lat="43.4484149" lon="12.4606215"><ele>567.0</ele><time>2026-05-01T15:32:20.516Z</time></trkpt><trkpt lat="43.4483328" lon="12.4604665"><ele>568.25</ele><time>2026-05-01T15:32:21.516Z</time></trkpt><trkpt lat="43.4482478" lon="12.4603337"><ele>569.5</ele><time>2026-05-01T15:32:22.516Z</time></trkpt><trkpt lat="43.4481597" lon="12.4602121"><ele>570.75</ele><time>2026-05-01T15:32:23.516Z</time></trkpt><trkpt lat="43.4480617" lon="12.4601029"><ele>572.0</ele><time>2026-05-01T15:32:24.516Z</time></trkpt><trkpt lat="43.4479522" lon="12.4600003"><ele>568.75</ele><time>2026-05-01T15:32:25.515Z</time></trkpt><trkpt lat="43.4478396" lon="12.45991"><ele>565.5</ele><time>2026-05-01T15:32:26.516Z</time></trkpt><trkpt lat="43.4477298" lon="12.4598234"><ele>562.25</ele><time>2026-05-01T15:32:27.516Z</time></trkpt><trkpt lat="43.4476274" lon="12.4597497"><ele>559.0</ele><time>2026-05-01T15:32:28.516Z</time></trkpt><trkpt lat="43.4475346" lon="12.4596624"><ele>561.0</ele><time>2026-05-01T15:32:29.516Z</time></trkpt><trkpt lat="43.447448" lon="12.4595764"><ele>563.0</ele><time>2026-05-01T15:32:30.516Z</time></trkpt><trkpt lat="43.4473562" lon="12.4594823"><ele>565.0</ele><time>2026-05-01T15:32:31.516Z</time></trkpt><trkpt lat="43.4472608" lon="12.4593701"><ele>567.0</ele><time>2026-05-01T15:32:32.516Z</time></trkpt><trkpt lat="43.4471625" lon="12.4592521"><ele>564.5</ele><time>2026-05-01T15:32:33.515Z</time></trkpt><trkpt lat="43.4470617" lon="12.459123"><ele>562.0</ele><time>2026-05-01T15:32:34.516Z</time></trkpt><trkpt lat="43.4469545" lon="12.4589925"><ele>559.5</ele><time>2026-05-01T15:32:35.516Z</time></trkpt><trkpt lat="43.4468472" lon="12.4588561"><ele>557.0</ele><time>2026-05-01T15:32:36.515Z</time></trkpt><trkpt lat="43.4467368" lon="12.4587192"><ele>557.0</ele><time>2026-05-01T15:32:37.516Z</time></trkpt><trkpt lat="43.4466251" lon="12.4585756"><ele>557.0</ele><time>2026-05-01T15:32:38.516Z</time></trkpt><trkpt lat="43.4465119" lon="12.4584267"><ele>557.0</ele><time>2026-05-01T15:32:39.516Z</time></trkpt><trkpt lat="43.4463941" lon="12.4582758"><ele>558.3333333333333</ele><time>2026-05-01T15:32:40.516Z</time></trkpt><trkpt lat="43.4462735" lon="12.4581272"><ele>559.6666666666666</ele><time>2026-05-01T15:32:41.516Z</time></trkpt><trkpt lat="43.4461444" lon="12.4579659"><ele>561.0</ele><time>2026-05-01T15:32:42.515Z</time></trkpt><trkpt lat="43.4460104" lon="12.4578077"><ele>561.0</ele><time>2026-05-01T15:32:43.515Z</time></trkpt><trkpt lat="43.4458872" lon="12.4576517"><ele>561.0</ele><time>2026-05-01T15:32:44.516Z</time></trkpt><trkpt lat="43.4457696" lon="12.4575041"><ele>561.0</ele><time>2026-05-01T15:32:45.516Z</time></trkpt><trkpt lat="43.4456516" lon="12.4573536"><ele>561.0</ele><time>2026-05-01T15:32:46.515Z</time></trkpt><trkpt lat="43.4455368" lon="12.4572081"><ele>561.0</ele><time>2026-05-01T15:32:47.516Z</time></trkpt><trkpt lat="43.4454281" lon="12.4570497"><ele>561.0</ele><time>2026-05-01T15:32:48.516Z</time></trkpt><trkpt lat="43.4453306" lon="12.4568704"><ele>560.3333333333334</ele><time>2026-05-01T15:32:49.516Z</time></trkpt><trkpt lat="43.445234" lon="12.4566818"><ele>559.6666666666667</ele><time>2026-05-01T15:32:50.515Z</time></trkpt><trkpt lat="43.445146" lon="12.4564774"><ele>559.0</ele><time>2026-05-01T15:32:51.515Z</time></trkpt><trkpt lat="43.4450459" lon="12.456273"><ele>559.0</ele><time>2026-05-01T15:32:52.516Z</time></trkpt><trkpt lat="43.4449415" lon="12.4560679"><ele>559.0</ele><time>2026-05-01T15:32:53.516Z</time></trkpt><trkpt lat="43.4448392" lon="12.4558671"><ele>559.0</ele><time>2026-05-01T15:32:54.515Z</time></trkpt><trkpt lat="43.4447395" lon="12.4556649"><ele>559.0</ele><time>2026-05-01T15:32:55.516Z</time></trkpt><trkpt lat="43.4446462" lon="12.4554646"><ele>559.0</ele><time>2026-05-01T15:32:56.516Z</time></trkpt><trkpt lat="43.4445577" lon="12.4552729"><ele>559.0</ele><time>2026-05-01T15:32:57.516Z</time></trkpt><trkpt lat="43.4444669" lon="12.4550886"><ele>556.0</ele><time>2026-05-01T15:32:58.515Z</time></trkpt><trkpt lat="43.444376" lon="12.4549097"><ele>553.0</ele><time>2026-05-01T15:32:59.516Z</time></trkpt><trkpt lat="43.4442883" lon="12.4547383"><ele>550.0</ele><time>2026-05-01T15:33:00.516Z</time></trkpt><trkpt lat="43.4441978" lon="12.454562"><ele>550.0</ele><time>2026-05-01T15:33:01.515Z</time></trkpt><trkpt lat="43.4441125" lon="12.4543867"><ele>550.0</ele><time>2026-05-01T15:33:02.516Z</time></trkpt><trkpt lat="43.4440298" lon="12.4542189"><ele>550.0</ele><time>2026-05-01T15:33:03.516Z</time></trkpt><trkpt lat="43.4439469" lon="12.4540589"><ele>550.0</ele><time>2026-05-01T15:33:04.516Z</time></trkpt><trkpt lat="43.4438691" lon="12.4538931"><ele>546.25</ele><time>2026-05-01T15:33:05.515Z</time></trkpt><trkpt lat="43.4437946" lon="12.4537451"><ele>542.5</ele><time>2026-05-01T15:33:06.516Z</time></trkpt><trkpt lat="43.4437246" lon="12.453597"><ele>538.75</ele><time>2026-05-01T15:33:07.516Z</time></trkpt><trkpt lat="43.4436654" lon="12.4534374"><ele>535.0</ele><time>2026-05-01T15:33:08.515Z</time></trkpt><trkpt lat="43.443621" lon="12.4532552"><ele>535.0</ele><time>2026-05-01T15:33:09.516Z</time></trkpt><trkpt lat="43.443585" lon="12.45305"><ele>535.0</ele><time>2026-05-01T15:33:10.516Z</time></trkpt><trkpt lat="43.4435541" lon="12.452818"><ele>535.0</ele><time>2026-05-01T15:33:11.515Z</time></trkpt><trkpt lat="43.4435137" lon="12.4525819"><ele>535.0</ele><time>2026-05-01T15:33:12.516Z</time></trkpt><trkpt lat="43.4434664" lon="12.4523228"><ele>535.0</ele><time>2026-05-01T15:33:13.516Z</time></trkpt><trkpt lat="43.4434151" lon="12.4520605"><ele>535.0</ele><time>2026-05-01T15:33:14.515Z</time></trkpt><trkpt lat="43.4433627" lon="12.451798"><ele>535.0</ele><time>2026-05-01T15:33:15.516Z</time></trkpt><trkpt lat="43.4433108" lon="12.4515329"><ele>535.0</ele><time>2026-05-01T15:33:16.516Z</time></trkpt><trkpt lat="43.443264" lon="12.451276"><ele>535.0</ele><time>2026-05-01T15:33:17.516Z</time></trkpt><trkpt lat="43.4432168" lon="12.4510171"><ele>534.6666666666667</ele><time>2026-05-01T15:33:18.516Z</time></trkpt><trkpt lat="43.4431715" lon="12.4507697"><ele>534.3333333333334</ele><time>2026-05-01T15:33:19.516Z</time></trkpt><trkpt lat="43.4431296" lon="12.4505476"><ele>534.0</ele><time>2026-05-01T15:33:20.516Z</time></trkpt><trkpt lat="43.4430896" lon="12.4503344"><ele>533.6666666666666</ele><time>2026-05-01T15:33:21.515Z</time></trkpt><trkpt lat="43.443057" lon="12.450132"><ele>533.3333333333333</ele><time>2026-05-01T15:33:22.516Z</time></trkpt><trkpt lat="43.4430225" lon="12.4499291"><ele>533.0</ele><time>2026-05-01T15:33:23.516Z</time></trkpt><trkpt lat="43.4429847" lon="12.4497266"><ele>531.25</ele><time>2026-05-01T15:33:24.516Z</time></trkpt><trkpt lat="43.4429414" lon="12.449524"><ele>529.5</ele><time>2026-05-01T15:33:25.516Z</time></trkpt><trkpt lat="43.4429078" lon="12.449335"><ele>527.75</ele><time>2026-05-01T15:33:26.516Z</time></trkpt><trkpt lat="43.4428848" lon="12.4491883"><ele>526.0</ele><time>2026-05-01T15:33:27.515Z</time></trkpt><trkpt lat="43.4428666" lon="12.449069"><ele>526.0</ele><time>2026-05-01T15:33:28.516Z</time></trkpt><trkpt lat="43.4428481" lon="12.4489625"><ele>526.0</ele><time>2026-05-01T15:33:29.516Z</time></trkpt><trkpt lat="43.4428401" lon="12.4488689"><ele>526.0</ele><time>2026-05-01T15:33:30.516Z</time></trkpt><trkpt lat="43.4428448" lon="12.4487422"><ele>526.0</ele><time>2026-05-01T15:33:31.516Z</time></trkpt><trkpt lat="43.4428621" lon="12.4486051"><ele>526.0</ele><time>2026-05-01T15:33:32.516Z</time></trkpt><trkpt lat="43.4428761" lon="12.4484596"><ele>526.0</ele><time>2026-05-01T15:33:33.515Z</time></trkpt><trkpt lat="43.4428801" lon="12.448303"><ele>527.25</ele><time>2026-05-01T15:33:34.516Z</time></trkpt><trkpt lat="43.442871" lon="12.4481377"><ele>528.5</ele><time>2026-05-01T15:33:35.516Z</time></trkpt><trkpt lat="43.4428529" lon="12.4479678"><ele>529.75</ele><time>2026-05-01T15:33:36.516Z</time></trkpt><trkpt lat="43.4428302" lon="12.4477999"><ele>531.0</ele><time>2026-05-01T15:33:37.515Z</time></trkpt><trkpt lat="43.442805" lon="12.4476208"><ele>531.25</ele><time>2026-05-01T15:33:38.516Z</time></trkpt><trkpt lat="43.4427698" lon="12.4474274"><ele>531.5</ele><time>2026-05-01T15:33:39.516Z</time></trkpt><trkpt lat="43.4427336" lon="12.4472402"><ele>531.75</ele><time>2026-05-01T15:33:40.516Z</time></trkpt><trkpt lat="43.4427029" lon="12.4470329"><ele>532.0</ele><time>2026-05-01T15:33:41.515Z</time></trkpt><trkpt lat="43.4426649" lon="12.4468087"><ele>532.6666666666667</ele><time>2026-05-01T15:33:42.516Z</time></trkpt><trkpt lat="43.4426255" lon="12.4465872"><ele>533.3333333333334</ele><time>2026-05-01T15:33:43.515Z</time></trkpt><trkpt lat="43.4425832" lon="12.4463626"><ele>534.0</ele><time>2026-05-01T15:33:44.516Z</time></trkpt><trkpt lat="43.442544" lon="12.4461318"><ele>534.3333333333334</ele><time>2026-05-01T15:33:45.516Z</time></trkpt><trkpt lat="43.4424997" lon="12.4458965"><ele>534.6666666666667</ele><time>2026-05-01T15:33:46.516Z</time></trkpt><trkpt lat="43.4424653" lon="12.4456557"><ele>535.0</ele><time>2026-05-01T15:33:47.516Z</time></trkpt><trkpt lat="43.4424274" lon="12.4454144"><ele>533.6666666666667</ele><time>2026-05-01T15:33:48.516Z</time></trkpt><trkpt lat="43.4423863" lon="12.4451537"><ele>532.3333333333334</ele><time>2026-05-01T15:33:49.516Z</time></trkpt><trkpt lat="43.4423356" lon="12.4448784"><ele>531.0</ele><time>2026-05-01T15:33:50.516Z</time></trkpt><trkpt lat="43.44228" lon="12.444592"><ele>531.0</ele><time>2026-05-01T15:33:51.516Z</time></trkpt><trkpt lat="43.442224" lon="12.4443004"><ele>531.0</ele><time>2026-05-01T15:33:52.515Z</time></trkpt><trkpt lat="43.4421689" lon="12.4440084"><ele>531.0</ele><time>2026-05-01T15:33:53.515Z</time></trkpt><trkpt lat="43.4421171" lon="12.4437196"><ele>526.6666666666666</ele><time>2026-05-01T15:33:54.516Z</time></trkpt><trkpt lat="43.4420631" lon="12.4434388"><ele>522.3333333333333</ele><time>2026-05-01T15:33:55.516Z</time></trkpt><trkpt lat="43.4420087" lon="12.4431559"><ele>518.0</ele><time>2026-05-01T15:33:56.516Z</time></trkpt><trkpt lat="43.441954" lon="12.4428776"><ele>518.0</ele><time>2026-05-01T15:33:57.516Z</time></trkpt><trkpt lat="43.4419005" lon="12.4425888"><ele>518.0</ele><time>2026-05-01T15:33:58.516Z</time></trkpt><trkpt lat="43.4418506" lon="12.4423052"><ele>518.0</ele><time>2026-05-01T15:33:59.516Z</time></trkpt><trkpt lat="43.441801" lon="12.4420162"><ele>517.6666666666666</ele><time>2026-05-01T15:34:00.516Z</time></trkpt><trkpt lat="43.4417501" lon="12.4417299"><ele>517.3333333333334</ele><time>2026-05-01T15:34:01.515Z</time></trkpt><trkpt lat="43.4416942" lon="12.4414357"><ele>517.0</ele><time>2026-05-01T15:34:02.516Z</time></trkpt><trkpt lat="43.4416411" lon="12.4411447"><ele>517.6666666666667</ele><time>2026-05-01T15:34:03.516Z</time></trkpt><trkpt lat="43.4415902" lon="12.4408616"><ele>518.3333333333334</ele><time>2026-05-01T15:34:04.516Z</time></trkpt><trkpt lat="43.4415374" lon="12.4405725"><ele>519.0</ele><time>2026-05-01T15:34:05.515Z</time></trkpt><trkpt lat="43.441486" lon="12.4402927"><ele>520.0</ele><time>2026-05-01T15:34:06.516Z</time></trkpt><trkpt lat="43.4414254" lon="12.4400174"><ele>521.0</ele><time>2026-05-01T15:34:07.516Z</time></trkpt><trkpt lat="43.4413548" lon="12.4397436"><ele>522.0</ele><time>2026-05-01T15:34:08.516Z</time></trkpt><trkpt lat="43.441263" lon="12.4394782"><ele>519.3333333333334</ele><time>2026-05-01T15:34:09.516Z</time></trkpt><trkpt lat="43.4411576" lon="12.439225"><ele>516.6666666666667</ele><time>2026-05-01T15:34:10.516Z</time></trkpt><trkpt lat="43.4410566" lon="12.4389723"><ele>514.0</ele><time>2026-05-01T15:34:11.516Z</time></trkpt><trkpt lat="43.4409485" lon="12.438712"><ele>514.0</ele><time>2026-05-01T15:34:12.515Z</time></trkpt><trkpt lat="43.4408374" lon="12.4384458"><ele>514.0</ele><time>2026-05-01T15:34:13.515Z</time></trkpt><trkpt lat="43.4407262" lon="12.4381788"><ele>514.0</ele><time>2026-05-01T15:34:14.516Z</time></trkpt><trkpt lat="43.4406123" lon="12.4379095"><ele>514.0</ele><time>2026-05-01T15:34:15.516Z</time></trkpt><trkpt lat="43.4405017" lon="12.4376514"><ele>514.0</ele><time>2026-05-01T15:34:16.515Z</time></trkpt><trkpt lat="43.4403867" lon="12.4373833"><ele>514.0</ele><time>2026-05-01T15:34:17.516Z</time></trkpt><trkpt lat="43.4402758" lon="12.4371187"><ele>512.3333333333334</ele><time>2026-05-01T15:34:18.516Z</time></trkpt><trkpt lat="43.4401624" lon="12.436855"><ele>510.66666666666663</ele><time>2026-05-01T15:34:19.516Z</time></trkpt><trkpt lat="43.4400554" lon="12.4366054"><ele>509.0</ele><time>2026-05-01T15:34:20.516Z</time></trkpt><trkpt lat="43.439952" lon="12.4363653"><ele>508.66666666666663</ele><time>2026-05-01T15:34:21.515Z</time></trkpt><trkpt lat="43.4398626" lon="12.436156"><ele>508.33333333333337</ele><time>2026-05-01T15:34:22.516Z</time></trkpt><trkpt lat="43.4397828" lon="12.4359655"><ele>508.0</ele><time>2026-05-01T15:34:23.515Z</time></trkpt><trkpt lat="43.4397065" lon="12.4357816"><ele>508.0</ele><time>2026-05-01T15:34:24.516Z</time></trkpt><trkpt lat="43.4396351" lon="12.4356111"><ele>508.0</ele><time>2026-05-01T15:34:25.516Z</time></trkpt><trkpt lat="43.4395719" lon="12.4354528"><ele>508.0</ele><time>2026-05-01T15:34:26.516Z</time></trkpt><trkpt lat="43.4395084" lon="12.4353024"><ele>508.0</ele><time>2026-05-01T15:34:27.515Z</time></trkpt><trkpt lat="43.4394484" lon="12.435164"><ele>507.59999999999997</ele><time>2026-05-01T15:34:28.516Z</time></trkpt><trkpt lat="43.439396" lon="12.4350384"><ele>507.19999999999993</ele><time>2026-05-01T15:34:29.516Z</time></trkpt><trkpt lat="43.4393508" lon="12.4349256"><ele>506.8</ele><time>2026-05-01T15:34:30.515Z</time></trkpt><trkpt lat="43.4393141" lon="12.4348154"><ele>506.4</ele><time>2026-05-01T15:34:31.516Z</time></trkpt><trkpt lat="43.4392915" lon="12.4346969"><ele>506.0</ele><time>2026-05-01T15:34:32.516Z</time></trkpt><trkpt lat="43.4392947" lon="12.4345767"><ele>505.4</ele><time>2026-05-01T15:34:33.516Z</time></trkpt><trkpt lat="43.4393503" lon="12.4344966"><ele>504.8</ele><time>2026-05-01T15:34:34.516Z</time></trkpt><trkpt lat="43.4394209" lon="12.4344459"><ele>504.19999999999993</ele><time>2026-05-01T15:34:35.516Z</time></trkpt><trkpt lat="43.4395205" lon="12.4344269"><ele>503.59999999999997</ele><time>2026-05-01T15:34:36.516Z</time></trkpt><trkpt lat="43.4396466" lon="12.4344192"><ele>503.0</ele><time>2026-05-01T15:34:37.516Z</time></trkpt><trkpt lat="43.4397668" lon="12.4344296"><ele>503.0</ele><time>2026-05-01T15:34:38.516Z</time></trkpt><trkpt lat="43.4398989" lon="12.4344307"><ele>503.0</ele><time>2026-05-01T15:34:39.515Z</time></trkpt><trkpt lat="43.440036" lon="12.434431"><ele>503.0</ele><time>2026-05-01T15:34:40.516Z</time></trkpt><trkpt lat="43.4401853" lon="12.4344232"><ele>503.0</ele><time>2026-05-01T15:34:41.516Z</time></trkpt><trkpt lat="43.4403364" lon="12.4344168"><ele>504.66666666666663</ele><time>2026-05-01T15:34:42.516Z</time></trkpt><trkpt lat="43.440499" lon="12.4344177"><ele>506.33333333333337</ele><time>2026-05-01T15:34:43.515Z</time></trkpt><trkpt lat="43.4406643" lon="12.4344177"><ele>508.0</ele><time>2026-05-01T15:34:44.516Z</time></trkpt><trkpt lat="43.4408303" lon="12.4344133"><ele>508.0</ele><time>2026-05-01T15:34:45.516Z</time></trkpt><trkpt lat="43.4409968" lon="12.4344108"><ele>508.0</ele><time>2026-05-01T15:34:46.516Z</time></trkpt><trkpt lat="43.4411635" lon="12.4344104"><ele>508.0</ele><time>2026-05-01T15:34:47.516Z</time></trkpt><trkpt lat="43.4413289" lon="12.4344078"><ele>509.33333333333337</ele><time>2026-05-01T15:34:48.516Z</time></trkpt><trkpt lat="43.4414948" lon="12.4344072"><ele>510.66666666666663</ele><time>2026-05-01T15:34:49.516Z</time></trkpt><trkpt lat="43.4416566" lon="12.4344066"><ele>512.0</ele><time>2026-05-01T15:34:50.516Z</time></trkpt><trkpt lat="43.4418087" lon="12.4344057"><ele>512.0</ele><time>2026-05-01T15:34:51.516Z</time></trkpt><trkpt lat="43.4419626" lon="12.4344087"><ele>512.0</ele><time>2026-05-01T15:34:52.515Z</time></trkpt><trkpt lat="43.4421184" lon="12.4344296"><ele>512.0</ele><time>2026-05-01T15:34:53.515Z</time></trkpt><trkpt lat="43.4422841" lon="12.4344664"><ele>512.3333333333333</ele><time>2026-05-01T15:34:54.516Z</time></trkpt><trkpt lat="43.442457" lon="12.4345211"><ele>512.6666666666666</ele><time>2026-05-01T15:34:55.516Z</time></trkpt><trkpt lat="43.4426211" lon="12.4345811"><ele>513.0</ele><time>2026-05-01T15:34:56.515Z</time></trkpt><trkpt lat="43.4427776" lon="12.4346374"><ele>517.6666666666666</ele><time>2026-05-01T15:34:57.516Z</time></trkpt><trkpt lat="43.4429305" lon="12.4346891"><ele>522.3333333333333</ele><time>2026-05-01T15:34:58.516Z</time></trkpt><trkpt lat="43.4430888" lon="12.4347383"><ele>527.0</ele><time>2026-05-01T15:34:59.516Z</time></trkpt><trkpt lat="43.4432551" lon="12.4347792"><ele>527.0</ele><time>2026-05-01T15:35:00.516Z</time></trkpt><trkpt lat="43.4434242" lon="12.4348227"><ele>527.0</ele><time>2026-05-01T15:35:01.516Z</time></trkpt><trkpt lat="43.4435926" lon="12.4348665"><ele>527.0</ele><time>2026-05-01T15:35:02.516Z</time></trkpt><trkpt lat="43.4437536" lon="12.434909"><ele>526.6666666666666</ele><time>2026-05-01T15:35:03.516Z</time></trkpt><trkpt lat="43.4439109" lon="12.4349559"><ele>526.3333333333334</ele><time>2026-05-01T15:35:04.516Z</time></trkpt><trkpt lat="43.444058" lon="12.4350097"><ele>526.0</ele><time>2026-05-01T15:35:05.515Z</time></trkpt><trkpt lat="43.4441957" lon="12.4350684"><ele>526.0</ele><time>2026-05-01T15:35:06.515Z</time></trkpt><trkpt lat="43.4443308" lon="12.43513"><ele>526.0</ele><time>2026-05-01T15:35:07.515Z</time></trkpt><trkpt lat="43.4444647" lon="12.4351862"><ele>526.0</ele><time>2026-05-01T15:35:08.516Z</time></trkpt><trkpt lat="43.4446015" lon="12.4352268"><ele>526.0</ele><time>2026-05-01T15:35:09.516Z</time></trkpt><trkpt lat="43.4447411" lon="12.4352725"><ele>524.25</ele><time>2026-05-01T15:35:10.516Z</time></trkpt><trkpt lat="43.4448682" lon="12.4353176"><ele>522.5</ele><time>2026-05-01T15:35:11.516Z</time></trkpt><trkpt lat="43.4449998" lon="12.4353614"><ele>520.75</ele><time>2026-05-01T15:35:12.516Z</time></trkpt><trkpt lat="43.4451206" lon="12.4353933"><ele>519.0</ele><time>2026-05-01T15:35:13.516Z</time></trkpt><trkpt lat="43.4452215" lon="12.4354185"><ele>519.0</ele><time>2026-05-01T15:35:14.516Z</time></trkpt><trkpt lat="43.4453228" lon="12.4354564"><ele>519.0</ele><time>2026-05-01T15:35:15.515Z</time></trkpt><trkpt lat="43.4454251" lon="12.4354894"><ele>519.0</ele><time>2026-05-01T15:35:16.515Z</time></trkpt><trkpt lat="43.4455284" lon="12.4355161"><ele>519.0</ele><time>2026-05-01T15:35:17.516Z</time></trkpt><trkpt lat="43.4456326" lon="12.4355477"><ele>519.0</ele><time>2026-05-01T15:35:18.516Z</time></trkpt><trkpt lat="43.4457356" lon="12.4355711"><ele>520.0</ele><time>2026-05-01T15:35:19.515Z</time></trkpt><trkpt lat="43.4458352" lon="12.4355924"><ele>521.0</ele><time>2026-05-01T15:35:20.516Z</time></trkpt><trkpt lat="43.4459283" lon="12.4356096"><ele>522.0</ele><time>2026-05-01T15:35:21.516Z</time></trkpt><trkpt lat="43.4460146" lon="12.4356257"><ele>523.0</ele><time>2026-05-01T15:35:22.515Z</time></trkpt><trkpt lat="43.4460947" lon="12.4356406"><ele>524.0</ele><time>2026-05-01T15:35:23.516Z</time></trkpt><trkpt lat="43.446172" lon="12.4356521"><ele>525.0</ele><time>2026-05-01T15:35:24.516Z</time></trkpt><trkpt lat="43.4462481" lon="12.4356614"><ele>524.4</ele><time>2026-05-01T15:35:25.516Z</time></trkpt><trkpt lat="43.4463186" lon="12.4356402"><ele>523.8</ele><time>2026-05-01T15:35:26.516Z</time></trkpt><trkpt lat="43.4463785" lon="12.435582"><ele>523.2</ele><time>2026-05-01T15:35:27.516Z</time></trkpt><trkpt lat="43.4463907" lon="12.4354626"><ele>522.6</ele><time>2026-05-01T15:35:28.516Z</time></trkpt><trkpt lat="43.4464008" lon="12.4353112"><ele>522.0</ele><time>2026-05-01T15:35:29.516Z</time></trkpt><trkpt lat="43.4464117" lon="12.4351416"><ele>519.3333333333334</ele><time>2026-05-01T15:35:30.515Z</time></trkpt><trkpt lat="43.446437" lon="12.4349471"><ele>516.6666666666667</ele><time>2026-05-01T15:35:31.515Z</time></trkpt><trkpt lat="43.4464617" lon="12.4347418"><ele>514.0</ele><time>2026-05-01T15:35:32.516Z</time></trkpt><trkpt lat="43.4464877" lon="12.4345083"><ele>513.3333333333334</ele><time>2026-05-01T15:35:33.516Z</time></trkpt><trkpt lat="43.4465152" lon="12.4342725"><ele>512.6666666666666</ele><time>2026-05-01T15:35:34.516Z</time></trkpt><trkpt lat="43.4465703" lon="12.4340358"><ele>512.0</ele><time>2026-05-01T15:35:35.515Z</time></trkpt><trkpt lat="43.4466595" lon="12.4338232"><ele>512.0</ele><time>2026-05-01T15:35:36.515Z</time></trkpt><trkpt lat="43.4467604" lon="12.4336049"><ele>512.0</ele><time>2026-05-01T15:35:37.515Z</time></trkpt><trkpt lat="43.4468655" lon="12.4333823"><ele>512.0</ele><time>2026-05-01T15:35:38.516Z</time></trkpt><trkpt lat="43.4469782" lon="12.433155"><ele>513.6666666666666</ele><time>2026-05-01T15:35:39.516Z</time></trkpt><trkpt lat="43.4470969" lon="12.4329181"><ele>515.3333333333334</ele><time>2026-05-01T15:35:40.516Z</time></trkpt><trkpt lat="43.4472201" lon="12.4326719"><ele>517.0</ele><time>2026-05-01T15:35:41.515Z</time></trkpt><trkpt lat="43.4473459" lon="12.4324137"><ele>517.0</ele><time>2026-05-01T15:35:42.516Z</time></trkpt><trkpt lat="43.4474726" lon="12.432169"><ele>517.0</ele><time>2026-05-01T15:35:43.516Z</time></trkpt><trkpt lat="43.4475924" lon="12.4319241"><ele>517.0</ele><time>2026-05-01T15:35:44.516Z</time></trkpt><trkpt lat="43.4477127" lon="12.4316782"><ele>518.3333333333334</ele><time>2026-05-01T15:35:45.516Z</time></trkpt><trkpt lat="43.44783" lon="12.4314184"><ele>519.6666666666666</ele><time>2026-05-01T15:35:46.516Z</time></trkpt><trkpt lat="43.4479247" lon="12.4311493"><ele>521.0</ele><time>2026-05-01T15:35:47.515Z</time></trkpt><trkpt lat="43.4480113" lon="12.4308898"><ele>527.6666666666666</ele><time>2026-05-01T15:35:48.516Z</time></trkpt><trkpt lat="43.4480942" lon="12.4306458"><ele>534.3333333333334</ele><time>2026-05-01T15:35:49.515Z</time></trkpt><trkpt lat="43.4481737" lon="12.4303974"><ele>541.0</ele><time>2026-05-01T15:35:50.515Z</time></trkpt><trkpt lat="43.4482599" lon="12.4301567"><ele>541.3333333333334</ele><time>2026-05-01T15:35:51.515Z</time></trkpt><trkpt lat="43.4483479" lon="12.4299149"><ele>541.6666666666666</ele><time>2026-05-01T15:35:52.516Z</time></trkpt><trkpt lat="43.4484392" lon="12.4296732"><ele>542.0</ele><time>2026-05-01T15:35:53.516Z</time></trkpt><trkpt lat="43.4485381" lon="12.4294225"><ele>540.3333333333333</ele><time>2026-05-01T15:35:54.516Z</time></trkpt><trkpt lat="43.4486332" lon="12.4291783"><ele>538.6666666666666</ele><time>2026-05-01T15:35:55.516Z</time></trkpt><trkpt lat="43.4487274" lon="12.4289434"><ele>537.0</ele><time>2026-05-01T15:35:56.515Z</time></trkpt><trkpt lat="43.4488138" lon="12.4287205"><ele>542.0</ele><time>2026-05-01T15:35:57.515Z</time></trkpt><trkpt lat="43.4488939" lon="12.4285051"><ele>547.0</ele><time>2026-05-01T15:35:58.515Z</time></trkpt><trkpt lat="43.4489771" lon="12.428298"><ele>552.0</ele><time>2026-05-01T15:35:59.516Z</time></trkpt><trkpt lat="43.4490711" lon="12.4281036"><ele>551.6666666666666</ele><time>2026-05-01T15:36:00.516Z</time></trkpt><trkpt lat="43.4491732" lon="12.427928"><ele>551.3333333333333</ele><time>2026-05-01T15:36:01.515Z</time></trkpt><trkpt lat="43.4492893" lon="12.4277804"><ele>551.0</ele><time>2026-05-01T15:36:02.516Z</time></trkpt><trkpt lat="43.4494105" lon="12.4276368"><ele>551.0</ele><time>2026-05-01T15:36:03.515Z</time></trkpt><trkpt lat="43.4495355" lon="12.4275096"><ele>551.0</ele><time>2026-05-01T15:36:04.515Z</time></trkpt><trkpt lat="43.4496633" lon="12.4273933"><ele>551.0</ele><time>2026-05-01T15:36:05.516Z</time></trkpt><trkpt lat="43.4497722" lon="12.4272858"><ele>551.0</ele><time>2026-05-01T15:36:06.516Z</time></trkpt><trkpt lat="43.4498676" lon="12.4271964"><ele>554.8</ele><time>2026-05-01T15:36:07.516Z</time></trkpt><trkpt lat="43.4499467" lon="12.4271032"><ele>558.6</ele><time>2026-05-01T15:36:08.516Z</time></trkpt><trkpt lat="43.4500019" lon="12.4270019"><ele>562.4</ele><time>2026-05-01T15:36:09.516Z</time></trkpt><trkpt lat="43.4500199" lon="12.4268645"><ele>566.2</ele><time>2026-05-01T15:36:10.516Z</time></trkpt><trkpt lat="43.4500046" lon="12.4267066"><ele>570.0</ele><time>2026-05-01T15:36:11.516Z</time></trkpt><trkpt lat="43.4499569" lon="12.4265594"><ele>570.0</ele><time>2026-05-01T15:36:12.516Z</time></trkpt><trkpt lat="43.4498701" lon="12.4264379"><ele>570.0</ele><time>2026-05-01T15:36:13.516Z</time></trkpt><trkpt lat="43.4497653" lon="12.4263248"><ele>570.0</ele><time>2026-05-01T15:36:14.516Z</time></trkpt><trkpt lat="43.4496533" lon="12.4262291"><ele>570.0</ele><time>2026-05-01T15:36:15.516Z</time></trkpt><trkpt lat="43.4495252" lon="12.4261719"><ele>572.5</ele><time>2026-05-01T15:36:16.516Z</time></trkpt><trkpt lat="43.4493878" lon="12.4261283"><ele>575.0</ele><time>2026-05-01T15:36:17.516Z</time></trkpt><trkpt lat="43.4492471" lon="12.4260787"><ele>577.5</ele><time>2026-05-01T15:36:18.516Z</time></trkpt><trkpt lat="43.4491062" lon="12.4260207"><ele>580.0</ele><time>2026-05-01T15:36:19.515Z</time></trkpt><trkpt lat="43.4489655" lon="12.4259608"><ele>580.0</ele><time>2026-05-01T15:36:20.515Z</time></trkpt><trkpt lat="43.4488207" lon="12.4259072"><ele>580.0</ele><time>2026-05-01T15:36:21.516Z</time></trkpt><trkpt lat="43.4486803" lon="12.425855"><ele>580.0</ele><time>2026-05-01T15:36:22.516Z</time></trkpt><trkpt lat="43.4485384" lon="12.425814"><ele>580.0</ele><time>2026-05-01T15:36:23.516Z</time></trkpt><trkpt lat="43.4483912" lon="12.4257947"><ele>579.6666666666667</ele><time>2026-05-01T15:36:24.516Z</time></trkpt><trkpt lat="43.4482345" lon="12.4257992"><ele>579.3333333333334</ele><time>2026-05-01T15:36:25.516Z</time></trkpt><trkpt lat="43.4480773" lon="12.4258238"><ele>579.0</ele><time>2026-05-01T15:36:26.516Z</time></trkpt><trkpt lat="43.4479273" lon="12.4258783"><ele>580.25</ele><time>2026-05-01T15:36:27.515Z</time></trkpt><trkpt lat="43.4477851" lon="12.4259346"><ele>581.5</ele><time>2026-05-01T15:36:28.515Z</time></trkpt><trkpt lat="43.4476515" lon="12.4259964"><ele>582.75</ele><time>2026-05-01T15:36:29.515Z</time></trkpt><trkpt lat="43.4475293" lon="12.4260576"><ele>584.0</ele><time>2026-05-01T15:36:30.516Z</time></trkpt><trkpt lat="43.4474105" lon="12.4261206"><ele>584.0</ele><time>2026-05-01T15:36:31.516Z</time></trkpt><trkpt lat="43.4473001" lon="12.4261738"><ele>584.0</ele><time>2026-05-01T15:36:32.516Z</time></trkpt><trkpt lat="43.4472042" lon="12.4262134"><ele>584.0</ele><time>2026-05-01T15:36:33.515Z</time></trkpt><trkpt lat="43.4471142" lon="12.4262255"><ele>584.0</ele><time>2026-05-01T15:36:34.515Z</time></trkpt><trkpt lat="43.4470335" lon="12.4262286"><ele>584.0</ele><time>2026-05-01T15:36:35.516Z</time></trkpt><trkpt lat="43.4469664" lon="12.4262205"><ele>583.3333333333333</ele><time>2026-05-01T15:36:36.515Z</time></trkpt><trkpt lat="43.4468945" lon="12.4261776"><ele>582.6666666666666</ele><time>2026-05-01T15:36:38.515Z</time></trkpt><trkpt lat="43.4468355" lon="12.4261233"><ele>582.0</ele><time>2026-05-01T15:36:41.516Z</time></trkpt><trkpt lat="43.4467633" lon="12.4261306"><ele>581.3333333333334</ele><time>2026-05-01T15:36:46.516Z</time></trkpt><trkpt lat="43.4466598" lon="12.4262071"><ele>580.6666666666667</ele><time>2026-05-01T15:36:48.516Z</time></trkpt><trkpt lat="43.4465824" lon="12.4262589"><ele>580.0</ele><time>2026-05-01T15:36:49.516Z</time></trkpt><trkpt lat="43.446496" lon="12.4263077"><ele>580.2</ele><time>2026-05-01T15:36:50.515Z</time></trkpt><trkpt lat="43.4464004" lon="12.4263531"><ele>580.4</ele><time>2026-05-01T15:36:51.515Z</time></trkpt><trkpt lat="43.4463064" lon="12.4263892"><ele>580.6</ele><time>2026-05-01T15:36:52.515Z</time></trkpt><trkpt lat="43.4461943" lon="12.4264312"><ele>580.8</ele><time>2026-05-01T15:36:53.515Z</time></trkpt><trkpt lat="43.4460713" lon="12.4264838"><ele>581.0</ele><time>2026-05-01T15:36:54.516Z</time></trkpt><trkpt lat="43.4459485" lon="12.4265382"><ele>583.25</ele><time>2026-05-01T15:36:55.516Z</time></trkpt><trkpt lat="43.4458209" lon="12.4265854"><ele>585.5</ele><time>2026-05-01T15:36:56.516Z</time></trkpt><trkpt lat="43.4456809" lon="12.4266071"><ele>587.75</ele><time>2026-05-01T15:36:57.516Z</time></trkpt><trkpt lat="43.4455343" lon="12.4266031"><ele>590.0</ele><time>2026-05-01T15:36:58.515Z</time></trkpt><trkpt lat="43.4453942" lon="12.426579"><ele>589.5</ele><time>2026-05-01T15:36:59.516Z</time></trkpt><trkpt lat="43.4452533" lon="12.4265301"><ele>589.0</ele><time>2026-05-01T15:37:00.515Z</time></trkpt><trkpt lat="43.4451249" lon="12.4264513"><ele>588.5</ele><time>2026-05-01T15:37:01.515Z</time></trkpt><trkpt lat="43.445001" lon="12.4263578"><ele>588.0</ele><time>2026-05-01T15:37:02.516Z</time></trkpt><trkpt lat="43.4448781" lon="12.4262699"><ele>588.0</ele><time>2026-05-01T15:37:03.516Z</time></trkpt><trkpt lat="43.4447532" lon="12.4261827"><ele>588.0</ele><time>2026-05-01T15:37:04.515Z</time></trkpt><trkpt lat="43.4446333" lon="12.4260889"><ele>588.0</ele><time>2026-05-01T15:37:05.516Z</time></trkpt><trkpt lat="43.4445258" lon="12.4259871"><ele>588.0</ele><time>2026-05-01T15:37:06.515Z</time></trkpt><trkpt lat="43.4444208" lon="12.4258897"><ele>589.5</ele><time>2026-05-01T15:37:07.516Z</time></trkpt><trkpt lat="43.4443152" lon="12.4258021"><ele>591.0</ele><time>2026-05-01T15:37:08.516Z</time></trkpt><trkpt lat="43.4441985" lon="12.4257352"><ele>592.5</ele><time>2026-05-01T15:37:09.515Z</time></trkpt><trkpt lat="43.4440677" lon="12.4257019"><ele>594.0</ele><time>2026-05-01T15:37:10.516Z</time></trkpt><trkpt lat="43.4439207" lon="12.4256943"><ele>593.5</ele><time>2026-05-01T15:37:11.516Z</time></trkpt><trkpt lat="43.4437792" lon="12.4256918"><ele>593.0</ele><time>2026-05-01T15:37:12.516Z</time></trkpt><trkpt lat="43.4436455" lon="12.4256717"><ele>592.5</ele><time>2026-05-01T15:37:13.516Z</time></trkpt><trkpt lat="43.44351" lon="12.4256416"><ele>592.0</ele><time>2026-05-01T15:37:14.515Z</time></trkpt><trkpt lat="43.4433726" lon="12.425597"><ele>592.0</ele><time>2026-05-01T15:37:15.516Z</time></trkpt><trkpt lat="43.4432356" lon="12.4255525"><ele>592.0</ele><time>2026-05-01T15:37:16.515Z</time></trkpt><trkpt lat="43.4431067" lon="12.4255121"><ele>592.0</ele><time>2026-05-01T15:37:17.516Z</time></trkpt><trkpt lat="43.4429915" lon="12.425475"><ele>592.0</ele><time>2026-05-01T15:37:18.517Z</time></trkpt><trkpt lat="43.4428843" lon="12.4254382"><ele>590.8000000000001</ele><time>2026-05-01T15:37:19.517Z</time></trkpt><trkpt lat="43.4427757" lon="12.4254115"><ele>589.6</ele><time>2026-05-01T15:37:20.516Z</time></trkpt><trkpt lat="43.442672" lon="12.4253894"><ele>588.4000000000001</ele><time>2026-05-01T15:37:21.516Z</time></trkpt><trkpt lat="43.4425766" lon="12.4253697"><ele>587.2</ele><time>2026-05-01T15:37:22.517Z</time></trkpt><trkpt lat="43.4424794" lon="12.4253475"><ele>586.0</ele><time>2026-05-01T15:37:23.517Z</time></trkpt><trkpt lat="43.4423769" lon="12.4253203"><ele>586.0</ele><time>2026-05-01T15:37:24.517Z</time></trkpt><trkpt lat="43.4422683" lon="12.4253005"><ele>586.0</ele><time>2026-05-01T15:37:25.516Z</time></trkpt><trkpt lat="43.442158" lon="12.4252806"><ele>586.0</ele><time>2026-05-01T15:37:26.516Z</time></trkpt><trkpt lat="43.4420542" lon="12.4252614"><ele>586.0</ele><time>2026-05-01T15:37:27.516Z</time></trkpt><trkpt lat="43.4419539" lon="12.4252458"><ele>586.0</ele><time>2026-05-01T15:37:28.517Z</time></trkpt><trkpt lat="43.4418421" lon="12.4252341"><ele>585.75</ele><time>2026-05-01T15:37:29.517Z</time></trkpt><trkpt lat="43.4417278" lon="12.4252022"><ele>585.5</ele><time>2026-05-01T15:37:30.516Z</time></trkpt><trkpt lat="43.4416206" lon="12.4251476"><ele>585.25</ele><time>2026-05-01T15:37:31.516Z</time></trkpt><trkpt lat="43.4415273" lon="12.4250618"><ele>585.0</ele><time>2026-05-01T15:37:32.517Z</time></trkpt><trkpt lat="43.4414504" lon="12.4249427"><ele>585.0</ele><time>2026-05-01T15:37:33.517Z</time></trkpt><trkpt lat="43.4413804" lon="12.4247839"><ele>585.0</ele><time>2026-05-01T15:37:34.517Z</time></trkpt><trkpt lat="43.4413385" lon="12.4245926"><ele>585.0</ele><time>2026-05-01T15:37:35.517Z</time></trkpt><trkpt lat="43.4413236" lon="12.4243886"><ele>585.0</ele><time>2026-05-01T15:37:36.516Z</time></trkpt><trkpt lat="43.4413232" lon="12.4241928"><ele>582.25</ele><time>2026-05-01T15:37:37.517Z</time></trkpt><trkpt lat="43.441333" lon="12.4240119"><ele>579.5</ele><time>2026-05-01T15:37:38.517Z</time></trkpt><trkpt lat="43.4413623" lon="12.4238516"><ele>576.75</ele><time>2026-05-01T15:37:39.517Z</time></trkpt><trkpt lat="43.4413987" lon="12.4236966"><ele>574.0</ele><time>2026-05-01T15:37:40.517Z</time></trkpt><trkpt lat="43.4414461" lon="12.4235714"><ele>574.0</ele><time>2026-05-01T15:37:41.516Z</time></trkpt><trkpt lat="43.4415052" lon="12.4234663"><ele>574.0</ele><time>2026-05-01T15:37:42.517Z</time></trkpt><trkpt lat="43.4415675" lon="12.4233772"><ele>574.0</ele><time>2026-05-01T15:37:43.517Z</time></trkpt><trkpt lat="43.4416268" lon="12.4232837"><ele>574.0</ele><time>2026-05-01T15:37:44.517Z</time></trkpt><trkpt lat="43.4416835" lon="12.4231911"><ele>574.0</ele><time>2026-05-01T15:37:45.517Z</time></trkpt><trkpt lat="43.441727" lon="12.4230814"><ele>574.8</ele><time>2026-05-01T15:37:46.516Z</time></trkpt><trkpt lat="43.4417301" lon="12.4229453"><ele>575.5999999999999</ele><time>2026-05-01T15:37:47.516Z</time></trkpt><trkpt lat="43.4417113" lon="12.4227933"><ele>576.4</ele><time>2026-05-01T15:37:48.516Z</time></trkpt><trkpt lat="43.4416796" lon="12.4226358"><ele>577.1999999999999</ele><time>2026-05-01T15:37:49.516Z</time></trkpt><trkpt lat="43.4416498" lon="12.42248"><ele>578.0</ele><time>2026-05-01T15:37:50.517Z</time></trkpt><trkpt lat="43.4416287" lon="12.4223241"><ele>578.0</ele><time>2026-05-01T15:37:51.517Z</time></trkpt><trkpt lat="43.4416045" lon="12.4221875"><ele>578.0</ele><time>2026-05-01T15:37:52.517Z</time></trkpt><trkpt lat="43.4415856" lon="12.4220775"><ele>578.0</ele><time>2026-05-01T15:37:53.516Z</time></trkpt><trkpt lat="43.4415489" lon="12.4219825"><ele>578.0</ele><time>2026-05-01T15:37:54.516Z</time></trkpt><trkpt lat="43.4414947" lon="12.4218963"><ele>578.0</ele><time>2026-05-01T15:37:55.516Z</time></trkpt><trkpt lat="43.4414118" lon="12.4218213"><ele>578.0</ele><time>2026-05-01T15:37:56.516Z</time></trkpt><trkpt lat="43.4413041" lon="12.4217673"><ele>576.5</ele><time>2026-05-01T15:37:57.517Z</time></trkpt><trkpt lat="43.4411962" lon="12.421704"><ele>575.0</ele><time>2026-05-01T15:37:58.517Z</time></trkpt><trkpt lat="43.4410806" lon="12.4216478"><ele>573.5</ele><time>2026-05-01T15:37:59.517Z</time></trkpt><trkpt lat="43.440965" lon="12.4215845"><ele>572.0</ele><time>2026-05-01T15:38:00.516Z</time></trkpt><trkpt lat="43.4408472" lon="12.4215077"><ele>572.0</ele><time>2026-05-01T15:38:01.517Z</time></trkpt><trkpt lat="43.4407313" lon="12.4214141"><ele>572.0</ele><time>2026-05-01T15:38:02.517Z</time></trkpt><trkpt lat="43.4406092" lon="12.421302"><ele>572.0</ele><time>2026-05-01T15:38:03.517Z</time></trkpt><trkpt lat="43.4404879" lon="12.4211845"><ele>572.0</ele><time>2026-05-01T15:38:04.517Z</time></trkpt><trkpt lat="43.4403686" lon="12.4210633"><ele>570.0</ele><time>2026-05-01T15:38:05.517Z</time></trkpt><trkpt lat="43.4402609" lon="12.4209396"><ele>568.0</ele><time>2026-05-01T15:38:06.517Z</time></trkpt><trkpt lat="43.4401657" lon="12.4208142"><ele>566.0</ele><time>2026-05-01T15:38:07.517Z</time></trkpt><trkpt lat="43.4400772" lon="12.420698"><ele>564.0</ele><time>2026-05-01T15:38:08.517Z</time></trkpt><trkpt lat="43.4399906" lon="12.4205807"><ele>560.25</ele><time>2026-05-01T15:38:09.516Z</time></trkpt><trkpt lat="43.4398968" lon="12.4204677"><ele>556.5</ele><time>2026-05-01T15:38:10.517Z</time></trkpt><trkpt lat="43.4397882" lon="12.4203738"><ele>552.75</ele><time>2026-05-01T15:38:11.517Z</time></trkpt><trkpt lat="43.4396769" lon="12.4203055"><ele>549.0</ele><time>2026-05-01T15:38:12.517Z</time></trkpt><trkpt lat="43.4395524" lon="12.4202428"><ele>549.0</ele><time>2026-05-01T15:38:13.516Z</time></trkpt><trkpt lat="43.4394233" lon="12.4201644"><ele>549.0</ele><time>2026-05-01T15:38:14.517Z</time></trkpt><trkpt lat="43.4393017" lon="12.4200795"><ele>549.0</ele><time>2026-05-01T15:38:15.517Z</time></trkpt><trkpt lat="43.4391915" lon="12.4199863"><ele>549.0</ele><time>2026-05-01T15:38:16.517Z</time></trkpt><trkpt lat="43.4391053" lon="12.419891"><ele>549.0</ele><time>2026-05-01T15:38:17.517Z</time></trkpt><trkpt lat="43.4390466" lon="12.4197708"><ele>549.0</ele><time>2026-05-01T15:38:18.517Z</time></trkpt><trkpt lat="43.4390134" lon="12.4196258"><ele>549.0</ele><time>2026-05-01T15:38:19.516Z</time></trkpt><trkpt lat="43.4390148" lon="12.419456"><ele>549.0</ele><time>2026-05-01T15:38:20.517Z</time></trkpt><trkpt lat="43.439047" lon="12.4193097"><ele>547.6</ele><time>2026-05-01T15:38:21.516Z</time></trkpt><trkpt lat="43.4390946" lon="12.4191774"><ele>546.2</ele><time>2026-05-01T15:38:22.516Z</time></trkpt><trkpt lat="43.4391532" lon="12.4190578"><ele>544.8000000000001</ele><time>2026-05-01T15:38:23.517Z</time></trkpt><trkpt lat="43.4392093" lon="12.4189324"><ele>543.4</ele><time>2026-05-01T15:38:24.517Z</time></trkpt><trkpt lat="43.4392687" lon="12.4188208"><ele>542.0</ele><time>2026-05-01T15:38:25.517Z</time></trkpt><trkpt lat="43.4393151" lon="12.4186894"><ele>542.0</ele><time>2026-05-01T15:38:26.517Z</time></trkpt><trkpt lat="43.4393737" lon="12.4185954"><ele>542.0</ele><time>2026-05-01T15:38:27.517Z</time></trkpt><trkpt lat="43.4394495" lon="12.4184923"><ele>542.0</ele><time>2026-05-01T15:38:28.517Z</time></trkpt><trkpt lat="43.4395478" lon="12.4183972"><ele>542.0</ele><time>2026-05-01T15:38:29.517Z</time></trkpt><trkpt lat="43.4396307" lon="12.4183283"><ele>542.0</ele><time>2026-05-01T15:38:30.517Z</time></trkpt><trkpt lat="43.4397028" lon="12.4182733"><ele>539.8000000000001</ele><time>2026-05-01T15:38:31.516Z</time></trkpt><trkpt lat="43.4397533" lon="12.4181818"><ele>537.6</ele><time>2026-05-01T15:38:32.517Z</time></trkpt><trkpt lat="43.4397734" lon="12.4180693"><ele>535.4000000000001</ele><time>2026-05-01T15:38:33.517Z</time></trkpt><trkpt lat="43.4397469" lon="12.417946"><ele>533.2</ele><time>2026-05-01T15:38:34.517Z</time></trkpt><trkpt lat="43.4396764" lon="12.4178505"><ele>531.0</ele><time>2026-05-01T15:38:35.517Z</time></trkpt><trkpt lat="43.4395924" lon="12.4177642"><ele>531.0</ele><time>2026-05-01T15:38:36.517Z</time></trkpt><trkpt lat="43.4394996" lon="12.4176716"><ele>531.0</ele><time>2026-05-01T15:38:37.517Z</time></trkpt><trkpt lat="43.4394185" lon="12.4175809"><ele>531.0</ele><time>2026-05-01T15:38:38.517Z</time></trkpt><trkpt lat="43.4393497" lon="12.41747"><ele>531.0</ele><time>2026-05-01T15:38:39.516Z</time></trkpt><trkpt lat="43.4392975" lon="12.4173705"><ele>531.0</ele><time>2026-05-01T15:38:40.517Z</time></trkpt><trkpt lat="43.4392536" lon="12.4172309"><ele>528.0</ele><time>2026-05-01T15:38:41.517Z</time></trkpt><trkpt lat="43.4392426" lon="12.4170807"><ele>525.0</ele><time>2026-05-01T15:38:42.517Z</time></trkpt><trkpt lat="43.4392392" lon="12.4169332"><ele>522.0</ele><time>2026-05-01T15:38:43.517Z</time></trkpt><trkpt lat="43.4392212" lon="12.4167846"><ele>519.0</ele><time>2026-05-01T15:38:44.517Z</time></trkpt><trkpt lat="43.4391992" lon="12.4166372"><ele>516.0</ele><time>2026-05-01T15:38:45.517Z</time></trkpt><trkpt lat="43.4391649" lon="12.4164777"><ele>512.75</ele><time>2026-05-01T15:38:46.517Z</time></trkpt><trkpt lat="43.4391127" lon="12.4163163"><ele>509.5</ele><time>2026-05-01T15:38:47.517Z</time></trkpt><trkpt lat="43.4390552" lon="12.4161616"><ele>506.25</ele><time>2026-05-01T15:38:48.517Z</time></trkpt><trkpt lat="43.4389974" lon="12.4159905"><ele>503.0</ele><time>2026-05-01T15:38:49.517Z</time></trkpt><trkpt lat="43.4389368" lon="12.4158334"><ele>503.0</ele><time>2026-05-01T15:38:50.517Z</time></trkpt><trkpt lat="43.4388649" lon="12.4156912"><ele>503.0</ele><time>2026-05-01T15:38:51.516Z</time></trkpt><trkpt lat="43.4387816" lon="12.4155378"><ele>503.0</ele><time>2026-05-01T15:38:52.517Z</time></trkpt><trkpt lat="43.4386946" lon="12.4153813"><ele>503.0</ele><time>2026-05-01T15:38:53.517Z</time></trkpt><trkpt lat="43.438608" lon="12.4152232"><ele>503.5</ele><time>2026-05-01T15:38:54.517Z</time></trkpt><trkpt lat="43.438527" lon="12.4150568"><ele>504.0</ele><time>2026-05-01T15:38:55.517Z</time></trkpt><trkpt lat="43.4384627" lon="12.4148905"><ele>504.5</ele><time>2026-05-01T15:38:56.516Z</time></trkpt><trkpt lat="43.4384287" lon="12.4147335"><ele>505.0</ele><time>2026-05-01T15:38:57.517Z</time></trkpt><trkpt lat="43.4384264" lon="12.4145708"><ele>501.25</ele><time>2026-05-01T15:38:58.516Z</time></trkpt><trkpt lat="43.4384216" lon="12.4144045"><ele>497.5</ele><time>2026-05-01T15:38:59.517Z</time></trkpt><trkpt lat="43.4384309" lon="12.4142421"><ele>493.75</ele><time>2026-05-01T15:39:00.517Z</time></trkpt><trkpt lat="43.4384388" lon="12.4140851"><ele>490.0</ele><time>2026-05-01T15:39:01.517Z</time></trkpt><trkpt lat="43.4384412" lon="12.4139385"><ele>488.0</ele><time>2026-05-01T15:39:02.517Z</time></trkpt><trkpt lat="43.4384314" lon="12.4137971"><ele>486.0</ele><time>2026-05-01T15:39:03.517Z</time></trkpt><trkpt lat="43.4384119" lon="12.413662"><ele>484.0</ele><time>2026-05-01T15:39:04.517Z</time></trkpt><trkpt lat="43.4383774" lon="12.4135207"><ele>482.0</ele><time>2026-05-01T15:39:05.517Z</time></trkpt><trkpt lat="43.4383242" lon="12.4133736"><ele>480.0</ele><time>2026-05-01T15:39:06.516Z</time></trkpt><trkpt lat="43.4382664" lon="12.413215"><ele>480.0</ele><time>2026-05-01T15:39:07.517Z</time></trkpt><trkpt lat="43.4381836" lon="12.4130528"><ele>480.0</ele><time>2026-05-01T15:39:08.517Z</time></trkpt><trkpt lat="43.4380995" lon="12.4128829"><ele>480.0</ele><time>2026-05-01T15:39:09.517Z</time></trkpt><trkpt lat="43.4380211" lon="12.4127031"><ele>480.0</ele><time>2026-05-01T15:39:10.516Z</time></trkpt><trkpt lat="43.4379631" lon="12.4125268"><ele>482.0</ele><time>2026-05-01T15:39:11.517Z</time></trkpt><trkpt lat="43.4379131" lon="12.4123586"><ele>484.0</ele><time>2026-05-01T15:39:12.517Z</time></trkpt><trkpt lat="43.4378826" lon="12.4121919"><ele>486.0</ele><time>2026-05-01T15:39:13.517Z</time></trkpt><trkpt lat="43.4378628" lon="12.412034"><ele>488.0</ele><time>2026-05-01T15:39:14.517Z</time></trkpt><trkpt lat="43.4378425" lon="12.4119026"><ele>483.4</ele><time>2026-05-01T15:39:15.516Z</time></trkpt><trkpt lat="43.4378077" lon="12.4117839"><ele>478.79999999999995</ele><time>2026-05-01T15:39:16.516Z</time></trkpt><trkpt lat="43.4377614" lon="12.4116768"><ele>474.2</ele><time>2026-05-01T15:39:17.517Z</time></trkpt><trkpt lat="43.437696" lon="12.4116034"><ele>469.6</ele><time>2026-05-01T15:39:18.517Z</time></trkpt><trkpt lat="43.4376099" lon="12.4115731"><ele>465.0</ele><time>2026-05-01T15:39:19.517Z</time></trkpt><trkpt lat="43.4375044" lon="12.4115679"><ele>465.0</ele><time>2026-05-01T15:39:20.517Z</time></trkpt><trkpt lat="43.4374002" lon="12.4115749"><ele>465.0</ele><time>2026-05-01T15:39:21.517Z</time></trkpt><trkpt lat="43.4372958" lon="12.4116036"><ele>465.0</ele><time>2026-05-01T15:39:22.516Z</time></trkpt><trkpt lat="43.4372104" lon="12.4116019"><ele>465.0</ele><time>2026-05-01T15:39:23.516Z</time></trkpt><trkpt lat="43.4371382" lon="12.4115693"><ele>465.0</ele><time>2026-05-01T15:39:25.517Z</time></trkpt><trkpt lat="43.4370717" lon="12.4115273"><ele>465.0</ele><time>2026-05-01T15:39:27.516Z</time></trkpt><trkpt lat="43.4370178" lon="12.4114721"><ele>467.3333333333333</ele><time>2026-05-01T15:39:29.517Z</time></trkpt><trkpt lat="43.4369844" lon="12.41139"><ele>469.66666666666663</ele><time>2026-05-01T15:39:31.517Z</time></trkpt><trkpt lat="43.4369823" lon="12.4112691"><ele>472.0</ele><time>2026-05-01T15:39:33.517Z</time></trkpt><trkpt lat="43.4369867" lon="12.4111815"><ele>474.3333333333333</ele><time>2026-05-01T15:39:34.517Z</time></trkpt><trkpt lat="43.4370064" lon="12.4110281"><ele>476.66666666666663</ele><time>2026-05-01T15:39:36.517Z</time></trkpt><trkpt lat="43.437046" lon="12.4108899"><ele>479.0</ele><time>2026-05-01T15:39:38.516Z</time></trkpt><trkpt lat="43.4370597" lon="12.4107965"><ele>479.0</ele><time>2026-05-01T15:39:39.516Z</time></trkpt><trkpt lat="43.4370638" lon="12.4106824"><ele>479.0</ele><time>2026-05-01T15:39:40.517Z</time></trkpt><trkpt lat="43.4370421" lon="12.4105555"><ele>479.0</ele><time>2026-05-01T15:39:41.517Z</time></trkpt><trkpt lat="43.4369997" lon="12.4104056"><ele>479.0</ele><time>2026-05-01T15:39:42.517Z</time></trkpt><trkpt lat="43.4369406" lon="12.4102307"><ele>479.0</ele><time>2026-05-01T15:39:43.517Z</time></trkpt><trkpt lat="43.4368803" lon="12.4100513"><ele>475.3333333333333</ele><time>2026-05-01T15:39:44.517Z</time></trkpt><trkpt lat="43.4368243" lon="12.4098549"><ele>471.66666666666663</ele><time>2026-05-01T15:39:45.517Z</time></trkpt><trkpt lat="43.4367795" lon="12.4096583"><ele>468.0</ele><time>2026-05-01T15:39:46.517Z</time></trkpt><trkpt lat="43.4367311" lon="12.4094559"><ele>464.66666666666663</ele><time>2026-05-01T15:39:47.516Z</time></trkpt><trkpt lat="43.4366841" lon="12.409249"><ele>461.3333333333333</ele><time>2026-05-01T15:39:48.517Z</time></trkpt><trkpt lat="43.4366364" lon="12.4090464"><ele>458.0</ele><time>2026-05-01T15:39:49.517Z</time></trkpt><trkpt lat="43.4365963" lon="12.408851"><ele>455.5</ele><time>2026-05-01T15:39:50.516Z</time></trkpt><trkpt lat="43.436556" lon="12.4086582"><ele>453.0</ele><time>2026-05-01T15:39:51.517Z</time></trkpt><trkpt lat="43.4365112" lon="12.4084694"><ele>450.5</ele><time>2026-05-01T15:39:52.516Z</time></trkpt><trkpt lat="43.436462" lon="12.4082939"><ele>448.0</ele><time>2026-05-01T15:39:53.517Z</time></trkpt><trkpt lat="43.4364151" lon="12.4081528"><ele>448.0</ele><time>2026-05-01T15:39:54.517Z</time></trkpt><trkpt lat="43.4363604" lon="12.4080308"><ele>447.99999999999994</ele><time>2026-05-01T15:39:55.517Z</time></trkpt><trkpt lat="43.4363137" lon="12.4079214"><ele>447.99999999999994</ele><time>2026-05-01T15:39:56.516Z</time></trkpt><trkpt lat="43.4362574" lon="12.4078242"><ele>448.0</ele><time>2026-05-01T15:39:57.517Z</time></trkpt><trkpt lat="43.4362032" lon="12.4077179"><ele>448.0</ele><time>2026-05-01T15:39:58.516Z</time></trkpt><trkpt lat="43.4361525" lon="12.4075915"><ele>449.2</ele><time>2026-05-01T15:39:59.517Z</time></trkpt><trkpt lat="43.4361216" lon="12.4074375"><ele>450.4</ele><time>2026-05-01T15:40:00.517Z</time></trkpt><trkpt lat="43.436124" lon="12.4072859"><ele>451.59999999999997</ele><time>2026-05-01T15:40:01.517Z</time></trkpt><trkpt lat="43.4361566" lon="12.4071481"><ele>452.79999999999995</ele><time>2026-05-01T15:40:02.517Z</time></trkpt><trkpt lat="43.4361866" lon="12.4070211"><ele>454.0</ele><time>2026-05-01T15:40:03.517Z</time></trkpt><trkpt lat="43.4361973" lon="12.406881"><ele>454.0</ele><time>2026-05-01T15:40:04.517Z</time></trkpt><trkpt lat="43.4361717" lon="12.4067404"><ele>454.0</ele><time>2026-05-01T15:40:05.517Z</time></trkpt><trkpt lat="43.4361057" lon="12.4066169"><ele>454.0</ele><time>2026-05-01T15:40:06.516Z</time></trkpt><trkpt lat="43.4360069" lon="12.4065103"><ele>454.0</ele><time>2026-05-01T15:40:07.517Z</time></trkpt><trkpt lat="43.4358955" lon="12.4064261"><ele>454.0</ele><time>2026-05-01T15:40:08.517Z</time></trkpt><trkpt lat="43.4357707" lon="12.4063434"><ele>454.0</ele><time>2026-05-01T15:40:09.517Z</time></trkpt><trkpt lat="43.4356453" lon="12.4062716"><ele>454.0</ele><time>2026-05-01T15:40:10.517Z</time></trkpt><trkpt lat="43.4355212" lon="12.4061832"><ele>454.0</ele><time>2026-05-01T15:40:11.517Z</time></trkpt><trkpt lat="43.4354182" lon="12.4060494"><ele>452.0</ele><time>2026-05-01T15:40:12.517Z</time></trkpt><trkpt lat="43.435339" lon="12.4058889"><ele>450.0</ele><time>2026-05-01T15:40:13.517Z</time></trkpt><trkpt lat="43.4352587" lon="12.4057276"><ele>448.0</ele><time>2026-05-01T15:40:14.516Z</time></trkpt><trkpt lat="43.4351621" lon="12.4055991"><ele>446.0</ele><time>2026-05-01T15:40:15.516Z</time></trkpt><trkpt lat="43.4350556" lon="12.4054948"><ele>446.0</ele><time>2026-05-01T15:40:16.517Z</time></trkpt><trkpt lat="43.4349313" lon="12.4054258"><ele>446.0</ele><time>2026-05-01T15:40:17.517Z</time></trkpt><trkpt lat="43.4347992" lon="12.4053566"><ele>446.0</ele><time>2026-05-01T15:40:18.516Z</time></trkpt><trkpt lat="43.4346684" lon="12.4052677"><ele>446.0</ele><time>2026-05-01T15:40:19.516Z</time></trkpt><trkpt lat="43.4345458" lon="12.4051884"><ele>446.0</ele><time>2026-05-01T15:40:20.517Z</time></trkpt><trkpt lat="43.4344236" lon="12.4050958"><ele>446.0</ele><time>2026-05-01T15:40:21.516Z</time></trkpt><trkpt lat="43.4343266" lon="12.4049838"><ele>446.0</ele><time>2026-05-01T15:40:22.517Z</time></trkpt><trkpt lat="43.4342407" lon="12.4048589"><ele>446.0</ele><time>2026-05-01T15:40:23.517Z</time></trkpt><trkpt lat="43.4341447" lon="12.4047429"><ele>443.0</ele><time>2026-05-01T15:40:24.516Z</time></trkpt><trkpt lat="43.4340377" lon="12.4046382"><ele>440.0</ele><time>2026-05-01T15:40:25.517Z</time></trkpt><trkpt lat="43.433928" lon="12.404555"><ele>437.0</ele><time>2026-05-01T15:40:26.517Z</time></trkpt><trkpt lat="43.4338148" lon="12.404485"><ele>434.0</ele><time>2026-05-01T15:40:27.517Z</time></trkpt><trkpt lat="43.4336776" lon="12.404452"><ele>433.75</ele><time>2026-05-01T15:40:28.517Z</time></trkpt><trkpt lat="43.4335273" lon="12.4044508"><ele>433.5</ele><time>2026-05-01T15:40:29.517Z</time></trkpt><trkpt lat="43.4333717" lon="12.4044435"><ele>433.25</ele><time>2026-05-01T15:40:30.517Z</time></trkpt><trkpt lat="43.4332311" lon="12.4044536"><ele>433.0</ele><time>2026-05-01T15:40:31.517Z</time></trkpt><trkpt lat="43.4330969" lon="12.4044873"><ele>433.0</ele><time>2026-05-01T15:40:32.517Z</time></trkpt><trkpt lat="43.4329594" lon="12.4045078"><ele>433.0</ele><time>2026-05-01T15:40:33.516Z</time></trkpt><trkpt lat="43.4328243" lon="12.4044851"><ele>433.0</ele><time>2026-05-01T15:40:34.517Z</time></trkpt><trkpt lat="43.4326846" lon="12.404429"><ele>433.0</ele><time>2026-05-01T15:40:35.517Z</time></trkpt><trkpt lat="43.4325539" lon="12.4043584"><ele>433.0</ele><time>2026-05-01T15:40:36.517Z</time></trkpt><trkpt lat="43.432428" lon="12.4042802"><ele>433.0</ele><time>2026-05-01T15:40:37.517Z</time></trkpt><trkpt lat="43.4323003" lon="12.4041832"><ele>433.0</ele><time>2026-05-01T15:40:38.517Z</time></trkpt><trkpt lat="43.4321853" lon="12.4040851"><ele>433.0</ele><time>2026-05-01T15:40:39.516Z</time></trkpt><trkpt lat="43.4320575" lon="12.4040095"><ele>434.25</ele><time>2026-05-01T15:40:40.517Z</time></trkpt><trkpt lat="43.4319293" lon="12.4039345"><ele>435.5</ele><time>2026-05-01T15:40:41.516Z</time></trkpt><trkpt lat="43.4318285" lon="12.40382"><ele>436.75</ele><time>2026-05-01T15:40:42.517Z</time></trkpt><trkpt lat="43.4317736" lon="12.4036553"><ele>438.0</ele><time>2026-05-01T15:40:43.517Z</time></trkpt><trkpt lat="43.4317354" lon="12.4034928"><ele>438.0</ele><time>2026-05-01T15:40:44.517Z</time></trkpt><trkpt lat="43.4316884" lon="12.4033292"><ele>438.0</ele><time>2026-05-01T15:40:45.516Z</time></trkpt><trkpt lat="43.4316196" lon="12.4031887"><ele>438.0</ele><time>2026-05-01T15:40:46.517Z</time></trkpt><trkpt lat="43.4315344" lon="12.403044"><ele>438.0</ele><time>2026-05-01T15:40:47.517Z</time></trkpt><trkpt lat="43.4314414" lon="12.4029063"><ele>438.25</ele><time>2026-05-01T15:40:48.516Z</time></trkpt><trkpt lat="43.4313504" lon="12.4027588"><ele>438.5</ele><time>2026-05-01T15:40:49.516Z</time></trkpt><trkpt lat="43.4312528" lon="12.4026093"><ele>438.75</ele><time>2026-05-01T15:40:50.516Z</time></trkpt><trkpt lat="43.4311549" lon="12.4024466"><ele>439.0</ele><time>2026-05-01T15:40:51.517Z</time></trkpt><trkpt lat="43.4310673" lon="12.402299"><ele>436.25</ele><time>2026-05-01T15:40:52.517Z</time></trkpt><trkpt lat="43.4309925" lon="12.402157"><ele>433.5</ele><time>2026-05-01T15:40:53.517Z</time></trkpt><trkpt lat="43.4309351" lon="12.4020099"><ele>430.75</ele><time>2026-05-01T15:40:54.517Z</time></trkpt><trkpt lat="43.4308974" lon="12.4018479"><ele>428.0</ele><time>2026-05-01T15:40:55.517Z</time></trkpt><trkpt lat="43.430869" lon="12.4016923"><ele>428.0</ele><time>2026-05-01T15:40:56.517Z</time></trkpt><trkpt lat="43.4308532" lon="12.4015379"><ele>427.99999999999994</ele><time>2026-05-01T15:40:57.516Z</time></trkpt><trkpt lat="43.4308353" lon="12.4013987"><ele>427.99999999999994</ele><time>2026-05-01T15:40:58.517Z</time></trkpt><trkpt lat="43.4307924" lon="12.4012753"><ele>428.0</ele><time>2026-05-01T15:40:59.517Z</time></trkpt><trkpt lat="43.4307264" lon="12.4011676"><ele>428.0</ele><time>2026-05-01T15:41:00.516Z</time></trkpt><trkpt lat="43.4306408" lon="12.4010713"><ele>427.25</ele><time>2026-05-01T15:41:01.517Z</time></trkpt><trkpt lat="43.4305417" lon="12.4009747"><ele>426.5</ele><time>2026-05-01T15:41:02.517Z</time></trkpt><trkpt lat="43.4304355" lon="12.4008815"><ele>425.75</ele><time>2026-05-01T15:41:03.516Z</time></trkpt><trkpt lat="43.4303278" lon="12.4007771"><ele>425.0</ele><time>2026-05-01T15:41:04.516Z</time></trkpt><trkpt lat="43.4302222" lon="12.4006797"><ele>425.0</ele><time>2026-05-01T15:41:05.517Z</time></trkpt><trkpt lat="43.4301144" lon="12.4005936"><ele>425.0</ele><time>2026-05-01T15:41:06.516Z</time></trkpt><trkpt lat="43.4299771" lon="12.4005265"><ele>425.0</ele><time>2026-05-01T15:41:07.517Z</time></trkpt><trkpt lat="43.429837" lon="12.4004602"><ele>425.0</ele><time>2026-05-01T15:41:08.516Z</time></trkpt><trkpt lat="43.42969" lon="12.400396"><ele>421.3333333333333</ele><time>2026-05-01T15:41:09.517Z</time></trkpt><trkpt lat="43.4295406" lon="12.400339"><ele>417.66666666666663</ele><time>2026-05-01T15:41:10.517Z</time></trkpt><trkpt lat="43.42938" lon="12.4002798"><ele>414.0</ele><time>2026-05-01T15:41:11.517Z</time></trkpt><trkpt lat="43.4292217" lon="12.4002249"><ele>414.0</ele><time>2026-05-01T15:41:12.517Z</time></trkpt><trkpt lat="43.42907" lon="12.400172"><ele>414.0</ele><time>2026-05-01T15:41:13.517Z</time></trkpt><trkpt lat="43.4289198" lon="12.4001144"><ele>414.0</ele><time>2026-05-01T15:41:14.517Z</time></trkpt><trkpt lat="43.4287729" lon="12.4000652"><ele>413.25</ele><time>2026-05-01T15:41:15.517Z</time></trkpt><trkpt lat="43.4286339" lon="12.4000489"><ele>412.5</ele><time>2026-05-01T15:41:16.516Z</time></trkpt><trkpt lat="43.4284902" lon="12.4000451"><ele>411.75</ele><time>2026-05-01T15:41:17.517Z</time></trkpt><trkpt lat="43.4283432" lon="12.4000635"><ele>411.0</ele><time>2026-05-01T15:41:18.516Z</time></trkpt><trkpt lat="43.4282013" lon="12.4000889"><ele>411.0</ele><time>2026-05-01T15:41:19.516Z</time></trkpt><trkpt lat="43.428061" lon="12.4001171"><ele>411.0</ele><time>2026-05-01T15:41:20.517Z</time></trkpt><trkpt lat="43.427934" lon="12.4001359"><ele>411.0</ele><time>2026-05-01T15:41:21.517Z</time></trkpt><trkpt lat="43.4278235" lon="12.4001312"><ele>411.0</ele><time>2026-05-01T15:41:22.517Z</time></trkpt><trkpt lat="43.4277214" lon="12.4001029"><ele>411.4</ele><time>2026-05-01T15:41:23.516Z</time></trkpt><trkpt lat="43.4276166" lon="12.4000461"><ele>411.8</ele><time>2026-05-01T15:41:24.517Z</time></trkpt><trkpt lat="43.4275323" lon="12.3999726"><ele>412.2</ele><time>2026-05-01T15:41:25.516Z</time></trkpt><trkpt lat="43.4274589" lon="12.3999151"><ele>412.59999999999997</ele><time>2026-05-01T15:41:26.516Z</time></trkpt><trkpt lat="43.4273882" lon="12.3998669"><ele>413.0</ele><time>2026-05-01T15:41:27.516Z</time></trkpt><trkpt lat="43.4273131" lon="12.3998195"><ele>412.99999999999994</ele><time>2026-05-01T15:41:28.517Z</time></trkpt><trkpt lat="43.427238" lon="12.39978"><ele>413.0</ele><time>2026-05-01T15:41:29.517Z</time></trkpt><trkpt lat="43.4271485" lon="12.3997097"><ele>413.0</ele><time>2026-05-01T15:41:31.517Z</time></trkpt><trkpt lat="43.4271378" lon="12.3996153"><ele>413.0</ele><time>2026-05-01T15:41:34.517Z</time></trkpt><trkpt lat="43.4271974" lon="12.3995857"><ele>412.99999999999994</ele><time>2026-05-01T15:41:37.517Z</time></trkpt><trkpt lat="43.4272687" lon="12.3996254"><ele>413.0</ele><time>2026-05-01T15:41:39.517Z</time></trkpt><trkpt lat="43.4273501" lon="12.3996172"><ele>414.79999999999995</ele><time>2026-05-01T15:41:40.517Z</time></trkpt><trkpt lat="43.4274362" lon="12.3995789"><ele>416.6</ele><time>2026-05-01T15:41:41.517Z</time></trkpt><trkpt lat="43.4275076" lon="12.3995082"><ele>418.4</ele><time>2026-05-01T15:41:42.517Z</time></trkpt><trkpt lat="43.4275711" lon="12.3993982"><ele>420.20000000000005</ele><time>2026-05-01T15:41:43.517Z</time></trkpt><trkpt lat="43.4276368" lon="12.399264"><ele>422.0</ele><time>2026-05-01T15:41:44.517Z</time></trkpt><trkpt lat="43.4276909" lon="12.3991104"><ele>422.0</ele><time>2026-05-01T15:41:45.517Z</time></trkpt><trkpt lat="43.4277184" lon="12.398944"><ele>422.0</ele><time>2026-05-01T15:41:46.517Z</time></trkpt><trkpt lat="43.4277295" lon="12.3987957"><ele>422.0</ele><time>2026-05-01T15:41:47.517Z</time></trkpt><trkpt lat="43.427733" lon="12.3986405"><ele>422.0</ele><time>2026-05-01T15:41:48.517Z</time></trkpt><trkpt lat="43.4277461" lon="12.3984901"><ele>423.20000000000005</ele><time>2026-05-01T15:41:49.517Z</time></trkpt><trkpt lat="43.4277736" lon="12.3983434"><ele>424.4</ele><time>2026-05-01T15:41:50.516Z</time></trkpt><trkpt lat="43.4278127" lon="12.3982075"><ele>425.59999999999997</ele><time>2026-05-01T15:41:51.517Z</time></trkpt><trkpt lat="43.4278554" lon="12.3980965"><ele>426.79999999999995</ele><time>2026-05-01T15:41:52.517Z</time></trkpt><trkpt lat="43.4278736" lon="12.3980014"><ele>428.0</ele><time>2026-05-01T15:41:53.517Z</time></trkpt><trkpt lat="43.4278383" lon="12.3978713"><ele>432.4</ele><time>2026-05-01T15:41:55.517Z</time></trkpt><trkpt lat="43.4277726" lon="12.3978297"><ele>436.79999999999995</ele><time>2026-05-01T15:41:56.517Z</time></trkpt><trkpt lat="43.4276862" lon="12.3978135"><ele>441.2</ele><time>2026-05-01T15:41:57.516Z</time></trkpt><trkpt lat="43.427593" lon="12.3978049"><ele>445.6</ele><time>2026-05-01T15:41:58.517Z</time></trkpt><trkpt lat="43.427497" lon="12.3977851"><ele>450.0</ele><time>2026-05-01T15:41:59.516Z</time></trkpt><trkpt lat="43.427389" lon="12.3977713"><ele>450.0</ele><time>2026-05-01T15:42:00.517Z</time></trkpt><trkpt lat="43.4272704" lon="12.397771"><ele>450.0</ele><time>2026-05-01T15:42:01.517Z</time></trkpt><trkpt lat="43.4271391" lon="12.3977855"><ele>450.0</ele><time>2026-05-01T15:42:02.517Z</time></trkpt><trkpt lat="43.4270149" lon="12.3977989"><ele>450.0</ele><time>2026-05-01T15:42:03.517Z</time></trkpt><trkpt lat="43.4268939" lon="12.3978149"><ele>452.5</ele><time>2026-05-01T15:42:04.517Z</time></trkpt><trkpt lat="43.4267775" lon="12.397822"><ele>455.0</ele><time>2026-05-01T15:42:05.517Z</time></trkpt><trkpt lat="43.4266642" lon="12.3978047"><ele>457.5</ele><time>2026-05-01T15:42:06.517Z</time></trkpt><trkpt lat="43.4265514" lon="12.3977628"><ele>460.0</ele><time>2026-05-01T15:42:07.516Z</time></trkpt><trkpt lat="43.4264397" lon="12.3976956"><ele>460.0</ele><time>2026-05-01T15:42:08.517Z</time></trkpt><trkpt lat="43.4263373" lon="12.3976196"><ele>460.0</ele><time>2026-05-01T15:42:09.516Z</time></trkpt><trkpt lat="43.4262242" lon="12.3975115"><ele>460.0</ele><time>2026-05-01T15:42:10.517Z</time></trkpt><trkpt lat="43.4261141" lon="12.397395"><ele>460.0</ele><time>2026-05-01T15:42:11.517Z</time></trkpt><trkpt lat="43.4259975" lon="12.3972671"><ele>465.0</ele><time>2026-05-01T15:42:12.517Z</time></trkpt><trkpt lat="43.4258773" lon="12.3971495"><ele>470.0</ele><time>2026-05-01T15:42:13.517Z</time></trkpt><trkpt lat="43.4257544" lon="12.3970296"><ele>475.0</ele><time>2026-05-01T15:42:14.517Z</time></trkpt><trkpt lat="43.4256314" lon="12.3969126"><ele>480.0</ele><time>2026-05-01T15:42:15.517Z</time></trkpt><trkpt lat="43.4255088" lon="12.3968218"><ele>479.2</ele><time>2026-05-01T15:42:16.516Z</time></trkpt><trkpt lat="43.4253916" lon="12.3967705"><ele>478.4</ele><time>2026-05-01T15:42:17.517Z</time></trkpt><trkpt lat="43.425275" lon="12.3967381"><ele>477.6</ele><time>2026-05-01T15:42:18.516Z</time></trkpt><trkpt lat="43.4251696" lon="12.396739"><ele>476.8</ele><time>2026-05-01T15:42:19.517Z</time></trkpt><trkpt lat="43.4250917" lon="12.3967409"><ele>476.0</ele><time>2026-05-01T15:42:20.517Z</time></trkpt><trkpt lat="43.4250085" lon="12.3966848"><ele>476.0</ele><time>2026-05-01T15:42:22.517Z</time></trkpt><trkpt lat="43.4250372" lon="12.3965739"><ele>476.0</ele><time>2026-05-01T15:42:24.517Z</time></trkpt><trkpt lat="43.4251422" lon="12.396514"><ele>476.0</ele><time>2026-05-01T15:42:26.517Z</time></trkpt><trkpt lat="43.4252152" lon="12.396494"><ele>476.0</ele><time>2026-05-01T15:42:27.517Z</time></trkpt><trkpt lat="43.4253045" lon="12.3964789"><ele>476.0</ele><time>2026-05-01T15:42:28.517Z</time></trkpt><trkpt lat="43.4254082" lon="12.3964414"><ele>476.8</ele><time>2026-05-01T15:42:29.516Z</time></trkpt><trkpt lat="43.4255108" lon="12.396406"><ele>477.6</ele><time>2026-05-01T15:42:30.517Z</time></trkpt><trkpt lat="43.4256062" lon="12.3963935"><ele>478.4</ele><time>2026-05-01T15:42:31.517Z</time></trkpt><trkpt lat="43.4257185" lon="12.3964066"><ele>479.2</ele><time>2026-05-01T15:42:32.517Z</time></trkpt><trkpt lat="43.4258455" lon="12.3964424"><ele>480.0</ele><time>2026-05-01T15:42:33.517Z</time></trkpt><trkpt lat="43.4259731" lon="12.3964882"><ele>480.0</ele><time>2026-05-01T15:42:34.517Z</time></trkpt><trkpt lat="43.4260994" lon="12.3965323"><ele>480.0</ele><time>2026-05-01T15:42:35.517Z</time></trkpt><trkpt lat="43.4262175" lon="12.3965658"><ele>480.0</ele><time>2026-05-01T15:42:36.517Z</time></trkpt><trkpt lat="43.4263351" lon="12.3965889"><ele>480.0</ele><time>2026-05-01T15:42:37.517Z</time></trkpt><trkpt lat="43.4264436" lon="12.3966003"><ele>481.6</ele><time>2026-05-01T15:42:38.517Z</time></trkpt><trkpt lat="43.4265555" lon="12.3965863"><ele>483.2</ele><time>2026-05-01T15:42:39.516Z</time></trkpt><trkpt lat="43.426663" lon="12.3965614"><ele>484.79999999999995</ele><time>2026-05-01T15:42:40.517Z</time></trkpt><trkpt lat="43.4267552" lon="12.3965246"><ele>486.4</ele><time>2026-05-01T15:42:41.517Z</time></trkpt><trkpt lat="43.4268334" lon="12.3964761"><ele>488.0</ele><time>2026-05-01T15:42:42.516Z</time></trkpt><trkpt lat="43.4269003" lon="12.3964069"><ele>490.75</ele><time>2026-05-01T15:42:43.517Z</time></trkpt><trkpt lat="43.426962" lon="12.3963025"><ele>493.5</ele><time>2026-05-01T15:42:44.516Z</time></trkpt><trkpt lat="43.4270223" lon="12.3961712"><ele>496.25</ele><time>2026-05-01T15:42:45.516Z</time></trkpt><trkpt lat="43.4270843" lon="12.3960325"><ele>499.0</ele><time>2026-05-01T15:42:46.517Z</time></trkpt><trkpt lat="43.4271473" lon="12.3958714"><ele>499.0</ele><time>2026-05-01T15:42:47.517Z</time></trkpt><trkpt lat="43.4272232" lon="12.3957033"><ele>499.0</ele><time>2026-05-01T15:42:48.517Z</time></trkpt><trkpt lat="43.4272966" lon="12.39555"><ele>499.0</ele><time>2026-05-01T15:42:49.517Z</time></trkpt><trkpt lat="43.4273563" lon="12.3954257"><ele>499.0</ele><time>2026-05-01T15:42:50.517Z</time></trkpt><trkpt lat="43.4273908" lon="12.3953228"><ele>500.6</ele><time>2026-05-01T15:42:51.517Z</time></trkpt><trkpt lat="43.4274117" lon="12.3952323"><ele>502.2</ele><time>2026-05-01T15:42:52.516Z</time></trkpt><trkpt lat="43.4273961" lon="12.3950744"><ele>503.80000000000007</ele><time>2026-05-01T15:42:54.516Z</time></trkpt><trkpt lat="43.4273203" lon="12.3949935"><ele>505.40000000000003</ele><time>2026-05-01T15:42:56.517Z</time></trkpt><trkpt lat="43.427184" lon="12.3950276"><ele>507.0</ele><time>2026-05-01T15:42:58.517Z</time></trkpt><trkpt lat="43.4270945" lon="12.3950665"><ele>511.5</ele><time>2026-05-01T15:42:59.516Z</time></trkpt><trkpt lat="43.426995" lon="12.3951142"><ele>516.0</ele><time>2026-05-01T15:43:00.516Z</time></trkpt><trkpt lat="43.4268852" lon="12.3951597"><ele>520.5</ele><time>2026-05-01T15:43:01.516Z</time></trkpt><trkpt lat="43.4267738" lon="12.3952039"><ele>525.0</ele><time>2026-05-01T15:43:02.517Z</time></trkpt><trkpt lat="43.4266493" lon="12.3952457"><ele>525.0</ele><time>2026-05-01T15:43:03.516Z</time></trkpt><trkpt lat="43.4265214" lon="12.3952872"><ele>525.0</ele><time>2026-05-01T15:43:04.517Z</time></trkpt><trkpt lat="43.4263963" lon="12.3953186"><ele>525.0</ele><time>2026-05-01T15:43:05.517Z</time></trkpt><trkpt lat="43.4262654" lon="12.395349"><ele>525.0</ele><time>2026-05-01T15:43:06.517Z</time></trkpt><trkpt lat="43.4261319" lon="12.3953718"><ele>527.0</ele><time>2026-05-01T15:43:07.517Z</time></trkpt><trkpt lat="43.4260008" lon="12.3953882"><ele>529.0</ele><time>2026-05-01T15:43:08.517Z</time></trkpt><trkpt lat="43.4258816" lon="12.3953909"><ele>531.0</ele><time>2026-05-01T15:43:09.517Z</time></trkpt><trkpt lat="43.4257707" lon="12.3953693"><ele>533.0</ele><time>2026-05-01T15:43:10.517Z</time></trkpt><trkpt lat="43.4256649" lon="12.3953417"><ele>533.0</ele><time>2026-05-01T15:43:11.517Z</time></trkpt><trkpt lat="43.4255648" lon="12.3953067"><ele>533.0</ele><time>2026-05-01T15:43:12.517Z</time></trkpt><trkpt lat="43.4254805" lon="12.3952645"><ele>533.0</ele><time>2026-05-01T15:43:13.517Z</time></trkpt><trkpt lat="43.4254096" lon="12.395209"><ele>533.0</ele><time>2026-05-01T15:43:14.517Z</time></trkpt><trkpt lat="43.425337" lon="12.3951171"><ele>533.0</ele><time>2026-05-01T15:43:15.516Z</time></trkpt><trkpt lat="43.4252765" lon="12.3950018"><ele>529.0</ele><time>2026-05-01T15:43:16.516Z</time></trkpt><trkpt lat="43.4252376" lon="12.3948784"><ele>525.0</ele><time>2026-05-01T15:43:17.516Z</time></trkpt><trkpt lat="43.4252042" lon="12.3947566"><ele>521.0</ele><time>2026-05-01T15:43:18.517Z</time></trkpt><trkpt lat="43.425183" lon="12.394645"><ele>517.0</ele><time>2026-05-01T15:43:19.517Z</time></trkpt><trkpt lat="43.4251779" lon="12.3945242"><ele>513.0</ele><time>2026-05-01T15:43:20.516Z</time></trkpt><trkpt lat="43.4251923" lon="12.394408"><ele>513.0</ele><time>2026-05-01T15:43:21.516Z</time></trkpt><trkpt lat="43.4252237" lon="12.3942778"><ele>513.0</ele><time>2026-05-01T15:43:22.517Z</time></trkpt><trkpt lat="43.4252601" lon="12.3941339"><ele>513.0</ele><time>2026-05-01T15:43:23.517Z</time></trkpt><trkpt lat="43.4252968" lon="12.3939788"><ele>513.0</ele><time>2026-05-01T15:43:24.516Z</time></trkpt><trkpt lat="43.4253434" lon="12.3938393"><ele>513.0</ele><time>2026-05-01T15:43:25.517Z</time></trkpt><trkpt lat="43.4253821" lon="12.3936944"><ele>511.59999999999997</ele><time>2026-05-01T15:43:26.517Z</time></trkpt><trkpt lat="43.4254146" lon="12.3935706"><ele>510.19999999999993</ele><time>2026-05-01T15:43:27.517Z</time></trkpt><trkpt lat="43.4254545" lon="12.3934581"><ele>508.8</ele><time>2026-05-01T15:43:28.516Z</time></trkpt><trkpt lat="43.4255166" lon="12.3933664"><ele>507.4</ele><time>2026-05-01T15:43:29.517Z</time></trkpt><trkpt lat="43.4255941" lon="12.3932745"><ele>506.0</ele><time>2026-05-01T15:43:30.517Z</time></trkpt><trkpt lat="43.4256858" lon="12.3931872"><ele>513.75</ele><time>2026-05-01T15:43:31.516Z</time></trkpt><trkpt lat="43.4257842" lon="12.3931042"><ele>521.5</ele><time>2026-05-01T15:43:32.516Z</time></trkpt><trkpt lat="43.4258887" lon="12.3930126"><ele>529.25</ele><time>2026-05-01T15:43:33.517Z</time></trkpt><trkpt lat="43.4259826" lon="12.3929052"><ele>537.0</ele><time>2026-05-01T15:43:34.517Z</time></trkpt><trkpt lat="43.4260669" lon="12.3927725"><ele>537.0</ele><time>2026-05-01T15:43:35.517Z</time></trkpt><trkpt lat="43.426137" lon="12.3926319"><ele>537.0</ele><time>2026-05-01T15:43:36.516Z</time></trkpt><trkpt lat="43.4261972" lon="12.3925063"><ele>537.0</ele><time>2026-05-01T15:43:37.517Z</time></trkpt><trkpt lat="43.4262385" lon="12.3923763"><ele>537.0</ele><time>2026-05-01T15:43:38.516Z</time></trkpt><trkpt lat="43.4262467" lon="12.3922436"><ele>537.0</ele><time>2026-05-01T15:43:39.517Z</time></trkpt><trkpt lat="43.4262439" lon="12.3921026"><ele>541.25</ele><time>2026-05-01T15:43:40.517Z</time></trkpt><trkpt lat="43.4262212" lon="12.3919654"><ele>545.5</ele><time>2026-05-01T15:43:41.517Z</time></trkpt><trkpt lat="43.4261472" lon="12.3918217"><ele>549.75</ele><time>2026-05-01T15:43:42.517Z</time></trkpt><trkpt lat="43.42605" lon="12.3916984"><ele>554.0</ele><time>2026-05-01T15:43:43.517Z</time></trkpt><trkpt lat="43.4259326" lon="12.391597"><ele>554.0</ele><time>2026-05-01T15:43:44.517Z</time></trkpt><trkpt lat="43.4258259" lon="12.3915041"><ele>554.0</ele><time>2026-05-01T15:43:45.517Z</time></trkpt><trkpt lat="43.4257188" lon="12.3913848"><ele>554.0</ele><time>2026-05-01T15:43:46.517Z</time></trkpt><trkpt lat="43.4256145" lon="12.3912568"><ele>554.0</ele><time>2026-05-01T15:43:47.517Z</time></trkpt><trkpt lat="43.4255066" lon="12.3911298"><ele>553.5</ele><time>2026-05-01T15:43:48.517Z</time></trkpt><trkpt lat="43.4254082" lon="12.3910271"><ele>553.0</ele><time>2026-05-01T15:43:49.516Z</time></trkpt><trkpt lat="43.4253227" lon="12.3909384"><ele>552.5</ele><time>2026-05-01T15:43:50.517Z</time></trkpt><trkpt lat="43.4252478" lon="12.3908254"><ele>552.0</ele><time>2026-05-01T15:43:51.517Z</time></trkpt><trkpt lat="43.4251921" lon="12.3906916"><ele>552.0</ele><time>2026-05-01T15:43:52.517Z</time></trkpt><trkpt lat="43.4251602" lon="12.3905597"><ele>552.0</ele><time>2026-05-01T15:43:53.517Z</time></trkpt><trkpt lat="43.4251449" lon="12.3904188"><ele>552.0</ele><time>2026-05-01T15:43:54.517Z</time></trkpt><trkpt lat="43.4251279" lon="12.3902734"><ele>552.0</ele><time>2026-05-01T15:43:55.517Z</time></trkpt><trkpt lat="43.425124" lon="12.3901297"><ele>552.0</ele><time>2026-05-01T15:43:56.516Z</time></trkpt><trkpt lat="43.4251171" lon="12.3899898"><ele>554.0</ele><time>2026-05-01T15:43:57.517Z</time></trkpt><trkpt lat="43.425112" lon="12.3898688"><ele>556.0</ele><time>2026-05-01T15:43:58.517Z</time></trkpt><trkpt lat="43.4251182" lon="12.3897761"><ele>558.0</ele><time>2026-05-01T15:43:59.516Z</time></trkpt><trkpt lat="43.4251507" lon="12.3896649"><ele>560.0</ele><time>2026-05-01T15:44:00.517Z</time></trkpt><trkpt lat="43.4251813" lon="12.3895402"><ele>562.0</ele><time>2026-05-01T15:44:01.517Z</time></trkpt><trkpt lat="43.4251894" lon="12.3894197"><ele>564.0</ele><time>2026-05-01T15:44:02.517Z</time></trkpt><trkpt lat="43.4251698" lon="12.3892969"><ele>566.2</ele><time>2026-05-01T15:44:03.517Z</time></trkpt><trkpt lat="43.4251191" lon="12.3891855"><ele>568.4</ele><time>2026-05-01T15:44:04.517Z</time></trkpt><trkpt lat="43.425059" lon="12.389072"><ele>570.6</ele><time>2026-05-01T15:44:05.517Z</time></trkpt><trkpt lat="43.4250106" lon="12.3889447"><ele>572.8</ele><time>2026-05-01T15:44:06.517Z</time></trkpt><trkpt lat="43.4249739" lon="12.3887959"><ele>575.0</ele><time>2026-05-01T15:44:07.516Z</time></trkpt><trkpt lat="43.4249394" lon="12.3886384"><ele>570.25</ele><time>2026-05-01T15:44:08.517Z</time></trkpt><trkpt lat="43.4248915" lon="12.3884745"><ele>565.5</ele><time>2026-05-01T15:44:09.517Z</time></trkpt><trkpt lat="43.4248229" lon="12.3883075"><ele>560.75</ele><time>2026-05-01T15:44:10.517Z</time></trkpt><trkpt lat="43.4247363" lon="12.3881677"><ele>556.0</ele><time>2026-05-01T15:44:11.516Z</time></trkpt><trkpt lat="43.4246421" lon="12.3880528"><ele>558.8</ele><time>2026-05-01T15:44:12.517Z</time></trkpt><trkpt lat="43.4245507" lon="12.3879488"><ele>561.6</ele><time>2026-05-01T15:44:13.517Z</time></trkpt><trkpt lat="43.4244646" lon="12.3878727"><ele>564.4</ele><time>2026-05-01T15:44:14.517Z</time></trkpt><trkpt lat="43.4243996" lon="12.3877869"><ele>567.2</ele><time>2026-05-01T15:44:15.516Z</time></trkpt><trkpt lat="43.4243629" lon="12.3876864"><ele>570.0</ele><time>2026-05-01T15:44:16.516Z</time></trkpt><trkpt lat="43.4243593" lon="12.3875944"><ele>570.0</ele><time>2026-05-01T15:44:17.517Z</time></trkpt><trkpt lat="43.4243788" lon="12.3874967"><ele>570.0</ele><time>2026-05-01T15:44:18.517Z</time></trkpt><trkpt lat="43.424418" lon="12.3874002"><ele>570.0</ele><time>2026-05-01T15:44:19.516Z</time></trkpt><trkpt lat="43.4244798" lon="12.3872923"><ele>570.0</ele><time>2026-05-01T15:44:20.517Z</time></trkpt><trkpt lat="43.4245617" lon="12.3872005"><ele>570.0</ele><time>2026-05-01T15:44:21.517Z</time></trkpt><trkpt lat="43.424657" lon="12.3871142"><ele>576.0</ele><time>2026-05-01T15:44:22.517Z</time></trkpt><trkpt lat="43.424763" lon="12.3870335"><ele>582.0</ele><time>2026-05-01T15:44:23.517Z</time></trkpt><trkpt lat="43.4248794" lon="12.3869493"><ele>588.0</ele><time>2026-05-01T15:44:24.517Z</time></trkpt><trkpt lat="43.4249818" lon="12.3868633"><ele>594.0</ele><time>2026-05-01T15:44:25.517Z</time></trkpt><trkpt lat="43.4250751" lon="12.3867873"><ele>594.0</ele><time>2026-05-01T15:44:26.517Z</time></trkpt><trkpt lat="43.4251589" lon="12.386704"><ele>594.0</ele><time>2026-05-01T15:44:27.516Z</time></trkpt><trkpt lat="43.4252035" lon="12.386614"><ele>594.0</ele><time>2026-05-01T15:44:28.517Z</time></trkpt><trkpt lat="43.4252214" lon="12.3865003"><ele>594.0</ele><time>2026-05-01T15:44:29.517Z</time></trkpt><trkpt lat="43.4252221" lon="12.38638"><ele>594.0</ele><time>2026-05-01T15:44:30.517Z</time></trkpt><trkpt lat="43.4251976" lon="12.3862748"><ele>594.0</ele><time>2026-05-01T15:44:31.517Z</time></trkpt><trkpt lat="43.425144" lon="12.3861812"><ele>597.0</ele><time>2026-05-01T15:44:32.516Z</time></trkpt><trkpt lat="43.425048" lon="12.3860881"><ele>600.0</ele><time>2026-05-01T15:44:33.517Z</time></trkpt><trkpt lat="43.4249437" lon="12.3859991"><ele>603.0</ele><time>2026-05-01T15:44:34.517Z</time></trkpt><trkpt lat="43.4248556" lon="12.3859107"><ele>606.0</ele><time>2026-05-01T15:44:35.516Z</time></trkpt><trkpt lat="43.4247788" lon="12.3858013"><ele>606.0</ele><time>2026-05-01T15:44:36.517Z</time></trkpt><trkpt lat="43.4247088" lon="12.3856693"><ele>606.0</ele><time>2026-05-01T15:44:37.517Z</time></trkpt><trkpt lat="43.4246516" lon="12.3855394"><ele>606.0</ele><time>2026-05-01T15:44:38.517Z</time></trkpt><trkpt lat="43.42459" lon="12.3854014"><ele>606.0</ele><time>2026-05-01T15:44:39.517Z</time></trkpt><trkpt lat="43.4245232" lon="12.3852645"><ele>607.4</ele><time>2026-05-01T15:44:40.516Z</time></trkpt><trkpt lat="43.4244663" lon="12.3851461"><ele>608.8</ele><time>2026-05-01T15:44:41.517Z</time></trkpt><trkpt lat="43.4244216" lon="12.385036"><ele>610.1999999999999</ele><time>2026-05-01T15:44:42.517Z</time></trkpt><trkpt lat="43.4243823" lon="12.3849612"><ele>611.6</ele><time>2026-05-01T15:44:43.517Z</time></trkpt><trkpt lat="43.4242745" lon="12.384884"><ele>613.0</ele><time>2026-05-01T15:44:45.516Z</time></trkpt><trkpt lat="43.4242086" lon="12.3849041"><ele>613.0</ele><time>2026-05-01T15:44:46.517Z</time></trkpt><trkpt lat="43.4241415" lon="12.3849334"><ele>613.0</ele><time>2026-05-01T15:44:47.516Z</time></trkpt><trkpt lat="43.4240709" lon="12.3849767"><ele>613.0</ele><time>2026-05-01T15:44:48.517Z</time></trkpt><trkpt lat="43.4239841" lon="12.3850153"><ele>613.0</ele><time>2026-05-01T15:44:49.516Z</time></trkpt><trkpt lat="43.4238678" lon="12.3850187"><ele>613.0</ele><time>2026-05-01T15:44:50.517Z</time></trkpt><trkpt lat="43.4237468" lon="12.384998"><ele>611.1999999999999</ele><time>2026-05-01T15:44:51.517Z</time></trkpt><trkpt lat="43.4236343" lon="12.3849698"><ele>609.4</ele><time>2026-05-01T15:44:52.517Z</time></trkpt><trkpt lat="43.4235226" lon="12.3849337"><ele>607.5999999999999</ele><time>2026-05-01T15:44:53.517Z</time></trkpt><trkpt lat="43.4234153" lon="12.3848928"><ele>605.8</ele><time>2026-05-01T15:44:54.517Z</time></trkpt><trkpt lat="43.4233266" lon="12.3848293"><ele>604.0</ele><time>2026-05-01T15:44:55.517Z</time></trkpt><trkpt lat="43.4232708" lon="12.3847579"><ele>606.5</ele><time>2026-05-01T15:44:56.517Z</time></trkpt><trkpt lat="43.4232371" lon="12.3846767"><ele>609.0</ele><time>2026-05-01T15:44:57.516Z</time></trkpt><trkpt lat="43.4232344" lon="12.3845899"><ele>611.5</ele><time>2026-05-01T15:44:58.517Z</time></trkpt><trkpt lat="43.423255" lon="12.3844707"><ele>614.0</ele><time>2026-05-01T15:44:59.517Z</time></trkpt><trkpt lat="43.4232937" lon="12.3843613"><ele>616.5</ele><time>2026-05-01T15:45:00.517Z</time></trkpt><trkpt lat="43.42331" lon="12.3842546"><ele>619.0</ele><time>2026-05-01T15:45:01.517Z</time></trkpt><trkpt lat="43.4233111" lon="12.3841357"><ele>619.0</ele><time>2026-05-01T15:45:02.516Z</time></trkpt><trkpt lat="43.4232774" lon="12.3840066"><ele>619.0</ele><time>2026-05-01T15:45:03.517Z</time></trkpt><trkpt lat="43.4232218" lon="12.3838612"><ele>619.0</ele><time>2026-05-01T15:45:04.516Z</time></trkpt><trkpt lat="43.4231457" lon="12.3837335"><ele>619.0</ele><time>2026-05-01T15:45:05.517Z</time></trkpt><trkpt lat="43.4230613" lon="12.3836527"><ele>619.0</ele><time>2026-05-01T15:45:06.517Z</time></trkpt><trkpt lat="43.4229651" lon="12.3836041"><ele>623.25</ele><time>2026-05-01T15:45:07.516Z</time></trkpt><trkpt lat="43.4228492" lon="12.3835957"><ele>627.5</ele><time>2026-05-01T15:45:08.517Z</time></trkpt><trkpt lat="43.422737" lon="12.383615"><ele>631.75</ele><time>2026-05-01T15:45:09.517Z</time></trkpt><trkpt lat="43.4226056" lon="12.3836532"><ele>636.0</ele><time>2026-05-01T15:45:10.517Z</time></trkpt><trkpt lat="43.42248" lon="12.3836909"><ele>636.0</ele><time>2026-05-01T15:45:11.517Z</time></trkpt><trkpt lat="43.4223578" lon="12.383719"><ele>636.0</ele><time>2026-05-01T15:45:12.516Z</time></trkpt><trkpt lat="43.4222426" lon="12.3837368"><ele>636.0</ele><time>2026-05-01T15:45:13.517Z</time></trkpt><trkpt lat="43.4221265" lon="12.3837277"><ele>636.0</ele><time>2026-05-01T15:45:14.517Z</time></trkpt><trkpt lat="43.4220201" lon="12.3836984"><ele>635.6</ele><time>2026-05-01T15:45:15.517Z</time></trkpt><trkpt lat="43.4219219" lon="12.3836438"><ele>635.2</ele><time>2026-05-01T15:45:16.516Z</time></trkpt><trkpt lat="43.4218206" lon="12.3835675"><ele>634.8</ele><time>2026-05-01T15:45:17.517Z</time></trkpt><trkpt lat="43.4217279" lon="12.3834919"><ele>634.4</ele><time>2026-05-01T15:45:18.517Z</time></trkpt><trkpt lat="43.4216379" lon="12.3834245"><ele>634.0</ele><time>2026-05-01T15:45:19.517Z</time></trkpt><trkpt lat="43.4215433" lon="12.383369"><ele>634.0</ele><time>2026-05-01T15:45:20.517Z</time></trkpt><trkpt lat="43.4214497" lon="12.3833254"><ele>634.0</ele><time>2026-05-01T15:45:21.516Z</time></trkpt><trkpt lat="43.4213651" lon="12.38331"><ele>634.0</ele><time>2026-05-01T15:45:22.517Z</time></trkpt><trkpt lat="43.4213005" lon="12.3832956"><ele>634.0</ele><time>2026-05-01T15:45:23.517Z</time></trkpt><trkpt lat="43.4211676" lon="12.3832393"><ele>634.0</ele><time>2026-05-01T15:45:25.516Z</time></trkpt><trkpt lat="43.4210925" lon="12.3831661"><ele>633.2</ele><time>2026-05-01T15:45:26.516Z</time></trkpt><trkpt lat="43.4210074" lon="12.3830962"><ele>632.4</ele><time>2026-05-01T15:45:27.516Z</time></trkpt><trkpt lat="43.4209163" lon="12.3830079"><ele>631.6</ele><time>2026-05-01T15:45:28.517Z</time></trkpt><trkpt lat="43.4208479" lon="12.3829262"><ele>630.8</ele><time>2026-05-01T15:45:29.517Z</time></trkpt><trkpt lat="43.4207856" lon="12.3828419"><ele>630.0</ele><time>2026-05-01T15:45:30.517Z</time></trkpt><trkpt lat="43.420734" lon="12.3827422"><ele>630.0</ele><time>2026-05-01T15:45:31.516Z</time></trkpt><trkpt lat="43.4206955" lon="12.3826016"><ele>630.0</ele><time>2026-05-01T15:45:32.517Z</time></trkpt><trkpt lat="43.4206684" lon="12.3824283"><ele>630.0</ele><time>2026-05-01T15:45:33.516Z</time></trkpt><trkpt lat="43.4206437" lon="12.3822634"><ele>630.0</ele><time>2026-05-01T15:45:34.517Z</time></trkpt><trkpt lat="43.4206278" lon="12.3820822"><ele>629.5</ele><time>2026-05-01T15:45:35.517Z</time></trkpt><trkpt lat="43.4206047" lon="12.3818996"><ele>629.0</ele><time>2026-05-01T15:45:36.517Z</time></trkpt><trkpt lat="43.4205813" lon="12.3817227"><ele>628.5</ele><time>2026-05-01T15:45:37.517Z</time></trkpt><trkpt lat="43.4205576" lon="12.3815537"><ele>628.0</ele><time>2026-05-01T15:45:38.517Z</time></trkpt><trkpt lat="43.4205355" lon="12.3813784"><ele>626.75</ele><time>2026-05-01T15:45:39.517Z</time></trkpt><trkpt lat="43.4205111" lon="12.381204"><ele>625.5</ele><time>2026-05-01T15:45:40.517Z</time></trkpt><trkpt lat="43.4204748" lon="12.3810439"><ele>624.25</ele><time>2026-05-01T15:45:41.517Z</time></trkpt><trkpt lat="43.42043" lon="12.3808977"><ele>623.0</ele><time>2026-05-01T15:45:42.517Z</time></trkpt><trkpt lat="43.4203671" lon="12.3807629"><ele>619.4</ele><time>2026-05-01T15:45:43.517Z</time></trkpt><trkpt lat="43.4202924" lon="12.3806456"><ele>615.8</ele><time>2026-05-01T15:45:44.517Z</time></trkpt><trkpt lat="43.420218" lon="12.3805367"><ele>612.2</ele><time>2026-05-01T15:45:45.517Z</time></trkpt><trkpt lat="43.4201407" lon="12.3804322"><ele>608.6</ele><time>2026-05-01T15:45:46.517Z</time></trkpt><trkpt lat="43.4200638" lon="12.3803302"><ele>605.0</ele><time>2026-05-01T15:45:47.517Z</time></trkpt><trkpt lat="43.4199929" lon="12.3802397"><ele>604.8</ele><time>2026-05-01T15:45:48.517Z</time></trkpt><trkpt lat="43.4199353" lon="12.3801506"><ele>604.6</ele><time>2026-05-01T15:45:49.516Z</time></trkpt><trkpt lat="43.4199048" lon="12.3800407"><ele>604.4</ele><time>2026-05-01T15:45:50.516Z</time></trkpt><trkpt lat="43.4199133" lon="12.3799198"><ele>604.2</ele><time>2026-05-01T15:45:51.517Z</time></trkpt><trkpt lat="43.4199428" lon="12.3797968"><ele>604.0</ele><time>2026-05-01T15:45:52.517Z</time></trkpt><trkpt lat="43.4199916" lon="12.3796772"><ele>602.5</ele><time>2026-05-01T15:45:53.516Z</time></trkpt><trkpt lat="43.4200432" lon="12.3795482"><ele>601.0</ele><time>2026-05-01T15:45:54.517Z</time></trkpt><trkpt lat="43.4200913" lon="12.3794131"><ele>599.5</ele><time>2026-05-01T15:45:55.517Z</time></trkpt><trkpt lat="43.4201429" lon="12.3792705"><ele>598.0</ele><time>2026-05-01T15:45:56.517Z</time></trkpt><trkpt lat="43.4202001" lon="12.3791206"><ele>598.0</ele><time>2026-05-01T15:45:57.517Z</time></trkpt><trkpt lat="43.4202738" lon="12.3789885"><ele>598.0</ele><time>2026-05-01T15:45:58.516Z</time></trkpt><trkpt lat="43.4203634" lon="12.3788904"><ele>598.0</ele><time>2026-05-01T15:45:59.517Z</time></trkpt><trkpt lat="43.4204673" lon="12.3788184"><ele>598.0</ele><time>2026-05-01T15:46:00.517Z</time></trkpt><trkpt lat="43.4205802" lon="12.378754"><ele>596.1999999999999</ele><time>2026-05-01T15:46:01.517Z</time></trkpt><trkpt lat="43.4206874" lon="12.3786971"><ele>594.4</ele><time>2026-05-01T15:46:02.516Z</time></trkpt><trkpt lat="43.4207841" lon="12.3786423"><ele>592.5999999999999</ele><time>2026-05-01T15:46:03.517Z</time></trkpt><trkpt lat="43.4208697" lon="12.3785893"><ele>590.8</ele><time>2026-05-01T15:46:04.517Z</time></trkpt><trkpt lat="43.4209441" lon="12.3785593"><ele>589.0</ele><time>2026-05-01T15:46:05.516Z</time></trkpt><trkpt lat="43.4210099" lon="12.3785207"><ele>589.0</ele><time>2026-05-01T15:46:06.517Z</time></trkpt><trkpt lat="43.4210698" lon="12.3784913"><ele>589.0</ele><time>2026-05-01T15:46:07.517Z</time></trkpt><trkpt lat="43.4211197" lon="12.3784379"><ele>589.0</ele><time>2026-05-01T15:46:08.517Z</time></trkpt><trkpt lat="43.4211531" lon="12.3783603"><ele>589.0</ele><time>2026-05-01T15:46:09.517Z</time></trkpt><trkpt lat="43.4211442" lon="12.3782449"><ele>589.0</ele><time>2026-05-01T15:46:10.516Z</time></trkpt><trkpt lat="43.4210791" lon="12.3781154"><ele>589.0</ele><time>2026-05-01T15:46:11.517Z</time></trkpt><trkpt lat="43.4209827" lon="12.3779794"><ele>587.75</ele><time>2026-05-01T15:46:12.516Z</time></trkpt><trkpt lat="43.4208879" lon="12.3778518"><ele>586.5</ele><time>2026-05-01T15:46:13.517Z</time></trkpt><trkpt lat="43.4208089" lon="12.3777189"><ele>585.25</ele><time>2026-05-01T15:46:14.517Z</time></trkpt><trkpt lat="43.4207487" lon="12.3776044"><ele>584.0</ele><time>2026-05-01T15:46:15.516Z</time></trkpt><trkpt lat="43.4207061" lon="12.3774792"><ele>584.0</ele><time>2026-05-01T15:46:16.517Z</time></trkpt><trkpt lat="43.4206834" lon="12.3773551"><ele>584.0</ele><time>2026-05-01T15:46:17.516Z</time></trkpt><trkpt lat="43.4206925" lon="12.3772211"><ele>584.0</ele><time>2026-05-01T15:46:18.516Z</time></trkpt><trkpt lat="43.420715" lon="12.3770809"><ele>584.0</ele><time>2026-05-01T15:46:19.516Z</time></trkpt><trkpt lat="43.4207421" lon="12.3769388"><ele>584.0</ele><time>2026-05-01T15:46:20.516Z</time></trkpt><trkpt lat="43.4207798" lon="12.3768029"><ele>582.2</ele><time>2026-05-01T15:46:21.517Z</time></trkpt><trkpt lat="43.4208477" lon="12.3766898"><ele>580.4</ele><time>2026-05-01T15:46:22.517Z</time></trkpt><trkpt lat="43.4209136" lon="12.3765757"><ele>578.6</ele><time>2026-05-01T15:46:23.517Z</time></trkpt><trkpt lat="43.4209758" lon="12.3764776"><ele>576.8</ele><time>2026-05-01T15:46:24.517Z</time></trkpt><trkpt lat="43.4210497" lon="12.3763757"><ele>575.0</ele><time>2026-05-01T15:46:25.517Z</time></trkpt><trkpt lat="43.4211374" lon="12.3762911"><ele>571.8</ele><time>2026-05-01T15:46:26.517Z</time></trkpt><trkpt lat="43.4212243" lon="12.3762231"><ele>568.6</ele><time>2026-05-01T15:46:27.516Z</time></trkpt><trkpt lat="43.4213189" lon="12.3761842"><ele>565.4</ele><time>2026-05-01T15:46:28.517Z</time></trkpt><trkpt lat="43.4214178" lon="12.3761602"><ele>562.2</ele><time>2026-05-01T15:46:29.517Z</time></trkpt><trkpt lat="43.4215075" lon="12.3761493"><ele>559.0</ele><time>2026-05-01T15:46:30.517Z</time></trkpt><trkpt lat="43.4216077" lon="12.3761434"><ele>559.0</ele><time>2026-05-01T15:46:31.516Z</time></trkpt><trkpt lat="43.4217075" lon="12.3761141"><ele>559.0</ele><time>2026-05-01T15:46:32.517Z</time></trkpt><trkpt lat="43.4218133" lon="12.3760711"><ele>559.0</ele><time>2026-05-01T15:46:33.517Z</time></trkpt><trkpt lat="43.4219111" lon="12.3760195"><ele>559.0</ele><time>2026-05-01T15:46:34.516Z</time></trkpt><trkpt lat="43.4219955" lon="12.3759643"><ele>559.0</ele><time>2026-05-01T15:46:35.516Z</time></trkpt><trkpt lat="43.4220743" lon="12.3759154"><ele>559.0</ele><time>2026-05-01T15:46:36.516Z</time></trkpt><trkpt lat="43.422145" lon="12.3758799"><ele>559.0</ele><time>2026-05-01T15:46:37.517Z</time></trkpt><trkpt lat="43.4222194" lon="12.3758596"><ele>559.0</ele><time>2026-05-01T15:46:38.517Z</time></trkpt><trkpt lat="43.4223007" lon="12.375881"><ele>559.0</ele><time>2026-05-01T15:46:39.517Z</time></trkpt><trkpt lat="43.4223817" lon="12.3759229"><ele>559.0</ele><time>2026-05-01T15:46:40.517Z</time></trkpt><trkpt lat="43.4224605" lon="12.3759617"><ele>559.0</ele><time>2026-05-01T15:46:41.517Z</time></trkpt><trkpt lat="43.4225373" lon="12.3760111"><ele>558.6666666666667</ele><time>2026-05-01T15:46:42.517Z</time></trkpt><trkpt lat="43.4226117" lon="12.3760421"><ele>558.3333333333334</ele><time>2026-05-01T15:46:43.517Z</time></trkpt><trkpt lat="43.4226863" lon="12.3760493"><ele>558.0</ele><time>2026-05-01T15:46:44.517Z</time></trkpt><trkpt lat="43.4227553" lon="12.3760223"><ele>557.6666666666666</ele><time>2026-05-01T15:46:45.516Z</time></trkpt><trkpt lat="43.4228142" lon="12.3759472"><ele>557.3333333333333</ele><time>2026-05-01T15:46:46.516Z</time></trkpt><trkpt lat="43.4228412" lon="12.3758539"><ele>557.0</ele><time>2026-05-01T15:46:47.516Z</time></trkpt><trkpt lat="43.4228328" lon="12.3757493"><ele>557.0</ele><time>2026-05-01T15:46:48.517Z</time></trkpt><trkpt lat="43.4227984" lon="12.3756392"><ele>557.0</ele><time>2026-05-01T15:46:49.517Z</time></trkpt><trkpt lat="43.4227403" lon="12.3754975"><ele>557.0</ele><time>2026-05-01T15:46:50.516Z</time></trkpt><trkpt lat="43.4226911" lon="12.3753679"><ele>557.0</ele><time>2026-05-01T15:46:51.516Z</time></trkpt><trkpt lat="43.4226472" lon="12.3752443"><ele>557.0</ele><time>2026-05-01T15:46:52.517Z</time></trkpt><trkpt lat="43.4226141" lon="12.3751299"><ele>555.0</ele><time>2026-05-01T15:46:53.517Z</time></trkpt><trkpt lat="43.4225926" lon="12.3749953"><ele>553.0</ele><time>2026-05-01T15:46:54.517Z</time></trkpt><trkpt lat="43.4225864" lon="12.3748554"><ele>551.0</ele><time>2026-05-01T15:46:55.516Z</time></trkpt><trkpt lat="43.4226018" lon="12.3747136"><ele>549.0</ele><time>2026-05-01T15:46:56.517Z</time></trkpt><trkpt lat="43.4226398" lon="12.3745717"><ele>547.0</ele><time>2026-05-01T15:46:57.517Z</time></trkpt><trkpt lat="43.4226753" lon="12.374414"><ele>545.25</ele><time>2026-05-01T15:46:58.517Z</time></trkpt><trkpt lat="43.4227022" lon="12.3742351"><ele>543.5</ele><time>2026-05-01T15:46:59.517Z</time></trkpt><trkpt lat="43.4227303" lon="12.3740558"><ele>541.75</ele><time>2026-05-01T15:47:00.517Z</time></trkpt><trkpt lat="43.4227598" lon="12.3738746"><ele>540.0</ele><time>2026-05-01T15:47:01.517Z</time></trkpt><trkpt lat="43.422788" lon="12.3736952"><ele>539.0</ele><time>2026-05-01T15:47:02.517Z</time></trkpt><trkpt lat="43.4228137" lon="12.3735147"><ele>538.0</ele><time>2026-05-01T15:47:03.516Z</time></trkpt><trkpt lat="43.4228431" lon="12.3733345"><ele>537.0</ele><time>2026-05-01T15:47:04.517Z</time></trkpt><trkpt lat="43.4228719" lon="12.3731618"><ele>536.0</ele><time>2026-05-01T15:47:05.516Z</time></trkpt><trkpt lat="43.4228962" lon="12.3729976"><ele>535.8</ele><time>2026-05-01T15:47:06.517Z</time></trkpt><trkpt lat="43.4229224" lon="12.3728508"><ele>535.6</ele><time>2026-05-01T15:47:07.517Z</time></trkpt><trkpt lat="43.4229453" lon="12.3727196"><ele>535.4</ele><time>2026-05-01T15:47:08.516Z</time></trkpt><trkpt lat="43.4229792" lon="12.37261"><ele>535.2</ele><time>2026-05-01T15:47:09.517Z</time></trkpt><trkpt lat="43.4230324" lon="12.3725097"><ele>535.0</ele><time>2026-05-01T15:47:10.517Z</time></trkpt><trkpt lat="43.4231124" lon="12.3724202"><ele>533.75</ele><time>2026-05-01T15:47:11.516Z</time></trkpt><trkpt lat="43.4232183" lon="12.3723283"><ele>532.5</ele><time>2026-05-01T15:47:12.517Z</time></trkpt><trkpt lat="43.4233228" lon="12.3722176"><ele>531.25</ele><time>2026-05-01T15:47:13.517Z</time></trkpt><trkpt lat="43.4234239" lon="12.3720987"><ele>530.0</ele><time>2026-05-01T15:47:14.517Z</time></trkpt><trkpt lat="43.4235393" lon="12.3719598"><ele>530.0</ele><time>2026-05-01T15:47:15.516Z</time></trkpt><trkpt lat="43.4236508" lon="12.3718148"><ele>530.0</ele><time>2026-05-01T15:47:16.517Z</time></trkpt><trkpt lat="43.4237629" lon="12.3716596"><ele>530.0</ele><time>2026-05-01T15:47:17.517Z</time></trkpt><trkpt lat="43.4238735" lon="12.371495"><ele>529.75</ele><time>2026-05-01T15:47:18.517Z</time></trkpt><trkpt lat="43.4239815" lon="12.3713296"><ele>529.5</ele><time>2026-05-01T15:47:19.516Z</time></trkpt><trkpt lat="43.4240798" lon="12.3711764"><ele>529.25</ele><time>2026-05-01T15:47:20.517Z</time></trkpt><trkpt lat="43.4241678" lon="12.3710274"><ele>529.0</ele><time>2026-05-01T15:47:21.517Z</time></trkpt><trkpt lat="43.4242426" lon="12.3708837"><ele>529.0</ele><time>2026-05-01T15:47:22.517Z</time></trkpt><trkpt lat="43.4243274" lon="12.3707507"><ele>529.0</ele><time>2026-05-01T15:47:23.517Z</time></trkpt><trkpt lat="43.4244131" lon="12.3706356"><ele>529.0</ele><time>2026-05-01T15:47:24.517Z</time></trkpt><trkpt lat="43.4245059" lon="12.3705514"><ele>529.0</ele><time>2026-05-01T15:47:25.516Z</time></trkpt><trkpt lat="43.4246241" lon="12.3705024"><ele>528.75</ele><time>2026-05-01T15:47:26.517Z</time></trkpt><trkpt lat="43.4247617" lon="12.3704932"><ele>528.5</ele><time>2026-05-01T15:47:27.517Z</time></trkpt><trkpt lat="43.4248934" lon="12.3704869"><ele>528.25</ele><time>2026-05-01T15:47:28.517Z</time></trkpt><trkpt lat="43.4249976" lon="12.3704472"><ele>528.0</ele><time>2026-05-01T15:47:29.517Z</time></trkpt><trkpt lat="43.4250941" lon="12.3703828"><ele>528.0</ele><time>2026-05-01T15:47:30.516Z</time></trkpt><trkpt lat="43.4251713" lon="12.3702654"><ele>528.0</ele><time>2026-05-01T15:47:31.516Z</time></trkpt><trkpt lat="43.4252316" lon="12.3701225"><ele>528.0</ele><time>2026-05-01T15:47:32.517Z</time></trkpt><trkpt lat="43.4252913" lon="12.3699653"><ele>528.0</ele><time>2026-05-01T15:47:33.517Z</time></trkpt><trkpt lat="43.4253466" lon="12.3698035"><ele>527.5</ele><time>2026-05-01T15:47:34.517Z</time></trkpt><trkpt lat="43.4253963" lon="12.3696467"><ele>527.0</ele><time>2026-05-01T15:47:35.516Z</time></trkpt><trkpt lat="43.425426" lon="12.3694849"><ele>526.5</ele><time>2026-05-01T15:47:36.517Z</time></trkpt><trkpt lat="43.4254268" lon="12.3693038"><ele>526.0</ele><time>2026-05-01T15:47:37.517Z</time></trkpt><trkpt lat="43.4254233" lon="12.3691028"><ele>526.0</ele><time>2026-05-01T15:47:38.516Z</time></trkpt><trkpt lat="43.4254203" lon="12.3689057"><ele>526.0</ele><time>2026-05-01T15:47:39.517Z</time></trkpt><trkpt lat="43.4254211" lon="12.3687097"><ele>526.0</ele><time>2026-05-01T15:47:40.517Z</time></trkpt><trkpt lat="43.4254211" lon="12.3685138"><ele>526.0</ele><time>2026-05-01T15:47:41.517Z</time></trkpt><trkpt lat="43.4254205" lon="12.3683195"><ele>527.4</ele><time>2026-05-01T15:47:42.517Z</time></trkpt><trkpt lat="43.4254336" lon="12.3681504"><ele>528.8</ele><time>2026-05-01T15:47:43.517Z</time></trkpt><trkpt lat="43.4254551" lon="12.3679969"><ele>530.1999999999999</ele><time>2026-05-01T15:47:44.517Z</time></trkpt><trkpt lat="43.425465" lon="12.3678419"><ele>531.6</ele><time>2026-05-01T15:47:45.516Z</time></trkpt><trkpt lat="43.425456" lon="12.3677089"><ele>533.0</ele><time>2026-05-01T15:47:46.517Z</time></trkpt><trkpt lat="43.4254156" lon="12.3675885"><ele>534.5</ele><time>2026-05-01T15:47:47.517Z</time></trkpt><trkpt lat="43.4253331" lon="12.3674947"><ele>536.0</ele><time>2026-05-01T15:47:48.517Z</time></trkpt><trkpt lat="43.4252297" lon="12.3674088"><ele>537.5</ele><time>2026-05-01T15:47:49.517Z</time></trkpt><trkpt lat="43.425128" lon="12.3673347"><ele>539.0</ele><time>2026-05-01T15:47:50.517Z</time></trkpt><trkpt lat="43.4250215" lon="12.367281"><ele>539.0</ele><time>2026-05-01T15:47:51.517Z</time></trkpt><trkpt lat="43.4249055" lon="12.3672368"><ele>539.0</ele><time>2026-05-01T15:47:52.517Z</time></trkpt><trkpt lat="43.4247845" lon="12.3671856"><ele>539.0</ele><time>2026-05-01T15:47:53.517Z</time></trkpt><trkpt lat="43.4246588" lon="12.3671364"><ele>539.0</ele><time>2026-05-01T15:47:54.517Z</time></trkpt><trkpt lat="43.4245345" lon="12.367087"><ele>543.25</ele><time>2026-05-01T15:47:55.516Z</time></trkpt><trkpt lat="43.4244105" lon="12.3670281"><ele>547.5</ele><time>2026-05-01T15:47:56.517Z</time></trkpt><trkpt lat="43.424309" lon="12.3669793"><ele>551.75</ele><time>2026-05-01T15:47:57.517Z</time></trkpt><trkpt lat="43.4242162" lon="12.3669193"><ele>556.0</ele><time>2026-05-01T15:47:58.517Z</time></trkpt><trkpt lat="43.4241192" lon="12.3668309"><ele>556.0</ele><time>2026-05-01T15:47:59.516Z</time></trkpt><trkpt lat="43.4240249" lon="12.366734"><ele>556.0</ele><time>2026-05-01T15:48:00.517Z</time></trkpt><trkpt lat="43.4239314" lon="12.3666248"><ele>556.0</ele><time>2026-05-01T15:48:01.517Z</time></trkpt><trkpt lat="43.4238357" lon="12.3665146"><ele>556.0</ele><time>2026-05-01T15:48:02.516Z</time></trkpt><trkpt lat="43.4237553" lon="12.3664081"><ele>556.4</ele><time>2026-05-01T15:48:03.516Z</time></trkpt><trkpt lat="43.423701" lon="12.3663025"><ele>556.8</ele><time>2026-05-01T15:48:04.517Z</time></trkpt><trkpt lat="43.4236686" lon="12.3661848"><ele>557.1999999999999</ele><time>2026-05-01T15:48:05.517Z</time></trkpt><trkpt lat="43.4236508" lon="12.3660449"><ele>557.6</ele><time>2026-05-01T15:48:06.517Z</time></trkpt><trkpt lat="43.4236394" lon="12.3658819"><ele>558.0</ele><time>2026-05-01T15:48:07.517Z</time></trkpt><trkpt lat="43.4236324" lon="12.3657143"><ele>558.0</ele><time>2026-05-01T15:48:08.517Z</time></trkpt><trkpt lat="43.4236281" lon="12.3655448"><ele>558.0</ele><time>2026-05-01T15:48:09.516Z</time></trkpt><trkpt lat="43.4236297" lon="12.3653834"><ele>558.0</ele><time>2026-05-01T15:48:10.517Z</time></trkpt><trkpt lat="43.4236404" lon="12.3652359"><ele>558.0</ele><time>2026-05-01T15:48:11.517Z</time></trkpt><trkpt lat="43.4236739" lon="12.3650852"><ele>558.4</ele><time>2026-05-01T15:48:12.517Z</time></trkpt><trkpt lat="43.4237295" lon="12.3649443"><ele>558.8</ele><time>2026-05-01T15:48:13.517Z</time></trkpt><trkpt lat="43.4237944" lon="12.3648186"><ele>559.2</ele><time>2026-05-01T15:48:14.517Z</time></trkpt><trkpt lat="43.4238576" lon="12.3647116"><ele>559.6</ele><time>2026-05-01T15:48:15.517Z</time></trkpt><trkpt lat="43.4239394" lon="12.3646332"><ele>560.0</ele><time>2026-05-01T15:48:16.517Z</time></trkpt><trkpt lat="43.4240355" lon="12.3645407"><ele>562.25</ele><time>2026-05-01T15:48:17.517Z</time></trkpt><trkpt lat="43.4241474" lon="12.3644635"><ele>564.5</ele><time>2026-05-01T15:48:18.517Z</time></trkpt><trkpt lat="43.424263" lon="12.3643586"><ele>566.75</ele><time>2026-05-01T15:48:19.517Z</time></trkpt><trkpt lat="43.4243733" lon="12.3642559"><ele>569.0</ele><time>2026-05-01T15:48:20.517Z</time></trkpt><trkpt lat="43.4244859" lon="12.3641626"><ele>569.0</ele><time>2026-05-01T15:48:21.516Z</time></trkpt><trkpt lat="43.4245936" lon="12.3640588"><ele>569.0</ele><time>2026-05-01T15:48:22.517Z</time></trkpt><trkpt lat="43.4246862" lon="12.3639424"><ele>569.0</ele><time>2026-05-01T15:48:23.517Z</time></trkpt><trkpt lat="43.4247731" lon="12.3638143"><ele>569.0</ele><time>2026-05-01T15:48:24.517Z</time></trkpt><trkpt lat="43.4248526" lon="12.3636657"><ele>572.0</ele><time>2026-05-01T15:48:25.517Z</time></trkpt><trkpt lat="43.4249228" lon="12.3634923"><ele>575.0</ele><time>2026-05-01T15:48:26.516Z</time></trkpt><trkpt lat="43.4249846" lon="12.3633158"><ele>578.0</ele><time>2026-05-01T15:48:27.517Z</time></trkpt><trkpt lat="43.4250519" lon="12.3631385"><ele>581.0</ele><time>2026-05-01T15:48:28.517Z</time></trkpt><trkpt lat="43.425121" lon="12.3629677"><ele>581.0</ele><time>2026-05-01T15:48:29.517Z</time></trkpt><trkpt lat="43.4251932" lon="12.3628018"><ele>581.0</ele><time>2026-05-01T15:48:30.517Z</time></trkpt><trkpt lat="43.42527" lon="12.3626343"><ele>581.0</ele><time>2026-05-01T15:48:31.516Z</time></trkpt><trkpt lat="43.4253453" lon="12.3624599"><ele>581.0</ele><time>2026-05-01T15:48:32.517Z</time></trkpt><trkpt lat="43.4254123" lon="12.3622709"><ele>581.6666666666666</ele><time>2026-05-01T15:48:33.517Z</time></trkpt><trkpt lat="43.425466" lon="12.3620711"><ele>582.3333333333334</ele><time>2026-05-01T15:48:34.517Z</time></trkpt><trkpt lat="43.4255133" lon="12.3618668"><ele>583.0</ele><time>2026-05-01T15:48:35.517Z</time></trkpt><trkpt lat="43.4255462" lon="12.3616565"><ele>588.0</ele><time>2026-05-01T15:48:36.517Z</time></trkpt><trkpt lat="43.4255659" lon="12.3614427"><ele>593.0</ele><time>2026-05-01T15:48:37.516Z</time></trkpt><trkpt lat="43.4255665" lon="12.3612213"><ele>598.0</ele><time>2026-05-01T15:48:38.517Z</time></trkpt><trkpt lat="43.4255617" lon="12.3609958"><ele>599.3333333333334</ele><time>2026-05-01T15:48:39.517Z</time></trkpt><trkpt lat="43.4255609" lon="12.3607711"><ele>600.6666666666666</ele><time>2026-05-01T15:48:40.517Z</time></trkpt><trkpt lat="43.4255506" lon="12.3605413"><ele>602.0</ele><time>2026-05-01T15:48:41.517Z</time></trkpt><trkpt lat="43.4255462" lon="12.3603416"><ele>602.2</ele><time>2026-05-01T15:48:42.517Z</time></trkpt><trkpt lat="43.4255468" lon="12.3601965"><ele>602.4000000000001</ele><time>2026-05-01T15:48:43.517Z</time></trkpt><trkpt lat="43.4255633" lon="12.3600669"><ele>602.5999999999999</ele><time>2026-05-01T15:48:44.517Z</time></trkpt><trkpt lat="43.4255902" lon="12.3599389"><ele>602.8</ele><time>2026-05-01T15:48:45.516Z</time></trkpt><trkpt lat="43.425641" lon="12.3598296"><ele>603.0</ele><time>2026-05-01T15:48:46.516Z</time></trkpt><trkpt lat="43.4257155" lon="12.3597229"><ele>603.0</ele><time>2026-05-01T15:48:47.517Z</time></trkpt><trkpt lat="43.4258176" lon="12.3596626"><ele>603.0</ele><time>2026-05-01T15:48:48.517Z</time></trkpt><trkpt lat="43.4259219" lon="12.3596398"><ele>603.0</ele><time>2026-05-01T15:48:49.516Z</time></trkpt><trkpt lat="43.4260155" lon="12.3596649"><ele>603.0</ele><time>2026-05-01T15:48:50.517Z</time></trkpt><trkpt lat="43.4261121" lon="12.3597239"><ele>603.0</ele><time>2026-05-01T15:48:51.517Z</time></trkpt><trkpt lat="43.4262073" lon="12.3597904"><ele>603.0</ele><time>2026-05-01T15:48:52.517Z</time></trkpt><trkpt lat="43.4263025" lon="12.3598725"><ele>603.0</ele><time>2026-05-01T15:48:53.517Z</time></trkpt><trkpt lat="43.426399" lon="12.3599632"><ele>603.0</ele><time>2026-05-01T15:48:54.517Z</time></trkpt><trkpt lat="43.4264864" lon="12.3600637"><ele>603.0</ele><time>2026-05-01T15:48:55.517Z</time></trkpt><trkpt lat="43.4265796" lon="12.3601753"><ele>601.5</ele><time>2026-05-01T15:48:56.517Z</time></trkpt><trkpt lat="43.426672" lon="12.360307"><ele>600.0</ele><time>2026-05-01T15:48:57.517Z</time></trkpt><trkpt lat="43.4267594" lon="12.3604437"><ele>598.5</ele><time>2026-05-01T15:48:58.517Z</time></trkpt><trkpt lat="43.4268376" lon="12.3605899"><ele>597.0</ele><time>2026-05-01T15:48:59.517Z</time></trkpt><trkpt lat="43.4269177" lon="12.360737"><ele>597.75</ele><time>2026-05-01T15:49:00.517Z</time></trkpt><trkpt lat="43.4270061" lon="12.3608858"><ele>598.5</ele><time>2026-05-01T15:49:01.517Z</time></trkpt><trkpt lat="43.4271005" lon="12.3610237"><ele>599.25</ele><time>2026-05-01T15:49:02.517Z</time></trkpt><trkpt lat="43.4272022" lon="12.361157"><ele>600.0</ele><time>2026-05-01T15:49:03.516Z</time></trkpt><trkpt lat="43.4273065" lon="12.3612941"><ele>604.6666666666666</ele><time>2026-05-01T15:49:04.517Z</time></trkpt><trkpt lat="43.4274173" lon="12.3614329"><ele>609.3333333333333</ele><time>2026-05-01T15:49:05.517Z</time></trkpt><trkpt lat="43.4275311" lon="12.3615762"><ele>614.0</ele><time>2026-05-01T15:49:06.517Z</time></trkpt><trkpt lat="43.4276418" lon="12.3617206"><ele>614.0</ele><time>2026-05-01T15:49:07.517Z</time></trkpt><trkpt lat="43.4277553" lon="12.3618558"><ele>614.0</ele><time>2026-05-01T15:49:08.517Z</time></trkpt><trkpt lat="43.4278646" lon="12.3619736"><ele>614.0</ele><time>2026-05-01T15:49:09.517Z</time></trkpt><trkpt lat="43.4279712" lon="12.3620879"><ele>614.0</ele><time>2026-05-01T15:49:10.517Z</time></trkpt><trkpt lat="43.4280908" lon="12.362182"><ele>614.0</ele><time>2026-05-01T15:49:11.516Z</time></trkpt><trkpt lat="43.4282237" lon="12.3622564"><ele>614.0</ele><time>2026-05-01T15:49:12.517Z</time></trkpt><trkpt lat="43.4283707" lon="12.3622988"><ele>614.0</ele><time>2026-05-01T15:49:13.517Z</time></trkpt><trkpt lat="43.4285212" lon="12.3623273"><ele>614.0</ele><time>2026-05-01T15:49:14.518Z</time></trkpt><trkpt lat="43.4286746" lon="12.3623526"><ele>613.3333333333333</ele><time>2026-05-01T15:49:15.518Z</time></trkpt><trkpt lat="43.4288299" lon="12.3623854"><ele>612.6666666666666</ele><time>2026-05-01T15:49:16.518Z</time></trkpt><trkpt lat="43.4289806" lon="12.3624221"><ele>612.0</ele><time>2026-05-01T15:49:17.517Z</time></trkpt><trkpt lat="43.4291281" lon="12.3624708"><ele>612.0</ele><time>2026-05-01T15:49:18.518Z</time></trkpt><trkpt lat="43.4292771" lon="12.3625421"><ele>612.0</ele><time>2026-05-01T15:49:19.518Z</time></trkpt><trkpt lat="43.4294181" lon="12.3626429"><ele>612.0</ele><time>2026-05-01T15:49:20.518Z</time></trkpt><trkpt lat="43.4295501" lon="12.362762"><ele>612.6666666666666</ele><time>2026-05-01T15:49:21.518Z</time></trkpt><trkpt lat="43.4296677" lon="12.3629173"><ele>613.3333333333333</ele><time>2026-05-01T15:49:22.517Z</time></trkpt><trkpt lat="43.4297583" lon="12.3630966"><ele>614.0</ele><time>2026-05-01T15:49:23.518Z</time></trkpt><trkpt lat="43.4298402" lon="12.3632831"><ele>614.0</ele><time>2026-05-01T15:49:24.518Z</time></trkpt><trkpt lat="43.4299289" lon="12.3634599"><ele>614.0</ele><time>2026-05-01T15:49:25.518Z</time></trkpt><trkpt lat="43.4300324" lon="12.3636228"><ele>614.0</ele><time>2026-05-01T15:49:26.518Z</time></trkpt><trkpt lat="43.4301509" lon="12.3637673"><ele>615.3333333333333</ele><time>2026-05-01T15:49:27.518Z</time></trkpt><trkpt lat="43.4302702" lon="12.3639082"><ele>616.6666666666666</ele><time>2026-05-01T15:49:28.518Z</time></trkpt><trkpt lat="43.4303939" lon="12.3640419"><ele>618.0</ele><time>2026-05-01T15:49:29.518Z</time></trkpt><trkpt lat="43.4305271" lon="12.3641574"><ele>618.0</ele><time>2026-05-01T15:49:30.517Z</time></trkpt><trkpt lat="43.4306619" lon="12.3642631"><ele>618.0</ele><time>2026-05-01T15:49:31.518Z</time></trkpt><trkpt lat="43.4307933" lon="12.3643654"><ele>618.0</ele><time>2026-05-01T15:49:32.518Z</time></trkpt><trkpt lat="43.4309271" lon="12.3644651"><ele>618.0</ele><time>2026-05-01T15:49:33.518Z</time></trkpt><trkpt lat="43.4310565" lon="12.3645625"><ele>618.0</ele><time>2026-05-01T15:49:34.518Z</time></trkpt><trkpt lat="43.4311888" lon="12.3646534"><ele>618.0</ele><time>2026-05-01T15:49:35.518Z</time></trkpt><trkpt lat="43.4313238" lon="12.3647456"><ele>618.0</ele><time>2026-05-01T15:49:36.518Z</time></trkpt><trkpt lat="43.4314595" lon="12.364833"><ele>619.6666666666666</ele><time>2026-05-01T15:49:37.518Z</time></trkpt><trkpt lat="43.4316034" lon="12.3649194"><ele>621.3333333333333</ele><time>2026-05-01T15:49:38.518Z</time></trkpt><trkpt lat="43.4317545" lon="12.3649988"><ele>623.0</ele><time>2026-05-01T15:49:39.518Z</time></trkpt><trkpt lat="43.4319011" lon="12.3650759"><ele>623.0</ele><time>2026-05-01T15:49:40.518Z</time></trkpt><trkpt lat="43.4320506" lon="12.3651521"><ele>623.0</ele><time>2026-05-01T15:49:41.517Z</time></trkpt><trkpt lat="43.4322081" lon="12.3652184"><ele>623.0</ele><time>2026-05-01T15:49:42.518Z</time></trkpt><trkpt lat="43.4323766" lon="12.3652708"><ele>626.0</ele><time>2026-05-01T15:49:43.518Z</time></trkpt><trkpt lat="43.4325525" lon="12.3653105"><ele>629.0</ele><time>2026-05-01T15:49:44.518Z</time></trkpt><trkpt lat="43.4327377" lon="12.365339"><ele>632.0</ele><time>2026-05-01T15:49:45.518Z</time></trkpt><trkpt lat="43.4329269" lon="12.3653627"><ele>630.3333333333333</ele><time>2026-05-01T15:49:46.518Z</time></trkpt><trkpt lat="43.433119" lon="12.3653857"><ele>628.6666666666666</ele><time>2026-05-01T15:49:47.518Z</time></trkpt><trkpt lat="43.4333057" lon="12.3654117"><ele>627.0</ele><time>2026-05-01T15:49:48.518Z</time></trkpt><trkpt lat="43.4334697" lon="12.3654344"><ele>627.0</ele><time>2026-05-01T15:49:49.518Z</time></trkpt><trkpt lat="43.4336358" lon="12.3654625"><ele>627.0</ele><time>2026-05-01T15:49:50.517Z</time></trkpt><trkpt lat="43.4338039" lon="12.3654882"><ele>627.0</ele><time>2026-05-01T15:49:51.517Z</time></trkpt><trkpt lat="43.4339768" lon="12.3655131"><ele>626.0</ele><time>2026-05-01T15:49:52.518Z</time></trkpt><trkpt lat="43.4341426" lon="12.3655419"><ele>625.0</ele><time>2026-05-01T15:49:53.518Z</time></trkpt><trkpt lat="43.4342977" lon="12.3655743"><ele>624.0</ele><time>2026-05-01T15:49:54.518Z</time></trkpt><trkpt lat="43.4344337" lon="12.365601"><ele>624.0</ele><time>2026-05-01T15:49:55.518Z</time></trkpt><trkpt lat="43.4345558" lon="12.3656258"><ele>624.0</ele><time>2026-05-01T15:49:56.518Z</time></trkpt><trkpt lat="43.4346694" lon="12.3656461"><ele>624.0</ele><time>2026-05-01T15:49:57.517Z</time></trkpt><trkpt lat="43.4347837" lon="12.3656592"><ele>624.0</ele><time>2026-05-01T15:49:58.518Z</time></trkpt><trkpt lat="43.4348947" lon="12.3656743"><ele>625.0</ele><time>2026-05-01T15:49:59.518Z</time></trkpt><trkpt lat="43.4350137" lon="12.3656927"><ele>626.0</ele><time>2026-05-01T15:50:00.518Z</time></trkpt><trkpt lat="43.4351383" lon="12.3657226"><ele>627.0</ele><time>2026-05-01T15:50:01.518Z</time></trkpt><trkpt lat="43.4352621" lon="12.3657519"><ele>628.0</ele><time>2026-05-01T15:50:02.518Z</time></trkpt><trkpt lat="43.4353865" lon="12.3657834"><ele>628.75</ele><time>2026-05-01T15:50:03.518Z</time></trkpt><trkpt lat="43.4355084" lon="12.3658299"><ele>629.5</ele><time>2026-05-01T15:50:04.518Z</time></trkpt><trkpt lat="43.4356269" lon="12.3658891"><ele>630.25</ele><time>2026-05-01T15:50:05.518Z</time></trkpt><trkpt lat="43.4357413" lon="12.365973"><ele>631.0</ele><time>2026-05-01T15:50:06.518Z</time></trkpt><trkpt lat="43.4358492" lon="12.3660529"><ele>631.0</ele><time>2026-05-01T15:50:07.517Z</time></trkpt><trkpt lat="43.4359571" lon="12.3661268"><ele>631.0</ele><time>2026-05-01T15:50:08.518Z</time></trkpt><trkpt lat="43.4360769" lon="12.366194"><ele>631.0</ele><time>2026-05-01T15:50:09.517Z</time></trkpt><trkpt lat="43.4361999" lon="12.366244"><ele>631.0</ele><time>2026-05-01T15:50:10.518Z</time></trkpt><trkpt lat="43.4363268" lon="12.3662829"><ele>631.75</ele><time>2026-05-01T15:50:11.517Z</time></trkpt><trkpt lat="43.4364501" lon="12.3663235"><ele>632.5</ele><time>2026-05-01T15:50:12.518Z</time></trkpt><trkpt lat="43.4365666" lon="12.3663679"><ele>633.25</ele><time>2026-05-01T15:50:13.517Z</time></trkpt><trkpt lat="43.4366763" lon="12.3664227"><ele>634.0</ele><time>2026-05-01T15:50:14.518Z</time></trkpt><trkpt lat="43.4367856" lon="12.3664755"><ele>634.0</ele><time>2026-05-01T15:50:15.518Z</time></trkpt><trkpt lat="43.4369025" lon="12.3665034"><ele>634.0</ele><time>2026-05-01T15:50:16.518Z</time></trkpt><trkpt lat="43.4370165" lon="12.36651"><ele>634.0</ele><time>2026-05-01T15:50:17.518Z</time></trkpt><trkpt lat="43.43714" lon="12.366481"><ele>634.0</ele><time>2026-05-01T15:50:18.517Z</time></trkpt><trkpt lat="43.4372703" lon="12.3664233"><ele>629.3333333333334</ele><time>2026-05-01T15:50:19.518Z</time></trkpt><trkpt lat="43.4374007" lon="12.366353"><ele>624.6666666666666</ele><time>2026-05-01T15:50:20.518Z</time></trkpt><trkpt lat="43.4375266" lon="12.3662578"><ele>620.0</ele><time>2026-05-01T15:50:21.518Z</time></trkpt><trkpt lat="43.4376653" lon="12.3661292"><ele>620.0</ele><time>2026-05-01T15:50:22.518Z</time></trkpt><trkpt lat="43.437797" lon="12.3659781"><ele>620.0</ele><time>2026-05-01T15:50:23.518Z</time></trkpt><trkpt lat="43.43793" lon="12.365815"><ele>620.0</ele><time>2026-05-01T15:50:24.518Z</time></trkpt><trkpt lat="43.4380691" lon="12.3656675"><ele>619.0</ele><time>2026-05-01T15:50:25.518Z</time></trkpt><trkpt lat="43.438217" lon="12.3655114"><ele>618.0</ele><time>2026-05-01T15:50:26.518Z</time></trkpt><trkpt lat="43.4383682" lon="12.3653672"><ele>617.0</ele><time>2026-05-01T15:50:27.518Z</time></trkpt><trkpt lat="43.4385223" lon="12.3652331"><ele>617.0</ele><time>2026-05-01T15:50:28.518Z</time></trkpt><trkpt lat="43.4386741" lon="12.3651052"><ele>617.0</ele><time>2026-05-01T15:50:29.517Z</time></trkpt><trkpt lat="43.4388148" lon="12.3649877"><ele>617.0</ele><time>2026-05-01T15:50:30.518Z</time></trkpt><trkpt lat="43.4389461" lon="12.3648817"><ele>618.75</ele><time>2026-05-01T15:50:31.518Z</time></trkpt><trkpt lat="43.4390673" lon="12.3647883"><ele>620.5</ele><time>2026-05-01T15:50:32.517Z</time></trkpt><trkpt lat="43.4391844" lon="12.3646975"><ele>622.25</ele><time>2026-05-01T15:50:33.517Z</time></trkpt><trkpt lat="43.4392981" lon="12.3646182"><ele>624.0</ele><time>2026-05-01T15:50:34.517Z</time></trkpt><trkpt lat="43.4394073" lon="12.3645309"><ele>624.0</ele><time>2026-05-01T15:50:35.518Z</time></trkpt><trkpt lat="43.4394955" lon="12.3644478"><ele>624.0</ele><time>2026-05-01T15:50:36.518Z</time></trkpt><trkpt lat="43.4395579" lon="12.3643553"><ele>624.0</ele><time>2026-05-01T15:50:37.518Z</time></trkpt><trkpt lat="43.4396058" lon="12.3642485"><ele>624.0</ele><time>2026-05-01T15:50:38.517Z</time></trkpt><trkpt lat="43.4396406" lon="12.3641232"><ele>624.0</ele><time>2026-05-01T15:50:39.517Z</time></trkpt><trkpt lat="43.4396435" lon="12.3639976"><ele>624.0</ele><time>2026-05-01T15:50:40.518Z</time></trkpt><trkpt lat="43.4396207" lon="12.3638673"><ele>624.0</ele><time>2026-05-01T15:50:41.518Z</time></trkpt><trkpt lat="43.4395619" lon="12.3637441"><ele>624.0</ele><time>2026-05-01T15:50:42.518Z</time></trkpt><trkpt lat="43.4394797" lon="12.3636344"><ele>624.0</ele><time>2026-05-01T15:50:43.518Z</time></trkpt><trkpt lat="43.4393598" lon="12.363541"><ele>628.0</ele><time>2026-05-01T15:50:44.518Z</time></trkpt><trkpt lat="43.4392193" lon="12.3634686"><ele>632.0</ele><time>2026-05-01T15:50:45.517Z</time></trkpt><trkpt lat="43.4390678" lon="12.363397"><ele>636.0</ele><time>2026-05-01T15:50:46.518Z</time></trkpt><trkpt lat="43.438912" lon="12.3633293"><ele>631.3333333333334</ele><time>2026-05-01T15:50:47.518Z</time></trkpt><trkpt lat="43.4387569" lon="12.3632698"><ele>626.6666666666667</ele><time>2026-05-01T15:50:48.518Z</time></trkpt><trkpt lat="43.4385958" lon="12.3631985"><ele>622.0</ele><time>2026-05-01T15:50:49.518Z</time></trkpt><trkpt lat="43.4384382" lon="12.3631191"><ele>628.3333333333334</ele><time>2026-05-01T15:50:50.518Z</time></trkpt><trkpt lat="43.4382878" lon="12.363028"><ele>634.6666666666666</ele><time>2026-05-01T15:50:51.517Z</time></trkpt><trkpt lat="43.4381565" lon="12.3629112"><ele>641.0</ele><time>2026-05-01T15:50:52.517Z</time></trkpt><trkpt lat="43.4380345" lon="12.3627907"><ele>634.6666666666666</ele><time>2026-05-01T15:50:53.517Z</time></trkpt><trkpt lat="43.4379148" lon="12.3626685"><ele>628.3333333333334</ele><time>2026-05-01T15:50:54.518Z</time></trkpt><trkpt lat="43.4378014" lon="12.3625376"><ele>622.0</ele><time>2026-05-01T15:50:55.518Z</time></trkpt><trkpt lat="43.4376982" lon="12.3623742"><ele>626.3333333333334</ele><time>2026-05-01T15:50:56.518Z</time></trkpt><trkpt lat="43.4375987" lon="12.3621924"><ele>630.6666666666666</ele><time>2026-05-01T15:50:57.517Z</time></trkpt><trkpt lat="43.4375067" lon="12.3619999"><ele>635.0</ele><time>2026-05-01T15:50:58.518Z</time></trkpt><trkpt lat="43.4374097" lon="12.361812"><ele>635.0</ele><time>2026-05-01T15:50:59.517Z</time></trkpt><trkpt lat="43.4373234" lon="12.3616284"><ele>635.0</ele><time>2026-05-01T15:51:00.518Z</time></trkpt><trkpt lat="43.4372516" lon="12.3614622"><ele>635.0</ele><time>2026-05-01T15:51:01.518Z</time></trkpt><trkpt lat="43.4371979" lon="12.3613006"><ele>635.0</ele><time>2026-05-01T15:51:02.517Z</time></trkpt><trkpt lat="43.437168" lon="12.3611303"><ele>635.2</ele><time>2026-05-01T15:51:03.518Z</time></trkpt><trkpt lat="43.4371722" lon="12.3609667"><ele>635.4</ele><time>2026-05-01T15:51:04.517Z</time></trkpt><trkpt lat="43.4371967" lon="12.3608131"><ele>635.6</ele><time>2026-05-01T15:51:05.518Z</time></trkpt><trkpt lat="43.437248" lon="12.3606815"><ele>635.8</ele><time>2026-05-01T15:51:06.518Z</time></trkpt><trkpt lat="43.4373158" lon="12.3605728"><ele>636.0</ele><time>2026-05-01T15:51:07.518Z</time></trkpt><trkpt lat="43.4374086" lon="12.3604982"><ele>632.5</ele><time>2026-05-01T15:51:08.518Z</time></trkpt><trkpt lat="43.4375131" lon="12.3604599"><ele>629.0</ele><time>2026-05-01T15:51:09.518Z</time></trkpt><trkpt lat="43.4376413" lon="12.3604417"><ele>625.5</ele><time>2026-05-01T15:51:10.518Z</time></trkpt><trkpt lat="43.4377735" lon="12.3604415"><ele>622.0</ele><time>2026-05-01T15:51:11.518Z</time></trkpt><trkpt lat="43.437916" lon="12.3604393"><ele>622.3333333333334</ele><time>2026-05-01T15:51:12.518Z</time></trkpt><trkpt lat="43.4380714" lon="12.36045"><ele>622.6666666666666</ele><time>2026-05-01T15:51:13.517Z</time></trkpt><trkpt lat="43.4382302" lon="12.3604775"><ele>623.0</ele><time>2026-05-01T15:51:14.518Z</time></trkpt><trkpt lat="43.4383881" lon="12.3605202"><ele>623.25</ele><time>2026-05-01T15:51:15.518Z</time></trkpt><trkpt lat="43.4385389" lon="12.360556"><ele>623.5</ele><time>2026-05-01T15:51:16.517Z</time></trkpt><trkpt lat="43.4386827" lon="12.3605738"><ele>623.75</ele><time>2026-05-01T15:51:17.518Z</time></trkpt><trkpt lat="43.4388158" lon="12.3605603"><ele>624.0</ele><time>2026-05-01T15:51:18.518Z</time></trkpt><trkpt lat="43.4389528" lon="12.360514"><ele>624.0</ele><time>2026-05-01T15:51:19.518Z</time></trkpt><trkpt lat="43.4390853" lon="12.3604235"><ele>624.0</ele><time>2026-05-01T15:51:20.517Z</time></trkpt><trkpt lat="43.4392121" lon="12.3602779"><ele>624.0</ele><time>2026-05-01T15:51:21.518Z</time></trkpt><trkpt lat="43.4393331" lon="12.3601241"><ele>624.0</ele><time>2026-05-01T15:51:22.518Z</time></trkpt><trkpt lat="43.4394438" lon="12.3599815"><ele>624.0</ele><time>2026-05-01T15:51:23.518Z</time></trkpt><trkpt lat="43.4395462" lon="12.3598306"><ele>624.0</ele><time>2026-05-01T15:51:24.518Z</time></trkpt><trkpt lat="43.439621" lon="12.3596743"><ele>624.0</ele><time>2026-05-01T15:51:25.518Z</time></trkpt><trkpt lat="43.4396848" lon="12.3595234"><ele>625.25</ele><time>2026-05-01T15:51:26.518Z</time></trkpt><trkpt lat="43.4397429" lon="12.359374"><ele>626.5</ele><time>2026-05-01T15:51:27.518Z</time></trkpt><trkpt lat="43.4397762" lon="12.3592095"><ele>627.75</ele><time>2026-05-01T15:51:28.518Z</time></trkpt><trkpt lat="43.4397809" lon="12.3590249"><ele>629.0</ele><time>2026-05-01T15:51:29.518Z</time></trkpt><trkpt lat="43.4397479" lon="12.3588374"><ele>629.5</ele><time>2026-05-01T15:51:30.518Z</time></trkpt><trkpt lat="43.439703" lon="12.3586633"><ele>630.0</ele><time>2026-05-01T15:51:31.517Z</time></trkpt><trkpt lat="43.4396576" lon="12.3584996"><ele>630.5</ele><time>2026-05-01T15:51:32.518Z</time></trkpt><trkpt lat="43.4396265" lon="12.3583478"><ele>631.0</ele><time>2026-05-01T15:51:33.518Z</time></trkpt><trkpt lat="43.4396197" lon="12.3582087"><ele>631.0</ele><time>2026-05-01T15:51:34.517Z</time></trkpt><trkpt lat="43.4396379" lon="12.3580744"><ele>631.0</ele><time>2026-05-01T15:51:35.517Z</time></trkpt><trkpt lat="43.4396803" lon="12.357947"><ele>631.0</ele><time>2026-05-01T15:51:36.518Z</time></trkpt><trkpt lat="43.4397402" lon="12.35783"><ele>631.0</ele><time>2026-05-01T15:51:37.518Z</time></trkpt><trkpt lat="43.4398246" lon="12.3577527"><ele>631.0</ele><time>2026-05-01T15:51:38.518Z</time></trkpt><trkpt lat="43.4399211" lon="12.3576858"><ele>628.25</ele><time>2026-05-01T15:51:39.518Z</time></trkpt><trkpt lat="43.4400217" lon="12.3576274"><ele>625.5</ele><time>2026-05-01T15:51:40.518Z</time></trkpt><trkpt lat="43.4401099" lon="12.3575512"><ele>622.75</ele><time>2026-05-01T15:51:41.518Z</time></trkpt><trkpt lat="43.4402023" lon="12.3574559"><ele>620.0</ele><time>2026-05-01T15:51:42.518Z</time></trkpt><trkpt lat="43.4402916" lon="12.3573404"><ele>620.0</ele><time>2026-05-01T15:51:43.517Z</time></trkpt><trkpt lat="43.4403655" lon="12.3572083"><ele>620.0</ele><time>2026-05-01T15:51:44.518Z</time></trkpt><trkpt lat="43.440422" lon="12.3570689"><ele>620.0</ele><time>2026-05-01T15:51:45.518Z</time></trkpt><trkpt lat="43.4404535" lon="12.356905"><ele>620.0</ele><time>2026-05-01T15:51:46.518Z</time></trkpt><trkpt lat="43.4404752" lon="12.356732"><ele>620.5</ele><time>2026-05-01T15:51:47.518Z</time></trkpt><trkpt lat="43.4405061" lon="12.3565498"><ele>621.0</ele><time>2026-05-01T15:51:48.518Z</time></trkpt><trkpt lat="43.4405453" lon="12.3563682"><ele>621.5</ele><time>2026-05-01T15:51:49.518Z</time></trkpt><trkpt lat="43.4405953" lon="12.3561923"><ele>622.0</ele><time>2026-05-01T15:51:50.518Z</time></trkpt><trkpt lat="43.4406501" lon="12.3560148"><ele>620.75</ele><time>2026-05-01T15:51:51.518Z</time></trkpt><trkpt lat="43.4406918" lon="12.3558407"><ele>619.5</ele><time>2026-05-01T15:51:52.517Z</time></trkpt><trkpt lat="43.4407037" lon="12.3556714"><ele>618.25</ele><time>2026-05-01T15:51:53.518Z</time></trkpt><trkpt lat="43.4406843" lon="12.3555122"><ele>617.0</ele><time>2026-05-01T15:51:54.518Z</time></trkpt><trkpt lat="43.4406438" lon="12.3553854"><ele>617.0</ele><time>2026-05-01T15:51:55.518Z</time></trkpt><trkpt lat="43.4405843" lon="12.3552575"><ele>617.0</ele><time>2026-05-01T15:51:56.517Z</time></trkpt><trkpt lat="43.4405097" lon="12.3551332"><ele>617.0</ele><time>2026-05-01T15:51:57.518Z</time></trkpt><trkpt lat="43.4404138" lon="12.3550162"><ele>617.0</ele><time>2026-05-01T15:51:58.517Z</time></trkpt><trkpt lat="43.44032" lon="12.3548883"><ele>620.25</ele><time>2026-05-01T15:51:59.518Z</time></trkpt><trkpt lat="43.4402278" lon="12.3547692"><ele>623.5</ele><time>2026-05-01T15:52:00.518Z</time></trkpt><trkpt lat="43.4401318" lon="12.3546439"><ele>626.75</ele><time>2026-05-01T15:52:01.518Z</time></trkpt><trkpt lat="43.4400474" lon="12.3545245"><ele>630.0</ele><time>2026-05-01T15:52:02.517Z</time></trkpt><trkpt lat="43.4399731" lon="12.3543938"><ele>630.0</ele><time>2026-05-01T15:52:03.518Z</time></trkpt><trkpt lat="43.4399199" lon="12.3542572"><ele>630.0</ele><time>2026-05-01T15:52:04.517Z</time></trkpt><trkpt lat="43.4398865" lon="12.3541192"><ele>630.0</ele><time>2026-05-01T15:52:05.517Z</time></trkpt><trkpt lat="43.4398579" lon="12.3539876"><ele>630.0</ele><time>2026-05-01T15:52:06.518Z</time></trkpt><trkpt lat="43.4398641" lon="12.353842"><ele>630.0</ele><time>2026-05-01T15:52:07.518Z</time></trkpt><trkpt lat="43.4398795" lon="12.3536734"><ele>630.25</ele><time>2026-05-01T15:52:08.518Z</time></trkpt><trkpt lat="43.4399181" lon="12.3534948"><ele>630.5</ele><time>2026-05-01T15:52:09.518Z</time></trkpt><trkpt lat="43.4399564" lon="12.3533259"><ele>630.75</ele><time>2026-05-01T15:52:10.517Z</time></trkpt><trkpt lat="43.4400083" lon="12.353178"><ele>631.0</ele><time>2026-05-01T15:52:11.518Z</time></trkpt><trkpt lat="43.440066" lon="12.3530447"><ele>631.75</ele><time>2026-05-01T15:52:12.518Z</time></trkpt><trkpt lat="43.4401388" lon="12.3529172"><ele>632.5</ele><time>2026-05-01T15:52:13.518Z</time></trkpt><trkpt lat="43.4402263" lon="12.3528156"><ele>633.25</ele><time>2026-05-01T15:52:14.518Z</time></trkpt><trkpt lat="43.4403521" lon="12.3527368"><ele>634.0</ele><time>2026-05-01T15:52:15.517Z</time></trkpt><trkpt lat="43.4404985" lon="12.3526708"><ele>634.0</ele><time>2026-05-01T15:52:16.518Z</time></trkpt><trkpt lat="43.4406297" lon="12.3525893"><ele>634.0</ele><time>2026-05-01T15:52:17.518Z</time></trkpt><trkpt lat="43.440765" lon="12.3525108"><ele>634.0</ele><time>2026-05-01T15:52:18.517Z</time></trkpt><trkpt lat="43.4408907" lon="12.3524388"><ele>634.0</ele><time>2026-05-01T15:52:19.518Z</time></trkpt><trkpt lat="43.4410145" lon="12.3523898"><ele>634.0</ele><time>2026-05-01T15:52:20.518Z</time></trkpt><trkpt lat="43.4411442" lon="12.3523695"><ele>634.0</ele><time>2026-05-01T15:52:21.518Z</time></trkpt><trkpt lat="43.4412855" lon="12.3523716"><ele>634.0</ele><time>2026-05-01T15:52:22.518Z</time></trkpt><trkpt lat="43.4414134" lon="12.3523851"><ele>634.0</ele><time>2026-05-01T15:52:23.518Z</time></trkpt><trkpt lat="43.4415371" lon="12.3524036"><ele>634.8</ele><time>2026-05-01T15:52:24.518Z</time></trkpt><trkpt lat="43.4416572" lon="12.3524146"><ele>635.5999999999999</ele><time>2026-05-01T15:52:25.518Z</time></trkpt><trkpt lat="43.4417701" lon="12.3523946"><ele>636.4</ele><time>2026-05-01T15:52:26.517Z</time></trkpt><trkpt lat="43.4418658" lon="12.3523483"><ele>637.1999999999999</ele><time>2026-05-01T15:52:27.518Z</time></trkpt><trkpt lat="43.4419529" lon="12.3522614"><ele>638.0</ele><time>2026-05-01T15:52:28.517Z</time></trkpt><trkpt lat="43.4420267" lon="12.3521427"><ele>638.0</ele><time>2026-05-01T15:52:29.518Z</time></trkpt><trkpt lat="43.4420779" lon="12.352003"><ele>638.0</ele><time>2026-05-01T15:52:30.518Z</time></trkpt><trkpt lat="43.4421223" lon="12.351823"><ele>638.0</ele><time>2026-05-01T15:52:31.518Z</time></trkpt><trkpt lat="43.4421617" lon="12.3516343"><ele>638.0</ele><time>2026-05-01T15:52:32.517Z</time></trkpt><trkpt lat="43.4421989" lon="12.3514395"><ele>639.0</ele><time>2026-05-01T15:52:33.517Z</time></trkpt><trkpt lat="43.4422364" lon="12.3512486"><ele>640.0</ele><time>2026-05-01T15:52:34.517Z</time></trkpt><trkpt lat="43.4422753" lon="12.3510626"><ele>641.0</ele><time>2026-05-01T15:52:35.518Z</time></trkpt><trkpt lat="43.4423109" lon="12.3508966"><ele>642.0</ele><time>2026-05-01T15:52:36.517Z</time></trkpt><trkpt lat="43.4423509" lon="12.3507487"><ele>642.0</ele><time>2026-05-01T15:52:37.517Z</time></trkpt><trkpt lat="43.4424179" lon="12.3506344"><ele>642.0</ele><time>2026-05-01T15:52:38.518Z</time></trkpt><trkpt lat="43.4425118" lon="12.3505285"><ele>642.0</ele><time>2026-05-01T15:52:39.518Z</time></trkpt><trkpt lat="43.4426234" lon="12.3504792"><ele>642.0</ele><time>2026-05-01T15:52:40.518Z</time></trkpt><trkpt lat="43.4427387" lon="12.3504783"><ele>642.0</ele><time>2026-05-01T15:52:41.518Z</time></trkpt><trkpt lat="43.4428662" lon="12.3505262"><ele>642.0</ele><time>2026-05-01T15:52:42.518Z</time></trkpt><trkpt lat="43.4429862" lon="12.3506373"><ele>642.0</ele><time>2026-05-01T15:52:43.517Z</time></trkpt><trkpt lat="43.4431047" lon="12.3507463"><ele>642.0</ele><time>2026-05-01T15:52:44.518Z</time></trkpt><trkpt lat="43.4432238" lon="12.3508564"><ele>642.6666666666666</ele><time>2026-05-01T15:52:45.518Z</time></trkpt><trkpt lat="43.4433585" lon="12.3509637"><ele>643.3333333333333</ele><time>2026-05-01T15:52:46.518Z</time></trkpt><trkpt lat="43.4434927" lon="12.3510717"><ele>644.0</ele><time>2026-05-01T15:52:47.518Z</time></trkpt><trkpt lat="43.4436153" lon="12.3511792"><ele>644.0</ele><time>2026-05-01T15:52:48.518Z</time></trkpt><trkpt lat="43.4437286" lon="12.3512957"><ele>644.0</ele><time>2026-05-01T15:52:49.518Z</time></trkpt><trkpt lat="43.4438315" lon="12.3514154"><ele>644.0</ele><time>2026-05-01T15:52:50.518Z</time></trkpt><trkpt lat="43.4439109" lon="12.3515853"><ele>644.0</ele><time>2026-05-01T15:52:51.517Z</time></trkpt><trkpt lat="43.4439695" lon="12.351774"><ele>645.0</ele><time>2026-05-01T15:52:52.518Z</time></trkpt><trkpt lat="43.4440386" lon="12.3519466"><ele>646.0</ele><time>2026-05-01T15:52:53.518Z</time></trkpt><trkpt lat="43.4441495" lon="12.3521177"><ele>647.0</ele><time>2026-05-01T15:52:54.517Z</time></trkpt><trkpt lat="43.4442711" lon="12.3522649"><ele>650.0</ele><time>2026-05-01T15:52:55.517Z</time></trkpt><trkpt lat="43.4443979" lon="12.3524151"><ele>653.0</ele><time>2026-05-01T15:52:56.517Z</time></trkpt><trkpt lat="43.4445191" lon="12.3525654"><ele>656.0</ele><time>2026-05-01T15:52:57.517Z</time></trkpt><trkpt lat="43.444638" lon="12.3526863"><ele>656.0</ele><time>2026-05-01T15:52:58.518Z</time></trkpt><trkpt lat="43.4447641" lon="12.3527465"><ele>656.0</ele><time>2026-05-01T15:52:59.518Z</time></trkpt><trkpt lat="43.4448999" lon="12.3527324"><ele>656.0</ele><time>2026-05-01T15:53:00.517Z</time></trkpt><trkpt lat="43.4450252" lon="12.3526674"><ele>656.0</ele><time>2026-05-01T15:53:01.518Z</time></trkpt><trkpt lat="43.4451137" lon="12.3525524"><ele>656.0</ele><time>2026-05-01T15:53:02.517Z</time></trkpt><trkpt lat="43.4451689" lon="12.3523967"><ele>656.0</ele><time>2026-05-01T15:53:03.518Z</time></trkpt><trkpt lat="43.4452165" lon="12.3522085"><ele>656.0</ele><time>2026-05-01T15:53:04.518Z</time></trkpt><trkpt lat="43.4452472" lon="12.352031"><ele>656.0</ele><time>2026-05-01T15:53:05.518Z</time></trkpt><trkpt lat="43.4452883" lon="12.3518733"><ele>655.0</ele><time>2026-05-01T15:53:06.518Z</time></trkpt><trkpt lat="43.4453459" lon="12.3517803"><ele>654.0</ele><time>2026-05-01T15:53:07.517Z</time></trkpt><trkpt lat="43.4454459" lon="12.3517735"><ele>653.0</ele><time>2026-05-01T15:53:08.518Z</time></trkpt><trkpt lat="43.4455554" lon="12.3517874"><ele>652.0</ele><time>2026-05-01T15:53:09.518Z</time></trkpt><trkpt lat="43.4456792" lon="12.3518284"><ele>651.0</ele><time>2026-05-01T15:53:10.517Z</time></trkpt><trkpt lat="43.4457998" lon="12.3519002"><ele>651.0</ele><time>2026-05-01T15:53:11.518Z</time></trkpt><trkpt lat="43.4459206" lon="12.3519803"><ele>651.0</ele><time>2026-05-01T15:53:12.517Z</time></trkpt><trkpt lat="43.4460303" lon="12.3520743"><ele>651.0</ele><time>2026-05-01T15:53:13.517Z</time></trkpt><trkpt lat="43.4461202" lon="12.3522084"><ele>651.0</ele><time>2026-05-01T15:53:14.518Z</time></trkpt><trkpt lat="43.4461705" lon="12.352391"><ele>649.25</ele><time>2026-05-01T15:53:15.518Z</time></trkpt><trkpt lat="43.4462277" lon="12.3525616"><ele>647.5</ele><time>2026-05-01T15:53:16.518Z</time></trkpt><trkpt lat="43.4462844" lon="12.3527283"><ele>645.75</ele><time>2026-05-01T15:53:17.517Z</time></trkpt><trkpt lat="43.4463413" lon="12.3528835"><ele>644.0</ele><time>2026-05-01T15:53:18.518Z</time></trkpt><trkpt lat="43.4464072" lon="12.3530166"><ele>648.25</ele><time>2026-05-01T15:53:19.517Z</time></trkpt><trkpt lat="43.4464934" lon="12.3531193"><ele>652.5</ele><time>2026-05-01T15:53:20.518Z</time></trkpt><trkpt lat="43.4466025" lon="12.3531766"><ele>656.75</ele><time>2026-05-01T15:53:21.518Z</time></trkpt><trkpt lat="43.4467236" lon="12.3532088"><ele>661.0</ele><time>2026-05-01T15:53:22.518Z</time></trkpt><trkpt lat="43.4468619" lon="12.353207"><ele>661.0</ele><time>2026-05-01T15:53:23.518Z</time></trkpt><trkpt lat="43.4470094" lon="12.3531837"><ele>661.0</ele><time>2026-05-01T15:53:24.517Z</time></trkpt><trkpt lat="43.4471651" lon="12.3531368"><ele>661.0</ele><time>2026-05-01T15:53:25.517Z</time></trkpt><trkpt lat="43.4473153" lon="12.3530996"><ele>659.1999999999999</ele><time>2026-05-01T15:53:26.518Z</time></trkpt><trkpt lat="43.4474499" lon="12.3530667"><ele>657.4</ele><time>2026-05-01T15:53:27.518Z</time></trkpt><trkpt lat="43.4475657" lon="12.3530396"><ele>655.6</ele><time>2026-05-01T15:53:28.518Z</time></trkpt><trkpt lat="43.4476585" lon="12.3530086"><ele>653.8</ele><time>2026-05-01T15:53:29.518Z</time></trkpt><trkpt lat="43.4477191" lon="12.3529745"><ele>652.0</ele><time>2026-05-01T15:53:30.518Z</time></trkpt><trkpt lat="43.4478149" lon="12.3529198"><ele>650.6666666666667</ele><time>2026-05-01T15:53:32.517Z</time></trkpt><trkpt lat="43.4478935" lon="12.3529198"><ele>649.3333333333334</ele><time>2026-05-01T15:53:34.518Z</time></trkpt><trkpt lat="43.4479884" lon="12.3529864"><ele>648.0</ele><time>2026-05-01T15:53:36.517Z</time></trkpt><trkpt lat="43.4480474" lon="12.3530363"><ele>646.6666666666666</ele><time>2026-05-01T15:53:37.518Z</time></trkpt><trkpt lat="43.4481195" lon="12.3530997"><ele>645.3333333333333</ele><time>2026-05-01T15:53:38.518Z</time></trkpt><trkpt lat="43.4481941" lon="12.3531516"><ele>644.0</ele><time>2026-05-01T15:53:39.518Z</time></trkpt><trkpt lat="43.4482757" lon="12.3531831"><ele>644.0</ele><time>2026-05-01T15:53:40.518Z</time></trkpt><trkpt lat="43.448362" lon="12.3532202"><ele>644.0</ele><time>2026-05-01T15:53:41.518Z</time></trkpt><trkpt lat="43.4484547" lon="12.3532277"><ele>644.0</ele><time>2026-05-01T15:53:42.518Z</time></trkpt><trkpt lat="43.4485349" lon="12.3532611"><ele>644.0</ele><time>2026-05-01T15:53:43.517Z</time></trkpt><trkpt lat="43.4486014" lon="12.3533134"><ele>644.0</ele><time>2026-05-01T15:53:44.518Z</time></trkpt><trkpt lat="43.4486621" lon="12.3534031"><ele>644.0</ele><time>2026-05-01T15:53:45.518Z</time></trkpt><trkpt lat="43.4487102" lon="12.3534943"><ele>644.0</ele><time>2026-05-01T15:53:46.518Z</time></trkpt><trkpt lat="43.4487556" lon="12.3535823"><ele>644.0</ele><time>2026-05-01T15:53:47.518Z</time></trkpt><trkpt lat="43.4487848" lon="12.3536634"><ele>644.0</ele><time>2026-05-01T15:53:48.518Z</time></trkpt><trkpt lat="43.4489124" lon="12.3537098"><ele>644.0</ele><time>2026-05-01T15:53:50.518Z</time></trkpt><trkpt lat="43.4490367" lon="12.3536945"><ele>644.0</ele><time>2026-05-01T15:53:51.518Z</time></trkpt><trkpt lat="43.4491465" lon="12.3536206"><ele>643.75</ele><time>2026-05-01T15:53:52.518Z</time></trkpt><trkpt lat="43.4492577" lon="12.3535211"><ele>643.5</ele><time>2026-05-01T15:53:53.518Z</time></trkpt><trkpt lat="43.4493492" lon="12.3533835"><ele>643.25</ele><time>2026-05-01T15:53:54.518Z</time></trkpt><trkpt lat="43.4494288" lon="12.3532222"><ele>643.0</ele><time>2026-05-01T15:53:55.518Z</time></trkpt><trkpt lat="43.4494991" lon="12.3530607"><ele>642.1999999999999</ele><time>2026-05-01T15:53:56.518Z</time></trkpt><trkpt lat="43.4495465" lon="12.3528994"><ele>641.4</ele><time>2026-05-01T15:53:57.517Z</time></trkpt><trkpt lat="43.4495813" lon="12.3527604"><ele>640.5999999999999</ele><time>2026-05-01T15:53:58.518Z</time></trkpt><trkpt lat="43.449622" lon="12.3526523"><ele>639.8</ele><time>2026-05-01T15:53:59.518Z</time></trkpt><trkpt lat="43.4496644" lon="12.3525618"><ele>639.0</ele><time>2026-05-01T15:54:00.517Z</time></trkpt><trkpt lat="43.4497359" lon="12.3525077"><ele>639.0</ele><time>2026-05-01T15:54:01.518Z</time></trkpt><trkpt lat="43.4498287" lon="12.3524663"><ele>639.0</ele><time>2026-05-01T15:54:02.518Z</time></trkpt><trkpt lat="43.4499326" lon="12.3524364"><ele>639.0</ele><time>2026-05-01T15:54:03.517Z</time></trkpt><trkpt lat="43.4500331" lon="12.3523949"><ele>639.0</ele><time>2026-05-01T15:54:04.518Z</time></trkpt><trkpt lat="43.4501277" lon="12.3523478"><ele>639.0</ele><time>2026-05-01T15:54:05.518Z</time></trkpt><trkpt lat="43.4502261" lon="12.3522975"><ele>639.0</ele><time>2026-05-01T15:54:06.518Z</time></trkpt><trkpt lat="43.4503213" lon="12.3522419"><ele>639.0</ele><time>2026-05-01T15:54:07.518Z</time></trkpt><trkpt lat="43.4504105" lon="12.3521981"><ele>639.0</ele><time>2026-05-01T15:54:08.518Z</time></trkpt><trkpt lat="43.4504994" lon="12.3521677"><ele>639.0</ele><time>2026-05-01T15:54:09.517Z</time></trkpt><trkpt lat="43.4505845" lon="12.3521376"><ele>639.0</ele><time>2026-05-01T15:54:10.518Z</time></trkpt><trkpt lat="43.450669" lon="12.3521118"><ele>635.0</ele><time>2026-05-01T15:54:11.517Z</time></trkpt><trkpt lat="43.4507595" lon="12.3520871"><ele>631.0</ele><time>2026-05-01T15:54:12.518Z</time></trkpt><trkpt lat="43.4508462" lon="12.3520686"><ele>627.0</ele><time>2026-05-01T15:54:13.518Z</time></trkpt><trkpt lat="43.4509306" lon="12.3520556"><ele>623.0</ele><time>2026-05-01T15:54:14.517Z</time></trkpt><trkpt lat="43.4510152" lon="12.3520482"><ele>619.0</ele><time>2026-05-01T15:54:15.518Z</time></trkpt><trkpt lat="43.4510938" lon="12.3520391"><ele>615.0</ele><time>2026-05-01T15:54:16.517Z</time></trkpt><trkpt lat="43.4511677" lon="12.3520254"><ele>615.0</ele><time>2026-05-01T15:54:17.518Z</time></trkpt><trkpt lat="43.4512338" lon="12.3520178"><ele>615.0</ele><time>2026-05-01T15:54:18.518Z</time></trkpt><trkpt lat="43.4512969" lon="12.3520214"><ele>615.0</ele><time>2026-05-01T15:54:19.518Z</time></trkpt><trkpt lat="43.4513589" lon="12.3520429"><ele>615.0</ele><time>2026-05-01T15:54:20.517Z</time></trkpt><trkpt lat="43.4514239" lon="12.3521935"><ele>615.0</ele><time>2026-05-01T15:54:22.518Z</time></trkpt><trkpt lat="43.4514111" lon="12.3522977"><ele>615.0</ele><time>2026-05-01T15:54:23.518Z</time></trkpt><trkpt lat="43.4513762" lon="12.3524096"><ele>612.75</ele><time>2026-05-01T15:54:24.517Z</time></trkpt><trkpt lat="43.4513212" lon="12.3525287"><ele>610.5</ele><time>2026-05-01T15:54:25.517Z</time></trkpt><trkpt lat="43.4512496" lon="12.3526586"><ele>608.25</ele><time>2026-05-01T15:54:26.518Z</time></trkpt><trkpt lat="43.4511804" lon="12.3528015"><ele>606.0</ele><time>2026-05-01T15:54:27.517Z</time></trkpt><trkpt lat="43.4511164" lon="12.3529593"><ele>612.0</ele><time>2026-05-01T15:54:28.518Z</time></trkpt><trkpt lat="43.45106" lon="12.353129"><ele>618.0</ele><time>2026-05-01T15:54:29.518Z</time></trkpt><trkpt lat="43.451018" lon="12.3532994"><ele>624.0</ele><time>2026-05-01T15:54:30.518Z</time></trkpt><trkpt lat="43.4509823" lon="12.353469"><ele>630.0</ele><time>2026-05-01T15:54:31.518Z</time></trkpt><trkpt lat="43.4509682" lon="12.3536162"><ele>630.0</ele><time>2026-05-01T15:54:32.518Z</time></trkpt><trkpt lat="43.4509817" lon="12.3537173"><ele>630.0</ele><time>2026-05-01T15:54:33.518Z</time></trkpt><trkpt lat="43.4510428" lon="12.3538258"><ele>630.0</ele><time>2026-05-01T15:54:35.517Z</time></trkpt><trkpt lat="43.4511125" lon="12.3538458"><ele>630.0</ele><time>2026-05-01T15:54:36.518Z</time></trkpt><trkpt lat="43.4512216" lon="12.3538325"><ele>630.0</ele><time>2026-05-01T15:54:37.518Z</time></trkpt><trkpt lat="43.4513395" lon="12.3537985"><ele>623.5</ele><time>2026-05-01T15:54:38.517Z</time></trkpt><trkpt lat="43.4514713" lon="12.3537446"><ele>617.0</ele><time>2026-05-01T15:54:39.518Z</time></trkpt><trkpt lat="43.4516039" lon="12.3536965"><ele>610.5</ele><time>2026-05-01T15:54:40.517Z</time></trkpt><trkpt lat="43.451723" lon="12.353644"><ele>604.0</ele><time>2026-05-01T15:54:41.517Z</time></trkpt><trkpt lat="43.4518274" lon="12.3536035"><ele>604.0</ele><time>2026-05-01T15:54:42.518Z</time></trkpt><trkpt lat="43.451924" lon="12.3535851"><ele>604.0</ele><time>2026-05-01T15:54:43.517Z</time></trkpt><trkpt lat="43.452012" lon="12.3536125"><ele>604.0</ele><time>2026-05-01T15:54:44.518Z</time></trkpt><trkpt lat="43.4521114" lon="12.3536456"><ele>604.0</ele><time>2026-05-01T15:54:45.518Z</time></trkpt><trkpt lat="43.4522005" lon="12.3537105"><ele>604.0</ele><time>2026-05-01T15:54:46.518Z</time></trkpt><trkpt lat="43.4522868" lon="12.3537752"><ele>605.4</ele><time>2026-05-01T15:54:47.518Z</time></trkpt><trkpt lat="43.452379" lon="12.353823"><ele>606.8</ele><time>2026-05-01T15:54:48.518Z</time></trkpt><trkpt lat="43.4524892" lon="12.3538517"><ele>608.2</ele><time>2026-05-01T15:54:49.518Z</time></trkpt><trkpt lat="43.4526014" lon="12.3538671"><ele>609.6</ele><time>2026-05-01T15:54:50.518Z</time></trkpt><trkpt lat="43.4527034" lon="12.3538874"><ele>611.0</ele><time>2026-05-01T15:54:51.518Z</time></trkpt><trkpt lat="43.4527915" lon="12.3538858"><ele>608.0</ele><time>2026-05-01T15:54:52.518Z</time></trkpt><trkpt lat="43.4528799" lon="12.3538652"><ele>605.0</ele><time>2026-05-01T15:54:53.517Z</time></trkpt><trkpt lat="43.4529529" lon="12.3538088"><ele>602.0</ele><time>2026-05-01T15:54:54.518Z</time></trkpt><trkpt lat="43.4530244" lon="12.3537444"><ele>599.0</ele><time>2026-05-01T15:54:55.518Z</time></trkpt><trkpt lat="43.4530947" lon="12.3536828"><ele>596.0</ele><time>2026-05-01T15:54:56.517Z</time></trkpt><trkpt lat="43.4531724" lon="12.3536537"><ele>593.0</ele><time>2026-05-01T15:54:57.517Z</time></trkpt><trkpt lat="43.4532454" lon="12.3536648"><ele>592.4</ele><time>2026-05-01T15:54:58.518Z</time></trkpt><trkpt lat="43.4533245" lon="12.3536993"><ele>591.8</ele><time>2026-05-01T15:54:59.518Z</time></trkpt><trkpt lat="43.4534129" lon="12.3537659"><ele>591.2</ele><time>2026-05-01T15:55:00.518Z</time></trkpt><trkpt lat="43.4535082" lon="12.3538433"><ele>590.6</ele><time>2026-05-01T15:55:01.518Z</time></trkpt><trkpt lat="43.4536063" lon="12.3539154"><ele>590.0</ele><time>2026-05-01T15:55:02.518Z</time></trkpt><trkpt lat="43.4537053" lon="12.3539826"><ele>589.2</ele><time>2026-05-01T15:55:03.518Z</time></trkpt><trkpt lat="43.4538008" lon="12.354031"><ele>588.4</ele><time>2026-05-01T15:55:04.517Z</time></trkpt><trkpt lat="43.4538897" lon="12.3540803"><ele>587.6</ele><time>2026-05-01T15:55:05.518Z</time></trkpt><trkpt lat="43.4539813" lon="12.3541422"><ele>586.8</ele><time>2026-05-01T15:55:06.518Z</time></trkpt><trkpt lat="43.4540668" lon="12.3542162"><ele>586.0</ele><time>2026-05-01T15:55:07.518Z</time></trkpt><trkpt lat="43.4541486" lon="12.3543028"><ele>586.0</ele><time>2026-05-01T15:55:08.518Z</time></trkpt><trkpt lat="43.4542316" lon="12.3543885"><ele>586.0</ele><time>2026-05-01T15:55:09.517Z</time></trkpt><trkpt lat="43.45431" lon="12.3544667"><ele>586.0</ele><time>2026-05-01T15:55:10.518Z</time></trkpt><trkpt lat="43.4543867" lon="12.3545459"><ele>586.0</ele><time>2026-05-01T15:55:11.518Z</time></trkpt><trkpt lat="43.4544597" lon="12.3546496"><ele>586.0</ele><time>2026-05-01T15:55:12.518Z</time></trkpt><trkpt lat="43.4545294" lon="12.3547674"><ele>586.6</ele><time>2026-05-01T15:55:13.518Z</time></trkpt><trkpt lat="43.4545967" lon="12.3548876"><ele>587.2</ele><time>2026-05-01T15:55:14.517Z</time></trkpt><trkpt lat="43.4546798" lon="12.3549935"><ele>587.8</ele><time>2026-05-01T15:55:15.518Z</time></trkpt><trkpt lat="43.4547652" lon="12.3550756"><ele>588.4</ele><time>2026-05-01T15:55:16.518Z</time></trkpt><trkpt lat="43.454847" lon="12.3551449"><ele>589.0</ele><time>2026-05-01T15:55:17.518Z</time></trkpt><trkpt lat="43.4549364" lon="12.3551854"><ele>589.0</ele><time>2026-05-01T15:55:18.518Z</time></trkpt><trkpt lat="43.4550249" lon="12.3551813"><ele>589.0</ele><time>2026-05-01T15:55:19.517Z</time></trkpt><trkpt lat="43.4551355" lon="12.3551581"><ele>589.0</ele><time>2026-05-01T15:55:20.517Z</time></trkpt><trkpt lat="43.4552349" lon="12.3551396"><ele>589.0</ele><time>2026-05-01T15:55:21.517Z</time></trkpt><trkpt lat="43.4553248" lon="12.3551186"><ele>589.0</ele><time>2026-05-01T15:55:22.517Z</time></trkpt><trkpt lat="43.4554092" lon="12.3550987"><ele>591.6</ele><time>2026-05-01T15:55:23.517Z</time></trkpt><trkpt lat="43.4554886" lon="12.355052"><ele>594.2</ele><time>2026-05-01T15:55:24.518Z</time></trkpt><trkpt lat="43.4555359" lon="12.3549608"><ele>596.8000000000001</ele><time>2026-05-01T15:55:25.518Z</time></trkpt><trkpt lat="43.4555599" lon="12.3548404"><ele>599.4</ele><time>2026-05-01T15:55:26.517Z</time></trkpt><trkpt lat="43.455562" lon="12.3547065"><ele>602.0</ele><time>2026-05-01T15:55:27.518Z</time></trkpt><trkpt lat="43.4555519" lon="12.354548"><ele>602.5</ele><time>2026-05-01T15:55:28.518Z</time></trkpt><trkpt lat="43.4555314" lon="12.3543806"><ele>603.0</ele><time>2026-05-01T15:55:29.517Z</time></trkpt><trkpt lat="43.4555039" lon="12.3541934"><ele>603.5</ele><time>2026-05-01T15:55:30.517Z</time></trkpt><trkpt lat="43.4554551" lon="12.3540054"><ele>604.0</ele><time>2026-05-01T15:55:31.518Z</time></trkpt><trkpt lat="43.455411" lon="12.3538394"><ele>598.4</ele><time>2026-05-01T15:55:32.518Z</time></trkpt><trkpt lat="43.4553637" lon="12.3537008"><ele>592.8</ele><time>2026-05-01T15:55:33.518Z</time></trkpt><trkpt lat="43.4553278" lon="12.3535557"><ele>587.2</ele><time>2026-05-01T15:55:34.518Z</time></trkpt><trkpt lat="43.4552936" lon="12.3534317"><ele>581.6</ele><time>2026-05-01T15:55:35.518Z</time></trkpt><trkpt lat="43.4552595" lon="12.3533137"><ele>576.0</ele><time>2026-05-01T15:55:36.517Z</time></trkpt><trkpt lat="43.455225" lon="12.3531926"><ele>576.0</ele><time>2026-05-01T15:55:37.518Z</time></trkpt><trkpt lat="43.4552072" lon="12.3530673"><ele>576.0</ele><time>2026-05-01T15:55:38.517Z</time></trkpt><trkpt lat="43.4552028" lon="12.3529254"><ele>576.0</ele><time>2026-05-01T15:55:39.518Z</time></trkpt><trkpt lat="43.4551945" lon="12.3527871"><ele>576.0</ele><time>2026-05-01T15:55:40.518Z</time></trkpt><trkpt lat="43.455185" lon="12.3526534"><ele>576.0</ele><time>2026-05-01T15:55:41.518Z</time></trkpt><trkpt lat="43.4551755" lon="12.3525223"><ele>574.4</ele><time>2026-05-01T15:55:42.518Z</time></trkpt><trkpt lat="43.4551689" lon="12.3523897"><ele>572.8</ele><time>2026-05-01T15:55:43.517Z</time></trkpt><trkpt lat="43.4551625" lon="12.3522618"><ele>571.1999999999999</ele><time>2026-05-01T15:55:44.517Z</time></trkpt><trkpt lat="43.4551505" lon="12.3521351"><ele>569.6</ele><time>2026-05-01T15:55:45.518Z</time></trkpt><trkpt lat="43.4551462" lon="12.3520083"><ele>568.0</ele><time>2026-05-01T15:55:46.518Z</time></trkpt><trkpt lat="43.4551645" lon="12.3518818"><ele>565.6</ele><time>2026-05-01T15:55:47.518Z</time></trkpt><trkpt lat="43.4552067" lon="12.3517604"><ele>563.1999999999999</ele><time>2026-05-01T15:55:48.518Z</time></trkpt><trkpt lat="43.455261" lon="12.3516404"><ele>560.8</ele><time>2026-05-01T15:55:49.518Z</time></trkpt><trkpt lat="43.455325" lon="12.3515387"><ele>558.4</ele><time>2026-05-01T15:55:50.518Z</time></trkpt><trkpt lat="43.4553937" lon="12.3514283"><ele>556.0</ele><time>2026-05-01T15:55:51.518Z</time></trkpt><trkpt lat="43.4554747" lon="12.3513261"><ele>556.0</ele><time>2026-05-01T15:55:52.518Z</time></trkpt><trkpt lat="43.4555672" lon="12.3512302"><ele>556.0</ele><time>2026-05-01T15:55:53.518Z</time></trkpt><trkpt lat="43.4556624" lon="12.351148"><ele>556.0</ele><time>2026-05-01T15:55:54.518Z</time></trkpt><trkpt lat="43.4557652" lon="12.3510762"><ele>556.0</ele><time>2026-05-01T15:55:55.518Z</time></trkpt><trkpt lat="43.4558702" lon="12.3510282"><ele>556.0</ele><time>2026-05-01T15:55:56.518Z</time></trkpt><trkpt lat="43.4559666" lon="12.3509937"><ele>556.0</ele><time>2026-05-01T15:55:57.518Z</time></trkpt><trkpt lat="43.4560632" lon="12.3509656"><ele>556.0</ele><time>2026-05-01T15:55:58.518Z</time></trkpt><trkpt lat="43.4561481" lon="12.3509119"><ele>556.0</ele><time>2026-05-01T15:55:59.518Z</time></trkpt><trkpt lat="43.4562359" lon="12.3508326"><ele>556.0</ele><time>2026-05-01T15:56:00.518Z</time></trkpt><trkpt lat="43.4563235" lon="12.3507207"><ele>557.25</ele><time>2026-05-01T15:56:01.517Z</time></trkpt><trkpt lat="43.456419" lon="12.3506035"><ele>558.5</ele><time>2026-05-01T15:56:02.517Z</time></trkpt><trkpt lat="43.4565321" lon="12.3504945"><ele>559.75</ele><time>2026-05-01T15:56:03.517Z</time></trkpt><trkpt lat="43.4566632" lon="12.3503796"><ele>561.0</ele><time>2026-05-01T15:56:04.518Z</time></trkpt><trkpt lat="43.456799" lon="12.3502706"><ele>556.6666666666666</ele><time>2026-05-01T15:56:05.518Z</time></trkpt><trkpt lat="43.4569351" lon="12.3501566"><ele>552.3333333333333</ele><time>2026-05-01T15:56:06.518Z</time></trkpt><trkpt lat="43.4570707" lon="12.3500389"><ele>548.0</ele><time>2026-05-01T15:56:07.518Z</time></trkpt><trkpt lat="43.4572039" lon="12.3499091"><ele>547.3333333333333</ele><time>2026-05-01T15:56:08.518Z</time></trkpt><trkpt lat="43.4573358" lon="12.3497774"><ele>546.6666666666666</ele><time>2026-05-01T15:56:09.518Z</time></trkpt><trkpt lat="43.4574554" lon="12.3496538"><ele>546.0</ele><time>2026-05-01T15:56:10.518Z</time></trkpt><trkpt lat="43.4575701" lon="12.3495353"><ele>546.25</ele><time>2026-05-01T15:56:11.518Z</time></trkpt><trkpt lat="43.4576753" lon="12.3494137"><ele>546.5</ele><time>2026-05-01T15:56:12.518Z</time></trkpt><trkpt lat="43.4577783" lon="12.3492978"><ele>546.75</ele><time>2026-05-01T15:56:13.518Z</time></trkpt><trkpt lat="43.457882" lon="12.3491952"><ele>547.0</ele><time>2026-05-01T15:56:14.518Z</time></trkpt><trkpt lat="43.4579852" lon="12.3490822"><ele>547.0</ele><time>2026-05-01T15:56:15.518Z</time></trkpt><trkpt lat="43.4580847" lon="12.3489814"><ele>547.0</ele><time>2026-05-01T15:56:16.518Z</time></trkpt><trkpt lat="43.4581912" lon="12.3488699"><ele>547.0</ele><time>2026-05-01T15:56:17.518Z</time></trkpt><trkpt lat="43.4582961" lon="12.3487612"><ele>547.0</ele><time>2026-05-01T15:56:18.518Z</time></trkpt><trkpt lat="43.4583901" lon="12.3486678"><ele>545.4</ele><time>2026-05-01T15:56:19.517Z</time></trkpt><trkpt lat="43.4584764" lon="12.3485855"><ele>543.8000000000001</ele><time>2026-05-01T15:56:20.518Z</time></trkpt><trkpt lat="43.4585549" lon="12.3485254"><ele>542.2</ele><time>2026-05-01T15:56:21.518Z</time></trkpt><trkpt lat="43.4586389" lon="12.3484958"><ele>540.6</ele><time>2026-05-01T15:56:22.517Z</time></trkpt><trkpt lat="43.4587328" lon="12.348486"><ele>539.0</ele><time>2026-05-01T15:56:23.518Z</time></trkpt><trkpt lat="43.4588508" lon="12.3484814"><ele>539.0</ele><time>2026-05-01T15:56:24.517Z</time></trkpt><trkpt lat="43.4589823" lon="12.348481"><ele>539.0</ele><time>2026-05-01T15:56:25.518Z</time></trkpt><trkpt lat="43.4591057" lon="12.3484697"><ele>539.0</ele><time>2026-05-01T15:56:26.518Z</time></trkpt><trkpt lat="43.4592088" lon="12.3484589"><ele>539.0</ele><time>2026-05-01T15:56:27.518Z</time></trkpt><trkpt lat="43.4592995" lon="12.3484543"><ele>539.0</ele><time>2026-05-01T15:56:28.517Z</time></trkpt><trkpt lat="43.4593891" lon="12.3484684"><ele>539.0</ele><time>2026-05-01T15:56:29.517Z</time></trkpt><trkpt lat="43.4594738" lon="12.3485024"><ele>539.0</ele><time>2026-05-01T15:56:30.518Z</time></trkpt><trkpt lat="43.4595531" lon="12.3485507"><ele>539.0</ele><time>2026-05-01T15:56:31.518Z</time></trkpt><trkpt lat="43.4596265" lon="12.3486171"><ele>539.0</ele><time>2026-05-01T15:56:32.518Z</time></trkpt><trkpt lat="43.4597088" lon="12.3487215"><ele>539.0</ele><time>2026-05-01T15:56:33.518Z</time></trkpt><trkpt lat="43.459792" lon="12.3488431"><ele>538.6</ele><time>2026-05-01T15:56:34.518Z</time></trkpt><trkpt lat="43.4598719" lon="12.3489629"><ele>538.2</ele><time>2026-05-01T15:56:35.518Z</time></trkpt><trkpt lat="43.4599446" lon="12.3490694"><ele>537.8000000000001</ele><time>2026-05-01T15:56:36.518Z</time></trkpt><trkpt lat="43.4600157" lon="12.3491754"><ele>537.4</ele><time>2026-05-01T15:56:37.518Z</time></trkpt><trkpt lat="43.460087" lon="12.3492687"><ele>537.0</ele><time>2026-05-01T15:56:38.517Z</time></trkpt><trkpt lat="43.4601549" lon="12.3493485"><ele>537.0</ele><time>2026-05-01T15:56:39.517Z</time></trkpt><trkpt lat="43.4602264" lon="12.3494247"><ele>537.0</ele><time>2026-05-01T15:56:40.517Z</time></trkpt><trkpt lat="43.4602825" lon="12.3495068"><ele>537.0</ele><time>2026-05-01T15:56:41.517Z</time></trkpt><trkpt lat="43.4603286" lon="12.3496089"><ele>537.0</ele><time>2026-05-01T15:56:42.518Z</time></trkpt><trkpt lat="43.4603532" lon="12.3497263"><ele>537.0</ele><time>2026-05-01T15:56:43.518Z</time></trkpt><trkpt lat="43.4603539" lon="12.3498553"><ele>537.0</ele><time>2026-05-01T15:56:44.517Z</time></trkpt><trkpt lat="43.4603375" lon="12.3499763"><ele>537.5</ele><time>2026-05-01T15:56:45.518Z</time></trkpt><trkpt lat="43.4603043" lon="12.3500862"><ele>538.0</ele><time>2026-05-01T15:56:46.517Z</time></trkpt><trkpt lat="43.4602562" lon="12.3501881"><ele>538.5</ele><time>2026-05-01T15:56:47.518Z</time></trkpt><trkpt lat="43.4602201" lon="12.3502867"><ele>539.0</ele><time>2026-05-01T15:56:48.518Z</time></trkpt><trkpt lat="43.4602065" lon="12.3503882"><ele>539.5</ele><time>2026-05-01T15:56:49.517Z</time></trkpt><trkpt lat="43.4602355" lon="12.3505093"><ele>540.0</ele><time>2026-05-01T15:56:50.518Z</time></trkpt><trkpt lat="43.4602805" lon="12.350628"><ele>540.8</ele><time>2026-05-01T15:56:51.518Z</time></trkpt><trkpt lat="43.4603294" lon="12.3507689"><ele>541.6</ele><time>2026-05-01T15:56:52.517Z</time></trkpt><trkpt lat="43.4603807" lon="12.3509003"><ele>542.4</ele><time>2026-05-01T15:56:53.518Z</time></trkpt><trkpt lat="43.4604326" lon="12.3510248"><ele>543.2</ele><time>2026-05-01T15:56:54.518Z</time></trkpt><trkpt lat="43.4604842" lon="12.3511315"><ele>544.0</ele><time>2026-05-01T15:56:55.517Z</time></trkpt><trkpt lat="43.4605499" lon="12.3512156"><ele>538.6</ele><time>2026-05-01T15:56:56.517Z</time></trkpt><trkpt lat="43.4606319" lon="12.3512592"><ele>533.2</ele><time>2026-05-01T15:56:57.517Z</time></trkpt><trkpt lat="43.4607263" lon="12.3512973"><ele>527.8000000000001</ele><time>2026-05-01T15:56:58.517Z</time></trkpt><trkpt lat="43.4608195" lon="12.3513338"><ele>522.4</ele><time>2026-05-01T15:56:59.518Z</time></trkpt><trkpt lat="43.4609136" lon="12.351352"><ele>517.0</ele><time>2026-05-01T15:57:00.518Z</time></trkpt><trkpt lat="43.4609979" lon="12.3513501"><ele>517.0</ele><time>2026-05-01T15:57:01.518Z</time></trkpt><trkpt lat="43.461088" lon="12.3513249"><ele>517.0</ele><time>2026-05-01T15:57:02.518Z</time></trkpt><trkpt lat="43.4611777" lon="12.3512838"><ele>517.0</ele><time>2026-05-01T15:57:03.518Z</time></trkpt><trkpt lat="43.4612599" lon="12.3512284"><ele>517.0</ele><time>2026-05-01T15:57:04.518Z</time></trkpt><trkpt lat="43.4613311" lon="12.3511881"><ele>517.0</ele><time>2026-05-01T15:57:05.517Z</time></trkpt><trkpt lat="43.4613987" lon="12.3511641"><ele>517.0</ele><time>2026-05-01T15:57:06.517Z</time></trkpt><trkpt lat="43.4614699" lon="12.3511713"><ele>514.8333333333334</ele><time>2026-05-01T15:57:07.517Z</time></trkpt><trkpt lat="43.4615418" lon="12.3512045"><ele>512.6666666666667</ele><time>2026-05-01T15:57:08.518Z</time></trkpt><trkpt lat="43.4616453" lon="12.3512249"><ele>510.5</ele><time>2026-05-01T15:57:10.518Z</time></trkpt><trkpt lat="43.4617251" lon="12.3511323"><ele>508.33333333333337</ele><time>2026-05-01T15:57:12.518Z</time></trkpt><trkpt lat="43.4617386" lon="12.3510453"><ele>506.1666666666667</ele><time>2026-05-01T15:57:13.518Z</time></trkpt><trkpt lat="43.4617269" lon="12.3509461"><ele>504.0</ele><time>2026-05-01T15:57:14.518Z</time></trkpt><trkpt lat="43.4616866" lon="12.3508559"><ele>504.0</ele><time>2026-05-01T15:57:15.518Z</time></trkpt><trkpt lat="43.4616309" lon="12.3507861"><ele>504.0</ele><time>2026-05-01T15:57:16.517Z</time></trkpt><trkpt lat="43.4615586" lon="12.3507349"><ele>504.0</ele><time>2026-05-01T15:57:17.518Z</time></trkpt><trkpt lat="43.4614707" lon="12.3507022"><ele>504.0</ele><time>2026-05-01T15:57:18.518Z</time></trkpt><trkpt lat="43.4613824" lon="12.350665"><ele>504.0</ele><time>2026-05-01T15:57:19.518Z</time></trkpt><trkpt lat="43.4612992" lon="12.3505963"><ele>504.0</ele><time>2026-05-01T15:57:20.518Z</time></trkpt><trkpt lat="43.4612325" lon="12.3505254"><ele>505.6</ele><time>2026-05-01T15:57:21.518Z</time></trkpt><trkpt lat="43.4611831" lon="12.3503949"><ele>507.2</ele><time>2026-05-01T15:57:22.518Z</time></trkpt><trkpt lat="43.4611355" lon="12.3502613"><ele>508.80000000000007</ele><time>2026-05-01T15:57:23.518Z</time></trkpt><trkpt lat="43.4610997" lon="12.350131"><ele>510.40000000000003</ele><time>2026-05-01T15:57:24.518Z</time></trkpt><trkpt lat="43.461063" lon="12.3500027"><ele>512.0</ele><time>2026-05-01T15:57:25.518Z</time></trkpt><trkpt lat="43.4610472" lon="12.3498643"><ele>511.5</ele><time>2026-05-01T15:57:26.518Z</time></trkpt><trkpt lat="43.4610559" lon="12.3497055"><ele>511.0</ele><time>2026-05-01T15:57:27.518Z</time></trkpt><trkpt lat="43.4610906" lon="12.3495564"><ele>510.5</ele><time>2026-05-01T15:57:28.518Z</time></trkpt><trkpt lat="43.4611353" lon="12.3494048"><ele>510.0</ele><time>2026-05-01T15:57:29.518Z</time></trkpt><trkpt lat="43.4611752" lon="12.3492513"><ele>510.0</ele><time>2026-05-01T15:57:30.518Z</time></trkpt><trkpt lat="43.4612096" lon="12.3491019"><ele>510.0</ele><time>2026-05-01T15:57:31.518Z</time></trkpt><trkpt lat="43.4612405" lon="12.3489674"><ele>510.0</ele><time>2026-05-01T15:57:32.518Z</time></trkpt><trkpt lat="43.4612669" lon="12.3488466"><ele>510.0</ele><time>2026-05-01T15:57:33.517Z</time></trkpt><trkpt lat="43.4612728" lon="12.3487362"><ele>510.0</ele><time>2026-05-01T15:57:34.517Z</time></trkpt><trkpt lat="43.461249" lon="12.3486064"><ele>506.5</ele><time>2026-05-01T15:57:35.518Z</time></trkpt><trkpt lat="43.4612029" lon="12.3484748"><ele>503.0</ele><time>2026-05-01T15:57:36.518Z</time></trkpt><trkpt lat="43.461148" lon="12.348337"><ele>499.5</ele><time>2026-05-01T15:57:37.517Z</time></trkpt><trkpt lat="43.4610873" lon="12.3481951"><ele>496.0</ele><time>2026-05-01T15:57:38.517Z</time></trkpt><trkpt lat="43.461024" lon="12.3480338"><ele>493.25</ele><time>2026-05-01T15:57:39.518Z</time></trkpt><trkpt lat="43.4609548" lon="12.3478847"><ele>490.5</ele><time>2026-05-01T15:57:40.517Z</time></trkpt><trkpt lat="43.4608971" lon="12.3477315"><ele>487.75</ele><time>2026-05-01T15:57:41.518Z</time></trkpt><trkpt lat="43.4608516" lon="12.347551"><ele>485.0</ele><time>2026-05-01T15:57:42.518Z</time></trkpt><trkpt lat="43.4608051" lon="12.3473956"><ele>485.0</ele><time>2026-05-01T15:57:43.517Z</time></trkpt><trkpt lat="43.4607573" lon="12.3472673"><ele>485.0</ele><time>2026-05-01T15:57:44.518Z</time></trkpt><trkpt lat="43.4606964" lon="12.3471577"><ele>485.0</ele><time>2026-05-01T15:57:45.518Z</time></trkpt><trkpt lat="43.4606301" lon="12.3470588"><ele>485.0</ele><time>2026-05-01T15:57:46.518Z</time></trkpt><trkpt lat="43.460579" lon="12.3469805"><ele>485.0</ele><time>2026-05-01T15:57:47.518Z</time></trkpt><trkpt lat="43.4605543" lon="12.346876"><ele>483.2</ele><time>2026-05-01T15:57:48.518Z</time></trkpt><trkpt lat="43.4605616" lon="12.3467557"><ele>481.4</ele><time>2026-05-01T15:57:49.518Z</time></trkpt><trkpt lat="43.4605888" lon="12.3466198"><ele>479.6</ele><time>2026-05-01T15:57:50.517Z</time></trkpt><trkpt lat="43.4606286" lon="12.3464731"><ele>477.8</ele><time>2026-05-01T15:57:51.518Z</time></trkpt><trkpt lat="43.4606613" lon="12.3463332"><ele>476.0</ele><time>2026-05-01T15:57:52.517Z</time></trkpt><trkpt lat="43.4606771" lon="12.3462009"><ele>478.0</ele><time>2026-05-01T15:57:53.517Z</time></trkpt><trkpt lat="43.4606753" lon="12.3460699"><ele>480.0</ele><time>2026-05-01T15:57:54.518Z</time></trkpt><trkpt lat="43.4606502" lon="12.3459509"><ele>482.0</ele><time>2026-05-01T15:57:55.517Z</time></trkpt><trkpt lat="43.4605924" lon="12.3458486"><ele>484.0</ele><time>2026-05-01T15:57:56.518Z</time></trkpt><trkpt lat="43.4605204" lon="12.3457546"><ele>486.0</ele><time>2026-05-01T15:57:57.518Z</time></trkpt><trkpt lat="43.4604274" lon="12.34566"><ele>486.0</ele><time>2026-05-01T15:57:58.518Z</time></trkpt><trkpt lat="43.4603349" lon="12.3455593"><ele>486.0</ele><time>2026-05-01T15:57:59.517Z</time></trkpt><trkpt lat="43.4602342" lon="12.3454414"><ele>486.0</ele><time>2026-05-01T15:58:00.517Z</time></trkpt><trkpt lat="43.460146" lon="12.3453241"><ele>486.0</ele><time>2026-05-01T15:58:01.517Z</time></trkpt><trkpt lat="43.460062" lon="12.3452025"><ele>481.6</ele><time>2026-05-01T15:58:02.517Z</time></trkpt><trkpt lat="43.4599755" lon="12.3450931"><ele>477.20000000000005</ele><time>2026-05-01T15:58:03.518Z</time></trkpt><trkpt lat="43.4598942" lon="12.3450014"><ele>472.79999999999995</ele><time>2026-05-01T15:58:04.518Z</time></trkpt><trkpt lat="43.459823" lon="12.3449335"><ele>468.4</ele><time>2026-05-01T15:58:05.518Z</time></trkpt><trkpt lat="43.4597483" lon="12.3448797"><ele>464.0</ele><time>2026-05-01T15:58:06.517Z</time></trkpt><trkpt lat="43.4596688" lon="12.3448608"><ele>465.4</ele><time>2026-05-01T15:58:07.518Z</time></trkpt><trkpt lat="43.4595753" lon="12.3448473"><ele>466.79999999999995</ele><time>2026-05-01T15:58:08.518Z</time></trkpt><trkpt lat="43.4594733" lon="12.3448579"><ele>468.20000000000005</ele><time>2026-05-01T15:58:09.518Z</time></trkpt><trkpt lat="43.4593611" lon="12.3448756"><ele>469.6</ele><time>2026-05-01T15:58:10.517Z</time></trkpt><trkpt lat="43.459236" lon="12.344874"><ele>471.0</ele><time>2026-05-01T15:58:11.518Z</time></trkpt><trkpt lat="43.4591242" lon="12.3448486"><ele>471.0</ele><time>2026-05-01T15:58:12.518Z</time></trkpt><trkpt lat="43.459021" lon="12.3448294"><ele>471.0</ele><time>2026-05-01T15:58:13.517Z</time></trkpt><trkpt lat="43.4589345" lon="12.3448247"><ele>471.0</ele><time>2026-05-01T15:58:14.518Z</time></trkpt><trkpt lat="43.4588588" lon="12.3448263"><ele>471.0</ele><time>2026-05-01T15:58:15.518Z</time></trkpt><trkpt lat="43.4587668" lon="12.3448222"><ele>471.0</ele><time>2026-05-01T15:58:17.518Z</time></trkpt><trkpt lat="43.4587802" lon="12.3446846"><ele>468.6666666666667</ele><time>2026-05-01T15:58:19.518Z</time></trkpt><trkpt lat="43.4588398" lon="12.344617"><ele>466.33333333333337</ele><time>2026-05-01T15:58:20.517Z</time></trkpt><trkpt lat="43.4589082" lon="12.3445704"><ele>464.0</ele><time>2026-05-01T15:58:21.518Z</time></trkpt><trkpt lat="43.4589842" lon="12.3445503"><ele>461.6666666666667</ele><time>2026-05-01T15:58:22.517Z</time></trkpt><trkpt lat="43.4590821" lon="12.344525"><ele>459.33333333333337</ele><time>2026-05-01T15:58:23.518Z</time></trkpt><trkpt lat="43.4591883" lon="12.3444796"><ele>457.0</ele><time>2026-05-01T15:58:24.518Z</time></trkpt><trkpt lat="43.4592969" lon="12.3444379"><ele>457.0</ele><time>2026-05-01T15:58:25.518Z</time></trkpt><trkpt lat="43.4594008" lon="12.3444035"><ele>457.00000000000006</ele><time>2026-05-01T15:58:26.518Z</time></trkpt><trkpt lat="43.4595036" lon="12.3443771"><ele>457.00000000000006</ele><time>2026-05-01T15:58:27.517Z</time></trkpt><trkpt lat="43.459595" lon="12.3443554"><ele>457.0</ele><time>2026-05-01T15:58:28.518Z</time></trkpt><trkpt lat="43.4596833" lon="12.3443575"><ele>457.0</ele><time>2026-05-01T15:58:29.518Z</time></trkpt><trkpt lat="43.45976" lon="12.3443755"><ele>455.6</ele><time>2026-05-01T15:58:30.517Z</time></trkpt><trkpt lat="43.4598395" lon="12.3444184"><ele>454.20000000000005</ele><time>2026-05-01T15:58:31.518Z</time></trkpt><trkpt lat="43.459918" lon="12.344482"><ele>452.8</ele><time>2026-05-01T15:58:32.518Z</time></trkpt><trkpt lat="43.4600075" lon="12.3445586"><ele>451.4</ele><time>2026-05-01T15:58:33.518Z</time></trkpt><trkpt lat="43.460092" lon="12.3446325"><ele>450.0</ele><time>2026-05-01T15:58:34.518Z</time></trkpt><trkpt lat="43.4601802" lon="12.3446991"><ele>448.8</ele><time>2026-05-01T15:58:35.518Z</time></trkpt><trkpt lat="43.4602725" lon="12.3447553"><ele>447.6</ele><time>2026-05-01T15:58:36.518Z</time></trkpt><trkpt lat="43.4603703" lon="12.3448068"><ele>446.4</ele><time>2026-05-01T15:58:37.517Z</time></trkpt><trkpt lat="43.4604637" lon="12.3448483"><ele>445.2</ele><time>2026-05-01T15:58:38.518Z</time></trkpt><trkpt lat="43.4605659" lon="12.34489"><ele>444.0</ele><time>2026-05-01T15:58:39.517Z</time></trkpt><trkpt lat="43.4606611" lon="12.3449281"><ele>444.0</ele><time>2026-05-01T15:58:40.517Z</time></trkpt><trkpt lat="43.4607566" lon="12.3449737"><ele>444.0</ele><time>2026-05-01T15:58:41.518Z</time></trkpt><trkpt lat="43.4608527" lon="12.3450226"><ele>444.0</ele><time>2026-05-01T15:58:42.518Z</time></trkpt><trkpt lat="43.4609463" lon="12.3450672"><ele>444.0</ele><time>2026-05-01T15:58:43.518Z</time></trkpt><trkpt lat="43.4610369" lon="12.3451141"><ele>444.0</ele><time>2026-05-01T15:58:44.518Z</time></trkpt><trkpt lat="43.461124" lon="12.3451568"><ele>444.0</ele><time>2026-05-01T15:58:45.517Z</time></trkpt><trkpt lat="43.4612099" lon="12.3452009"><ele>444.0</ele><time>2026-05-01T15:58:46.518Z</time></trkpt><trkpt lat="43.4612936" lon="12.3452453"><ele>444.0</ele><time>2026-05-01T15:58:47.518Z</time></trkpt><trkpt lat="43.4613637" lon="12.3452891"><ele>444.0</ele><time>2026-05-01T15:58:48.518Z</time></trkpt><trkpt lat="43.4614381" lon="12.3453246"><ele>444.0</ele><time>2026-05-01T15:58:49.518Z</time></trkpt><trkpt lat="43.461527" lon="12.3453451"><ele>444.0</ele><time>2026-05-01T15:58:50.518Z</time></trkpt><trkpt lat="43.4616297" lon="12.3453127"><ele>440.25</ele><time>2026-05-01T15:58:51.517Z</time></trkpt><trkpt lat="43.4617436" lon="12.3452225"><ele>436.5</ele><time>2026-05-01T15:58:52.517Z</time></trkpt><trkpt lat="43.4618641" lon="12.345122"><ele>432.75</ele><time>2026-05-01T15:58:53.518Z</time></trkpt><trkpt lat="43.461993" lon="12.3450126"><ele>429.0</ele><time>2026-05-01T15:58:54.518Z</time></trkpt><trkpt lat="43.4621134" lon="12.3449241"><ele>428.79999999999995</ele><time>2026-05-01T15:58:55.518Z</time></trkpt><trkpt lat="43.4622149" lon="12.3448645"><ele>428.59999999999997</ele><time>2026-05-01T15:58:56.518Z</time></trkpt><trkpt lat="43.4622944" lon="12.3448201"><ele>428.4</ele><time>2026-05-01T15:58:57.518Z</time></trkpt><trkpt lat="43.4623823" lon="12.3447737"><ele>428.2</ele><time>2026-05-01T15:58:59.517Z</time></trkpt><trkpt lat="43.4624412" lon="12.3447075"><ele>428.0</ele><time>2026-05-01T15:59:03.518Z</time></trkpt><trkpt lat="43.4625333" lon="12.3446595"><ele>428.0</ele><time>2026-05-01T15:59:34.518Z</time></trkpt><trkpt lat="43.4626456" lon="12.3445305"><ele>428.0</ele><time>2026-05-01T15:59:36.518Z</time></trkpt><trkpt lat="43.4627321" lon="12.3443971"><ele>428.0</ele><time>2026-05-01T15:59:37.518Z</time></trkpt><trkpt lat="43.4628167" lon="12.3442541"><ele>428.0</ele><time>2026-05-01T15:59:38.518Z</time></trkpt><trkpt lat="43.4629002" lon="12.3441003"><ele>429.3333333333333</ele><time>2026-05-01T15:59:39.517Z</time></trkpt><trkpt lat="43.4629881" lon="12.3439472"><ele>430.66666666666663</ele><time>2026-05-01T15:59:40.518Z</time></trkpt><trkpt lat="43.4630812" lon="12.3437712"><ele>432.0</ele><time>2026-05-01T15:59:41.518Z</time></trkpt><trkpt lat="43.463176" lon="12.3435825"><ele>432.0</ele><time>2026-05-01T15:59:42.518Z</time></trkpt><trkpt lat="43.4632643" lon="12.3433883"><ele>432.0</ele><time>2026-05-01T15:59:43.518Z</time></trkpt><trkpt lat="43.4633481" lon="12.3432084"><ele>432.0</ele><time>2026-05-01T15:59:44.517Z</time></trkpt><trkpt lat="43.4634246" lon="12.343036"><ele>429.5</ele><time>2026-05-01T15:59:45.518Z</time></trkpt><trkpt lat="43.4634938" lon="12.342866"><ele>427.0</ele><time>2026-05-01T15:59:46.518Z</time></trkpt><trkpt lat="43.4635659" lon="12.3426982"><ele>424.5</ele><time>2026-05-01T15:59:47.518Z</time></trkpt><trkpt lat="43.4636262" lon="12.3425371"><ele>422.0</ele><time>2026-05-01T15:59:48.518Z</time></trkpt><trkpt lat="43.4636567" lon="12.342371"><ele>421.75</ele><time>2026-05-01T15:59:49.518Z</time></trkpt><trkpt lat="43.4636566" lon="12.342201"><ele>421.5</ele><time>2026-05-01T15:59:50.518Z</time></trkpt><trkpt lat="43.4636258" lon="12.3420062"><ele>421.25</ele><time>2026-05-01T15:59:51.518Z</time></trkpt><trkpt lat="43.4635966" lon="12.3417985"><ele>421.0</ele><time>2026-05-01T15:59:52.518Z</time></trkpt><trkpt lat="43.4635829" lon="12.3415832"><ele>421.0</ele><time>2026-05-01T15:59:53.518Z</time></trkpt><trkpt lat="43.463572" lon="12.341353"><ele>421.0</ele><time>2026-05-01T15:59:54.518Z</time></trkpt><trkpt lat="43.4635712" lon="12.3411324"><ele>421.0</ele><time>2026-05-01T15:59:55.518Z</time></trkpt><trkpt lat="43.4635723" lon="12.3409267"><ele>421.0</ele><time>2026-05-01T15:59:56.518Z</time></trkpt><trkpt lat="43.4635868" lon="12.3407354"><ele>421.0</ele><time>2026-05-01T15:59:57.518Z</time></trkpt><trkpt lat="43.4636297" lon="12.3405444"><ele>421.0</ele><time>2026-05-01T15:59:58.518Z</time></trkpt><trkpt lat="43.4636983" lon="12.3403489"><ele>421.0</ele><time>2026-05-01T15:59:59.518Z</time></trkpt><trkpt lat="43.4637808" lon="12.3401593"><ele>419.0</ele><time>2026-05-01T16:00:00.518Z</time></trkpt><trkpt lat="43.4638831" lon="12.3399587"><ele>417.0</ele><time>2026-05-01T16:00:01.518Z</time></trkpt><trkpt lat="43.4639992" lon="12.3397617"><ele>415.0</ele><time>2026-05-01T16:00:02.518Z</time></trkpt><trkpt lat="43.4641205" lon="12.3395436"><ele>415.0</ele><time>2026-05-01T16:00:03.517Z</time></trkpt><trkpt lat="43.4642353" lon="12.3393117"><ele>415.0</ele><time>2026-05-01T16:00:04.517Z</time></trkpt><trkpt lat="43.4643459" lon="12.3390748"><ele>415.0</ele><time>2026-05-01T16:00:05.518Z</time></trkpt><trkpt lat="43.4644497" lon="12.3388419"><ele>412.0</ele><time>2026-05-01T16:00:06.518Z</time></trkpt><trkpt lat="43.4645518" lon="12.3386207"><ele>409.0</ele><time>2026-05-01T16:00:07.518Z</time></trkpt><trkpt lat="43.4646612" lon="12.3384215"><ele>406.0</ele><time>2026-05-01T16:00:08.518Z</time></trkpt><trkpt lat="43.4647854" lon="12.3382421"><ele>406.6666666666667</ele><time>2026-05-01T16:00:09.518Z</time></trkpt><trkpt lat="43.4649205" lon="12.3380686"><ele>407.33333333333337</ele><time>2026-05-01T16:00:10.518Z</time></trkpt><trkpt lat="43.4650581" lon="12.3378891"><ele>408.0</ele><time>2026-05-01T16:00:11.518Z</time></trkpt><trkpt lat="43.4652008" lon="12.3377372"><ele>408.0</ele><time>2026-05-01T16:00:12.517Z</time></trkpt><trkpt lat="43.465341" lon="12.3375982"><ele>408.0</ele><time>2026-05-01T16:00:13.517Z</time></trkpt><trkpt lat="43.4654757" lon="12.3374753"><ele>408.0</ele><time>2026-05-01T16:00:14.518Z</time></trkpt><trkpt lat="43.4656035" lon="12.3373996"><ele>407.25</ele><time>2026-05-01T16:00:15.518Z</time></trkpt><trkpt lat="43.4657189" lon="12.3373242"><ele>406.5</ele><time>2026-05-01T16:00:16.518Z</time></trkpt><trkpt lat="43.4658006" lon="12.3371962"><ele>405.75</ele><time>2026-05-01T16:00:17.518Z</time></trkpt><trkpt lat="43.4658298" lon="12.337016"><ele>405.0</ele><time>2026-05-01T16:00:18.518Z</time></trkpt><trkpt lat="43.4658295" lon="12.3368292"><ele>405.0</ele><time>2026-05-01T16:00:19.517Z</time></trkpt><trkpt lat="43.4658352" lon="12.3366236"><ele>405.0</ele><time>2026-05-01T16:00:20.518Z</time></trkpt><trkpt lat="43.4658574" lon="12.3364065"><ele>405.0</ele><time>2026-05-01T16:00:21.518Z</time></trkpt><trkpt lat="43.4658881" lon="12.3361746"><ele>404.33333333333337</ele><time>2026-05-01T16:00:22.518Z</time></trkpt><trkpt lat="43.4659189" lon="12.3359445"><ele>403.6666666666667</ele><time>2026-05-01T16:00:23.518Z</time></trkpt><trkpt lat="43.465961" lon="12.3357094"><ele>403.0</ele><time>2026-05-01T16:00:24.518Z</time></trkpt><trkpt lat="43.4660201" lon="12.3354798"><ele>403.0</ele><time>2026-05-01T16:00:25.518Z</time></trkpt><trkpt lat="43.4660848" lon="12.3352627"><ele>403.0</ele><time>2026-05-01T16:00:26.518Z</time></trkpt><trkpt lat="43.4661534" lon="12.3350458"><ele>403.0</ele><time>2026-05-01T16:00:27.518Z</time></trkpt><trkpt lat="43.4662311" lon="12.3348317"><ele>399.0</ele><time>2026-05-01T16:00:28.518Z</time></trkpt><trkpt lat="43.4663155" lon="12.3346334"><ele>395.0</ele><time>2026-05-01T16:00:29.518Z</time></trkpt><trkpt lat="43.4663991" lon="12.3344371"><ele>391.0</ele><time>2026-05-01T16:00:30.518Z</time></trkpt><trkpt lat="43.4664784" lon="12.3342461"><ele>391.0</ele><time>2026-05-01T16:00:31.518Z</time></trkpt><trkpt lat="43.4665428" lon="12.3340599"><ele>391.0</ele><time>2026-05-01T16:00:32.518Z</time></trkpt><trkpt lat="43.4665799" lon="12.3338607"><ele>391.0</ele><time>2026-05-01T16:00:33.517Z</time></trkpt><trkpt lat="43.4665754" lon="12.3336554"><ele>391.0</ele><time>2026-05-01T16:00:34.518Z</time></trkpt><trkpt lat="43.4665392" lon="12.3334319"><ele>390.33333333333337</ele><time>2026-05-01T16:00:35.518Z</time></trkpt><trkpt lat="43.4664949" lon="12.3331828"><ele>389.66666666666663</ele><time>2026-05-01T16:00:36.517Z</time></trkpt><trkpt lat="43.4664472" lon="12.3329388"><ele>389.0</ele><time>2026-05-01T16:00:37.518Z</time></trkpt><trkpt lat="43.4663965" lon="12.3326998"><ele>388.3333333333333</ele><time>2026-05-01T16:00:38.517Z</time></trkpt><trkpt lat="43.4663389" lon="12.3324683"><ele>387.66666666666663</ele><time>2026-05-01T16:00:39.517Z</time></trkpt><trkpt lat="43.4662952" lon="12.3322308"><ele>387.0</ele><time>2026-05-01T16:00:40.517Z</time></trkpt><trkpt lat="43.4662854" lon="12.3319905"><ele>387.0</ele><time>2026-05-01T16:00:41.517Z</time></trkpt><trkpt lat="43.466287" lon="12.3317386"><ele>387.0</ele><time>2026-05-01T16:00:42.518Z</time></trkpt><trkpt lat="43.4662877" lon="12.3314833"><ele>387.0</ele><time>2026-05-01T16:00:43.518Z</time></trkpt><trkpt lat="43.4662987" lon="12.331232"><ele>388.33333333333337</ele><time>2026-05-01T16:00:44.517Z</time></trkpt><trkpt lat="43.4663229" lon="12.3309924"><ele>389.6666666666667</ele><time>2026-05-01T16:00:45.518Z</time></trkpt><trkpt lat="43.4663575" lon="12.3307812"><ele>391.0</ele><time>2026-05-01T16:00:46.517Z</time></trkpt><trkpt lat="43.466394" lon="12.3305929"><ele>392.0</ele><time>2026-05-01T16:00:47.517Z</time></trkpt><trkpt lat="43.4664213" lon="12.3304191"><ele>393.0</ele><time>2026-05-01T16:00:48.517Z</time></trkpt><trkpt lat="43.4664482" lon="12.3302705"><ele>394.0</ele><time>2026-05-01T16:00:49.518Z</time></trkpt><trkpt lat="43.4664695" lon="12.3301562"><ele>395.0</ele><time>2026-05-01T16:00:50.517Z</time></trkpt><trkpt lat="43.4665356" lon="12.3300743"><ele>396.0</ele><time>2026-05-01T16:00:52.517Z</time></trkpt><trkpt lat="43.4666032" lon="12.3300799"><ele>396.0</ele><time>2026-05-01T16:00:54.518Z</time></trkpt><trkpt lat="43.4667125" lon="12.3302082"><ele>396.0</ele><time>2026-05-01T16:00:56.518Z</time></trkpt><trkpt lat="43.4667672" lon="12.3303163"><ele>396.0</ele><time>2026-05-01T16:00:57.518Z</time></trkpt><trkpt lat="43.4668283" lon="12.3304503"><ele>396.0</ele><time>2026-05-01T16:00:58.518Z</time></trkpt><trkpt lat="43.4668969" lon="12.3305857"><ele>394.75</ele><time>2026-05-01T16:00:59.517Z</time></trkpt><trkpt lat="43.4669678" lon="12.3307174"><ele>393.5</ele><time>2026-05-01T16:01:00.517Z</time></trkpt><trkpt lat="43.4670437" lon="12.3308545"><ele>392.25</ele><time>2026-05-01T16:01:01.518Z</time></trkpt><trkpt lat="43.467116" lon="12.3309985"><ele>391.0</ele><time>2026-05-01T16:01:02.518Z</time></trkpt><trkpt lat="43.4671813" lon="12.3311367"><ele>392.25</ele><time>2026-05-01T16:01:03.518Z</time></trkpt><trkpt lat="43.4672486" lon="12.3312777"><ele>393.5</ele><time>2026-05-01T16:01:04.518Z</time></trkpt><trkpt lat="43.4673247" lon="12.3314173"><ele>394.75</ele><time>2026-05-01T16:01:05.518Z</time></trkpt><trkpt lat="43.46742" lon="12.3315434"><ele>396.0</ele><time>2026-05-01T16:01:06.517Z</time></trkpt><trkpt lat="43.4675312" lon="12.331653"><ele>396.0</ele><time>2026-05-01T16:01:07.517Z</time></trkpt><trkpt lat="43.4676614" lon="12.3317577"><ele>396.0</ele><time>2026-05-01T16:01:08.518Z</time></trkpt><trkpt lat="43.4678027" lon="12.3318356"><ele>396.0</ele><time>2026-05-01T16:01:09.518Z</time></trkpt><trkpt lat="43.4679533" lon="12.3318767"><ele>399.33333333333337</ele><time>2026-05-01T16:01:10.518Z</time></trkpt><trkpt lat="43.468124" lon="12.3318999"><ele>402.6666666666667</ele><time>2026-05-01T16:01:11.518Z</time></trkpt><trkpt lat="43.4682976" lon="12.3319169"><ele>406.0</ele><time>2026-05-01T16:01:12.518Z</time></trkpt><trkpt lat="43.4684688" lon="12.3319313"><ele>406.0</ele><time>2026-05-01T16:01:13.517Z</time></trkpt><trkpt lat="43.4686397" lon="12.3319437"><ele>406.0</ele><time>2026-05-01T16:01:14.517Z</time></trkpt><trkpt lat="43.4688106" lon="12.331955"><ele>406.0</ele><time>2026-05-01T16:01:15.518Z</time></trkpt><trkpt lat="43.4689829" lon="12.3319687"><ele>409.6666666666667</ele><time>2026-05-01T16:01:16.518Z</time></trkpt><trkpt lat="43.469149" lon="12.3319762"><ele>413.33333333333337</ele><time>2026-05-01T16:01:17.518Z</time></trkpt><trkpt lat="43.46932" lon="12.3319834"><ele>417.0</ele><time>2026-05-01T16:01:18.518Z</time></trkpt><trkpt lat="43.4694894" lon="12.3319857"><ele>417.66666666666663</ele><time>2026-05-01T16:01:19.518Z</time></trkpt><trkpt lat="43.4696592" lon="12.3319742"><ele>418.3333333333333</ele><time>2026-05-01T16:01:20.518Z</time></trkpt><trkpt lat="43.4698312" lon="12.3319357"><ele>419.0</ele><time>2026-05-01T16:01:21.517Z</time></trkpt><trkpt lat="43.4699893" lon="12.3318793"><ele>419.0</ele><time>2026-05-01T16:01:22.517Z</time></trkpt><trkpt lat="43.4701398" lon="12.3318326"><ele>419.0</ele><time>2026-05-01T16:01:23.518Z</time></trkpt><trkpt lat="43.470281" lon="12.3318005"><ele>419.0</ele><time>2026-05-01T16:01:24.518Z</time></trkpt><trkpt lat="43.4704175" lon="12.3318257"><ele>419.0</ele><time>2026-05-01T16:01:25.518Z</time></trkpt><trkpt lat="43.4705601" lon="12.3318589"><ele>419.66666666666663</ele><time>2026-05-01T16:01:26.518Z</time></trkpt><trkpt lat="43.4707076" lon="12.3318957"><ele>420.33333333333337</ele><time>2026-05-01T16:01:27.518Z</time></trkpt><trkpt lat="43.4708585" lon="12.33193"><ele>421.0</ele><time>2026-05-01T16:01:28.518Z</time></trkpt><trkpt lat="43.4710098" lon="12.331952"><ele>421.0</ele><time>2026-05-01T16:01:29.517Z</time></trkpt><trkpt lat="43.4711557" lon="12.3319734"><ele>421.0</ele><time>2026-05-01T16:01:30.518Z</time></trkpt><trkpt lat="43.4713136" lon="12.3320358"><ele>421.0</ele><time>2026-05-01T16:01:31.517Z</time></trkpt><trkpt lat="43.4714639" lon="12.3321273"><ele>423.0</ele><time>2026-05-01T16:01:32.518Z</time></trkpt><trkpt lat="43.4716246" lon="12.3322228"><ele>425.0</ele><time>2026-05-01T16:01:33.517Z</time></trkpt><trkpt lat="43.4717808" lon="12.3323174"><ele>427.0</ele><time>2026-05-01T16:01:34.518Z</time></trkpt><trkpt lat="43.4719379" lon="12.3324018"><ele>423.0</ele><time>2026-05-01T16:01:35.518Z</time></trkpt><trkpt lat="43.4721044" lon="12.3324684"><ele>419.0</ele><time>2026-05-01T16:01:36.518Z</time></trkpt><trkpt lat="43.4722789" lon="12.3325277"><ele>415.0</ele><time>2026-05-01T16:01:37.517Z</time></trkpt><trkpt lat="43.4724623" lon="12.3325879"><ele>415.0</ele><time>2026-05-01T16:01:38.517Z</time></trkpt><trkpt lat="43.4726489" lon="12.3326489"><ele>415.0</ele><time>2026-05-01T16:01:39.518Z</time></trkpt><trkpt lat="43.4728377" lon="12.332709"><ele>415.0</ele><time>2026-05-01T16:01:40.518Z</time></trkpt><trkpt lat="43.4730254" lon="12.3327608"><ele>418.33333333333337</ele><time>2026-05-01T16:01:41.518Z</time></trkpt><trkpt lat="43.4732148" lon="12.3328157"><ele>421.66666666666663</ele><time>2026-05-01T16:01:42.517Z</time></trkpt><trkpt lat="43.4734077" lon="12.3328635"><ele>425.0</ele><time>2026-05-01T16:01:43.517Z</time></trkpt><trkpt lat="43.4735914" lon="12.3329038"><ele>425.0</ele><time>2026-05-01T16:01:44.518Z</time></trkpt><trkpt lat="43.4737604" lon="12.3329406"><ele>425.0</ele><time>2026-05-01T16:01:45.518Z</time></trkpt><trkpt lat="43.4739195" lon="12.3329651"><ele>425.0</ele><time>2026-05-01T16:01:46.518Z</time></trkpt><trkpt lat="43.4740765" lon="12.3329881"><ele>427.0</ele><time>2026-05-01T16:01:47.518Z</time></trkpt><trkpt lat="43.4742329" lon="12.3330122"><ele>429.0</ele><time>2026-05-01T16:01:48.517Z</time></trkpt><trkpt lat="43.4743818" lon="12.3330478"><ele>431.0</ele><time>2026-05-01T16:01:49.518Z</time></trkpt><trkpt lat="43.4745293" lon="12.33311"><ele>429.3333333333333</ele><time>2026-05-01T16:01:50.518Z</time></trkpt><trkpt lat="43.4746771" lon="12.3331891"><ele>427.66666666666663</ele><time>2026-05-01T16:01:51.517Z</time></trkpt><trkpt lat="43.4748327" lon="12.3332758"><ele>426.0</ele><time>2026-05-01T16:01:52.518Z</time></trkpt><trkpt lat="43.4749785" lon="12.3333793"><ele>426.0</ele><time>2026-05-01T16:01:53.518Z</time></trkpt><trkpt lat="43.4751267" lon="12.333482"><ele>426.0</ele><time>2026-05-01T16:01:54.518Z</time></trkpt><trkpt lat="43.4752596" lon="12.3335839"><ele>426.0</ele><time>2026-05-01T16:01:55.518Z</time></trkpt><trkpt lat="43.4753876" lon="12.3336803"><ele>424.66666666666663</ele><time>2026-05-01T16:01:56.518Z</time></trkpt><trkpt lat="43.4755095" lon="12.3337971"><ele>423.3333333333333</ele><time>2026-05-01T16:01:57.518Z</time></trkpt><trkpt lat="43.4756233" lon="12.3339418"><ele>422.0</ele><time>2026-05-01T16:01:58.518Z</time></trkpt><trkpt lat="43.4757297" lon="12.3340997"><ele>422.0</ele><time>2026-05-01T16:01:59.518Z</time></trkpt><trkpt lat="43.475828" lon="12.3342636"><ele>422.0</ele><time>2026-05-01T16:02:00.517Z</time></trkpt><trkpt lat="43.4759189" lon="12.3344399"><ele>422.0</ele><time>2026-05-01T16:02:01.518Z</time></trkpt><trkpt lat="43.4760131" lon="12.3346137"><ele>421.66666666666663</ele><time>2026-05-01T16:02:02.517Z</time></trkpt><trkpt lat="43.4761169" lon="12.3347816"><ele>421.33333333333337</ele><time>2026-05-01T16:02:03.518Z</time></trkpt><trkpt lat="43.4762252" lon="12.3349377"><ele>421.0</ele><time>2026-05-01T16:02:04.518Z</time></trkpt><trkpt lat="43.4763327" lon="12.335081"><ele>421.0</ele><time>2026-05-01T16:02:05.518Z</time></trkpt><trkpt lat="43.4764331" lon="12.3352218"><ele>421.0</ele><time>2026-05-01T16:02:06.518Z</time></trkpt><trkpt lat="43.476528" lon="12.3353851"><ele>421.0</ele><time>2026-05-01T16:02:07.518Z</time></trkpt><trkpt lat="43.4766031" lon="12.3355601"><ele>421.0</ele><time>2026-05-01T16:02:08.518Z</time></trkpt><trkpt lat="43.476671" lon="12.3357523"><ele>419.6666666666667</ele><time>2026-05-01T16:02:09.518Z</time></trkpt><trkpt lat="43.4767325" lon="12.3359548"><ele>418.33333333333337</ele><time>2026-05-01T16:02:10.518Z</time></trkpt><trkpt lat="43.4767976" lon="12.3361614"><ele>417.0</ele><time>2026-05-01T16:02:11.517Z</time></trkpt><trkpt lat="43.4768643" lon="12.3363692"><ele>416.66666666666663</ele><time>2026-05-01T16:02:12.518Z</time></trkpt><trkpt lat="43.4769296" lon="12.3365672"><ele>416.3333333333333</ele><time>2026-05-01T16:02:13.517Z</time></trkpt><trkpt lat="43.4769782" lon="12.3367866"><ele>416.0</ele><time>2026-05-01T16:02:14.518Z</time></trkpt><trkpt lat="43.4770338" lon="12.3370032"><ele>416.0</ele><time>2026-05-01T16:02:15.518Z</time></trkpt><trkpt lat="43.4770895" lon="12.3372167"><ele>416.0</ele><time>2026-05-01T16:02:16.517Z</time></trkpt><trkpt lat="43.4771607" lon="12.3374264"><ele>416.0</ele><time>2026-05-01T16:02:17.518Z</time></trkpt><trkpt lat="43.4772283" lon="12.3376394"><ele>418.0</ele><time>2026-05-01T16:02:18.517Z</time></trkpt><trkpt lat="43.4773076" lon="12.3378456"><ele>420.0</ele><time>2026-05-01T16:02:19.517Z</time></trkpt><trkpt lat="43.4773978" lon="12.3380657"><ele>422.0</ele><time>2026-05-01T16:02:20.518Z</time></trkpt><trkpt lat="43.4774946" lon="12.338267"><ele>422.0</ele><time>2026-05-01T16:02:21.518Z</time></trkpt><trkpt lat="43.4775968" lon="12.3384478"><ele>422.0</ele><time>2026-05-01T16:02:22.518Z</time></trkpt><trkpt lat="43.4776962" lon="12.3386169"><ele>422.0</ele><time>2026-05-01T16:02:23.517Z</time></trkpt><trkpt lat="43.4777903" lon="12.338779"><ele>420.66666666666663</ele><time>2026-05-01T16:02:24.518Z</time></trkpt><trkpt lat="43.4778864" lon="12.3389256"><ele>419.33333333333337</ele><time>2026-05-01T16:02:25.517Z</time></trkpt><trkpt lat="43.4780011" lon="12.3390618"><ele>418.0</ele><time>2026-05-01T16:02:26.518Z</time></trkpt><trkpt lat="43.4781378" lon="12.3391821"><ele>421.0</ele><time>2026-05-01T16:02:27.518Z</time></trkpt><trkpt lat="43.4782775" lon="12.339304"><ele>424.0</ele><time>2026-05-01T16:02:28.517Z</time></trkpt><trkpt lat="43.4784215" lon="12.3394356"><ele>427.0</ele><time>2026-05-01T16:02:29.518Z</time></trkpt><trkpt lat="43.4785558" lon="12.3395742"><ele>424.33333333333337</ele><time>2026-05-01T16:02:30.518Z</time></trkpt><trkpt lat="43.4786883" lon="12.3397249"><ele>421.66666666666663</ele><time>2026-05-01T16:02:31.519Z</time></trkpt><trkpt lat="43.4788216" lon="12.3398857"><ele>419.0</ele><time>2026-05-01T16:02:32.518Z</time></trkpt><trkpt lat="43.4789586" lon="12.3400529"><ele>424.66666666666663</ele><time>2026-05-01T16:02:33.519Z</time></trkpt><trkpt lat="43.479102" lon="12.3402052"><ele>430.33333333333337</ele><time>2026-05-01T16:02:34.519Z</time></trkpt><trkpt lat="43.479262" lon="12.3403525"><ele>436.0</ele><time>2026-05-01T16:02:35.519Z</time></trkpt><trkpt lat="43.4794211" lon="12.3404896"><ele>436.33333333333337</ele><time>2026-05-01T16:02:36.518Z</time></trkpt><trkpt lat="43.4795715" lon="12.3406224"><ele>436.66666666666663</ele><time>2026-05-01T16:02:37.518Z</time></trkpt><trkpt lat="43.4797014" lon="12.3407548"><ele>437.0</ele><time>2026-05-01T16:02:38.519Z</time></trkpt><trkpt lat="43.4798166" lon="12.3408865"><ele>437.0</ele><time>2026-05-01T16:02:39.518Z</time></trkpt><trkpt lat="43.4799252" lon="12.3409997"><ele>437.0</ele><time>2026-05-01T16:02:40.519Z</time></trkpt><trkpt lat="43.4800563" lon="12.3410969"><ele>437.0</ele><time>2026-05-01T16:02:41.519Z</time></trkpt><trkpt lat="43.4801962" lon="12.3411542"><ele>437.0</ele><time>2026-05-01T16:02:42.519Z</time></trkpt><trkpt lat="43.4803289" lon="12.3412029"><ele>436.66666666666663</ele><time>2026-05-01T16:02:43.519Z</time></trkpt><trkpt lat="43.4804682" lon="12.3412754"><ele>436.33333333333337</ele><time>2026-05-01T16:02:44.519Z</time></trkpt><trkpt lat="43.4805983" lon="12.3413937"><ele>436.0</ele><time>2026-05-01T16:02:45.519Z</time></trkpt><trkpt lat="43.4807288" lon="12.3415193"><ele>436.0</ele><time>2026-05-01T16:02:46.519Z</time></trkpt><trkpt lat="43.4808811" lon="12.3415982"><ele>436.0</ele><time>2026-05-01T16:02:47.519Z</time></trkpt><trkpt lat="43.481029" lon="12.3416799"><ele>436.0</ele><time>2026-05-01T16:02:48.519Z</time></trkpt><trkpt lat="43.4811574" lon="12.3418063"><ele>438.33333333333337</ele><time>2026-05-01T16:02:49.519Z</time></trkpt><trkpt lat="43.4812723" lon="12.3419582"><ele>440.66666666666663</ele><time>2026-05-01T16:02:50.519Z</time></trkpt><trkpt lat="43.4813879" lon="12.3421222"><ele>443.0</ele><time>2026-05-01T16:02:51.519Z</time></trkpt><trkpt lat="43.4815027" lon="12.3423019"><ele>443.0</ele><time>2026-05-01T16:02:52.518Z</time></trkpt><trkpt lat="43.4816272" lon="12.3424705"><ele>443.0</ele><time>2026-05-01T16:02:53.519Z</time></trkpt><trkpt lat="43.4817468" lon="12.3426411"><ele>443.0</ele><time>2026-05-01T16:02:54.519Z</time></trkpt><trkpt lat="43.4818666" lon="12.3428091"><ele>443.0</ele><time>2026-05-01T16:02:55.519Z</time></trkpt><trkpt lat="43.4819717" lon="12.3429785"><ele>443.0</ele><time>2026-05-01T16:02:56.518Z</time></trkpt><trkpt lat="43.482063" lon="12.3431436"><ele>443.0</ele><time>2026-05-01T16:02:57.519Z</time></trkpt><trkpt lat="43.4821668" lon="12.3432934"><ele>448.0</ele><time>2026-05-01T16:02:58.519Z</time></trkpt><trkpt lat="43.48228" lon="12.3434378"><ele>453.0</ele><time>2026-05-01T16:02:59.518Z</time></trkpt><trkpt lat="43.4824024" lon="12.3435737"><ele>458.0</ele><time>2026-05-01T16:03:00.519Z</time></trkpt><trkpt lat="43.4825385" lon="12.3436923"><ele>458.0</ele><time>2026-05-01T16:03:01.519Z</time></trkpt><trkpt lat="43.4826901" lon="12.3437808"><ele>458.0</ele><time>2026-05-01T16:03:02.519Z</time></trkpt><trkpt lat="43.4828483" lon="12.343839"><ele>458.0</ele><time>2026-05-01T16:03:03.519Z</time></trkpt><trkpt lat="43.4830012" lon="12.3438906"><ele>456.25</ele><time>2026-05-01T16:03:04.519Z</time></trkpt><trkpt lat="43.4831445" lon="12.3439378"><ele>454.5</ele><time>2026-05-01T16:03:05.519Z</time></trkpt><trkpt lat="43.4832694" lon="12.3439847"><ele>452.75</ele><time>2026-05-01T16:03:06.519Z</time></trkpt><trkpt lat="43.4833739" lon="12.3440712"><ele>451.0</ele><time>2026-05-01T16:03:07.519Z</time></trkpt><trkpt lat="43.4834581" lon="12.3441896"><ele>451.0</ele><time>2026-05-01T16:03:08.519Z</time></trkpt><trkpt lat="43.4835256" lon="12.344355"><ele>451.0</ele><time>2026-05-01T16:03:09.519Z</time></trkpt><trkpt lat="43.4835821" lon="12.3445388"><ele>451.0</ele><time>2026-05-01T16:03:10.519Z</time></trkpt><trkpt lat="43.483629" lon="12.3447356"><ele>451.0</ele><time>2026-05-01T16:03:11.519Z</time></trkpt><trkpt lat="43.4836686" lon="12.3449296"><ele>450.0</ele><time>2026-05-01T16:03:12.519Z</time></trkpt><trkpt lat="43.4837006" lon="12.3451182"><ele>449.0</ele><time>2026-05-01T16:03:13.519Z</time></trkpt><trkpt lat="43.4837253" lon="12.3452963"><ele>448.0</ele><time>2026-05-01T16:03:14.519Z</time></trkpt><trkpt lat="43.4837571" lon="12.3454726"><ele>447.0</ele><time>2026-05-01T16:03:15.518Z</time></trkpt><trkpt lat="43.4838128" lon="12.3456561"><ele>455.66666666666663</ele><time>2026-05-01T16:03:16.519Z</time></trkpt><trkpt lat="43.4838735" lon="12.3458385"><ele>464.3333333333333</ele><time>2026-05-01T16:03:17.519Z</time></trkpt><trkpt lat="43.483934" lon="12.3460366"><ele>473.0</ele><time>2026-05-01T16:03:18.519Z</time></trkpt><trkpt lat="43.4839938" lon="12.3462345"><ele>470.66666666666663</ele><time>2026-05-01T16:03:19.519Z</time></trkpt><trkpt lat="43.4840466" lon="12.3464495"><ele>468.33333333333337</ele><time>2026-05-01T16:03:20.519Z</time></trkpt><trkpt lat="43.4841004" lon="12.3466636"><ele>466.0</ele><time>2026-05-01T16:03:21.519Z</time></trkpt><trkpt lat="43.4841506" lon="12.3468814"><ele>466.0</ele><time>2026-05-01T16:03:22.519Z</time></trkpt><trkpt lat="43.4841901" lon="12.347099"><ele>466.0</ele><time>2026-05-01T16:03:23.518Z</time></trkpt><trkpt lat="43.4842232" lon="12.3473165"><ele>466.0</ele><time>2026-05-01T16:03:24.519Z</time></trkpt><trkpt lat="43.4842416" lon="12.3475438"><ele>463.33333333333337</ele><time>2026-05-01T16:03:25.519Z</time></trkpt><trkpt lat="43.4842509" lon="12.3477753"><ele>460.66666666666663</ele><time>2026-05-01T16:03:26.519Z</time></trkpt><trkpt lat="43.4842461" lon="12.3480123"><ele>458.0</ele><time>2026-05-01T16:03:27.519Z</time></trkpt><trkpt lat="43.4842364" lon="12.3482638"><ele>458.0</ele><time>2026-05-01T16:03:28.519Z</time></trkpt><trkpt lat="43.4842275" lon="12.3485139"><ele>458.0</ele><time>2026-05-01T16:03:29.518Z</time></trkpt><trkpt lat="43.4842208" lon="12.3487689"><ele>458.0</ele><time>2026-05-01T16:03:30.519Z</time></trkpt><trkpt lat="43.4842215" lon="12.3490395"><ele>457.66666666666663</ele><time>2026-05-01T16:03:31.519Z</time></trkpt><trkpt lat="43.4842231" lon="12.3493094"><ele>457.33333333333337</ele><time>2026-05-01T16:03:32.519Z</time></trkpt><trkpt lat="43.4842151" lon="12.3495908"><ele>457.0</ele><time>2026-05-01T16:03:33.519Z</time></trkpt><trkpt lat="43.4841955" lon="12.3498963"><ele>458.33333333333337</ele><time>2026-05-01T16:03:34.519Z</time></trkpt><trkpt lat="43.4841669" lon="12.3502042"><ele>459.66666666666663</ele><time>2026-05-01T16:03:35.519Z</time></trkpt><trkpt lat="43.4841341" lon="12.3504942"><ele>461.0</ele><time>2026-05-01T16:03:36.519Z</time></trkpt><trkpt lat="43.4840981" lon="12.3507609"><ele>463.66666666666663</ele><time>2026-05-01T16:03:37.519Z</time></trkpt><trkpt lat="43.4840701" lon="12.351012"><ele>466.33333333333337</ele><time>2026-05-01T16:03:38.519Z</time></trkpt><trkpt lat="43.4840408" lon="12.3512528"><ele>469.0</ele><time>2026-05-01T16:03:39.519Z</time></trkpt><trkpt lat="43.4839905" lon="12.3514909"><ele>471.33333333333337</ele><time>2026-05-01T16:03:40.519Z</time></trkpt><trkpt lat="43.4839299" lon="12.3517145"><ele>473.66666666666663</ele><time>2026-05-01T16:03:41.519Z</time></trkpt><trkpt lat="43.4838631" lon="12.3519345"><ele>476.0</ele><time>2026-05-01T16:03:42.519Z</time></trkpt><trkpt lat="43.4837689" lon="12.3521825"><ele>469.66666666666663</ele><time>2026-05-01T16:03:43.519Z</time></trkpt><trkpt lat="43.4836712" lon="12.3524427"><ele>463.33333333333337</ele><time>2026-05-01T16:03:44.518Z</time></trkpt><trkpt lat="43.4835721" lon="12.3526964"><ele>457.0</ele><time>2026-05-01T16:03:45.519Z</time></trkpt><trkpt lat="43.4834789" lon="12.3529177"><ele>459.75</ele><time>2026-05-01T16:03:46.519Z</time></trkpt><trkpt lat="43.4833898" lon="12.353101"><ele>462.5</ele><time>2026-05-01T16:03:47.519Z</time></trkpt><trkpt lat="43.4833142" lon="12.3532696"><ele>465.25</ele><time>2026-05-01T16:03:48.519Z</time></trkpt><trkpt lat="43.4832492" lon="12.3534357"><ele>468.0</ele><time>2026-05-01T16:03:49.518Z</time></trkpt><trkpt lat="43.4832149" lon="12.3536137"><ele>468.0</ele><time>2026-05-01T16:03:50.518Z</time></trkpt><trkpt lat="43.4831931" lon="12.3537673"><ele>467.99999999999994</ele><time>2026-05-01T16:03:51.519Z</time></trkpt><trkpt lat="43.4831984" lon="12.3538997"><ele>467.99999999999994</ele><time>2026-05-01T16:03:52.518Z</time></trkpt><trkpt lat="43.4832308" lon="12.3539858"><ele>468.0</ele><time>2026-05-01T16:03:53.519Z</time></trkpt><trkpt lat="43.4833051" lon="12.3540489"><ele>468.0</ele><time>2026-05-01T16:03:54.519Z</time></trkpt><trkpt lat="43.483407" lon="12.35405"><ele>468.25</ele><time>2026-05-01T16:03:55.518Z</time></trkpt><trkpt lat="43.4835279" lon="12.3540307"><ele>468.5</ele><time>2026-05-01T16:03:56.519Z</time></trkpt><trkpt lat="43.4836494" lon="12.3540003"><ele>468.75</ele><time>2026-05-01T16:03:57.519Z</time></trkpt><trkpt lat="43.483771" lon="12.3539802"><ele>469.0</ele><time>2026-05-01T16:03:58.519Z</time></trkpt><trkpt lat="43.4838704" lon="12.353979"><ele>471.6666666666667</ele><time>2026-05-01T16:03:59.519Z</time></trkpt><trkpt lat="43.4839591" lon="12.3540034"><ele>474.33333333333337</ele><time>2026-05-01T16:04:00.519Z</time></trkpt><trkpt lat="43.4840195" lon="12.3540535"><ele>477.0</ele><time>2026-05-01T16:04:01.519Z</time></trkpt><trkpt lat="43.484049" lon="12.3541551"><ele>479.66666666666663</ele><time>2026-05-01T16:04:02.519Z</time></trkpt><trkpt lat="43.4840523" lon="12.3542812"><ele>482.3333333333333</ele><time>2026-05-01T16:04:03.519Z</time></trkpt><trkpt lat="43.4840197" lon="12.3543973"><ele>485.0</ele><time>2026-05-01T16:04:04.518Z</time></trkpt><trkpt lat="43.4839576" lon="12.3544918"><ele>485.0</ele><time>2026-05-01T16:04:05.519Z</time></trkpt><trkpt lat="43.4838619" lon="12.3545792"><ele>485.0</ele><time>2026-05-01T16:04:06.519Z</time></trkpt><trkpt lat="43.4837559" lon="12.3546795"><ele>485.0</ele><time>2026-05-01T16:04:07.519Z</time></trkpt><trkpt lat="43.4836551" lon="12.3548013"><ele>485.0</ele><time>2026-05-01T16:04:08.519Z</time></trkpt><trkpt lat="43.4835705" lon="12.3549401"><ele>482.5</ele><time>2026-05-01T16:04:09.519Z</time></trkpt><trkpt lat="43.4835009" lon="12.3550668"><ele>480.0</ele><time>2026-05-01T16:04:10.518Z</time></trkpt><trkpt lat="43.4834415" lon="12.3551977"><ele>477.5</ele><time>2026-05-01T16:04:11.519Z</time></trkpt><trkpt lat="43.4834116" lon="12.3553567"><ele>475.0</ele><time>2026-05-01T16:04:12.519Z</time></trkpt><trkpt lat="43.4834041" lon="12.3555781"><ele>475.0</ele><time>2026-05-01T16:04:13.519Z</time></trkpt><trkpt lat="43.4833991" lon="12.3557986"><ele>475.0</ele><time>2026-05-01T16:04:14.519Z</time></trkpt><trkpt lat="43.4833938" lon="12.3560216"><ele>475.0</ele><time>2026-05-01T16:04:15.519Z</time></trkpt><trkpt lat="43.4833783" lon="12.356223"><ele>478.6666666666667</ele><time>2026-05-01T16:04:16.518Z</time></trkpt><trkpt lat="43.4833474" lon="12.3564073"><ele>482.33333333333337</ele><time>2026-05-01T16:04:17.519Z</time></trkpt><trkpt lat="43.483296" lon="12.3566058"><ele>486.0</ele><time>2026-05-01T16:04:18.519Z</time></trkpt><trkpt lat="43.4832312" lon="12.3568194"><ele>486.0</ele><time>2026-05-01T16:04:19.519Z</time></trkpt><trkpt lat="43.4831696" lon="12.3570298"><ele>486.0</ele><time>2026-05-01T16:04:20.518Z</time></trkpt><trkpt lat="43.4831072" lon="12.3572232"><ele>486.0</ele><time>2026-05-01T16:04:21.518Z</time></trkpt><trkpt lat="43.4830502" lon="12.3574089"><ele>488.0</ele><time>2026-05-01T16:04:22.518Z</time></trkpt><trkpt lat="43.4830017" lon="12.3575836"><ele>490.0</ele><time>2026-05-01T16:04:23.519Z</time></trkpt><trkpt lat="43.482968" lon="12.3577296"><ele>492.0</ele><time>2026-05-01T16:04:24.519Z</time></trkpt><trkpt lat="43.4829521" lon="12.3578696"><ele>494.0</ele><time>2026-05-01T16:04:25.519Z</time></trkpt><trkpt lat="43.4829673" lon="12.3580185"><ele>492.25</ele><time>2026-05-01T16:04:26.519Z</time></trkpt><trkpt lat="43.4830062" lon="12.3581642"><ele>490.5</ele><time>2026-05-01T16:04:27.519Z</time></trkpt><trkpt lat="43.4830707" lon="12.3582871"><ele>488.75</ele><time>2026-05-01T16:04:28.519Z</time></trkpt><trkpt lat="43.48316" lon="12.3583746"><ele>487.0</ele><time>2026-05-01T16:04:29.519Z</time></trkpt><trkpt lat="43.4832756" lon="12.3584357"><ele>487.0</ele><time>2026-05-01T16:04:30.518Z</time></trkpt><trkpt lat="43.4834031" lon="12.3584772"><ele>487.0</ele><time>2026-05-01T16:04:31.519Z</time></trkpt><trkpt lat="43.4835409" lon="12.3584899"><ele>487.0</ele><time>2026-05-01T16:04:32.519Z</time></trkpt><trkpt lat="43.4836751" lon="12.3585016"><ele>487.0</ele><time>2026-05-01T16:04:33.519Z</time></trkpt><trkpt lat="43.4838032" lon="12.3585072"><ele>489.20000000000005</ele><time>2026-05-01T16:04:34.518Z</time></trkpt><trkpt lat="43.4839163" lon="12.3585109"><ele>491.40000000000003</ele><time>2026-05-01T16:04:35.519Z</time></trkpt><trkpt lat="43.4839855" lon="12.358543"><ele>493.59999999999997</ele><time>2026-05-01T16:04:36.519Z</time></trkpt><trkpt lat="43.4840364" lon="12.3587292"><ele>495.79999999999995</ele><time>2026-05-01T16:04:38.518Z</time></trkpt><trkpt lat="43.4840207" lon="12.3588361"><ele>498.0</ele><time>2026-05-01T16:04:39.519Z</time></trkpt><trkpt lat="43.4839879" lon="12.3589244"><ele>498.79999999999995</ele><time>2026-05-01T16:04:40.519Z</time></trkpt><trkpt lat="43.4839159" lon="12.3589715"><ele>499.59999999999997</ele><time>2026-05-01T16:04:41.519Z</time></trkpt><trkpt lat="43.4838238" lon="12.3589996"><ele>500.40000000000003</ele><time>2026-05-01T16:04:42.519Z</time></trkpt><trkpt lat="43.4837133" lon="12.3590139"><ele>501.20000000000005</ele><time>2026-05-01T16:04:43.519Z</time></trkpt><trkpt lat="43.4835924" lon="12.3590289"><ele>502.0</ele><time>2026-05-01T16:04:44.519Z</time></trkpt><trkpt lat="43.4834749" lon="12.3590391"><ele>499.00000000000006</ele><time>2026-05-01T16:04:45.518Z</time></trkpt><trkpt lat="43.4833669" lon="12.3590562"><ele>496.0</ele><time>2026-05-01T16:04:46.519Z</time></trkpt><trkpt lat="43.4832747" lon="12.3590854"><ele>493.0</ele><time>2026-05-01T16:04:47.519Z</time></trkpt><trkpt lat="43.4831963" lon="12.359114"><ele>490.0</ele><time>2026-05-01T16:04:48.519Z</time></trkpt><trkpt lat="43.4831323" lon="12.3591736"><ele>487.00000000000006</ele><time>2026-05-01T16:04:49.519Z</time></trkpt><trkpt lat="43.483087" lon="12.3592736"><ele>484.0</ele><time>2026-05-01T16:04:50.519Z</time></trkpt><trkpt lat="43.483097" lon="12.3594446"><ele>484.0</ele><time>2026-05-01T16:04:51.519Z</time></trkpt><trkpt lat="43.4831344" lon="12.3596279"><ele>484.0</ele><time>2026-05-01T16:04:52.518Z</time></trkpt><trkpt lat="43.4831837" lon="12.3598057"><ele>484.0</ele><time>2026-05-01T16:04:53.519Z</time></trkpt><trkpt lat="43.483244" lon="12.359994"><ele>484.0</ele><time>2026-05-01T16:04:54.519Z</time></trkpt><trkpt lat="43.4833067" lon="12.360176"><ele>485.0</ele><time>2026-05-01T16:04:55.518Z</time></trkpt><trkpt lat="43.4833659" lon="12.3603544"><ele>486.0</ele><time>2026-05-01T16:04:56.519Z</time></trkpt><trkpt lat="43.4834178" lon="12.3605186"><ele>487.0</ele><time>2026-05-01T16:04:57.519Z</time></trkpt><trkpt lat="43.483471" lon="12.3606955"><ele>488.0</ele><time>2026-05-01T16:04:58.519Z</time></trkpt><trkpt lat="43.4835243" lon="12.3608597"><ele>488.0</ele><time>2026-05-01T16:04:59.519Z</time></trkpt><trkpt lat="43.4835697" lon="12.3610361"><ele>488.0</ele><time>2026-05-01T16:05:00.519Z</time></trkpt><trkpt lat="43.4835817" lon="12.3612354"><ele>488.0</ele><time>2026-05-01T16:05:01.519Z</time></trkpt><trkpt lat="43.4835855" lon="12.3614445"><ele>488.0</ele><time>2026-05-01T16:05:02.519Z</time></trkpt><trkpt lat="43.4835861" lon="12.3616503"><ele>486.66666666666663</ele><time>2026-05-01T16:05:03.518Z</time></trkpt><trkpt lat="43.4835674" lon="12.3618543"><ele>485.33333333333337</ele><time>2026-05-01T16:05:04.519Z</time></trkpt><trkpt lat="43.483557" lon="12.3620723"><ele>484.0</ele><time>2026-05-01T16:05:05.518Z</time></trkpt><trkpt lat="43.4835427" lon="12.3622764"><ele>483.5</ele><time>2026-05-01T16:05:06.519Z</time></trkpt><trkpt lat="43.4835299" lon="12.3624707"><ele>483.0</ele><time>2026-05-01T16:05:07.519Z</time></trkpt><trkpt lat="43.4835142" lon="12.3626642"><ele>482.5</ele><time>2026-05-01T16:05:08.519Z</time></trkpt><trkpt lat="43.4834844" lon="12.3628521"><ele>482.0</ele><time>2026-05-01T16:05:09.518Z</time></trkpt><trkpt lat="43.4834409" lon="12.3630161"><ele>484.5</ele><time>2026-05-01T16:05:10.519Z</time></trkpt><trkpt lat="43.4833839" lon="12.3631697"><ele>487.0</ele><time>2026-05-01T16:05:11.519Z</time></trkpt><trkpt lat="43.4833437" lon="12.363326"><ele>489.5</ele><time>2026-05-01T16:05:12.519Z</time></trkpt><trkpt lat="43.4833284" lon="12.3634986"><ele>492.0</ele><time>2026-05-01T16:05:13.519Z</time></trkpt><trkpt lat="43.4833335" lon="12.3636738"><ele>492.0</ele><time>2026-05-01T16:05:14.518Z</time></trkpt><trkpt lat="43.4833537" lon="12.3638335"><ele>492.0</ele><time>2026-05-01T16:05:15.518Z</time></trkpt><trkpt lat="43.4834008" lon="12.3639943"><ele>492.0</ele><time>2026-05-01T16:05:16.519Z</time></trkpt><trkpt lat="43.4834731" lon="12.3641548"><ele>492.0</ele><time>2026-05-01T16:05:17.519Z</time></trkpt><trkpt lat="43.4835681" lon="12.3643238"><ele>491.33333333333337</ele><time>2026-05-01T16:05:18.519Z</time></trkpt><trkpt lat="43.4836606" lon="12.3644889"><ele>490.6666666666667</ele><time>2026-05-01T16:05:19.518Z</time></trkpt><trkpt lat="43.4837565" lon="12.3646633"><ele>490.0</ele><time>2026-05-01T16:05:20.519Z</time></trkpt><trkpt lat="43.483857" lon="12.3648327"><ele>494.33333333333337</ele><time>2026-05-01T16:05:21.519Z</time></trkpt><trkpt lat="43.4839575" lon="12.3650003"><ele>498.66666666666663</ele><time>2026-05-01T16:05:22.518Z</time></trkpt><trkpt lat="43.4840591" lon="12.3651719"><ele>503.0</ele><time>2026-05-01T16:05:23.519Z</time></trkpt><trkpt lat="43.4841624" lon="12.3653364"><ele>503.0</ele><time>2026-05-01T16:05:24.518Z</time></trkpt><trkpt lat="43.484285" lon="12.3655004"><ele>503.0</ele><time>2026-05-01T16:05:25.519Z</time></trkpt><trkpt lat="43.484434" lon="12.3656601"><ele>503.0</ele><time>2026-05-01T16:05:26.519Z</time></trkpt><trkpt lat="43.4846071" lon="12.3658172"><ele>502.3333333333333</ele><time>2026-05-01T16:05:27.519Z</time></trkpt><trkpt lat="43.4847835" lon="12.3659604"><ele>501.66666666666663</ele><time>2026-05-01T16:05:28.519Z</time></trkpt><trkpt lat="43.4849413" lon="12.3660958"><ele>501.0</ele><time>2026-05-01T16:05:29.518Z</time></trkpt><trkpt lat="43.4850857" lon="12.3662322"><ele>504.33333333333337</ele><time>2026-05-01T16:05:30.519Z</time></trkpt><trkpt lat="43.4852224" lon="12.3663758"><ele>507.6666666666667</ele><time>2026-05-01T16:05:31.518Z</time></trkpt><trkpt lat="43.4853356" lon="12.3665253"><ele>511.0</ele><time>2026-05-01T16:05:32.519Z</time></trkpt><trkpt lat="43.4854297" lon="12.3666773"><ele>511.0</ele><time>2026-05-01T16:05:33.519Z</time></trkpt><trkpt lat="43.4855116" lon="12.3668363"><ele>511.0</ele><time>2026-05-01T16:05:34.519Z</time></trkpt><trkpt lat="43.4855891" lon="12.3669832"><ele>511.0</ele><time>2026-05-01T16:05:35.519Z</time></trkpt><trkpt lat="43.4856817" lon="12.3671288"><ele>511.0</ele><time>2026-05-01T16:05:36.519Z</time></trkpt><trkpt lat="43.4857866" lon="12.3672735"><ele>506.75</ele><time>2026-05-01T16:05:37.519Z</time></trkpt><trkpt lat="43.4858967" lon="12.3673935"><ele>502.5</ele><time>2026-05-01T16:05:38.519Z</time></trkpt><trkpt lat="43.4860068" lon="12.3675068"><ele>498.25</ele><time>2026-05-01T16:05:39.519Z</time></trkpt><trkpt lat="43.4861038" lon="12.3676031"><ele>494.0</ele><time>2026-05-01T16:05:40.519Z</time></trkpt><trkpt lat="43.4862153" lon="12.367669"><ele>496.4</ele><time>2026-05-01T16:05:41.518Z</time></trkpt><trkpt lat="43.4863294" lon="12.3676855"><ele>498.79999999999995</ele><time>2026-05-01T16:05:42.519Z</time></trkpt><trkpt lat="43.4864403" lon="12.3676993"><ele>501.20000000000005</ele><time>2026-05-01T16:05:43.518Z</time></trkpt><trkpt lat="43.4865437" lon="12.3677615"><ele>503.6</ele><time>2026-05-01T16:05:44.519Z</time></trkpt><trkpt lat="43.4866231" lon="12.3678604"><ele>506.0</ele><time>2026-05-01T16:05:45.519Z</time></trkpt><trkpt lat="43.4866923" lon="12.3679812"><ele>503.4</ele><time>2026-05-01T16:05:46.518Z</time></trkpt><trkpt lat="43.486723" lon="12.3681178"><ele>500.8</ele><time>2026-05-01T16:05:47.519Z</time></trkpt><trkpt lat="43.4867457" lon="12.3682408"><ele>498.19999999999993</ele><time>2026-05-01T16:05:48.519Z</time></trkpt><trkpt lat="43.4867995" lon="12.3683398"><ele>495.59999999999997</ele><time>2026-05-01T16:05:49.518Z</time></trkpt><trkpt lat="43.4868904" lon="12.3684232"><ele>493.0</ele><time>2026-05-01T16:05:50.519Z</time></trkpt><trkpt lat="43.4869923" lon="12.3684861"><ele>493.0</ele><time>2026-05-01T16:05:51.518Z</time></trkpt><trkpt lat="43.487088" lon="12.3685497"><ele>492.99999999999994</ele><time>2026-05-01T16:05:52.519Z</time></trkpt><trkpt lat="43.4871749" lon="12.3686352"><ele>492.99999999999994</ele><time>2026-05-01T16:05:53.519Z</time></trkpt><trkpt lat="43.4872409" lon="12.368761"><ele>493.0</ele><time>2026-05-01T16:05:54.519Z</time></trkpt><trkpt lat="43.4872686" lon="12.368923"><ele>493.0</ele><time>2026-05-01T16:05:55.519Z</time></trkpt><trkpt lat="43.4872809" lon="12.369104"><ele>495.75</ele><time>2026-05-01T16:05:56.519Z</time></trkpt><trkpt lat="43.4872829" lon="12.3692901"><ele>498.5</ele><time>2026-05-01T16:05:57.519Z</time></trkpt><trkpt lat="43.4872769" lon="12.3694789"><ele>501.25</ele><time>2026-05-01T16:05:58.519Z</time></trkpt><trkpt lat="43.4872705" lon="12.369662"><ele>504.0</ele><time>2026-05-01T16:05:59.518Z</time></trkpt><trkpt lat="43.4872562" lon="12.369841"><ele>504.2</ele><time>2026-05-01T16:06:00.519Z</time></trkpt><trkpt lat="43.4872352" lon="12.3700052"><ele>504.4</ele><time>2026-05-01T16:06:01.519Z</time></trkpt><trkpt lat="43.487214" lon="12.3701534"><ele>504.6</ele><time>2026-05-01T16:06:02.519Z</time></trkpt><trkpt lat="43.4872096" lon="12.3702803"><ele>504.8</ele><time>2026-05-01T16:06:03.519Z</time></trkpt><trkpt lat="43.4872199" lon="12.3704089"><ele>505.0</ele><time>2026-05-01T16:06:04.519Z</time></trkpt><trkpt lat="43.487249" lon="12.3704932"><ele>504.0</ele><time>2026-05-01T16:06:05.518Z</time></trkpt><trkpt lat="43.4873152" lon="12.3706378"><ele>503.0</ele><time>2026-05-01T16:06:07.518Z</time></trkpt><trkpt lat="43.4874074" lon="12.3707589"><ele>502.0</ele><time>2026-05-01T16:06:09.519Z</time></trkpt><trkpt lat="43.4875167" lon="12.3708274"><ele>501.0</ele><time>2026-05-01T16:06:11.518Z</time></trkpt><trkpt lat="43.4875957" lon="12.3708666"><ele>501.0</ele><time>2026-05-01T16:06:13.519Z</time></trkpt><trkpt lat="43.4876644" lon="12.3708709"><ele>501.0</ele><time>2026-05-01T16:07:27.518Z</time></trkpt><trkpt lat="43.4876796" lon="12.3709759"><ele>501.0</ele><time>2026-05-01T16:07:32.519Z</time></trkpt><trkpt lat="43.487711" lon="12.3710992"><ele>501.0</ele><time>2026-05-01T16:07:35.519Z</time></trkpt><trkpt lat="43.4877408" lon="12.3711998"><ele>501.0</ele><time>2026-05-01T16:07:37.519Z</time></trkpt><trkpt lat="43.4877778" lon="12.3712812"><ele>501.0</ele><time>2026-05-01T16:07:39.519Z</time></trkpt><trkpt lat="43.4878562" lon="12.3713297"><ele>501.5</ele><time>2026-05-01T16:07:41.519Z</time></trkpt><trkpt lat="43.4879595" lon="12.3713295"><ele>502.0</ele><time>2026-05-01T16:07:43.519Z</time></trkpt><trkpt lat="43.4880313" lon="12.3713173"><ele>502.5</ele><time>2026-05-01T16:07:44.519Z</time></trkpt><trkpt lat="43.4881044" lon="12.3713021"><ele>503.0</ele><time>2026-05-01T16:07:45.519Z</time></trkpt><trkpt lat="43.4881824" lon="12.3712859"><ele>503.5</ele><time>2026-05-01T16:07:46.519Z</time></trkpt><trkpt lat="43.4882653" lon="12.3712727"><ele>504.0</ele><time>2026-05-01T16:07:47.519Z</time></trkpt><trkpt lat="43.4883536" lon="12.3712588"><ele>504.0</ele><time>2026-05-01T16:07:48.519Z</time></trkpt><trkpt lat="43.4884503" lon="12.3712469"><ele>504.0</ele><time>2026-05-01T16:07:49.519Z</time></trkpt><trkpt lat="43.4885437" lon="12.3712329"><ele>504.0</ele><time>2026-05-01T16:07:50.519Z</time></trkpt><trkpt lat="43.4886315" lon="12.3712166"><ele>504.0</ele><time>2026-05-01T16:07:51.519Z</time></trkpt><trkpt lat="43.4887203" lon="12.3711851"><ele>504.0</ele><time>2026-05-01T16:07:52.519Z</time></trkpt><trkpt lat="43.4888059" lon="12.3711233"><ele>505.0</ele><time>2026-05-01T16:07:53.519Z</time></trkpt><trkpt lat="43.4888873" lon="12.3710513"><ele>506.0</ele><time>2026-05-01T16:07:54.519Z</time></trkpt><trkpt lat="43.488968" lon="12.3709625"><ele>507.0</ele><time>2026-05-01T16:07:55.519Z</time></trkpt><trkpt lat="43.4890367" lon="12.3708596"><ele>508.0</ele><time>2026-05-01T16:07:56.519Z</time></trkpt><trkpt lat="43.4891063" lon="12.3707536"><ele>509.0</ele><time>2026-05-01T16:07:57.518Z</time></trkpt><trkpt lat="43.4891761" lon="12.3706439"><ele>508.99999999999994</ele><time>2026-05-01T16:07:58.519Z</time></trkpt><trkpt lat="43.4892383" lon="12.3705384"><ele>509.0</ele><time>2026-05-01T16:07:59.518Z</time></trkpt><trkpt lat="43.4892912" lon="12.3704507"><ele>509.0</ele><time>2026-05-01T16:08:00.519Z</time></trkpt><trkpt lat="43.4893572" lon="12.3703699"><ele>509.0</ele><time>2026-05-01T16:08:01.519Z</time></trkpt><trkpt lat="43.4894294" lon="12.3703046"><ele>508.99999999999994</ele><time>2026-05-01T16:08:02.519Z</time></trkpt><trkpt lat="43.4895065" lon="12.3702667"><ele>509.0</ele><time>2026-05-01T16:08:03.519Z</time></trkpt><trkpt lat="43.4895845" lon="12.3702564"><ele>509.2</ele><time>2026-05-01T16:08:04.518Z</time></trkpt><trkpt lat="43.4896745" lon="12.3702566"><ele>509.4</ele><time>2026-05-01T16:08:05.519Z</time></trkpt><trkpt lat="43.4897637" lon="12.3702505"><ele>509.6</ele><time>2026-05-01T16:08:06.518Z</time></trkpt><trkpt lat="43.4898696" lon="12.3702494"><ele>509.8</ele><time>2026-05-01T16:08:07.518Z</time></trkpt><trkpt lat="43.4899862" lon="12.3702484"><ele>510.0</ele><time>2026-05-01T16:08:08.519Z</time></trkpt><trkpt lat="43.4900939" lon="12.3702444"><ele>510.0</ele><time>2026-05-01T16:08:09.519Z</time></trkpt><trkpt lat="43.4901944" lon="12.3702515"><ele>510.0</ele><time>2026-05-01T16:08:10.518Z</time></trkpt><trkpt lat="43.4902923" lon="12.3702586"><ele>510.0</ele><time>2026-05-01T16:08:11.519Z</time></trkpt><trkpt lat="43.4903816" lon="12.3702748"><ele>510.0</ele><time>2026-05-01T16:08:12.519Z</time></trkpt><trkpt lat="43.4904679" lon="12.3702887"><ele>510.0</ele><time>2026-05-01T16:08:13.519Z</time></trkpt><trkpt lat="43.4905587" lon="12.3703109"><ele>511.5</ele><time>2026-05-01T16:08:14.519Z</time></trkpt><trkpt lat="43.4906571" lon="12.3703448"><ele>513.0</ele><time>2026-05-01T16:08:15.519Z</time></trkpt><trkpt lat="43.4907603" lon="12.370375"><ele>514.5</ele><time>2026-05-01T16:08:16.519Z</time></trkpt><trkpt lat="43.4908848" lon="12.3703955"><ele>516.0</ele><time>2026-05-01T16:08:17.518Z</time></trkpt><trkpt lat="43.4910138" lon="12.3703814"><ele>516.0</ele><time>2026-05-01T16:08:18.519Z</time></trkpt><trkpt lat="43.4911337" lon="12.3703713"><ele>516.0</ele><time>2026-05-01T16:08:19.519Z</time></trkpt><trkpt lat="43.4912678" lon="12.3703594"><ele>516.0</ele><time>2026-05-01T16:08:20.518Z</time></trkpt><trkpt lat="43.4914096" lon="12.3703441"><ele>516.0</ele><time>2026-05-01T16:08:21.518Z</time></trkpt><trkpt lat="43.4915586" lon="12.3703279"><ele>517.5</ele><time>2026-05-01T16:08:22.518Z</time></trkpt><trkpt lat="43.4917011" lon="12.3703103"><ele>519.0</ele><time>2026-05-01T16:08:23.519Z</time></trkpt><trkpt lat="43.491835" lon="12.3702995"><ele>520.5</ele><time>2026-05-01T16:08:24.519Z</time></trkpt><trkpt lat="43.4919601" lon="12.3702784"><ele>522.0</ele><time>2026-05-01T16:08:25.519Z</time></trkpt><trkpt lat="43.4920897" lon="12.3702681"><ele>524.5</ele><time>2026-05-01T16:08:26.518Z</time></trkpt><trkpt lat="43.4922089" lon="12.3702569"><ele>527.0</ele><time>2026-05-01T16:08:27.519Z</time></trkpt><trkpt lat="43.4923213" lon="12.3702536"><ele>529.5</ele><time>2026-05-01T16:08:28.519Z</time></trkpt><trkpt lat="43.4924362" lon="12.3702544"><ele>532.0</ele><time>2026-05-01T16:08:29.519Z</time></trkpt><trkpt lat="43.4925544" lon="12.3702699"><ele>532.0</ele><time>2026-05-01T16:08:30.519Z</time></trkpt><trkpt lat="43.4926757" lon="12.3702901"><ele>532.0</ele><time>2026-05-01T16:08:31.518Z</time></trkpt><trkpt lat="43.4927884" lon="12.3703206"><ele>532.0</ele><time>2026-05-01T16:08:32.519Z</time></trkpt><trkpt lat="43.4929011" lon="12.3703588"><ele>532.0</ele><time>2026-05-01T16:08:33.518Z</time></trkpt><trkpt lat="43.4930127" lon="12.3704072"><ele>532.0</ele><time>2026-05-01T16:08:34.519Z</time></trkpt><trkpt lat="43.4931247" lon="12.3704695"><ele>532.0</ele><time>2026-05-01T16:08:35.519Z</time></trkpt><trkpt lat="43.4932149" lon="12.3705415"><ele>532.0</ele><time>2026-05-01T16:08:36.518Z</time></trkpt><trkpt lat="43.4932898" lon="12.3706247"><ele>532.0</ele><time>2026-05-01T16:08:37.518Z</time></trkpt><trkpt lat="43.493343" lon="12.3707098"><ele>532.0</ele><time>2026-05-01T16:08:38.518Z</time></trkpt><trkpt lat="43.4933925" lon="12.3707847"><ele>532.0</ele><time>2026-05-01T16:08:39.519Z</time></trkpt><trkpt lat="43.4934511" lon="12.3708485"><ele>532.0</ele><time>2026-05-01T16:08:40.519Z</time></trkpt><trkpt lat="43.4935305" lon="12.3708867"><ele>532.0</ele><time>2026-05-01T16:08:41.519Z</time></trkpt><trkpt lat="43.4936321" lon="12.3709104"><ele>532.0</ele><time>2026-05-01T16:08:42.519Z</time></trkpt><trkpt lat="43.4937374" lon="12.3709255"><ele>532.0</ele><time>2026-05-01T16:08:43.519Z</time></trkpt><trkpt lat="43.4938387" lon="12.3709465"><ele>536.0</ele><time>2026-05-01T16:08:44.518Z</time></trkpt><trkpt lat="43.4939501" lon="12.3709633"><ele>540.0</ele><time>2026-05-01T16:08:45.519Z</time></trkpt><trkpt lat="43.4940721" lon="12.3709833"><ele>544.0</ele><time>2026-05-01T16:08:46.518Z</time></trkpt><trkpt lat="43.4941954" lon="12.3710044"><ele>548.0</ele><time>2026-05-01T16:08:47.519Z</time></trkpt><trkpt lat="43.4943205" lon="12.3710297"><ele>548.0</ele><time>2026-05-01T16:08:48.519Z</time></trkpt><trkpt lat="43.4944409" lon="12.3710573"><ele>548.0</ele><time>2026-05-01T16:08:49.519Z</time></trkpt><trkpt lat="43.4945536" lon="12.3710919"><ele>548.0</ele><time>2026-05-01T16:08:50.518Z</time></trkpt><trkpt lat="43.4946594" lon="12.3711404"><ele>548.0</ele><time>2026-05-01T16:08:51.519Z</time></trkpt><trkpt lat="43.4947606" lon="12.3711952"><ele>546.75</ele><time>2026-05-01T16:08:52.519Z</time></trkpt><trkpt lat="43.4948562" lon="12.3712683"><ele>545.5</ele><time>2026-05-01T16:08:53.519Z</time></trkpt><trkpt lat="43.494939" lon="12.3713653"><ele>544.25</ele><time>2026-05-01T16:08:54.519Z</time></trkpt><trkpt lat="43.4950138" lon="12.3714792"><ele>543.0</ele><time>2026-05-01T16:08:55.518Z</time></trkpt><trkpt lat="43.4950978" lon="12.3716004"><ele>543.0</ele><time>2026-05-01T16:08:56.519Z</time></trkpt><trkpt lat="43.4951998" lon="12.3717219"><ele>543.0</ele><time>2026-05-01T16:08:57.519Z</time></trkpt><trkpt lat="43.4953069" lon="12.3718387"><ele>543.0</ele><time>2026-05-01T16:08:58.518Z</time></trkpt><trkpt lat="43.4954116" lon="12.3719342"><ele>543.0</ele><time>2026-05-01T16:08:59.519Z</time></trkpt><trkpt lat="43.4955154" lon="12.3720218"><ele>543.6</ele><time>2026-05-01T16:09:00.519Z</time></trkpt><trkpt lat="43.4956159" lon="12.3720966"><ele>544.1999999999999</ele><time>2026-05-01T16:09:01.518Z</time></trkpt><trkpt lat="43.4957122" lon="12.3721667"><ele>544.8</ele><time>2026-05-01T16:09:02.518Z</time></trkpt><trkpt lat="43.4958008" lon="12.3722482"><ele>545.4</ele><time>2026-05-01T16:09:03.519Z</time></trkpt><trkpt lat="43.4958887" lon="12.3723252"><ele>546.0</ele><time>2026-05-01T16:09:04.519Z</time></trkpt><trkpt lat="43.4959648" lon="12.3724057"><ele>546.0</ele><time>2026-05-01T16:09:05.519Z</time></trkpt><trkpt lat="43.4960303" lon="12.3724973"><ele>546.0</ele><time>2026-05-01T16:09:06.519Z</time></trkpt><trkpt lat="43.4961072" lon="12.372573"><ele>546.0</ele><time>2026-05-01T16:09:07.518Z</time></trkpt><trkpt lat="43.496185" lon="12.3726379"><ele>546.0</ele><time>2026-05-01T16:09:08.518Z</time></trkpt><trkpt lat="43.4962652" lon="12.3727066"><ele>546.0</ele><time>2026-05-01T16:09:09.519Z</time></trkpt><trkpt lat="43.4963407" lon="12.3727839"><ele>546.4</ele><time>2026-05-01T16:09:10.519Z</time></trkpt><trkpt lat="43.4964119" lon="12.3728985"><ele>546.8</ele><time>2026-05-01T16:09:11.519Z</time></trkpt><trkpt lat="43.4964692" lon="12.3730517"><ele>547.1999999999999</ele><time>2026-05-01T16:09:12.519Z</time></trkpt><trkpt lat="43.4965159" lon="12.3731856"><ele>547.6</ele><time>2026-05-01T16:09:13.519Z</time></trkpt><trkpt lat="43.4965735" lon="12.3732837"><ele>548.0</ele><time>2026-05-01T16:09:14.519Z</time></trkpt><trkpt lat="43.496633" lon="12.3733703"><ele>548.0</ele><time>2026-05-01T16:09:15.519Z</time></trkpt><trkpt lat="43.4967196" lon="12.3734417"><ele>548.0</ele><time>2026-05-01T16:09:16.519Z</time></trkpt><trkpt lat="43.4968349" lon="12.3734903"><ele>548.0</ele><time>2026-05-01T16:09:17.518Z</time></trkpt><trkpt lat="43.4969609" lon="12.3735362"><ele>548.0</ele><time>2026-05-01T16:09:18.519Z</time></trkpt><trkpt lat="43.4970976" lon="12.3735561"><ele>549.25</ele><time>2026-05-01T16:09:19.518Z</time></trkpt><trkpt lat="43.4972383" lon="12.373569"><ele>550.5</ele><time>2026-05-01T16:09:20.519Z</time></trkpt><trkpt lat="43.4973852" lon="12.3735695"><ele>551.75</ele><time>2026-05-01T16:09:21.519Z</time></trkpt><trkpt lat="43.4975148" lon="12.3735501"><ele>553.0</ele><time>2026-05-01T16:09:22.519Z</time></trkpt><trkpt lat="43.4976148" lon="12.3735071"><ele>553.0</ele><time>2026-05-01T16:09:23.518Z</time></trkpt><trkpt lat="43.4977037" lon="12.3734606"><ele>553.0</ele><time>2026-05-01T16:09:24.519Z</time></trkpt><trkpt lat="43.4977871" lon="12.3734247"><ele>553.0</ele><time>2026-05-01T16:09:25.518Z</time></trkpt><trkpt lat="43.4978742" lon="12.3734416"><ele>553.0</ele><time>2026-05-01T16:09:26.518Z</time></trkpt><trkpt lat="43.4979605" lon="12.3734908"><ele>553.0</ele><time>2026-05-01T16:09:27.519Z</time></trkpt><trkpt lat="43.4980056" lon="12.3735705"><ele>553.0</ele><time>2026-05-01T16:09:28.519Z</time></trkpt><trkpt lat="43.4980202" lon="12.3736691"><ele>554.1666666666667</ele><time>2026-05-01T16:09:29.519Z</time></trkpt><trkpt lat="43.4980179" lon="12.3737842"><ele>555.3333333333334</ele><time>2026-05-01T16:09:30.519Z</time></trkpt><trkpt lat="43.4980174" lon="12.3738854"><ele>556.5</ele><time>2026-05-01T16:09:31.518Z</time></trkpt><trkpt lat="43.4980406" lon="12.3740207"><ele>557.6666666666666</ele><time>2026-05-01T16:09:33.518Z</time></trkpt><trkpt lat="43.498138" lon="12.3740082"><ele>558.8333333333333</ele><time>2026-05-01T16:09:35.519Z</time></trkpt><trkpt lat="43.4982067" lon="12.373954"><ele>560.0</ele><time>2026-05-01T16:09:36.519Z</time></trkpt><trkpt lat="43.4982726" lon="12.3738852"><ele>560.0</ele><time>2026-05-01T16:09:37.519Z</time></trkpt><trkpt lat="43.4983416" lon="12.3738148"><ele>560.0</ele><time>2026-05-01T16:09:38.519Z</time></trkpt><trkpt lat="43.4984087" lon="12.3737525"><ele>560.0</ele><time>2026-05-01T16:09:39.518Z</time></trkpt><trkpt lat="43.4984845" lon="12.3736879"><ele>560.0</ele><time>2026-05-01T16:09:40.518Z</time></trkpt><trkpt lat="43.4985713" lon="12.3736227"><ele>560.0</ele><time>2026-05-01T16:09:41.519Z</time></trkpt><trkpt lat="43.4986487" lon="12.3735541"><ele>560.0</ele><time>2026-05-01T16:09:42.519Z</time></trkpt><trkpt lat="43.4987095" lon="12.3735061"><ele>560.0</ele><time>2026-05-01T16:09:43.519Z</time></trkpt><trkpt lat="43.4987874" lon="12.3734902"><ele>560.0</ele><time>2026-05-01T16:09:45.519Z</time></trkpt><trkpt lat="43.4988094" lon="12.3736117"><ele>560.0</ele><time>2026-05-01T16:09:48.519Z</time></trkpt><trkpt lat="43.4987444" lon="12.3737086"><ele>560.0</ele><time>2026-05-01T16:09:50.518Z</time></trkpt><trkpt lat="43.4986885" lon="12.3737784"><ele>560.0</ele><time>2026-05-01T16:09:51.519Z</time></trkpt><trkpt lat="43.4986416" lon="12.3738688"><ele>560.0</ele><time>2026-05-01T16:09:52.519Z</time></trkpt><trkpt lat="43.4986116" lon="12.3739684"><ele>560.6</ele><time>2026-05-01T16:09:53.519Z</time></trkpt><trkpt lat="43.4985989" lon="12.374127"><ele>561.2</ele><time>2026-05-01T16:09:55.519Z</time></trkpt><trkpt lat="43.4986693" lon="12.3742555"><ele>561.8</ele><time>2026-05-01T16:09:57.519Z</time></trkpt><trkpt lat="43.49874" lon="12.3743244"><ele>562.4</ele><time>2026-05-01T16:09:58.519Z</time></trkpt><trkpt lat="43.4988167" lon="12.3744032"><ele>563.0</ele><time>2026-05-01T16:09:59.519Z</time></trkpt><trkpt lat="43.4988973" lon="12.3744976"><ele>566.8</ele><time>2026-05-01T16:10:00.519Z</time></trkpt><trkpt lat="43.4989821" lon="12.3746163"><ele>570.5999999999999</ele><time>2026-05-01T16:10:01.519Z</time></trkpt><trkpt lat="43.4990639" lon="12.3747324"><ele>574.4000000000001</ele><time>2026-05-01T16:10:02.518Z</time></trkpt><trkpt lat="43.4991424" lon="12.3748339"><ele>578.2</ele><time>2026-05-01T16:10:03.519Z</time></trkpt><trkpt lat="43.4992192" lon="12.3749136"><ele>582.0</ele><time>2026-05-01T16:10:04.519Z</time></trkpt><trkpt lat="43.4992933" lon="12.3749734"><ele>582.0</ele><time>2026-05-01T16:10:05.518Z</time></trkpt><trkpt lat="43.4993885" lon="12.3750096"><ele>582.0</ele><time>2026-05-01T16:10:06.519Z</time></trkpt><trkpt lat="43.4994982" lon="12.3750283"><ele>582.0</ele><time>2026-05-01T16:10:07.519Z</time></trkpt><trkpt lat="43.4996134" lon="12.3750343"><ele>582.0</ele><time>2026-05-01T16:10:08.519Z</time></trkpt><trkpt lat="43.4997279" lon="12.375051"><ele>582.0</ele><time>2026-05-01T16:10:09.519Z</time></trkpt><trkpt lat="43.4998436" lon="12.375076"><ele>586.5</ele><time>2026-05-01T16:10:10.519Z</time></trkpt><trkpt lat="43.4999643" lon="12.3751183"><ele>591.0</ele><time>2026-05-01T16:10:11.518Z</time></trkpt><trkpt lat="43.5000757" lon="12.3751733"><ele>595.5</ele><time>2026-05-01T16:10:12.519Z</time></trkpt><trkpt lat="43.5001847" lon="12.375227"><ele>600.0</ele><time>2026-05-01T16:10:13.518Z</time></trkpt><trkpt lat="43.500291" lon="12.3752778"><ele>600.0</ele><time>2026-05-01T16:10:14.519Z</time></trkpt><trkpt lat="43.5003967" lon="12.3753338"><ele>600.0</ele><time>2026-05-01T16:10:15.519Z</time></trkpt><trkpt lat="43.5005033" lon="12.3753986"><ele>600.0</ele><time>2026-05-01T16:10:16.519Z</time></trkpt><trkpt lat="43.5006044" lon="12.3754699"><ele>600.0</ele><time>2026-05-01T16:10:17.518Z</time></trkpt><trkpt lat="43.5006936" lon="12.3755485"><ele>600.0</ele><time>2026-05-01T16:10:18.518Z</time></trkpt><trkpt lat="43.50077" lon="12.3756413"><ele>599.6666666666666</ele><time>2026-05-01T16:10:19.519Z</time></trkpt><trkpt lat="43.5008188" lon="12.3757538"><ele>599.3333333333334</ele><time>2026-05-01T16:10:20.519Z</time></trkpt><trkpt lat="43.5008572" lon="12.3758698"><ele>599.0</ele><time>2026-05-01T16:10:21.518Z</time></trkpt><trkpt lat="43.5009005" lon="12.3759715"><ele>598.6666666666667</ele><time>2026-05-01T16:10:22.519Z</time></trkpt><trkpt lat="43.5009572" lon="12.376049"><ele>598.3333333333334</ele><time>2026-05-01T16:10:23.519Z</time></trkpt><trkpt lat="43.5010239" lon="12.3761186"><ele>598.0</ele><time>2026-05-01T16:10:24.519Z</time></trkpt><trkpt lat="43.5011033" lon="12.3761905"><ele>598.0</ele><time>2026-05-01T16:10:25.519Z</time></trkpt><trkpt lat="43.5011768" lon="12.376268"><ele>598.0</ele><time>2026-05-01T16:10:26.519Z</time></trkpt><trkpt lat="43.5012451" lon="12.3763475"><ele>598.0</ele><time>2026-05-01T16:10:27.519Z</time></trkpt><trkpt lat="43.501304" lon="12.3764288"><ele>598.0</ele><time>2026-05-01T16:10:28.519Z</time></trkpt><trkpt lat="43.5013495" lon="12.3764992"><ele>598.0</ele><time>2026-05-01T16:10:29.519Z</time></trkpt><trkpt lat="43.5014247" lon="12.3765679"><ele>598.0</ele><time>2026-05-01T16:10:31.519Z</time></trkpt><trkpt lat="43.5015031" lon="12.3764951"><ele>601.4</ele><time>2026-05-01T16:10:33.519Z</time></trkpt><trkpt lat="43.5014972" lon="12.3763415"><ele>604.8</ele><time>2026-05-01T16:10:35.519Z</time></trkpt><trkpt lat="43.5014171" lon="12.3762108"><ele>608.2</ele><time>2026-05-01T16:10:37.519Z</time></trkpt><trkpt lat="43.501367" lon="12.3761216"><ele>611.6</ele><time>2026-05-01T16:10:38.519Z</time></trkpt><trkpt lat="43.5013208" lon="12.376036"><ele>615.0</ele><time>2026-05-01T16:10:39.519Z</time></trkpt><trkpt lat="43.5012645" lon="12.3759466"><ele>614.6666666666666</ele><time>2026-05-01T16:10:40.519Z</time></trkpt><trkpt lat="43.5012054" lon="12.3758624"><ele>614.3333333333334</ele><time>2026-05-01T16:10:41.519Z</time></trkpt><trkpt lat="43.5011526" lon="12.3757804"><ele>614.0</ele><time>2026-05-01T16:10:42.519Z</time></trkpt><trkpt lat="43.5011127" lon="12.3756867"><ele>613.6666666666667</ele><time>2026-05-01T16:10:43.519Z</time></trkpt><trkpt lat="43.5010873" lon="12.3755722"><ele>613.3333333333334</ele><time>2026-05-01T16:10:44.519Z</time></trkpt><trkpt lat="43.5010751" lon="12.3754442"><ele>613.0</ele><time>2026-05-01T16:10:45.519Z</time></trkpt><trkpt lat="43.5010654" lon="12.3753026"><ele>613.0</ele><time>2026-05-01T16:10:46.519Z</time></trkpt><trkpt lat="43.5010417" lon="12.3751455"><ele>613.0</ele><time>2026-05-01T16:10:47.519Z</time></trkpt><trkpt lat="43.5010154" lon="12.3749857"><ele>613.0</ele><time>2026-05-01T16:10:48.519Z</time></trkpt><trkpt lat="43.5009708" lon="12.3748318"><ele>613.0</ele><time>2026-05-01T16:10:49.519Z</time></trkpt><trkpt lat="43.5009216" lon="12.3746909"><ele>613.4</ele><time>2026-05-01T16:10:50.519Z</time></trkpt><trkpt lat="43.500873" lon="12.3745818"><ele>613.8</ele><time>2026-05-01T16:10:51.519Z</time></trkpt><trkpt lat="43.5008292" lon="12.3744837"><ele>614.2</ele><time>2026-05-01T16:10:52.519Z</time></trkpt><trkpt lat="43.5008055" lon="12.3743388"><ele>614.6</ele><time>2026-05-01T16:10:54.519Z</time></trkpt><trkpt lat="43.5008661" lon="12.3742372"><ele>615.0</ele><time>2026-05-01T16:10:56.519Z</time></trkpt><trkpt lat="43.5009764" lon="12.3741803"><ele>615.0</ele><time>2026-05-01T16:10:58.519Z</time></trkpt><trkpt lat="43.5010493" lon="12.3741842"><ele>615.0</ele><time>2026-05-01T16:10:59.519Z</time></trkpt><trkpt lat="43.501143" lon="12.3742123"><ele>615.0</ele><time>2026-05-01T16:11:00.519Z</time></trkpt><trkpt lat="43.5012469" lon="12.3742383"><ele>615.0</ele><time>2026-05-01T16:11:01.519Z</time></trkpt><trkpt lat="43.5013541" lon="12.3742364"><ele>615.0</ele><time>2026-05-01T16:11:02.518Z</time></trkpt><trkpt lat="43.5014411" lon="12.3742334"><ele>616.6666666666666</ele><time>2026-05-01T16:11:03.519Z</time></trkpt><trkpt lat="43.5015211" lon="12.3742365"><ele>618.3333333333334</ele><time>2026-05-01T16:11:04.519Z</time></trkpt><trkpt lat="43.5016026" lon="12.3742702"><ele>620.0</ele><time>2026-05-01T16:11:05.519Z</time></trkpt><trkpt lat="43.501678" lon="12.3743222"><ele>621.6666666666667</ele><time>2026-05-01T16:11:06.518Z</time></trkpt><trkpt lat="43.501759" lon="12.3743901"><ele>623.3333333333334</ele><time>2026-05-01T16:11:07.518Z</time></trkpt><trkpt lat="43.5018276" lon="12.3744728"><ele>625.0</ele><time>2026-05-01T16:11:08.519Z</time></trkpt><trkpt lat="43.5018965" lon="12.374558"><ele>625.0</ele><time>2026-05-01T16:11:09.519Z</time></trkpt><trkpt lat="43.501969" lon="12.3746467"><ele>625.0</ele><time>2026-05-01T16:11:10.518Z</time></trkpt><trkpt lat="43.502048" lon="12.3747403"><ele>625.0</ele><time>2026-05-01T16:11:11.518Z</time></trkpt><trkpt lat="43.5021372" lon="12.3748236"><ele>625.0</ele><time>2026-05-01T16:11:12.519Z</time></trkpt><trkpt lat="43.5022254" lon="12.3748925"><ele>625.0</ele><time>2026-05-01T16:11:13.519Z</time></trkpt><trkpt lat="43.5023101" lon="12.3749537"><ele>626.8</ele><time>2026-05-01T16:11:14.519Z</time></trkpt><trkpt lat="43.5023816" lon="12.3750212"><ele>628.6</ele><time>2026-05-01T16:11:15.519Z</time></trkpt><trkpt lat="43.5024596" lon="12.3751025"><ele>630.4</ele><time>2026-05-01T16:11:16.519Z</time></trkpt><trkpt lat="43.5025397" lon="12.375216"><ele>632.2</ele><time>2026-05-01T16:11:17.519Z</time></trkpt><trkpt lat="43.5026225" lon="12.3753262"><ele>634.0</ele><time>2026-05-01T16:11:18.518Z</time></trkpt><trkpt lat="43.5027184" lon="12.3754364"><ele>634.0</ele><time>2026-05-01T16:11:19.519Z</time></trkpt><trkpt lat="43.5028151" lon="12.3755421"><ele>634.0</ele><time>2026-05-01T16:11:20.519Z</time></trkpt><trkpt lat="43.5029228" lon="12.3756303"><ele>634.0</ele><time>2026-05-01T16:11:21.519Z</time></trkpt><trkpt lat="43.5030267" lon="12.3756847"><ele>634.0</ele><time>2026-05-01T16:11:22.519Z</time></trkpt><trkpt lat="43.5031333" lon="12.3756995"><ele>638.4</ele><time>2026-05-01T16:11:23.519Z</time></trkpt><trkpt lat="43.5032408" lon="12.3756801"><ele>642.8</ele><time>2026-05-01T16:11:24.519Z</time></trkpt><trkpt lat="43.5033395" lon="12.375648"><ele>647.1999999999999</ele><time>2026-05-01T16:11:25.518Z</time></trkpt><trkpt lat="43.503432" lon="12.3756491"><ele>651.5999999999999</ele><time>2026-05-01T16:11:26.518Z</time></trkpt><trkpt lat="43.5035037" lon="12.3756734"><ele>656.0</ele><time>2026-05-01T16:11:27.519Z</time></trkpt><trkpt lat="43.503581" lon="12.3757002"><ele>656.0</ele><time>2026-05-01T16:11:28.519Z</time></trkpt><trkpt lat="43.5036601" lon="12.375764"><ele>656.0</ele><time>2026-05-01T16:11:29.519Z</time></trkpt><trkpt lat="43.5037557" lon="12.3758384"><ele>656.0</ele><time>2026-05-01T16:11:30.519Z</time></trkpt><trkpt lat="43.503841" lon="12.3759133"><ele>656.0</ele><time>2026-05-01T16:11:31.519Z</time></trkpt><trkpt lat="43.5039144" lon="12.3759948"><ele>656.0</ele><time>2026-05-01T16:11:32.518Z</time></trkpt><trkpt lat="43.5039885" lon="12.3760644"><ele>658.1999999999999</ele><time>2026-05-01T16:11:33.519Z</time></trkpt><trkpt lat="43.5040735" lon="12.3760985"><ele>660.4</ele><time>2026-05-01T16:11:34.519Z</time></trkpt><trkpt lat="43.5041752" lon="12.3761022"><ele>662.6</ele><time>2026-05-01T16:11:35.519Z</time></trkpt><trkpt lat="43.5043033" lon="12.3760742"><ele>664.8</ele><time>2026-05-01T16:11:36.519Z</time></trkpt><trkpt lat="43.5044196" lon="12.3760294"><ele>667.0</ele><time>2026-05-01T16:11:37.519Z</time></trkpt><trkpt lat="43.5045363" lon="12.376025"><ele>670.0</ele><time>2026-05-01T16:11:38.518Z</time></trkpt><trkpt lat="43.5046624" lon="12.3760651"><ele>673.0</ele><time>2026-05-01T16:11:39.518Z</time></trkpt><trkpt lat="43.5047884" lon="12.3760997"><ele>676.0</ele><time>2026-05-01T16:11:40.519Z</time></trkpt><trkpt lat="43.5049123" lon="12.3761233"><ele>679.0</ele><time>2026-05-01T16:11:41.519Z</time></trkpt><trkpt lat="43.5050212" lon="12.3761293"><ele>679.0</ele><time>2026-05-01T16:11:42.518Z</time></trkpt><trkpt lat="43.5050984" lon="12.3761527"><ele>679.0</ele><time>2026-05-01T16:11:43.519Z</time></trkpt><trkpt lat="43.5051955" lon="12.3762453"><ele>679.0</ele><time>2026-05-01T16:11:45.519Z</time></trkpt><trkpt lat="43.50525" lon="12.3763136"><ele>679.0</ele><time>2026-05-01T16:11:46.519Z</time></trkpt><trkpt lat="43.5053086" lon="12.3763788"><ele>679.0</ele><time>2026-05-01T16:11:47.518Z</time></trkpt><trkpt lat="43.505374" lon="12.3764109"><ele>679.0</ele><time>2026-05-01T16:11:48.518Z</time></trkpt><trkpt lat="43.5054505" lon="12.3764223"><ele>679.1666666666667</ele><time>2026-05-01T16:11:49.519Z</time></trkpt><trkpt lat="43.5055357" lon="12.3764187"><ele>679.3333333333334</ele><time>2026-05-01T16:11:50.519Z</time></trkpt><trkpt lat="43.5056163" lon="12.3764029"><ele>679.5</ele><time>2026-05-01T16:11:51.518Z</time></trkpt><trkpt lat="43.5056888" lon="12.3763571"><ele>679.6666666666666</ele><time>2026-05-01T16:11:52.519Z</time></trkpt><trkpt lat="43.5057643" lon="12.3763122"><ele>679.8333333333333</ele><time>2026-05-01T16:11:53.519Z</time></trkpt><trkpt lat="43.5058382" lon="12.3762693"><ele>680.0</ele><time>2026-05-01T16:11:54.518Z</time></trkpt><trkpt lat="43.5059023" lon="12.3762314"><ele>683.1666666666666</ele><time>2026-05-01T16:11:55.519Z</time></trkpt><trkpt lat="43.5059621" lon="12.3761914"><ele>686.3333333333333</ele><time>2026-05-01T16:11:56.519Z</time></trkpt><trkpt lat="43.5060355" lon="12.376151"><ele>689.5</ele><time>2026-05-01T16:11:57.519Z</time></trkpt><trkpt lat="43.506119" lon="12.3761123"><ele>692.6666666666666</ele><time>2026-05-01T16:11:58.519Z</time></trkpt><trkpt lat="43.5062148" lon="12.3760821"><ele>695.8333333333334</ele><time>2026-05-01T16:11:59.519Z</time></trkpt><trkpt lat="43.5063244" lon="12.3760727"><ele>699.0</ele><time>2026-05-01T16:12:00.519Z</time></trkpt><trkpt lat="43.5064358" lon="12.3760965"><ele>701.4000000000001</ele><time>2026-05-01T16:12:01.519Z</time></trkpt><trkpt lat="43.5065525" lon="12.3761603"><ele>703.8</ele><time>2026-05-01T16:12:02.518Z</time></trkpt><trkpt lat="43.506655" lon="12.3762149"><ele>706.2</ele><time>2026-05-01T16:12:03.518Z</time></trkpt><trkpt lat="43.5067361" lon="12.3762744"><ele>708.5999999999999</ele><time>2026-05-01T16:12:04.518Z</time></trkpt><trkpt lat="43.5068095" lon="12.3763078"><ele>711.0</ele><time>2026-05-01T16:12:05.519Z</time></trkpt><trkpt lat="43.506887" lon="12.3763118"><ele>711.0</ele><time>2026-05-01T16:12:06.519Z</time></trkpt><trkpt lat="43.5069639" lon="12.3762978"><ele>711.0</ele><time>2026-05-01T16:12:07.518Z</time></trkpt><trkpt lat="43.507036" lon="12.3762702"><ele>711.0</ele><time>2026-05-01T16:12:08.519Z</time></trkpt><trkpt lat="43.5071159" lon="12.3762384"><ele>711.0</ele><time>2026-05-01T16:12:09.519Z</time></trkpt><trkpt lat="43.5071991" lon="12.3762208"><ele>711.0</ele><time>2026-05-01T16:12:10.519Z</time></trkpt><trkpt lat="43.5072811" lon="12.3762126"><ele>711.0</ele><time>2026-05-01T16:12:11.518Z</time></trkpt><trkpt lat="43.5073643" lon="12.3762116"><ele>713.0</ele><time>2026-05-01T16:12:12.518Z</time></trkpt><trkpt lat="43.5074564" lon="12.3762237"><ele>715.0</ele><time>2026-05-01T16:12:13.519Z</time></trkpt><trkpt lat="43.5075449" lon="12.3762414"><ele>717.0</ele><time>2026-05-01T16:12:14.518Z</time></trkpt><trkpt lat="43.5076304" lon="12.3762674"><ele>719.0</ele><time>2026-05-01T16:12:15.518Z</time></trkpt><trkpt lat="43.5077014" lon="12.3762841"><ele>721.0</ele><time>2026-05-01T16:12:16.519Z</time></trkpt><trkpt lat="43.5077974" lon="12.3762456"><ele>723.0</ele><time>2026-05-01T16:12:18.519Z</time></trkpt><trkpt lat="43.5078495" lon="12.3761396"><ele>723.0000000000001</ele><time>2026-05-01T16:12:20.519Z</time></trkpt><trkpt lat="43.5078825" lon="12.3759932"><ele>723.0</ele><time>2026-05-01T16:12:22.519Z</time></trkpt><trkpt lat="43.5078976" lon="12.3759041"><ele>723.0</ele><time>2026-05-01T16:12:23.519Z</time></trkpt><trkpt lat="43.5079157" lon="12.375814"><ele>723.0</ele><time>2026-05-01T16:12:24.519Z</time></trkpt><trkpt lat="43.5079352" lon="12.3757172"><ele>723.0</ele><time>2026-05-01T16:12:25.519Z</time></trkpt><trkpt lat="43.5079608" lon="12.3756349"><ele>723.0000000000001</ele><time>2026-05-01T16:12:26.519Z</time></trkpt><trkpt lat="43.5079872" lon="12.3755559"><ele>723.0</ele><time>2026-05-01T16:12:27.518Z</time></trkpt><trkpt lat="43.5080146" lon="12.3754716"><ele>724.6666666666666</ele><time>2026-05-01T16:12:28.518Z</time></trkpt><trkpt lat="43.5080468" lon="12.3753874"><ele>726.3333333333334</ele><time>2026-05-01T16:12:29.519Z</time></trkpt><trkpt lat="43.508079" lon="12.3752938"><ele>728.0</ele><time>2026-05-01T16:12:30.519Z</time></trkpt><trkpt lat="43.5081134" lon="12.3751862"><ele>729.6666666666667</ele><time>2026-05-01T16:12:31.519Z</time></trkpt><trkpt lat="43.50814" lon="12.3750785"><ele>731.3333333333334</ele><time>2026-05-01T16:12:32.518Z</time></trkpt><trkpt lat="43.5081515" lon="12.3749614"><ele>733.0</ele><time>2026-05-01T16:12:33.519Z</time></trkpt><trkpt lat="43.5081605" lon="12.3748419"><ele>733.0</ele><time>2026-05-01T16:12:34.519Z</time></trkpt><trkpt lat="43.508161" lon="12.3747146"><ele>733.0</ele><time>2026-05-01T16:12:35.519Z</time></trkpt><trkpt lat="43.5081537" lon="12.374583"><ele>733.0</ele><time>2026-05-01T16:12:36.519Z</time></trkpt><trkpt lat="43.5081528" lon="12.3744565"><ele>733.0</ele><time>2026-05-01T16:12:37.518Z</time></trkpt><trkpt lat="43.5081783" lon="12.3743495"><ele>733.0</ele><time>2026-05-01T16:12:38.519Z</time></trkpt><trkpt lat="43.5082304" lon="12.3742697"><ele>733.0</ele><time>2026-05-01T16:12:39.519Z</time></trkpt><trkpt lat="43.5082919" lon="12.3741804"><ele>733.6666666666667</ele><time>2026-05-01T16:12:40.519Z</time></trkpt><trkpt lat="43.5083506" lon="12.3741059"><ele>734.3333333333334</ele><time>2026-05-01T16:12:41.519Z</time></trkpt><trkpt lat="43.5083988" lon="12.3740265"><ele>735.0</ele><time>2026-05-01T16:12:42.519Z</time></trkpt><trkpt lat="43.5084381" lon="12.3739472"><ele>735.6666666666666</ele><time>2026-05-01T16:12:43.519Z</time></trkpt><trkpt lat="43.5084697" lon="12.373861"><ele>736.3333333333333</ele><time>2026-05-01T16:12:44.519Z</time></trkpt><trkpt lat="43.5085038" lon="12.3737645"><ele>737.0</ele><time>2026-05-01T16:12:45.519Z</time></trkpt><trkpt lat="43.5085369" lon="12.3736578"><ele>738.4000000000001</ele><time>2026-05-01T16:12:46.519Z</time></trkpt><trkpt lat="43.5085808" lon="12.3735567"><ele>739.8000000000001</ele><time>2026-05-01T16:12:47.518Z</time></trkpt><trkpt lat="43.5086448" lon="12.3734527"><ele>741.2</ele><time>2026-05-01T16:12:48.518Z</time></trkpt><trkpt lat="43.508723" lon="12.3733604"><ele>742.6</ele><time>2026-05-01T16:12:49.519Z</time></trkpt><trkpt lat="43.5088054" lon="12.3732754"><ele>744.0</ele><time>2026-05-01T16:12:50.519Z</time></trkpt><trkpt lat="43.5088896" lon="12.3731905"><ele>744.0</ele><time>2026-05-01T16:12:51.518Z</time></trkpt><trkpt lat="43.5089595" lon="12.3731063"><ele>744.0</ele><time>2026-05-01T16:12:52.519Z</time></trkpt><trkpt lat="43.5090055" lon="12.373014"><ele>744.0</ele><time>2026-05-01T16:12:53.518Z</time></trkpt><trkpt lat="43.5090181" lon="12.3728993"><ele>744.0</ele><time>2026-05-01T16:12:54.519Z</time></trkpt><trkpt lat="43.5090049" lon="12.3727625"><ele>744.0</ele><time>2026-05-01T16:12:55.518Z</time></trkpt><trkpt lat="43.5089647" lon="12.3726207"><ele>742.2</ele><time>2026-05-01T16:12:56.519Z</time></trkpt><trkpt lat="43.5089264" lon="12.3724859"><ele>740.4000000000001</ele><time>2026-05-01T16:12:57.519Z</time></trkpt><trkpt lat="43.5088873" lon="12.3723775"><ele>738.6</ele><time>2026-05-01T16:12:58.519Z</time></trkpt><trkpt lat="43.508864" lon="12.3722682"><ele>736.8</ele><time>2026-05-01T16:12:59.519Z</time></trkpt><trkpt lat="43.5088645" lon="12.3721461"><ele>735.0</ele><time>2026-05-01T16:13:00.518Z</time></trkpt><trkpt lat="43.5088858" lon="12.3720094"><ele>733.3333333333334</ele><time>2026-05-01T16:13:01.519Z</time></trkpt><trkpt lat="43.5089134" lon="12.3718979"><ele>731.6666666666666</ele><time>2026-05-01T16:13:02.519Z</time></trkpt><trkpt lat="43.5089422" lon="12.3718033"><ele>730.0</ele><time>2026-05-01T16:13:03.519Z</time></trkpt><trkpt lat="43.5090107" lon="12.3717185"><ele>728.3333333333333</ele><time>2026-05-01T16:13:05.519Z</time></trkpt><trkpt lat="43.5090863" lon="12.3717549"><ele>726.6666666666666</ele><time>2026-05-01T16:13:07.519Z</time></trkpt><trkpt lat="43.5091436" lon="12.3718368"><ele>725.0</ele><time>2026-05-01T16:13:09.519Z</time></trkpt><trkpt lat="43.5092062" lon="12.3719022"><ele>725.0</ele><time>2026-05-01T16:13:12.519Z</time></trkpt><trkpt lat="43.5093068" lon="12.3719451"><ele>725.0</ele><time>2026-05-01T16:13:28.519Z</time></trkpt><trkpt lat="43.5094178" lon="12.3719655"><ele>725.0</ele><time>2026-05-01T16:13:30.519Z</time></trkpt><trkpt lat="43.5095246" lon="12.3719855"><ele>725.0</ele><time>2026-05-01T16:13:32.518Z</time></trkpt><trkpt lat="43.5096029" lon="12.372107"><ele>725.0</ele><time>2026-05-01T16:13:34.519Z</time></trkpt><trkpt lat="43.5096388" lon="12.3721881"><ele>727.8</ele><time>2026-05-01T16:13:35.519Z</time></trkpt><trkpt lat="43.5096849" lon="12.372272"><ele>730.6</ele><time>2026-05-01T16:13:36.519Z</time></trkpt><trkpt lat="43.509752" lon="12.372348"><ele>733.4000000000001</ele><time>2026-05-01T16:13:37.519Z</time></trkpt><trkpt lat="43.5098371" lon="12.3724101"><ele>736.2</ele><time>2026-05-01T16:13:38.519Z</time></trkpt><trkpt lat="43.5099357" lon="12.3724514"><ele>739.0</ele><time>2026-05-01T16:13:39.518Z</time></trkpt><trkpt lat="43.5100549" lon="12.3724659"><ele>739.0</ele><time>2026-05-01T16:13:40.519Z</time></trkpt><trkpt lat="43.5101806" lon="12.3724612"><ele>739.0</ele><time>2026-05-01T16:13:41.519Z</time></trkpt><trkpt lat="43.5103051" lon="12.3724558"><ele>739.0</ele><time>2026-05-01T16:13:42.519Z</time></trkpt><trkpt lat="43.5104196" lon="12.3724385"><ele>739.0</ele><time>2026-05-01T16:13:43.519Z</time></trkpt><trkpt lat="43.5105244" lon="12.3723859"><ele>739.2</ele><time>2026-05-01T16:13:44.518Z</time></trkpt><trkpt lat="43.5106063" lon="12.372319"><ele>739.4000000000001</ele><time>2026-05-01T16:13:45.519Z</time></trkpt><trkpt lat="43.5106802" lon="12.3722535"><ele>739.6</ele><time>2026-05-01T16:13:46.519Z</time></trkpt><trkpt lat="43.5107521" lon="12.3722131"><ele>739.8</ele><time>2026-05-01T16:13:47.519Z</time></trkpt><trkpt lat="43.5108421" lon="12.3721824"><ele>740.0</ele><time>2026-05-01T16:13:48.519Z</time></trkpt><trkpt lat="43.510947" lon="12.3721602"><ele>739.6666666666666</ele><time>2026-05-01T16:13:49.518Z</time></trkpt><trkpt lat="43.5110438" lon="12.3721449"><ele>739.3333333333333</ele><time>2026-05-01T16:13:50.519Z</time></trkpt><trkpt lat="43.5111367" lon="12.3721349"><ele>739.0</ele><time>2026-05-01T16:13:51.518Z</time></trkpt><trkpt lat="43.5112231" lon="12.3721414"><ele>738.6666666666666</ele><time>2026-05-01T16:13:52.518Z</time></trkpt><trkpt lat="43.5113011" lon="12.3721637"><ele>738.3333333333334</ele><time>2026-05-01T16:13:53.519Z</time></trkpt><trkpt lat="43.5113688" lon="12.3722155"><ele>738.0</ele><time>2026-05-01T16:13:54.519Z</time></trkpt><trkpt lat="43.5114383" lon="12.3722961"><ele>738.0</ele><time>2026-05-01T16:13:55.519Z</time></trkpt><trkpt lat="43.5115152" lon="12.372373"><ele>738.0</ele><time>2026-05-01T16:13:56.519Z</time></trkpt><trkpt lat="43.5116035" lon="12.3724533"><ele>738.0</ele><time>2026-05-01T16:13:57.518Z</time></trkpt><trkpt lat="43.5117015" lon="12.3725264"><ele>738.0</ele><time>2026-05-01T16:13:58.519Z</time></trkpt><trkpt lat="43.5118073" lon="12.3725792"><ele>738.0</ele><time>2026-05-01T16:13:59.519Z</time></trkpt><trkpt lat="43.51192" lon="12.372629"><ele>738.0</ele><time>2026-05-01T16:14:00.518Z</time></trkpt><trkpt lat="43.5120359" lon="12.3726864"><ele>738.0</ele><time>2026-05-01T16:14:01.519Z</time></trkpt><trkpt lat="43.5121522" lon="12.3727546"><ele>738.0</ele><time>2026-05-01T16:14:02.519Z</time></trkpt><trkpt lat="43.5122635" lon="12.3728319"><ele>738.0</ele><time>2026-05-01T16:14:03.518Z</time></trkpt><trkpt lat="43.5123782" lon="12.372916"><ele>739.2</ele><time>2026-05-01T16:14:04.519Z</time></trkpt><trkpt lat="43.5124873" lon="12.373015"><ele>740.4</ele><time>2026-05-01T16:14:05.518Z</time></trkpt><trkpt lat="43.5125847" lon="12.3731262"><ele>741.6</ele><time>2026-05-01T16:14:06.519Z</time></trkpt><trkpt lat="43.51266" lon="12.3732277"><ele>742.8000000000001</ele><time>2026-05-01T16:14:07.519Z</time></trkpt><trkpt lat="43.5127076" lon="12.3732963"><ele>744.0</ele><time>2026-05-01T16:14:08.519Z</time></trkpt><trkpt lat="43.5127669" lon="12.3733488"><ele>744.0</ele><time>2026-05-01T16:14:09.519Z</time></trkpt><trkpt lat="43.512868" lon="12.373315"><ele>744.0</ele><time>2026-05-01T16:14:11.519Z</time></trkpt><trkpt lat="43.5129245" lon="12.3731451"><ele>744.0</ele><time>2026-05-01T16:14:13.518Z</time></trkpt><trkpt lat="43.5129544" lon="12.3730328"><ele>744.0</ele><time>2026-05-01T16:14:14.519Z</time></trkpt><trkpt lat="43.512986" lon="12.3729154"><ele>744.0</ele><time>2026-05-01T16:14:15.519Z</time></trkpt><trkpt lat="43.5130243" lon="12.3728005"><ele>748.4000000000001</ele><time>2026-05-01T16:14:16.519Z</time></trkpt><trkpt lat="43.5130796" lon="12.3726935"><ele>752.8</ele><time>2026-05-01T16:14:17.518Z</time></trkpt><trkpt lat="43.5131526" lon="12.3726162"><ele>757.2</ele><time>2026-05-01T16:14:18.519Z</time></trkpt><trkpt lat="43.5132424" lon="12.3725626"><ele>761.5999999999999</ele><time>2026-05-01T16:14:19.518Z</time></trkpt><trkpt lat="43.5133385" lon="12.3725185"><ele>766.0</ele><time>2026-05-01T16:14:20.519Z</time></trkpt><trkpt lat="43.5134397" lon="12.3724607"><ele>766.0</ele><time>2026-05-01T16:14:21.52Z</time></trkpt><trkpt lat="43.5135432" lon="12.3724088"><ele>766.0</ele><time>2026-05-01T16:14:22.519Z</time></trkpt><trkpt lat="43.5136499" lon="12.3723668"><ele>766.0</ele><time>2026-05-01T16:14:23.519Z</time></trkpt><trkpt lat="43.5137411" lon="12.3723373"><ele>766.0</ele><time>2026-05-01T16:14:24.52Z</time></trkpt><trkpt lat="43.513827" lon="12.3723044"><ele>766.0</ele><time>2026-05-01T16:14:25.52Z</time></trkpt><trkpt lat="43.5138859" lon="12.3722565"><ele>764.0</ele><time>2026-05-01T16:14:26.519Z</time></trkpt><trkpt lat="43.5139029" lon="12.3721023"><ele>762.0</ele><time>2026-05-01T16:14:28.519Z</time></trkpt><trkpt lat="43.5138743" lon="12.3720108"><ele>760.0</ele><time>2026-05-01T16:14:29.52Z</time></trkpt><trkpt lat="43.5138251" lon="12.3719016"><ele>758.0</ele><time>2026-05-01T16:14:30.52Z</time></trkpt><trkpt lat="43.5137941" lon="12.3717752"><ele>756.0</ele><time>2026-05-01T16:14:31.52Z</time></trkpt><trkpt lat="43.5137755" lon="12.3716425"><ele>756.0</ele><time>2026-05-01T16:14:32.519Z</time></trkpt><trkpt lat="43.513796" lon="12.3715112"><ele>756.0</ele><time>2026-05-01T16:14:33.52Z</time></trkpt><trkpt lat="43.5138315" lon="12.3713758"><ele>756.0</ele><time>2026-05-01T16:14:34.519Z</time></trkpt><trkpt lat="43.513866" lon="12.3712708"><ele>756.0</ele><time>2026-05-01T16:14:35.52Z</time></trkpt><trkpt lat="43.5138808" lon="12.3711715"><ele>756.0</ele><time>2026-05-01T16:14:36.52Z</time></trkpt><trkpt lat="43.5138716" lon="12.3710827"><ele>756.0</ele><time>2026-05-01T16:14:37.52Z</time></trkpt><trkpt lat="43.513846" lon="12.3709774"><ele>756.1999999999999</ele><time>2026-05-01T16:14:38.52Z</time></trkpt><trkpt lat="43.5138182" lon="12.3708475"><ele>756.4</ele><time>2026-05-01T16:14:39.519Z</time></trkpt><trkpt lat="43.5137956" lon="12.3706987"><ele>756.6</ele><time>2026-05-01T16:14:40.52Z</time></trkpt><trkpt lat="43.513789" lon="12.3705413"><ele>756.8</ele><time>2026-05-01T16:14:41.519Z</time></trkpt><trkpt lat="43.5138095" lon="12.3703847"><ele>757.0</ele><time>2026-05-01T16:14:42.52Z</time></trkpt><trkpt lat="43.5138621" lon="12.3702395"><ele>758.75</ele><time>2026-05-01T16:14:43.52Z</time></trkpt><trkpt lat="43.513941" lon="12.3700886"><ele>760.5</ele><time>2026-05-01T16:14:44.52Z</time></trkpt><trkpt lat="43.5140305" lon="12.3699587"><ele>762.25</ele><time>2026-05-01T16:14:45.52Z</time></trkpt><trkpt lat="43.514117" lon="12.3698409"><ele>764.0</ele><time>2026-05-01T16:14:46.519Z</time></trkpt><trkpt lat="43.5142044" lon="12.3697441"><ele>764.0</ele><time>2026-05-01T16:14:47.52Z</time></trkpt><trkpt lat="43.5142894" lon="12.369692"><ele>764.0</ele><time>2026-05-01T16:14:48.52Z</time></trkpt><trkpt lat="43.5143826" lon="12.3696655"><ele>764.0</ele><time>2026-05-01T16:14:49.52Z</time></trkpt><trkpt lat="43.5144736" lon="12.3696622"><ele>764.0</ele><time>2026-05-01T16:14:50.52Z</time></trkpt><trkpt lat="43.5145708" lon="12.3696651"><ele>764.0</ele><time>2026-05-01T16:14:51.519Z</time></trkpt><trkpt lat="43.5146661" lon="12.3696738"><ele>762.8333333333333</ele><time>2026-05-01T16:14:52.52Z</time></trkpt><trkpt lat="43.5147513" lon="12.3696803"><ele>761.6666666666666</ele><time>2026-05-01T16:14:53.52Z</time></trkpt><trkpt lat="43.5148362" lon="12.3696835"><ele>760.5</ele><time>2026-05-01T16:14:54.52Z</time></trkpt><trkpt lat="43.5149184" lon="12.3696746"><ele>759.3333333333334</ele><time>2026-05-01T16:14:55.519Z</time></trkpt><trkpt lat="43.5149904" lon="12.3696281"><ele>758.1666666666667</ele><time>2026-05-01T16:14:56.519Z</time></trkpt><trkpt lat="43.5150471" lon="12.3695467"><ele>757.0</ele><time>2026-05-01T16:14:57.52Z</time></trkpt><trkpt lat="43.5150916" lon="12.3694126"><ele>757.0</ele><time>2026-05-01T16:14:58.52Z</time></trkpt><trkpt lat="43.5151166" lon="12.3692685"><ele>757.0</ele><time>2026-05-01T16:14:59.52Z</time></trkpt><trkpt lat="43.5151275" lon="12.3691098"><ele>757.0</ele><time>2026-05-01T16:15:00.52Z</time></trkpt><trkpt lat="43.5151347" lon="12.3689575"><ele>757.0</ele><time>2026-05-01T16:15:01.52Z</time></trkpt><trkpt lat="43.5151492" lon="12.3688329"><ele>757.0</ele><time>2026-05-01T16:15:02.519Z</time></trkpt><trkpt lat="43.5151658" lon="12.3687232"><ele>756.4000000000001</ele><time>2026-05-01T16:15:03.52Z</time></trkpt><trkpt lat="43.5152114" lon="12.368634"><ele>755.8000000000001</ele><time>2026-05-01T16:15:04.52Z</time></trkpt><trkpt lat="43.5152748" lon="12.3685631"><ele>755.2</ele><time>2026-05-01T16:15:05.52Z</time></trkpt><trkpt lat="43.5153613" lon="12.3684924"><ele>754.6</ele><time>2026-05-01T16:15:06.52Z</time></trkpt><trkpt lat="43.5154575" lon="12.3684159"><ele>754.0</ele><time>2026-05-01T16:15:07.52Z</time></trkpt><trkpt lat="43.5155522" lon="12.3683372"><ele>756.8000000000001</ele><time>2026-05-01T16:15:08.52Z</time></trkpt><trkpt lat="43.5156506" lon="12.3682481"><ele>759.6</ele><time>2026-05-01T16:15:09.52Z</time></trkpt><trkpt lat="43.5157312" lon="12.3681555"><ele>762.4</ele><time>2026-05-01T16:15:10.52Z</time></trkpt><trkpt lat="43.5158081" lon="12.3680507"><ele>765.2</ele><time>2026-05-01T16:15:11.52Z</time></trkpt><trkpt lat="43.5158904" lon="12.3679388"><ele>768.0</ele><time>2026-05-01T16:15:12.52Z</time></trkpt><trkpt lat="43.5159806" lon="12.3678182"><ele>768.0</ele><time>2026-05-01T16:15:13.52Z</time></trkpt><trkpt lat="43.5160633" lon="12.3676819"><ele>768.0</ele><time>2026-05-01T16:15:14.52Z</time></trkpt><trkpt lat="43.5161359" lon="12.367526"><ele>768.0</ele><time>2026-05-01T16:15:15.52Z</time></trkpt><trkpt lat="43.5161892" lon="12.3673705"><ele>768.0</ele><time>2026-05-01T16:15:16.52Z</time></trkpt><trkpt lat="43.5162197" lon="12.3672104"><ele>775.0</ele><time>2026-05-01T16:15:17.52Z</time></trkpt><trkpt lat="43.5162379" lon="12.3670462"><ele>782.0</ele><time>2026-05-01T16:15:18.52Z</time></trkpt><trkpt lat="43.5162542" lon="12.36688"><ele>789.0</ele><time>2026-05-01T16:15:19.52Z</time></trkpt><trkpt lat="43.5162771" lon="12.3667141"><ele>796.0</ele><time>2026-05-01T16:15:20.52Z</time></trkpt><trkpt lat="43.516292" lon="12.3665565"><ele>796.0</ele><time>2026-05-01T16:15:21.52Z</time></trkpt><trkpt lat="43.5162856" lon="12.3664053"><ele>796.0</ele><time>2026-05-01T16:15:22.52Z</time></trkpt><trkpt lat="43.5162627" lon="12.3662758"><ele>796.0</ele><time>2026-05-01T16:15:23.519Z</time></trkpt><trkpt lat="43.5162314" lon="12.3661391"><ele>796.0</ele><time>2026-05-01T16:15:24.519Z</time></trkpt><trkpt lat="43.5161877" lon="12.3659965"><ele>796.0</ele><time>2026-05-01T16:15:25.52Z</time></trkpt><trkpt lat="43.5161224" lon="12.3658533"><ele>790.5999999999999</ele><time>2026-05-01T16:15:26.52Z</time></trkpt><trkpt lat="43.5160412" lon="12.3657174"><ele>785.2</ele><time>2026-05-01T16:15:27.52Z</time></trkpt><trkpt lat="43.5159649" lon="12.3656129"><ele>779.8</ele><time>2026-05-01T16:15:28.52Z</time></trkpt><trkpt lat="43.5158952" lon="12.3655246"><ele>774.4000000000001</ele><time>2026-05-01T16:15:29.52Z</time></trkpt><trkpt lat="43.5158479" lon="12.3654363"><ele>769.0</ele><time>2026-05-01T16:15:30.52Z</time></trkpt><trkpt lat="43.5158227" lon="12.3653544"><ele>768.9999999999999</ele><time>2026-05-01T16:15:31.519Z</time></trkpt><trkpt lat="43.5158186" lon="12.3652402"><ele>769.0</ele><time>2026-05-01T16:15:32.52Z</time></trkpt><trkpt lat="43.5158267" lon="12.3651107"><ele>769.0</ele><time>2026-05-01T16:15:33.519Z</time></trkpt><trkpt lat="43.5158478" lon="12.3649877"><ele>769.0</ele><time>2026-05-01T16:15:34.52Z</time></trkpt><trkpt lat="43.5158934" lon="12.3648893"><ele>768.9999999999999</ele><time>2026-05-01T16:15:35.52Z</time></trkpt><trkpt lat="43.5159558" lon="12.3648147"><ele>769.0</ele><time>2026-05-01T16:15:36.52Z</time></trkpt><trkpt lat="43.5160265" lon="12.3647789"><ele>769.0</ele><time>2026-05-01T16:15:37.519Z</time></trkpt><trkpt lat="43.5161176" lon="12.3647552"><ele>769.0</ele><time>2026-05-01T16:15:38.52Z</time></trkpt><trkpt lat="43.5162121" lon="12.3647406"><ele>769.0</ele><time>2026-05-01T16:15:39.519Z</time></trkpt><trkpt lat="43.5163" lon="12.3647217"><ele>769.0</ele><time>2026-05-01T16:15:40.52Z</time></trkpt><trkpt lat="43.5163801" lon="12.3646841"><ele>769.0</ele><time>2026-05-01T16:15:41.519Z</time></trkpt><trkpt lat="43.5164701" lon="12.3646317"><ele>772.4000000000001</ele><time>2026-05-01T16:15:42.52Z</time></trkpt><trkpt lat="43.5165509" lon="12.3645574"><ele>775.8</ele><time>2026-05-01T16:15:43.519Z</time></trkpt><trkpt lat="43.5166122" lon="12.3644666"><ele>779.2</ele><time>2026-05-01T16:15:44.519Z</time></trkpt><trkpt lat="43.5166502" lon="12.3643242"><ele>782.5999999999999</ele><time>2026-05-01T16:15:45.519Z</time></trkpt><trkpt lat="43.5166714" lon="12.3641344"><ele>786.0</ele><time>2026-05-01T16:15:46.519Z</time></trkpt><trkpt lat="43.5166765" lon="12.3639449"><ele>786.0</ele><time>2026-05-01T16:15:47.519Z</time></trkpt><trkpt lat="43.5166792" lon="12.3637598"><ele>786.0</ele><time>2026-05-01T16:15:48.519Z</time></trkpt><trkpt lat="43.5166731" lon="12.3635907"><ele>786.0</ele><time>2026-05-01T16:15:49.52Z</time></trkpt><trkpt lat="43.5166723" lon="12.3634442"><ele>786.0</ele><time>2026-05-01T16:15:50.52Z</time></trkpt><trkpt lat="43.5166548" lon="12.363294"><ele>786.0</ele><time>2026-05-01T16:15:51.52Z</time></trkpt><trkpt lat="43.5166282" lon="12.3631353"><ele>786.0</ele><time>2026-05-01T16:15:52.52Z</time></trkpt><trkpt lat="43.5165909" lon="12.3629908"><ele>786.0</ele><time>2026-05-01T16:15:53.52Z</time></trkpt><trkpt lat="43.5165373" lon="12.3628828"><ele>786.0</ele><time>2026-05-01T16:15:54.519Z</time></trkpt><trkpt lat="43.5164688" lon="12.3627895"><ele>786.0</ele><time>2026-05-01T16:15:55.52Z</time></trkpt><trkpt lat="43.5164006" lon="12.3627111"><ele>786.1666666666666</ele><time>2026-05-01T16:15:56.52Z</time></trkpt><trkpt lat="43.5163361" lon="12.36262"><ele>786.3333333333333</ele><time>2026-05-01T16:15:57.52Z</time></trkpt><trkpt lat="43.5162857" lon="12.3625432"><ele>786.5</ele><time>2026-05-01T16:15:58.52Z</time></trkpt><trkpt lat="43.5162554" lon="12.3624633"><ele>786.6666666666666</ele><time>2026-05-01T16:15:59.52Z</time></trkpt><trkpt lat="43.5162466" lon="12.3623745"><ele>786.8333333333333</ele><time>2026-05-01T16:16:00.52Z</time></trkpt><trkpt lat="43.5162541" lon="12.3622734"><ele>787.0</ele><time>2026-05-01T16:16:01.52Z</time></trkpt><trkpt lat="43.5162781" lon="12.3621624"><ele>785.2</ele><time>2026-05-01T16:16:02.52Z</time></trkpt><trkpt lat="43.5163158" lon="12.3620455"><ele>783.4000000000001</ele><time>2026-05-01T16:16:03.52Z</time></trkpt><trkpt lat="43.5163534" lon="12.361932"><ele>781.5999999999999</ele><time>2026-05-01T16:16:04.52Z</time></trkpt><trkpt lat="43.5163873" lon="12.3618153"><ele>779.8</ele><time>2026-05-01T16:16:05.52Z</time></trkpt><trkpt lat="43.5164229" lon="12.3616948"><ele>778.0</ele><time>2026-05-01T16:16:06.52Z</time></trkpt><trkpt lat="43.5164503" lon="12.3615628"><ele>778.0</ele><time>2026-05-01T16:16:07.52Z</time></trkpt><trkpt lat="43.5164693" lon="12.3614278"><ele>778.0</ele><time>2026-05-01T16:16:08.52Z</time></trkpt><trkpt lat="43.5164789" lon="12.3612966"><ele>778.0</ele><time>2026-05-01T16:16:09.519Z</time></trkpt><trkpt lat="43.5164831" lon="12.3611748"><ele>778.0</ele><time>2026-05-01T16:16:10.519Z</time></trkpt><trkpt lat="43.5164691" lon="12.3610448"><ele>778.0</ele><time>2026-05-01T16:16:11.52Z</time></trkpt><trkpt lat="43.5164452" lon="12.3609017"><ele>776.5999999999999</ele><time>2026-05-01T16:16:12.52Z</time></trkpt><trkpt lat="43.516411" lon="12.3607665"><ele>775.1999999999999</ele><time>2026-05-01T16:16:13.52Z</time></trkpt><trkpt lat="43.5163789" lon="12.3606294"><ele>773.8</ele><time>2026-05-01T16:16:14.52Z</time></trkpt><trkpt lat="43.5163456" lon="12.3605014"><ele>772.4</ele><time>2026-05-01T16:16:15.52Z</time></trkpt><trkpt lat="43.5163018" lon="12.3603859"><ele>771.0</ele><time>2026-05-01T16:16:16.52Z</time></trkpt><trkpt lat="43.5162503" lon="12.3602786"><ele>769.1666666666666</ele><time>2026-05-01T16:16:17.52Z</time></trkpt><trkpt lat="43.5161841" lon="12.3601999"><ele>767.3333333333334</ele><time>2026-05-01T16:16:18.52Z</time></trkpt><trkpt lat="43.5161177" lon="12.3601231"><ele>765.5</ele><time>2026-05-01T16:16:19.519Z</time></trkpt><trkpt lat="43.5160528" lon="12.3600402"><ele>763.6666666666667</ele><time>2026-05-01T16:16:20.52Z</time></trkpt><trkpt lat="43.5159895" lon="12.3599437"><ele>761.8333333333334</ele><time>2026-05-01T16:16:21.519Z</time></trkpt><trkpt lat="43.5159288" lon="12.3598517"><ele>760.0</ele><time>2026-05-01T16:16:22.52Z</time></trkpt><trkpt lat="43.5158762" lon="12.3597453"><ele>759.6</ele><time>2026-05-01T16:16:23.519Z</time></trkpt><trkpt lat="43.5158191" lon="12.359635"><ele>759.2</ele><time>2026-05-01T16:16:24.519Z</time></trkpt><trkpt lat="43.5157542" lon="12.3595188"><ele>758.8</ele><time>2026-05-01T16:16:25.519Z</time></trkpt><trkpt lat="43.5156874" lon="12.3594044"><ele>758.4</ele><time>2026-05-01T16:16:26.519Z</time></trkpt><trkpt lat="43.5156259" lon="12.3592796"><ele>758.0</ele><time>2026-05-01T16:16:27.52Z</time></trkpt><trkpt lat="43.5155678" lon="12.3591605"><ele>758.0</ele><time>2026-05-01T16:16:28.52Z</time></trkpt><trkpt lat="43.5155176" lon="12.3590343"><ele>758.0</ele><time>2026-05-01T16:16:29.52Z</time></trkpt><trkpt lat="43.5154773" lon="12.3589073"><ele>758.0</ele><time>2026-05-01T16:16:30.52Z</time></trkpt><trkpt lat="43.5154557" lon="12.3587764"><ele>758.0</ele><time>2026-05-01T16:16:31.52Z</time></trkpt><trkpt lat="43.5154515" lon="12.3586487"><ele>758.0</ele><time>2026-05-01T16:16:32.52Z</time></trkpt><trkpt lat="43.515455" lon="12.358522"><ele>756.5</ele><time>2026-05-01T16:16:33.52Z</time></trkpt><trkpt lat="43.5154588" lon="12.3584095"><ele>755.0</ele><time>2026-05-01T16:16:34.519Z</time></trkpt><trkpt lat="43.5154647" lon="12.3582956"><ele>753.5</ele><time>2026-05-01T16:16:35.52Z</time></trkpt><trkpt lat="43.5154663" lon="12.3581805"><ele>752.0</ele><time>2026-05-01T16:16:36.52Z</time></trkpt><trkpt lat="43.5154831" lon="12.3580687"><ele>750.5</ele><time>2026-05-01T16:16:37.52Z</time></trkpt><trkpt lat="43.5155192" lon="12.3579651"><ele>749.0</ele><time>2026-05-01T16:16:38.52Z</time></trkpt><trkpt lat="43.5155776" lon="12.3578542"><ele>746.4000000000001</ele><time>2026-05-01T16:16:39.52Z</time></trkpt><trkpt lat="43.5156536" lon="12.3577354"><ele>743.8</ele><time>2026-05-01T16:16:40.519Z</time></trkpt><trkpt lat="43.5157229" lon="12.3576234"><ele>741.2</ele><time>2026-05-01T16:16:41.52Z</time></trkpt><trkpt lat="43.5157848" lon="12.3575031"><ele>738.5999999999999</ele><time>2026-05-01T16:16:42.52Z</time></trkpt><trkpt lat="43.5158316" lon="12.3573956"><ele>736.0</ele><time>2026-05-01T16:16:43.52Z</time></trkpt><trkpt lat="43.5158597" lon="12.3572812"><ele>735.5999999999999</ele><time>2026-05-01T16:16:45.519Z</time></trkpt><trkpt lat="43.5158436" lon="12.3571742"><ele>735.2</ele><time>2026-05-01T16:16:47.52Z</time></trkpt><trkpt lat="43.5158063" lon="12.357085"><ele>734.8</ele><time>2026-05-01T16:16:48.519Z</time></trkpt><trkpt lat="43.5157556" lon="12.3569719"><ele>734.4000000000001</ele><time>2026-05-01T16:16:49.52Z</time></trkpt><trkpt lat="43.5157115" lon="12.3568457"><ele>734.0</ele><time>2026-05-01T16:16:50.52Z</time></trkpt><trkpt lat="43.5156753" lon="12.3567192"><ele>734.0</ele><time>2026-05-01T16:16:51.52Z</time></trkpt><trkpt lat="43.5156393" lon="12.3565815"><ele>734.0</ele><time>2026-05-01T16:16:52.519Z</time></trkpt><trkpt lat="43.5156237" lon="12.3564487"><ele>734.0</ele><time>2026-05-01T16:16:53.52Z</time></trkpt><trkpt lat="43.5156197" lon="12.3563181"><ele>734.0</ele><time>2026-05-01T16:16:54.519Z</time></trkpt><trkpt lat="43.5156404" lon="12.3561744"><ele>734.0</ele><time>2026-05-01T16:16:55.52Z</time></trkpt><trkpt lat="43.5156719" lon="12.3560484"><ele>733.2</ele><time>2026-05-01T16:16:56.519Z</time></trkpt><trkpt lat="43.5157256" lon="12.3559466"><ele>732.4000000000001</ele><time>2026-05-01T16:16:57.52Z</time></trkpt><trkpt lat="43.5157865" lon="12.3558392"><ele>731.6</ele><time>2026-05-01T16:16:58.52Z</time></trkpt><trkpt lat="43.5158497" lon="12.3557166"><ele>730.8</ele><time>2026-05-01T16:16:59.52Z</time></trkpt><trkpt lat="43.515912" lon="12.3555772"><ele>730.0</ele><time>2026-05-01T16:17:00.52Z</time></trkpt><trkpt lat="43.515973" lon="12.3554388"><ele>730.25</ele><time>2026-05-01T16:17:01.52Z</time></trkpt><trkpt lat="43.5160175" lon="12.3552761"><ele>730.5</ele><time>2026-05-01T16:17:02.52Z</time></trkpt><trkpt lat="43.5160395" lon="12.3550837"><ele>730.75</ele><time>2026-05-01T16:17:03.519Z</time></trkpt><trkpt lat="43.5160353" lon="12.3548838"><ele>731.0</ele><time>2026-05-01T16:17:04.52Z</time></trkpt><trkpt lat="43.5160229" lon="12.3546854"><ele>731.0</ele><time>2026-05-01T16:17:05.52Z</time></trkpt><trkpt lat="43.5160166" lon="12.3544623"><ele>731.0</ele><time>2026-05-01T16:17:06.52Z</time></trkpt><trkpt lat="43.5160405" lon="12.354257"><ele>731.0</ele><time>2026-05-01T16:17:07.519Z</time></trkpt><trkpt lat="43.5160832" lon="12.354051"><ele>734.5</ele><time>2026-05-01T16:17:08.519Z</time></trkpt><trkpt lat="43.5161283" lon="12.3538463"><ele>738.0</ele><time>2026-05-01T16:17:09.52Z</time></trkpt><trkpt lat="43.5161343" lon="12.3536468"><ele>741.5</ele><time>2026-05-01T16:17:10.52Z</time></trkpt><trkpt lat="43.5160983" lon="12.3534548"><ele>745.0</ele><time>2026-05-01T16:17:11.52Z</time></trkpt><trkpt lat="43.51602" lon="12.3532934"><ele>745.0</ele><time>2026-05-01T16:17:12.52Z</time></trkpt><trkpt lat="43.5158915" lon="12.3531669"><ele>745.0</ele><time>2026-05-01T16:17:13.519Z</time></trkpt><trkpt lat="43.5157367" lon="12.3530913"><ele>745.0</ele><time>2026-05-01T16:17:14.52Z</time></trkpt><trkpt lat="43.5155799" lon="12.3530909"><ele>745.0</ele><time>2026-05-01T16:17:15.52Z</time></trkpt><trkpt lat="43.5154138" lon="12.3531423"><ele>745.0</ele><time>2026-05-01T16:17:16.519Z</time></trkpt><trkpt lat="43.5152459" lon="12.3532251"><ele>745.0</ele><time>2026-05-01T16:17:17.519Z</time></trkpt><trkpt lat="43.515083" lon="12.3533269"><ele>745.3333333333334</ele><time>2026-05-01T16:17:18.519Z</time></trkpt><trkpt lat="43.5149081" lon="12.3534377"><ele>745.6666666666666</ele><time>2026-05-01T16:17:19.519Z</time></trkpt><trkpt lat="43.5147392" lon="12.353543"><ele>746.0</ele><time>2026-05-01T16:17:20.52Z</time></trkpt><trkpt lat="43.5145585" lon="12.3535977"><ele>747.3333333333333</ele><time>2026-05-01T16:17:21.52Z</time></trkpt><trkpt lat="43.5143789" lon="12.353593"><ele>748.6666666666666</ele><time>2026-05-01T16:17:22.52Z</time></trkpt><trkpt lat="43.5142066" lon="12.3535796"><ele>750.0</ele><time>2026-05-01T16:17:23.52Z</time></trkpt><trkpt lat="43.5140422" lon="12.3535656"><ele>750.0</ele><time>2026-05-01T16:17:24.52Z</time></trkpt><trkpt lat="43.5138733" lon="12.3535392"><ele>750.0</ele><time>2026-05-01T16:17:25.519Z</time></trkpt><trkpt lat="43.5137059" lon="12.3534976"><ele>750.0</ele><time>2026-05-01T16:17:26.52Z</time></trkpt><trkpt lat="43.5135451" lon="12.3534371"><ele>746.25</ele><time>2026-05-01T16:17:27.52Z</time></trkpt><trkpt lat="43.5133983" lon="12.3533653"><ele>742.5</ele><time>2026-05-01T16:17:28.519Z</time></trkpt><trkpt lat="43.5132602" lon="12.3532854"><ele>738.75</ele><time>2026-05-01T16:17:29.519Z</time></trkpt><trkpt lat="43.5131411" lon="12.3531911"><ele>735.0</ele><time>2026-05-01T16:17:30.519Z</time></trkpt><trkpt lat="43.5130367" lon="12.3530776"><ele>732.0</ele><time>2026-05-01T16:17:31.519Z</time></trkpt><trkpt lat="43.5129633" lon="12.3529271"><ele>729.0</ele><time>2026-05-01T16:17:32.52Z</time></trkpt><trkpt lat="43.5129026" lon="12.3527393"><ele>726.0</ele><time>2026-05-01T16:17:33.52Z</time></trkpt><trkpt lat="43.5128477" lon="12.3525475"><ele>723.0</ele><time>2026-05-01T16:17:34.519Z</time></trkpt><trkpt lat="43.5127723" lon="12.3523533"><ele>727.6666666666666</ele><time>2026-05-01T16:17:35.52Z</time></trkpt><trkpt lat="43.5126765" lon="12.352189"><ele>732.3333333333333</ele><time>2026-05-01T16:17:36.52Z</time></trkpt><trkpt lat="43.5125545" lon="12.3520321"><ele>737.0</ele><time>2026-05-01T16:17:37.519Z</time></trkpt><trkpt lat="43.5124386" lon="12.3519143"><ele>737.0</ele><time>2026-05-01T16:17:38.52Z</time></trkpt><trkpt lat="43.512331" lon="12.3518003"><ele>737.0</ele><time>2026-05-01T16:17:39.52Z</time></trkpt><trkpt lat="43.5122452" lon="12.3516688"><ele>737.0</ele><time>2026-05-01T16:17:40.52Z</time></trkpt><trkpt lat="43.5121917" lon="12.3515031"><ele>737.0</ele><time>2026-05-01T16:17:41.52Z</time></trkpt><trkpt lat="43.5121804" lon="12.3513277"><ele>737.5</ele><time>2026-05-01T16:17:42.52Z</time></trkpt><trkpt lat="43.5121913" lon="12.3511282"><ele>738.0</ele><time>2026-05-01T16:17:43.519Z</time></trkpt><trkpt lat="43.5122076" lon="12.3509298"><ele>738.5</ele><time>2026-05-01T16:17:44.52Z</time></trkpt><trkpt lat="43.5122202" lon="12.3507341"><ele>739.0</ele><time>2026-05-01T16:17:45.52Z</time></trkpt><trkpt lat="43.5122159" lon="12.3505384"><ele>735.0</ele><time>2026-05-01T16:17:46.52Z</time></trkpt><trkpt lat="43.5121908" lon="12.350336"><ele>731.0</ele><time>2026-05-01T16:17:47.519Z</time></trkpt><trkpt lat="43.5121161" lon="12.3501367"><ele>727.0</ele><time>2026-05-01T16:17:48.519Z</time></trkpt><trkpt lat="43.5120165" lon="12.3499569"><ele>725.25</ele><time>2026-05-01T16:17:49.52Z</time></trkpt><trkpt lat="43.5119145" lon="12.3498044"><ele>723.5</ele><time>2026-05-01T16:17:50.52Z</time></trkpt><trkpt lat="43.5118138" lon="12.349654"><ele>721.75</ele><time>2026-05-01T16:17:51.519Z</time></trkpt><trkpt lat="43.5117298" lon="12.3494871"><ele>720.0</ele><time>2026-05-01T16:17:52.52Z</time></trkpt><trkpt lat="43.5116693" lon="12.3493168"><ele>720.0</ele><time>2026-05-01T16:17:53.52Z</time></trkpt><trkpt lat="43.5116331" lon="12.3491459"><ele>720.0</ele><time>2026-05-01T16:17:54.52Z</time></trkpt><trkpt lat="43.5116357" lon="12.3489875"><ele>720.0</ele><time>2026-05-01T16:17:55.519Z</time></trkpt><trkpt lat="43.5116813" lon="12.3488957"><ele>720.0</ele><time>2026-05-01T16:17:56.52Z</time></trkpt><trkpt lat="43.511771" lon="12.348869"><ele>720.0</ele><time>2026-05-01T16:17:57.52Z</time></trkpt><trkpt lat="43.5118534" lon="12.3489015"><ele>720.0</ele><time>2026-05-01T16:17:58.52Z</time></trkpt><trkpt lat="43.5119463" lon="12.3489792"><ele>720.0</ele><time>2026-05-01T16:17:59.52Z</time></trkpt><trkpt lat="43.5120427" lon="12.349072"><ele>720.0</ele><time>2026-05-01T16:18:00.519Z</time></trkpt><trkpt lat="43.5121492" lon="12.3491796"><ele>720.0</ele><time>2026-05-01T16:18:01.52Z</time></trkpt><trkpt lat="43.5122612" lon="12.3492967"><ele>721.75</ele><time>2026-05-01T16:18:02.52Z</time></trkpt><trkpt lat="43.5123721" lon="12.3494208"><ele>723.5</ele><time>2026-05-01T16:18:03.52Z</time></trkpt><trkpt lat="43.5124749" lon="12.3495618"><ele>725.25</ele><time>2026-05-01T16:18:04.52Z</time></trkpt><trkpt lat="43.5125674" lon="12.3497094"><ele>727.0</ele><time>2026-05-01T16:18:05.52Z</time></trkpt><trkpt lat="43.5126654" lon="12.3498524"><ele>727.0</ele><time>2026-05-01T16:18:06.52Z</time></trkpt><trkpt lat="43.5127834" lon="12.3499671"><ele>727.0</ele><time>2026-05-01T16:18:07.52Z</time></trkpt><trkpt lat="43.5129241" lon="12.35006"><ele>727.0</ele><time>2026-05-01T16:18:08.519Z</time></trkpt><trkpt lat="43.5130841" lon="12.3501332"><ele>725.6666666666667</ele><time>2026-05-01T16:18:09.519Z</time></trkpt><trkpt lat="43.5132553" lon="12.350168"><ele>724.3333333333334</ele><time>2026-05-01T16:18:10.52Z</time></trkpt><trkpt lat="43.5134206" lon="12.3501862"><ele>723.0</ele><time>2026-05-01T16:18:11.52Z</time></trkpt><trkpt lat="43.5135723" lon="12.3502016"><ele>723.0</ele><time>2026-05-01T16:18:12.52Z</time></trkpt><trkpt lat="43.5137167" lon="12.3502189"><ele>723.0</ele><time>2026-05-01T16:18:13.52Z</time></trkpt><trkpt lat="43.5138417" lon="12.3502204"><ele>723.0</ele><time>2026-05-01T16:18:14.52Z</time></trkpt><trkpt lat="43.5139597" lon="12.3501809"><ele>723.0</ele><time>2026-05-01T16:18:15.52Z</time></trkpt><trkpt lat="43.5140509" lon="12.350069"><ele>723.5</ele><time>2026-05-01T16:18:16.519Z</time></trkpt><trkpt lat="43.5141249" lon="12.3499083"><ele>724.0</ele><time>2026-05-01T16:18:17.519Z</time></trkpt><trkpt lat="43.5141558" lon="12.3497341"><ele>724.5</ele><time>2026-05-01T16:18:18.52Z</time></trkpt><trkpt lat="43.5141568" lon="12.3495297"><ele>725.0</ele><time>2026-05-01T16:18:19.52Z</time></trkpt><trkpt lat="43.5141373" lon="12.34931"><ele>725.0</ele><time>2026-05-01T16:18:20.519Z</time></trkpt><trkpt lat="43.514137" lon="12.3490816"><ele>725.0</ele><time>2026-05-01T16:18:21.52Z</time></trkpt><trkpt lat="43.5141535" lon="12.3488523"><ele>725.0</ele><time>2026-05-01T16:18:22.52Z</time></trkpt><trkpt lat="43.5141675" lon="12.34862"><ele>724.5</ele><time>2026-05-01T16:18:23.52Z</time></trkpt><trkpt lat="43.514168" lon="12.3484051"><ele>724.0</ele><time>2026-05-01T16:18:24.52Z</time></trkpt><trkpt lat="43.5141364" lon="12.3482074"><ele>723.5</ele><time>2026-05-01T16:18:25.52Z</time></trkpt><trkpt lat="43.5140868" lon="12.3480333"><ele>723.0</ele><time>2026-05-01T16:18:26.52Z</time></trkpt><trkpt lat="43.5140702" lon="12.3478718"><ele>722.0</ele><time>2026-05-01T16:18:27.519Z</time></trkpt><trkpt lat="43.5141029" lon="12.3477357"><ele>721.0</ele><time>2026-05-01T16:18:28.52Z</time></trkpt><trkpt lat="43.5141798" lon="12.3476522"><ele>720.0</ele><time>2026-05-01T16:18:29.52Z</time></trkpt><trkpt lat="43.5142846" lon="12.3476038"><ele>719.0</ele><time>2026-05-01T16:18:30.52Z</time></trkpt><trkpt lat="43.5143989" lon="12.3475789"><ele>718.0</ele><time>2026-05-01T16:18:31.52Z</time></trkpt><trkpt lat="43.5145287" lon="12.3475513"><ele>718.75</ele><time>2026-05-01T16:18:32.52Z</time></trkpt><trkpt lat="43.5146654" lon="12.3475284"><ele>719.5</ele><time>2026-05-01T16:18:33.52Z</time></trkpt><trkpt lat="43.5148059" lon="12.3475085"><ele>720.25</ele><time>2026-05-01T16:18:34.52Z</time></trkpt><trkpt lat="43.5149508" lon="12.3474961"><ele>721.0</ele><time>2026-05-01T16:18:35.52Z</time></trkpt><trkpt lat="43.5150972" lon="12.3475112"><ele>721.0</ele><time>2026-05-01T16:18:36.519Z</time></trkpt><trkpt lat="43.5152388" lon="12.3475614"><ele>721.0</ele><time>2026-05-01T16:18:37.52Z</time></trkpt><trkpt lat="43.5153902" lon="12.3476187"><ele>721.0</ele><time>2026-05-01T16:18:38.52Z</time></trkpt><trkpt lat="43.5155472" lon="12.3476672"><ele>719.3333333333334</ele><time>2026-05-01T16:18:39.52Z</time></trkpt><trkpt lat="43.5157044" lon="12.3476888"><ele>717.6666666666666</ele><time>2026-05-01T16:18:40.52Z</time></trkpt><trkpt lat="43.5158636" lon="12.347695"><ele>716.0</ele><time>2026-05-01T16:18:41.52Z</time></trkpt><trkpt lat="43.5160192" lon="12.3477095"><ele>716.0</ele><time>2026-05-01T16:18:42.52Z</time></trkpt><trkpt lat="43.5161694" lon="12.3477261"><ele>716.0</ele><time>2026-05-01T16:18:43.519Z</time></trkpt><trkpt lat="43.5163062" lon="12.347745"><ele>716.0</ele><time>2026-05-01T16:18:44.519Z</time></trkpt><trkpt lat="43.5164324" lon="12.3477696"><ele>716.0</ele><time>2026-05-01T16:18:45.52Z</time></trkpt><trkpt lat="43.5165381" lon="12.3478329"><ele>713.25</ele><time>2026-05-01T16:18:46.52Z</time></trkpt><trkpt lat="43.5166269" lon="12.3479551"><ele>710.5</ele><time>2026-05-01T16:18:47.52Z</time></trkpt><trkpt lat="43.5167004" lon="12.3481273"><ele>707.75</ele><time>2026-05-01T16:18:48.52Z</time></trkpt><trkpt lat="43.5167706" lon="12.3482959"><ele>705.0</ele><time>2026-05-01T16:18:49.519Z</time></trkpt><trkpt lat="43.5168481" lon="12.3484419"><ele>708.0</ele><time>2026-05-01T16:18:50.52Z</time></trkpt><trkpt lat="43.5169382" lon="12.348549"><ele>711.0</ele><time>2026-05-01T16:18:51.52Z</time></trkpt><trkpt lat="43.517047" lon="12.3486405"><ele>714.0</ele><time>2026-05-01T16:18:52.519Z</time></trkpt><trkpt lat="43.5171821" lon="12.3486678"><ele>717.0</ele><time>2026-05-01T16:18:53.52Z</time></trkpt><trkpt lat="43.5173267" lon="12.3486305"><ele>717.0</ele><time>2026-05-01T16:18:54.52Z</time></trkpt><trkpt lat="43.5174588" lon="12.3485393"><ele>717.0</ele><time>2026-05-01T16:18:55.52Z</time></trkpt><trkpt lat="43.5175764" lon="12.3484414"><ele>717.0</ele><time>2026-05-01T16:18:56.52Z</time></trkpt><trkpt lat="43.5176915" lon="12.3483111"><ele>717.0</ele><time>2026-05-01T16:18:57.52Z</time></trkpt><trkpt lat="43.5177746" lon="12.348145"><ele>711.3333333333334</ele><time>2026-05-01T16:18:58.52Z</time></trkpt><trkpt lat="43.517839" lon="12.3479464"><ele>705.6666666666667</ele><time>2026-05-01T16:18:59.519Z</time></trkpt><trkpt lat="43.5178703" lon="12.3477375"><ele>700.0</ele><time>2026-05-01T16:19:00.52Z</time></trkpt><trkpt lat="43.5178832" lon="12.3475315"><ele>700.75</ele><time>2026-05-01T16:19:01.519Z</time></trkpt><trkpt lat="43.5179204" lon="12.3473495"><ele>701.5</ele><time>2026-05-01T16:19:02.52Z</time></trkpt><trkpt lat="43.51801" lon="12.3472044"><ele>702.25</ele><time>2026-05-01T16:19:03.519Z</time></trkpt><trkpt lat="43.518136" lon="12.3470921"><ele>703.0</ele><time>2026-05-01T16:19:04.519Z</time></trkpt><trkpt lat="43.518273" lon="12.3469809"><ele>703.0</ele><time>2026-05-01T16:19:05.519Z</time></trkpt><trkpt lat="43.5184183" lon="12.3468554"><ele>703.0</ele><time>2026-05-01T16:19:06.52Z</time></trkpt><trkpt lat="43.5185593" lon="12.3467336"><ele>703.0</ele><time>2026-05-01T16:19:07.52Z</time></trkpt><trkpt lat="43.518691" lon="12.3466181"><ele>708.5</ele><time>2026-05-01T16:19:08.52Z</time></trkpt><trkpt lat="43.5188142" lon="12.3465171"><ele>714.0</ele><time>2026-05-01T16:19:09.52Z</time></trkpt><trkpt lat="43.518924" lon="12.3464176"><ele>719.5</ele><time>2026-05-01T16:19:10.52Z</time></trkpt><trkpt lat="43.5190172" lon="12.3463112"><ele>725.0</ele><time>2026-05-01T16:19:11.519Z</time></trkpt><trkpt lat="43.5190751" lon="12.3461721"><ele>725.0</ele><time>2026-05-01T16:19:12.519Z</time></trkpt><trkpt lat="43.5190811" lon="12.3460084"><ele>725.0</ele><time>2026-05-01T16:19:13.52Z</time></trkpt><trkpt lat="43.519042" lon="12.3458382"><ele>725.0</ele><time>2026-05-01T16:19:14.519Z</time></trkpt><trkpt lat="43.5189791" lon="12.3456634"><ele>725.0</ele><time>2026-05-01T16:19:15.52Z</time></trkpt><trkpt lat="43.5189058" lon="12.3454945"><ele>728.0</ele><time>2026-05-01T16:19:16.52Z</time></trkpt><trkpt lat="43.5188283" lon="12.3453052"><ele>731.0</ele><time>2026-05-01T16:19:17.52Z</time></trkpt><trkpt lat="43.5187618" lon="12.3451162"><ele>734.0</ele><time>2026-05-01T16:19:18.52Z</time></trkpt><trkpt lat="43.5186992" lon="12.3449259"><ele>723.75</ele><time>2026-05-01T16:19:19.52Z</time></trkpt><trkpt lat="43.5186494" lon="12.3447403"><ele>713.5</ele><time>2026-05-01T16:19:20.52Z</time></trkpt><trkpt lat="43.518611" lon="12.3445477"><ele>703.25</ele><time>2026-05-01T16:19:21.52Z</time></trkpt><trkpt lat="43.5185855" lon="12.3443494"><ele>693.0</ele><time>2026-05-01T16:19:22.52Z</time></trkpt><trkpt lat="43.5185906" lon="12.3441515"><ele>693.0</ele><time>2026-05-01T16:19:23.519Z</time></trkpt><trkpt lat="43.5186243" lon="12.3439655"><ele>693.0</ele><time>2026-05-01T16:19:24.519Z</time></trkpt><trkpt lat="43.5186807" lon="12.3437947"><ele>693.0</ele><time>2026-05-01T16:19:25.52Z</time></trkpt><trkpt lat="43.5187317" lon="12.3436324"><ele>693.0</ele><time>2026-05-01T16:19:26.52Z</time></trkpt><trkpt lat="43.5187524" lon="12.3434783"><ele>693.0</ele><time>2026-05-01T16:19:27.519Z</time></trkpt><trkpt lat="43.5187257" lon="12.3433147"><ele>693.0</ele><time>2026-05-01T16:19:28.52Z</time></trkpt><trkpt lat="43.5186772" lon="12.3431538"><ele>693.0</ele><time>2026-05-01T16:19:29.52Z</time></trkpt><trkpt lat="43.5186132" lon="12.3430007"><ele>693.0</ele><time>2026-05-01T16:19:30.52Z</time></trkpt><trkpt lat="43.518561" lon="12.3428294"><ele>693.0</ele><time>2026-05-01T16:19:31.52Z</time></trkpt><trkpt lat="43.5185354" lon="12.3426501"><ele>693.0</ele><time>2026-05-01T16:19:32.52Z</time></trkpt><trkpt lat="43.518533" lon="12.3424711"><ele>693.0</ele><time>2026-05-01T16:19:33.52Z</time></trkpt><trkpt lat="43.5185728" lon="12.3423004"><ele>693.0</ele><time>2026-05-01T16:19:34.519Z</time></trkpt><trkpt lat="43.5186334" lon="12.3421466"><ele>691.5</ele><time>2026-05-01T16:19:35.52Z</time></trkpt><trkpt lat="43.5187179" lon="12.3420035"><ele>690.0</ele><time>2026-05-01T16:19:36.52Z</time></trkpt><trkpt lat="43.5188087" lon="12.3418708"><ele>688.5</ele><time>2026-05-01T16:19:37.52Z</time></trkpt><trkpt lat="43.5188976" lon="12.3417452"><ele>687.0</ele><time>2026-05-01T16:19:38.52Z</time></trkpt><trkpt lat="43.5189797" lon="12.3416225"><ele>693.75</ele><time>2026-05-01T16:19:39.52Z</time></trkpt><trkpt lat="43.5190338" lon="12.3414807"><ele>700.5</ele><time>2026-05-01T16:19:40.519Z</time></trkpt><trkpt lat="43.5190576" lon="12.3413225"><ele>707.25</ele><time>2026-05-01T16:19:41.519Z</time></trkpt><trkpt lat="43.5190562" lon="12.341157"><ele>714.0</ele><time>2026-05-01T16:19:42.52Z</time></trkpt><trkpt lat="43.5190282" lon="12.3409823"><ele>715.3333333333334</ele><time>2026-05-01T16:19:43.52Z</time></trkpt><trkpt lat="43.5189197" lon="12.3408133"><ele>716.6666666666667</ele><time>2026-05-01T16:19:44.519Z</time></trkpt><trkpt lat="43.5187729" lon="12.3406783"><ele>718.0</ele><time>2026-05-01T16:19:45.519Z</time></trkpt><trkpt lat="43.5186305" lon="12.3405643"><ele>722.3333333333334</ele><time>2026-05-01T16:19:46.52Z</time></trkpt><trkpt lat="43.5184795" lon="12.3404646"><ele>726.6666666666666</ele><time>2026-05-01T16:19:47.52Z</time></trkpt><trkpt lat="43.518322" lon="12.3403729"><ele>731.0</ele><time>2026-05-01T16:19:48.52Z</time></trkpt><trkpt lat="43.5181682" lon="12.3403077"><ele>731.0</ele><time>2026-05-01T16:19:49.52Z</time></trkpt><trkpt lat="43.5180055" lon="12.3402638"><ele>731.0</ele><time>2026-05-01T16:19:50.519Z</time></trkpt><trkpt lat="43.5178454" lon="12.3402481"><ele>731.0</ele><time>2026-05-01T16:19:51.52Z</time></trkpt><trkpt lat="43.5176867" lon="12.340259"><ele>728.0</ele><time>2026-05-01T16:19:52.519Z</time></trkpt><trkpt lat="43.5175285" lon="12.3402892"><ele>725.0</ele><time>2026-05-01T16:19:53.52Z</time></trkpt><trkpt lat="43.517379" lon="12.340301"><ele>722.0</ele><time>2026-05-01T16:19:54.52Z</time></trkpt><trkpt lat="43.5172357" lon="12.3402927"><ele>722.0</ele><time>2026-05-01T16:19:55.519Z</time></trkpt><trkpt lat="43.5170917" lon="12.3402657"><ele>722.0</ele><time>2026-05-01T16:19:56.52Z</time></trkpt><trkpt lat="43.5169426" lon="12.3402078"><ele>722.0</ele><time>2026-05-01T16:19:57.52Z</time></trkpt><trkpt lat="43.5167887" lon="12.3401181"><ele>717.0</ele><time>2026-05-01T16:19:58.519Z</time></trkpt><trkpt lat="43.5166374" lon="12.3400269"><ele>712.0</ele><time>2026-05-01T16:19:59.519Z</time></trkpt><trkpt lat="43.5164847" lon="12.339927"><ele>707.0</ele><time>2026-05-01T16:20:00.52Z</time></trkpt><trkpt lat="43.5163419" lon="12.3398406"><ele>705.5</ele><time>2026-05-01T16:20:01.519Z</time></trkpt><trkpt lat="43.5162031" lon="12.3397677"><ele>704.0</ele><time>2026-05-01T16:20:02.52Z</time></trkpt><trkpt lat="43.5160685" lon="12.3396891"><ele>702.5</ele><time>2026-05-01T16:20:03.52Z</time></trkpt><trkpt lat="43.5159472" lon="12.339613"><ele>701.0</ele><time>2026-05-01T16:20:04.52Z</time></trkpt><trkpt lat="43.5158386" lon="12.3395281"><ele>701.0</ele><time>2026-05-01T16:20:05.519Z</time></trkpt><trkpt lat="43.5157518" lon="12.3394204"><ele>701.0</ele><time>2026-05-01T16:20:06.52Z</time></trkpt><trkpt lat="43.5156862" lon="12.3392932"><ele>701.0</ele><time>2026-05-01T16:20:07.519Z</time></trkpt><trkpt lat="43.5156454" lon="12.3391379"><ele>701.0</ele><time>2026-05-01T16:20:08.52Z</time></trkpt><trkpt lat="43.515626" lon="12.3389638"><ele>699.25</ele><time>2026-05-01T16:20:09.519Z</time></trkpt><trkpt lat="43.5156528" lon="12.3388083"><ele>697.5</ele><time>2026-05-01T16:20:10.52Z</time></trkpt><trkpt lat="43.5157242" lon="12.3386735"><ele>695.75</ele><time>2026-05-01T16:20:11.519Z</time></trkpt><trkpt lat="43.5158144" lon="12.3385674"><ele>694.0</ele><time>2026-05-01T16:20:12.519Z</time></trkpt><trkpt lat="43.5159253" lon="12.338459"><ele>694.0</ele><time>2026-05-01T16:20:13.52Z</time></trkpt><trkpt lat="43.5160578" lon="12.3383594"><ele>694.0</ele><time>2026-05-01T16:20:14.52Z</time></trkpt><trkpt lat="43.5161818" lon="12.3382774"><ele>694.0</ele><time>2026-05-01T16:20:15.52Z</time></trkpt><trkpt lat="43.5163174" lon="12.3381937"><ele>694.0</ele><time>2026-05-01T16:20:16.52Z</time></trkpt><trkpt lat="43.5164523" lon="12.338104"><ele>692.3333333333334</ele><time>2026-05-01T16:20:17.52Z</time></trkpt><trkpt lat="43.5165922" lon="12.3380103"><ele>690.6666666666666</ele><time>2026-05-01T16:20:18.52Z</time></trkpt><trkpt lat="43.5167285" lon="12.3379125"><ele>689.0</ele><time>2026-05-01T16:20:19.52Z</time></trkpt><trkpt lat="43.5168663" lon="12.3378127"><ele>689.0</ele><time>2026-05-01T16:20:20.52Z</time></trkpt><trkpt lat="43.5170011" lon="12.3377086"><ele>689.0</ele><time>2026-05-01T16:20:21.52Z</time></trkpt><trkpt lat="43.5171306" lon="12.3375872"><ele>689.0</ele><time>2026-05-01T16:20:22.52Z</time></trkpt><trkpt lat="43.5172554" lon="12.3374453"><ele>688.6666666666666</ele><time>2026-05-01T16:20:23.52Z</time></trkpt><trkpt lat="43.5173842" lon="12.3373017"><ele>688.3333333333334</ele><time>2026-05-01T16:20:24.519Z</time></trkpt><trkpt lat="43.5175047" lon="12.3371654"><ele>688.0</ele><time>2026-05-01T16:20:25.52Z</time></trkpt><trkpt lat="43.5176218" lon="12.3370328"><ele>688.0</ele><time>2026-05-01T16:20:26.519Z</time></trkpt><trkpt lat="43.5177258" lon="12.3369092"><ele>688.0</ele><time>2026-05-01T16:20:27.519Z</time></trkpt><trkpt lat="43.5178264" lon="12.3367855"><ele>688.0</ele><time>2026-05-01T16:20:28.52Z</time></trkpt><trkpt lat="43.5179108" lon="12.3366338"><ele>688.0</ele><time>2026-05-01T16:20:29.52Z</time></trkpt><trkpt lat="43.5179752" lon="12.3364692"><ele>691.75</ele><time>2026-05-01T16:20:30.519Z</time></trkpt><trkpt lat="43.5180201" lon="12.3362972"><ele>695.5</ele><time>2026-05-01T16:20:31.52Z</time></trkpt><trkpt lat="43.5180493" lon="12.3361043"><ele>699.25</ele><time>2026-05-01T16:20:32.52Z</time></trkpt><trkpt lat="43.518048" lon="12.3359067"><ele>703.0</ele><time>2026-05-01T16:20:33.52Z</time></trkpt><trkpt lat="43.5180304" lon="12.3357061"><ele>705.25</ele><time>2026-05-01T16:20:34.519Z</time></trkpt><trkpt lat="43.5179962" lon="12.3355126"><ele>707.5</ele><time>2026-05-01T16:20:35.52Z</time></trkpt><trkpt lat="43.5179315" lon="12.3353302"><ele>709.75</ele><time>2026-05-01T16:20:36.52Z</time></trkpt><trkpt lat="43.5178143" lon="12.3351844"><ele>712.0</ele><time>2026-05-01T16:20:37.519Z</time></trkpt><trkpt lat="43.5176752" lon="12.335086"><ele>705.6666666666667</ele><time>2026-05-01T16:20:38.52Z</time></trkpt><trkpt lat="43.5175246" lon="12.3350116"><ele>699.3333333333334</ele><time>2026-05-01T16:20:39.52Z</time></trkpt><trkpt lat="43.5173651" lon="12.3349401"><ele>693.0</ele><time>2026-05-01T16:20:40.519Z</time></trkpt><trkpt lat="43.5172059" lon="12.3348656"><ele>688.6666666666666</ele><time>2026-05-01T16:20:41.52Z</time></trkpt><trkpt lat="43.5170431" lon="12.3347955"><ele>684.3333333333333</ele><time>2026-05-01T16:20:42.52Z</time></trkpt><trkpt lat="43.5168772" lon="12.3347376"><ele>680.0</ele><time>2026-05-01T16:20:43.52Z</time></trkpt><trkpt lat="43.5167244" lon="12.3346776"><ele>690.3333333333333</ele><time>2026-05-01T16:20:44.52Z</time></trkpt><trkpt lat="43.5165652" lon="12.334622"><ele>700.6666666666666</ele><time>2026-05-01T16:20:45.52Z</time></trkpt><trkpt lat="43.5164056" lon="12.3345839"><ele>711.0</ele><time>2026-05-01T16:20:46.519Z</time></trkpt><trkpt lat="43.5162579" lon="12.3345426"><ele>705.75</ele><time>2026-05-01T16:20:47.519Z</time></trkpt><trkpt lat="43.5161161" lon="12.3344997"><ele>700.5</ele><time>2026-05-01T16:20:48.52Z</time></trkpt><trkpt lat="43.5159821" lon="12.3344615"><ele>695.25</ele><time>2026-05-01T16:20:49.519Z</time></trkpt><trkpt lat="43.5158498" lon="12.3344229"><ele>690.0</ele><time>2026-05-01T16:20:50.52Z</time></trkpt><trkpt lat="43.5157175" lon="12.3343858"><ele>690.0</ele><time>2026-05-01T16:20:51.52Z</time></trkpt><trkpt lat="43.5155986" lon="12.3343391"><ele>690.0</ele><time>2026-05-01T16:20:52.52Z</time></trkpt><trkpt lat="43.5154866" lon="12.334259"><ele>690.0</ele><time>2026-05-01T16:20:53.52Z</time></trkpt><trkpt lat="43.5153978" lon="12.3341522"><ele>690.0</ele><time>2026-05-01T16:20:54.52Z</time></trkpt><trkpt lat="43.5153565" lon="12.3340229"><ele>690.25</ele><time>2026-05-01T16:20:55.52Z</time></trkpt><trkpt lat="43.5153675" lon="12.3338642"><ele>690.5</ele><time>2026-05-01T16:20:56.52Z</time></trkpt><trkpt lat="43.5154253" lon="12.333708"><ele>690.75</ele><time>2026-05-01T16:20:57.52Z</time></trkpt><trkpt lat="43.5155129" lon="12.3335931"><ele>691.0</ele><time>2026-05-01T16:20:58.52Z</time></trkpt><trkpt lat="43.5156168" lon="12.3334918"><ele>691.0</ele><time>2026-05-01T16:20:59.519Z</time></trkpt><trkpt lat="43.5157128" lon="12.3334019"><ele>691.0</ele><time>2026-05-01T16:21:00.52Z</time></trkpt><trkpt lat="43.5157927" lon="12.33331"><ele>691.0</ele><time>2026-05-01T16:21:01.52Z</time></trkpt><trkpt lat="43.5158466" lon="12.3332042"><ele>691.0</ele><time>2026-05-01T16:21:02.52Z</time></trkpt><trkpt lat="43.5158684" lon="12.3330598"><ele>691.0</ele><time>2026-05-01T16:21:03.52Z</time></trkpt><trkpt lat="43.5158335" lon="12.3328929"><ele>694.6666666666667</ele><time>2026-05-01T16:21:04.519Z</time></trkpt><trkpt lat="43.5157426" lon="12.3327195"><ele>698.3333333333334</ele><time>2026-05-01T16:21:05.52Z</time></trkpt><trkpt lat="43.5156386" lon="12.3325557"><ele>702.0</ele><time>2026-05-01T16:21:06.52Z</time></trkpt><trkpt lat="43.5155439" lon="12.3324068"><ele>702.0</ele><time>2026-05-01T16:21:07.519Z</time></trkpt><trkpt lat="43.5154554" lon="12.3322604"><ele>702.0</ele><time>2026-05-01T16:21:08.519Z</time></trkpt><trkpt lat="43.5153724" lon="12.3320993"><ele>702.0</ele><time>2026-05-01T16:21:09.519Z</time></trkpt><trkpt lat="43.5152888" lon="12.3319475"><ele>702.0</ele><time>2026-05-01T16:21:10.52Z</time></trkpt><trkpt lat="43.5152132" lon="12.3317973"><ele>704.75</ele><time>2026-05-01T16:21:11.519Z</time></trkpt><trkpt lat="43.5151451" lon="12.3316559"><ele>707.5</ele><time>2026-05-01T16:21:12.52Z</time></trkpt><trkpt lat="43.5150688" lon="12.3315246"><ele>710.25</ele><time>2026-05-01T16:21:13.52Z</time></trkpt><trkpt lat="43.5149813" lon="12.3314207"><ele>713.0</ele><time>2026-05-01T16:21:14.52Z</time></trkpt><trkpt lat="43.5148726" lon="12.3313496"><ele>713.0</ele><time>2026-05-01T16:21:15.519Z</time></trkpt><trkpt lat="43.5147448" lon="12.3313194"><ele>713.0</ele><time>2026-05-01T16:21:16.52Z</time></trkpt><trkpt lat="43.5146088" lon="12.3313503"><ele>713.0</ele><time>2026-05-01T16:21:17.52Z</time></trkpt><trkpt lat="43.514484" lon="12.3314095"><ele>713.0</ele><time>2026-05-01T16:21:18.52Z</time></trkpt><trkpt lat="43.5143817" lon="12.3314827"><ele>703.5</ele><time>2026-05-01T16:21:19.519Z</time></trkpt><trkpt lat="43.5142648" lon="12.3315501"><ele>694.0</ele><time>2026-05-01T16:21:20.52Z</time></trkpt><trkpt lat="43.5141492" lon="12.3315894"><ele>684.5</ele><time>2026-05-01T16:21:21.52Z</time></trkpt><trkpt lat="43.5140309" lon="12.3316046"><ele>675.0</ele><time>2026-05-01T16:21:22.519Z</time></trkpt><trkpt lat="43.513929" lon="12.3315953"><ele>675.0</ele><time>2026-05-01T16:21:23.519Z</time></trkpt><trkpt lat="43.5138444" lon="12.3315568"><ele>675.0</ele><time>2026-05-01T16:21:24.52Z</time></trkpt><trkpt lat="43.513791" lon="12.3314672"><ele>675.0</ele><time>2026-05-01T16:21:25.52Z</time></trkpt><trkpt lat="43.5137623" lon="12.331336"><ele>675.0</ele><time>2026-05-01T16:21:26.52Z</time></trkpt><trkpt lat="43.5137533" lon="12.3312047"><ele>675.0</ele><time>2026-05-01T16:21:27.519Z</time></trkpt><trkpt lat="43.5137523" lon="12.3310759"><ele>673.8</ele><time>2026-05-01T16:21:28.52Z</time></trkpt><trkpt lat="43.5137471" lon="12.3309428"><ele>672.6</ele><time>2026-05-01T16:21:29.52Z</time></trkpt><trkpt lat="43.5137245" lon="12.3308105"><ele>671.4000000000001</ele><time>2026-05-01T16:21:30.52Z</time></trkpt><trkpt lat="43.5136773" lon="12.3306879"><ele>670.2</ele><time>2026-05-01T16:21:31.519Z</time></trkpt><trkpt lat="43.5136028" lon="12.3305864"><ele>669.0</ele><time>2026-05-01T16:21:32.52Z</time></trkpt><trkpt lat="43.5135015" lon="12.3304996"><ele>672.75</ele><time>2026-05-01T16:21:33.52Z</time></trkpt><trkpt lat="43.5133845" lon="12.330445"><ele>676.5</ele><time>2026-05-01T16:21:34.519Z</time></trkpt><trkpt lat="43.5132642" lon="12.3304241"><ele>680.25</ele><time>2026-05-01T16:21:35.52Z</time></trkpt><trkpt lat="43.5131391" lon="12.3304184"><ele>684.0</ele><time>2026-05-01T16:21:36.519Z</time></trkpt><trkpt lat="43.5130099" lon="12.3304043"><ele>679.6</ele><time>2026-05-01T16:21:37.52Z</time></trkpt><trkpt lat="43.5128916" lon="12.3303731"><ele>675.2</ele><time>2026-05-01T16:21:38.52Z</time></trkpt><trkpt lat="43.5127927" lon="12.3303195"><ele>670.8000000000001</ele><time>2026-05-01T16:21:39.52Z</time></trkpt><trkpt lat="43.512708" lon="12.3302339"><ele>666.4000000000001</ele><time>2026-05-01T16:21:40.52Z</time></trkpt><trkpt lat="43.5126641" lon="12.3301148"><ele>662.0</ele><time>2026-05-01T16:21:41.519Z</time></trkpt><trkpt lat="43.512647" lon="12.3299647"><ele>662.0</ele><time>2026-05-01T16:21:42.52Z</time></trkpt><trkpt lat="43.5126413" lon="12.3298178"><ele>662.0</ele><time>2026-05-01T16:21:43.52Z</time></trkpt><trkpt lat="43.5126547" lon="12.3296667"><ele>662.0</ele><time>2026-05-01T16:21:44.52Z</time></trkpt><trkpt lat="43.5126695" lon="12.3295181"><ele>662.0</ele><time>2026-05-01T16:21:45.52Z</time></trkpt><trkpt lat="43.5126637" lon="12.3293851"><ele>662.0</ele><time>2026-05-01T16:21:46.52Z</time></trkpt><trkpt lat="43.5126252" lon="12.3292447"><ele>663.75</ele><time>2026-05-01T16:21:47.52Z</time></trkpt><trkpt lat="43.5125653" lon="12.3291035"><ele>665.5</ele><time>2026-05-01T16:21:48.52Z</time></trkpt><trkpt lat="43.5124663" lon="12.3289772"><ele>667.25</ele><time>2026-05-01T16:21:49.52Z</time></trkpt><trkpt lat="43.5123419" lon="12.3288897"><ele>669.0</ele><time>2026-05-01T16:21:50.52Z</time></trkpt><trkpt lat="43.512202" lon="12.3288436"><ele>671.0</ele><time>2026-05-01T16:21:51.52Z</time></trkpt><trkpt lat="43.5120656" lon="12.3287954"><ele>673.0</ele><time>2026-05-01T16:21:52.52Z</time></trkpt><trkpt lat="43.5119292" lon="12.3287534"><ele>675.0</ele><time>2026-05-01T16:21:53.52Z</time></trkpt><trkpt lat="43.5117938" lon="12.3287165"><ele>677.0</ele><time>2026-05-01T16:21:54.52Z</time></trkpt><trkpt lat="43.5116646" lon="12.3286763"><ele>677.0</ele><time>2026-05-01T16:21:55.52Z</time></trkpt><trkpt lat="43.5115385" lon="12.3286382"><ele>677.0</ele><time>2026-05-01T16:21:56.52Z</time></trkpt><trkpt lat="43.5114136" lon="12.3286019"><ele>677.0</ele><time>2026-05-01T16:21:57.52Z</time></trkpt><trkpt lat="43.5112839" lon="12.3285656"><ele>677.0</ele><time>2026-05-01T16:21:58.52Z</time></trkpt><trkpt lat="43.5111491" lon="12.3285265"><ele>673.75</ele><time>2026-05-01T16:21:59.519Z</time></trkpt><trkpt lat="43.5110066" lon="12.3284847"><ele>670.5</ele><time>2026-05-01T16:22:00.519Z</time></trkpt><trkpt lat="43.5108606" lon="12.3284423"><ele>667.25</ele><time>2026-05-01T16:22:01.519Z</time></trkpt><trkpt lat="43.5107162" lon="12.3284071"><ele>664.0</ele><time>2026-05-01T16:22:02.519Z</time></trkpt><trkpt lat="43.5105727" lon="12.3283977"><ele>664.0</ele><time>2026-05-01T16:22:03.52Z</time></trkpt><trkpt lat="43.51043" lon="12.3284352"><ele>664.0</ele><time>2026-05-01T16:22:04.52Z</time></trkpt><trkpt lat="43.5102882" lon="12.3285143"><ele>664.0</ele><time>2026-05-01T16:22:05.52Z</time></trkpt><trkpt lat="43.510161" lon="12.328627"><ele>664.0</ele><time>2026-05-01T16:22:06.52Z</time></trkpt><trkpt lat="43.5100325" lon="12.3287467"><ele>663.6666666666667</ele><time>2026-05-01T16:22:07.519Z</time></trkpt><trkpt lat="43.5099" lon="12.3288559"><ele>663.3333333333334</ele><time>2026-05-01T16:22:08.52Z</time></trkpt><trkpt lat="43.5097746" lon="12.3289703"><ele>663.0</ele><time>2026-05-01T16:22:09.52Z</time></trkpt><trkpt lat="43.509647" lon="12.3290722"><ele>663.75</ele><time>2026-05-01T16:22:10.52Z</time></trkpt><trkpt lat="43.5095231" lon="12.329157"><ele>664.5</ele><time>2026-05-01T16:22:11.52Z</time></trkpt><trkpt lat="43.509402" lon="12.3292245"><ele>665.25</ele><time>2026-05-01T16:22:12.52Z</time></trkpt><trkpt lat="43.5092738" lon="12.3292447"><ele>666.0</ele><time>2026-05-01T16:22:13.52Z</time></trkpt><trkpt lat="43.5091487" lon="12.3292224"><ele>666.0</ele><time>2026-05-01T16:22:14.52Z</time></trkpt><trkpt lat="43.5090257" lon="12.3291641"><ele>666.0</ele><time>2026-05-01T16:22:15.519Z</time></trkpt><trkpt lat="43.5089044" lon="12.3290894"><ele>666.0</ele><time>2026-05-01T16:22:16.519Z</time></trkpt><trkpt lat="43.5088176" lon="12.3289443"><ele>666.0</ele><time>2026-05-01T16:22:17.52Z</time></trkpt><trkpt lat="43.5087641" lon="12.3287606"><ele>663.25</ele><time>2026-05-01T16:22:18.52Z</time></trkpt><trkpt lat="43.5087213" lon="12.3285631"><ele>660.5</ele><time>2026-05-01T16:22:19.519Z</time></trkpt><trkpt lat="43.5086999" lon="12.3283607"><ele>657.75</ele><time>2026-05-01T16:22:20.52Z</time></trkpt><trkpt lat="43.5087148" lon="12.3281743"><ele>655.0</ele><time>2026-05-01T16:22:21.52Z</time></trkpt><trkpt lat="43.508764" lon="12.3279919"><ele>654.5</ele><time>2026-05-01T16:22:22.52Z</time></trkpt><trkpt lat="43.5088498" lon="12.3278448"><ele>654.0</ele><time>2026-05-01T16:22:23.519Z</time></trkpt><trkpt lat="43.5089599" lon="12.327743"><ele>653.5</ele><time>2026-05-01T16:22:24.519Z</time></trkpt><trkpt lat="43.5090854" lon="12.3276651"><ele>653.0</ele><time>2026-05-01T16:22:25.52Z</time></trkpt><trkpt lat="43.5092317" lon="12.3276299"><ele>653.0</ele><time>2026-05-01T16:22:26.52Z</time></trkpt><trkpt lat="43.5093866" lon="12.3276076"><ele>653.0</ele><time>2026-05-01T16:22:27.519Z</time></trkpt><trkpt lat="43.5095444" lon="12.3275891"><ele>653.0</ele><time>2026-05-01T16:22:28.52Z</time></trkpt><trkpt lat="43.5097026" lon="12.3275675"><ele>654.5</ele><time>2026-05-01T16:22:29.519Z</time></trkpt><trkpt lat="43.509855" lon="12.3275405"><ele>656.0</ele><time>2026-05-01T16:22:30.52Z</time></trkpt><trkpt lat="43.5099868" lon="12.3274768"><ele>657.5</ele><time>2026-05-01T16:22:31.519Z</time></trkpt><trkpt lat="43.5101052" lon="12.3273738"><ele>659.0</ele><time>2026-05-01T16:22:32.519Z</time></trkpt><trkpt lat="43.5102075" lon="12.3272284"><ele>658.75</ele><time>2026-05-01T16:22:33.52Z</time></trkpt><trkpt lat="43.5102987" lon="12.3270597"><ele>658.5</ele><time>2026-05-01T16:22:34.52Z</time></trkpt><trkpt lat="43.5103857" lon="12.3268938"><ele>658.25</ele><time>2026-05-01T16:22:35.52Z</time></trkpt><trkpt lat="43.5104691" lon="12.3267393"><ele>658.0</ele><time>2026-05-01T16:22:36.519Z</time></trkpt><trkpt lat="43.5105522" lon="12.3265915"><ele>658.0</ele><time>2026-05-01T16:22:37.519Z</time></trkpt><trkpt lat="43.5106227" lon="12.3264445"><ele>658.0</ele><time>2026-05-01T16:22:38.519Z</time></trkpt><trkpt lat="43.5106697" lon="12.326293"><ele>658.0</ele><time>2026-05-01T16:22:39.52Z</time></trkpt><trkpt lat="43.5106607" lon="12.3261344"><ele>658.0</ele><time>2026-05-01T16:22:40.52Z</time></trkpt><trkpt lat="43.5106082" lon="12.3259815"><ele>657.0</ele><time>2026-05-01T16:22:41.52Z</time></trkpt><trkpt lat="43.5105184" lon="12.3258546"><ele>656.0</ele><time>2026-05-01T16:22:42.52Z</time></trkpt><trkpt lat="43.5103992" lon="12.3257856"><ele>655.0</ele><time>2026-05-01T16:22:43.519Z</time></trkpt><trkpt lat="43.5102633" lon="12.325767"><ele>654.0</ele><time>2026-05-01T16:22:44.519Z</time></trkpt><trkpt lat="43.5101151" lon="12.3257583"><ele>653.0</ele><time>2026-05-01T16:22:45.519Z</time></trkpt><trkpt lat="43.5099613" lon="12.325749"><ele>652.0</ele><time>2026-05-01T16:22:46.519Z</time></trkpt><trkpt lat="43.5098161" lon="12.3257437"><ele>651.0</ele><time>2026-05-01T16:22:47.52Z</time></trkpt><trkpt lat="43.5096878" lon="12.3257324"><ele>650.0</ele><time>2026-05-01T16:22:48.52Z</time></trkpt><trkpt lat="43.5095612" lon="12.3257004"><ele>649.5</ele><time>2026-05-01T16:22:49.52Z</time></trkpt><trkpt lat="43.5094416" lon="12.3256499"><ele>649.0</ele><time>2026-05-01T16:22:50.52Z</time></trkpt><trkpt lat="43.5093302" lon="12.3255684"><ele>648.5</ele><time>2026-05-01T16:22:51.52Z</time></trkpt><trkpt lat="43.5092343" lon="12.325461"><ele>648.0</ele><time>2026-05-01T16:22:52.52Z</time></trkpt><trkpt lat="43.5091501" lon="12.3253249"><ele>648.0</ele><time>2026-05-01T16:22:53.519Z</time></trkpt><trkpt lat="43.5090658" lon="12.3251818"><ele>648.0</ele><time>2026-05-01T16:22:54.519Z</time></trkpt><trkpt lat="43.5089687" lon="12.32504"><ele>648.0</ele><time>2026-05-01T16:22:55.519Z</time></trkpt><trkpt lat="43.5088495" lon="12.3249087"><ele>648.0</ele><time>2026-05-01T16:22:56.52Z</time></trkpt><trkpt lat="43.5087203" lon="12.3247849"><ele>647.3333333333334</ele><time>2026-05-01T16:22:57.52Z</time></trkpt><trkpt lat="43.5085752" lon="12.3246753"><ele>646.6666666666667</ele><time>2026-05-01T16:22:58.52Z</time></trkpt><trkpt lat="43.5084237" lon="12.3245682"><ele>646.0</ele><time>2026-05-01T16:22:59.52Z</time></trkpt><trkpt lat="43.508272" lon="12.3244653"><ele>646.0</ele><time>2026-05-01T16:23:00.52Z</time></trkpt><trkpt lat="43.5081269" lon="12.3243542"><ele>646.0</ele><time>2026-05-01T16:23:01.52Z</time></trkpt><trkpt lat="43.5079886" lon="12.3242415"><ele>646.0</ele><time>2026-05-01T16:23:02.52Z</time></trkpt><trkpt lat="43.5078635" lon="12.3241171"><ele>642.6666666666667</ele><time>2026-05-01T16:23:03.52Z</time></trkpt><trkpt lat="43.5077445" lon="12.3239731"><ele>639.3333333333334</ele><time>2026-05-01T16:23:04.52Z</time></trkpt><trkpt lat="43.5076276" lon="12.3238079"><ele>636.0</ele><time>2026-05-01T16:23:05.52Z</time></trkpt><trkpt lat="43.5075166" lon="12.3236286"><ele>636.0</ele><time>2026-05-01T16:23:06.52Z</time></trkpt><trkpt lat="43.5074034" lon="12.3234412"><ele>636.0</ele><time>2026-05-01T16:23:07.52Z</time></trkpt><trkpt lat="43.5072932" lon="12.3232594"><ele>636.0</ele><time>2026-05-01T16:23:08.52Z</time></trkpt><trkpt lat="43.5071868" lon="12.3230879"><ele>637.3333333333334</ele><time>2026-05-01T16:23:09.52Z</time></trkpt><trkpt lat="43.5070851" lon="12.3229227"><ele>638.6666666666667</ele><time>2026-05-01T16:23:10.52Z</time></trkpt><trkpt lat="43.5069709" lon="12.3227709"><ele>640.0</ele><time>2026-05-01T16:23:11.52Z</time></trkpt><trkpt lat="43.5068494" lon="12.3226397"><ele>636.0</ele><time>2026-05-01T16:23:12.52Z</time></trkpt><trkpt lat="43.5067092" lon="12.3225213"><ele>632.0</ele><time>2026-05-01T16:23:13.52Z</time></trkpt><trkpt lat="43.5065597" lon="12.3224106"><ele>628.0</ele><time>2026-05-01T16:23:14.519Z</time></trkpt><trkpt lat="43.5064034" lon="12.322304"><ele>627.6666666666667</ele><time>2026-05-01T16:23:15.52Z</time></trkpt><trkpt lat="43.5062465" lon="12.3221984"><ele>627.3333333333334</ele><time>2026-05-01T16:23:16.52Z</time></trkpt><trkpt lat="43.5060963" lon="12.3220882"><ele>627.0</ele><time>2026-05-01T16:23:17.52Z</time></trkpt><trkpt lat="43.5059566" lon="12.3219848"><ele>627.0</ele><time>2026-05-01T16:23:18.52Z</time></trkpt><trkpt lat="43.5058165" lon="12.321894"><ele>627.0</ele><time>2026-05-01T16:23:19.52Z</time></trkpt><trkpt lat="43.5056886" lon="12.3217997"><ele>627.0</ele><time>2026-05-01T16:23:20.52Z</time></trkpt><trkpt lat="43.5055649" lon="12.3216834"><ele>627.0</ele><time>2026-05-01T16:23:21.52Z</time></trkpt><trkpt lat="43.5054471" lon="12.3215477"><ele>627.0</ele><time>2026-05-01T16:23:22.52Z</time></trkpt><trkpt lat="43.5053492" lon="12.3214131"><ele>627.0</ele><time>2026-05-01T16:23:23.52Z</time></trkpt><trkpt lat="43.5052677" lon="12.3212734"><ele>627.0</ele><time>2026-05-01T16:23:24.519Z</time></trkpt><trkpt lat="43.505209" lon="12.3211139"><ele>624.25</ele><time>2026-05-01T16:23:25.519Z</time></trkpt><trkpt lat="43.505181" lon="12.3209436"><ele>621.5</ele><time>2026-05-01T16:23:26.52Z</time></trkpt><trkpt lat="43.5051729" lon="12.3207599"><ele>618.75</ele><time>2026-05-01T16:23:27.519Z</time></trkpt><trkpt lat="43.5051607" lon="12.3205746"><ele>616.0</ele><time>2026-05-01T16:23:28.52Z</time></trkpt><trkpt lat="43.5051255" lon="12.3203762"><ele>615.75</ele><time>2026-05-01T16:23:29.52Z</time></trkpt><trkpt lat="43.5050605" lon="12.32018"><ele>615.5</ele><time>2026-05-01T16:23:30.52Z</time></trkpt><trkpt lat="43.5049812" lon="12.320007"><ele>615.25</ele><time>2026-05-01T16:23:31.52Z</time></trkpt><trkpt lat="43.5049011" lon="12.3198425"><ele>615.0</ele><time>2026-05-01T16:23:32.52Z</time></trkpt><trkpt lat="43.5048421" lon="12.3196681"><ele>614.75</ele><time>2026-05-01T16:23:33.52Z</time></trkpt><trkpt lat="43.5048105" lon="12.3194741"><ele>614.5</ele><time>2026-05-01T16:23:34.52Z</time></trkpt><trkpt lat="43.5048053" lon="12.3192653"><ele>614.25</ele><time>2026-05-01T16:23:35.52Z</time></trkpt><trkpt lat="43.5048147" lon="12.3190649"><ele>614.0</ele><time>2026-05-01T16:23:36.519Z</time></trkpt><trkpt lat="43.5048303" lon="12.3188763"><ele>612.0</ele><time>2026-05-01T16:23:37.52Z</time></trkpt><trkpt lat="43.5048458" lon="12.3187091"><ele>610.0</ele><time>2026-05-01T16:23:38.52Z</time></trkpt><trkpt lat="43.5048836" lon="12.3185595"><ele>608.0</ele><time>2026-05-01T16:23:39.52Z</time></trkpt><trkpt lat="43.5049522" lon="12.3184315"><ele>606.0</ele><time>2026-05-01T16:23:40.52Z</time></trkpt><trkpt lat="43.5050468" lon="12.318337"><ele>606.0</ele><time>2026-05-01T16:23:41.52Z</time></trkpt><trkpt lat="43.5051601" lon="12.3182852"><ele>606.0</ele><time>2026-05-01T16:23:42.52Z</time></trkpt><trkpt lat="43.5052852" lon="12.3182991"><ele>606.0</ele><time>2026-05-01T16:23:43.52Z</time></trkpt><trkpt lat="43.5054079" lon="12.318323"><ele>606.0</ele><time>2026-05-01T16:23:44.52Z</time></trkpt><trkpt lat="43.5055275" lon="12.3183462"><ele>606.2</ele><time>2026-05-01T16:23:45.519Z</time></trkpt><trkpt lat="43.5056353" lon="12.3183584"><ele>606.4000000000001</ele><time>2026-05-01T16:23:46.519Z</time></trkpt><trkpt lat="43.5057386" lon="12.3183653"><ele>606.6</ele><time>2026-05-01T16:23:47.52Z</time></trkpt><trkpt lat="43.5058331" lon="12.3183392"><ele>606.8000000000001</ele><time>2026-05-01T16:23:48.52Z</time></trkpt><trkpt lat="43.5059208" lon="12.3182492"><ele>607.0</ele><time>2026-05-01T16:23:49.52Z</time></trkpt><trkpt lat="43.5059792" lon="12.3181245"><ele>604.0</ele><time>2026-05-01T16:23:50.52Z</time></trkpt><trkpt lat="43.5060197" lon="12.3179857"><ele>601.0</ele><time>2026-05-01T16:23:51.52Z</time></trkpt><trkpt lat="43.5060631" lon="12.317861"><ele>598.0</ele><time>2026-05-01T16:23:52.519Z</time></trkpt><trkpt lat="43.5061151" lon="12.3177359"><ele>595.0</ele><time>2026-05-01T16:23:53.52Z</time></trkpt><trkpt lat="43.5061974" lon="12.3176396"><ele>592.0</ele><time>2026-05-01T16:23:54.519Z</time></trkpt><trkpt lat="43.5062952" lon="12.3175558"><ele>592.0</ele><time>2026-05-01T16:23:55.52Z</time></trkpt><trkpt lat="43.5064075" lon="12.3174971"><ele>592.0</ele><time>2026-05-01T16:23:56.52Z</time></trkpt><trkpt lat="43.506524" lon="12.3174795"><ele>592.0</ele><time>2026-05-01T16:23:57.52Z</time></trkpt><trkpt lat="43.5066401" lon="12.317491"><ele>592.0</ele><time>2026-05-01T16:23:58.519Z</time></trkpt><trkpt lat="43.5067595" lon="12.3175309"><ele>592.0</ele><time>2026-05-01T16:23:59.52Z</time></trkpt><trkpt lat="43.5068759" lon="12.3176016"><ele>592.0</ele><time>2026-05-01T16:24:00.52Z</time></trkpt><trkpt lat="43.5069814" lon="12.3176717"><ele>592.0</ele><time>2026-05-01T16:24:01.519Z</time></trkpt><trkpt lat="43.5070834" lon="12.3177413"><ele>592.0</ele><time>2026-05-01T16:24:02.52Z</time></trkpt><trkpt lat="43.5071965" lon="12.3177665"><ele>592.0</ele><time>2026-05-01T16:24:03.519Z</time></trkpt><trkpt lat="43.5072975" lon="12.3177438"><ele>592.0</ele><time>2026-05-01T16:24:04.52Z</time></trkpt><trkpt lat="43.5073924" lon="12.3176899"><ele>592.0</ele><time>2026-05-01T16:24:05.52Z</time></trkpt><trkpt lat="43.5074851" lon="12.3175965"><ele>592.0</ele><time>2026-05-01T16:24:06.519Z</time></trkpt><trkpt lat="43.5075512" lon="12.3174693"><ele>592.0</ele><time>2026-05-01T16:24:07.52Z</time></trkpt><trkpt lat="43.5075907" lon="12.3173221"><ele>592.0</ele><time>2026-05-01T16:24:08.52Z</time></trkpt><trkpt lat="43.507606" lon="12.3171562"><ele>592.0</ele><time>2026-05-01T16:24:09.519Z</time></trkpt><trkpt lat="43.5075749" lon="12.3169726"><ele>592.0</ele><time>2026-05-01T16:24:10.519Z</time></trkpt><trkpt lat="43.5075361" lon="12.3168056"><ele>592.0</ele><time>2026-05-01T16:24:11.52Z</time></trkpt><trkpt lat="43.5074821" lon="12.3166538"><ele>592.0</ele><time>2026-05-01T16:24:12.52Z</time></trkpt><trkpt lat="43.5074247" lon="12.3165095"><ele>592.0</ele><time>2026-05-01T16:24:13.519Z</time></trkpt><trkpt lat="43.507352" lon="12.316376"><ele>592.0</ele><time>2026-05-01T16:24:14.52Z</time></trkpt><trkpt lat="43.50728" lon="12.3162612"><ele>592.0</ele><time>2026-05-01T16:24:15.52Z</time></trkpt><trkpt lat="43.5072122" lon="12.3161452"><ele>591.5</ele><time>2026-05-01T16:24:16.52Z</time></trkpt><trkpt lat="43.5071683" lon="12.315998"><ele>591.0</ele><time>2026-05-01T16:24:17.52Z</time></trkpt><trkpt lat="43.5071516" lon="12.3158408"><ele>590.5</ele><time>2026-05-01T16:24:18.52Z</time></trkpt><trkpt lat="43.5071622" lon="12.3156592"><ele>590.0</ele><time>2026-05-01T16:24:19.52Z</time></trkpt><trkpt lat="43.5071851" lon="12.3154721"><ele>589.5</ele><time>2026-05-01T16:24:20.521Z</time></trkpt><trkpt lat="43.5072075" lon="12.3152709"><ele>589.0</ele><time>2026-05-01T16:24:21.521Z</time></trkpt><trkpt lat="43.5072217" lon="12.3150647"><ele>588.5</ele><time>2026-05-01T16:24:22.52Z</time></trkpt><trkpt lat="43.5072169" lon="12.3148658"><ele>588.0</ele><time>2026-05-01T16:24:23.521Z</time></trkpt><trkpt lat="43.5072064" lon="12.3146788"><ele>586.75</ele><time>2026-05-01T16:24:24.521Z</time></trkpt><trkpt lat="43.5072022" lon="12.314497"><ele>585.5</ele><time>2026-05-01T16:24:25.521Z</time></trkpt><trkpt lat="43.5071968" lon="12.3143158"><ele>584.25</ele><time>2026-05-01T16:24:26.52Z</time></trkpt><trkpt lat="43.5071936" lon="12.314136"><ele>583.0</ele><time>2026-05-01T16:24:27.52Z</time></trkpt><trkpt lat="43.5071841" lon="12.3139528"><ele>579.75</ele><time>2026-05-01T16:24:28.521Z</time></trkpt><trkpt lat="43.5071672" lon="12.3137679"><ele>576.5</ele><time>2026-05-01T16:24:29.52Z</time></trkpt><trkpt lat="43.507136" lon="12.31358"><ele>573.25</ele><time>2026-05-01T16:24:30.521Z</time></trkpt><trkpt lat="43.5070835" lon="12.3133997"><ele>570.0</ele><time>2026-05-01T16:24:31.521Z</time></trkpt><trkpt lat="43.5070049" lon="12.3132271"><ele>571.6666666666666</ele><time>2026-05-01T16:24:32.52Z</time></trkpt><trkpt lat="43.5069105" lon="12.3130558"><ele>573.3333333333333</ele><time>2026-05-01T16:24:33.521Z</time></trkpt><trkpt lat="43.5068188" lon="12.3128966"><ele>575.0</ele><time>2026-05-01T16:24:34.521Z</time></trkpt><trkpt lat="43.506725" lon="12.3127348"><ele>575.0</ele><time>2026-05-01T16:24:35.52Z</time></trkpt><trkpt lat="43.5066285" lon="12.3125734"><ele>575.0</ele><time>2026-05-01T16:24:36.521Z</time></trkpt><trkpt lat="43.5065391" lon="12.3124077"><ele>575.0</ele><time>2026-05-01T16:24:37.521Z</time></trkpt><trkpt lat="43.5064522" lon="12.3122452"><ele>575.0</ele><time>2026-05-01T16:24:38.521Z</time></trkpt><trkpt lat="43.5063846" lon="12.3120728"><ele>574.75</ele><time>2026-05-01T16:24:39.521Z</time></trkpt><trkpt lat="43.5063407" lon="12.3118969"><ele>574.5</ele><time>2026-05-01T16:24:40.521Z</time></trkpt><trkpt lat="43.5063106" lon="12.3117183"><ele>574.25</ele><time>2026-05-01T16:24:41.521Z</time></trkpt><trkpt lat="43.5062865" lon="12.3115446"><ele>574.0</ele><time>2026-05-01T16:24:42.521Z</time></trkpt><trkpt lat="43.5062481" lon="12.3113732"><ele>572.5</ele><time>2026-05-01T16:24:43.521Z</time></trkpt><trkpt lat="43.5062055" lon="12.3112093"><ele>571.0</ele><time>2026-05-01T16:24:44.521Z</time></trkpt><trkpt lat="43.5061232" lon="12.3110386"><ele>569.5</ele><time>2026-05-01T16:24:45.521Z</time></trkpt><trkpt lat="43.5060396" lon="12.3108801"><ele>568.0</ele><time>2026-05-01T16:24:46.521Z</time></trkpt><trkpt lat="43.5059414" lon="12.3107323"><ele>568.0</ele><time>2026-05-01T16:24:47.52Z</time></trkpt><trkpt lat="43.5058513" lon="12.3105856"><ele>568.0</ele><time>2026-05-01T16:24:48.521Z</time></trkpt><trkpt lat="43.5057792" lon="12.3104407"><ele>568.0</ele><time>2026-05-01T16:24:49.52Z</time></trkpt><trkpt lat="43.5057177" lon="12.3102815"><ele>568.0</ele><time>2026-05-01T16:24:50.521Z</time></trkpt><trkpt lat="43.5056769" lon="12.3101182"><ele>568.5</ele><time>2026-05-01T16:24:51.521Z</time></trkpt><trkpt lat="43.505666" lon="12.3099351"><ele>569.0</ele><time>2026-05-01T16:24:52.521Z</time></trkpt><trkpt lat="43.5056689" lon="12.3097663"><ele>569.5</ele><time>2026-05-01T16:24:53.521Z</time></trkpt><trkpt lat="43.5056676" lon="12.309614"><ele>570.0</ele><time>2026-05-01T16:24:54.521Z</time></trkpt><trkpt lat="43.5056517" lon="12.3094504"><ele>567.75</ele><time>2026-05-01T16:24:55.52Z</time></trkpt><trkpt lat="43.5056137" lon="12.3092881"><ele>565.5</ele><time>2026-05-01T16:24:56.521Z</time></trkpt><trkpt lat="43.5055287" lon="12.3091149"><ele>563.25</ele><time>2026-05-01T16:24:57.521Z</time></trkpt><trkpt lat="43.5054302" lon="12.3089665"><ele>561.0</ele><time>2026-05-01T16:24:58.521Z</time></trkpt><trkpt lat="43.5053231" lon="12.3088297"><ele>560.5</ele><time>2026-05-01T16:24:59.521Z</time></trkpt><trkpt lat="43.5052193" lon="12.3087034"><ele>560.0</ele><time>2026-05-01T16:25:00.52Z</time></trkpt><trkpt lat="43.5051144" lon="12.3085707"><ele>559.5</ele><time>2026-05-01T16:25:01.521Z</time></trkpt><trkpt lat="43.5050094" lon="12.3084357"><ele>559.0</ele><time>2026-05-01T16:25:02.52Z</time></trkpt><trkpt lat="43.5049004" lon="12.3083062"><ele>559.0</ele><time>2026-05-01T16:25:03.521Z</time></trkpt><trkpt lat="43.5047896" lon="12.3081688"><ele>559.0</ele><time>2026-05-01T16:25:04.52Z</time></trkpt><trkpt lat="43.5046818" lon="12.308043"><ele>559.0</ele><time>2026-05-01T16:25:05.52Z</time></trkpt><trkpt lat="43.5045737" lon="12.3079264"><ele>559.0</ele><time>2026-05-01T16:25:06.521Z</time></trkpt><trkpt lat="43.5044755" lon="12.3078103"><ele>557.25</ele><time>2026-05-01T16:25:07.52Z</time></trkpt><trkpt lat="43.5043712" lon="12.3076854"><ele>555.5</ele><time>2026-05-01T16:25:08.521Z</time></trkpt><trkpt lat="43.5042748" lon="12.3075583"><ele>553.75</ele><time>2026-05-01T16:25:09.521Z</time></trkpt><trkpt lat="43.5041908" lon="12.3074173"><ele>552.0</ele><time>2026-05-01T16:25:10.521Z</time></trkpt><trkpt lat="43.50412" lon="12.3072659"><ele>550.75</ele><time>2026-05-01T16:25:11.52Z</time></trkpt><trkpt lat="43.5040811" lon="12.3070971"><ele>549.5</ele><time>2026-05-01T16:25:12.521Z</time></trkpt><trkpt lat="43.5040605" lon="12.3069308"><ele>548.25</ele><time>2026-05-01T16:25:13.52Z</time></trkpt><trkpt lat="43.5040521" lon="12.3067552"><ele>547.0</ele><time>2026-05-01T16:25:14.521Z</time></trkpt><trkpt lat="43.5040347" lon="12.3065834"><ele>547.0</ele><time>2026-05-01T16:25:15.521Z</time></trkpt><trkpt lat="43.5040299" lon="12.3064273"><ele>547.0</ele><time>2026-05-01T16:25:16.521Z</time></trkpt><trkpt lat="43.5040202" lon="12.306273"><ele>547.0</ele><time>2026-05-01T16:25:17.52Z</time></trkpt><trkpt lat="43.5040062" lon="12.3061282"><ele>547.0</ele><time>2026-05-01T16:25:18.521Z</time></trkpt><trkpt lat="43.5039913" lon="12.3059729"><ele>547.0</ele><time>2026-05-01T16:25:19.521Z</time></trkpt><trkpt lat="43.5039707" lon="12.3058128"><ele>546.0</ele><time>2026-05-01T16:25:20.52Z</time></trkpt><trkpt lat="43.5039514" lon="12.305667"><ele>545.0</ele><time>2026-05-01T16:25:21.521Z</time></trkpt><trkpt lat="43.5039377" lon="12.3055388"><ele>544.0</ele><time>2026-05-01T16:25:22.52Z</time></trkpt><trkpt lat="43.5039243" lon="12.3054051"><ele>543.0</ele><time>2026-05-01T16:25:23.52Z</time></trkpt><trkpt lat="43.5039076" lon="12.3052648"><ele>542.0</ele><time>2026-05-01T16:25:24.521Z</time></trkpt><trkpt lat="43.5038896" lon="12.3051182"><ele>542.0</ele><time>2026-05-01T16:25:25.521Z</time></trkpt><trkpt lat="43.5038575" lon="12.3049588"><ele>542.0</ele><time>2026-05-01T16:25:26.521Z</time></trkpt><trkpt lat="43.5038099" lon="12.304796"><ele>542.0</ele><time>2026-05-01T16:25:27.52Z</time></trkpt><trkpt lat="43.503746" lon="12.3046308"><ele>542.0</ele><time>2026-05-01T16:25:28.521Z</time></trkpt><trkpt lat="43.5036637" lon="12.3044808"><ele>541.25</ele><time>2026-05-01T16:25:29.521Z</time></trkpt><trkpt lat="43.5035571" lon="12.3043603"><ele>540.5</ele><time>2026-05-01T16:25:30.521Z</time></trkpt><trkpt lat="43.5034305" lon="12.3042589"><ele>539.75</ele><time>2026-05-01T16:25:31.521Z</time></trkpt><trkpt lat="43.5032843" lon="12.3041742"><ele>539.0</ele><time>2026-05-01T16:25:32.521Z</time></trkpt><trkpt lat="43.5031319" lon="12.3041132"><ele>539.0</ele><time>2026-05-01T16:25:33.521Z</time></trkpt><trkpt lat="43.5029877" lon="12.3040354"><ele>539.0</ele><time>2026-05-01T16:25:34.521Z</time></trkpt><trkpt lat="43.5028672" lon="12.303948"><ele>539.0</ele><time>2026-05-01T16:25:35.521Z</time></trkpt><trkpt lat="43.5027494" lon="12.3038632"><ele>539.0</ele><time>2026-05-01T16:25:36.52Z</time></trkpt><trkpt lat="43.5026256" lon="12.3037757"><ele>543.3333333333333</ele><time>2026-05-01T16:25:37.521Z</time></trkpt><trkpt lat="43.5024961" lon="12.3036812"><ele>547.6666666666666</ele><time>2026-05-01T16:25:38.521Z</time></trkpt><trkpt lat="43.5023592" lon="12.3035774"><ele>552.0</ele><time>2026-05-01T16:25:39.52Z</time></trkpt><trkpt lat="43.5022228" lon="12.3034695"><ele>552.0</ele><time>2026-05-01T16:25:40.52Z</time></trkpt><trkpt lat="43.5020871" lon="12.3033553"><ele>552.0</ele><time>2026-05-01T16:25:41.521Z</time></trkpt><trkpt lat="43.5019573" lon="12.3032399"><ele>552.0</ele><time>2026-05-01T16:25:42.52Z</time></trkpt><trkpt lat="43.5018333" lon="12.3031243"><ele>552.25</ele><time>2026-05-01T16:25:43.521Z</time></trkpt><trkpt lat="43.5017148" lon="12.3030111"><ele>552.5</ele><time>2026-05-01T16:25:44.521Z</time></trkpt><trkpt lat="43.5015983" lon="12.3028968"><ele>552.75</ele><time>2026-05-01T16:25:45.521Z</time></trkpt><trkpt lat="43.5014861" lon="12.3027773"><ele>553.0</ele><time>2026-05-01T16:25:46.521Z</time></trkpt><trkpt lat="43.5013847" lon="12.3026493"><ele>553.0</ele><time>2026-05-01T16:25:47.521Z</time></trkpt><trkpt lat="43.501278" lon="12.3025287"><ele>553.0</ele><time>2026-05-01T16:25:48.521Z</time></trkpt><trkpt lat="43.5011622" lon="12.3024351"><ele>553.0</ele><time>2026-05-01T16:25:49.521Z</time></trkpt><trkpt lat="43.5010358" lon="12.3023655"><ele>553.0</ele><time>2026-05-01T16:25:50.521Z</time></trkpt><trkpt lat="43.500895" lon="12.3023483"><ele>549.75</ele><time>2026-05-01T16:25:51.521Z</time></trkpt><trkpt lat="43.5007563" lon="12.3023786"><ele>546.5</ele><time>2026-05-01T16:25:52.521Z</time></trkpt><trkpt lat="43.5006339" lon="12.3024458"><ele>543.25</ele><time>2026-05-01T16:25:53.52Z</time></trkpt><trkpt lat="43.5005222" lon="12.3025123"><ele>540.0</ele><time>2026-05-01T16:25:54.521Z</time></trkpt><trkpt lat="43.5004015" lon="12.3025587"><ele>538.75</ele><time>2026-05-01T16:25:55.521Z</time></trkpt><trkpt lat="43.5002754" lon="12.302572"><ele>537.5</ele><time>2026-05-01T16:25:56.521Z</time></trkpt><trkpt lat="43.5001564" lon="12.3025364"><ele>536.25</ele><time>2026-05-01T16:25:57.521Z</time></trkpt><trkpt lat="43.5000547" lon="12.302452"><ele>535.0</ele><time>2026-05-01T16:25:58.52Z</time></trkpt><trkpt lat="43.4999511" lon="12.3023603"><ele>535.0</ele><time>2026-05-01T16:25:59.521Z</time></trkpt><trkpt lat="43.499841" lon="12.3022612"><ele>535.0</ele><time>2026-05-01T16:26:00.521Z</time></trkpt><trkpt lat="43.4997325" lon="12.3021396"><ele>535.0</ele><time>2026-05-01T16:26:01.521Z</time></trkpt><trkpt lat="43.4996333" lon="12.3020061"><ele>535.0</ele><time>2026-05-01T16:26:02.521Z</time></trkpt><trkpt lat="43.4995504" lon="12.3018645"><ele>534.75</ele><time>2026-05-01T16:26:03.52Z</time></trkpt><trkpt lat="43.4994805" lon="12.301703"><ele>534.5</ele><time>2026-05-01T16:26:04.52Z</time></trkpt><trkpt lat="43.4994241" lon="12.3015345"><ele>534.25</ele><time>2026-05-01T16:26:05.521Z</time></trkpt><trkpt lat="43.4993889" lon="12.3013445"><ele>534.0</ele><time>2026-05-01T16:26:06.521Z</time></trkpt><trkpt lat="43.4993526" lon="12.3011486"><ele>534.0</ele><time>2026-05-01T16:26:07.521Z</time></trkpt><trkpt lat="43.4993002" lon="12.3009452"><ele>534.0</ele><time>2026-05-01T16:26:08.521Z</time></trkpt><trkpt lat="43.4992385" lon="12.3007618"><ele>534.0</ele><time>2026-05-01T16:26:09.521Z</time></trkpt><trkpt lat="43.499186" lon="12.3005737"><ele>534.0</ele><time>2026-05-01T16:26:10.521Z</time></trkpt><trkpt lat="43.4991435" lon="12.3003869"><ele>536.0</ele><time>2026-05-01T16:26:11.521Z</time></trkpt><trkpt lat="43.4991017" lon="12.3002088"><ele>538.0</ele><time>2026-05-01T16:26:12.521Z</time></trkpt><trkpt lat="43.4990721" lon="12.3000242"><ele>540.0</ele><time>2026-05-01T16:26:13.521Z</time></trkpt><trkpt lat="43.499041" lon="12.2998385"><ele>542.0</ele><time>2026-05-01T16:26:14.521Z</time></trkpt><trkpt lat="43.4989928" lon="12.2996573"><ele>544.3333333333333</ele><time>2026-05-01T16:26:15.521Z</time></trkpt><trkpt lat="43.4989211" lon="12.2994859"><ele>546.6666666666666</ele><time>2026-05-01T16:26:16.521Z</time></trkpt><trkpt lat="43.4988125" lon="12.2993277"><ele>549.0</ele><time>2026-05-01T16:26:17.521Z</time></trkpt><trkpt lat="43.4986968" lon="12.299178"><ele>545.0</ele><time>2026-05-01T16:26:18.52Z</time></trkpt><trkpt lat="43.4985967" lon="12.2990322"><ele>541.0</ele><time>2026-05-01T16:26:19.521Z</time></trkpt><trkpt lat="43.4985128" lon="12.2988679"><ele>537.0</ele><time>2026-05-01T16:26:20.52Z</time></trkpt><trkpt lat="43.4984522" lon="12.2987063"><ele>533.0</ele><time>2026-05-01T16:26:21.521Z</time></trkpt><trkpt lat="43.4983784" lon="12.2985619"><ele>533.0</ele><time>2026-05-01T16:26:22.521Z</time></trkpt><trkpt lat="43.4983133" lon="12.2984343"><ele>533.0</ele><time>2026-05-01T16:26:23.521Z</time></trkpt><trkpt lat="43.4982551" lon="12.2983126"><ele>533.0</ele><time>2026-05-01T16:26:24.521Z</time></trkpt><trkpt lat="43.4982082" lon="12.2981943"><ele>533.0</ele><time>2026-05-01T16:26:25.52Z</time></trkpt><trkpt lat="43.4981908" lon="12.2980734"><ele>533.0</ele><time>2026-05-01T16:26:26.521Z</time></trkpt><trkpt lat="43.4981953" lon="12.2979654"><ele>532.6</ele><time>2026-05-01T16:26:27.521Z</time></trkpt><trkpt lat="43.4982446" lon="12.2978681"><ele>532.1999999999999</ele><time>2026-05-01T16:26:28.52Z</time></trkpt><trkpt lat="43.498328" lon="12.2977815"><ele>531.8</ele><time>2026-05-01T16:26:29.521Z</time></trkpt><trkpt lat="43.4984165" lon="12.297712"><ele>531.4</ele><time>2026-05-01T16:26:30.521Z</time></trkpt><trkpt lat="43.4985009" lon="12.297634"><ele>531.0</ele><time>2026-05-01T16:26:31.521Z</time></trkpt><trkpt lat="43.4985698" lon="12.2975446"><ele>531.0</ele><time>2026-05-01T16:26:32.521Z</time></trkpt><trkpt lat="43.4986147" lon="12.2974403"><ele>531.0</ele><time>2026-05-01T16:26:33.52Z</time></trkpt><trkpt lat="43.4986144" lon="12.2973221"><ele>531.0</ele><time>2026-05-01T16:26:34.52Z</time></trkpt><trkpt lat="43.498589" lon="12.2971865"><ele>531.0</ele><time>2026-05-01T16:26:35.52Z</time></trkpt><trkpt lat="43.4985606" lon="12.2970628"><ele>531.0</ele><time>2026-05-01T16:26:36.521Z</time></trkpt><trkpt lat="43.498501" lon="12.2969392"><ele>533.5</ele><time>2026-05-01T16:26:37.521Z</time></trkpt><trkpt lat="43.4984004" lon="12.2968513"><ele>536.0</ele><time>2026-05-01T16:26:38.52Z</time></trkpt><trkpt lat="43.4982882" lon="12.2967891"><ele>538.5</ele><time>2026-05-01T16:26:39.521Z</time></trkpt><trkpt lat="43.4981756" lon="12.2967347"><ele>541.0</ele><time>2026-05-01T16:26:40.521Z</time></trkpt><trkpt lat="43.4980551" lon="12.2967178"><ele>541.0</ele><time>2026-05-01T16:26:41.521Z</time></trkpt><trkpt lat="43.4979323" lon="12.2967183"><ele>541.0</ele><time>2026-05-01T16:26:42.521Z</time></trkpt><trkpt lat="43.4977945" lon="12.2967126"><ele>541.0</ele><time>2026-05-01T16:26:43.521Z</time></trkpt><trkpt lat="43.4976562" lon="12.2966798"><ele>541.0</ele><time>2026-05-01T16:26:44.521Z</time></trkpt><trkpt lat="43.497526" lon="12.2966404"><ele>539.0</ele><time>2026-05-01T16:26:45.52Z</time></trkpt><trkpt lat="43.497403" lon="12.2965965"><ele>537.0</ele><time>2026-05-01T16:26:46.521Z</time></trkpt><trkpt lat="43.497276" lon="12.2965449"><ele>535.0</ele><time>2026-05-01T16:26:47.52Z</time></trkpt><trkpt lat="43.497145" lon="12.2964794"><ele>533.0</ele><time>2026-05-01T16:26:48.52Z</time></trkpt><trkpt lat="43.4970188" lon="12.2963876"><ele>533.0</ele><time>2026-05-01T16:26:49.52Z</time></trkpt><trkpt lat="43.4968941" lon="12.2962788"><ele>533.0</ele><time>2026-05-01T16:26:50.521Z</time></trkpt><trkpt lat="43.4967689" lon="12.29616"><ele>533.0</ele><time>2026-05-01T16:26:51.521Z</time></trkpt><trkpt lat="43.4966454" lon="12.2960461"><ele>533.0</ele><time>2026-05-01T16:26:52.521Z</time></trkpt><trkpt lat="43.4965255" lon="12.2959434"><ele>533.0</ele><time>2026-05-01T16:26:53.521Z</time></trkpt><trkpt lat="43.4964079" lon="12.2958423"><ele>533.0</ele><time>2026-05-01T16:26:54.521Z</time></trkpt><trkpt lat="43.4962961" lon="12.2957407"><ele>533.0</ele><time>2026-05-01T16:26:55.521Z</time></trkpt><trkpt lat="43.4961965" lon="12.2956558"><ele>533.0</ele><time>2026-05-01T16:26:56.521Z</time></trkpt><trkpt lat="43.4961072" lon="12.2955823"><ele>530.8</ele><time>2026-05-01T16:26:57.521Z</time></trkpt><trkpt lat="43.4960339" lon="12.2955132"><ele>528.5999999999999</ele><time>2026-05-01T16:26:58.521Z</time></trkpt><trkpt lat="43.4959791" lon="12.2954231"><ele>526.4000000000001</ele><time>2026-05-01T16:26:59.521Z</time></trkpt><trkpt lat="43.4959574" lon="12.2953049"><ele>524.2</ele><time>2026-05-01T16:27:00.521Z</time></trkpt><trkpt lat="43.4959577" lon="12.295172"><ele>522.0</ele><time>2026-05-01T16:27:01.52Z</time></trkpt><trkpt lat="43.4959931" lon="12.2950383"><ele>522.0</ele><time>2026-05-01T16:27:02.521Z</time></trkpt><trkpt lat="43.4960595" lon="12.2949247"><ele>522.0</ele><time>2026-05-01T16:27:03.52Z</time></trkpt><trkpt lat="43.496153" lon="12.2948376"><ele>522.0</ele><time>2026-05-01T16:27:04.521Z</time></trkpt><trkpt lat="43.4962525" lon="12.2947656"><ele>522.0</ele><time>2026-05-01T16:27:05.521Z</time></trkpt><trkpt lat="43.4963512" lon="12.2946975"><ele>522.0</ele><time>2026-05-01T16:27:06.521Z</time></trkpt><trkpt lat="43.4964345" lon="12.294585"><ele>524.25</ele><time>2026-05-01T16:27:07.521Z</time></trkpt><trkpt lat="43.4964915" lon="12.2944428"><ele>526.5</ele><time>2026-05-01T16:27:08.52Z</time></trkpt><trkpt lat="43.4965204" lon="12.2942811"><ele>528.75</ele><time>2026-05-01T16:27:09.521Z</time></trkpt><trkpt lat="43.4965014" lon="12.2941126"><ele>531.0</ele><time>2026-05-01T16:27:10.521Z</time></trkpt><trkpt lat="43.4964661" lon="12.2939448"><ele>531.5</ele><time>2026-05-01T16:27:11.521Z</time></trkpt><trkpt lat="43.4964016" lon="12.2937866"><ele>532.0</ele><time>2026-05-01T16:27:12.521Z</time></trkpt><trkpt lat="43.4963211" lon="12.2936507"><ele>532.5</ele><time>2026-05-01T16:27:13.52Z</time></trkpt><trkpt lat="43.4962293" lon="12.2935205"><ele>533.0</ele><time>2026-05-01T16:27:14.52Z</time></trkpt><trkpt lat="43.4961307" lon="12.2933976"><ele>532.0</ele><time>2026-05-01T16:27:15.52Z</time></trkpt><trkpt lat="43.4960218" lon="12.2932768"><ele>531.0</ele><time>2026-05-01T16:27:16.521Z</time></trkpt><trkpt lat="43.4959052" lon="12.2931682"><ele>530.0</ele><time>2026-05-01T16:27:17.52Z</time></trkpt><trkpt lat="43.4957806" lon="12.2930719"><ele>529.0</ele><time>2026-05-01T16:27:18.521Z</time></trkpt><trkpt lat="43.4956447" lon="12.2929838"><ele>529.0</ele><time>2026-05-01T16:27:19.521Z</time></trkpt><trkpt lat="43.4955154" lon="12.2929067"><ele>529.0</ele><time>2026-05-01T16:27:20.521Z</time></trkpt><trkpt lat="43.4953841" lon="12.2928369"><ele>529.0</ele><time>2026-05-01T16:27:21.521Z</time></trkpt><trkpt lat="43.4952591" lon="12.2927735"><ele>529.0</ele><time>2026-05-01T16:27:22.52Z</time></trkpt><trkpt lat="43.4951307" lon="12.2927061"><ele>526.75</ele><time>2026-05-01T16:27:23.521Z</time></trkpt><trkpt lat="43.495012" lon="12.2926389"><ele>524.5</ele><time>2026-05-01T16:27:24.521Z</time></trkpt><trkpt lat="43.4948954" lon="12.2925752"><ele>522.25</ele><time>2026-05-01T16:27:25.52Z</time></trkpt><trkpt lat="43.4947895" lon="12.2924943"><ele>520.0</ele><time>2026-05-01T16:27:26.521Z</time></trkpt><trkpt lat="43.4946878" lon="12.2923884"><ele>520.0</ele><time>2026-05-01T16:27:27.52Z</time></trkpt><trkpt lat="43.4945891" lon="12.2922726"><ele>520.0</ele><time>2026-05-01T16:27:28.521Z</time></trkpt><trkpt lat="43.4944964" lon="12.2921551"><ele>520.0</ele><time>2026-05-01T16:27:29.52Z</time></trkpt><trkpt lat="43.4944154" lon="12.2920478"><ele>520.0</ele><time>2026-05-01T16:27:30.521Z</time></trkpt><trkpt lat="43.4943336" lon="12.2919442"><ele>519.4</ele><time>2026-05-01T16:27:31.521Z</time></trkpt><trkpt lat="43.4942567" lon="12.2918411"><ele>518.8</ele><time>2026-05-01T16:27:32.521Z</time></trkpt><trkpt lat="43.4941906" lon="12.2917228"><ele>518.2</ele><time>2026-05-01T16:27:33.521Z</time></trkpt><trkpt lat="43.4941274" lon="12.2915919"><ele>517.6</ele><time>2026-05-01T16:27:34.52Z</time></trkpt><trkpt lat="43.4940774" lon="12.291445"><ele>517.0</ele><time>2026-05-01T16:27:35.521Z</time></trkpt><trkpt lat="43.4940452" lon="12.2912832"><ele>518.2</ele><time>2026-05-01T16:27:36.521Z</time></trkpt><trkpt lat="43.4940238" lon="12.2911171"><ele>519.4000000000001</ele><time>2026-05-01T16:27:37.521Z</time></trkpt><trkpt lat="43.4939899" lon="12.2909817"><ele>520.5999999999999</ele><time>2026-05-01T16:27:38.521Z</time></trkpt><trkpt lat="43.4939421" lon="12.2908662"><ele>521.8</ele><time>2026-05-01T16:27:39.521Z</time></trkpt><trkpt lat="43.4938943" lon="12.2907719"><ele>523.0</ele><time>2026-05-01T16:27:40.52Z</time></trkpt><trkpt lat="43.4938364" lon="12.2906778"><ele>523.0</ele><time>2026-05-01T16:27:42.52Z</time></trkpt><trkpt lat="43.4938241" lon="12.2905846"><ele>523.0</ele><time>2026-05-01T16:27:45.52Z</time></trkpt><trkpt lat="43.4938835" lon="12.2905552"><ele>523.0</ele><time>2026-05-01T16:27:57.521Z</time></trkpt><trkpt lat="43.4939616" lon="12.2906293"><ele>523.0</ele><time>2026-05-01T16:27:59.521Z</time></trkpt><trkpt lat="43.4940369" lon="12.2907029"><ele>523.0</ele><time>2026-05-01T16:28:00.521Z</time></trkpt><trkpt lat="43.4941217" lon="12.2907608"><ele>523.0</ele><time>2026-05-01T16:28:01.521Z</time></trkpt><trkpt lat="43.4942135" lon="12.2908183"><ele>523.0</ele><time>2026-05-01T16:28:02.52Z</time></trkpt><trkpt lat="43.494312" lon="12.2908762"><ele>523.0</ele><time>2026-05-01T16:28:03.521Z</time></trkpt><trkpt lat="43.4944231" lon="12.2909346"><ele>523.0</ele><time>2026-05-01T16:28:04.52Z</time></trkpt><trkpt lat="43.4945357" lon="12.2909921"><ele>523.0</ele><time>2026-05-01T16:28:05.521Z</time></trkpt><trkpt lat="43.4946524" lon="12.2910496"><ele>523.5</ele><time>2026-05-01T16:28:06.521Z</time></trkpt><trkpt lat="43.4947691" lon="12.2911177"><ele>524.0</ele><time>2026-05-01T16:28:07.52Z</time></trkpt><trkpt lat="43.4948875" lon="12.2911978"><ele>524.5</ele><time>2026-05-01T16:28:08.521Z</time></trkpt><trkpt lat="43.4950095" lon="12.2912847"><ele>525.0</ele><time>2026-05-01T16:28:09.521Z</time></trkpt><trkpt lat="43.4951324" lon="12.2913671"><ele>525.75</ele><time>2026-05-01T16:28:10.52Z</time></trkpt><trkpt lat="43.4952508" lon="12.29145"><ele>526.5</ele><time>2026-05-01T16:28:11.521Z</time></trkpt><trkpt lat="43.4953588" lon="12.2915162"><ele>527.25</ele><time>2026-05-01T16:28:12.521Z</time></trkpt><trkpt lat="43.495459" lon="12.291565"><ele>528.0</ele><time>2026-05-01T16:28:13.521Z</time></trkpt><trkpt lat="43.4955577" lon="12.2916064"><ele>528.1999999999999</ele><time>2026-05-01T16:28:14.52Z</time></trkpt><trkpt lat="43.4956509" lon="12.2916357"><ele>528.4</ele><time>2026-05-01T16:28:15.521Z</time></trkpt><trkpt lat="43.4957468" lon="12.2916627"><ele>528.5999999999999</ele><time>2026-05-01T16:28:16.521Z</time></trkpt><trkpt lat="43.4958486" lon="12.2917"><ele>528.8</ele><time>2026-05-01T16:28:17.521Z</time></trkpt><trkpt lat="43.4959537" lon="12.2917595"><ele>529.0</ele><time>2026-05-01T16:28:18.521Z</time></trkpt><trkpt lat="43.4960567" lon="12.2918301"><ele>529.0</ele><time>2026-05-01T16:28:19.52Z</time></trkpt><trkpt lat="43.4961541" lon="12.2919017"><ele>529.0</ele><time>2026-05-01T16:28:20.521Z</time></trkpt><trkpt lat="43.4962514" lon="12.2919726"><ele>529.0</ele><time>2026-05-01T16:28:21.521Z</time></trkpt><trkpt lat="43.4963532" lon="12.2920474"><ele>529.0</ele><time>2026-05-01T16:28:22.521Z</time></trkpt><trkpt lat="43.496465" lon="12.2921237"><ele>529.25</ele><time>2026-05-01T16:28:23.521Z</time></trkpt><trkpt lat="43.4965819" lon="12.292211"><ele>529.5</ele><time>2026-05-01T16:28:24.521Z</time></trkpt><trkpt lat="43.4967017" lon="12.2923018"><ele>529.75</ele><time>2026-05-01T16:28:25.521Z</time></trkpt><trkpt lat="43.4968192" lon="12.2923931"><ele>530.0</ele><time>2026-05-01T16:28:26.521Z</time></trkpt><trkpt lat="43.4969377" lon="12.2924872"><ele>530.0</ele><time>2026-05-01T16:28:27.521Z</time></trkpt><trkpt lat="43.4970556" lon="12.2925668"><ele>530.0</ele><time>2026-05-01T16:28:28.521Z</time></trkpt><trkpt lat="43.497174" lon="12.2926335"><ele>530.0</ele><time>2026-05-01T16:28:29.521Z</time></trkpt><trkpt lat="43.4972971" lon="12.2926822"><ele>530.0</ele><time>2026-05-01T16:28:30.52Z</time></trkpt><trkpt lat="43.4974222" lon="12.2927322"><ele>527.4</ele><time>2026-05-01T16:28:31.521Z</time></trkpt><trkpt lat="43.4975428" lon="12.2927606"><ele>524.8</ele><time>2026-05-01T16:28:32.52Z</time></trkpt><trkpt lat="43.4976527" lon="12.2927532"><ele>522.2</ele><time>2026-05-01T16:28:33.521Z</time></trkpt><trkpt lat="43.4977591" lon="12.2927293"><ele>519.6</ele><time>2026-05-01T16:28:34.521Z</time></trkpt><trkpt lat="43.4978601" lon="12.292686"><ele>517.0</ele><time>2026-05-01T16:28:35.521Z</time></trkpt><trkpt lat="43.4979491" lon="12.2925974"><ele>516.75</ele><time>2026-05-01T16:28:36.52Z</time></trkpt><trkpt lat="43.498022" lon="12.2924625"><ele>516.5</ele><time>2026-05-01T16:28:37.521Z</time></trkpt><trkpt lat="43.498089" lon="12.2923157"><ele>516.25</ele><time>2026-05-01T16:28:38.521Z</time></trkpt><trkpt lat="43.498146" lon="12.2921651"><ele>516.0</ele><time>2026-05-01T16:28:39.521Z</time></trkpt><trkpt lat="43.4982041" lon="12.2920307"><ele>514.0</ele><time>2026-05-01T16:28:40.521Z</time></trkpt><trkpt lat="43.4982667" lon="12.2919054"><ele>512.0</ele><time>2026-05-01T16:28:41.52Z</time></trkpt><trkpt lat="43.4983297" lon="12.2918006"><ele>510.0</ele><time>2026-05-01T16:28:42.521Z</time></trkpt><trkpt lat="43.4983834" lon="12.2917232"><ele>508.0</ele><time>2026-05-01T16:28:43.52Z</time></trkpt><trkpt lat="43.4984587" lon="12.2915843"><ele>506.0</ele><time>2026-05-01T16:28:45.52Z</time></trkpt><trkpt lat="43.4984795" lon="12.2914921"><ele>504.4</ele><time>2026-05-01T16:28:46.521Z</time></trkpt><trkpt lat="43.4984721" lon="12.291383"><ele>502.8</ele><time>2026-05-01T16:28:47.52Z</time></trkpt><trkpt lat="43.4984389" lon="12.2912621"><ele>501.19999999999993</ele><time>2026-05-01T16:28:48.521Z</time></trkpt><trkpt lat="43.4983802" lon="12.2911375"><ele>499.59999999999997</ele><time>2026-05-01T16:28:49.521Z</time></trkpt><trkpt lat="43.4983072" lon="12.2910009"><ele>498.0</ele><time>2026-05-01T16:28:50.521Z</time></trkpt><trkpt lat="43.4982303" lon="12.2908571"><ele>498.0</ele><time>2026-05-01T16:28:51.521Z</time></trkpt><trkpt lat="43.4981574" lon="12.2907183"><ele>498.0</ele><time>2026-05-01T16:28:52.521Z</time></trkpt><trkpt lat="43.498094" lon="12.2905819"><ele>498.0</ele><time>2026-05-01T16:28:53.521Z</time></trkpt><trkpt lat="43.4980369" lon="12.2904474"><ele>498.0</ele><time>2026-05-01T16:28:54.521Z</time></trkpt><trkpt lat="43.4979839" lon="12.2903073"><ele>496.4</ele><time>2026-05-01T16:28:55.521Z</time></trkpt><trkpt lat="43.4979346" lon="12.2901739"><ele>494.79999999999995</ele><time>2026-05-01T16:28:56.521Z</time></trkpt><trkpt lat="43.4978967" lon="12.2900407"><ele>493.2</ele><time>2026-05-01T16:28:57.521Z</time></trkpt><trkpt lat="43.4978678" lon="12.2899113"><ele>491.6</ele><time>2026-05-01T16:28:58.52Z</time></trkpt><trkpt lat="43.4978492" lon="12.2897974"><ele>490.0</ele><time>2026-05-01T16:28:59.521Z</time></trkpt><trkpt lat="43.4978514" lon="12.2896888"><ele>489.4</ele><time>2026-05-01T16:29:00.521Z</time></trkpt><trkpt lat="43.4978693" lon="12.2895698"><ele>488.8</ele><time>2026-05-01T16:29:01.521Z</time></trkpt><trkpt lat="43.4979095" lon="12.2894468"><ele>488.20000000000005</ele><time>2026-05-01T16:29:02.52Z</time></trkpt><trkpt lat="43.4979453" lon="12.2893143"><ele>487.6</ele><time>2026-05-01T16:29:03.521Z</time></trkpt><trkpt lat="43.4979738" lon="12.2891992"><ele>487.0</ele><time>2026-05-01T16:29:04.52Z</time></trkpt><trkpt lat="43.4979777" lon="12.2890709"><ele>487.00000000000006</ele><time>2026-05-01T16:29:05.521Z</time></trkpt><trkpt lat="43.497955" lon="12.2889528"><ele>487.0</ele><time>2026-05-01T16:29:06.521Z</time></trkpt><trkpt lat="43.4979255" lon="12.2888385"><ele>487.0</ele><time>2026-05-01T16:29:07.52Z</time></trkpt><trkpt lat="43.4978875" lon="12.2887294"><ele>487.0</ele><time>2026-05-01T16:29:08.521Z</time></trkpt><trkpt lat="43.4978444" lon="12.288635"><ele>487.00000000000006</ele><time>2026-05-01T16:29:09.521Z</time></trkpt><trkpt lat="43.4977894" lon="12.2885238"><ele>487.0</ele><time>2026-05-01T16:29:10.521Z</time></trkpt><trkpt lat="43.4977508" lon="12.2884168"><ele>484.1666666666667</ele><time>2026-05-01T16:29:11.521Z</time></trkpt><trkpt lat="43.497737" lon="12.2883121"><ele>481.33333333333337</ele><time>2026-05-01T16:29:12.521Z</time></trkpt><trkpt lat="43.4977563" lon="12.2882021"><ele>478.5</ele><time>2026-05-01T16:29:13.52Z</time></trkpt><trkpt lat="43.4977816" lon="12.2880901"><ele>475.66666666666663</ele><time>2026-05-01T16:29:14.52Z</time></trkpt><trkpt lat="43.497821" lon="12.2879828"><ele>472.8333333333333</ele><time>2026-05-01T16:29:15.52Z</time></trkpt><trkpt lat="43.4978733" lon="12.2878852"><ele>470.0</ele><time>2026-05-01T16:29:16.521Z</time></trkpt><trkpt lat="43.4979301" lon="12.2877882"><ele>470.0</ele><time>2026-05-01T16:29:17.521Z</time></trkpt><trkpt lat="43.4979764" lon="12.2876829"><ele>470.0</ele><time>2026-05-01T16:29:18.521Z</time></trkpt><trkpt lat="43.4980138" lon="12.2875484"><ele>470.0</ele><time>2026-05-01T16:29:19.521Z</time></trkpt><trkpt lat="43.4980226" lon="12.287396"><ele>470.0</ele><time>2026-05-01T16:29:20.521Z</time></trkpt><trkpt lat="43.4980139" lon="12.2872165"><ele>470.0</ele><time>2026-05-01T16:29:21.52Z</time></trkpt><trkpt lat="43.4979886" lon="12.2870476"><ele>468.3333333333333</ele><time>2026-05-01T16:29:22.52Z</time></trkpt><trkpt lat="43.4979514" lon="12.2868975"><ele>466.66666666666663</ele><time>2026-05-01T16:29:23.521Z</time></trkpt><trkpt lat="43.4979153" lon="12.286771"><ele>465.0</ele><time>2026-05-01T16:29:24.52Z</time></trkpt><trkpt lat="43.4978811" lon="12.2866834"><ele>463.33333333333337</ele><time>2026-05-01T16:29:25.521Z</time></trkpt><trkpt lat="43.4978482" lon="12.2866085"><ele>461.6666666666667</ele><time>2026-05-01T16:29:26.521Z</time></trkpt><trkpt lat="43.4978195" lon="12.2865305"><ele>460.0</ele><time>2026-05-01T16:29:27.521Z</time></trkpt><trkpt lat="43.4977862" lon="12.2864079"><ele>459.33333333333337</ele><time>2026-05-01T16:29:29.52Z</time></trkpt><trkpt lat="43.4977646" lon="12.2863031"><ele>458.6666666666667</ele><time>2026-05-01T16:29:31.521Z</time></trkpt><trkpt lat="43.4977406" lon="12.2862142"><ele>458.0</ele><time>2026-05-01T16:29:40.521Z</time></trkpt><trkpt lat="43.4977236" lon="12.2860625"><ele>457.33333333333337</ele><time>2026-05-01T16:29:43.521Z</time></trkpt><trkpt lat="43.4976826" lon="12.2859027"><ele>456.6666666666667</ele><time>2026-05-01T16:29:45.521Z</time></trkpt><trkpt lat="43.4976569" lon="12.2858208"><ele>456.0</ele><time>2026-05-01T16:29:46.521Z</time></trkpt><trkpt lat="43.4976258" lon="12.2857398"><ele>456.0</ele><time>2026-05-01T16:29:47.521Z</time></trkpt><trkpt lat="43.4976" lon="12.2856497"><ele>456.0</ele><time>2026-05-01T16:29:48.521Z</time></trkpt><trkpt lat="43.4975914" lon="12.2855455"><ele>456.0</ele><time>2026-05-01T16:29:49.521Z</time></trkpt><trkpt lat="43.4976029" lon="12.2854325"><ele>456.0</ele><time>2026-05-01T16:29:50.521Z</time></trkpt><trkpt lat="43.4976277" lon="12.2853204"><ele>456.0</ele><time>2026-05-01T16:29:51.521Z</time></trkpt><trkpt lat="43.4976658" lon="12.2852144"><ele>456.0</ele><time>2026-05-01T16:29:52.52Z</time></trkpt><trkpt lat="43.4977063" lon="12.285108"><ele>456.20000000000005</ele><time>2026-05-01T16:29:53.521Z</time></trkpt><trkpt lat="43.4977422" lon="12.2850114"><ele>456.40000000000003</ele><time>2026-05-01T16:29:54.521Z</time></trkpt><trkpt lat="43.4977778" lon="12.2849143"><ele>456.6</ele><time>2026-05-01T16:29:55.521Z</time></trkpt><trkpt lat="43.4978112" lon="12.2848248"><ele>456.8</ele><time>2026-05-01T16:29:56.52Z</time></trkpt><trkpt lat="43.4978728" lon="12.2846888"><ele>457.0</ele><time>2026-05-01T16:29:58.52Z</time></trkpt><trkpt lat="43.497947" lon="12.2845897"><ele>457.40000000000003</ele><time>2026-05-01T16:30:00.521Z</time></trkpt><trkpt lat="43.4980045" lon="12.2845145"><ele>457.80000000000007</ele><time>2026-05-01T16:30:02.521Z</time></trkpt><trkpt lat="43.4980576" lon="12.2843878"><ele>458.2</ele><time>2026-05-01T16:30:04.521Z</time></trkpt><trkpt lat="43.4981103" lon="12.2842542"><ele>458.6</ele><time>2026-05-01T16:30:06.521Z</time></trkpt><trkpt lat="43.4981712" lon="12.2841432"><ele>459.0</ele><time>2026-05-01T16:30:08.521Z</time></trkpt><trkpt lat="43.4982429" lon="12.2840093"><ele>459.0</ele><time>2026-05-01T16:30:10.521Z</time></trkpt><trkpt lat="43.4982865" lon="12.2839362"><ele>459.0</ele><time>2026-05-01T16:30:11.52Z</time></trkpt><trkpt lat="43.4983212" lon="12.2838559"><ele>459.0</ele><time>2026-05-01T16:30:12.521Z</time></trkpt><trkpt lat="43.4983484" lon="12.2837678"><ele>459.0</ele><time>2026-05-01T16:30:13.52Z</time></trkpt><trkpt lat="43.498372" lon="12.283677"><ele>459.0</ele><time>2026-05-01T16:30:14.52Z</time></trkpt><trkpt lat="43.4983906" lon="12.2835798"><ele>459.0</ele><time>2026-05-01T16:30:15.521Z</time></trkpt><trkpt lat="43.498395" lon="12.2834755"><ele>459.0</ele><time>2026-05-01T16:30:16.521Z</time></trkpt><trkpt lat="43.4983945" lon="12.2833795"><ele>458.6666666666667</ele><time>2026-05-01T16:30:17.521Z</time></trkpt><trkpt lat="43.4983955" lon="12.2832289"><ele>458.33333333333337</ele><time>2026-05-01T16:30:19.521Z</time></trkpt><trkpt lat="43.4983991" lon="12.2831042"><ele>458.0</ele><time>2026-05-01T16:30:21.521Z</time></trkpt><trkpt lat="43.4984032" lon="12.2829655"><ele>457.6666666666667</ele><time>2026-05-01T16:30:52.521Z</time></trkpt><trkpt lat="43.4984315" lon="12.2828877"><ele>457.33333333333337</ele><time>2026-05-01T16:30:53.521Z</time></trkpt><trkpt lat="43.4984628" lon="12.2827915"><ele>457.0</ele><time>2026-05-01T16:30:54.52Z</time></trkpt><trkpt lat="43.4984894" lon="12.2826846"><ele>457.0</ele><time>2026-05-01T16:30:55.521Z</time></trkpt><trkpt lat="43.4985242" lon="12.2825615"><ele>457.00000000000006</ele><time>2026-05-01T16:30:56.521Z</time></trkpt><trkpt lat="43.4985527" lon="12.2824323"><ele>457.00000000000006</ele><time>2026-05-01T16:30:57.52Z</time></trkpt><trkpt lat="43.498586" lon="12.2823059"><ele>457.0</ele><time>2026-05-01T16:30:58.521Z</time></trkpt><trkpt lat="43.4986137" lon="12.2821775"><ele>457.0</ele><time>2026-05-01T16:30:59.521Z</time></trkpt><trkpt lat="43.4986442" lon="12.2820606"><ele>455.33333333333337</ele><time>2026-05-01T16:31:00.521Z</time></trkpt><trkpt lat="43.4986891" lon="12.2819723"><ele>453.6666666666667</ele><time>2026-05-01T16:31:01.521Z</time></trkpt><trkpt lat="43.4987477" lon="12.2819153"><ele>452.0</ele><time>2026-05-01T16:31:02.52Z</time></trkpt><trkpt lat="43.498821" lon="12.2818855"><ele>450.33333333333337</ele><time>2026-05-01T16:31:03.521Z</time></trkpt><trkpt lat="43.498884" lon="12.2818471"><ele>448.6666666666667</ele><time>2026-05-01T16:31:04.521Z</time></trkpt><trkpt lat="43.498931" lon="12.2817344"><ele>447.0</ele><time>2026-05-01T16:31:06.52Z</time></trkpt><trkpt lat="43.4988986" lon="12.2815999"><ele>446.99999999999994</ele><time>2026-05-01T16:31:08.521Z</time></trkpt><trkpt lat="43.4988491" lon="12.281514"><ele>447.0</ele><time>2026-05-01T16:31:09.521Z</time></trkpt><trkpt lat="43.4988151" lon="12.2814389"><ele>447.0</ele><time>2026-05-01T16:31:10.52Z</time></trkpt><trkpt lat="43.4987731" lon="12.2813426"><ele>447.0</ele><time>2026-05-01T16:31:11.521Z</time></trkpt><trkpt lat="43.4987451" lon="12.2812389"><ele>447.0</ele><time>2026-05-01T16:31:12.521Z</time></trkpt><trkpt lat="43.4987214" lon="12.2811386"><ele>446.99999999999994</ele><time>2026-05-01T16:31:13.521Z</time></trkpt><trkpt lat="43.4986979" lon="12.2810549"><ele>447.0</ele><time>2026-05-01T16:31:14.521Z</time></trkpt><trkpt lat="43.4986478" lon="12.2809088"><ele>448.6666666666667</ele><time>2026-05-01T16:31:16.521Z</time></trkpt><trkpt lat="43.4985817" lon="12.2807684"><ele>450.33333333333337</ele><time>2026-05-01T16:31:18.521Z</time></trkpt><trkpt lat="43.4985293" lon="12.2806949"><ele>452.0</ele><time>2026-05-01T16:31:19.521Z</time></trkpt><trkpt lat="43.4984733" lon="12.2806252"><ele>453.6666666666667</ele><time>2026-05-01T16:31:20.52Z</time></trkpt><trkpt lat="43.4984248" lon="12.2805515"><ele>455.33333333333337</ele><time>2026-05-01T16:31:21.521Z</time></trkpt><trkpt lat="43.4983862" lon="12.2804616"><ele>457.0</ele><time>2026-05-01T16:31:22.52Z</time></trkpt><trkpt lat="43.4983486" lon="12.280358"><ele>457.00000000000006</ele><time>2026-05-01T16:31:23.521Z</time></trkpt><trkpt lat="43.4983132" lon="12.2802458"><ele>457.0</ele><time>2026-05-01T16:31:24.521Z</time></trkpt><trkpt lat="43.4982896" lon="12.2801337"><ele>457.0</ele><time>2026-05-01T16:31:25.521Z</time></trkpt><trkpt lat="43.4982735" lon="12.2800252"><ele>457.0</ele><time>2026-05-01T16:31:26.521Z</time></trkpt><trkpt lat="43.4982588" lon="12.2799124"><ele>457.00000000000006</ele><time>2026-05-01T16:31:27.521Z</time></trkpt><trkpt lat="43.498252" lon="12.279801"><ele>457.0</ele><time>2026-05-01T16:31:28.521Z</time></trkpt><trkpt lat="43.4982552" lon="12.2796909"><ele>456.6666666666667</ele><time>2026-05-01T16:31:29.521Z</time></trkpt><trkpt lat="43.4982631" lon="12.279574"><ele>456.33333333333337</ele><time>2026-05-01T16:31:30.521Z</time></trkpt><trkpt lat="43.4982547" lon="12.2794701"><ele>456.0</ele><time>2026-05-01T16:31:31.521Z</time></trkpt><trkpt lat="43.4982284" lon="12.2793784"><ele>455.66666666666663</ele><time>2026-05-01T16:31:32.521Z</time></trkpt><trkpt lat="43.4981956" lon="12.2792882"><ele>455.3333333333333</ele><time>2026-05-01T16:31:33.521Z</time></trkpt><trkpt lat="43.4981696" lon="12.2791918"><ele>455.0</ele><time>2026-05-01T16:31:34.521Z</time></trkpt><trkpt lat="43.4981498" lon="12.27908"><ele>454.99999999999994</ele><time>2026-05-01T16:31:35.521Z</time></trkpt><trkpt lat="43.4981288" lon="12.2789741"><ele>455.0</ele><time>2026-05-01T16:31:36.52Z</time></trkpt><trkpt lat="43.4981108" lon="12.2788739"><ele>455.0</ele><time>2026-05-01T16:31:37.521Z</time></trkpt><trkpt lat="43.49808" lon="12.2787665"><ele>455.0</ele><time>2026-05-01T16:31:38.521Z</time></trkpt><trkpt lat="43.4980585" lon="12.2786555"><ele>454.99999999999994</ele><time>2026-05-01T16:31:39.521Z</time></trkpt><trkpt lat="43.4980361" lon="12.2785305"><ele>455.0</ele><time>2026-05-01T16:31:40.521Z</time></trkpt><trkpt lat="43.4980093" lon="12.2784083"><ele>454.49999999999994</ele><time>2026-05-01T16:31:41.521Z</time></trkpt><trkpt lat="43.4979817" lon="12.278298"><ele>454.0</ele><time>2026-05-01T16:31:42.521Z</time></trkpt><trkpt lat="43.4979535" lon="12.2781822"><ele>453.5</ele><time>2026-05-01T16:31:43.521Z</time></trkpt><trkpt lat="43.4979228" lon="12.2780737"><ele>453.0</ele><time>2026-05-01T16:31:44.521Z</time></trkpt><trkpt lat="43.497898" lon="12.2779791"><ele>452.49999999999994</ele><time>2026-05-01T16:31:45.52Z</time></trkpt><trkpt lat="43.4978813" lon="12.2778922"><ele>452.0</ele><time>2026-05-01T16:31:46.521Z</time></trkpt><trkpt lat="43.4978746" lon="12.277801"><ele>453.66666666666663</ele><time>2026-05-01T16:31:47.52Z</time></trkpt><trkpt lat="43.4978713" lon="12.2777048"><ele>455.3333333333333</ele><time>2026-05-01T16:31:48.521Z</time></trkpt><trkpt lat="43.4978698" lon="12.2776108"><ele>457.0</ele><time>2026-05-01T16:31:49.52Z</time></trkpt><trkpt lat="43.4978544" lon="12.2775128"><ele>458.66666666666663</ele><time>2026-05-01T16:31:50.521Z</time></trkpt><trkpt lat="43.4978371" lon="12.2773502"><ele>460.3333333333333</ele><time>2026-05-01T16:31:52.521Z</time></trkpt><trkpt lat="43.497877" lon="12.2771955"><ele>462.0</ele><time>2026-05-01T16:31:54.521Z</time></trkpt><trkpt lat="43.4979117" lon="12.2771058"><ele>461.1666666666667</ele><time>2026-05-01T16:31:55.521Z</time></trkpt><trkpt lat="43.4979546" lon="12.277016"><ele>460.33333333333337</ele><time>2026-05-01T16:31:56.521Z</time></trkpt><trkpt lat="43.4979944" lon="12.2769134"><ele>459.5</ele><time>2026-05-01T16:31:57.521Z</time></trkpt><trkpt lat="43.4980339" lon="12.276789"><ele>458.6666666666667</ele><time>2026-05-01T16:31:58.52Z</time></trkpt><trkpt lat="43.4980774" lon="12.2766858"><ele>457.83333333333337</ele><time>2026-05-01T16:31:59.521Z</time></trkpt><trkpt lat="43.4981057" lon="12.2765894"><ele>457.0</ele><time>2026-05-01T16:32:00.521Z</time></trkpt><trkpt lat="43.4981041" lon="12.2764933"><ele>458.00000000000006</ele><time>2026-05-01T16:32:01.521Z</time></trkpt><trkpt lat="43.4980742" lon="12.2764153"><ele>459.0</ele><time>2026-05-01T16:32:02.521Z</time></trkpt><trkpt lat="43.4980428" lon="12.2763398"><ele>460.0</ele><time>2026-05-01T16:32:03.521Z</time></trkpt><trkpt lat="43.4979512" lon="12.2762173"><ele>461.0</ele><time>2026-05-01T16:32:05.521Z</time></trkpt><trkpt lat="43.4978946" lon="12.2761506"><ele>462.00000000000006</ele><time>2026-05-01T16:32:06.521Z</time></trkpt><trkpt lat="43.4978328" lon="12.2761083"><ele>463.0</ele><time>2026-05-01T16:32:07.52Z</time></trkpt><trkpt lat="43.4977611" lon="12.2760466"><ele>463.00000000000006</ele><time>2026-05-01T16:32:09.521Z</time></trkpt><trkpt lat="43.4977194" lon="12.2759625"><ele>463.0</ele><time>2026-05-01T16:32:19.521Z</time></trkpt><trkpt lat="43.4976701" lon="12.2758897"><ele>463.0</ele><time>2026-05-01T16:33:15.521Z</time></trkpt><trkpt lat="43.4976049" lon="12.2758255"><ele>463.0</ele><time>2026-05-01T16:33:17.521Z</time></trkpt><trkpt lat="43.4975443" lon="12.2757351"><ele>463.00000000000006</ele><time>2026-05-01T16:33:19.521Z</time></trkpt><trkpt lat="43.4975162" lon="12.275626"><ele>463.0</ele><time>2026-05-01T16:33:21.521Z</time></trkpt><trkpt lat="43.4975191" lon="12.2755122"><ele>463.0</ele><time>2026-05-01T16:33:23.521Z</time></trkpt><trkpt lat="43.4975366" lon="12.275399"><ele>462.99999999999994</ele><time>2026-05-01T16:33:25.521Z</time></trkpt><trkpt lat="43.4975457" lon="12.2753047"><ele>463.0</ele><time>2026-05-01T16:33:26.521Z</time></trkpt><trkpt lat="43.4975662" lon="12.275217"><ele>463.0</ele><time>2026-05-01T16:33:27.521Z</time></trkpt><trkpt lat="43.4975855" lon="12.2751163"><ele>462.99999999999994</ele><time>2026-05-01T16:33:28.521Z</time></trkpt><trkpt lat="43.4976006" lon="12.2750029"><ele>463.0</ele><time>2026-05-01T16:33:29.521Z</time></trkpt><trkpt lat="43.4976045" lon="12.2749067"><ele>463.0</ele><time>2026-05-01T16:33:30.521Z</time></trkpt><trkpt lat="43.4976219" lon="12.2747818"><ele>463.83333333333337</ele><time>2026-05-01T16:33:32.52Z</time></trkpt><trkpt lat="43.4976488" lon="12.2746943"><ele>464.6666666666667</ele><time>2026-05-01T16:33:44.52Z</time></trkpt><trkpt lat="43.4976807" lon="12.2745932"><ele>465.5</ele><time>2026-05-01T16:33:47.521Z</time></trkpt><trkpt lat="43.4977034" lon="12.2744814"><ele>466.33333333333337</ele><time>2026-05-01T16:33:49.521Z</time></trkpt><trkpt lat="43.4976236" lon="12.2743521"><ele>467.1666666666667</ele><time>2026-05-01T16:33:52.52Z</time></trkpt><trkpt lat="43.4975629" lon="12.2743039"><ele>468.0</ele><time>2026-05-01T16:33:53.521Z</time></trkpt><trkpt lat="43.497503" lon="12.2742372"><ele>468.0</ele><time>2026-05-01T16:33:54.521Z</time></trkpt><trkpt lat="43.4974401" lon="12.2741688"><ele>468.0</ele><time>2026-05-01T16:33:55.52Z</time></trkpt><trkpt lat="43.4973732" lon="12.2741141"><ele>468.0</ele><time>2026-05-01T16:33:56.521Z</time></trkpt><trkpt lat="43.4973018" lon="12.2740756"><ele>468.0</ele><time>2026-05-01T16:33:57.52Z</time></trkpt><trkpt lat="43.4971993" lon="12.2740426"><ele>468.0</ele><time>2026-05-01T16:33:59.521Z</time></trkpt><trkpt lat="43.4971269" lon="12.2739687"><ele>468.0</ele><time>2026-05-01T16:34:01.521Z</time></trkpt><trkpt lat="43.4970805" lon="12.2738071"><ele>469.0</ele><time>2026-05-01T16:34:03.521Z</time></trkpt><trkpt lat="43.4970554" lon="12.2737061"><ele>470.0</ele><time>2026-05-01T16:34:04.521Z</time></trkpt><trkpt lat="43.4970257" lon="12.2735888"><ele>471.0</ele><time>2026-05-01T16:34:05.52Z</time></trkpt><trkpt lat="43.4970035" lon="12.2735035"><ele>472.0</ele><time>2026-05-01T16:34:06.521Z</time></trkpt><trkpt lat="43.49695" lon="12.273364"><ele>473.0</ele><time>2026-05-01T16:34:08.52Z</time></trkpt><trkpt lat="43.4968793" lon="12.2732766"><ele>474.0</ele><time>2026-05-01T16:34:10.521Z</time></trkpt><trkpt lat="43.4967926" lon="12.2731861"><ele>474.0</ele><time>2026-05-01T16:34:12.521Z</time></trkpt><trkpt lat="43.4967425" lon="12.2731129"><ele>474.0</ele><time>2026-05-01T16:34:13.521Z</time></trkpt><trkpt lat="43.4966673" lon="12.2730223"><ele>474.0</ele><time>2026-05-01T16:34:15.521Z</time></trkpt><trkpt lat="43.4966482" lon="12.2729391"><ele>474.0</ele><time>2026-05-01T16:34:18.521Z</time></trkpt><trkpt lat="43.4967167" lon="12.2729355"><ele>474.0</ele><time>2026-05-01T16:35:08.522Z</time></trkpt><trkpt lat="43.4967889" lon="12.2729842"><ele>474.0</ele><time>2026-05-01T16:35:11.522Z</time></trkpt><trkpt lat="43.4968189" lon="12.2731275"><ele>474.0</ele><time>2026-05-01T16:35:13.522Z</time></trkpt><trkpt lat="43.4968565" lon="12.2732781"><ele>474.0</ele><time>2026-05-01T16:35:15.522Z</time></trkpt><trkpt lat="43.4969317" lon="12.2733818"><ele>474.0</ele><time>2026-05-01T16:35:17.522Z</time></trkpt><trkpt lat="43.4970076" lon="12.2733947"><ele>474.0</ele><time>2026-05-01T16:35:19.522Z</time></trkpt><trkpt lat="43.4970525" lon="12.2733164"><ele>474.0</ele><time>2026-05-01T16:35:22.522Z</time></trkpt><trkpt lat="43.4970911" lon="12.2732043"><ele>473.4</ele><time>2026-05-01T16:35:42.522Z</time></trkpt><trkpt lat="43.4970963" lon="12.2730855"><ele>472.79999999999995</ele><time>2026-05-01T16:35:44.521Z</time></trkpt><trkpt lat="43.49708" lon="12.2729383"><ele>472.20000000000005</ele><time>2026-05-01T16:35:46.521Z</time></trkpt><trkpt lat="43.4970477" lon="12.2727981"><ele>471.6</ele><time>2026-05-01T16:35:48.522Z</time></trkpt><trkpt lat="43.4970172" lon="12.2726616"><ele>471.0</ele><time>2026-05-01T16:35:50.522Z</time></trkpt><trkpt lat="43.4969843" lon="12.2725271"><ele>471.0</ele><time>2026-05-01T16:35:52.522Z</time></trkpt><trkpt lat="43.4969528" lon="12.272408"><ele>471.0</ele><time>2026-05-01T16:35:54.522Z</time></trkpt><trkpt lat="43.4969134" lon="12.2722947"><ele>471.0</ele><time>2026-05-01T16:35:56.522Z</time></trkpt><trkpt lat="43.4968819" lon="12.2721935"><ele>471.0</ele><time>2026-05-01T16:35:58.522Z</time></trkpt><trkpt lat="43.4968503" lon="12.2721082"><ele>471.0</ele><time>2026-05-01T16:36:01.521Z</time></trkpt><trkpt lat="43.4968974" lon="12.2720202"><ele>471.0</ele><time>2026-05-01T16:37:18.521Z</time></trkpt><trkpt lat="43.4969501" lon="12.2718915"><ele>471.0</ele><time>2026-05-01T16:37:20.522Z</time></trkpt><trkpt lat="43.4970222" lon="12.2717207"><ele>471.0</ele><time>2026-05-01T16:37:22.522Z</time></trkpt><trkpt lat="43.4970849" lon="12.2716234"><ele>471.0</ele><time>2026-05-01T16:37:23.522Z</time></trkpt><trkpt lat="43.4971525" lon="12.2715166"><ele>471.0</ele><time>2026-05-01T16:37:24.522Z</time></trkpt><trkpt lat="43.4972129" lon="12.2714212"><ele>471.0</ele><time>2026-05-01T16:37:25.522Z</time></trkpt><trkpt lat="43.4972688" lon="12.2713268"><ele>471.0</ele><time>2026-05-01T16:37:26.522Z</time></trkpt><trkpt lat="43.4973158" lon="12.2712505"><ele>471.0</ele><time>2026-05-01T16:37:27.521Z</time></trkpt><trkpt lat="43.4974023" lon="12.2711627"><ele>471.0</ele><time>2026-05-01T16:37:29.522Z</time></trkpt><trkpt lat="43.4974388" lon="12.2710229"><ele>471.0</ele><time>2026-05-01T16:37:51.522Z</time></trkpt><trkpt lat="43.4974774" lon="12.2708761"><ele>471.0</ele><time>2026-05-01T16:37:53.522Z</time></trkpt><trkpt lat="43.4975309" lon="12.2707389"><ele>471.0</ele><time>2026-05-01T16:37:55.522Z</time></trkpt><trkpt lat="43.4975925" lon="12.2706338"><ele>471.0</ele><time>2026-05-01T16:37:57.522Z</time></trkpt><trkpt lat="43.4976707" lon="12.270523"><ele>471.0</ele><time>2026-05-01T16:37:59.522Z</time></trkpt><trkpt lat="43.4977599" lon="12.2704337"><ele>471.0</ele><time>2026-05-01T16:38:01.522Z</time></trkpt><trkpt lat="43.497836" lon="12.2703769"><ele>471.0</ele><time>2026-05-01T16:38:03.522Z</time></trkpt><trkpt lat="43.4979223" lon="12.2702907"><ele>467.6</ele><time>2026-05-01T16:38:05.522Z</time></trkpt><trkpt lat="43.498008" lon="12.2701728"><ele>464.20000000000005</ele><time>2026-05-01T16:38:07.521Z</time></trkpt><trkpt lat="43.4980539" lon="12.2700963"><ele>460.79999999999995</ele><time>2026-05-01T16:38:08.522Z</time></trkpt><trkpt lat="43.4981162" lon="12.2700284"><ele>457.4</ele><time>2026-05-01T16:38:09.521Z</time></trkpt><trkpt lat="43.4982009" lon="12.2699615"><ele>454.0</ele><time>2026-05-01T16:38:10.522Z</time></trkpt><trkpt lat="43.4982953" lon="12.2699011"><ele>454.0</ele><time>2026-05-01T16:38:11.522Z</time></trkpt><trkpt lat="43.4983788" lon="12.2698121"><ele>454.0</ele><time>2026-05-01T16:38:12.522Z</time></trkpt><trkpt lat="43.4984581" lon="12.2697136"><ele>454.0</ele><time>2026-05-01T16:38:13.521Z</time></trkpt><trkpt lat="43.4985336" lon="12.2696119"><ele>454.0</ele><time>2026-05-01T16:38:14.522Z</time></trkpt><trkpt lat="43.4986031" lon="12.2695164"><ele>454.0</ele><time>2026-05-01T16:38:15.522Z</time></trkpt><trkpt lat="43.4986727" lon="12.2694253"><ele>453.6666666666667</ele><time>2026-05-01T16:38:16.522Z</time></trkpt><trkpt lat="43.4987464" lon="12.2693422"><ele>453.33333333333337</ele><time>2026-05-01T16:38:17.522Z</time></trkpt><trkpt lat="43.498814" lon="12.2692853"><ele>453.0</ele><time>2026-05-01T16:38:18.521Z</time></trkpt><trkpt lat="43.4988838" lon="12.2692491"><ele>452.66666666666663</ele><time>2026-05-01T16:38:19.522Z</time></trkpt><trkpt lat="43.4989482" lon="12.2692325"><ele>452.3333333333333</ele><time>2026-05-01T16:38:20.522Z</time></trkpt><trkpt lat="43.499015" lon="12.2692095"><ele>452.0</ele><time>2026-05-01T16:38:21.521Z</time></trkpt><trkpt lat="43.4991166" lon="12.2691421"><ele>451.99999999999994</ele><time>2026-05-01T16:38:23.522Z</time></trkpt><trkpt lat="43.4991755" lon="12.2690681"><ele>452.0</ele><time>2026-05-01T16:38:24.521Z</time></trkpt><trkpt lat="43.4992285" lon="12.2689649"><ele>452.0</ele><time>2026-05-01T16:38:25.522Z</time></trkpt><trkpt lat="43.4992741" lon="12.2688687"><ele>452.0</ele><time>2026-05-01T16:38:26.522Z</time></trkpt><trkpt lat="43.4993164" lon="12.2687648"><ele>451.99999999999994</ele><time>2026-05-01T16:38:27.522Z</time></trkpt><trkpt lat="43.499351" lon="12.2686508"><ele>452.0</ele><time>2026-05-01T16:38:28.521Z</time></trkpt><trkpt lat="43.4993811" lon="12.2685344"><ele>452.3333333333333</ele><time>2026-05-01T16:38:29.522Z</time></trkpt><trkpt lat="43.4994121" lon="12.2684287"><ele>452.66666666666663</ele><time>2026-05-01T16:38:30.521Z</time></trkpt><trkpt lat="43.4994447" lon="12.2683408"><ele>453.0</ele><time>2026-05-01T16:38:31.522Z</time></trkpt><trkpt lat="43.4994753" lon="12.2682456"><ele>453.33333333333337</ele><time>2026-05-01T16:38:32.521Z</time></trkpt><trkpt lat="43.4995095" lon="12.2681576"><ele>453.6666666666667</ele><time>2026-05-01T16:38:33.522Z</time></trkpt><trkpt lat="43.4995414" lon="12.2680747"><ele>454.0</ele><time>2026-05-01T16:38:34.522Z</time></trkpt><trkpt lat="43.4995663" lon="12.2679198"><ele>454.4</ele><time>2026-05-01T16:38:36.521Z</time></trkpt><trkpt lat="43.4995507" lon="12.2677833"><ele>454.79999999999995</ele><time>2026-05-01T16:38:38.522Z</time></trkpt><trkpt lat="43.4995453" lon="12.2676806"><ele>455.20000000000005</ele><time>2026-05-01T16:38:46.522Z</time></trkpt><trkpt lat="43.4995334" lon="12.2675309"><ele>455.6</ele><time>2026-05-01T16:38:48.522Z</time></trkpt><trkpt lat="43.4995752" lon="12.2673915"><ele>456.0</ele><time>2026-05-01T16:38:50.522Z</time></trkpt><trkpt lat="43.4996234" lon="12.2673088"><ele>457.8333333333333</ele><time>2026-05-01T16:38:51.522Z</time></trkpt><trkpt lat="43.4996794" lon="12.2672395"><ele>459.66666666666663</ele><time>2026-05-01T16:38:52.521Z</time></trkpt><trkpt lat="43.4997418" lon="12.267168"><ele>461.5</ele><time>2026-05-01T16:38:53.521Z</time></trkpt><trkpt lat="43.4998116" lon="12.2670963"><ele>463.3333333333333</ele><time>2026-05-01T16:38:54.522Z</time></trkpt><trkpt lat="43.4998743" lon="12.2670201"><ele>465.16666666666663</ele><time>2026-05-01T16:38:55.522Z</time></trkpt><trkpt lat="43.4999244" lon="12.2669428"><ele>467.0</ele><time>2026-05-01T16:38:56.522Z</time></trkpt><trkpt lat="43.4999521" lon="12.2668608"><ele>467.0</ele><time>2026-05-01T16:38:57.522Z</time></trkpt><trkpt lat="43.4999389" lon="12.2666956"><ele>467.00000000000006</ele><time>2026-05-01T16:38:59.521Z</time></trkpt><trkpt lat="43.4999014" lon="12.2666027"><ele>467.00000000000006</ele><time>2026-05-01T16:39:00.522Z</time></trkpt><trkpt lat="43.4998542" lon="12.2665055"><ele>467.0</ele><time>2026-05-01T16:39:01.522Z</time></trkpt><trkpt lat="43.499805" lon="12.2663922"><ele>467.0</ele><time>2026-05-01T16:39:02.522Z</time></trkpt><trkpt lat="43.49976" lon="12.2662773"><ele>466.0</ele><time>2026-05-01T16:39:03.522Z</time></trkpt><trkpt lat="43.4997162" lon="12.2661601"><ele>465.00000000000006</ele><time>2026-05-01T16:39:04.522Z</time></trkpt><trkpt lat="43.4996598" lon="12.2660566"><ele>464.00000000000006</ele><time>2026-05-01T16:39:05.522Z</time></trkpt><trkpt lat="43.4995846" lon="12.2659527"><ele>463.0</ele><time>2026-05-01T16:39:06.522Z</time></trkpt><trkpt lat="43.4995053" lon="12.2658659"><ele>462.0</ele><time>2026-05-01T16:39:07.522Z</time></trkpt><trkpt lat="43.4994245" lon="12.2657766"><ele>464.20000000000005</ele><time>2026-05-01T16:39:08.522Z</time></trkpt><trkpt lat="43.4993477" lon="12.2656826"><ele>466.40000000000003</ele><time>2026-05-01T16:39:09.522Z</time></trkpt><trkpt lat="43.499279" lon="12.2655896"><ele>468.59999999999997</ele><time>2026-05-01T16:39:10.522Z</time></trkpt><trkpt lat="43.499212" lon="12.2654913"><ele>470.79999999999995</ele><time>2026-05-01T16:39:11.521Z</time></trkpt><trkpt lat="43.4991493" lon="12.2653879"><ele>473.0</ele><time>2026-05-01T16:39:12.521Z</time></trkpt><trkpt lat="43.4990771" lon="12.2652786"><ele>473.0</ele><time>2026-05-01T16:39:13.522Z</time></trkpt><trkpt lat="43.4990125" lon="12.2651657"><ele>472.99999999999994</ele><time>2026-05-01T16:39:14.522Z</time></trkpt><trkpt lat="43.498954" lon="12.2650566"><ele>472.99999999999994</ele><time>2026-05-01T16:39:15.522Z</time></trkpt><trkpt lat="43.4988895" lon="12.2649381"><ele>473.0</ele><time>2026-05-01T16:39:16.521Z</time></trkpt><trkpt lat="43.4988293" lon="12.2648205"><ele>473.0</ele><time>2026-05-01T16:39:17.522Z</time></trkpt><trkpt lat="43.4987761" lon="12.2647052"><ele>473.59999999999997</ele><time>2026-05-01T16:39:18.522Z</time></trkpt><trkpt lat="43.4987395" lon="12.2645927"><ele>474.19999999999993</ele><time>2026-05-01T16:39:19.521Z</time></trkpt><trkpt lat="43.498707" lon="12.2644655"><ele>474.8</ele><time>2026-05-01T16:39:20.521Z</time></trkpt><trkpt lat="43.4986763" lon="12.2643405"><ele>475.4</ele><time>2026-05-01T16:39:21.522Z</time></trkpt><trkpt lat="43.498641" lon="12.2642322"><ele>476.0</ele><time>2026-05-01T16:39:22.522Z</time></trkpt><trkpt lat="43.4985928" lon="12.2641278"><ele>476.0</ele><time>2026-05-01T16:39:23.522Z</time></trkpt><trkpt lat="43.4985291" lon="12.2640402"><ele>476.0</ele><time>2026-05-01T16:39:24.522Z</time></trkpt><trkpt lat="43.4984689" lon="12.2639368"><ele>476.0</ele><time>2026-05-01T16:39:25.522Z</time></trkpt><trkpt lat="43.498403" lon="12.2638365"><ele>476.0</ele><time>2026-05-01T16:39:26.521Z</time></trkpt><trkpt lat="43.4983247" lon="12.2637367"><ele>476.0</ele><time>2026-05-01T16:39:27.521Z</time></trkpt><trkpt lat="43.4982385" lon="12.2636637"><ele>476.6</ele><time>2026-05-01T16:39:28.522Z</time></trkpt><trkpt lat="43.4981668" lon="12.2636122"><ele>477.20000000000005</ele><time>2026-05-01T16:39:29.521Z</time></trkpt><trkpt lat="43.4981018" lon="12.2635908"><ele>477.79999999999995</ele><time>2026-05-01T16:39:30.521Z</time></trkpt><trkpt lat="43.497986" lon="12.2635895"><ele>478.4</ele><time>2026-05-01T16:39:32.522Z</time></trkpt><trkpt lat="43.4978669" lon="12.2635771"><ele>479.0</ele><time>2026-05-01T16:39:34.522Z</time></trkpt><trkpt lat="43.4977779" lon="12.2635804"><ele>479.79999999999995</ele><time>2026-05-01T16:39:36.522Z</time></trkpt><trkpt lat="43.4977029" lon="12.2635612"><ele>480.59999999999997</ele><time>2026-05-01T16:39:48.012Z</time></trkpt><trkpt lat="43.497605" lon="12.2635744"><ele>481.4</ele><time>2026-05-01T16:39:51.013Z</time></trkpt><trkpt lat="43.4975153" lon="12.2635538"><ele>482.2</ele><time>2026-05-01T16:39:53.012Z</time></trkpt><trkpt lat="43.4973921" lon="12.2634826"><ele>483.0</ele><time>2026-05-01T16:39:55.013Z</time></trkpt><trkpt lat="43.4973134" lon="12.2634611"><ele>483.0</ele><time>2026-05-01T16:39:56.013Z</time></trkpt><trkpt lat="43.4972309" lon="12.2634586"><ele>483.0</ele><time>2026-05-01T16:39:57.012Z</time></trkpt><trkpt lat="43.4971499" lon="12.2634707"><ele>483.0</ele><time>2026-05-01T16:39:58.012Z</time></trkpt><trkpt lat="43.4970717" lon="12.2634942"><ele>483.0</ele><time>2026-05-01T16:39:59.012Z</time></trkpt><trkpt lat="43.4970051" lon="12.2635187"><ele>483.0</ele><time>2026-05-01T16:40:00.012Z</time></trkpt><trkpt lat="43.4969422" lon="12.2635347"><ele>483.0</ele><time>2026-05-01T16:40:01.012Z</time></trkpt><trkpt lat="43.496813" lon="12.2635501"><ele>482.3333333333333</ele><time>2026-05-01T16:40:03.012Z</time></trkpt><trkpt lat="43.4967176" lon="12.2635446"><ele>481.66666666666663</ele><time>2026-05-01T16:40:04.012Z</time></trkpt><trkpt lat="43.4966143" lon="12.2635221"><ele>481.0</ele><time>2026-05-01T16:40:05.012Z</time></trkpt><trkpt lat="43.4965265" lon="12.263479"><ele>480.3333333333333</ele><time>2026-05-01T16:40:06.012Z</time></trkpt><trkpt lat="43.4964653" lon="12.2634224"><ele>479.66666666666663</ele><time>2026-05-01T16:40:07.012Z</time></trkpt><trkpt lat="43.4964115" lon="12.263359"><ele>479.0</ele><time>2026-05-01T16:40:08.013Z</time></trkpt><trkpt lat="43.4963642" lon="12.2632796"><ele>479.0</ele><time>2026-05-01T16:40:09.012Z</time></trkpt><trkpt lat="43.4963268" lon="12.2631812"><ele>479.0</ele><time>2026-05-01T16:40:10.012Z</time></trkpt><trkpt lat="43.4963016" lon="12.2630646"><ele>479.0</ele><time>2026-05-01T16:40:11.013Z</time></trkpt><trkpt lat="43.4962755" lon="12.2629368"><ele>479.0</ele><time>2026-05-01T16:40:12.013Z</time></trkpt><trkpt lat="43.4962515" lon="12.2627967"><ele>479.0</ele><time>2026-05-01T16:40:13.013Z</time></trkpt><trkpt lat="43.4962266" lon="12.2626574"><ele>476.4</ele><time>2026-05-01T16:40:14.012Z</time></trkpt><trkpt lat="43.4961924" lon="12.2625141"><ele>473.79999999999995</ele><time>2026-05-01T16:40:15.013Z</time></trkpt><trkpt lat="43.4961502" lon="12.2623878"><ele>471.20000000000005</ele><time>2026-05-01T16:40:16.012Z</time></trkpt><trkpt lat="43.4961096" lon="12.2622827"><ele>468.6</ele><time>2026-05-01T16:40:17.012Z</time></trkpt><trkpt lat="43.4960686" lon="12.2621897"><ele>466.0</ele><time>2026-05-01T16:40:18.012Z</time></trkpt><trkpt lat="43.4960256" lon="12.2621065"><ele>465.8</ele><time>2026-05-01T16:40:19.012Z</time></trkpt><trkpt lat="43.495987" lon="12.2620376"><ele>465.6</ele><time>2026-05-01T16:40:20.013Z</time></trkpt><trkpt lat="43.4959025" lon="12.2619019"><ele>465.4</ele><time>2026-05-01T16:40:22.013Z</time></trkpt><trkpt lat="43.4958315" lon="12.2618184"><ele>465.2</ele><time>2026-05-01T16:40:23.012Z</time></trkpt><trkpt lat="43.4957604" lon="12.2617266"><ele>465.0</ele><time>2026-05-01T16:40:24.013Z</time></trkpt><trkpt lat="43.4956885" lon="12.261638"><ele>465.0</ele><time>2026-05-01T16:40:25.012Z</time></trkpt><trkpt lat="43.4956133" lon="12.2615537"><ele>465.0</ele><time>2026-05-01T16:40:26.012Z</time></trkpt><trkpt lat="43.4955314" lon="12.2614815"><ele>465.0</ele><time>2026-05-01T16:40:27.012Z</time></trkpt><trkpt lat="43.4954471" lon="12.2614257"><ele>465.0</ele><time>2026-05-01T16:40:28.013Z</time></trkpt><trkpt lat="43.4953706" lon="12.2613714"><ele>465.0</ele><time>2026-05-01T16:40:29.012Z</time></trkpt><trkpt lat="43.4952988" lon="12.2613255"><ele>463.8333333333333</ele><time>2026-05-01T16:40:30.012Z</time></trkpt><trkpt lat="43.4952376" lon="12.261278"><ele>462.66666666666663</ele><time>2026-05-01T16:40:31.013Z</time></trkpt><trkpt lat="43.4951888" lon="12.2612169"><ele>461.5</ele><time>2026-05-01T16:40:32.012Z</time></trkpt><trkpt lat="43.4951637" lon="12.2610547"><ele>460.3333333333333</ele><time>2026-05-01T16:40:34.012Z</time></trkpt><trkpt lat="43.4951456" lon="12.2609079"><ele>459.16666666666663</ele><time>2026-05-01T16:40:36.012Z</time></trkpt><trkpt lat="43.4951057" lon="12.2608281"><ele>458.0</ele><time>2026-05-01T16:40:37.012Z</time></trkpt><trkpt lat="43.4950462" lon="12.2607517"><ele>457.99999999999994</ele><time>2026-05-01T16:40:38.012Z</time></trkpt><trkpt lat="43.4949825" lon="12.2606726"><ele>458.0</ele><time>2026-05-01T16:40:39.013Z</time></trkpt><trkpt lat="43.4949172" lon="12.2605946"><ele>458.0</ele><time>2026-05-01T16:40:40.012Z</time></trkpt><trkpt lat="43.494845" lon="12.2605237"><ele>458.0</ele><time>2026-05-01T16:40:41.013Z</time></trkpt><trkpt lat="43.4947729" lon="12.2604459"><ele>457.99999999999994</ele><time>2026-05-01T16:40:42.013Z</time></trkpt><trkpt lat="43.4946994" lon="12.2603682"><ele>458.0</ele><time>2026-05-01T16:40:43.012Z</time></trkpt><trkpt lat="43.4946321" lon="12.2602969"><ele>457.49999999999994</ele><time>2026-05-01T16:40:44.013Z</time></trkpt><trkpt lat="43.4945717" lon="12.2602075"><ele>457.0</ele><time>2026-05-01T16:40:45.013Z</time></trkpt><trkpt lat="43.4945194" lon="12.2601259"><ele>456.5</ele><time>2026-05-01T16:40:46.013Z</time></trkpt><trkpt lat="43.4944619" lon="12.260041"><ele>456.0</ele><time>2026-05-01T16:40:47.012Z</time></trkpt><trkpt lat="43.4944039" lon="12.2599498"><ele>455.49999999999994</ele><time>2026-05-01T16:40:48.012Z</time></trkpt><trkpt lat="43.4943635" lon="12.2598375"><ele>455.0</ele><time>2026-05-01T16:40:49.012Z</time></trkpt><trkpt lat="43.4943316" lon="12.2597253"><ele>454.99999999999994</ele><time>2026-05-01T16:40:50.012Z</time></trkpt><trkpt lat="43.4942891" lon="12.2596211"><ele>455.0</ele><time>2026-05-01T16:40:51.012Z</time></trkpt><trkpt lat="43.4942294" lon="12.2595335"><ele>455.0</ele><time>2026-05-01T16:40:52.012Z</time></trkpt><trkpt lat="43.4941553" lon="12.2594739"><ele>455.0</ele><time>2026-05-01T16:40:53.012Z</time></trkpt><trkpt lat="43.4940632" lon="12.2594373"><ele>454.99999999999994</ele><time>2026-05-01T16:40:54.012Z</time></trkpt><trkpt lat="43.4939718" lon="12.2594112"><ele>455.0</ele><time>2026-05-01T16:40:55.013Z</time></trkpt><trkpt lat="43.4938828" lon="12.2593947"><ele>454.99999999999994</ele><time>2026-05-01T16:40:56.013Z</time></trkpt><trkpt lat="43.4938" lon="12.2593892"><ele>455.0</ele><time>2026-05-01T16:40:57.012Z</time></trkpt><trkpt lat="43.4937161" lon="12.2593813"><ele>455.0</ele><time>2026-05-01T16:40:58.012Z</time></trkpt><trkpt lat="43.4936314" lon="12.2593691"><ele>455.0</ele><time>2026-05-01T16:40:59.012Z</time></trkpt><trkpt lat="43.4935465" lon="12.2593514"><ele>454.99999999999994</ele><time>2026-05-01T16:41:00.012Z</time></trkpt><trkpt lat="43.4934723" lon="12.2593357"><ele>455.0</ele><time>2026-05-01T16:41:01.013Z</time></trkpt><trkpt lat="43.4933981" lon="12.2593152"><ele>453.3333333333333</ele><time>2026-05-01T16:41:02.013Z</time></trkpt><trkpt lat="43.4933299" lon="12.2593005"><ele>451.66666666666663</ele><time>2026-05-01T16:41:03.013Z</time></trkpt><trkpt lat="43.4932584" lon="12.259308"><ele>450.0</ele><time>2026-05-01T16:41:04.012Z</time></trkpt><trkpt lat="43.4931871" lon="12.2593241"><ele>448.33333333333337</ele><time>2026-05-01T16:41:05.012Z</time></trkpt><trkpt lat="43.4931153" lon="12.2593199"><ele>446.6666666666667</ele><time>2026-05-01T16:41:06.012Z</time></trkpt><trkpt lat="43.4930391" lon="12.2593009"><ele>445.0</ele><time>2026-05-01T16:41:07.012Z</time></trkpt><trkpt lat="43.4929556" lon="12.2592622"><ele>443.0</ele><time>2026-05-01T16:41:08.012Z</time></trkpt><trkpt lat="43.4928687" lon="12.2592168"><ele>441.0</ele><time>2026-05-01T16:41:09.012Z</time></trkpt><trkpt lat="43.4927749" lon="12.2591775"><ele>439.0</ele><time>2026-05-01T16:41:10.012Z</time></trkpt><trkpt lat="43.4926808" lon="12.2591388"><ele>437.0</ele><time>2026-05-01T16:41:11.012Z</time></trkpt><trkpt lat="43.4925977" lon="12.259126"><ele>435.0</ele><time>2026-05-01T16:41:12.012Z</time></trkpt><trkpt lat="43.4925137" lon="12.2591448"><ele>435.0</ele><time>2026-05-01T16:41:13.012Z</time></trkpt><trkpt lat="43.4924312" lon="12.259166"><ele>435.0</ele><time>2026-05-01T16:41:14.012Z</time></trkpt><trkpt lat="43.4923498" lon="12.259178"><ele>435.0</ele><time>2026-05-01T16:41:15.012Z</time></trkpt><trkpt lat="43.4922646" lon="12.2591878"><ele>435.0</ele><time>2026-05-01T16:41:16.012Z</time></trkpt><trkpt lat="43.492177" lon="12.2592058"><ele>435.0</ele><time>2026-05-01T16:41:17.012Z</time></trkpt><trkpt lat="43.4920868" lon="12.2592243"><ele>435.0</ele><time>2026-05-01T16:41:18.013Z</time></trkpt><trkpt lat="43.4919971" lon="12.2592332"><ele>433.4</ele><time>2026-05-01T16:41:19.012Z</time></trkpt><trkpt lat="43.4919033" lon="12.2592429"><ele>431.8</ele><time>2026-05-01T16:41:20.012Z</time></trkpt><trkpt lat="43.4918082" lon="12.2592584"><ele>430.20000000000005</ele><time>2026-05-01T16:41:21.012Z</time></trkpt><trkpt lat="43.4917063" lon="12.2592811"><ele>428.6</ele><time>2026-05-01T16:41:22.012Z</time></trkpt><trkpt lat="43.4915925" lon="12.2593128"><ele>427.0</ele><time>2026-05-01T16:41:23.012Z</time></trkpt><trkpt lat="43.4914772" lon="12.2593453"><ele>427.0</ele><time>2026-05-01T16:41:24.012Z</time></trkpt><trkpt lat="43.4913393" lon="12.259418"><ele>427.0</ele><time>2026-05-01T16:41:25.012Z</time></trkpt><trkpt lat="43.4912003" lon="12.2594929"><ele>427.0</ele><time>2026-05-01T16:41:26.012Z</time></trkpt><trkpt lat="43.4910631" lon="12.2595691"><ele>427.0</ele><time>2026-05-01T16:41:27.012Z</time></trkpt><trkpt lat="43.4909204" lon="12.2596373"><ele>428.0</ele><time>2026-05-01T16:41:28.013Z</time></trkpt><trkpt lat="43.4907756" lon="12.2597058"><ele>429.0</ele><time>2026-05-01T16:41:29.012Z</time></trkpt><trkpt lat="43.4906256" lon="12.2597731"><ele>430.0</ele><time>2026-05-01T16:41:30.012Z</time></trkpt><trkpt lat="43.4904782" lon="12.25984"><ele>432.75</ele><time>2026-05-01T16:41:31.012Z</time></trkpt><trkpt lat="43.4903346" lon="12.2599017"><ele>435.5</ele><time>2026-05-01T16:41:32.012Z</time></trkpt><trkpt lat="43.4901949" lon="12.2599625"><ele>438.25</ele><time>2026-05-01T16:41:33.012Z</time></trkpt><trkpt lat="43.4900566" lon="12.2600249"><ele>441.0</ele><time>2026-05-01T16:41:34.013Z</time></trkpt><trkpt lat="43.4899337" lon="12.2601042"><ele>441.0</ele><time>2026-05-01T16:41:35.012Z</time></trkpt><trkpt lat="43.489833" lon="12.2601951"><ele>441.0</ele><time>2026-05-01T16:41:36.013Z</time></trkpt><trkpt lat="43.4897431" lon="12.2602776"><ele>441.0</ele><time>2026-05-01T16:41:37.012Z</time></trkpt><trkpt lat="43.4896647" lon="12.2603503"><ele>441.0</ele><time>2026-05-01T16:41:38.012Z</time></trkpt><trkpt lat="43.4895881" lon="12.2604054"><ele>441.0</ele><time>2026-05-01T16:41:39.012Z</time></trkpt><trkpt lat="43.4895116" lon="12.260458"><ele>440.5</ele><time>2026-05-01T16:41:40.012Z</time></trkpt><trkpt lat="43.4894364" lon="12.2605052"><ele>440.0</ele><time>2026-05-01T16:41:41.012Z</time></trkpt><trkpt lat="43.4893546" lon="12.2605282"><ele>439.5</ele><time>2026-05-01T16:41:42.012Z</time></trkpt><trkpt lat="43.4892701" lon="12.2605378"><ele>439.0</ele><time>2026-05-01T16:41:43.012Z</time></trkpt><trkpt lat="43.4891846" lon="12.2605171"><ele>438.5</ele><time>2026-05-01T16:41:44.013Z</time></trkpt><trkpt lat="43.4890949" lon="12.2605093"><ele>438.0</ele><time>2026-05-01T16:41:45.012Z</time></trkpt><trkpt lat="43.4890136" lon="12.2605132"><ele>438.0</ele><time>2026-05-01T16:41:46.012Z</time></trkpt><trkpt lat="43.488932" lon="12.2605157"><ele>438.0</ele><time>2026-05-01T16:41:47.013Z</time></trkpt><trkpt lat="43.4888659" lon="12.260526"><ele>438.0</ele><time>2026-05-01T16:41:48.012Z</time></trkpt><trkpt lat="43.4887483" lon="12.2605626"><ele>438.0</ele><time>2026-05-01T16:41:50.012Z</time></trkpt><trkpt lat="43.4886581" lon="12.2605947"><ele>438.0</ele><time>2026-05-01T16:41:52.013Z</time></trkpt><trkpt lat="43.4885762" lon="12.2606222"><ele>438.0</ele><time>2026-05-01T16:41:54.012Z</time></trkpt><trkpt lat="43.4885044" lon="12.2606342"><ele>436.79999999999995</ele><time>2026-05-01T16:41:56.012Z</time></trkpt><trkpt lat="43.4884211" lon="12.2606288"><ele>435.59999999999997</ele><time>2026-05-01T16:41:59.013Z</time></trkpt><trkpt lat="43.4883425" lon="12.2606214"><ele>434.40000000000003</ele><time>2026-05-01T16:42:03.013Z</time></trkpt><trkpt lat="43.4884486" lon="12.260666"><ele>433.20000000000005</ele><time>2026-05-01T16:42:13.012Z</time></trkpt><trkpt lat="43.488561" lon="12.2606468"><ele>432.0</ele><time>2026-05-01T16:42:15.013Z</time></trkpt><trkpt lat="43.4886651" lon="12.260625"><ele>433.20000000000005</ele><time>2026-05-01T16:42:17.012Z</time></trkpt><trkpt lat="43.4887616" lon="12.2605813"><ele>434.40000000000003</ele><time>2026-05-01T16:42:19.012Z</time></trkpt><trkpt lat="43.4888776" lon="12.2605431"><ele>435.59999999999997</ele><time>2026-05-01T16:42:21.013Z</time></trkpt><trkpt lat="43.488958" lon="12.2605282"><ele>436.79999999999995</ele><time>2026-05-01T16:42:22.012Z</time></trkpt><trkpt lat="43.4890424" lon="12.2605122"><ele>438.0</ele><time>2026-05-01T16:42:23.012Z</time></trkpt><trkpt lat="43.4891242" lon="12.260513"><ele>438.0</ele><time>2026-05-01T16:42:24.012Z</time></trkpt><trkpt lat="43.4892065" lon="12.2605278"><ele>437.99999999999994</ele><time>2026-05-01T16:42:25.012Z</time></trkpt><trkpt lat="43.4892793" lon="12.2605327"><ele>437.99999999999994</ele><time>2026-05-01T16:42:26.012Z</time></trkpt><trkpt lat="43.489391" lon="12.2605162"><ele>438.0</ele><time>2026-05-01T16:42:28.012Z</time></trkpt><trkpt lat="43.4895018" lon="12.2604883"><ele>438.0</ele><time>2026-05-01T16:42:30.012Z</time></trkpt><trkpt lat="43.4895696" lon="12.2604647"><ele>438.0</ele><time>2026-05-01T16:42:31.012Z</time></trkpt><trkpt lat="43.4896311" lon="12.2604376"><ele>438.0</ele><time>2026-05-01T16:42:32.012Z</time></trkpt><trkpt lat="43.4896968" lon="12.2604129"><ele>438.0</ele><time>2026-05-01T16:42:35.013Z</time></trkpt><trkpt lat="43.4896795" lon="12.2605282"><ele>438.0</ele><time>2026-05-01T16:42:40.012Z</time></trkpt><trkpt lat="43.4896231" lon="12.2605811"><ele>438.0</ele><time>2026-05-01T16:42:42.013Z</time></trkpt><trkpt lat="43.4895562" lon="12.2606094"><ele>438.0</ele><time>2026-05-01T16:42:44.012Z</time></trkpt><trkpt lat="43.489474" lon="12.260633"><ele>438.0</ele><time>2026-05-01T16:42:47.012Z</time></trkpt><trkpt lat="43.4894097" lon="12.2606422"><ele>437.4</ele><time>2026-05-01T16:42:49.013Z</time></trkpt><trkpt lat="43.4893257" lon="12.2606533"><ele>436.79999999999995</ele><time>2026-05-01T16:42:51.012Z</time></trkpt><trkpt lat="43.4892309" lon="12.2606619"><ele>436.2</ele><time>2026-05-01T16:42:53.012Z</time></trkpt><trkpt lat="43.4891365" lon="12.2606648"><ele>435.6</ele><time>2026-05-01T16:42:55.013Z</time></trkpt><trkpt lat="43.4890303" lon="12.2606372"><ele>435.0</ele><time>2026-05-01T16:42:57.012Z</time></trkpt><trkpt lat="43.4889213" lon="12.2606231"><ele>435.0</ele><time>2026-05-01T16:42:59.012Z</time></trkpt><trkpt lat="43.488807" lon="12.2606667"><ele>435.0</ele><time>2026-05-01T16:43:01.012Z</time></trkpt><trkpt lat="43.4887376" lon="12.2607782"><ele>435.0</ele><time>2026-05-01T16:43:03.013Z</time></trkpt><trkpt lat="43.488709" lon="12.2609083"><ele>435.0</ele><time>2026-05-01T16:43:05.012Z</time></trkpt><trkpt lat="43.4887153" lon="12.2610301"><ele>435.0</ele><time>2026-05-01T16:43:07.012Z</time></trkpt><trkpt lat="43.4887253" lon="12.2611351"><ele>435.0</ele><time>2026-05-01T16:43:09.012Z</time></trkpt><trkpt lat="43.4887495" lon="12.2612487"><ele>435.0</ele><time>2026-05-01T16:43:12.012Z</time></trkpt><trkpt lat="43.4887662" lon="12.261369"><ele>435.0</ele><time>2026-05-01T16:43:14.012Z</time></trkpt><trkpt lat="43.4888" lon="12.2615024"><ele>435.0</ele><time>2026-05-01T16:43:16.012Z</time></trkpt><trkpt lat="43.4888152" lon="12.2615902"><ele>435.0</ele><time>2026-05-01T16:43:17.013Z</time></trkpt><trkpt lat="43.4888413" lon="12.261743"><ele>434.4</ele><time>2026-05-01T16:43:19.012Z</time></trkpt><trkpt lat="43.4888442" lon="12.2618973"><ele>433.8</ele><time>2026-05-01T16:43:21.013Z</time></trkpt><trkpt lat="43.4888113" lon="12.2620216"><ele>433.20000000000005</ele><time>2026-05-01T16:43:23.012Z</time></trkpt><trkpt lat="43.4887687" lon="12.2621121"><ele>432.6</ele><time>2026-05-01T16:43:25.012Z</time></trkpt><trkpt lat="43.4887067" lon="12.2621925"><ele>432.0</ele><time>2026-05-01T16:43:27.012Z</time></trkpt><trkpt lat="43.4886137" lon="12.2622619"><ele>428.8</ele><time>2026-05-01T16:43:29.012Z</time></trkpt><trkpt lat="43.4885101" lon="12.262329"><ele>425.6</ele><time>2026-05-01T16:43:31.013Z</time></trkpt><trkpt lat="43.4883865" lon="12.2623793"><ele>422.40000000000003</ele><time>2026-05-01T16:43:33.012Z</time></trkpt><trkpt lat="43.488325" lon="12.2624196"><ele>419.20000000000005</ele><time>2026-05-01T16:43:34.012Z</time></trkpt><trkpt lat="43.4882541" lon="12.2624492"><ele>416.0</ele><time>2026-05-01T16:43:35.013Z</time></trkpt><trkpt lat="43.4881793" lon="12.2625047"><ele>416.0</ele><time>2026-05-01T16:43:36.013Z</time></trkpt><trkpt lat="43.4881132" lon="12.2625779"><ele>416.0</ele><time>2026-05-01T16:43:37.012Z</time></trkpt><trkpt lat="43.4880552" lon="12.2626428"><ele>416.0</ele><time>2026-05-01T16:43:38.012Z</time></trkpt><trkpt lat="43.4879983" lon="12.2627036"><ele>416.0</ele><time>2026-05-01T16:43:39.012Z</time></trkpt><trkpt lat="43.4879386" lon="12.2627598"><ele>416.0</ele><time>2026-05-01T16:43:40.012Z</time></trkpt><trkpt lat="43.4878727" lon="12.2627964"><ele>416.0</ele><time>2026-05-01T16:43:41.012Z</time></trkpt><trkpt lat="43.4878059" lon="12.2628294"><ele>416.0</ele><time>2026-05-01T16:43:42.012Z</time></trkpt><trkpt lat="43.4877292" lon="12.2628664"><ele>417.16666666666663</ele><time>2026-05-01T16:43:43.012Z</time></trkpt><trkpt lat="43.4876534" lon="12.2629044"><ele>418.3333333333333</ele><time>2026-05-01T16:43:44.012Z</time></trkpt><trkpt lat="43.4875743" lon="12.2629477"><ele>419.5</ele><time>2026-05-01T16:43:45.012Z</time></trkpt><trkpt lat="43.4875006" lon="12.262999"><ele>420.66666666666663</ele><time>2026-05-01T16:43:46.012Z</time></trkpt><trkpt lat="43.4874356" lon="12.2630437"><ele>421.8333333333333</ele><time>2026-05-01T16:43:47.012Z</time></trkpt><trkpt lat="43.4873779" lon="12.2630956"><ele>423.0</ele><time>2026-05-01T16:43:48.012Z</time></trkpt><trkpt lat="43.4873279" lon="12.2631683"><ele>420.7142857142857</ele><time>2026-05-01T16:43:49.012Z</time></trkpt><trkpt lat="43.487284" lon="12.2632561"><ele>418.42857142857144</ele><time>2026-05-01T16:43:50.013Z</time></trkpt><trkpt lat="43.4872465" lon="12.2633492"><ele>416.14285714285717</ele><time>2026-05-01T16:43:51.012Z</time></trkpt><trkpt lat="43.4872062" lon="12.2634401"><ele>413.8571428571429</ele><time>2026-05-01T16:43:52.012Z</time></trkpt><trkpt lat="43.4871824" lon="12.2635234"><ele>411.57142857142856</ele><time>2026-05-01T16:43:53.012Z</time></trkpt><trkpt lat="43.4871431" lon="12.2635991"><ele>409.28571428571433</ele><time>2026-05-01T16:43:54.012Z</time></trkpt><trkpt lat="43.4870922" lon="12.2636665"><ele>407.0</ele><time>2026-05-01T16:43:55.013Z</time></trkpt><trkpt lat="43.4870377" lon="12.2637318"><ele>407.00000000000006</ele><time>2026-05-01T16:43:56.012Z</time></trkpt><trkpt lat="43.4869885" lon="12.2638032"><ele>407.0</ele><time>2026-05-01T16:43:57.012Z</time></trkpt><trkpt lat="43.486942" lon="12.2638697"><ele>407.0</ele><time>2026-05-01T16:43:58.013Z</time></trkpt><trkpt lat="43.4868849" lon="12.2639308"><ele>407.0</ele><time>2026-05-01T16:43:59.012Z</time></trkpt><trkpt lat="43.4868186" lon="12.2639758"><ele>407.0</ele><time>2026-05-01T16:44:00.012Z</time></trkpt><trkpt lat="43.486753" lon="12.263995"><ele>407.00000000000006</ele><time>2026-05-01T16:44:01.013Z</time></trkpt><trkpt lat="43.4866823" lon="12.2640134"><ele>407.0</ele><time>2026-05-01T16:44:02.012Z</time></trkpt><trkpt lat="43.4866128" lon="12.2640121"><ele>407.00000000000006</ele><time>2026-05-01T16:44:03.012Z</time></trkpt><trkpt lat="43.4865436" lon="12.263993"><ele>407.0</ele><time>2026-05-01T16:44:04.013Z</time></trkpt><trkpt lat="43.4864746" lon="12.2639657"><ele>407.0</ele><time>2026-05-01T16:44:05.013Z</time></trkpt><trkpt lat="43.4864101" lon="12.2639341"><ele>407.0</ele><time>2026-05-01T16:44:06.012Z</time></trkpt><trkpt lat="43.4863459" lon="12.2638992"><ele>407.0</ele><time>2026-05-01T16:44:07.012Z</time></trkpt><trkpt lat="43.4862817" lon="12.2638744"><ele>407.00000000000006</ele><time>2026-05-01T16:44:08.012Z</time></trkpt><trkpt lat="43.4862013" lon="12.2638587"><ele>407.0</ele><time>2026-05-01T16:44:09.013Z</time></trkpt><trkpt lat="43.4861088" lon="12.2638551"><ele>404.8333333333333</ele><time>2026-05-01T16:44:10.012Z</time></trkpt><trkpt lat="43.4860163" lon="12.2638602"><ele>402.66666666666663</ele><time>2026-05-01T16:44:11.012Z</time></trkpt><trkpt lat="43.4859294" lon="12.2638608"><ele>400.5</ele><time>2026-05-01T16:44:12.013Z</time></trkpt><trkpt lat="43.485846" lon="12.2638566"><ele>398.33333333333337</ele><time>2026-05-01T16:44:13.013Z</time></trkpt><trkpt lat="43.4857602" lon="12.263837"><ele>396.1666666666667</ele><time>2026-05-01T16:44:14.012Z</time></trkpt><trkpt lat="43.4856682" lon="12.2637992"><ele>394.0</ele><time>2026-05-01T16:44:15.012Z</time></trkpt><trkpt lat="43.4855772" lon="12.2637373"><ele>394.0</ele><time>2026-05-01T16:44:16.012Z</time></trkpt><trkpt lat="43.4854747" lon="12.263664"><ele>394.0</ele><time>2026-05-01T16:44:17.013Z</time></trkpt><trkpt lat="43.4853685" lon="12.2636017"><ele>394.0</ele><time>2026-05-01T16:44:18.012Z</time></trkpt><trkpt lat="43.4852645" lon="12.2635452"><ele>394.0</ele><time>2026-05-01T16:44:19.012Z</time></trkpt><trkpt lat="43.4851664" lon="12.2635003"><ele>394.0</ele><time>2026-05-01T16:44:20.012Z</time></trkpt><trkpt lat="43.4850794" lon="12.2634427"><ele>392.0</ele><time>2026-05-01T16:44:21.012Z</time></trkpt><trkpt lat="43.4850021" lon="12.2633702"><ele>390.0</ele><time>2026-05-01T16:44:22.012Z</time></trkpt><trkpt lat="43.4849373" lon="12.2632811"><ele>388.0</ele><time>2026-05-01T16:44:23.012Z</time></trkpt><trkpt lat="43.4848826" lon="12.2631727"><ele>386.0</ele><time>2026-05-01T16:44:24.013Z</time></trkpt><trkpt lat="43.4848329" lon="12.2630692"><ele>384.0</ele><time>2026-05-01T16:44:25.013Z</time></trkpt><trkpt lat="43.4848046" lon="12.2629609"><ele>384.0</ele><time>2026-05-01T16:44:26.013Z</time></trkpt><trkpt lat="43.4847893" lon="12.2628661"><ele>384.0</ele><time>2026-05-01T16:44:27.012Z</time></trkpt><trkpt lat="43.4847817" lon="12.2627077"><ele>384.0</ele><time>2026-05-01T16:44:29.012Z</time></trkpt><trkpt lat="43.4847811" lon="12.2626202"><ele>384.0</ele><time>2026-05-01T16:44:30.012Z</time></trkpt><trkpt lat="43.4847691" lon="12.2625329"><ele>384.0</ele><time>2026-05-01T16:44:31.012Z</time></trkpt><trkpt lat="43.4847352" lon="12.2624373"><ele>384.0</ele><time>2026-05-01T16:44:32.013Z</time></trkpt><trkpt lat="43.4846728" lon="12.2623411"><ele>382.0</ele><time>2026-05-01T16:44:33.012Z</time></trkpt><trkpt lat="43.484583" lon="12.2622554"><ele>380.0</ele><time>2026-05-01T16:44:34.012Z</time></trkpt><trkpt lat="43.4844952" lon="12.2621728"><ele>378.0</ele><time>2026-05-01T16:44:35.012Z</time></trkpt><trkpt lat="43.4844227" lon="12.2620662"><ele>376.0</ele><time>2026-05-01T16:44:36.012Z</time></trkpt><trkpt lat="43.4843497" lon="12.2619517"><ele>374.0</ele><time>2026-05-01T16:44:37.012Z</time></trkpt><trkpt lat="43.4842846" lon="12.2618158"><ele>374.0</ele><time>2026-05-01T16:44:38.012Z</time></trkpt><trkpt lat="43.4842189" lon="12.2616718"><ele>374.0</ele><time>2026-05-01T16:44:39.013Z</time></trkpt><trkpt lat="43.484159" lon="12.2615372"><ele>374.0</ele><time>2026-05-01T16:44:40.012Z</time></trkpt><trkpt lat="43.4840993" lon="12.2614031"><ele>374.0</ele><time>2026-05-01T16:44:41.013Z</time></trkpt><trkpt lat="43.4840534" lon="12.2612776"><ele>374.79999999999995</ele><time>2026-05-01T16:44:42.012Z</time></trkpt><trkpt lat="43.4840078" lon="12.2611547"><ele>375.59999999999997</ele><time>2026-05-01T16:44:43.012Z</time></trkpt><trkpt lat="43.4839769" lon="12.2610312"><ele>376.4</ele><time>2026-05-01T16:44:44.012Z</time></trkpt><trkpt lat="43.4839592" lon="12.2609144"><ele>377.2</ele><time>2026-05-01T16:44:45.012Z</time></trkpt><trkpt lat="43.4839459" lon="12.2607867"><ele>378.0</ele><time>2026-05-01T16:44:46.012Z</time></trkpt><trkpt lat="43.4839365" lon="12.2606451"><ele>379.75</ele><time>2026-05-01T16:44:47.012Z</time></trkpt><trkpt lat="43.4839345" lon="12.2604782"><ele>381.5</ele><time>2026-05-01T16:44:48.012Z</time></trkpt><trkpt lat="43.4839493" lon="12.2603071"><ele>383.25</ele><time>2026-05-01T16:44:49.013Z</time></trkpt><trkpt lat="43.4839651" lon="12.2601394"><ele>385.0</ele><time>2026-05-01T16:44:50.012Z</time></trkpt><trkpt lat="43.4839812" lon="12.2599757"><ele>385.0</ele><time>2026-05-01T16:44:51.012Z</time></trkpt><trkpt lat="43.4840011" lon="12.2598239"><ele>385.0</ele><time>2026-05-01T16:44:52.012Z</time></trkpt><trkpt lat="43.4840107" lon="12.2597317"><ele>385.0</ele><time>2026-05-01T16:44:53.012Z</time></trkpt><trkpt lat="43.4839784" lon="12.2596022"><ele>385.0</ele><time>2026-05-01T16:44:55.013Z</time></trkpt><trkpt lat="43.483891" lon="12.2594955"><ele>385.0</ele><time>2026-05-01T16:44:57.013Z</time></trkpt><trkpt lat="43.4838358" lon="12.2593411"><ele>384.83333333333337</ele><time>2026-05-01T16:44:59.013Z</time></trkpt><trkpt lat="43.4838025" lon="12.2592479"><ele>384.6666666666667</ele><time>2026-05-01T16:45:00.012Z</time></trkpt><trkpt lat="43.4837657" lon="12.259153"><ele>384.5</ele><time>2026-05-01T16:45:01.012Z</time></trkpt><trkpt lat="43.4837266" lon="12.2590585"><ele>384.33333333333337</ele><time>2026-05-01T16:45:02.012Z</time></trkpt><trkpt lat="43.4836862" lon="12.2589655"><ele>384.1666666666667</ele><time>2026-05-01T16:45:03.013Z</time></trkpt><trkpt lat="43.4836407" lon="12.2588685"><ele>384.0</ele><time>2026-05-01T16:45:04.012Z</time></trkpt><trkpt lat="43.4835838" lon="12.2587677"><ele>379.2</ele><time>2026-05-01T16:45:05.012Z</time></trkpt><trkpt lat="43.4835353" lon="12.2586727"><ele>374.4</ele><time>2026-05-01T16:45:06.012Z</time></trkpt><trkpt lat="43.4834867" lon="12.258579"><ele>369.6</ele><time>2026-05-01T16:45:07.012Z</time></trkpt><trkpt lat="43.4834348" lon="12.2584747"><ele>364.8</ele><time>2026-05-01T16:45:08.012Z</time></trkpt><trkpt lat="43.4833732" lon="12.2583627"><ele>360.0</ele><time>2026-05-01T16:45:09.012Z</time></trkpt><trkpt lat="43.4833144" lon="12.2582548"><ele>360.0</ele><time>2026-05-01T16:45:10.013Z</time></trkpt><trkpt lat="43.4832618" lon="12.258151"><ele>360.0</ele><time>2026-05-01T16:45:11.012Z</time></trkpt><trkpt lat="43.4832081" lon="12.2580449"><ele>360.0</ele><time>2026-05-01T16:45:12.012Z</time></trkpt><trkpt lat="43.483152" lon="12.2579322"><ele>360.0</ele><time>2026-05-01T16:45:13.012Z</time></trkpt><trkpt lat="43.4830901" lon="12.2578269"><ele>360.0</ele><time>2026-05-01T16:45:14.012Z</time></trkpt><trkpt lat="43.4830329" lon="12.2577143"><ele>357.8333333333333</ele><time>2026-05-01T16:45:15.013Z</time></trkpt><trkpt lat="43.4829762" lon="12.2576172"><ele>355.6666666666667</ele><time>2026-05-01T16:45:16.012Z</time></trkpt><trkpt lat="43.4829203" lon="12.2575318"><ele>353.5</ele><time>2026-05-01T16:45:17.013Z</time></trkpt><trkpt lat="43.4828626" lon="12.2574461"><ele>351.33333333333337</ele><time>2026-05-01T16:45:18.012Z</time></trkpt><trkpt lat="43.4828018" lon="12.2573862"><ele>349.1666666666667</ele><time>2026-05-01T16:45:19.012Z</time></trkpt><trkpt lat="43.4827361" lon="12.2573556"><ele>347.0</ele><time>2026-05-01T16:45:20.012Z</time></trkpt><trkpt lat="43.4826625" lon="12.2573707"><ele>347.0</ele><time>2026-05-01T16:45:21.012Z</time></trkpt><trkpt lat="43.4825915" lon="12.2574075"><ele>347.0</ele><time>2026-05-01T16:45:22.013Z</time></trkpt><trkpt lat="43.4825213" lon="12.2574689"><ele>347.0</ele><time>2026-05-01T16:45:23.012Z</time></trkpt><trkpt lat="43.48246" lon="12.2575304"><ele>347.0</ele><time>2026-05-01T16:45:24.012Z</time></trkpt><trkpt lat="43.4823994" lon="12.2575825"><ele>347.0</ele><time>2026-05-01T16:45:25.013Z</time></trkpt><trkpt lat="43.4823448" lon="12.2576286"><ele>347.0</ele><time>2026-05-01T16:45:26.012Z</time></trkpt><trkpt lat="43.4822888" lon="12.2576815"><ele>347.0</ele><time>2026-05-01T16:45:27.012Z</time></trkpt><trkpt lat="43.4822264" lon="12.2577471"><ele>347.0</ele><time>2026-05-01T16:45:28.012Z</time></trkpt><trkpt lat="43.4821615" lon="12.2578199"><ele>347.0</ele><time>2026-05-01T16:45:29.012Z</time></trkpt><trkpt lat="43.4820924" lon="12.2579009"><ele>347.0</ele><time>2026-05-01T16:45:30.012Z</time></trkpt><trkpt lat="43.4820287" lon="12.2579823"><ele>347.0</ele><time>2026-05-01T16:45:31.012Z</time></trkpt><trkpt lat="43.4819725" lon="12.2580646"><ele>347.0</ele><time>2026-05-01T16:45:32.012Z</time></trkpt><trkpt lat="43.4819136" lon="12.2581479"><ele>347.0</ele><time>2026-05-01T16:45:33.012Z</time></trkpt><trkpt lat="43.4818571" lon="12.258221"><ele>345.83333333333337</ele><time>2026-05-01T16:45:34.013Z</time></trkpt><trkpt lat="43.481801" lon="12.2582921"><ele>344.6666666666667</ele><time>2026-05-01T16:45:35.012Z</time></trkpt><trkpt lat="43.481744" lon="12.2583637"><ele>343.5</ele><time>2026-05-01T16:45:36.013Z</time></trkpt><trkpt lat="43.4816917" lon="12.2584273"><ele>342.3333333333333</ele><time>2026-05-01T16:45:37.012Z</time></trkpt><trkpt lat="43.481584" lon="12.2585071"><ele>341.16666666666663</ele><time>2026-05-01T16:45:39.012Z</time></trkpt><trkpt lat="43.4815099" lon="12.2584967"><ele>340.0</ele><time>2026-05-01T16:45:40.012Z</time></trkpt><trkpt lat="43.4814295" lon="12.2584265"><ele>340.0</ele><time>2026-05-01T16:45:41.012Z</time></trkpt><trkpt lat="43.4813751" lon="12.2583145"><ele>340.0</ele><time>2026-05-01T16:45:42.013Z</time></trkpt><trkpt lat="43.4813214" lon="12.2582159"><ele>340.0</ele><time>2026-05-01T16:45:43.012Z</time></trkpt><trkpt lat="43.4812793" lon="12.2581311"><ele>340.0</ele><time>2026-05-01T16:45:44.012Z</time></trkpt><trkpt lat="43.4812361" lon="12.2580662"><ele>340.0</ele><time>2026-05-01T16:45:45.013Z</time></trkpt><trkpt lat="43.4811519" lon="12.25805"><ele>340.0</ele><time>2026-05-01T16:45:47.012Z</time></trkpt><trkpt lat="43.4810658" lon="12.2581253"><ele>337.8</ele><time>2026-05-01T16:45:49.012Z</time></trkpt><trkpt lat="43.4810091" lon="12.2581674"><ele>335.6</ele><time>2026-05-01T16:45:50.012Z</time></trkpt><trkpt lat="43.4809063" lon="12.2581595"><ele>333.4</ele><time>2026-05-01T16:45:52.012Z</time></trkpt><trkpt lat="43.4807912" lon="12.2581451"><ele>331.2</ele><time>2026-05-01T16:45:54.012Z</time></trkpt><trkpt lat="43.4807192" lon="12.2581855"><ele>329.0</ele><time>2026-05-01T16:45:55.012Z</time></trkpt><trkpt lat="43.480639" lon="12.2582587"><ele>329.0</ele><time>2026-05-01T16:45:56.012Z</time></trkpt><trkpt lat="43.4805688" lon="12.2583465"><ele>329.0</ele><time>2026-05-01T16:45:57.012Z</time></trkpt><trkpt lat="43.4804898" lon="12.2584392"><ele>329.0</ele><time>2026-05-01T16:45:58.012Z</time></trkpt><trkpt lat="43.4804065" lon="12.2585367"><ele>329.0</ele><time>2026-05-01T16:45:59.013Z</time></trkpt><trkpt lat="43.4803289" lon="12.2586298"><ele>329.0</ele><time>2026-05-01T16:46:00.013Z</time></trkpt><trkpt lat="43.4802525" lon="12.258719"><ele>328.0</ele><time>2026-05-01T16:46:01.012Z</time></trkpt><trkpt lat="43.4801748" lon="12.2588077"><ele>327.0</ele><time>2026-05-01T16:46:02.012Z</time></trkpt><trkpt lat="43.4800899" lon="12.2589049"><ele>326.0</ele><time>2026-05-01T16:46:03.013Z</time></trkpt><trkpt lat="43.480002" lon="12.2590007"><ele>325.0</ele><time>2026-05-01T16:46:04.013Z</time></trkpt><trkpt lat="43.4799046" lon="12.2591035"><ele>324.0</ele><time>2026-05-01T16:46:05.013Z</time></trkpt><trkpt lat="43.4798013" lon="12.2592178"><ele>323.5</ele><time>2026-05-01T16:46:06.012Z</time></trkpt><trkpt lat="43.4797006" lon="12.2593428"><ele>323.0</ele><time>2026-05-01T16:46:07.013Z</time></trkpt><trkpt lat="43.4796026" lon="12.2594573"><ele>322.5</ele><time>2026-05-01T16:46:08.012Z</time></trkpt><trkpt lat="43.4795065" lon="12.2595796"><ele>322.0</ele><time>2026-05-01T16:46:09.012Z</time></trkpt><trkpt lat="43.4794167" lon="12.2596877"><ele>320.0</ele><time>2026-05-01T16:46:10.013Z</time></trkpt><trkpt lat="43.4793278" lon="12.2597925"><ele>318.0</ele><time>2026-05-01T16:46:11.013Z</time></trkpt><trkpt lat="43.4792454" lon="12.25989"><ele>316.0</ele><time>2026-05-01T16:46:12.012Z</time></trkpt><trkpt lat="43.4791661" lon="12.2599802"><ele>314.0</ele><time>2026-05-01T16:46:13.012Z</time></trkpt><trkpt lat="43.4790831" lon="12.2600796"><ele>312.0</ele><time>2026-05-01T16:46:14.013Z</time></trkpt><trkpt lat="43.4790142" lon="12.26017"><ele>312.0</ele><time>2026-05-01T16:46:15.012Z</time></trkpt><trkpt lat="43.4789427" lon="12.2602477"><ele>312.0</ele><time>2026-05-01T16:46:16.012Z</time></trkpt><trkpt lat="43.478874" lon="12.2603238"><ele>312.0</ele><time>2026-05-01T16:46:17.013Z</time></trkpt><trkpt lat="43.478802" lon="12.2603876"><ele>312.0</ele><time>2026-05-01T16:46:18.012Z</time></trkpt><trkpt lat="43.4787292" lon="12.2604375"><ele>312.0</ele><time>2026-05-01T16:46:19.012Z</time></trkpt><trkpt lat="43.4786325" lon="12.2604658"><ele>312.0</ele><time>2026-05-01T16:46:20.012Z</time></trkpt><trkpt lat="43.4785138" lon="12.2604917"><ele>312.2</ele><time>2026-05-01T16:46:21.012Z</time></trkpt><trkpt lat="43.4783994" lon="12.2605138"><ele>312.4</ele><time>2026-05-01T16:46:22.013Z</time></trkpt><trkpt lat="43.4782908" lon="12.2605441"><ele>312.6</ele><time>2026-05-01T16:46:23.012Z</time></trkpt><trkpt lat="43.4781829" lon="12.2605655"><ele>312.8</ele><time>2026-05-01T16:46:24.012Z</time></trkpt><trkpt lat="43.4780783" lon="12.260587"><ele>313.0</ele><time>2026-05-01T16:46:25.012Z</time></trkpt><trkpt lat="43.4779754" lon="12.2606128"><ele>315.2</ele><time>2026-05-01T16:46:26.012Z</time></trkpt><trkpt lat="43.4778673" lon="12.2606353"><ele>317.4</ele><time>2026-05-01T16:46:27.012Z</time></trkpt><trkpt lat="43.4777699" lon="12.2606716"><ele>319.59999999999997</ele><time>2026-05-01T16:46:28.012Z</time></trkpt><trkpt lat="43.4776727" lon="12.2607119"><ele>321.8</ele><time>2026-05-01T16:46:29.012Z</time></trkpt><trkpt lat="43.4775588" lon="12.260761"><ele>324.0</ele><time>2026-05-01T16:46:30.012Z</time></trkpt><trkpt lat="43.477435" lon="12.26082"><ele>324.0</ele><time>2026-05-01T16:46:31.012Z</time></trkpt><trkpt lat="43.4773185" lon="12.2608647"><ele>324.0</ele><time>2026-05-01T16:46:32.012Z</time></trkpt><trkpt lat="43.4772049" lon="12.2609017"><ele>324.0</ele><time>2026-05-01T16:46:33.012Z</time></trkpt><trkpt lat="43.4771042" lon="12.2609306"><ele>324.0</ele><time>2026-05-01T16:46:34.012Z</time></trkpt><trkpt lat="43.4769994" lon="12.2609514"><ele>324.0</ele><time>2026-05-01T16:46:35.012Z</time></trkpt><trkpt lat="43.4768774" lon="12.2609505"><ele>323.75</ele><time>2026-05-01T16:46:36.013Z</time></trkpt><trkpt lat="43.4767396" lon="12.2609368"><ele>323.5</ele><time>2026-05-01T16:46:37.013Z</time></trkpt><trkpt lat="43.4765982" lon="12.2609286"><ele>323.25</ele><time>2026-05-01T16:46:38.012Z</time></trkpt><trkpt lat="43.4764477" lon="12.2609173"><ele>323.0</ele><time>2026-05-01T16:46:39.013Z</time></trkpt><trkpt lat="43.4763122" lon="12.260915"><ele>323.0</ele><time>2026-05-01T16:46:40.012Z</time></trkpt><trkpt lat="43.4761931" lon="12.2609137"><ele>323.0</ele><time>2026-05-01T16:46:41.012Z</time></trkpt><trkpt lat="43.4760747" lon="12.2609109"><ele>323.0</ele><time>2026-05-01T16:46:42.012Z</time></trkpt><trkpt lat="43.4759525" lon="12.2609018"><ele>323.0</ele><time>2026-05-01T16:46:43.012Z</time></trkpt><trkpt lat="43.4758304" lon="12.2608792"><ele>323.0</ele><time>2026-05-01T16:46:44.012Z</time></trkpt><trkpt lat="43.4757051" lon="12.2608324"><ele>323.0</ele><time>2026-05-01T16:46:45.012Z</time></trkpt><trkpt lat="43.4755753" lon="12.2607731"><ele>323.0</ele><time>2026-05-01T16:46:46.012Z</time></trkpt><trkpt lat="43.4754544" lon="12.2607149"><ele>323.0</ele><time>2026-05-01T16:46:47.013Z</time></trkpt><trkpt lat="43.4753453" lon="12.2606589"><ele>322.2</ele><time>2026-05-01T16:46:48.012Z</time></trkpt><trkpt lat="43.4752422" lon="12.2606131"><ele>321.4</ele><time>2026-05-01T16:46:49.013Z</time></trkpt><trkpt lat="43.4751441" lon="12.2605807"><ele>320.59999999999997</ele><time>2026-05-01T16:46:50.012Z</time></trkpt><trkpt lat="43.4750513" lon="12.2605694"><ele>319.79999999999995</ele><time>2026-05-01T16:46:51.012Z</time></trkpt><trkpt lat="43.4749484" lon="12.2605777"><ele>319.0</ele><time>2026-05-01T16:46:52.012Z</time></trkpt><trkpt lat="43.4748422" lon="12.2606104"><ele>319.75</ele><time>2026-05-01T16:46:53.012Z</time></trkpt><trkpt lat="43.4747216" lon="12.2606413"><ele>320.5</ele><time>2026-05-01T16:46:54.012Z</time></trkpt><trkpt lat="43.4745958" lon="12.2606745"><ele>321.25</ele><time>2026-05-01T16:46:55.012Z</time></trkpt><trkpt lat="43.4744685" lon="12.2607094"><ele>322.0</ele><time>2026-05-01T16:46:56.012Z</time></trkpt><trkpt lat="43.4743383" lon="12.2607678"><ele>322.25</ele><time>2026-05-01T16:46:57.013Z</time></trkpt><trkpt lat="43.4742105" lon="12.2608461"><ele>322.5</ele><time>2026-05-01T16:46:58.012Z</time></trkpt><trkpt lat="43.4741003" lon="12.2609302"><ele>322.75</ele><time>2026-05-01T16:46:59.012Z</time></trkpt><trkpt lat="43.4740008" lon="12.2610133"><ele>323.0</ele><time>2026-05-01T16:47:00.013Z</time></trkpt><trkpt lat="43.4739064" lon="12.2610958"><ele>323.0</ele><time>2026-05-01T16:47:01.012Z</time></trkpt><trkpt lat="43.4738092" lon="12.2611644"><ele>323.0</ele><time>2026-05-01T16:47:02.012Z</time></trkpt><trkpt lat="43.4737279" lon="12.2612047"><ele>323.0</ele><time>2026-05-01T16:47:03.012Z</time></trkpt><trkpt lat="43.4736618" lon="12.2612231"><ele>323.0</ele><time>2026-05-01T16:47:04.012Z</time></trkpt><trkpt lat="43.4735753" lon="12.2612409"><ele>323.0</ele><time>2026-05-01T16:47:06.012Z</time></trkpt><trkpt lat="43.4735064" lon="12.2612227"><ele>323.0</ele><time>2026-05-01T16:47:17.013Z</time></trkpt><trkpt lat="43.4734433" lon="12.2611754"><ele>323.0</ele><time>2026-05-01T16:47:18.012Z</time></trkpt><trkpt lat="43.4733733" lon="12.2610896"><ele>323.0</ele><time>2026-05-01T16:47:19.012Z</time></trkpt><trkpt lat="43.4732994" lon="12.2609836"><ele>323.0</ele><time>2026-05-01T16:47:20.012Z</time></trkpt><trkpt lat="43.4732083" lon="12.2608652"><ele>323.0</ele><time>2026-05-01T16:47:21.012Z</time></trkpt><trkpt lat="43.4731053" lon="12.260735"><ele>322.5</ele><time>2026-05-01T16:47:22.012Z</time></trkpt><trkpt lat="43.4729994" lon="12.2605986"><ele>322.0</ele><time>2026-05-01T16:47:23.012Z</time></trkpt><trkpt lat="43.4728954" lon="12.260455"><ele>321.5</ele><time>2026-05-01T16:47:24.012Z</time></trkpt><trkpt lat="43.4727968" lon="12.2603179"><ele>321.0</ele><time>2026-05-01T16:47:25.012Z</time></trkpt><trkpt lat="43.4726998" lon="12.2601862"><ele>321.0</ele><time>2026-05-01T16:47:26.013Z</time></trkpt><trkpt lat="43.4726022" lon="12.2600532"><ele>321.0</ele><time>2026-05-01T16:47:27.012Z</time></trkpt><trkpt lat="43.4725058" lon="12.2599099"><ele>321.0</ele><time>2026-05-01T16:47:28.012Z</time></trkpt><trkpt lat="43.4724036" lon="12.2597686"><ele>321.0</ele><time>2026-05-01T16:47:29.012Z</time></trkpt><trkpt lat="43.4722969" lon="12.2596254"><ele>321.0</ele><time>2026-05-01T16:47:30.013Z</time></trkpt><trkpt lat="43.4721934" lon="12.2594814"><ele>321.0</ele><time>2026-05-01T16:47:31.013Z</time></trkpt><trkpt lat="43.4720936" lon="12.2593332"><ele>321.0</ele><time>2026-05-01T16:47:32.012Z</time></trkpt><trkpt lat="43.4720047" lon="12.2591787"><ele>321.0</ele><time>2026-05-01T16:47:33.013Z</time></trkpt><trkpt lat="43.4719167" lon="12.2590112"><ele>318.0</ele><time>2026-05-01T16:47:34.013Z</time></trkpt><trkpt lat="43.4718385" lon="12.2588278"><ele>315.0</ele><time>2026-05-01T16:47:35.012Z</time></trkpt><trkpt lat="43.4717699" lon="12.2586346"><ele>312.0</ele><time>2026-05-01T16:47:36.012Z</time></trkpt><trkpt lat="43.4717028" lon="12.2584363"><ele>312.0</ele><time>2026-05-01T16:47:37.012Z</time></trkpt><trkpt lat="43.4716462" lon="12.2582344"><ele>312.0</ele><time>2026-05-01T16:47:38.013Z</time></trkpt><trkpt lat="43.4715981" lon="12.2580171"><ele>312.0</ele><time>2026-05-01T16:47:39.012Z</time></trkpt><trkpt lat="43.4715568" lon="12.2577931"><ele>311.0</ele><time>2026-05-01T16:47:40.012Z</time></trkpt><trkpt lat="43.4715198" lon="12.257575"><ele>310.0</ele><time>2026-05-01T16:47:41.012Z</time></trkpt><trkpt lat="43.471481" lon="12.2573643"><ele>309.0</ele><time>2026-05-01T16:47:42.012Z</time></trkpt><trkpt lat="43.471444" lon="12.2571513"><ele>308.75</ele><time>2026-05-01T16:47:43.012Z</time></trkpt><trkpt lat="43.4714036" lon="12.2569474"><ele>308.5</ele><time>2026-05-01T16:47:44.012Z</time></trkpt><trkpt lat="43.4713656" lon="12.2567471"><ele>308.25</ele><time>2026-05-01T16:47:45.013Z</time></trkpt><trkpt lat="43.4713337" lon="12.25656"><ele>308.0</ele><time>2026-05-01T16:47:46.013Z</time></trkpt><trkpt lat="43.4713023" lon="12.2563787"><ele>307.8</ele><time>2026-05-01T16:47:47.013Z</time></trkpt><trkpt lat="43.471274" lon="12.2562124"><ele>307.6</ele><time>2026-05-01T16:47:48.012Z</time></trkpt><trkpt lat="43.4712533" lon="12.2560797"><ele>307.4</ele><time>2026-05-01T16:47:49.012Z</time></trkpt><trkpt lat="43.4712295" lon="12.2559441"><ele>307.2</ele><time>2026-05-01T16:47:50.012Z</time></trkpt><trkpt lat="43.4712194" lon="12.2558184"><ele>307.0</ele><time>2026-05-01T16:47:51.012Z</time></trkpt><trkpt lat="43.4712323" lon="12.2557053"><ele>306.66666666666663</ele><time>2026-05-01T16:47:52.012Z</time></trkpt><trkpt lat="43.4712482" lon="12.2555894"><ele>306.3333333333333</ele><time>2026-05-01T16:47:53.012Z</time></trkpt><trkpt lat="43.4712447" lon="12.2554819"><ele>306.0</ele><time>2026-05-01T16:47:54.013Z</time></trkpt><trkpt lat="43.4711994" lon="12.2553845"><ele>305.6666666666667</ele><time>2026-05-01T16:47:55.013Z</time></trkpt><trkpt lat="43.4711385" lon="12.2552916"><ele>305.33333333333337</ele><time>2026-05-01T16:47:56.012Z</time></trkpt><trkpt lat="43.4710837" lon="12.2551922"><ele>305.0</ele><time>2026-05-01T16:47:57.012Z</time></trkpt><trkpt lat="43.4710432" lon="12.2550524"><ele>305.0</ele><time>2026-05-01T16:47:58.013Z</time></trkpt><trkpt lat="43.4710077" lon="12.2548793"><ele>305.0</ele><time>2026-05-01T16:47:59.012Z</time></trkpt><trkpt lat="43.4709726" lon="12.2547025"><ele>305.0</ele><time>2026-05-01T16:48:00.012Z</time></trkpt><trkpt lat="43.4709325" lon="12.2545128"><ele>305.0</ele><time>2026-05-01T16:48:01.013Z</time></trkpt><trkpt lat="43.4708938" lon="12.254325"><ele>304.0</ele><time>2026-05-01T16:48:02.013Z</time></trkpt><trkpt lat="43.4708575" lon="12.254128"><ele>303.0</ele><time>2026-05-01T16:48:03.012Z</time></trkpt><trkpt lat="43.4708214" lon="12.2539264"><ele>302.0</ele><time>2026-05-01T16:48:04.013Z</time></trkpt><trkpt lat="43.4707845" lon="12.2537174"><ele>301.6666666666667</ele><time>2026-05-01T16:48:05.012Z</time></trkpt><trkpt lat="43.4707484" lon="12.253498"><ele>301.3333333333333</ele><time>2026-05-01T16:48:06.012Z</time></trkpt><trkpt lat="43.470724" lon="12.2532761"><ele>301.0</ele><time>2026-05-01T16:48:07.012Z</time></trkpt><trkpt lat="43.4707129" lon="12.2530391"><ele>300.0</ele><time>2026-05-01T16:48:08.013Z</time></trkpt><trkpt lat="43.4707001" lon="12.2527904"><ele>299.0</ele><time>2026-05-01T16:48:09.013Z</time></trkpt><trkpt lat="43.4706954" lon="12.2525332"><ele>298.0</ele><time>2026-05-01T16:48:10.013Z</time></trkpt><trkpt lat="43.470692" lon="12.2522706"><ele>297.66666666666663</ele><time>2026-05-01T16:48:11.012Z</time></trkpt><trkpt lat="43.4706863" lon="12.2520141"><ele>297.3333333333333</ele><time>2026-05-01T16:48:12.013Z</time></trkpt><trkpt lat="43.4706768" lon="12.2517552"><ele>297.0</ele><time>2026-05-01T16:48:13.012Z</time></trkpt><trkpt lat="43.4706732" lon="12.2514973"><ele>296.6666666666667</ele><time>2026-05-01T16:48:14.012Z</time></trkpt><trkpt lat="43.4706651" lon="12.2512341"><ele>296.33333333333337</ele><time>2026-05-01T16:48:15.012Z</time></trkpt><trkpt lat="43.4706603" lon="12.2509665"><ele>296.0</ele><time>2026-05-01T16:48:16.012Z</time></trkpt><trkpt lat="43.4706543" lon="12.2506904"><ele>296.33333333333337</ele><time>2026-05-01T16:48:17.013Z</time></trkpt><trkpt lat="43.4706572" lon="12.2504148"><ele>296.6666666666667</ele><time>2026-05-01T16:48:18.012Z</time></trkpt><trkpt lat="43.4706654" lon="12.2501304"><ele>297.0</ele><time>2026-05-01T16:48:19.013Z</time></trkpt><trkpt lat="43.4706765" lon="12.249847"><ele>296.0</ele><time>2026-05-01T16:48:20.013Z</time></trkpt><trkpt lat="43.4706949" lon="12.2495609"><ele>295.0</ele><time>2026-05-01T16:48:21.012Z</time></trkpt><trkpt lat="43.470722" lon="12.2492778"><ele>294.0</ele><time>2026-05-01T16:48:22.013Z</time></trkpt><trkpt lat="43.4707563" lon="12.2489933"><ele>293.6666666666667</ele><time>2026-05-01T16:48:23.013Z</time></trkpt><trkpt lat="43.4707991" lon="12.2487102"><ele>293.33333333333337</ele><time>2026-05-01T16:48:24.013Z</time></trkpt><trkpt lat="43.4708503" lon="12.248437"><ele>293.0</ele><time>2026-05-01T16:48:25.012Z</time></trkpt><trkpt lat="43.4708975" lon="12.2481791"><ele>293.6666666666667</ele><time>2026-05-01T16:48:26.012Z</time></trkpt><trkpt lat="43.4709509" lon="12.2479454"><ele>294.3333333333333</ele><time>2026-05-01T16:48:27.012Z</time></trkpt><trkpt lat="43.4710077" lon="12.2477248"><ele>295.0</ele><time>2026-05-01T16:48:28.013Z</time></trkpt><trkpt lat="43.4710632" lon="12.2475224"><ele>295.0</ele><time>2026-05-01T16:48:29.012Z</time></trkpt><trkpt lat="43.4711148" lon="12.2473451"><ele>295.0</ele><time>2026-05-01T16:48:30.013Z</time></trkpt><trkpt lat="43.4711579" lon="12.2471828"><ele>295.0</ele><time>2026-05-01T16:48:31.013Z</time></trkpt><trkpt lat="43.4711987" lon="12.2470624"><ele>295.0</ele><time>2026-05-01T16:48:32.012Z</time></trkpt><trkpt lat="43.4712339" lon="12.2469655"><ele>295.0</ele><time>2026-05-01T16:48:33.013Z</time></trkpt><trkpt lat="43.4712638" lon="12.2468797"><ele>294.66666666666663</ele><time>2026-05-01T16:48:34.012Z</time></trkpt><trkpt lat="43.471307" lon="12.2467963"><ele>294.3333333333333</ele><time>2026-05-01T16:48:36.012Z</time></trkpt><trkpt lat="43.471365" lon="12.2467412"><ele>294.0</ele><time>2026-05-01T16:48:39.013Z</time></trkpt><trkpt lat="43.471422" lon="12.2467019"><ele>293.6666666666667</ele><time>2026-05-01T16:48:43.012Z</time></trkpt><trkpt lat="43.4714945" lon="12.2466804"><ele>293.33333333333337</ele><time>2026-05-01T16:48:44.013Z</time></trkpt><trkpt lat="43.471575" lon="12.2466413"><ele>293.0</ele><time>2026-05-01T16:48:45.013Z</time></trkpt><trkpt lat="43.4716543" lon="12.2465785"><ele>293.0</ele><time>2026-05-01T16:48:46.012Z</time></trkpt><trkpt lat="43.471724" lon="12.2464908"><ele>293.0</ele><time>2026-05-01T16:48:47.012Z</time></trkpt><trkpt lat="43.4717786" lon="12.2463602"><ele>293.0</ele><time>2026-05-01T16:48:48.012Z</time></trkpt><trkpt lat="43.4718115" lon="12.2462084"><ele>293.0</ele><time>2026-05-01T16:48:49.013Z</time></trkpt><trkpt lat="43.4717994" lon="12.2460552"><ele>293.0</ele><time>2026-05-01T16:48:50.013Z</time></trkpt><trkpt lat="43.4717686" lon="12.2458973"><ele>293.25</ele><time>2026-05-01T16:48:51.012Z</time></trkpt><trkpt lat="43.4717188" lon="12.2457363"><ele>293.5</ele><time>2026-05-01T16:48:52.012Z</time></trkpt><trkpt lat="43.4716804" lon="12.2455857"><ele>293.75</ele><time>2026-05-01T16:48:53.012Z</time></trkpt><trkpt lat="43.4716652" lon="12.2454383"><ele>294.0</ele><time>2026-05-01T16:48:54.012Z</time></trkpt><trkpt lat="43.4716859" lon="12.2452832"><ele>293.5</ele><time>2026-05-01T16:48:55.013Z</time></trkpt><trkpt lat="43.4717273" lon="12.2451593"><ele>293.0</ele><time>2026-05-01T16:48:56.012Z</time></trkpt><trkpt lat="43.4717611" lon="12.245043"><ele>292.5</ele><time>2026-05-01T16:48:57.013Z</time></trkpt><trkpt lat="43.4717955" lon="12.2449372"><ele>292.0</ele><time>2026-05-01T16:48:58.012Z</time></trkpt><trkpt lat="43.4718343" lon="12.2448545"><ele>291.5</ele><time>2026-05-01T16:48:59.013Z</time></trkpt><trkpt lat="43.4718859" lon="12.2447777"><ele>291.0</ele><time>2026-05-01T16:49:00.013Z</time></trkpt><trkpt lat="43.4719397" lon="12.2447277"><ele>291.0</ele><time>2026-05-01T16:49:01.012Z</time></trkpt><trkpt lat="43.4720046" lon="12.2446899"><ele>291.0</ele><time>2026-05-01T16:49:02.012Z</time></trkpt><trkpt lat="43.4720725" lon="12.2446747"><ele>291.0</ele><time>2026-05-01T16:49:03.013Z</time></trkpt><trkpt lat="43.472135" lon="12.2446626"><ele>291.0</ele><time>2026-05-01T16:49:04.012Z</time></trkpt><trkpt lat="43.4722438" lon="12.2446205"><ele>291.0</ele><time>2026-05-01T16:49:06.012Z</time></trkpt><trkpt lat="43.4723175" lon="12.2445596"><ele>291.0</ele><time>2026-05-01T16:49:08.012Z</time></trkpt><trkpt lat="43.4723702" lon="12.2445011"><ele>291.0</ele><time>2026-05-01T16:49:12.012Z</time></trkpt><trkpt lat="43.4722858" lon="12.2445189"><ele>291.0</ele><time>2026-05-01T16:49:16.012Z</time></trkpt><trkpt lat="43.472307" lon="12.2446119"><ele>291.0</ele><time>2026-05-01T16:49:18.013Z</time></trkpt><trkpt lat="43.4723642" lon="12.2447007"><ele>291.0</ele><time>2026-05-01T16:49:20.012Z</time></trkpt><trkpt lat="43.4724544" lon="12.2444666"><ele>291.0</ele><time>2026-05-01T16:50:58.057Z</time></trkpt><trkpt lat="43.4725546" lon="12.2441262"><ele>291.0</ele><time>2026-05-01T16:52:53.013Z</time></trkpt><trkpt lat="43.4724561" lon="12.2442842"><ele>291.0</ele><time>2026-05-01T16:52:54.041Z</time></trkpt><trkpt lat="43.4724722" lon="12.2440206"><ele>291.0</ele><time>2026-05-01T17:11:48.033Z</time></trkpt><trkpt lat="43.4723874" lon="12.2443503"><ele>291.0</ele><time>2026-05-01T17:11:49.014Z</time></trkpt><trkpt lat="43.4723818" lon="12.2444466"><ele>291.0</ele><time>2026-05-01T17:12:25.034Z</time></trkpt><trkpt lat="43.4724791" lon="12.2444424"><ele>291.0</ele><time>2026-05-01T17:13:27.733Z</time></trkpt></trkseg><trkseg><trkpt lat="43.4724272" lon="12.2443274"><ele>291.0</ele><time>2026-05-01T17:29:51.035Z</time></trkpt><trkpt lat="43.4724638" lon="12.2441967"><ele>291.0</ele><time>2026-05-01T17:31:01.035Z</time></trkpt><trkpt lat="43.4724488" lon="12.2440005"><ele>291.0</ele><time>2026-05-01T17:31:03.034Z</time></trkpt><trkpt lat="43.4724491" lon="12.243874"><ele>291.0</ele><time>2026-05-01T17:31:04.034Z</time></trkpt><trkpt lat="43.4724669" lon="12.2437572"><ele>291.0</ele><time>2026-05-01T17:31:05.035Z</time></trkpt><trkpt lat="43.4724934" lon="12.2436506"><ele>291.0</ele><time>2026-05-01T17:31:06.035Z</time></trkpt><trkpt lat="43.472526" lon="12.243559"><ele>291.0</ele><time>2026-05-01T17:31:07.035Z</time></trkpt><trkpt lat="43.4725801" lon="12.2434342"><ele>291.0</ele><time>2026-05-01T17:31:09.034Z</time></trkpt><trkpt lat="43.4725169" lon="12.2434817"><ele>291.0</ele><time>2026-05-01T17:33:33.034Z</time></trkpt><trkpt lat="43.4724804" lon="12.2436323"><ele>291.0</ele><time>2026-05-01T17:33:35.035Z</time></trkpt><trkpt lat="43.4724489" lon="12.2437451"><ele>291.0</ele><time>2026-05-01T17:33:37.034Z</time></trkpt><trkpt lat="43.4724201" lon="12.24385"><ele>291.0</ele><time>2026-05-01T17:33:39.035Z</time></trkpt><trkpt lat="43.4723778" lon="12.2439305"><ele>291.0</ele><time>2026-05-01T17:33:41.034Z</time></trkpt><trkpt lat="43.4722874" lon="12.2439069"><ele>291.0</ele><time>2026-05-01T17:33:43.034Z</time></trkpt><trkpt lat="43.4722007" lon="12.2438454"><ele>291.0</ele><time>2026-05-01T17:33:45.034Z</time></trkpt><trkpt lat="43.4721475" lon="12.2437682"><ele>291.0</ele><time>2026-05-01T17:33:48.034Z</time></trkpt><trkpt lat="43.4721403" lon="12.2436124"><ele>291.0</ele><time>2026-05-01T17:33:53.034Z</time></trkpt><trkpt lat="43.4721508" lon="12.2434858"><ele>291.0</ele><time>2026-05-01T17:33:54.034Z</time></trkpt><trkpt lat="43.4721777" lon="12.2433361"><ele>291.0</ele><time>2026-05-01T17:33:55.034Z</time></trkpt><trkpt lat="43.4722137" lon="12.2431772"><ele>291.0</ele><time>2026-05-01T17:33:56.034Z</time></trkpt><trkpt lat="43.4722537" lon="12.2430087"><ele>290.6666666666667</ele><time>2026-05-01T17:33:57.034Z</time></trkpt><trkpt lat="43.4722935" lon="12.2428166"><ele>290.33333333333337</ele><time>2026-05-01T17:33:58.035Z</time></trkpt><trkpt lat="43.4723393" lon="12.2426119"><ele>290.0</ele><time>2026-05-01T17:33:59.035Z</time></trkpt><trkpt lat="43.4723936" lon="12.2424066"><ele>289.6666666666667</ele><time>2026-05-01T17:34:00.034Z</time></trkpt><trkpt lat="43.4724457" lon="12.2421894"><ele>289.3333333333333</ele><time>2026-05-01T17:34:01.034Z</time></trkpt><trkpt lat="43.4724968" lon="12.241965"><ele>289.0</ele><time>2026-05-01T17:34:02.034Z</time></trkpt><trkpt lat="43.4725501" lon="12.2417314"><ele>289.0</ele><time>2026-05-01T17:34:03.035Z</time></trkpt><trkpt lat="43.4726118" lon="12.241487"><ele>289.0</ele><time>2026-05-01T17:34:04.034Z</time></trkpt><trkpt lat="43.4726729" lon="12.2412403"><ele>289.0</ele><time>2026-05-01T17:34:05.035Z</time></trkpt><trkpt lat="43.4727349" lon="12.240986"><ele>289.3333333333333</ele><time>2026-05-01T17:34:06.034Z</time></trkpt><trkpt lat="43.4727968" lon="12.2407468"><ele>289.6666666666667</ele><time>2026-05-01T17:34:07.034Z</time></trkpt><trkpt lat="43.4728525" lon="12.2405172"><ele>290.0</ele><time>2026-05-01T17:34:08.034Z</time></trkpt><trkpt lat="43.4729073" lon="12.2403209"><ele>289.6</ele><time>2026-05-01T17:34:09.034Z</time></trkpt><trkpt lat="43.4729527" lon="12.2401578"><ele>289.2</ele><time>2026-05-01T17:34:10.034Z</time></trkpt><trkpt lat="43.4729874" lon="12.2400264"><ele>288.8</ele><time>2026-05-01T17:34:11.034Z</time></trkpt><trkpt lat="43.4730285" lon="12.2399199"><ele>288.4</ele><time>2026-05-01T17:34:12.034Z</time></trkpt><trkpt lat="43.4730893" lon="12.2398463"><ele>288.0</ele><time>2026-05-01T17:34:13.034Z</time></trkpt><trkpt lat="43.4731498" lon="12.2397653"><ele>288.0</ele><time>2026-05-01T17:34:14.034Z</time></trkpt><trkpt lat="43.4731907" lon="12.239663"><ele>288.0</ele><time>2026-05-01T17:34:15.034Z</time></trkpt><trkpt lat="43.4732129" lon="12.2395545"><ele>288.0</ele><time>2026-05-01T17:34:16.034Z</time></trkpt><trkpt lat="43.4732106" lon="12.2394445"><ele>288.0</ele><time>2026-05-01T17:34:17.034Z</time></trkpt><trkpt lat="43.4731965" lon="12.2393219"><ele>288.0</ele><time>2026-05-01T17:34:18.035Z</time></trkpt><trkpt lat="43.4731935" lon="12.2391882"><ele>288.0</ele><time>2026-05-01T17:34:19.034Z</time></trkpt><trkpt lat="43.4732086" lon="12.2390692"><ele>288.0</ele><time>2026-05-01T17:34:20.034Z</time></trkpt><trkpt lat="43.4732318" lon="12.238934"><ele>288.0</ele><time>2026-05-01T17:34:21.034Z</time></trkpt><trkpt lat="43.4732476" lon="12.2388011"><ele>288.0</ele><time>2026-05-01T17:34:22.035Z</time></trkpt><trkpt lat="43.4732605" lon="12.2386561"><ele>288.0</ele><time>2026-05-01T17:34:23.034Z</time></trkpt><trkpt lat="43.4732692" lon="12.238516"><ele>288.0</ele><time>2026-05-01T17:34:24.034Z</time></trkpt><trkpt lat="43.4732766" lon="12.2383734"><ele>288.0</ele><time>2026-05-01T17:34:25.035Z</time></trkpt><trkpt lat="43.4732791" lon="12.238224"><ele>288.0</ele><time>2026-05-01T17:34:26.034Z</time></trkpt><trkpt lat="43.473277" lon="12.2380782"><ele>288.0</ele><time>2026-05-01T17:34:27.034Z</time></trkpt><trkpt lat="43.4732654" lon="12.2379307"><ele>288.0</ele><time>2026-05-01T17:34:28.034Z</time></trkpt><trkpt lat="43.4732481" lon="12.2377836"><ele>288.0</ele><time>2026-05-01T17:34:29.034Z</time></trkpt><trkpt lat="43.4732213" lon="12.2376381"><ele>287.6</ele><time>2026-05-01T17:34:30.034Z</time></trkpt><trkpt lat="43.4731899" lon="12.2374949"><ele>287.20000000000005</ele><time>2026-05-01T17:34:31.034Z</time></trkpt><trkpt lat="43.4731544" lon="12.2373496"><ele>286.8</ele><time>2026-05-01T17:34:32.034Z</time></trkpt><trkpt lat="43.4731171" lon="12.2372066"><ele>286.40000000000003</ele><time>2026-05-01T17:34:33.035Z</time></trkpt><trkpt lat="43.47307" lon="12.2370698"><ele>286.0</ele><time>2026-05-01T17:34:34.034Z</time></trkpt><trkpt lat="43.4730218" lon="12.2369369"><ele>286.0</ele><time>2026-05-01T17:34:35.034Z</time></trkpt><trkpt lat="43.4729705" lon="12.2368051"><ele>286.0</ele><time>2026-05-01T17:34:36.034Z</time></trkpt><trkpt lat="43.4729222" lon="12.2366874"><ele>286.0</ele><time>2026-05-01T17:34:37.035Z</time></trkpt><trkpt lat="43.4728747" lon="12.2365899"><ele>286.0</ele><time>2026-05-01T17:34:38.034Z</time></trkpt><trkpt lat="43.4728364" lon="12.2364996"><ele>286.0</ele><time>2026-05-01T17:34:39.034Z</time></trkpt><trkpt lat="43.472803" lon="12.2364209"><ele>286.0</ele><time>2026-05-01T17:34:40.034Z</time></trkpt><trkpt lat="43.4727755" lon="12.2363355"><ele>285.8</ele><time>2026-05-01T17:34:41.034Z</time></trkpt><trkpt lat="43.4727468" lon="12.2361708"><ele>285.6</ele><time>2026-05-01T17:34:43.034Z</time></trkpt><trkpt lat="43.4727533" lon="12.2360737"><ele>285.4</ele><time>2026-05-01T17:34:44.035Z</time></trkpt><trkpt lat="43.4727644" lon="12.2359602"><ele>285.2</ele><time>2026-05-01T17:34:45.035Z</time></trkpt><trkpt lat="43.4727816" lon="12.2358319"><ele>285.0</ele><time>2026-05-01T17:34:46.036Z</time></trkpt><trkpt lat="43.4727832" lon="12.2356963"><ele>285.2</ele><time>2026-05-01T17:34:47.035Z</time></trkpt><trkpt lat="43.4727693" lon="12.2355718"><ele>285.4</ele><time>2026-05-01T17:34:48.035Z</time></trkpt><trkpt lat="43.4727354" lon="12.23546"><ele>285.6</ele><time>2026-05-01T17:34:49.036Z</time></trkpt><trkpt lat="43.4726811" lon="12.2353597"><ele>285.8</ele><time>2026-05-01T17:34:50.035Z</time></trkpt><trkpt lat="43.4726056" lon="12.2352718"><ele>286.0</ele><time>2026-05-01T17:34:51.036Z</time></trkpt><trkpt lat="43.4725223" lon="12.2352138"><ele>286.0</ele><time>2026-05-01T17:34:52.036Z</time></trkpt><trkpt lat="43.4724365" lon="12.235172"><ele>286.0</ele><time>2026-05-01T17:34:53.035Z</time></trkpt><trkpt lat="43.472349" lon="12.2351318"><ele>286.0</ele><time>2026-05-01T17:34:54.035Z</time></trkpt><trkpt lat="43.4722639" lon="12.2350619"><ele>286.0</ele><time>2026-05-01T17:34:55.035Z</time></trkpt><trkpt lat="43.4721891" lon="12.2349617"><ele>286.0</ele><time>2026-05-01T17:34:56.035Z</time></trkpt><trkpt lat="43.4721257" lon="12.2348328"><ele>286.5</ele><time>2026-05-01T17:34:57.035Z</time></trkpt><trkpt lat="43.4720579" lon="12.2346814"><ele>287.0</ele><time>2026-05-01T17:34:58.035Z</time></trkpt><trkpt lat="43.4719757" lon="12.2345159"><ele>287.5</ele><time>2026-05-01T17:34:59.035Z</time></trkpt><trkpt lat="43.4719007" lon="12.2343309"><ele>288.0</ele><time>2026-05-01T17:35:00.035Z</time></trkpt><trkpt lat="43.471814" lon="12.2341236"><ele>286.3333333333333</ele><time>2026-05-01T17:35:01.035Z</time></trkpt><trkpt lat="43.4717204" lon="12.2338989"><ele>284.66666666666663</ele><time>2026-05-01T17:35:02.035Z</time></trkpt><trkpt lat="43.4716256" lon="12.2336696"><ele>283.0</ele><time>2026-05-01T17:35:03.035Z</time></trkpt><trkpt lat="43.4715261" lon="12.2334406"><ele>283.0</ele><time>2026-05-01T17:35:04.035Z</time></trkpt><trkpt lat="43.4714259" lon="12.2332032"><ele>283.0</ele><time>2026-05-01T17:35:05.035Z</time></trkpt><trkpt lat="43.4713202" lon="12.2329624"><ele>283.0</ele><time>2026-05-01T17:35:06.035Z</time></trkpt><trkpt lat="43.4712116" lon="12.2327154"><ele>283.66666666666663</ele><time>2026-05-01T17:35:07.035Z</time></trkpt><trkpt lat="43.4710913" lon="12.2324704"><ele>284.3333333333333</ele><time>2026-05-01T17:35:08.035Z</time></trkpt><trkpt lat="43.4709607" lon="12.2322318"><ele>285.0</ele><time>2026-05-01T17:35:09.036Z</time></trkpt><trkpt lat="43.470819" lon="12.2319909"><ele>285.0</ele><time>2026-05-01T17:35:10.035Z</time></trkpt><trkpt lat="43.4706586" lon="12.2317546"><ele>285.0</ele><time>2026-05-01T17:35:11.035Z</time></trkpt><trkpt lat="43.4704886" lon="12.2315268"><ele>284.3333333333333</ele><time>2026-05-01T17:35:12.036Z</time></trkpt><trkpt lat="43.4703188" lon="12.2313222"><ele>283.66666666666663</ele><time>2026-05-01T17:35:13.035Z</time></trkpt><trkpt lat="43.4701502" lon="12.2311333"><ele>283.0</ele><time>2026-05-01T17:35:14.036Z</time></trkpt><trkpt lat="43.4699948" lon="12.2309774"><ele>283.0</ele><time>2026-05-01T17:35:15.035Z</time></trkpt><trkpt lat="43.4698653" lon="12.2308472"><ele>283.0</ele><time>2026-05-01T17:35:16.035Z</time></trkpt><trkpt lat="43.4697463" lon="12.2307227"><ele>283.0</ele><time>2026-05-01T17:35:17.035Z</time></trkpt><trkpt lat="43.46964" lon="12.230604"><ele>283.0</ele><time>2026-05-01T17:35:18.035Z</time></trkpt><trkpt lat="43.4695363" lon="12.2304948"><ele>283.0</ele><time>2026-05-01T17:35:19.035Z</time></trkpt><trkpt lat="43.4694375" lon="12.2303664"><ele>283.0</ele><time>2026-05-01T17:35:20.035Z</time></trkpt><trkpt lat="43.4693529" lon="12.2302224"><ele>283.0</ele><time>2026-05-01T17:35:21.035Z</time></trkpt><trkpt lat="43.4692941" lon="12.2300834"><ele>283.0</ele><time>2026-05-01T17:35:22.035Z</time></trkpt><trkpt lat="43.4692503" lon="12.2299514"><ele>283.0</ele><time>2026-05-01T17:35:23.035Z</time></trkpt><trkpt lat="43.4691945" lon="12.229834"><ele>283.0</ele><time>2026-05-01T17:35:24.035Z</time></trkpt><trkpt lat="43.4691166" lon="12.2297383"><ele>283.0</ele><time>2026-05-01T17:35:25.035Z</time></trkpt><trkpt lat="43.4690254" lon="12.2296581"><ele>283.0</ele><time>2026-05-01T17:35:26.036Z</time></trkpt><trkpt lat="43.4689069" lon="12.2296141"><ele>283.0</ele><time>2026-05-01T17:35:27.035Z</time></trkpt><trkpt lat="43.4687828" lon="12.2295767"><ele>282.0</ele><time>2026-05-01T17:35:28.036Z</time></trkpt><trkpt lat="43.4686599" lon="12.229513"><ele>281.0</ele><time>2026-05-01T17:35:29.035Z</time></trkpt><trkpt lat="43.4685418" lon="12.2294042"><ele>280.0</ele><time>2026-05-01T17:35:30.035Z</time></trkpt><trkpt lat="43.4684354" lon="12.2292453"><ele>279.0</ele><time>2026-05-01T17:35:31.035Z</time></trkpt><trkpt lat="43.4683201" lon="12.2290821"><ele>279.0</ele><time>2026-05-01T17:35:32.035Z</time></trkpt><trkpt lat="43.4682037" lon="12.2288869"><ele>279.0</ele><time>2026-05-01T17:35:33.036Z</time></trkpt><trkpt lat="43.4680852" lon="12.2286796"><ele>279.0</ele><time>2026-05-01T17:35:34.035Z</time></trkpt><trkpt lat="43.4679675" lon="12.2284614"><ele>279.0</ele><time>2026-05-01T17:35:35.035Z</time></trkpt><trkpt lat="43.4678503" lon="12.2282333"><ele>279.0</ele><time>2026-05-01T17:35:36.035Z</time></trkpt><trkpt lat="43.467738" lon="12.2279947"><ele>279.0</ele><time>2026-05-01T17:35:37.035Z</time></trkpt><trkpt lat="43.4676353" lon="12.2277469"><ele>279.6666666666667</ele><time>2026-05-01T17:35:38.035Z</time></trkpt><trkpt lat="43.4675324" lon="12.2274939"><ele>280.33333333333337</ele><time>2026-05-01T17:35:39.035Z</time></trkpt><trkpt lat="43.4674383" lon="12.2272291"><ele>281.0</ele><time>2026-05-01T17:35:40.035Z</time></trkpt><trkpt lat="43.4673447" lon="12.2269647"><ele>281.0</ele><time>2026-05-01T17:35:41.036Z</time></trkpt><trkpt lat="43.4672669" lon="12.2266943"><ele>281.0</ele><time>2026-05-01T17:35:42.035Z</time></trkpt><trkpt lat="43.4672012" lon="12.2263885"><ele>281.0</ele><time>2026-05-01T17:35:43.035Z</time></trkpt><trkpt lat="43.467145" lon="12.2260985"><ele>281.33333333333337</ele><time>2026-05-01T17:35:44.035Z</time></trkpt><trkpt lat="43.4670969" lon="12.2258157"><ele>281.6666666666667</ele><time>2026-05-01T17:35:45.035Z</time></trkpt><trkpt lat="43.467052" lon="12.225518"><ele>282.0</ele><time>2026-05-01T17:35:46.036Z</time></trkpt><trkpt lat="43.4670062" lon="12.2252199"><ele>282.0</ele><time>2026-05-01T17:35:47.035Z</time></trkpt><trkpt lat="43.4669573" lon="12.2249112"><ele>282.0</ele><time>2026-05-01T17:35:48.035Z</time></trkpt><trkpt lat="43.4669099" lon="12.2245882"><ele>281.5</ele><time>2026-05-01T17:35:49.035Z</time></trkpt><trkpt lat="43.4668591" lon="12.2242623"><ele>281.0</ele><time>2026-05-01T17:35:50.035Z</time></trkpt><trkpt lat="43.4668115" lon="12.2239347"><ele>280.5</ele><time>2026-05-01T17:35:51.035Z</time></trkpt><trkpt lat="43.4667661" lon="12.223601"><ele>280.0</ele><time>2026-05-01T17:35:52.035Z</time></trkpt><trkpt lat="43.4667169" lon="12.2232679"><ele>280.0</ele><time>2026-05-01T17:35:53.035Z</time></trkpt><trkpt lat="43.4666687" lon="12.2229362"><ele>280.0</ele><time>2026-05-01T17:35:54.035Z</time></trkpt><trkpt lat="43.4666224" lon="12.2226104"><ele>279.5</ele><time>2026-05-01T17:35:55.035Z</time></trkpt><trkpt lat="43.4665705" lon="12.2222869"><ele>279.0</ele><time>2026-05-01T17:35:56.035Z</time></trkpt><trkpt lat="43.4665255" lon="12.2219708"><ele>279.0</ele><time>2026-05-01T17:35:57.035Z</time></trkpt><trkpt lat="43.4664814" lon="12.2216738"><ele>279.0</ele><time>2026-05-01T17:35:58.036Z</time></trkpt><trkpt lat="43.4664399" lon="12.221403"><ele>279.0</ele><time>2026-05-01T17:35:59.035Z</time></trkpt><trkpt lat="43.4664044" lon="12.2211429"><ele>279.0</ele><time>2026-05-01T17:36:00.036Z</time></trkpt><trkpt lat="43.4663808" lon="12.2208839"><ele>279.0</ele><time>2026-05-01T17:36:01.035Z</time></trkpt><trkpt lat="43.4663846" lon="12.2206246"><ele>279.0</ele><time>2026-05-01T17:36:02.035Z</time></trkpt><trkpt lat="43.4664171" lon="12.2203639"><ele>279.3333333333333</ele><time>2026-05-01T17:36:03.035Z</time></trkpt><trkpt lat="43.4664863" lon="12.2201052"><ele>279.66666666666663</ele><time>2026-05-01T17:36:04.036Z</time></trkpt><trkpt lat="43.4665845" lon="12.2198418"><ele>280.0</ele><time>2026-05-01T17:36:05.035Z</time></trkpt><trkpt lat="43.4666977" lon="12.2195792"><ele>281.0</ele><time>2026-05-01T17:36:06.035Z</time></trkpt><trkpt lat="43.4668131" lon="12.2193137"><ele>282.0</ele><time>2026-05-01T17:36:07.036Z</time></trkpt><trkpt lat="43.4669321" lon="12.2190433"><ele>282.6666666666667</ele><time>2026-05-01T17:36:08.035Z</time></trkpt><trkpt lat="43.4670489" lon="12.2187739"><ele>283.33333333333337</ele><time>2026-05-01T17:36:09.036Z</time></trkpt><trkpt lat="43.4671566" lon="12.2185177"><ele>284.0</ele><time>2026-05-01T17:36:10.035Z</time></trkpt><trkpt lat="43.4672669" lon="12.2182666"><ele>283.0</ele><time>2026-05-01T17:36:11.036Z</time></trkpt><trkpt lat="43.4673848" lon="12.2180078"><ele>282.0</ele><time>2026-05-01T17:36:12.036Z</time></trkpt><trkpt lat="43.4675027" lon="12.2177461"><ele>281.0</ele><time>2026-05-01T17:36:13.035Z</time></trkpt><trkpt lat="43.4676153" lon="12.2174912"><ele>282.0</ele><time>2026-05-01T17:36:14.035Z</time></trkpt><trkpt lat="43.46772" lon="12.2172519"><ele>283.0</ele><time>2026-05-01T17:36:15.035Z</time></trkpt><trkpt lat="43.4678123" lon="12.217027"><ele>284.0</ele><time>2026-05-01T17:36:16.035Z</time></trkpt><trkpt lat="43.4679089" lon="12.2168279"><ele>283.0</ele><time>2026-05-01T17:36:17.036Z</time></trkpt><trkpt lat="43.4680126" lon="12.2166551"><ele>282.0</ele><time>2026-05-01T17:36:18.036Z</time></trkpt><trkpt lat="43.4681349" lon="12.2165194"><ele>281.0</ele><time>2026-05-01T17:36:19.035Z</time></trkpt><trkpt lat="43.468253" lon="12.2164165"><ele>284.0</ele><time>2026-05-01T17:36:20.035Z</time></trkpt><trkpt lat="43.4684028" lon="12.2163577"><ele>287.0</ele><time>2026-05-01T17:36:21.035Z</time></trkpt><trkpt lat="43.4685567" lon="12.2163339"><ele>290.0</ele><time>2026-05-01T17:36:22.035Z</time></trkpt><trkpt lat="43.4687218" lon="12.2163299"><ele>289.33333333333337</ele><time>2026-05-01T17:36:23.035Z</time></trkpt><trkpt lat="43.4688932" lon="12.2163312"><ele>288.6666666666667</ele><time>2026-05-01T17:36:24.035Z</time></trkpt><trkpt lat="43.469069" lon="12.2163354"><ele>288.0</ele><time>2026-05-01T17:36:25.035Z</time></trkpt><trkpt lat="43.4692507" lon="12.2163487"><ele>288.0</ele><time>2026-05-01T17:36:26.035Z</time></trkpt><trkpt lat="43.4694345" lon="12.2163605"><ele>288.0</ele><time>2026-05-01T17:36:27.035Z</time></trkpt><trkpt lat="43.4696159" lon="12.2163671"><ele>288.0</ele><time>2026-05-01T17:36:28.035Z</time></trkpt><trkpt lat="43.4697885" lon="12.2163743"><ele>288.6666666666667</ele><time>2026-05-01T17:36:29.035Z</time></trkpt><trkpt lat="43.4699694" lon="12.2163885"><ele>289.33333333333337</ele><time>2026-05-01T17:36:30.035Z</time></trkpt><trkpt lat="43.470152" lon="12.2163969"><ele>290.0</ele><time>2026-05-01T17:36:31.035Z</time></trkpt><trkpt lat="43.4703374" lon="12.2164002"><ele>289.0</ele><time>2026-05-01T17:36:32.036Z</time></trkpt><trkpt lat="43.4705285" lon="12.2163858"><ele>288.0</ele><time>2026-05-01T17:36:33.035Z</time></trkpt><trkpt lat="43.4707228" lon="12.2163461"><ele>287.0</ele><time>2026-05-01T17:36:34.035Z</time></trkpt><trkpt lat="43.4709037" lon="12.2162826"><ele>287.0</ele><time>2026-05-01T17:36:35.035Z</time></trkpt><trkpt lat="43.4710697" lon="12.2162285"><ele>287.0</ele><time>2026-05-01T17:36:36.035Z</time></trkpt><trkpt lat="43.4712276" lon="12.2161806"><ele>287.0</ele><time>2026-05-01T17:36:37.035Z</time></trkpt><trkpt lat="43.4713758" lon="12.2161355"><ele>287.0</ele><time>2026-05-01T17:36:38.035Z</time></trkpt><trkpt lat="43.4715188" lon="12.2160951"><ele>287.0</ele><time>2026-05-01T17:36:39.036Z</time></trkpt><trkpt lat="43.4716566" lon="12.2160532"><ele>287.0</ele><time>2026-05-01T17:36:40.035Z</time></trkpt><trkpt lat="43.4717933" lon="12.2160106"><ele>287.0</ele><time>2026-05-01T17:36:41.035Z</time></trkpt><trkpt lat="43.471931" lon="12.2159672"><ele>287.0</ele><time>2026-05-01T17:36:42.035Z</time></trkpt><trkpt lat="43.4720658" lon="12.215924"><ele>287.0</ele><time>2026-05-01T17:36:43.035Z</time></trkpt><trkpt lat="43.4721995" lon="12.2158637"><ele>287.0</ele><time>2026-05-01T17:36:44.036Z</time></trkpt><trkpt lat="43.4723284" lon="12.2157734"><ele>287.0</ele><time>2026-05-01T17:36:45.035Z</time></trkpt><trkpt lat="43.4724516" lon="12.2156714"><ele>286.5</ele><time>2026-05-01T17:36:46.035Z</time></trkpt><trkpt lat="43.4725585" lon="12.2155581"><ele>286.0</ele><time>2026-05-01T17:36:47.036Z</time></trkpt><trkpt lat="43.4726626" lon="12.2154337"><ele>285.5</ele><time>2026-05-01T17:36:48.035Z</time></trkpt><trkpt lat="43.472761" lon="12.2152979"><ele>285.0</ele><time>2026-05-01T17:36:49.036Z</time></trkpt><trkpt lat="43.472855" lon="12.215151"><ele>284.75</ele><time>2026-05-01T17:36:50.035Z</time></trkpt><trkpt lat="43.4729407" lon="12.214983"><ele>284.5</ele><time>2026-05-01T17:36:51.035Z</time></trkpt><trkpt lat="43.4730086" lon="12.2148081"><ele>284.25</ele><time>2026-05-01T17:36:52.035Z</time></trkpt><trkpt lat="43.4730569" lon="12.2146343"><ele>284.0</ele><time>2026-05-01T17:36:53.036Z</time></trkpt><trkpt lat="43.4730964" lon="12.2144631"><ele>283.6666666666667</ele><time>2026-05-01T17:36:54.035Z</time></trkpt><trkpt lat="43.47313" lon="12.2142881"><ele>283.3333333333333</ele><time>2026-05-01T17:36:55.035Z</time></trkpt><trkpt lat="43.4731514" lon="12.2140697"><ele>283.0</ele><time>2026-05-01T17:36:56.035Z</time></trkpt><trkpt lat="43.4731771" lon="12.2138106"><ele>283.0</ele><time>2026-05-01T17:36:57.035Z</time></trkpt><trkpt lat="43.4732053" lon="12.2135383"><ele>283.0</ele><time>2026-05-01T17:36:58.035Z</time></trkpt><trkpt lat="43.4732476" lon="12.21323"><ele>283.0</ele><time>2026-05-01T17:36:59.035Z</time></trkpt><trkpt lat="43.4732909" lon="12.2129023"><ele>283.5</ele><time>2026-05-01T17:37:00.035Z</time></trkpt><trkpt lat="43.4733382" lon="12.2125578"><ele>284.0</ele><time>2026-05-01T17:37:01.035Z</time></trkpt><trkpt lat="43.4733868" lon="12.2122276"><ele>285.5</ele><time>2026-05-01T17:37:02.035Z</time></trkpt><trkpt lat="43.4734382" lon="12.2118904"><ele>287.0</ele><time>2026-05-01T17:37:03.035Z</time></trkpt><trkpt lat="43.4734782" lon="12.2115605"><ele>287.33333333333337</ele><time>2026-05-01T17:37:04.035Z</time></trkpt><trkpt lat="43.4735222" lon="12.2112535"><ele>287.6666666666667</ele><time>2026-05-01T17:37:05.036Z</time></trkpt><trkpt lat="43.4735609" lon="12.2109627"><ele>288.0</ele><time>2026-05-01T17:37:06.035Z</time></trkpt><trkpt lat="43.4736016" lon="12.2106876"><ele>287.6666666666667</ele><time>2026-05-01T17:37:07.035Z</time></trkpt><trkpt lat="43.4736526" lon="12.2104286"><ele>287.33333333333337</ele><time>2026-05-01T17:37:08.035Z</time></trkpt><trkpt lat="43.4737056" lon="12.2101975"><ele>287.0</ele><time>2026-05-01T17:37:09.035Z</time></trkpt><trkpt lat="43.47376" lon="12.2099576"><ele>285.6666666666667</ele><time>2026-05-01T17:37:10.035Z</time></trkpt><trkpt lat="43.473815" lon="12.2097023"><ele>284.3333333333333</ele><time>2026-05-01T17:37:11.036Z</time></trkpt><trkpt lat="43.4738677" lon="12.2094412"><ele>283.0</ele><time>2026-05-01T17:37:12.035Z</time></trkpt><trkpt lat="43.473921" lon="12.2091807"><ele>283.66666666666663</ele><time>2026-05-01T17:37:13.035Z</time></trkpt><trkpt lat="43.4739705" lon="12.2089178"><ele>284.3333333333333</ele><time>2026-05-01T17:37:14.036Z</time></trkpt><trkpt lat="43.4740051" lon="12.2086539"><ele>285.0</ele><time>2026-05-01T17:37:15.035Z</time></trkpt><trkpt lat="43.4740105" lon="12.2083804"><ele>285.3333333333333</ele><time>2026-05-01T17:37:16.035Z</time></trkpt><trkpt lat="43.4739828" lon="12.2081067"><ele>285.66666666666663</ele><time>2026-05-01T17:37:17.035Z</time></trkpt><trkpt lat="43.4739189" lon="12.2078226"><ele>286.0</ele><time>2026-05-01T17:37:18.035Z</time></trkpt><trkpt lat="43.4738328" lon="12.2075448"><ele>286.5</ele><time>2026-05-01T17:37:19.035Z</time></trkpt><trkpt lat="43.473732" lon="12.2072599"><ele>287.0</ele><time>2026-05-01T17:37:20.035Z</time></trkpt><trkpt lat="43.4736247" lon="12.2069754"><ele>287.0</ele><time>2026-05-01T17:37:21.035Z</time></trkpt><trkpt lat="43.4735214" lon="12.2066918"><ele>287.0</ele><time>2026-05-01T17:37:22.035Z</time></trkpt><trkpt lat="43.4734288" lon="12.2064365"><ele>287.0</ele><time>2026-05-01T17:37:23.036Z</time></trkpt><trkpt lat="43.4733386" lon="12.206207"><ele>288.0</ele><time>2026-05-01T17:37:24.035Z</time></trkpt><trkpt lat="43.4732583" lon="12.2059929"><ele>289.0</ele><time>2026-05-01T17:37:25.036Z</time></trkpt><trkpt lat="43.4732042" lon="12.2057854"><ele>290.0</ele><time>2026-05-01T17:37:26.035Z</time></trkpt><trkpt lat="43.4731766" lon="12.2055691"><ele>290.0</ele><time>2026-05-01T17:37:27.035Z</time></trkpt><trkpt lat="43.4731912" lon="12.2053475"><ele>290.0</ele><time>2026-05-01T17:37:28.035Z</time></trkpt><trkpt lat="43.4732339" lon="12.2051289"><ele>290.0</ele><time>2026-05-01T17:37:29.035Z</time></trkpt><trkpt lat="43.4733049" lon="12.2049204"><ele>291.33333333333337</ele><time>2026-05-01T17:37:30.035Z</time></trkpt><trkpt lat="43.4734021" lon="12.2046962"><ele>292.6666666666667</ele><time>2026-05-01T17:37:31.035Z</time></trkpt><trkpt lat="43.4735165" lon="12.2044489"><ele>294.0</ele><time>2026-05-01T17:37:32.035Z</time></trkpt><trkpt lat="43.4736324" lon="12.2041975"><ele>295.0</ele><time>2026-05-01T17:37:33.035Z</time></trkpt><trkpt lat="43.473761" lon="12.203925"><ele>296.0</ele><time>2026-05-01T17:37:34.035Z</time></trkpt><trkpt lat="43.4738904" lon="12.2036448"><ele>295.0</ele><time>2026-05-01T17:37:35.035Z</time></trkpt><trkpt lat="43.4740162" lon="12.2033711"><ele>294.0</ele><time>2026-05-01T17:37:36.035Z</time></trkpt><trkpt lat="43.4741374" lon="12.2031085"><ele>294.0</ele><time>2026-05-01T17:37:37.035Z</time></trkpt><trkpt lat="43.4742493" lon="12.2028556"><ele>294.0</ele><time>2026-05-01T17:37:38.035Z</time></trkpt><trkpt lat="43.4743598" lon="12.2026122"><ele>294.0</ele><time>2026-05-01T17:37:39.035Z</time></trkpt><trkpt lat="43.4744737" lon="12.202366"><ele>294.0</ele><time>2026-05-01T17:37:40.035Z</time></trkpt><trkpt lat="43.4745895" lon="12.2021184"><ele>294.0</ele><time>2026-05-01T17:37:41.035Z</time></trkpt><trkpt lat="43.4747051" lon="12.2018753"><ele>294.0</ele><time>2026-05-01T17:37:42.035Z</time></trkpt><trkpt lat="43.4748157" lon="12.2016303"><ele>294.0</ele><time>2026-05-01T17:37:43.035Z</time></trkpt><trkpt lat="43.4749284" lon="12.2013839"><ele>294.0</ele><time>2026-05-01T17:37:44.035Z</time></trkpt><trkpt lat="43.4750469" lon="12.2011303"><ele>294.0</ele><time>2026-05-01T17:37:45.035Z</time></trkpt><trkpt lat="43.4751635" lon="12.2008831"><ele>294.0</ele><time>2026-05-01T17:37:46.036Z</time></trkpt><trkpt lat="43.4752711" lon="12.2006491"><ele>294.0</ele><time>2026-05-01T17:37:47.035Z</time></trkpt><trkpt lat="43.4753715" lon="12.2004328"><ele>294.0</ele><time>2026-05-01T17:37:48.035Z</time></trkpt><trkpt lat="43.4754695" lon="12.2002244"><ele>293.6666666666667</ele><time>2026-05-01T17:37:49.035Z</time></trkpt><trkpt lat="43.4755678" lon="12.2000202"><ele>293.33333333333337</ele><time>2026-05-01T17:37:50.035Z</time></trkpt><trkpt lat="43.4756595" lon="12.1998158"><ele>293.0</ele><time>2026-05-01T17:37:51.035Z</time></trkpt><trkpt lat="43.4757428" lon="12.1996143"><ele>293.6666666666667</ele><time>2026-05-01T17:37:52.035Z</time></trkpt><trkpt lat="43.475824" lon="12.1994116"><ele>294.3333333333333</ele><time>2026-05-01T17:37:53.035Z</time></trkpt><trkpt lat="43.475902" lon="12.1992095"><ele>295.0</ele><time>2026-05-01T17:37:54.035Z</time></trkpt><trkpt lat="43.4759862" lon="12.1989956"><ele>295.0</ele><time>2026-05-01T17:37:55.035Z</time></trkpt><trkpt lat="43.4760818" lon="12.1988002"><ele>295.0</ele><time>2026-05-01T17:37:56.035Z</time></trkpt><trkpt lat="43.4761721" lon="12.1986118"><ele>295.0</ele><time>2026-05-01T17:37:57.035Z</time></trkpt><trkpt lat="43.4762533" lon="12.1984357"><ele>294.75</ele><time>2026-05-01T17:37:58.036Z</time></trkpt><trkpt lat="43.4763309" lon="12.1982693"><ele>294.5</ele><time>2026-05-01T17:37:59.035Z</time></trkpt><trkpt lat="43.4764123" lon="12.1981134"><ele>294.25</ele><time>2026-05-01T17:38:00.036Z</time></trkpt><trkpt lat="43.4764847" lon="12.1979599"><ele>294.0</ele><time>2026-05-01T17:38:01.035Z</time></trkpt><trkpt lat="43.4765496" lon="12.1978169"><ele>294.0</ele><time>2026-05-01T17:38:02.035Z</time></trkpt><trkpt lat="43.4766085" lon="12.1976682"><ele>294.0</ele><time>2026-05-01T17:38:03.035Z</time></trkpt><trkpt lat="43.4766756" lon="12.1975151"><ele>294.0</ele><time>2026-05-01T17:38:04.036Z</time></trkpt><trkpt lat="43.4767559" lon="12.1973535"><ele>294.0</ele><time>2026-05-01T17:38:05.035Z</time></trkpt><trkpt lat="43.4768375" lon="12.1971741"><ele>294.3333333333333</ele><time>2026-05-01T17:38:06.036Z</time></trkpt><trkpt lat="43.4769276" lon="12.1969918"><ele>294.66666666666663</ele><time>2026-05-01T17:38:07.035Z</time></trkpt><trkpt lat="43.477016" lon="12.1967951"><ele>295.0</ele><time>2026-05-01T17:38:08.035Z</time></trkpt><trkpt lat="43.4771089" lon="12.1965901"><ele>294.66666666666663</ele><time>2026-05-01T17:38:09.035Z</time></trkpt><trkpt lat="43.4772108" lon="12.1963682"><ele>294.3333333333333</ele><time>2026-05-01T17:38:10.035Z</time></trkpt><trkpt lat="43.4773173" lon="12.1961437"><ele>294.0</ele><time>2026-05-01T17:38:11.035Z</time></trkpt><trkpt lat="43.4774235" lon="12.1959053"><ele>295.0</ele><time>2026-05-01T17:38:12.035Z</time></trkpt><trkpt lat="43.4775361" lon="12.1956403"><ele>296.0</ele><time>2026-05-01T17:38:13.035Z</time></trkpt><trkpt lat="43.4776513" lon="12.195366"><ele>296.0</ele><time>2026-05-01T17:38:14.035Z</time></trkpt><trkpt lat="43.4777767" lon="12.1950874"><ele>296.0</ele><time>2026-05-01T17:38:15.035Z</time></trkpt><trkpt lat="43.4779047" lon="12.1947934"><ele>294.5</ele><time>2026-05-01T17:38:16.035Z</time></trkpt><trkpt lat="43.4780387" lon="12.1944937"><ele>293.0</ele><time>2026-05-01T17:38:17.035Z</time></trkpt><trkpt lat="43.4781788" lon="12.1941838"><ele>294.5</ele><time>2026-05-01T17:38:18.035Z</time></trkpt><trkpt lat="43.4783176" lon="12.193874"><ele>296.0</ele><time>2026-05-01T17:38:19.035Z</time></trkpt><trkpt lat="43.478443" lon="12.1935786"><ele>296.0</ele><time>2026-05-01T17:38:20.036Z</time></trkpt><trkpt lat="43.4785638" lon="12.1932985"><ele>296.0</ele><time>2026-05-01T17:38:21.035Z</time></trkpt><trkpt lat="43.4786836" lon="12.1930271"><ele>294.33333333333337</ele><time>2026-05-01T17:38:22.035Z</time></trkpt><trkpt lat="43.4787958" lon="12.1927666"><ele>292.6666666666667</ele><time>2026-05-01T17:38:23.035Z</time></trkpt><trkpt lat="43.4789056" lon="12.1925295"><ele>291.0</ele><time>2026-05-01T17:38:24.035Z</time></trkpt><trkpt lat="43.4790134" lon="12.1922889"><ele>291.0</ele><time>2026-05-01T17:38:25.035Z</time></trkpt><trkpt lat="43.4791153" lon="12.192044"><ele>291.0</ele><time>2026-05-01T17:38:26.035Z</time></trkpt><trkpt lat="43.4792206" lon="12.1918046"><ele>291.0</ele><time>2026-05-01T17:38:27.035Z</time></trkpt><trkpt lat="43.4793231" lon="12.1915702"><ele>291.0</ele><time>2026-05-01T17:38:28.035Z</time></trkpt><trkpt lat="43.4794235" lon="12.1913366"><ele>291.0</ele><time>2026-05-01T17:38:29.035Z</time></trkpt><trkpt lat="43.4795291" lon="12.1911099"><ele>291.0</ele><time>2026-05-01T17:38:30.035Z</time></trkpt><trkpt lat="43.4796362" lon="12.1908766"><ele>289.6666666666667</ele><time>2026-05-01T17:38:31.035Z</time></trkpt><trkpt lat="43.4797426" lon="12.1906422"><ele>288.33333333333337</ele><time>2026-05-01T17:38:32.035Z</time></trkpt><trkpt lat="43.4798475" lon="12.1904041"><ele>287.0</ele><time>2026-05-01T17:38:33.035Z</time></trkpt><trkpt lat="43.4799533" lon="12.1901678"><ele>287.0</ele><time>2026-05-01T17:38:34.036Z</time></trkpt><trkpt lat="43.480059" lon="12.1899342"><ele>287.0</ele><time>2026-05-01T17:38:35.035Z</time></trkpt><trkpt lat="43.4801634" lon="12.1896979"><ele>287.0</ele><time>2026-05-01T17:38:36.035Z</time></trkpt><trkpt lat="43.480267" lon="12.1894681"><ele>286.33333333333337</ele><time>2026-05-01T17:38:37.036Z</time></trkpt><trkpt lat="43.4803672" lon="12.1892565"><ele>285.6666666666667</ele><time>2026-05-01T17:38:38.036Z</time></trkpt><trkpt lat="43.4804585" lon="12.1890505"><ele>285.0</ele><time>2026-05-01T17:38:39.035Z</time></trkpt><trkpt lat="43.480548" lon="12.1888481"><ele>285.0</ele><time>2026-05-01T17:38:40.036Z</time></trkpt><trkpt lat="43.480648" lon="12.1886284"><ele>285.0</ele><time>2026-05-01T17:38:41.035Z</time></trkpt><trkpt lat="43.4807492" lon="12.1884041"><ele>285.0</ele><time>2026-05-01T17:38:42.036Z</time></trkpt><trkpt lat="43.4808511" lon="12.1881599"><ele>285.0</ele><time>2026-05-01T17:38:43.035Z</time></trkpt><trkpt lat="43.4809603" lon="12.1878994"><ele>285.0</ele><time>2026-05-01T17:38:44.035Z</time></trkpt><trkpt lat="43.4810828" lon="12.1876351"><ele>285.0</ele><time>2026-05-01T17:38:45.035Z</time></trkpt><trkpt lat="43.4812128" lon="12.1873541"><ele>286.0</ele><time>2026-05-01T17:38:46.035Z</time></trkpt><trkpt lat="43.4813475" lon="12.1870736"><ele>287.0</ele><time>2026-05-01T17:38:47.036Z</time></trkpt><trkpt lat="43.481479" lon="12.1867934"><ele>287.0</ele><time>2026-05-01T17:38:48.035Z</time></trkpt><trkpt lat="43.4816096" lon="12.1865115"><ele>287.0</ele><time>2026-05-01T17:38:49.035Z</time></trkpt><trkpt lat="43.481729" lon="12.1862287"><ele>287.0</ele><time>2026-05-01T17:38:50.035Z</time></trkpt><trkpt lat="43.4818359" lon="12.1859334"><ele>287.0</ele><time>2026-05-01T17:38:51.035Z</time></trkpt><trkpt lat="43.4819448" lon="12.1856402"><ele>287.0</ele><time>2026-05-01T17:38:52.035Z</time></trkpt><trkpt lat="43.4820238" lon="12.1853238"><ele>287.0</ele><time>2026-05-01T17:38:53.035Z</time></trkpt><trkpt lat="43.4820871" lon="12.1849786"><ele>285.5</ele><time>2026-05-01T17:38:54.035Z</time></trkpt><trkpt lat="43.4821525" lon="12.1846219"><ele>284.0</ele><time>2026-05-01T17:38:55.036Z</time></trkpt><trkpt lat="43.4822227" lon="12.18426"><ele>285.0</ele><time>2026-05-01T17:38:56.035Z</time></trkpt><trkpt lat="43.4822913" lon="12.1838837"><ele>286.0</ele><time>2026-05-01T17:38:57.035Z</time></trkpt><trkpt lat="43.4823636" lon="12.183504"><ele>287.0</ele><time>2026-05-01T17:38:58.035Z</time></trkpt><trkpt lat="43.4824344" lon="12.1831177"><ele>288.0</ele><time>2026-05-01T17:38:59.035Z</time></trkpt><trkpt lat="43.482505" lon="12.1827316"><ele>288.0</ele><time>2026-05-01T17:39:00.035Z</time></trkpt><trkpt lat="43.4825769" lon="12.1823529"><ele>288.0</ele><time>2026-05-01T17:39:01.035Z</time></trkpt><trkpt lat="43.4826485" lon="12.181981"><ele>289.0</ele><time>2026-05-01T17:39:02.035Z</time></trkpt><trkpt lat="43.4827165" lon="12.1816318"><ele>290.0</ele><time>2026-05-01T17:39:03.035Z</time></trkpt><trkpt lat="43.4827736" lon="12.1813054"><ele>289.0</ele><time>2026-05-01T17:39:04.035Z</time></trkpt><trkpt lat="43.4828439" lon="12.1810038"><ele>288.0</ele><time>2026-05-01T17:39:05.035Z</time></trkpt><trkpt lat="43.4829339" lon="12.1807271"><ele>289.6666666666667</ele><time>2026-05-01T17:39:06.035Z</time></trkpt><trkpt lat="43.4830533" lon="12.1804735"><ele>291.33333333333337</ele><time>2026-05-01T17:39:07.035Z</time></trkpt><trkpt lat="43.483196" lon="12.1802405"><ele>293.0</ele><time>2026-05-01T17:39:08.035Z</time></trkpt><trkpt lat="43.4833601" lon="12.1799996"><ele>296.5</ele><time>2026-05-01T17:39:09.036Z</time></trkpt><trkpt lat="43.4835487" lon="12.1797595"><ele>300.0</ele><time>2026-05-01T17:39:10.036Z</time></trkpt><trkpt lat="43.4837595" lon="12.1795212"><ele>296.0</ele><time>2026-05-01T17:39:11.035Z</time></trkpt><trkpt lat="43.4839839" lon="12.1793032"><ele>292.0</ele><time>2026-05-01T17:39:12.035Z</time></trkpt><trkpt lat="43.4842259" lon="12.179105"><ele>292.5</ele><time>2026-05-01T17:39:13.035Z</time></trkpt><trkpt lat="43.4844637" lon="12.1789072"><ele>293.0</ele><time>2026-05-01T17:39:14.036Z</time></trkpt><trkpt lat="43.4847034" lon="12.1786905"><ele>293.0</ele><time>2026-05-01T17:39:15.035Z</time></trkpt><trkpt lat="43.4849457" lon="12.1784669"><ele>293.0</ele><time>2026-05-01T17:39:16.036Z</time></trkpt><trkpt lat="43.4851828" lon="12.1782326"><ele>293.0</ele><time>2026-05-01T17:39:17.035Z</time></trkpt><trkpt lat="43.4854051" lon="12.1780006"><ele>293.0</ele><time>2026-05-01T17:39:18.035Z</time></trkpt><trkpt lat="43.4856232" lon="12.177759"><ele>293.0</ele><time>2026-05-01T17:39:19.036Z</time></trkpt><trkpt lat="43.4858374" lon="12.1774986"><ele>293.0</ele><time>2026-05-01T17:39:20.035Z</time></trkpt><trkpt lat="43.4860467" lon="12.1772134"><ele>292.0</ele><time>2026-05-01T17:39:21.035Z</time></trkpt><trkpt lat="43.4862625" lon="12.1769247"><ele>291.0</ele><time>2026-05-01T17:39:22.035Z</time></trkpt><trkpt lat="43.4864838" lon="12.1766307"><ele>293.0</ele><time>2026-05-01T17:39:23.035Z</time></trkpt><trkpt lat="43.4867154" lon="12.1763264"><ele>295.0</ele><time>2026-05-01T17:39:24.035Z</time></trkpt><trkpt lat="43.486945" lon="12.1760296"><ele>295.0</ele><time>2026-05-01T17:39:25.035Z</time></trkpt><trkpt lat="43.4871575" lon="12.175742"><ele>295.0</ele><time>2026-05-01T17:39:26.035Z</time></trkpt><trkpt lat="43.4873591" lon="12.175482"><ele>295.0</ele><time>2026-05-01T17:39:27.035Z</time></trkpt><trkpt lat="43.4875412" lon="12.1752423"><ele>295.0</ele><time>2026-05-01T17:39:28.035Z</time></trkpt><trkpt lat="43.4877161" lon="12.175006"><ele>294.3333333333333</ele><time>2026-05-01T17:39:29.035Z</time></trkpt><trkpt lat="43.4878752" lon="12.1747923"><ele>293.6666666666667</ele><time>2026-05-01T17:39:30.036Z</time></trkpt><trkpt lat="43.488034" lon="12.174588"><ele>293.0</ele><time>2026-05-01T17:39:31.036Z</time></trkpt><trkpt lat="43.4881911" lon="12.1743818"><ele>293.0</ele><time>2026-05-01T17:39:32.035Z</time></trkpt><trkpt lat="43.4883436" lon="12.1741613"><ele>293.0</ele><time>2026-05-01T17:39:33.035Z</time></trkpt><trkpt lat="43.488492" lon="12.1739097"><ele>295.5</ele><time>2026-05-01T17:39:34.035Z</time></trkpt><trkpt lat="43.4886536" lon="12.1736482"><ele>298.0</ele><time>2026-05-01T17:39:35.035Z</time></trkpt><trkpt lat="43.4888292" lon="12.1733901"><ele>295.0</ele><time>2026-05-01T17:39:36.035Z</time></trkpt><trkpt lat="43.4890179" lon="12.1731339"><ele>292.0</ele><time>2026-05-01T17:39:37.035Z</time></trkpt><trkpt lat="43.489205" lon="12.1728541"><ele>292.0</ele><time>2026-05-01T17:39:38.035Z</time></trkpt><trkpt lat="43.4893952" lon="12.172565"><ele>292.0</ele><time>2026-05-01T17:39:39.036Z</time></trkpt><trkpt lat="43.489588" lon="12.1722738"><ele>291.0</ele><time>2026-05-01T17:39:40.036Z</time></trkpt><trkpt lat="43.4897805" lon="12.1719744"><ele>290.0</ele><time>2026-05-01T17:39:41.035Z</time></trkpt><trkpt lat="43.4899604" lon="12.1716744"><ele>293.5</ele><time>2026-05-01T17:39:42.035Z</time></trkpt><trkpt lat="43.4901217" lon="12.1713497"><ele>297.0</ele><time>2026-05-01T17:39:43.035Z</time></trkpt><trkpt lat="43.4902673" lon="12.1710387"><ele>297.0</ele><time>2026-05-01T17:39:44.036Z</time></trkpt><trkpt lat="43.4903873" lon="12.1707526"><ele>297.0</ele><time>2026-05-01T17:39:45.035Z</time></trkpt><trkpt lat="43.4904819" lon="12.170475"><ele>296.6666666666667</ele><time>2026-05-01T17:39:46.035Z</time></trkpt><trkpt lat="43.4905616" lon="12.1702109"><ele>296.33333333333337</ele><time>2026-05-01T17:39:47.035Z</time></trkpt><trkpt lat="43.4906335" lon="12.1699354"><ele>296.0</ele><time>2026-05-01T17:39:48.036Z</time></trkpt><trkpt lat="43.4906858" lon="12.169654"><ele>296.0</ele><time>2026-05-01T17:39:49.035Z</time></trkpt><trkpt lat="43.4907373" lon="12.1693868"><ele>296.0</ele><time>2026-05-01T17:39:50.035Z</time></trkpt><trkpt lat="43.4907913" lon="12.1691262"><ele>296.0</ele><time>2026-05-01T17:39:51.035Z</time></trkpt><trkpt lat="43.4908412" lon="12.1688475"><ele>297.0</ele><time>2026-05-01T17:39:52.035Z</time></trkpt><trkpt lat="43.4908933" lon="12.1685637"><ele>298.0</ele><time>2026-05-01T17:39:53.035Z</time></trkpt><trkpt lat="43.490944" lon="12.1682714"><ele>299.0</ele><time>2026-05-01T17:39:54.035Z</time></trkpt><trkpt lat="43.4909992" lon="12.167981"><ele>300.0</ele><time>2026-05-01T17:39:55.035Z</time></trkpt><trkpt lat="43.4910509" lon="12.1676912"><ele>301.0</ele><time>2026-05-01T17:39:56.036Z</time></trkpt><trkpt lat="43.4911046" lon="12.1674004"><ele>302.0</ele><time>2026-05-01T17:39:57.036Z</time></trkpt><trkpt lat="43.4911569" lon="12.1671199"><ele>304.0</ele><time>2026-05-01T17:39:58.036Z</time></trkpt><trkpt lat="43.491199" lon="12.16686"><ele>306.0</ele><time>2026-05-01T17:39:59.036Z</time></trkpt><trkpt lat="43.4912242" lon="12.1666282"><ele>308.0</ele><time>2026-05-01T17:40:00.035Z</time></trkpt><trkpt lat="43.4912322" lon="12.1663993"><ele>308.6666666666667</ele><time>2026-05-01T17:40:01.035Z</time></trkpt><trkpt lat="43.4912231" lon="12.1661626"><ele>309.3333333333333</ele><time>2026-05-01T17:40:02.035Z</time></trkpt><trkpt lat="43.4912065" lon="12.1659464"><ele>310.0</ele><time>2026-05-01T17:40:03.036Z</time></trkpt><trkpt lat="43.4911866" lon="12.1657277"><ele>311.3333333333333</ele><time>2026-05-01T17:40:04.035Z</time></trkpt><trkpt lat="43.4911902" lon="12.1654909"><ele>312.6666666666667</ele><time>2026-05-01T17:40:05.035Z</time></trkpt><trkpt lat="43.4912105" lon="12.1652607"><ele>314.0</ele><time>2026-05-01T17:40:06.036Z</time></trkpt><trkpt lat="43.4913079" lon="12.1650292"><ele>310.6666666666667</ele><time>2026-05-01T17:40:07.035Z</time></trkpt><trkpt lat="43.4914467" lon="12.1647909"><ele>307.3333333333333</ele><time>2026-05-01T17:40:08.035Z</time></trkpt><trkpt lat="43.491593" lon="12.164555"><ele>304.0</ele><time>2026-05-01T17:40:09.036Z</time></trkpt><trkpt lat="43.4917315" lon="12.1643111"><ele>304.0</ele><time>2026-05-01T17:40:10.035Z</time></trkpt><trkpt lat="43.4918597" lon="12.1640338"><ele>304.0</ele><time>2026-05-01T17:40:11.036Z</time></trkpt><trkpt lat="43.4919683" lon="12.1637427"><ele>307.0</ele><time>2026-05-01T17:40:12.035Z</time></trkpt><trkpt lat="43.492068" lon="12.1634184"><ele>310.0</ele><time>2026-05-01T17:40:13.036Z</time></trkpt><trkpt lat="43.4921739" lon="12.1630812"><ele>303.5</ele><time>2026-05-01T17:40:14.036Z</time></trkpt><trkpt lat="43.4922893" lon="12.1627503"><ele>297.0</ele><time>2026-05-01T17:40:15.035Z</time></trkpt><trkpt lat="43.4923941" lon="12.1624361"><ele>297.3333333333333</ele><time>2026-05-01T17:40:16.035Z</time></trkpt><trkpt lat="43.4924674" lon="12.1621615"><ele>297.66666666666663</ele><time>2026-05-01T17:40:17.035Z</time></trkpt><trkpt lat="43.492522" lon="12.1619035"><ele>298.0</ele><time>2026-05-01T17:40:18.036Z</time></trkpt><trkpt lat="43.4925571" lon="12.1616547"><ele>297.3333333333333</ele><time>2026-05-01T17:40:19.035Z</time></trkpt><trkpt lat="43.4925601" lon="12.1613939"><ele>296.6666666666667</ele><time>2026-05-01T17:40:20.035Z</time></trkpt><trkpt lat="43.4925317" lon="12.1611404"><ele>296.0</ele><time>2026-05-01T17:40:21.035Z</time></trkpt><trkpt lat="43.4924736" lon="12.1608694"><ele>294.0</ele><time>2026-05-01T17:40:22.036Z</time></trkpt><trkpt lat="43.492399" lon="12.1605729"><ele>292.0</ele><time>2026-05-01T17:40:23.035Z</time></trkpt><trkpt lat="43.4923237" lon="12.1602639"><ele>292.0</ele><time>2026-05-01T17:40:24.036Z</time></trkpt><trkpt lat="43.4922434" lon="12.1599372"><ele>292.0</ele><time>2026-05-01T17:40:25.035Z</time></trkpt><trkpt lat="43.4921617" lon="12.1595845"><ele>292.0</ele><time>2026-05-01T17:40:26.035Z</time></trkpt><trkpt lat="43.4920758" lon="12.15923"><ele>292.0</ele><time>2026-05-01T17:40:27.035Z</time></trkpt><trkpt lat="43.491986" lon="12.1588638"><ele>292.5</ele><time>2026-05-01T17:40:28.035Z</time></trkpt><trkpt lat="43.4918986" lon="12.1585059"><ele>293.0</ele><time>2026-05-01T17:40:29.035Z</time></trkpt><trkpt lat="43.4918197" lon="12.1581598"><ele>294.0</ele><time>2026-05-01T17:40:30.035Z</time></trkpt><trkpt lat="43.4917365" lon="12.1578377"><ele>295.0</ele><time>2026-05-01T17:40:31.036Z</time></trkpt><trkpt lat="43.4916636" lon="12.1575259"><ele>295.5</ele><time>2026-05-01T17:40:32.035Z</time></trkpt><trkpt lat="43.4915907" lon="12.1572148"><ele>296.0</ele><time>2026-05-01T17:40:33.036Z</time></trkpt><trkpt lat="43.4915261" lon="12.1568792"><ele>296.5</ele><time>2026-05-01T17:40:34.035Z</time></trkpt><trkpt lat="43.491485" lon="12.1565203"><ele>297.0</ele><time>2026-05-01T17:40:35.036Z</time></trkpt><trkpt lat="43.4914548" lon="12.1561488"><ele>297.0</ele><time>2026-05-01T17:40:36.035Z</time></trkpt><trkpt lat="43.49142" lon="12.1557844"><ele>297.0</ele><time>2026-05-01T17:40:37.036Z</time></trkpt><trkpt lat="43.4913871" lon="12.1554285"><ele>300.5</ele><time>2026-05-01T17:40:38.035Z</time></trkpt><trkpt lat="43.4913477" lon="12.155072"><ele>304.0</ele><time>2026-05-01T17:40:39.035Z</time></trkpt><trkpt lat="43.4912956" lon="12.1547178"><ele>303.0</ele><time>2026-05-01T17:40:40.035Z</time></trkpt><trkpt lat="43.4912181" lon="12.154362"><ele>302.0</ele><time>2026-05-01T17:40:41.036Z</time></trkpt><trkpt lat="43.4911162" lon="12.1540131"><ele>302.0</ele><time>2026-05-01T17:40:42.036Z</time></trkpt><trkpt lat="43.4910043" lon="12.1536644"><ele>302.0</ele><time>2026-05-01T17:40:43.035Z</time></trkpt><trkpt lat="43.490897" lon="12.1533154"><ele>302.5</ele><time>2026-05-01T17:40:44.036Z</time></trkpt><trkpt lat="43.4907857" lon="12.152958"><ele>303.0</ele><time>2026-05-01T17:40:45.035Z</time></trkpt><trkpt lat="43.4906722" lon="12.1525977"><ele>306.0</ele><time>2026-05-01T17:40:46.035Z</time></trkpt><trkpt lat="43.4905615" lon="12.1522452"><ele>309.0</ele><time>2026-05-01T17:40:47.035Z</time></trkpt><trkpt lat="43.4904549" lon="12.1519107"><ele>302.5</ele><time>2026-05-01T17:40:48.036Z</time></trkpt><trkpt lat="43.490352" lon="12.1515979"><ele>296.0</ele><time>2026-05-01T17:40:49.035Z</time></trkpt><trkpt lat="43.4902589" lon="12.151283"><ele>296.0</ele><time>2026-05-01T17:40:50.035Z</time></trkpt><trkpt lat="43.4901752" lon="12.1509492"><ele>296.0</ele><time>2026-05-01T17:40:51.035Z</time></trkpt><trkpt lat="43.4901088" lon="12.1505876"><ele>298.0</ele><time>2026-05-01T17:40:52.035Z</time></trkpt><trkpt lat="43.4900552" lon="12.1502185"><ele>300.0</ele><time>2026-05-01T17:40:53.035Z</time></trkpt><trkpt lat="43.4900176" lon="12.1498516"><ele>304.5</ele><time>2026-05-01T17:40:54.035Z</time></trkpt><trkpt lat="43.4899869" lon="12.1494979"><ele>309.0</ele><time>2026-05-01T17:40:55.035Z</time></trkpt><trkpt lat="43.4899506" lon="12.1491378"><ele>312.5</ele><time>2026-05-01T17:40:56.035Z</time></trkpt><trkpt lat="43.4898918" lon="12.1487809"><ele>316.0</ele><time>2026-05-01T17:40:57.035Z</time></trkpt><trkpt lat="43.4898225" lon="12.1484274"><ele>319.0</ele><time>2026-05-01T17:40:58.035Z</time></trkpt><trkpt lat="43.4897344" lon="12.1480851"><ele>322.0</ele><time>2026-05-01T17:40:59.035Z</time></trkpt><trkpt lat="43.4896175" lon="12.1477799"><ele>312.0</ele><time>2026-05-01T17:41:00.035Z</time></trkpt><trkpt lat="43.4894871" lon="12.1475165"><ele>302.0</ele><time>2026-05-01T17:41:01.036Z</time></trkpt><trkpt lat="43.489354" lon="12.1472769"><ele>302.0</ele><time>2026-05-01T17:41:02.035Z</time></trkpt><trkpt lat="43.4892501" lon="12.1470379"><ele>302.0</ele><time>2026-05-01T17:41:03.035Z</time></trkpt><trkpt lat="43.4891594" lon="12.146814"><ele>302.0</ele><time>2026-05-01T17:41:04.035Z</time></trkpt><trkpt lat="43.4890976" lon="12.1465818"><ele>301.33333333333337</ele><time>2026-05-01T17:41:05.036Z</time></trkpt><trkpt lat="43.4890722" lon="12.1463799"><ele>300.6666666666667</ele><time>2026-05-01T17:41:06.036Z</time></trkpt><trkpt lat="43.4891093" lon="12.1461942"><ele>300.0</ele><time>2026-05-01T17:41:07.035Z</time></trkpt><trkpt lat="43.4891925" lon="12.1459828"><ele>300.0</ele><time>2026-05-01T17:41:08.035Z</time></trkpt><trkpt lat="43.4893026" lon="12.1457818"><ele>300.0</ele><time>2026-05-01T17:41:09.035Z</time></trkpt><trkpt lat="43.4894236" lon="12.1455515"><ele>300.0</ele><time>2026-05-01T17:41:10.036Z</time></trkpt><trkpt lat="43.4895509" lon="12.145298"><ele>301.0</ele><time>2026-05-01T17:41:11.035Z</time></trkpt><trkpt lat="43.4896734" lon="12.14502"><ele>302.0</ele><time>2026-05-01T17:41:12.035Z</time></trkpt><trkpt lat="43.4897962" lon="12.1447077"><ele>299.0</ele><time>2026-05-01T17:41:13.036Z</time></trkpt><trkpt lat="43.4899229" lon="12.1443757"><ele>296.0</ele><time>2026-05-01T17:41:14.035Z</time></trkpt><trkpt lat="43.4900332" lon="12.1440279"><ele>294.5</ele><time>2026-05-01T17:41:15.035Z</time></trkpt><trkpt lat="43.4901454" lon="12.1436882"><ele>293.0</ele><time>2026-05-01T17:41:16.035Z</time></trkpt><trkpt lat="43.4902672" lon="12.1433468"><ele>293.0</ele><time>2026-05-01T17:41:17.035Z</time></trkpt><trkpt lat="43.4903878" lon="12.1430102"><ele>293.0</ele><time>2026-05-01T17:41:18.035Z</time></trkpt><trkpt lat="43.4905008" lon="12.1426919"><ele>294.0</ele><time>2026-05-01T17:41:19.035Z</time></trkpt><trkpt lat="43.4906091" lon="12.1424113"><ele>295.0</ele><time>2026-05-01T17:41:20.035Z</time></trkpt><trkpt lat="43.490704" lon="12.1421465"><ele>296.0</ele><time>2026-05-01T17:41:21.035Z</time></trkpt><trkpt lat="43.4907995" lon="12.1418958"><ele>296.0</ele><time>2026-05-01T17:41:22.035Z</time></trkpt><trkpt lat="43.4908818" lon="12.1416567"><ele>296.0</ele><time>2026-05-01T17:41:23.035Z</time></trkpt><trkpt lat="43.4909501" lon="12.141433"><ele>296.0</ele><time>2026-05-01T17:41:24.035Z</time></trkpt><trkpt lat="43.490975" lon="12.1411878"><ele>297.33333333333337</ele><time>2026-05-01T17:41:25.035Z</time></trkpt><trkpt lat="43.4909584" lon="12.1409264"><ele>298.6666666666667</ele><time>2026-05-01T17:41:26.035Z</time></trkpt><trkpt lat="43.4908908" lon="12.1406677"><ele>300.0</ele><time>2026-05-01T17:41:27.035Z</time></trkpt><trkpt lat="43.4907948" lon="12.1404099"><ele>299.6666666666667</ele><time>2026-05-01T17:41:28.035Z</time></trkpt><trkpt lat="43.490659" lon="12.1401746"><ele>299.33333333333337</ele><time>2026-05-01T17:41:29.035Z</time></trkpt><trkpt lat="43.4905132" lon="12.1399486"><ele>299.0</ele><time>2026-05-01T17:41:30.035Z</time></trkpt><trkpt lat="43.4903475" lon="12.1397196"><ele>299.0</ele><time>2026-05-01T17:41:31.036Z</time></trkpt><trkpt lat="43.4901642" lon="12.1394954"><ele>299.0</ele><time>2026-05-01T17:41:32.035Z</time></trkpt><trkpt lat="43.4899662" lon="12.1392919"><ele>299.0</ele><time>2026-05-01T17:41:33.035Z</time></trkpt><trkpt lat="43.4897535" lon="12.1391025"><ele>299.0</ele><time>2026-05-01T17:41:34.035Z</time></trkpt><trkpt lat="43.4895295" lon="12.1388974"><ele>298.5</ele><time>2026-05-01T17:41:35.035Z</time></trkpt><trkpt lat="43.4892988" lon="12.1387024"><ele>298.0</ele><time>2026-05-01T17:41:36.035Z</time></trkpt><trkpt lat="43.4890721" lon="12.1385096"><ele>298.0</ele><time>2026-05-01T17:41:37.035Z</time></trkpt><trkpt lat="43.4888639" lon="12.1383283"><ele>298.0</ele><time>2026-05-01T17:41:38.036Z</time></trkpt><trkpt lat="43.4886693" lon="12.1381562"><ele>298.5</ele><time>2026-05-01T17:41:39.035Z</time></trkpt><trkpt lat="43.4884976" lon="12.1379556"><ele>299.0</ele><time>2026-05-01T17:41:40.036Z</time></trkpt><trkpt lat="43.4883424" lon="12.1377182"><ele>299.0</ele><time>2026-05-01T17:41:41.035Z</time></trkpt><trkpt lat="43.4881894" lon="12.1374508"><ele>299.0</ele><time>2026-05-01T17:41:42.035Z</time></trkpt><trkpt lat="43.4880392" lon="12.1371818"><ele>298.6666666666667</ele><time>2026-05-01T17:41:43.035Z</time></trkpt><trkpt lat="43.4879039" lon="12.1369258"><ele>298.3333333333333</ele><time>2026-05-01T17:41:44.035Z</time></trkpt><trkpt lat="43.4878138" lon="12.1367015"><ele>298.0</ele><time>2026-05-01T17:41:45.036Z</time></trkpt><trkpt lat="43.4877454" lon="12.1364998"><ele>299.0</ele><time>2026-05-01T17:41:46.036Z</time></trkpt><trkpt lat="43.4876912" lon="12.1363175"><ele>300.0</ele><time>2026-05-01T17:41:47.045Z</time></trkpt><trkpt lat="43.4876285" lon="12.1361247"><ele>301.0</ele><time>2026-05-01T17:41:48.046Z</time></trkpt><trkpt lat="43.4875599" lon="12.1358962"><ele>302.66666666666663</ele><time>2026-05-01T17:41:49.046Z</time></trkpt><trkpt lat="43.4875063" lon="12.1356438"><ele>304.3333333333333</ele><time>2026-05-01T17:41:50.045Z</time></trkpt><trkpt lat="43.4874335" lon="12.1353868"><ele>306.0</ele><time>2026-05-01T17:41:51.045Z</time></trkpt><trkpt lat="43.4873616" lon="12.1351028"><ele>307.5</ele><time>2026-05-01T17:41:52.045Z</time></trkpt><trkpt lat="43.4873062" lon="12.1348014"><ele>309.0</ele><time>2026-05-01T17:41:53.046Z</time></trkpt><trkpt lat="43.4872606" lon="12.1344937"><ele>309.0</ele><time>2026-05-01T17:41:54.045Z</time></trkpt><trkpt lat="43.4872236" lon="12.1341853"><ele>309.0</ele><time>2026-05-01T17:41:55.045Z</time></trkpt><trkpt lat="43.4871912" lon="12.1338641"><ele>311.5</ele><time>2026-05-01T17:41:56.045Z</time></trkpt><trkpt lat="43.4871661" lon="12.1335372"><ele>314.0</ele><time>2026-05-01T17:41:57.045Z</time></trkpt><trkpt lat="43.4871435" lon="12.1331994"><ele>316.0</ele><time>2026-05-01T17:41:58.046Z</time></trkpt><trkpt lat="43.4871127" lon="12.1328463"><ele>318.0</ele><time>2026-05-01T17:41:59.046Z</time></trkpt><trkpt lat="43.4870793" lon="12.1324758"><ele>310.0</ele><time>2026-05-01T17:42:00.045Z</time></trkpt><trkpt lat="43.4870535" lon="12.1321107"><ele>302.0</ele><time>2026-05-01T17:42:01.045Z</time></trkpt><trkpt lat="43.4870298" lon="12.1317667"><ele>302.0</ele><time>2026-05-01T17:42:02.046Z</time></trkpt><trkpt lat="43.4870039" lon="12.1314494"><ele>302.0</ele><time>2026-05-01T17:42:03.045Z</time></trkpt><trkpt lat="43.4869807" lon="12.1311508"><ele>302.0</ele><time>2026-05-01T17:42:04.045Z</time></trkpt><trkpt lat="43.4869529" lon="12.1308555"><ele>302.0</ele><time>2026-05-01T17:42:05.045Z</time></trkpt><trkpt lat="43.4869198" lon="12.1305571"><ele>302.0</ele><time>2026-05-01T17:42:06.045Z</time></trkpt><trkpt lat="43.4868739" lon="12.1302658"><ele>303.0</ele><time>2026-05-01T17:42:07.045Z</time></trkpt><trkpt lat="43.486786" lon="12.1299789"><ele>304.0</ele><time>2026-05-01T17:42:08.045Z</time></trkpt><trkpt lat="43.4866548" lon="12.1296984"><ele>304.66666666666663</ele><time>2026-05-01T17:42:09.046Z</time></trkpt><trkpt lat="43.4865248" lon="12.1294357"><ele>305.3333333333333</ele><time>2026-05-01T17:42:10.045Z</time></trkpt><trkpt lat="43.4864049" lon="12.1292081"><ele>306.0</ele><time>2026-05-01T17:42:11.046Z</time></trkpt><trkpt lat="43.4863054" lon="12.1289965"><ele>305.0</ele><time>2026-05-01T17:42:12.046Z</time></trkpt><trkpt lat="43.4862221" lon="12.1287999"><ele>304.0</ele><time>2026-05-01T17:42:13.046Z</time></trkpt><trkpt lat="43.4861674" lon="12.1285908"><ele>303.0</ele><time>2026-05-01T17:42:14.046Z</time></trkpt><trkpt lat="43.4861395" lon="12.1283406"><ele>303.3333333333333</ele><time>2026-05-01T17:42:15.046Z</time></trkpt><trkpt lat="43.4861384" lon="12.1280859"><ele>303.66666666666663</ele><time>2026-05-01T17:42:16.046Z</time></trkpt><trkpt lat="43.4861517" lon="12.127828"><ele>304.0</ele><time>2026-05-01T17:42:17.047Z</time></trkpt><trkpt lat="43.486169" lon="12.1275822"><ele>304.3333333333333</ele><time>2026-05-01T17:42:18.046Z</time></trkpt><trkpt lat="43.4861787" lon="12.12736"><ele>304.6666666666667</ele><time>2026-05-01T17:42:19.046Z</time></trkpt><trkpt lat="43.4861941" lon="12.1271419"><ele>305.0</ele><time>2026-05-01T17:42:20.047Z</time></trkpt><trkpt lat="43.4862099" lon="12.1269529"><ele>305.0</ele><time>2026-05-01T17:42:21.046Z</time></trkpt><trkpt lat="43.486222" lon="12.1267981"><ele>305.0</ele><time>2026-05-01T17:42:22.046Z</time></trkpt><trkpt lat="43.4862338" lon="12.1266802"><ele>305.0</ele><time>2026-05-01T17:42:23.046Z</time></trkpt><trkpt lat="43.4862512" lon="12.1265781"><ele>305.0</ele><time>2026-05-01T17:42:24.046Z</time></trkpt><trkpt lat="43.4862717" lon="12.1264828"><ele>305.0</ele><time>2026-05-01T17:42:25.047Z</time></trkpt><trkpt lat="43.4862932" lon="12.126389"><ele>305.0</ele><time>2026-05-01T17:42:26.046Z</time></trkpt><trkpt lat="43.486317" lon="12.126286"><ele>305.25</ele><time>2026-05-01T17:42:27.047Z</time></trkpt><trkpt lat="43.4863489" lon="12.1261576"><ele>305.5</ele><time>2026-05-01T17:42:28.046Z</time></trkpt><trkpt lat="43.4863821" lon="12.1259862"><ele>305.75</ele><time>2026-05-01T17:42:29.046Z</time></trkpt><trkpt lat="43.4864239" lon="12.1257946"><ele>306.0</ele><time>2026-05-01T17:42:30.046Z</time></trkpt><trkpt lat="43.4864776" lon="12.1255881"><ele>306.0</ele><time>2026-05-01T17:42:31.046Z</time></trkpt><trkpt lat="43.4865347" lon="12.1253621"><ele>306.0</ele><time>2026-05-01T17:42:32.046Z</time></trkpt><trkpt lat="43.4865974" lon="12.125121"><ele>306.0</ele><time>2026-05-01T17:42:33.046Z</time></trkpt><trkpt lat="43.4866579" lon="12.1248727"><ele>305.0</ele><time>2026-05-01T17:42:34.046Z</time></trkpt><trkpt lat="43.4867245" lon="12.1246135"><ele>304.0</ele><time>2026-05-01T17:42:35.046Z</time></trkpt><trkpt lat="43.4867922" lon="12.1243416"><ele>303.0</ele><time>2026-05-01T17:42:36.046Z</time></trkpt><trkpt lat="43.4868614" lon="12.1240588"><ele>302.3333333333333</ele><time>2026-05-01T17:42:37.047Z</time></trkpt><trkpt lat="43.4869318" lon="12.1237725"><ele>301.66666666666663</ele><time>2026-05-01T17:42:38.046Z</time></trkpt><trkpt lat="43.487007" lon="12.123482"><ele>301.0</ele><time>2026-05-01T17:42:39.047Z</time></trkpt><trkpt lat="43.4870845" lon="12.1231828"><ele>303.5</ele><time>2026-05-01T17:42:40.046Z</time></trkpt><trkpt lat="43.4871697" lon="12.1228786"><ele>306.0</ele><time>2026-05-01T17:42:41.046Z</time></trkpt><trkpt lat="43.4872558" lon="12.1225684"><ele>304.5</ele><time>2026-05-01T17:42:42.046Z</time></trkpt><trkpt lat="43.4873423" lon="12.1222574"><ele>303.0</ele><time>2026-05-01T17:42:43.047Z</time></trkpt><trkpt lat="43.4874243" lon="12.1219385"><ele>303.0</ele><time>2026-05-01T17:42:44.046Z</time></trkpt><trkpt lat="43.4875051" lon="12.1216147"><ele>303.0</ele><time>2026-05-01T17:42:45.047Z</time></trkpt><trkpt lat="43.4875837" lon="12.1212862"><ele>302.5</ele><time>2026-05-01T17:42:46.046Z</time></trkpt><trkpt lat="43.4876577" lon="12.1209569"><ele>302.0</ele><time>2026-05-01T17:42:47.046Z</time></trkpt><trkpt lat="43.4877226" lon="12.1206281"><ele>301.5</ele><time>2026-05-01T17:42:48.046Z</time></trkpt><trkpt lat="43.4877837" lon="12.1203202"><ele>301.0</ele><time>2026-05-01T17:42:49.046Z</time></trkpt><trkpt lat="43.4878414" lon="12.1200281"><ele>301.0</ele><time>2026-05-01T17:42:50.046Z</time></trkpt><trkpt lat="43.4879094" lon="12.1197303"><ele>301.0</ele><time>2026-05-01T17:42:51.046Z</time></trkpt><trkpt lat="43.4879906" lon="12.1194336"><ele>302.5</ele><time>2026-05-01T17:42:52.046Z</time></trkpt><trkpt lat="43.4880873" lon="12.1191408"><ele>304.0</ele><time>2026-05-01T17:42:53.046Z</time></trkpt><trkpt lat="43.4881906" lon="12.1188514"><ele>304.0</ele><time>2026-05-01T17:42:54.046Z</time></trkpt><trkpt lat="43.4882886" lon="12.1185637"><ele>304.0</ele><time>2026-05-01T17:42:55.046Z</time></trkpt><trkpt lat="43.4883691" lon="12.1182835"><ele>304.0</ele><time>2026-05-01T17:42:56.046Z</time></trkpt><trkpt lat="43.488445" lon="12.1180238"><ele>304.0</ele><time>2026-05-01T17:42:57.046Z</time></trkpt><trkpt lat="43.4885123" lon="12.1177682"><ele>304.0</ele><time>2026-05-01T17:42:58.047Z</time></trkpt><trkpt lat="43.4885794" lon="12.1175107"><ele>304.0</ele><time>2026-05-01T17:42:59.046Z</time></trkpt><trkpt lat="43.4886452" lon="12.1172432"><ele>303.66666666666663</ele><time>2026-05-01T17:43:00.047Z</time></trkpt><trkpt lat="43.4887095" lon="12.1169601"><ele>303.3333333333333</ele><time>2026-05-01T17:43:01.046Z</time></trkpt><trkpt lat="43.4887754" lon="12.1166635"><ele>303.0</ele><time>2026-05-01T17:43:02.046Z</time></trkpt><trkpt lat="43.4888472" lon="12.1163519"><ele>303.0</ele><time>2026-05-01T17:43:03.046Z</time></trkpt><trkpt lat="43.4889247" lon="12.1160465"><ele>303.0</ele><time>2026-05-01T17:43:04.046Z</time></trkpt><trkpt lat="43.4889911" lon="12.1157504"><ele>303.3333333333333</ele><time>2026-05-01T17:43:05.046Z</time></trkpt><trkpt lat="43.4890545" lon="12.1154594"><ele>303.66666666666663</ele><time>2026-05-01T17:43:06.046Z</time></trkpt><trkpt lat="43.4891009" lon="12.1151899"><ele>304.0</ele><time>2026-05-01T17:43:07.046Z</time></trkpt><trkpt lat="43.4890982" lon="12.1149469"><ele>303.0</ele><time>2026-05-01T17:43:08.046Z</time></trkpt><trkpt lat="43.4890617" lon="12.1147051"><ele>302.0</ele><time>2026-05-01T17:43:09.046Z</time></trkpt><trkpt lat="43.4890099" lon="12.1144699"><ele>301.0</ele><time>2026-05-01T17:43:10.046Z</time></trkpt><trkpt lat="43.4889521" lon="12.1142559"><ele>301.0</ele><time>2026-05-01T17:43:11.046Z</time></trkpt><trkpt lat="43.4889053" lon="12.1140492"><ele>301.0</ele><time>2026-05-01T17:43:12.046Z</time></trkpt><trkpt lat="43.4888607" lon="12.1138497"><ele>301.0</ele><time>2026-05-01T17:43:13.046Z</time></trkpt><trkpt lat="43.4888131" lon="12.1136566"><ele>301.0</ele><time>2026-05-01T17:43:14.046Z</time></trkpt><trkpt lat="43.4887685" lon="12.1134779"><ele>301.0</ele><time>2026-05-01T17:43:15.046Z</time></trkpt><trkpt lat="43.4887205" lon="12.1133064"><ele>301.0</ele><time>2026-05-01T17:43:16.046Z</time></trkpt><trkpt lat="43.4886807" lon="12.1131439"><ele>301.0</ele><time>2026-05-01T17:43:17.046Z</time></trkpt><trkpt lat="43.4886397" lon="12.1129931"><ele>301.2</ele><time>2026-05-01T17:43:18.047Z</time></trkpt><trkpt lat="43.4885936" lon="12.1128582"><ele>301.40000000000003</ele><time>2026-05-01T17:43:19.046Z</time></trkpt><trkpt lat="43.488547" lon="12.1127317"><ele>301.6</ele><time>2026-05-01T17:43:20.046Z</time></trkpt><trkpt lat="43.4885088" lon="12.1126181"><ele>301.8</ele><time>2026-05-01T17:43:21.046Z</time></trkpt><trkpt lat="43.4884735" lon="12.1125263"><ele>302.0</ele><time>2026-05-01T17:43:22.046Z</time></trkpt><trkpt lat="43.4884266" lon="12.1123859"><ele>302.33333333333337</ele><time>2026-05-01T17:43:24.047Z</time></trkpt><trkpt lat="43.4883869" lon="12.1122704"><ele>302.6666666666667</ele><time>2026-05-01T17:43:26.046Z</time></trkpt><trkpt lat="43.4883453" lon="12.1121343"><ele>303.0</ele><time>2026-05-01T17:43:28.047Z</time></trkpt><trkpt lat="43.4883201" lon="12.1120479"><ele>303.3333333333333</ele><time>2026-05-01T17:43:29.046Z</time></trkpt><trkpt lat="43.4882915" lon="12.1119518"><ele>303.66666666666663</ele><time>2026-05-01T17:43:30.046Z</time></trkpt><trkpt lat="43.4882614" lon="12.1118629"><ele>304.0</ele><time>2026-05-01T17:43:31.046Z</time></trkpt><trkpt lat="43.4882346" lon="12.1117741"><ele>304.0</ele><time>2026-05-01T17:43:32.047Z</time></trkpt><trkpt lat="43.4882069" lon="12.1116842"><ele>304.0</ele><time>2026-05-01T17:43:33.046Z</time></trkpt><trkpt lat="43.4881785" lon="12.1116006"><ele>304.0</ele><time>2026-05-01T17:43:34.047Z</time></trkpt><trkpt lat="43.4881533" lon="12.1115047"><ele>304.0</ele><time>2026-05-01T17:43:35.046Z</time></trkpt><trkpt lat="43.488123" lon="12.1114094"><ele>304.0</ele><time>2026-05-01T17:43:36.046Z</time></trkpt><trkpt lat="43.4880987" lon="12.1113105"><ele>304.0</ele><time>2026-05-01T17:43:37.046Z</time></trkpt><trkpt lat="43.4880786" lon="12.1112156"><ele>304.0</ele><time>2026-05-01T17:43:38.046Z</time></trkpt><trkpt lat="43.488065" lon="12.1110987"><ele>304.4</ele><time>2026-05-01T17:43:39.046Z</time></trkpt><trkpt lat="43.4880539" lon="12.1109695"><ele>304.79999999999995</ele><time>2026-05-01T17:43:40.046Z</time></trkpt><trkpt lat="43.4880452" lon="12.1108307"><ele>305.20000000000005</ele><time>2026-05-01T17:43:41.046Z</time></trkpt><trkpt lat="43.4880428" lon="12.110699"><ele>305.6</ele><time>2026-05-01T17:43:42.046Z</time></trkpt><trkpt lat="43.4880352" lon="12.1105684"><ele>306.0</ele><time>2026-05-01T17:43:43.047Z</time></trkpt><trkpt lat="43.4880241" lon="12.110429"><ele>306.2</ele><time>2026-05-01T17:43:44.046Z</time></trkpt><trkpt lat="43.4879952" lon="12.1102863"><ele>306.40000000000003</ele><time>2026-05-01T17:43:45.046Z</time></trkpt><trkpt lat="43.4879693" lon="12.1101408"><ele>306.6</ele><time>2026-05-01T17:43:46.047Z</time></trkpt><trkpt lat="43.4879405" lon="12.1100049"><ele>306.8</ele><time>2026-05-01T17:43:47.046Z</time></trkpt><trkpt lat="43.4878988" lon="12.1098804"><ele>307.0</ele><time>2026-05-01T17:43:48.046Z</time></trkpt><trkpt lat="43.4878498" lon="12.1097748"><ele>307.0</ele><time>2026-05-01T17:43:49.046Z</time></trkpt><trkpt lat="43.4877882" lon="12.1096837"><ele>307.0</ele><time>2026-05-01T17:43:50.047Z</time></trkpt><trkpt lat="43.4877236" lon="12.1096057"><ele>307.0</ele><time>2026-05-01T17:43:51.046Z</time></trkpt><trkpt lat="43.4876613" lon="12.1095277"><ele>307.0</ele><time>2026-05-01T17:43:52.046Z</time></trkpt><trkpt lat="43.4876022" lon="12.1094579"><ele>307.0</ele><time>2026-05-01T17:43:53.047Z</time></trkpt><trkpt lat="43.4875458" lon="12.1093773"><ele>307.0</ele><time>2026-05-01T17:43:54.047Z</time></trkpt><trkpt lat="43.4874836" lon="12.1092888"><ele>307.0</ele><time>2026-05-01T17:43:55.047Z</time></trkpt><trkpt lat="43.4874225" lon="12.1091763"><ele>307.0</ele><time>2026-05-01T17:43:56.046Z</time></trkpt><trkpt lat="43.4873667" lon="12.1090443"><ele>307.0</ele><time>2026-05-01T17:43:57.047Z</time></trkpt><trkpt lat="43.4873247" lon="12.1089126"><ele>307.0</ele><time>2026-05-01T17:43:58.046Z</time></trkpt><trkpt lat="43.4872972" lon="12.1087748"><ele>307.0</ele><time>2026-05-01T17:43:59.046Z</time></trkpt><trkpt lat="43.4872871" lon="12.1086344"><ele>307.0</ele><time>2026-05-01T17:44:00.047Z</time></trkpt><trkpt lat="43.4872817" lon="12.1084974"><ele>307.0</ele><time>2026-05-01T17:44:01.046Z</time></trkpt><trkpt lat="43.4872989" lon="12.1083674"><ele>307.0</ele><time>2026-05-01T17:44:02.046Z</time></trkpt><trkpt lat="43.4873272" lon="12.108242"><ele>307.0</ele><time>2026-05-01T17:44:03.046Z</time></trkpt><trkpt lat="43.4873678" lon="12.108111"><ele>307.0</ele><time>2026-05-01T17:44:04.046Z</time></trkpt><trkpt lat="43.4874177" lon="12.1079721"><ele>306.75</ele><time>2026-05-01T17:44:05.046Z</time></trkpt><trkpt lat="43.4874823" lon="12.1078195"><ele>306.5</ele><time>2026-05-01T17:44:06.046Z</time></trkpt><trkpt lat="43.487552" lon="12.1076528"><ele>306.25</ele><time>2026-05-01T17:44:07.046Z</time></trkpt><trkpt lat="43.48764" lon="12.1074742"><ele>306.0</ele><time>2026-05-01T17:44:08.046Z</time></trkpt><trkpt lat="43.4877408" lon="12.107274"><ele>305.0</ele><time>2026-05-01T17:44:09.047Z</time></trkpt><trkpt lat="43.487851" lon="12.1070674"><ele>304.0</ele><time>2026-05-01T17:44:10.046Z</time></trkpt><trkpt lat="43.487968" lon="12.106854"><ele>303.0</ele><time>2026-05-01T17:44:11.046Z</time></trkpt><trkpt lat="43.4880868" lon="12.1066382"><ele>304.0</ele><time>2026-05-01T17:44:12.046Z</time></trkpt><trkpt lat="43.4882008" lon="12.1064475"><ele>305.0</ele><time>2026-05-01T17:44:13.047Z</time></trkpt><trkpt lat="43.4882996" lon="12.1062819"><ele>306.0</ele><time>2026-05-01T17:44:14.046Z</time></trkpt><trkpt lat="43.4883786" lon="12.106137"><ele>306.0</ele><time>2026-05-01T17:44:15.046Z</time></trkpt><trkpt lat="43.4884357" lon="12.1059931"><ele>306.0</ele><time>2026-05-01T17:44:16.046Z</time></trkpt><trkpt lat="43.4884883" lon="12.1058558"><ele>306.0</ele><time>2026-05-01T17:44:17.046Z</time></trkpt><trkpt lat="43.4885277" lon="12.1057173"><ele>306.0</ele><time>2026-05-01T17:44:18.047Z</time></trkpt><trkpt lat="43.4885717" lon="12.1055771"><ele>305.40000000000003</ele><time>2026-05-01T17:44:19.047Z</time></trkpt><trkpt lat="43.488606" lon="12.1054339"><ele>304.8</ele><time>2026-05-01T17:44:20.046Z</time></trkpt><trkpt lat="43.4886347" lon="12.1052969"><ele>304.20000000000005</ele><time>2026-05-01T17:44:21.047Z</time></trkpt><trkpt lat="43.4886535" lon="12.1051591"><ele>303.6</ele><time>2026-05-01T17:44:22.047Z</time></trkpt><trkpt lat="43.4886691" lon="12.1050149"><ele>303.0</ele><time>2026-05-01T17:44:23.046Z</time></trkpt><trkpt lat="43.4886686" lon="12.1048665"><ele>302.6666666666667</ele><time>2026-05-01T17:44:24.046Z</time></trkpt><trkpt lat="43.4886474" lon="12.1046746"><ele>302.33333333333337</ele><time>2026-05-01T17:44:25.047Z</time></trkpt><trkpt lat="43.4886124" lon="12.1044577"><ele>302.0</ele><time>2026-05-01T17:44:26.047Z</time></trkpt><trkpt lat="43.4885557" lon="12.1042276"><ele>302.33333333333337</ele><time>2026-05-01T17:44:27.046Z</time></trkpt><trkpt lat="43.4884977" lon="12.1039695"><ele>302.6666666666667</ele><time>2026-05-01T17:44:28.046Z</time></trkpt><trkpt lat="43.4884415" lon="12.1036906"><ele>303.0</ele><time>2026-05-01T17:44:29.047Z</time></trkpt><trkpt lat="43.4883847" lon="12.1033958"><ele>304.0</ele><time>2026-05-01T17:44:30.046Z</time></trkpt><trkpt lat="43.4883205" lon="12.1030999"><ele>305.0</ele><time>2026-05-01T17:44:31.046Z</time></trkpt><trkpt lat="43.4882526" lon="12.1028"><ele>305.0</ele><time>2026-05-01T17:44:32.046Z</time></trkpt><trkpt lat="43.4881784" lon="12.1024914"><ele>305.0</ele><time>2026-05-01T17:44:33.046Z</time></trkpt><trkpt lat="43.4881043" lon="12.1021779"><ele>306.5</ele><time>2026-05-01T17:44:34.046Z</time></trkpt><trkpt lat="43.4880322" lon="12.1018637"><ele>308.0</ele><time>2026-05-01T17:44:35.046Z</time></trkpt><trkpt lat="43.4879808" lon="12.101566"><ele>308.0</ele><time>2026-05-01T17:44:36.046Z</time></trkpt><trkpt lat="43.4879459" lon="12.1012659"><ele>308.0</ele><time>2026-05-01T17:44:37.047Z</time></trkpt><trkpt lat="43.4879501" lon="12.100964"><ele>308.0</ele><time>2026-05-01T17:44:38.046Z</time></trkpt><trkpt lat="43.4879784" lon="12.1006688"><ele>307.0</ele><time>2026-05-01T17:44:39.046Z</time></trkpt><trkpt lat="43.4880338" lon="12.1003878"><ele>306.0</ele><time>2026-05-01T17:44:40.046Z</time></trkpt><trkpt lat="43.4881097" lon="12.1001362"><ele>305.0</ele><time>2026-05-01T17:44:41.046Z</time></trkpt><trkpt lat="43.4881841" lon="12.0999034"><ele>304.33333333333337</ele><time>2026-05-01T17:44:42.046Z</time></trkpt><trkpt lat="43.4882526" lon="12.0996586"><ele>303.6666666666667</ele><time>2026-05-01T17:44:43.047Z</time></trkpt><trkpt lat="43.4883169" lon="12.0994151"><ele>303.0</ele><time>2026-05-01T17:44:44.047Z</time></trkpt><trkpt lat="43.4883754" lon="12.0991647"><ele>303.0</ele><time>2026-05-01T17:44:45.046Z</time></trkpt><trkpt lat="43.4884217" lon="12.0988862"><ele>303.0</ele><time>2026-05-01T17:44:46.047Z</time></trkpt><trkpt lat="43.4884608" lon="12.098606"><ele>303.0</ele><time>2026-05-01T17:44:47.046Z</time></trkpt><trkpt lat="43.4884967" lon="12.0983176"><ele>303.0</ele><time>2026-05-01T17:44:48.046Z</time></trkpt><trkpt lat="43.4885199" lon="12.0980242"><ele>303.0</ele><time>2026-05-01T17:44:49.046Z</time></trkpt><trkpt lat="43.488518" lon="12.0977139"><ele>303.0</ele><time>2026-05-01T17:44:50.046Z</time></trkpt><trkpt lat="43.4885039" lon="12.0973996"><ele>303.5</ele><time>2026-05-01T17:44:51.046Z</time></trkpt><trkpt lat="43.4884839" lon="12.0970776"><ele>304.0</ele><time>2026-05-01T17:44:52.047Z</time></trkpt><trkpt lat="43.4884639" lon="12.0967539"><ele>304.0</ele><time>2026-05-01T17:44:53.047Z</time></trkpt><trkpt lat="43.4884438" lon="12.0964256"><ele>304.0</ele><time>2026-05-01T17:44:54.046Z</time></trkpt><trkpt lat="43.4884267" lon="12.0961041"><ele>304.0</ele><time>2026-05-01T17:44:55.046Z</time></trkpt><trkpt lat="43.4884071" lon="12.0957816"><ele>304.0</ele><time>2026-05-01T17:44:56.046Z</time></trkpt><trkpt lat="43.4883826" lon="12.0954532"><ele>304.5</ele><time>2026-05-01T17:44:57.047Z</time></trkpt><trkpt lat="43.4883599" lon="12.0951258"><ele>305.0</ele><time>2026-05-01T17:44:58.047Z</time></trkpt><trkpt lat="43.4883391" lon="12.0947988"><ele>306.5</ele><time>2026-05-01T17:44:59.046Z</time></trkpt><trkpt lat="43.4883216" lon="12.0944707"><ele>308.0</ele><time>2026-05-01T17:45:00.046Z</time></trkpt><trkpt lat="43.4882992" lon="12.0941396"><ele>309.0</ele><time>2026-05-01T17:45:01.046Z</time></trkpt><trkpt lat="43.4882732" lon="12.0938097"><ele>310.0</ele><time>2026-05-01T17:45:02.046Z</time></trkpt><trkpt lat="43.4882449" lon="12.0934722"><ele>309.0</ele><time>2026-05-01T17:45:03.046Z</time></trkpt><trkpt lat="43.4882221" lon="12.0931363"><ele>308.0</ele><time>2026-05-01T17:45:04.046Z</time></trkpt><trkpt lat="43.488201" lon="12.0927978"><ele>308.0</ele><time>2026-05-01T17:45:05.046Z</time></trkpt><trkpt lat="43.4881757" lon="12.0924522"><ele>308.0</ele><time>2026-05-01T17:45:06.046Z</time></trkpt><trkpt lat="43.4881509" lon="12.0921119"><ele>307.5</ele><time>2026-05-01T17:45:07.047Z</time></trkpt><trkpt lat="43.4881281" lon="12.091769"><ele>307.0</ele><time>2026-05-01T17:45:08.046Z</time></trkpt><trkpt lat="43.4881079" lon="12.0914213"><ele>308.0</ele><time>2026-05-01T17:45:09.046Z</time></trkpt><trkpt lat="43.4880863" lon="12.0910715"><ele>309.0</ele><time>2026-05-01T17:45:10.047Z</time></trkpt><trkpt lat="43.4880629" lon="12.0907256"><ele>309.0</ele><time>2026-05-01T17:45:11.046Z</time></trkpt><trkpt lat="43.4880337" lon="12.0904079"><ele>309.0</ele><time>2026-05-01T17:45:12.046Z</time></trkpt><trkpt lat="43.4880034" lon="12.0901376"><ele>309.0</ele><time>2026-05-01T17:45:13.047Z</time></trkpt><trkpt lat="43.4879847" lon="12.0898805"><ele>309.3333333333333</ele><time>2026-05-01T17:45:14.046Z</time></trkpt><trkpt lat="43.4879667" lon="12.0895918"><ele>309.66666666666663</ele><time>2026-05-01T17:45:15.047Z</time></trkpt><trkpt lat="43.4879519" lon="12.0892922"><ele>310.0</ele><time>2026-05-01T17:45:16.046Z</time></trkpt><trkpt lat="43.4879296" lon="12.0889775"><ele>307.5</ele><time>2026-05-01T17:45:17.047Z</time></trkpt><trkpt lat="43.4879101" lon="12.0886615"><ele>305.0</ele><time>2026-05-01T17:45:18.046Z</time></trkpt><trkpt lat="43.4879026" lon="12.0883419"><ele>304.5</ele><time>2026-05-01T17:45:19.046Z</time></trkpt><trkpt lat="43.4878968" lon="12.0880135"><ele>304.0</ele><time>2026-05-01T17:45:20.047Z</time></trkpt><trkpt lat="43.4878907" lon="12.0876797"><ele>303.5</ele><time>2026-05-01T17:45:21.046Z</time></trkpt><trkpt lat="43.4878877" lon="12.0873469"><ele>303.0</ele><time>2026-05-01T17:45:22.046Z</time></trkpt><trkpt lat="43.4878889" lon="12.0870087"><ele>303.0</ele><time>2026-05-01T17:45:23.046Z</time></trkpt><trkpt lat="43.4878858" lon="12.0866653"><ele>303.0</ele><time>2026-05-01T17:45:24.046Z</time></trkpt><trkpt lat="43.4878835" lon="12.0863206"><ele>303.5</ele><time>2026-05-01T17:45:25.047Z</time></trkpt><trkpt lat="43.4878783" lon="12.0859783"><ele>304.0</ele><time>2026-05-01T17:45:26.046Z</time></trkpt><trkpt lat="43.4878651" lon="12.0856326"><ele>304.5</ele><time>2026-05-01T17:45:27.047Z</time></trkpt><trkpt lat="43.4878457" lon="12.0852874"><ele>305.0</ele><time>2026-05-01T17:45:28.046Z</time></trkpt><trkpt lat="43.4878243" lon="12.0849387"><ele>305.0</ele><time>2026-05-01T17:45:29.046Z</time></trkpt><trkpt lat="43.4877996" lon="12.0845911"><ele>305.0</ele><time>2026-05-01T17:45:30.047Z</time></trkpt><trkpt lat="43.4877591" lon="12.0842486"><ele>306.0</ele><time>2026-05-01T17:45:31.046Z</time></trkpt><trkpt lat="43.4877074" lon="12.0839094"><ele>307.0</ele><time>2026-05-01T17:45:32.046Z</time></trkpt><trkpt lat="43.487638" lon="12.0835797"><ele>307.0</ele><time>2026-05-01T17:45:33.046Z</time></trkpt><trkpt lat="43.4875452" lon="12.0832712"><ele>307.0</ele><time>2026-05-01T17:45:34.046Z</time></trkpt><trkpt lat="43.4874289" lon="12.0829749"><ele>309.0</ele><time>2026-05-01T17:45:35.046Z</time></trkpt><trkpt lat="43.4872881" lon="12.0826974"><ele>311.0</ele><time>2026-05-01T17:45:36.046Z</time></trkpt><trkpt lat="43.4871374" lon="12.0824234"><ele>308.5</ele><time>2026-05-01T17:45:37.046Z</time></trkpt><trkpt lat="43.486991" lon="12.0821393"><ele>306.0</ele><time>2026-05-01T17:45:38.046Z</time></trkpt><trkpt lat="43.4868619" lon="12.0818427"><ele>306.5</ele><time>2026-05-01T17:45:39.047Z</time></trkpt><trkpt lat="43.4867381" lon="12.0815443"><ele>307.0</ele><time>2026-05-01T17:45:40.047Z</time></trkpt><trkpt lat="43.4866144" lon="12.0812544"><ele>307.0</ele><time>2026-05-01T17:45:41.046Z</time></trkpt><trkpt lat="43.4864924" lon="12.0809919"><ele>307.0</ele><time>2026-05-01T17:45:42.046Z</time></trkpt><trkpt lat="43.4863782" lon="12.0807424"><ele>307.0</ele><time>2026-05-01T17:45:43.046Z</time></trkpt><trkpt lat="43.4862662" lon="12.0805123"><ele>307.66666666666663</ele><time>2026-05-01T17:45:44.046Z</time></trkpt><trkpt lat="43.4861544" lon="12.0803075"><ele>308.3333333333333</ele><time>2026-05-01T17:45:45.047Z</time></trkpt><trkpt lat="43.4860282" lon="12.0801136"><ele>309.0</ele><time>2026-05-01T17:45:46.047Z</time></trkpt><trkpt lat="43.4858922" lon="12.0799306"><ele>310.0</ele><time>2026-05-01T17:45:47.046Z</time></trkpt><trkpt lat="43.4857641" lon="12.0797529"><ele>311.0</ele><time>2026-05-01T17:45:48.046Z</time></trkpt><trkpt lat="43.485642" lon="12.0795813"><ele>312.0</ele><time>2026-05-01T17:45:49.047Z</time></trkpt><trkpt lat="43.4855348" lon="12.0793977"><ele>312.0</ele><time>2026-05-01T17:45:50.046Z</time></trkpt><trkpt lat="43.4854456" lon="12.0791849"><ele>312.0</ele><time>2026-05-01T17:45:51.047Z</time></trkpt><trkpt lat="43.4853779" lon="12.0789914"><ele>312.0</ele><time>2026-05-01T17:45:52.047Z</time></trkpt><trkpt lat="43.4853411" lon="12.0788341"><ele>311.4</ele><time>2026-05-01T17:45:53.046Z</time></trkpt><trkpt lat="43.4853182" lon="12.0786973"><ele>310.79999999999995</ele><time>2026-05-01T17:45:54.046Z</time></trkpt><trkpt lat="43.4853051" lon="12.0785961"><ele>310.2</ele><time>2026-05-01T17:45:55.046Z</time></trkpt><trkpt lat="43.4852885" lon="12.0784849"><ele>309.59999999999997</ele><time>2026-05-01T17:45:57.046Z</time></trkpt><trkpt lat="43.4852503" lon="12.0783892"><ele>309.0</ele><time>2026-05-01T17:46:03.046Z</time></trkpt><trkpt lat="43.4851534" lon="12.0782636"><ele>310.75</ele><time>2026-05-01T17:46:05.046Z</time></trkpt><trkpt lat="43.4850703" lon="12.07819"><ele>312.5</ele><time>2026-05-01T17:46:06.046Z</time></trkpt><trkpt lat="43.4849775" lon="12.0780809"><ele>314.25</ele><time>2026-05-01T17:46:07.047Z</time></trkpt><trkpt lat="43.4848913" lon="12.0779439"><ele>316.0</ele><time>2026-05-01T17:46:08.047Z</time></trkpt><trkpt lat="43.4848063" lon="12.077779"><ele>316.0</ele><time>2026-05-01T17:46:09.047Z</time></trkpt><trkpt lat="43.484727" lon="12.0775948"><ele>316.0</ele><time>2026-05-01T17:46:10.046Z</time></trkpt><trkpt lat="43.4846462" lon="12.0773655"><ele>316.0</ele><time>2026-05-01T17:46:11.046Z</time></trkpt><trkpt lat="43.4845642" lon="12.0771156"><ele>315.0</ele><time>2026-05-01T17:46:12.046Z</time></trkpt><trkpt lat="43.484485" lon="12.0768706"><ele>314.0</ele><time>2026-05-01T17:46:13.046Z</time></trkpt><trkpt lat="43.4844064" lon="12.0766348"><ele>313.0</ele><time>2026-05-01T17:46:14.046Z</time></trkpt><trkpt lat="43.48433" lon="12.0764019"><ele>313.0</ele><time>2026-05-01T17:46:15.046Z</time></trkpt><trkpt lat="43.4842502" lon="12.0761697"><ele>313.0</ele><time>2026-05-01T17:46:16.046Z</time></trkpt><trkpt lat="43.4841669" lon="12.0759413"><ele>313.0</ele><time>2026-05-01T17:46:17.047Z</time></trkpt><trkpt lat="43.484091" lon="12.0757222"><ele>314.66666666666663</ele><time>2026-05-01T17:46:18.046Z</time></trkpt><trkpt lat="43.4840169" lon="12.0755126"><ele>316.3333333333333</ele><time>2026-05-01T17:46:19.047Z</time></trkpt><trkpt lat="43.483942" lon="12.07529"><ele>318.0</ele><time>2026-05-01T17:46:20.047Z</time></trkpt><trkpt lat="43.4838612" lon="12.0750776"><ele>317.0</ele><time>2026-05-01T17:46:21.046Z</time></trkpt><trkpt lat="43.4837817" lon="12.0748804"><ele>316.0</ele><time>2026-05-01T17:46:22.046Z</time></trkpt><trkpt lat="43.4836953" lon="12.0746792"><ele>315.0</ele><time>2026-05-01T17:46:23.046Z</time></trkpt><trkpt lat="43.4835939" lon="12.0744849"><ele>315.0</ele><time>2026-05-01T17:46:24.047Z</time></trkpt><trkpt lat="43.4834759" lon="12.0742982"><ele>315.0</ele><time>2026-05-01T17:46:25.046Z</time></trkpt><trkpt lat="43.4833541" lon="12.0741052"><ele>315.0</ele><time>2026-05-01T17:46:26.046Z</time></trkpt><trkpt lat="43.4832362" lon="12.073909"><ele>316.3333333333333</ele><time>2026-05-01T17:46:27.047Z</time></trkpt><trkpt lat="43.4831193" lon="12.0737097"><ele>317.66666666666663</ele><time>2026-05-01T17:46:28.046Z</time></trkpt><trkpt lat="43.4830121" lon="12.0734979"><ele>319.0</ele><time>2026-05-01T17:46:29.046Z</time></trkpt><trkpt lat="43.4829067" lon="12.0732865"><ele>317.66666666666663</ele><time>2026-05-01T17:46:30.047Z</time></trkpt><trkpt lat="43.4828052" lon="12.0730712"><ele>316.3333333333333</ele><time>2026-05-01T17:46:31.046Z</time></trkpt><trkpt lat="43.482711" lon="12.0728545"><ele>315.0</ele><time>2026-05-01T17:46:32.046Z</time></trkpt><trkpt lat="43.4826191" lon="12.0726345"><ele>317.6666666666667</ele><time>2026-05-01T17:46:33.046Z</time></trkpt><trkpt lat="43.4825259" lon="12.0724079"><ele>320.33333333333337</ele><time>2026-05-01T17:46:34.046Z</time></trkpt><trkpt lat="43.4824325" lon="12.0721712"><ele>323.0</ele><time>2026-05-01T17:46:35.047Z</time></trkpt><trkpt lat="43.4823378" lon="12.0719337"><ele>323.0</ele><time>2026-05-01T17:46:36.046Z</time></trkpt><trkpt lat="43.4822502" lon="12.0717014"><ele>323.0</ele><time>2026-05-01T17:46:37.046Z</time></trkpt><trkpt lat="43.4821614" lon="12.0714729"><ele>323.0</ele><time>2026-05-01T17:46:38.046Z</time></trkpt><trkpt lat="43.4820696" lon="12.0712548"><ele>318.6666666666667</ele><time>2026-05-01T17:46:39.046Z</time></trkpt><trkpt lat="43.4819963" lon="12.0710603"><ele>314.3333333333333</ele><time>2026-05-01T17:46:40.047Z</time></trkpt><trkpt lat="43.4819266" lon="12.0708716"><ele>310.0</ele><time>2026-05-01T17:46:41.046Z</time></trkpt><trkpt lat="43.4818624" lon="12.070693"><ele>310.0</ele><time>2026-05-01T17:46:42.046Z</time></trkpt><trkpt lat="43.4818001" lon="12.0705097"><ele>310.0</ele><time>2026-05-01T17:46:43.047Z</time></trkpt><trkpt lat="43.4817322" lon="12.0703199"><ele>310.0</ele><time>2026-05-01T17:46:44.046Z</time></trkpt><trkpt lat="43.4816578" lon="12.0701049"><ele>313.0</ele><time>2026-05-01T17:46:45.046Z</time></trkpt><trkpt lat="43.4815744" lon="12.069889"><ele>316.0</ele><time>2026-05-01T17:46:46.046Z</time></trkpt><trkpt lat="43.4814999" lon="12.0696576"><ele>319.0</ele><time>2026-05-01T17:46:47.046Z</time></trkpt><trkpt lat="43.481431" lon="12.0694259"><ele>319.0</ele><time>2026-05-01T17:46:48.046Z</time></trkpt><trkpt lat="43.4813789" lon="12.0691896"><ele>319.0</ele><time>2026-05-01T17:46:49.046Z</time></trkpt><trkpt lat="43.481332" lon="12.0689498"><ele>319.0</ele><time>2026-05-01T17:46:50.046Z</time></trkpt><trkpt lat="43.4812912" lon="12.0687055"><ele>315.3333333333333</ele><time>2026-05-01T17:46:51.046Z</time></trkpt><trkpt lat="43.4812608" lon="12.068456"><ele>311.6666666666667</ele><time>2026-05-01T17:46:52.047Z</time></trkpt><trkpt lat="43.4812375" lon="12.0682155"><ele>308.0</ele><time>2026-05-01T17:46:53.046Z</time></trkpt><trkpt lat="43.4812263" lon="12.0679811"><ele>308.0</ele><time>2026-05-01T17:46:54.046Z</time></trkpt><trkpt lat="43.4812271" lon="12.067762"><ele>308.0</ele><time>2026-05-01T17:46:55.046Z</time></trkpt><trkpt lat="43.4812229" lon="12.0675615"><ele>308.0</ele><time>2026-05-01T17:46:56.046Z</time></trkpt><trkpt lat="43.4812201" lon="12.0673561"><ele>308.33333333333337</ele><time>2026-05-01T17:46:57.046Z</time></trkpt><trkpt lat="43.4812185" lon="12.0671489"><ele>308.6666666666667</ele><time>2026-05-01T17:46:58.046Z</time></trkpt><trkpt lat="43.4812209" lon="12.0669326"><ele>309.0</ele><time>2026-05-01T17:46:59.046Z</time></trkpt><trkpt lat="43.4812139" lon="12.0667015"><ele>309.3333333333333</ele><time>2026-05-01T17:47:00.046Z</time></trkpt><trkpt lat="43.4811976" lon="12.0664702"><ele>309.66666666666663</ele><time>2026-05-01T17:47:01.047Z</time></trkpt><trkpt lat="43.4811772" lon="12.0662381"><ele>310.0</ele><time>2026-05-01T17:47:02.046Z</time></trkpt><trkpt lat="43.4811469" lon="12.0660106"><ele>310.3333333333333</ele><time>2026-05-01T17:47:03.046Z</time></trkpt><trkpt lat="43.4811112" lon="12.0657779"><ele>310.6666666666667</ele><time>2026-05-01T17:47:04.046Z</time></trkpt><trkpt lat="43.481074" lon="12.065542"><ele>311.0</ele><time>2026-05-01T17:47:05.046Z</time></trkpt><trkpt lat="43.4810384" lon="12.0653101"><ele>311.0</ele><time>2026-05-01T17:47:06.047Z</time></trkpt><trkpt lat="43.4810059" lon="12.0650721"><ele>311.0</ele><time>2026-05-01T17:47:07.046Z</time></trkpt><trkpt lat="43.4809715" lon="12.0648356"><ele>311.0</ele><time>2026-05-01T17:47:08.046Z</time></trkpt><trkpt lat="43.4809368" lon="12.0646027"><ele>311.6666666666667</ele><time>2026-05-01T17:47:09.047Z</time></trkpt><trkpt lat="43.4809015" lon="12.0643694"><ele>312.3333333333333</ele><time>2026-05-01T17:47:10.046Z</time></trkpt><trkpt lat="43.4808606" lon="12.0641374"><ele>313.0</ele><time>2026-05-01T17:47:11.047Z</time></trkpt><trkpt lat="43.4808143" lon="12.0639109"><ele>315.3333333333333</ele><time>2026-05-01T17:47:12.046Z</time></trkpt><trkpt lat="43.4807652" lon="12.0637039"><ele>317.6666666666667</ele><time>2026-05-01T17:47:13.046Z</time></trkpt><trkpt lat="43.4807077" lon="12.0634889"><ele>320.0</ele><time>2026-05-01T17:47:14.046Z</time></trkpt><trkpt lat="43.4806433" lon="12.0632872"><ele>323.33333333333337</ele><time>2026-05-01T17:47:15.046Z</time></trkpt><trkpt lat="43.4805713" lon="12.0630903"><ele>326.6666666666667</ele><time>2026-05-01T17:47:16.046Z</time></trkpt><trkpt lat="43.4805019" lon="12.0629055"><ele>330.0</ele><time>2026-05-01T17:47:17.047Z</time></trkpt><trkpt lat="43.4804237" lon="12.0627297"><ele>326.75</ele><time>2026-05-01T17:47:18.047Z</time></trkpt><trkpt lat="43.4803446" lon="12.0625651"><ele>323.5</ele><time>2026-05-01T17:47:19.047Z</time></trkpt><trkpt lat="43.4802585" lon="12.0624287"><ele>320.25</ele><time>2026-05-01T17:47:20.047Z</time></trkpt><trkpt lat="43.4801558" lon="12.062305"><ele>317.0</ele><time>2026-05-01T17:47:21.046Z</time></trkpt><trkpt lat="43.4800385" lon="12.0622176"><ele>317.0</ele><time>2026-05-01T17:47:22.046Z</time></trkpt><trkpt lat="43.4799161" lon="12.0621583"><ele>317.0</ele><time>2026-05-01T17:47:23.046Z</time></trkpt><trkpt lat="43.4797771" lon="12.0621378"><ele>317.0</ele><time>2026-05-01T17:47:24.046Z</time></trkpt><trkpt lat="43.4796301" lon="12.0621594"><ele>317.0</ele><time>2026-05-01T17:47:25.046Z</time></trkpt><trkpt lat="43.4794747" lon="12.0621956"><ele>314.0</ele><time>2026-05-01T17:47:26.046Z</time></trkpt><trkpt lat="43.4793126" lon="12.0622534"><ele>311.0</ele><time>2026-05-01T17:47:27.046Z</time></trkpt><trkpt lat="43.4791398" lon="12.0623135"><ele>308.0</ele><time>2026-05-01T17:47:28.046Z</time></trkpt><trkpt lat="43.4789564" lon="12.0623852"><ele>308.0</ele><time>2026-05-01T17:47:29.046Z</time></trkpt><trkpt lat="43.4787694" lon="12.0624372"><ele>308.0</ele><time>2026-05-01T17:47:30.047Z</time></trkpt><trkpt lat="43.4785798" lon="12.0624889"><ele>308.0</ele><time>2026-05-01T17:47:31.046Z</time></trkpt><trkpt lat="43.4783851" lon="12.0625248"><ele>308.33333333333337</ele><time>2026-05-01T17:47:32.047Z</time></trkpt><trkpt lat="43.4781908" lon="12.0625063"><ele>308.6666666666667</ele><time>2026-05-01T17:47:33.047Z</time></trkpt><trkpt lat="43.4780076" lon="12.0624215"><ele>309.0</ele><time>2026-05-01T17:47:34.046Z</time></trkpt><trkpt lat="43.4778411" lon="12.0622772"><ele>309.0</ele><time>2026-05-01T17:47:35.046Z</time></trkpt><trkpt lat="43.4776998" lon="12.0620853"><ele>309.0</ele><time>2026-05-01T17:47:36.047Z</time></trkpt><trkpt lat="43.4775926" lon="12.0618451"><ele>309.0</ele><time>2026-05-01T17:47:37.046Z</time></trkpt><trkpt lat="43.4775051" lon="12.0615822"><ele>309.0</ele><time>2026-05-01T17:47:38.046Z</time></trkpt><trkpt lat="43.4774378" lon="12.0612999"><ele>309.0</ele><time>2026-05-01T17:47:39.047Z</time></trkpt><trkpt lat="43.4773673" lon="12.0609996"><ele>309.0</ele><time>2026-05-01T17:47:40.046Z</time></trkpt><trkpt lat="43.4772894" lon="12.0606882"><ele>309.0</ele><time>2026-05-01T17:47:41.046Z</time></trkpt><trkpt lat="43.4772172" lon="12.060364"><ele>309.0</ele><time>2026-05-01T17:47:42.046Z</time></trkpt><trkpt lat="43.4771463" lon="12.0600347"><ele>309.5</ele><time>2026-05-01T17:47:43.046Z</time></trkpt><trkpt lat="43.477072" lon="12.0597015"><ele>310.0</ele><time>2026-05-01T17:47:44.046Z</time></trkpt><trkpt lat="43.4769884" lon="12.0593654"><ele>311.0</ele><time>2026-05-01T17:47:45.047Z</time></trkpt><trkpt lat="43.4768893" lon="12.0590316"><ele>312.0</ele><time>2026-05-01T17:47:46.046Z</time></trkpt><trkpt lat="43.4767752" lon="12.0587036"><ele>312.0</ele><time>2026-05-01T17:47:47.047Z</time></trkpt><trkpt lat="43.4766493" lon="12.0583827"><ele>312.0</ele><time>2026-05-01T17:47:48.046Z</time></trkpt><trkpt lat="43.4765086" lon="12.0580667"><ele>312.5</ele><time>2026-05-01T17:47:49.046Z</time></trkpt><trkpt lat="43.476357" lon="12.057764"><ele>313.0</ele><time>2026-05-01T17:47:50.046Z</time></trkpt><trkpt lat="43.4761905" lon="12.0574684"><ele>312.5</ele><time>2026-05-01T17:47:51.046Z</time></trkpt><trkpt lat="43.4760106" lon="12.0571823"><ele>312.0</ele><time>2026-05-01T17:47:52.046Z</time></trkpt><trkpt lat="43.4758125" lon="12.0569117"><ele>312.0</ele><time>2026-05-01T17:47:53.047Z</time></trkpt><trkpt lat="43.4756042" lon="12.0566583"><ele>312.0</ele><time>2026-05-01T17:47:54.047Z</time></trkpt><trkpt lat="43.4753826" lon="12.0564241"><ele>313.0</ele><time>2026-05-01T17:47:55.046Z</time></trkpt><trkpt lat="43.4751478" lon="12.0562136"><ele>314.0</ele><time>2026-05-01T17:47:56.046Z</time></trkpt><trkpt lat="43.4749055" lon="12.056006"><ele>314.0</ele><time>2026-05-01T17:47:57.046Z</time></trkpt><trkpt lat="43.4746572" lon="12.0558052"><ele>314.0</ele><time>2026-05-01T17:47:58.046Z</time></trkpt><trkpt lat="43.4743992" lon="12.0556146"><ele>313.5</ele><time>2026-05-01T17:47:59.047Z</time></trkpt><trkpt lat="43.4741443" lon="12.055426"><ele>313.0</ele><time>2026-05-01T17:48:00.046Z</time></trkpt><trkpt lat="43.4738946" lon="12.0552429"><ele>312.5</ele><time>2026-05-01T17:48:01.046Z</time></trkpt><trkpt lat="43.4736412" lon="12.0550538"><ele>312.0</ele><time>2026-05-01T17:48:02.046Z</time></trkpt><trkpt lat="43.4733866" lon="12.054864"><ele>312.0</ele><time>2026-05-01T17:48:03.047Z</time></trkpt><trkpt lat="43.4731332" lon="12.0546766"><ele>312.0</ele><time>2026-05-01T17:48:04.046Z</time></trkpt><trkpt lat="43.4728767" lon="12.0544891"><ele>312.0</ele><time>2026-05-01T17:48:05.046Z</time></trkpt><trkpt lat="43.4726185" lon="12.0543004"><ele>312.0</ele><time>2026-05-01T17:48:06.046Z</time></trkpt><trkpt lat="43.4723671" lon="12.0541144"><ele>312.0</ele><time>2026-05-01T17:48:07.046Z</time></trkpt><trkpt lat="43.4721106" lon="12.0539289"><ele>312.0</ele><time>2026-05-01T17:48:08.047Z</time></trkpt><trkpt lat="43.4718581" lon="12.053739"><ele>313.0</ele><time>2026-05-01T17:48:09.046Z</time></trkpt><trkpt lat="43.4716025" lon="12.0535491"><ele>314.0</ele><time>2026-05-01T17:48:10.046Z</time></trkpt><trkpt lat="43.4713471" lon="12.0533571"><ele>316.0</ele><time>2026-05-01T17:48:11.046Z</time></trkpt><trkpt lat="43.4710929" lon="12.0531649"><ele>318.0</ele><time>2026-05-01T17:48:12.047Z</time></trkpt><trkpt lat="43.4708364" lon="12.0529739"><ele>318.0</ele><time>2026-05-01T17:48:13.046Z</time></trkpt><trkpt lat="43.4705779" lon="12.0527809"><ele>318.0</ele><time>2026-05-01T17:48:14.047Z</time></trkpt><trkpt lat="43.4703175" lon="12.0525864"><ele>318.5</ele><time>2026-05-01T17:48:15.046Z</time></trkpt><trkpt lat="43.4700627" lon="12.0523907"><ele>319.0</ele><time>2026-05-01T17:48:16.046Z</time></trkpt><trkpt lat="43.4698118" lon="12.0521871"><ele>317.0</ele><time>2026-05-01T17:48:17.046Z</time></trkpt><trkpt lat="43.4695647" lon="12.0519648"><ele>315.0</ele><time>2026-05-01T17:48:18.046Z</time></trkpt><trkpt lat="43.4693236" lon="12.0517283"><ele>317.5</ele><time>2026-05-01T17:48:19.047Z</time></trkpt><trkpt lat="43.4690951" lon="12.0514665"><ele>320.0</ele><time>2026-05-01T17:48:20.046Z</time></trkpt><trkpt lat="43.4688744" lon="12.0512005"><ele>320.0</ele><time>2026-05-01T17:48:21.046Z</time></trkpt><trkpt lat="43.4686651" lon="12.0509229"><ele>320.0</ele><time>2026-05-01T17:48:22.046Z</time></trkpt><trkpt lat="43.4684691" lon="12.0506243"><ele>320.0</ele><time>2026-05-01T17:48:23.047Z</time></trkpt><trkpt lat="43.4682758" lon="12.0503156"><ele>320.0</ele><time>2026-05-01T17:48:24.046Z</time></trkpt><trkpt lat="43.4680941" lon="12.0499991"><ele>317.5</ele><time>2026-05-01T17:48:25.046Z</time></trkpt><trkpt lat="43.467919" lon="12.0496723"><ele>315.0</ele><time>2026-05-01T17:48:26.046Z</time></trkpt><trkpt lat="43.4677678" lon="12.0493272"><ele>315.5</ele><time>2026-05-01T17:48:27.047Z</time></trkpt><trkpt lat="43.4676245" lon="12.0489801"><ele>316.0</ele><time>2026-05-01T17:48:28.046Z</time></trkpt><trkpt lat="43.4674926" lon="12.0486242"><ele>320.0</ele><time>2026-05-01T17:48:29.046Z</time></trkpt><trkpt lat="43.4673714" lon="12.0482554"><ele>324.0</ele><time>2026-05-01T17:48:30.047Z</time></trkpt><trkpt lat="43.4672574" lon="12.0478805"><ele>324.0</ele><time>2026-05-01T17:48:31.046Z</time></trkpt><trkpt lat="43.4671461" lon="12.0475071"><ele>324.0</ele><time>2026-05-01T17:48:32.046Z</time></trkpt><trkpt lat="43.4670373" lon="12.0471284"><ele>325.0</ele><time>2026-05-01T17:48:33.046Z</time></trkpt><trkpt lat="43.4669233" lon="12.046746"><ele>326.0</ele><time>2026-05-01T17:48:34.047Z</time></trkpt><trkpt lat="43.4668196" lon="12.0463658"><ele>326.0</ele><time>2026-05-01T17:48:35.046Z</time></trkpt><trkpt lat="43.4667151" lon="12.0459929"><ele>326.0</ele><time>2026-05-01T17:48:36.046Z</time></trkpt><trkpt lat="43.4666103" lon="12.0456113"><ele>329.0</ele><time>2026-05-01T17:48:37.047Z</time></trkpt><trkpt lat="43.4665008" lon="12.0452339"><ele>332.0</ele><time>2026-05-01T17:48:38.046Z</time></trkpt><trkpt lat="43.4663895" lon="12.044856"><ele>325.0</ele><time>2026-05-01T17:48:39.046Z</time></trkpt><trkpt lat="43.4662773" lon="12.0444806"><ele>318.0</ele><time>2026-05-01T17:48:40.046Z</time></trkpt><trkpt lat="43.4661674" lon="12.044108"><ele>318.0</ele><time>2026-05-01T17:48:41.046Z</time></trkpt><trkpt lat="43.4660567" lon="12.0437334"><ele>318.0</ele><time>2026-05-01T17:48:42.046Z</time></trkpt><trkpt lat="43.4659471" lon="12.0433559"><ele>318.0</ele><time>2026-05-01T17:48:43.046Z</time></trkpt><trkpt lat="43.4658385" lon="12.0429816"><ele>318.0</ele><time>2026-05-01T17:48:44.047Z</time></trkpt><trkpt lat="43.4657254" lon="12.0426123"><ele>320.0</ele><time>2026-05-01T17:48:45.046Z</time></trkpt><trkpt lat="43.4656161" lon="12.0422375"><ele>322.0</ele><time>2026-05-01T17:48:46.047Z</time></trkpt><trkpt lat="43.4655075" lon="12.0418643"><ele>321.0</ele><time>2026-05-01T17:48:47.046Z</time></trkpt><trkpt lat="43.4653967" lon="12.0414912"><ele>320.0</ele><time>2026-05-01T17:48:48.046Z</time></trkpt><trkpt lat="43.4652885" lon="12.0411162"><ele>320.0</ele><time>2026-05-01T17:48:49.046Z</time></trkpt><trkpt lat="43.4651833" lon="12.04074"><ele>320.0</ele><time>2026-05-01T17:48:50.047Z</time></trkpt><trkpt lat="43.4650795" lon="12.0403773"><ele>320.0</ele><time>2026-05-01T17:48:51.047Z</time></trkpt><trkpt lat="43.4649752" lon="12.0400097"><ele>320.0</ele><time>2026-05-01T17:48:52.046Z</time></trkpt><trkpt lat="43.464867" lon="12.0396371"><ele>320.0</ele><time>2026-05-01T17:48:53.047Z</time></trkpt><trkpt lat="43.4647592" lon="12.0392661"><ele>320.0</ele><time>2026-05-01T17:48:54.046Z</time></trkpt><trkpt lat="43.464651" lon="12.0388979"><ele>320.5</ele><time>2026-05-01T17:48:55.046Z</time></trkpt><trkpt lat="43.4645485" lon="12.0385389"><ele>321.0</ele><time>2026-05-01T17:48:56.046Z</time></trkpt><trkpt lat="43.4644461" lon="12.038172"><ele>321.5</ele><time>2026-05-01T17:48:57.047Z</time></trkpt><trkpt lat="43.4643382" lon="12.0377969"><ele>322.0</ele><time>2026-05-01T17:48:58.046Z</time></trkpt><trkpt lat="43.4642271" lon="12.0374211"><ele>323.0</ele><time>2026-05-01T17:48:59.047Z</time></trkpt><trkpt lat="43.4641158" lon="12.0370438"><ele>324.0</ele><time>2026-05-01T17:49:00.046Z</time></trkpt><trkpt lat="43.4640024" lon="12.0366647"><ele>325.0</ele><time>2026-05-01T17:49:01.046Z</time></trkpt><trkpt lat="43.4638915" lon="12.0362865"><ele>326.0</ele><time>2026-05-01T17:49:02.046Z</time></trkpt><trkpt lat="43.4637813" lon="12.0359007"><ele>324.5</ele><time>2026-05-01T17:49:03.046Z</time></trkpt><trkpt lat="43.4636708" lon="12.0355205"><ele>323.0</ele><time>2026-05-01T17:49:04.047Z</time></trkpt><trkpt lat="43.4635617" lon="12.0351423"><ele>324.0</ele><time>2026-05-01T17:49:05.046Z</time></trkpt><trkpt lat="43.4634521" lon="12.0347688"><ele>325.0</ele><time>2026-05-01T17:49:06.046Z</time></trkpt><trkpt lat="43.463343" lon="12.0343936"><ele>327.0</ele><time>2026-05-01T17:49:07.047Z</time></trkpt><trkpt lat="43.4632434" lon="12.0340166"><ele>329.0</ele><time>2026-05-01T17:49:08.046Z</time></trkpt><trkpt lat="43.4631469" lon="12.0336402"><ele>331.0</ele><time>2026-05-01T17:49:09.046Z</time></trkpt><trkpt lat="43.4630587" lon="12.0332628"><ele>333.0</ele><time>2026-05-01T17:49:10.047Z</time></trkpt><trkpt lat="43.4629759" lon="12.0328852"><ele>329.5</ele><time>2026-05-01T17:49:11.047Z</time></trkpt><trkpt lat="43.4628984" lon="12.0325075"><ele>326.0</ele><time>2026-05-01T17:49:12.047Z</time></trkpt><trkpt lat="43.4628277" lon="12.0321283"><ele>326.0</ele><time>2026-05-01T17:49:13.046Z</time></trkpt><trkpt lat="43.4627657" lon="12.0317442"><ele>326.0</ele><time>2026-05-01T17:49:14.046Z</time></trkpt><trkpt lat="43.4627088" lon="12.0313635"><ele>325.5</ele><time>2026-05-01T17:49:15.046Z</time></trkpt><trkpt lat="43.4626749" lon="12.0309766"><ele>325.0</ele><time>2026-05-01T17:49:16.047Z</time></trkpt><trkpt lat="43.4626627" lon="12.030588"><ele>326.0</ele><time>2026-05-01T17:49:17.046Z</time></trkpt><trkpt lat="43.4626827" lon="12.0302034"><ele>327.0</ele><time>2026-05-01T17:49:18.046Z</time></trkpt><trkpt lat="43.4627309" lon="12.0298252"><ele>327.0</ele><time>2026-05-01T17:49:19.046Z</time></trkpt><trkpt lat="43.4627792" lon="12.0294554"><ele>327.0</ele><time>2026-05-01T17:49:20.046Z</time></trkpt><trkpt lat="43.4628551" lon="12.0291106"><ele>327.0</ele><time>2026-05-01T17:49:21.047Z</time></trkpt><trkpt lat="43.4629423" lon="12.0287853"><ele>327.0</ele><time>2026-05-01T17:49:22.047Z</time></trkpt><trkpt lat="43.4630445" lon="12.0284979"><ele>326.3333333333333</ele><time>2026-05-01T17:49:23.047Z</time></trkpt><trkpt lat="43.4631488" lon="12.0282435"><ele>325.66666666666663</ele><time>2026-05-01T17:49:24.046Z</time></trkpt><trkpt lat="43.4632503" lon="12.0279917"><ele>325.0</ele><time>2026-05-01T17:49:25.046Z</time></trkpt><trkpt lat="43.4633479" lon="12.0277487"><ele>325.0</ele><time>2026-05-01T17:49:26.047Z</time></trkpt><trkpt lat="43.4634448" lon="12.027507"><ele>325.0</ele><time>2026-05-01T17:49:27.047Z</time></trkpt><trkpt lat="43.4635373" lon="12.0272486"><ele>325.0</ele><time>2026-05-01T17:49:28.046Z</time></trkpt><trkpt lat="43.4636191" lon="12.0269842"><ele>326.0</ele><time>2026-05-01T17:49:29.046Z</time></trkpt><trkpt lat="43.463684" lon="12.0267091"><ele>327.0</ele><time>2026-05-01T17:49:30.046Z</time></trkpt><trkpt lat="43.463736" lon="12.0264386"><ele>328.0</ele><time>2026-05-01T17:49:31.046Z</time></trkpt><trkpt lat="43.4637766" lon="12.0261631"><ele>328.3333333333333</ele><time>2026-05-01T17:49:32.047Z</time></trkpt><trkpt lat="43.4638059" lon="12.0258891"><ele>328.6666666666667</ele><time>2026-05-01T17:49:33.046Z</time></trkpt><trkpt lat="43.4638285" lon="12.0256228"><ele>329.0</ele><time>2026-05-01T17:49:34.047Z</time></trkpt><trkpt lat="43.4638392" lon="12.0253599"><ele>329.0</ele><time>2026-05-01T17:49:35.047Z</time></trkpt><trkpt lat="43.4638397" lon="12.0250986"><ele>329.0</ele><time>2026-05-01T17:49:36.046Z</time></trkpt><trkpt lat="43.463832" lon="12.0248345"><ele>329.0</ele><time>2026-05-01T17:49:37.046Z</time></trkpt><trkpt lat="43.463817" lon="12.0245711"><ele>329.33333333333337</ele><time>2026-05-01T17:49:38.046Z</time></trkpt><trkpt lat="43.4637832" lon="12.0242873"><ele>329.6666666666667</ele><time>2026-05-01T17:49:39.046Z</time></trkpt><trkpt lat="43.4637425" lon="12.0240157"><ele>330.0</ele><time>2026-05-01T17:49:40.046Z</time></trkpt><trkpt lat="43.4636936" lon="12.0237463"><ele>330.0</ele><time>2026-05-01T17:49:41.046Z</time></trkpt><trkpt lat="43.4636407" lon="12.0234875"><ele>330.0</ele><time>2026-05-01T17:49:42.046Z</time></trkpt><trkpt lat="43.4635669" lon="12.0232352"><ele>330.0</ele><time>2026-05-01T17:49:43.046Z</time></trkpt><trkpt lat="43.4634586" lon="12.0229748"><ele>333.5</ele><time>2026-05-01T17:49:44.046Z</time></trkpt><trkpt lat="43.4633236" lon="12.0227184"><ele>337.0</ele><time>2026-05-01T17:49:45.046Z</time></trkpt><trkpt lat="43.4631923" lon="12.0224582"><ele>340.0</ele><time>2026-05-01T17:49:46.046Z</time></trkpt><trkpt lat="43.4630552" lon="12.0221986"><ele>343.0</ele><time>2026-05-01T17:49:47.046Z</time></trkpt><trkpt lat="43.4629219" lon="12.0219341"><ele>337.0</ele><time>2026-05-01T17:49:48.047Z</time></trkpt><trkpt lat="43.4627829" lon="12.021662"><ele>331.0</ele><time>2026-05-01T17:49:49.046Z</time></trkpt><trkpt lat="43.4626416" lon="12.0213783"><ele>331.0</ele><time>2026-05-01T17:49:50.046Z</time></trkpt><trkpt lat="43.4624982" lon="12.0210917"><ele>331.0</ele><time>2026-05-01T17:49:51.046Z</time></trkpt><trkpt lat="43.4623509" lon="12.0207963"><ele>332.0</ele><time>2026-05-01T17:49:52.047Z</time></trkpt><trkpt lat="43.4621997" lon="12.0204985"><ele>333.0</ele><time>2026-05-01T17:49:53.046Z</time></trkpt><trkpt lat="43.4620478" lon="12.0201946"><ele>332.5</ele><time>2026-05-01T17:49:54.047Z</time></trkpt><trkpt lat="43.4618922" lon="12.0198883"><ele>332.0</ele><time>2026-05-01T17:49:55.046Z</time></trkpt><trkpt lat="43.4617344" lon="12.0195742"><ele>332.0</ele><time>2026-05-01T17:49:56.046Z</time></trkpt><trkpt lat="43.4615764" lon="12.0192614"><ele>332.0</ele><time>2026-05-01T17:49:57.047Z</time></trkpt><trkpt lat="43.4614168" lon="12.0189489"><ele>337.0</ele><time>2026-05-01T17:49:58.046Z</time></trkpt><trkpt lat="43.4612586" lon="12.0186411"><ele>342.0</ele><time>2026-05-01T17:49:59.046Z</time></trkpt><trkpt lat="43.4611027" lon="12.0183426"><ele>350.0</ele><time>2026-05-01T17:50:00.046Z</time></trkpt><trkpt lat="43.4609517" lon="12.0180505"><ele>358.0</ele><time>2026-05-01T17:50:01.046Z</time></trkpt><trkpt lat="43.4607987" lon="12.0177642"><ele>358.0</ele><time>2026-05-01T17:50:02.046Z</time></trkpt><trkpt lat="43.4606396" lon="12.0174921"><ele>358.0</ele><time>2026-05-01T17:50:03.046Z</time></trkpt><trkpt lat="43.4604595" lon="12.0172415"><ele>357.0</ele><time>2026-05-01T17:50:04.046Z</time></trkpt><trkpt lat="43.4602641" lon="12.0170188"><ele>356.0</ele><time>2026-05-01T17:50:05.046Z</time></trkpt><trkpt lat="43.4600597" lon="12.0168119"><ele>362.5</ele><time>2026-05-01T17:50:06.046Z</time></trkpt><trkpt lat="43.4598429" lon="12.0166297"><ele>369.0</ele><time>2026-05-01T17:50:07.046Z</time></trkpt><trkpt lat="43.4596134" lon="12.0164743"><ele>369.0</ele><time>2026-05-01T17:50:08.046Z</time></trkpt><trkpt lat="43.4593728" lon="12.0163317"><ele>369.0</ele><time>2026-05-01T17:50:09.046Z</time></trkpt><trkpt lat="43.4591343" lon="12.0161997"><ele>369.0</ele><time>2026-05-01T17:50:10.046Z</time></trkpt><trkpt lat="43.4588977" lon="12.0160603"><ele>369.0</ele><time>2026-05-01T17:50:11.046Z</time></trkpt><trkpt lat="43.4586583" lon="12.0159138"><ele>380.0</ele><time>2026-05-01T17:50:12.046Z</time></trkpt><trkpt lat="43.4584251" lon="12.0157491"><ele>391.0</ele><time>2026-05-01T17:50:13.046Z</time></trkpt><trkpt lat="43.4581988" lon="12.015561"><ele>405.0</ele><time>2026-05-01T17:50:14.046Z</time></trkpt><trkpt lat="43.4571743" lon="12.0139191"><ele>393.5</ele><time>2026-05-01T17:50:20.046Z</time></trkpt><trkpt lat="43.4570758" lon="12.0135213"><ele>382.0</ele><time>2026-05-01T17:50:21.047Z</time></trkpt><trkpt lat="43.4569332" lon="12.0131854"><ele>382.0</ele><time>2026-05-01T17:50:22.046Z</time></trkpt><trkpt lat="43.4567927" lon="12.0128399"><ele>382.0</ele><time>2026-05-01T17:50:23.046Z</time></trkpt><trkpt lat="43.4566387" lon="12.0125065"><ele>386.5</ele><time>2026-05-01T17:50:24.046Z</time></trkpt><trkpt lat="43.4564862" lon="12.0121748"><ele>391.0</ele><time>2026-05-01T17:50:25.047Z</time></trkpt><trkpt lat="43.4563307" lon="12.0118513"><ele>388.5</ele><time>2026-05-01T17:50:26.047Z</time></trkpt><trkpt lat="43.456166" lon="12.0115265"><ele>386.0</ele><time>2026-05-01T17:50:27.046Z</time></trkpt><trkpt lat="43.4559897" lon="12.0112097"><ele>386.0</ele><time>2026-05-01T17:50:28.046Z</time></trkpt><trkpt lat="43.4558091" lon="12.0108999"><ele>386.0</ele><time>2026-05-01T17:50:29.046Z</time></trkpt><trkpt lat="43.4556193" lon="12.0106003"><ele>374.5</ele><time>2026-05-01T17:50:30.046Z</time></trkpt><trkpt lat="43.4554328" lon="12.0103029"><ele>363.0</ele><time>2026-05-01T17:50:31.046Z</time></trkpt><trkpt lat="43.4552438" lon="12.0099981"><ele>365.5</ele><time>2026-05-01T17:50:32.046Z</time></trkpt><trkpt lat="43.4550499" lon="12.0096871"><ele>368.0</ele><time>2026-05-01T17:50:33.047Z</time></trkpt><trkpt lat="43.4548583" lon="12.0093779"><ele>369.0</ele><time>2026-05-01T17:50:34.046Z</time></trkpt><trkpt lat="43.4546698" lon="12.0090688"><ele>370.0</ele><time>2026-05-01T17:50:35.046Z</time></trkpt><trkpt lat="43.4544873" lon="12.0087614"><ele>368.5</ele><time>2026-05-01T17:50:36.046Z</time></trkpt><trkpt lat="43.4543056" lon="12.0084411"><ele>367.0</ele><time>2026-05-01T17:50:37.046Z</time></trkpt><trkpt lat="43.4541249" lon="12.0081103"><ele>367.0</ele><time>2026-05-01T17:50:38.046Z</time></trkpt><trkpt lat="43.4539471" lon="12.0077693"><ele>367.0</ele><time>2026-05-01T17:50:39.046Z</time></trkpt><trkpt lat="43.4537767" lon="12.0074097"><ele>370.0</ele><time>2026-05-01T17:50:40.046Z</time></trkpt><trkpt lat="43.4536138" lon="12.0070325"><ele>373.0</ele><time>2026-05-01T17:50:41.047Z</time></trkpt><trkpt lat="43.4534536" lon="12.0066502"><ele>373.5</ele><time>2026-05-01T17:50:42.047Z</time></trkpt><trkpt lat="43.4532958" lon="12.0062704"><ele>374.0</ele><time>2026-05-01T17:50:43.046Z</time></trkpt><trkpt lat="43.4531385" lon="12.0058838"><ele>370.5</ele><time>2026-05-01T17:50:44.046Z</time></trkpt><trkpt lat="43.4529842" lon="12.0054926"><ele>367.0</ele><time>2026-05-01T17:50:45.046Z</time></trkpt><trkpt lat="43.4528215" lon="12.0050994"><ele>364.5</ele><time>2026-05-01T17:50:46.046Z</time></trkpt><trkpt lat="43.4526536" lon="12.0046979"><ele>362.0</ele><time>2026-05-01T17:50:47.047Z</time></trkpt><trkpt lat="43.4524843" lon="12.0042943"><ele>359.5</ele><time>2026-05-01T17:50:48.046Z</time></trkpt><trkpt lat="43.4523066" lon="12.0038826"><ele>357.0</ele><time>2026-05-01T17:50:49.046Z</time></trkpt><trkpt lat="43.4521198" lon="12.0034775"><ele>363.0</ele><time>2026-05-01T17:50:50.047Z</time></trkpt><trkpt lat="43.4519206" lon="12.0030824"><ele>369.0</ele><time>2026-05-01T17:50:51.048Z</time></trkpt><trkpt lat="43.4517093" lon="12.0026953"><ele>366.0</ele><time>2026-05-01T17:50:52.048Z</time></trkpt><trkpt lat="43.451498" lon="12.0023159"><ele>363.0</ele><time>2026-05-01T17:50:53.047Z</time></trkpt><trkpt lat="43.4512888" lon="12.0019361"><ele>366.5</ele><time>2026-05-01T17:50:54.047Z</time></trkpt><trkpt lat="43.4510825" lon="12.001555"><ele>370.0</ele><time>2026-05-01T17:50:55.047Z</time></trkpt><trkpt lat="43.4508764" lon="12.0011791"><ele>368.5</ele><time>2026-05-01T17:50:56.048Z</time></trkpt><trkpt lat="43.450669" lon="12.0008007"><ele>367.0</ele><time>2026-05-01T17:50:57.047Z</time></trkpt><trkpt lat="43.4504622" lon="12.000427"><ele>371.5</ele><time>2026-05-01T17:50:58.048Z</time></trkpt><trkpt lat="43.4502543" lon="12.0000513"><ele>376.0</ele><time>2026-05-01T17:50:59.047Z</time></trkpt><trkpt lat="43.4500431" lon="11.9996792"><ele>376.0</ele><time>2026-05-01T17:51:00.047Z</time></trkpt><trkpt lat="43.4498304" lon="11.9993105"><ele>376.0</ele><time>2026-05-01T17:51:01.048Z</time></trkpt><trkpt lat="43.4496117" lon="11.998945"><ele>381.0</ele><time>2026-05-01T17:51:02.048Z</time></trkpt><trkpt lat="43.4493965" lon="11.9985873"><ele>386.0</ele><time>2026-05-01T17:51:03.048Z</time></trkpt><trkpt lat="43.4491985" lon="11.9982177"><ele>387.0</ele><time>2026-05-01T17:51:04.047Z</time></trkpt><trkpt lat="43.4489936" lon="11.9978366"><ele>388.0</ele><time>2026-05-01T17:51:05.047Z</time></trkpt><trkpt lat="43.4488001" lon="11.9974584"><ele>385.5</ele><time>2026-05-01T17:51:06.047Z</time></trkpt><trkpt lat="43.4485985" lon="11.9970762"><ele>383.0</ele><time>2026-05-01T17:51:07.048Z</time></trkpt><trkpt lat="43.4483827" lon="11.9967056"><ele>383.5</ele><time>2026-05-01T17:51:08.047Z</time></trkpt><trkpt lat="43.4481625" lon="11.9963398"><ele>384.0</ele><time>2026-05-01T17:51:09.047Z</time></trkpt><trkpt lat="43.447947" lon="11.995971"><ele>394.5</ele><time>2026-05-01T17:51:10.048Z</time></trkpt><trkpt lat="43.4477305" lon="11.9955973"><ele>405.0</ele><time>2026-05-01T17:51:11.048Z</time></trkpt><trkpt lat="43.4475212" lon="11.9952214"><ele>395.5</ele><time>2026-05-01T17:51:12.047Z</time></trkpt><trkpt lat="43.4473108" lon="11.994843"><ele>386.0</ele><time>2026-05-01T17:51:13.047Z</time></trkpt><trkpt lat="43.4471002" lon="11.9944693"><ele>385.5</ele><time>2026-05-01T17:51:14.048Z</time></trkpt><trkpt lat="43.4468902" lon="11.9940951"><ele>385.0</ele><time>2026-05-01T17:51:15.047Z</time></trkpt><trkpt lat="43.4466858" lon="11.9937274"><ele>385.0</ele><time>2026-05-01T17:51:16.047Z</time></trkpt><trkpt lat="43.4464868" lon="11.9933653"><ele>385.0</ele><time>2026-05-01T17:51:17.047Z</time></trkpt><trkpt lat="43.4462884" lon="11.9930146"><ele>384.5</ele><time>2026-05-01T17:51:18.047Z</time></trkpt><trkpt lat="43.4460897" lon="11.9926632"><ele>384.0</ele><time>2026-05-01T17:51:19.047Z</time></trkpt><trkpt lat="43.4458893" lon="11.99232"><ele>390.0</ele><time>2026-05-01T17:51:20.048Z</time></trkpt><trkpt lat="43.4456802" lon="11.9919826"><ele>396.0</ele><time>2026-05-01T17:51:21.048Z</time></trkpt><trkpt lat="43.4454743" lon="11.9916554"><ele>393.0</ele><time>2026-05-01T17:51:22.048Z</time></trkpt><trkpt lat="43.4452633" lon="11.9913359"><ele>390.0</ele><time>2026-05-01T17:51:23.048Z</time></trkpt><trkpt lat="43.4450463" lon="11.9910265"><ele>390.5</ele><time>2026-05-01T17:51:24.048Z</time></trkpt><trkpt lat="43.4448353" lon="11.9907178"><ele>391.0</ele><time>2026-05-01T17:51:25.047Z</time></trkpt><trkpt lat="43.4446255" lon="11.9904093"><ele>391.0</ele><time>2026-05-01T17:51:26.047Z</time></trkpt><trkpt lat="43.4444145" lon="11.9900973"><ele>391.0</ele><time>2026-05-01T17:51:27.047Z</time></trkpt><trkpt lat="43.444205" lon="11.9897861"><ele>390.5</ele><time>2026-05-01T17:51:28.047Z</time></trkpt><trkpt lat="43.4439905" lon="11.9894833"><ele>390.0</ele><time>2026-05-01T17:51:29.048Z</time></trkpt><trkpt lat="43.4437808" lon="11.9891831"><ele>394.0</ele><time>2026-05-01T17:51:30.047Z</time></trkpt><trkpt lat="43.4435736" lon="11.9888817"><ele>398.0</ele><time>2026-05-01T17:51:31.048Z</time></trkpt><trkpt lat="43.443385" lon="11.9885748"><ele>402.0</ele><time>2026-05-01T17:51:32.047Z</time></trkpt><trkpt lat="43.4432026" lon="11.9882528"><ele>406.0</ele><time>2026-05-01T17:51:33.047Z</time></trkpt><trkpt lat="43.4430375" lon="11.987923"><ele>402.0</ele><time>2026-05-01T17:51:34.047Z</time></trkpt><trkpt lat="43.4428892" lon="11.9875835"><ele>398.0</ele><time>2026-05-01T17:51:35.048Z</time></trkpt><trkpt lat="43.442757" lon="11.9872278"><ele>398.0</ele><time>2026-05-01T17:51:36.047Z</time></trkpt><trkpt lat="43.4426433" lon="11.9868661"><ele>398.0</ele><time>2026-05-01T17:51:37.047Z</time></trkpt><trkpt lat="43.4425355" lon="11.9864846"><ele>400.5</ele><time>2026-05-01T17:51:38.047Z</time></trkpt><trkpt lat="43.4424305" lon="11.9860863"><ele>403.0</ele><time>2026-05-01T17:51:39.047Z</time></trkpt><trkpt lat="43.4423265" lon="11.9856938"><ele>399.0</ele><time>2026-05-01T17:51:40.047Z</time></trkpt><trkpt lat="43.4422222" lon="11.9852898"><ele>395.0</ele><time>2026-05-01T17:51:41.047Z</time></trkpt><trkpt lat="43.4421213" lon="11.984886"><ele>395.0</ele><time>2026-05-01T17:51:42.047Z</time></trkpt><trkpt lat="43.442022" lon="11.9844748"><ele>395.0</ele><time>2026-05-01T17:51:43.047Z</time></trkpt><trkpt lat="43.4419255" lon="11.9840611"><ele>396.5</ele><time>2026-05-01T17:51:44.048Z</time></trkpt><trkpt lat="43.4418265" lon="11.983647"><ele>398.0</ele><time>2026-05-01T17:51:45.047Z</time></trkpt><trkpt lat="43.4417283" lon="11.9832378"><ele>402.5</ele><time>2026-05-01T17:51:46.048Z</time></trkpt><trkpt lat="43.4416324" lon="11.9828314"><ele>407.0</ele><time>2026-05-01T17:51:47.047Z</time></trkpt><trkpt lat="43.4415321" lon="11.9824327"><ele>413.0</ele><time>2026-05-01T17:51:48.047Z</time></trkpt><trkpt lat="43.4414294" lon="11.9820391"><ele>419.0</ele><time>2026-05-01T17:51:49.047Z</time></trkpt><trkpt lat="43.4413252" lon="11.9816523"><ele>405.5</ele><time>2026-05-01T17:51:50.047Z</time></trkpt><trkpt lat="43.441209" lon="11.9812684"><ele>392.0</ele><time>2026-05-01T17:51:51.047Z</time></trkpt><trkpt lat="43.4410819" lon="11.9808966"><ele>390.5</ele><time>2026-05-01T17:51:52.047Z</time></trkpt><trkpt lat="43.4409432" lon="11.9805285"><ele>389.0</ele><time>2026-05-01T17:51:53.047Z</time></trkpt><trkpt lat="43.440778" lon="11.9801756"><ele>390.0</ele><time>2026-05-01T17:51:54.047Z</time></trkpt><trkpt lat="43.4406045" lon="11.9798375"><ele>391.0</ele><time>2026-05-01T17:51:55.047Z</time></trkpt><trkpt lat="43.44042" lon="11.9795063"><ele>397.5</ele><time>2026-05-01T17:51:56.047Z</time></trkpt><trkpt lat="43.440215" lon="11.9791978"><ele>404.0</ele><time>2026-05-01T17:51:57.047Z</time></trkpt><trkpt lat="43.4399958" lon="11.9789101"><ele>404.0</ele><time>2026-05-01T17:51:58.047Z</time></trkpt><trkpt lat="43.4397629" lon="11.9786421"><ele>404.0</ele><time>2026-05-01T17:51:59.047Z</time></trkpt><trkpt lat="43.4395322" lon="11.9783943"><ele>398.5</ele><time>2026-05-01T17:52:00.048Z</time></trkpt><trkpt lat="43.4392954" lon="11.9781647"><ele>393.0</ele><time>2026-05-01T17:52:01.048Z</time></trkpt><trkpt lat="43.4390507" lon="11.9779483"><ele>393.5</ele><time>2026-05-01T17:52:02.048Z</time></trkpt><trkpt lat="43.4388005" lon="11.9777495"><ele>394.0</ele><time>2026-05-01T17:52:03.047Z</time></trkpt><trkpt lat="43.4385472" lon="11.977587"><ele>399.0</ele><time>2026-05-01T17:52:04.047Z</time></trkpt><trkpt lat="43.4382943" lon="11.9774393"><ele>404.0</ele><time>2026-05-01T17:52:05.047Z</time></trkpt><trkpt lat="43.4380328" lon="11.9773019"><ele>398.5</ele><time>2026-05-01T17:52:06.048Z</time></trkpt><trkpt lat="43.4377674" lon="11.9771839"><ele>393.0</ele><time>2026-05-01T17:52:07.048Z</time></trkpt><trkpt lat="43.4374991" lon="11.9770846"><ele>393.0</ele><time>2026-05-01T17:52:08.047Z</time></trkpt><trkpt lat="43.4372222" lon="11.9770234"><ele>393.0</ele><time>2026-05-01T17:52:09.048Z</time></trkpt><trkpt lat="43.4369363" lon="11.9769894"><ele>393.5</ele><time>2026-05-01T17:52:10.047Z</time></trkpt><trkpt lat="43.4366532" lon="11.976961"><ele>394.0</ele><time>2026-05-01T17:52:11.047Z</time></trkpt><trkpt lat="43.4363712" lon="11.9769537"><ele>399.5</ele><time>2026-05-01T17:52:12.047Z</time></trkpt><trkpt lat="43.4360872" lon="11.9769666"><ele>405.0</ele><time>2026-05-01T17:52:13.048Z</time></trkpt><trkpt lat="43.4358124" lon="11.9769921"><ele>405.0</ele><time>2026-05-01T17:52:14.047Z</time></trkpt><trkpt lat="43.4355301" lon="11.977022"><ele>405.0</ele><time>2026-05-01T17:52:15.047Z</time></trkpt><trkpt lat="43.4326269" lon="11.9773739"><ele>401.5</ele><time>2026-05-01T17:52:25.047Z</time></trkpt><trkpt lat="43.4323608" lon="11.9773925"><ele>398.0</ele><time>2026-05-01T17:52:26.047Z</time></trkpt><trkpt lat="43.4321084" lon="11.9773806"><ele>398.0</ele><time>2026-05-01T17:52:27.048Z</time></trkpt><trkpt lat="43.4318387" lon="11.9773893"><ele>398.0</ele><time>2026-05-01T17:52:28.047Z</time></trkpt><trkpt lat="43.431569" lon="11.9773966"><ele>398.0</ele><time>2026-05-01T17:52:29.048Z</time></trkpt><trkpt lat="43.4313054" lon="11.9773793"><ele>398.0</ele><time>2026-05-01T17:52:30.047Z</time></trkpt><trkpt lat="43.4310449" lon="11.97734"><ele>398.0</ele><time>2026-05-01T17:52:31.048Z</time></trkpt><trkpt lat="43.4307898" lon="11.9772862"><ele>398.0</ele><time>2026-05-01T17:52:32.048Z</time></trkpt><trkpt lat="43.4305329" lon="11.9772133"><ele>397.0</ele><time>2026-05-01T17:52:33.047Z</time></trkpt><trkpt lat="43.4302735" lon="11.9771276"><ele>396.0</ele><time>2026-05-01T17:52:34.047Z</time></trkpt><trkpt lat="43.4300161" lon="11.9770288"><ele>396.0</ele><time>2026-05-01T17:52:35.047Z</time></trkpt><trkpt lat="43.4297605" lon="11.9769156"><ele>396.0</ele><time>2026-05-01T17:52:36.047Z</time></trkpt><trkpt lat="43.4295038" lon="11.9767922"><ele>398.5</ele><time>2026-05-01T17:52:37.047Z</time></trkpt><trkpt lat="43.4292509" lon="11.9766574"><ele>401.0</ele><time>2026-05-01T17:52:38.048Z</time></trkpt><trkpt lat="43.4290049" lon="11.9765219"><ele>401.0</ele><time>2026-05-01T17:52:39.047Z</time></trkpt><trkpt lat="43.4287575" lon="11.9763904"><ele>401.0</ele><time>2026-05-01T17:52:40.047Z</time></trkpt><trkpt lat="43.428507" lon="11.9762579"><ele>401.0</ele><time>2026-05-01T17:52:41.047Z</time></trkpt><trkpt lat="43.428258" lon="11.9761253"><ele>401.0</ele><time>2026-05-01T17:52:42.047Z</time></trkpt><trkpt lat="43.4280055" lon="11.9759887"><ele>405.5</ele><time>2026-05-01T17:52:43.048Z</time></trkpt><trkpt lat="43.4277476" lon="11.9758522"><ele>410.0</ele><time>2026-05-01T17:52:44.048Z</time></trkpt><trkpt lat="43.4274919" lon="11.9757086"><ele>410.0</ele><time>2026-05-01T17:52:45.048Z</time></trkpt><trkpt lat="43.4272291" lon="11.9755675"><ele>410.0</ele><time>2026-05-01T17:52:46.047Z</time></trkpt><trkpt lat="43.4269726" lon="11.975423"><ele>407.0</ele><time>2026-05-01T17:52:47.047Z</time></trkpt><trkpt lat="43.4267162" lon="11.9752753"><ele>404.0</ele><time>2026-05-01T17:52:48.047Z</time></trkpt><trkpt lat="43.4264537" lon="11.975128"><ele>405.5</ele><time>2026-05-01T17:52:49.047Z</time></trkpt><trkpt lat="43.4261887" lon="11.9749896"><ele>407.0</ele><time>2026-05-01T17:52:50.047Z</time></trkpt><trkpt lat="43.4259307" lon="11.9748414"><ele>407.0</ele><time>2026-05-01T17:52:51.047Z</time></trkpt><trkpt lat="43.4256775" lon="11.9746802"><ele>407.0</ele><time>2026-05-01T17:52:52.048Z</time></trkpt><trkpt lat="43.425425" lon="11.9745192"><ele>405.5</ele><time>2026-05-01T17:52:53.048Z</time></trkpt><trkpt lat="43.42518" lon="11.9743433"><ele>404.0</ele><time>2026-05-01T17:52:54.047Z</time></trkpt><trkpt lat="43.4249443" lon="11.9741467"><ele>411.0</ele><time>2026-05-01T17:52:55.048Z</time></trkpt><trkpt lat="43.4247199" lon="11.9739203"><ele>418.0</ele><time>2026-05-01T17:52:56.048Z</time></trkpt><trkpt lat="43.4238362" lon="11.9728543"><ele>413.5</ele><time>2026-05-01T17:53:00.047Z</time></trkpt><trkpt lat="43.4236669" lon="11.9725162"><ele>409.0</ele><time>2026-05-01T17:53:01.047Z</time></trkpt><trkpt lat="43.4235959" lon="11.9721472"><ele>409.0</ele><time>2026-05-01T17:53:02.047Z</time></trkpt><trkpt lat="43.4235193" lon="11.9718244"><ele>409.0</ele><time>2026-05-01T17:53:03.047Z</time></trkpt><trkpt lat="43.4234154" lon="11.9714809"><ele>410.0</ele><time>2026-05-01T17:53:04.048Z</time></trkpt><trkpt lat="43.4233103" lon="11.9711358"><ele>411.0</ele><time>2026-05-01T17:53:05.047Z</time></trkpt><trkpt lat="43.4232337" lon="11.9707817"><ele>411.0</ele><time>2026-05-01T17:53:06.047Z</time></trkpt><trkpt lat="43.4231774" lon="11.9704185"><ele>411.0</ele><time>2026-05-01T17:53:07.048Z</time></trkpt><trkpt lat="43.4231281" lon="11.9700375"><ele>410.0</ele><time>2026-05-01T17:53:08.047Z</time></trkpt><trkpt lat="43.4231044" lon="11.9696565"><ele>409.0</ele><time>2026-05-01T17:53:09.047Z</time></trkpt><trkpt lat="43.4230952" lon="11.9692729"><ele>408.0</ele><time>2026-05-01T17:53:10.047Z</time></trkpt><trkpt lat="43.4231067" lon="11.9688841"><ele>407.0</ele><time>2026-05-01T17:53:11.048Z</time></trkpt><trkpt lat="43.423144" lon="11.968497"><ele>407.5</ele><time>2026-05-01T17:53:12.048Z</time></trkpt><trkpt lat="43.4231944" lon="11.9681261"><ele>408.0</ele><time>2026-05-01T17:53:13.047Z</time></trkpt><trkpt lat="43.4232539" lon="11.9677622"><ele>409.5</ele><time>2026-05-01T17:53:14.047Z</time></trkpt><trkpt lat="43.4233129" lon="11.9673874"><ele>411.0</ele><time>2026-05-01T17:53:15.047Z</time></trkpt><trkpt lat="43.4233722" lon="11.967009"><ele>414.0</ele><time>2026-05-01T17:53:16.047Z</time></trkpt><trkpt lat="43.4234331" lon="11.9666285"><ele>417.0</ele><time>2026-05-01T17:53:17.047Z</time></trkpt><trkpt lat="43.4234946" lon="11.9662502"><ele>423.0</ele><time>2026-05-01T17:53:18.048Z</time></trkpt><trkpt lat="43.424048" lon="11.9629517"><ele>423.0</ele><time>2026-05-01T17:53:27.047Z</time></trkpt><trkpt lat="43.4241048" lon="11.9625731"><ele>423.0</ele><time>2026-05-01T17:53:28.047Z</time></trkpt><trkpt lat="43.424166" lon="11.962207"><ele>423.0</ele><time>2026-05-01T17:53:29.047Z</time></trkpt><trkpt lat="43.4242231" lon="11.9618372"><ele>423.0</ele><time>2026-05-01T17:53:30.047Z</time></trkpt><trkpt lat="43.4242853" lon="11.9614593"><ele>423.5</ele><time>2026-05-01T17:53:31.047Z</time></trkpt><trkpt lat="43.4243395" lon="11.9610849"><ele>424.0</ele><time>2026-05-01T17:53:32.047Z</time></trkpt><trkpt lat="43.4243962" lon="11.9607182"><ele>424.0</ele><time>2026-05-01T17:53:33.047Z</time></trkpt><trkpt lat="43.4244529" lon="11.9603533"><ele>424.0</ele><time>2026-05-01T17:53:34.047Z</time></trkpt><trkpt lat="43.4245096" lon="11.9599922"><ele>423.0</ele><time>2026-05-01T17:53:35.047Z</time></trkpt><trkpt lat="43.4245704" lon="11.9596215"><ele>422.0</ele><time>2026-05-01T17:53:36.047Z</time></trkpt><trkpt lat="43.4246292" lon="11.9592557"><ele>431.0</ele><time>2026-05-01T17:53:37.047Z</time></trkpt><trkpt lat="43.4246909" lon="11.9588878"><ele>440.0</ele><time>2026-05-01T17:53:38.047Z</time></trkpt><trkpt lat="43.4247477" lon="11.9585295"><ele>440.5</ele><time>2026-05-01T17:53:39.047Z</time></trkpt><trkpt lat="43.4248089" lon="11.9581653"><ele>441.0</ele><time>2026-05-01T17:53:40.047Z</time></trkpt><trkpt lat="43.424865" lon="11.9578101"><ele>441.0</ele><time>2026-05-01T17:53:41.047Z</time></trkpt><trkpt lat="43.424923" lon="11.9574797"><ele>441.0</ele><time>2026-05-01T17:53:42.047Z</time></trkpt><trkpt lat="43.4249764" lon="11.9571682"><ele>441.0</ele><time>2026-05-01T17:53:43.048Z</time></trkpt><trkpt lat="43.425024" lon="11.9568534"><ele>441.0</ele><time>2026-05-01T17:53:44.047Z</time></trkpt><trkpt lat="43.4250712" lon="11.956541"><ele>439.66666666666663</ele><time>2026-05-01T17:53:45.048Z</time></trkpt><trkpt lat="43.4251176" lon="11.9562386"><ele>438.3333333333333</ele><time>2026-05-01T17:53:46.047Z</time></trkpt><trkpt lat="43.4251635" lon="11.9559544"><ele>437.0</ele><time>2026-05-01T17:53:47.047Z</time></trkpt><trkpt lat="43.4252077" lon="11.9556742"><ele>437.0</ele><time>2026-05-01T17:53:48.047Z</time></trkpt><trkpt lat="43.4252538" lon="11.9553905"><ele>437.0</ele><time>2026-05-01T17:53:49.047Z</time></trkpt><trkpt lat="43.4253001" lon="11.9551111"><ele>437.0</ele><time>2026-05-01T17:53:50.047Z</time></trkpt><trkpt lat="43.4253425" lon="11.9548331"><ele>437.0</ele><time>2026-05-01T17:53:51.048Z</time></trkpt><trkpt lat="43.4253861" lon="11.9545486"><ele>437.0</ele><time>2026-05-01T17:53:52.047Z</time></trkpt><trkpt lat="43.4254336" lon="11.9542713"><ele>437.0</ele><time>2026-05-01T17:53:53.047Z</time></trkpt><trkpt lat="43.4254794" lon="11.9539998"><ele>437.66666666666663</ele><time>2026-05-01T17:53:54.047Z</time></trkpt><trkpt lat="43.4255163" lon="11.9537482"><ele>438.33333333333337</ele><time>2026-05-01T17:53:55.048Z</time></trkpt><trkpt lat="43.4255532" lon="11.9535287"><ele>439.0</ele><time>2026-05-01T17:53:56.047Z</time></trkpt><trkpt lat="43.4255852" lon="11.9533288"><ele>439.0</ele><time>2026-05-01T17:53:57.048Z</time></trkpt><trkpt lat="43.4256125" lon="11.9531408"><ele>439.0</ele><time>2026-05-01T17:53:58.048Z</time></trkpt><trkpt lat="43.4256385" lon="11.9529566"><ele>439.0</ele><time>2026-05-01T17:53:59.047Z</time></trkpt><trkpt lat="43.4256676" lon="11.9527773"><ele>439.0</ele><time>2026-05-01T17:54:00.047Z</time></trkpt><trkpt lat="43.4257021" lon="11.9526103"><ele>439.1666666666667</ele><time>2026-05-01T17:54:01.047Z</time></trkpt><trkpt lat="43.4257435" lon="11.9524764"><ele>439.33333333333337</ele><time>2026-05-01T17:54:02.047Z</time></trkpt><trkpt lat="43.4257863" lon="11.9523689"><ele>439.5</ele><time>2026-05-01T17:54:03.047Z</time></trkpt><trkpt lat="43.4258299" lon="11.9522706"><ele>439.66666666666663</ele><time>2026-05-01T17:54:04.047Z</time></trkpt><trkpt lat="43.425866" lon="11.9521837"><ele>439.8333333333333</ele><time>2026-05-01T17:54:05.048Z</time></trkpt><trkpt lat="43.4258953" lon="11.9520856"><ele>440.0</ele><time>2026-05-01T17:54:06.047Z</time></trkpt><trkpt lat="43.425917" lon="11.9519621"><ele>440.0</ele><time>2026-05-01T17:54:07.047Z</time></trkpt><trkpt lat="43.4259334" lon="11.9518183"><ele>440.0</ele><time>2026-05-01T17:54:08.047Z</time></trkpt><trkpt lat="43.4259468" lon="11.9516691"><ele>440.0</ele><time>2026-05-01T17:54:09.048Z</time></trkpt><trkpt lat="43.4259592" lon="11.951498"><ele>440.0</ele><time>2026-05-01T17:54:10.048Z</time></trkpt><trkpt lat="43.4259817" lon="11.9513267"><ele>442.0</ele><time>2026-05-01T17:54:11.047Z</time></trkpt><trkpt lat="43.4260146" lon="11.9511396"><ele>444.0</ele><time>2026-05-01T17:54:12.048Z</time></trkpt><trkpt lat="43.4260608" lon="11.9509589"><ele>446.0</ele><time>2026-05-01T17:54:13.047Z</time></trkpt><trkpt lat="43.4261109" lon="11.9507757"><ele>448.0</ele><time>2026-05-01T17:54:14.047Z</time></trkpt><trkpt lat="43.4261749" lon="11.9505793"><ele>449.6666666666667</ele><time>2026-05-01T17:54:15.047Z</time></trkpt><trkpt lat="43.4262458" lon="11.950373"><ele>451.33333333333337</ele><time>2026-05-01T17:54:16.047Z</time></trkpt><trkpt lat="43.4263147" lon="11.950161"><ele>453.0</ele><time>2026-05-01T17:54:17.048Z</time></trkpt><trkpt lat="43.4263898" lon="11.9499381"><ele>453.66666666666663</ele><time>2026-05-01T17:54:18.047Z</time></trkpt><trkpt lat="43.4264613" lon="11.9497145"><ele>454.3333333333333</ele><time>2026-05-01T17:54:19.047Z</time></trkpt><trkpt lat="43.4265315" lon="11.9494864"><ele>455.0</ele><time>2026-05-01T17:54:20.047Z</time></trkpt><trkpt lat="43.4266001" lon="11.9492568"><ele>453.0</ele><time>2026-05-01T17:54:21.048Z</time></trkpt><trkpt lat="43.4266685" lon="11.9490174"><ele>451.0</ele><time>2026-05-01T17:54:22.047Z</time></trkpt><trkpt lat="43.4267409" lon="11.9487813"><ele>449.0</ele><time>2026-05-01T17:54:23.048Z</time></trkpt><trkpt lat="43.4268081" lon="11.9485429"><ele>449.66666666666663</ele><time>2026-05-01T17:54:24.047Z</time></trkpt><trkpt lat="43.4268813" lon="11.9483012"><ele>450.33333333333337</ele><time>2026-05-01T17:54:25.047Z</time></trkpt><trkpt lat="43.426955" lon="11.9480617"><ele>451.0</ele><time>2026-05-01T17:54:26.047Z</time></trkpt><trkpt lat="43.427027" lon="11.9478112"><ele>451.0</ele><time>2026-05-01T17:54:27.047Z</time></trkpt><trkpt lat="43.427104" lon="11.9475635"><ele>451.0</ele><time>2026-05-01T17:54:28.047Z</time></trkpt><trkpt lat="43.4271857" lon="11.9473135"><ele>451.0</ele><time>2026-05-01T17:54:29.047Z</time></trkpt><trkpt lat="43.4272672" lon="11.9470625"><ele>455.6666666666667</ele><time>2026-05-01T17:54:30.047Z</time></trkpt><trkpt lat="43.4273402" lon="11.9468118"><ele>460.33333333333337</ele><time>2026-05-01T17:54:31.047Z</time></trkpt><trkpt lat="43.4274076" lon="11.9465634"><ele>465.0</ele><time>2026-05-01T17:54:32.048Z</time></trkpt><trkpt lat="43.4274607" lon="11.9463125"><ele>465.0</ele><time>2026-05-01T17:54:33.047Z</time></trkpt><trkpt lat="43.42751" lon="11.9460612"><ele>465.0</ele><time>2026-05-01T17:54:34.047Z</time></trkpt><trkpt lat="43.4275444" lon="11.9458054"><ele>465.0</ele><time>2026-05-01T17:54:35.047Z</time></trkpt><trkpt lat="43.427562" lon="11.9455608"><ele>464.0</ele><time>2026-05-01T17:54:36.048Z</time></trkpt><trkpt lat="43.4275706" lon="11.9453142"><ele>463.0</ele><time>2026-05-01T17:54:37.048Z</time></trkpt><trkpt lat="43.4275719" lon="11.9450688"><ele>462.0</ele><time>2026-05-01T17:54:38.047Z</time></trkpt><trkpt lat="43.4275705" lon="11.9448183"><ele>461.0</ele><time>2026-05-01T17:54:39.047Z</time></trkpt><trkpt lat="43.4275573" lon="11.9445621"><ele>460.0</ele><time>2026-05-01T17:54:40.048Z</time></trkpt><trkpt lat="43.4275335" lon="11.9443118"><ele>459.0</ele><time>2026-05-01T17:54:41.047Z</time></trkpt><trkpt lat="43.4274975" lon="11.9440639"><ele>459.0</ele><time>2026-05-01T17:54:42.047Z</time></trkpt><trkpt lat="43.427452" lon="11.9438152"><ele>459.0</ele><time>2026-05-01T17:54:43.047Z</time></trkpt><trkpt lat="43.4274064" lon="11.943571"><ele>459.0</ele><time>2026-05-01T17:54:44.047Z</time></trkpt><trkpt lat="43.4273489" lon="11.9433315"><ele>460.66666666666663</ele><time>2026-05-01T17:54:45.048Z</time></trkpt><trkpt lat="43.4272766" lon="11.9430915"><ele>462.3333333333333</ele><time>2026-05-01T17:54:46.048Z</time></trkpt><trkpt lat="43.4271995" lon="11.9428558"><ele>464.0</ele><time>2026-05-01T17:54:47.047Z</time></trkpt><trkpt lat="43.4271123" lon="11.9426247"><ele>463.3333333333333</ele><time>2026-05-01T17:54:48.047Z</time></trkpt><trkpt lat="43.4270194" lon="11.9423965"><ele>462.66666666666663</ele><time>2026-05-01T17:54:49.048Z</time></trkpt><trkpt lat="43.4269218" lon="11.9421768"><ele>462.0</ele><time>2026-05-01T17:54:50.047Z</time></trkpt><trkpt lat="43.4268135" lon="11.9419681"><ele>462.0</ele><time>2026-05-01T17:54:51.048Z</time></trkpt><trkpt lat="43.4266917" lon="11.9417694"><ele>462.0</ele><time>2026-05-01T17:54:52.047Z</time></trkpt><trkpt lat="43.426558" lon="11.9415823"><ele>462.0</ele><time>2026-05-01T17:54:53.047Z</time></trkpt><trkpt lat="43.426418" lon="11.9413999"><ele>460.66666666666663</ele><time>2026-05-01T17:54:54.047Z</time></trkpt><trkpt lat="43.4262725" lon="11.9412267"><ele>459.3333333333333</ele><time>2026-05-01T17:54:55.047Z</time></trkpt><trkpt lat="43.4261236" lon="11.9410653"><ele>458.0</ele><time>2026-05-01T17:54:56.048Z</time></trkpt><trkpt lat="43.4259725" lon="11.9409115"><ele>461.66666666666663</ele><time>2026-05-01T17:54:57.048Z</time></trkpt><trkpt lat="43.4258099" lon="11.9407695"><ele>465.33333333333337</ele><time>2026-05-01T17:54:58.047Z</time></trkpt><trkpt lat="43.4256506" lon="11.9406484"><ele>469.0</ele><time>2026-05-01T17:54:59.047Z</time></trkpt><trkpt lat="43.4254833" lon="11.9405354"><ele>466.6666666666667</ele><time>2026-05-01T17:55:00.047Z</time></trkpt><trkpt lat="43.4253119" lon="11.9404304"><ele>464.33333333333337</ele><time>2026-05-01T17:55:01.048Z</time></trkpt><trkpt lat="43.4251358" lon="11.9403402"><ele>462.0</ele><time>2026-05-01T17:55:02.048Z</time></trkpt><trkpt lat="43.4249533" lon="11.9402628"><ele>462.0</ele><time>2026-05-01T17:55:03.047Z</time></trkpt><trkpt lat="43.4247783" lon="11.9401841"><ele>462.0</ele><time>2026-05-01T17:55:04.048Z</time></trkpt><trkpt lat="43.4246029" lon="11.9401067"><ele>462.0</ele><time>2026-05-01T17:55:05.047Z</time></trkpt><trkpt lat="43.424427" lon="11.9400303"><ele>467.33333333333337</ele><time>2026-05-01T17:55:06.047Z</time></trkpt><trkpt lat="43.4242486" lon="11.9399473"><ele>472.6666666666667</ele><time>2026-05-01T17:55:07.047Z</time></trkpt><trkpt lat="43.4240689" lon="11.939871"><ele>478.0</ele><time>2026-05-01T17:55:08.047Z</time></trkpt><trkpt lat="43.423887" lon="11.9398036"><ele>477.0</ele><time>2026-05-01T17:55:09.047Z</time></trkpt><trkpt lat="43.4237111" lon="11.939728"><ele>476.0</ele><time>2026-05-01T17:55:10.047Z</time></trkpt><trkpt lat="43.4235377" lon="11.9396566"><ele>475.0</ele><time>2026-05-01T17:55:11.048Z</time></trkpt><trkpt lat="43.42337" lon="11.9395855"><ele>475.0</ele><time>2026-05-01T17:55:12.047Z</time></trkpt><trkpt lat="43.4232097" lon="11.9395239"><ele>475.0</ele><time>2026-05-01T17:55:13.047Z</time></trkpt><trkpt lat="43.4230489" lon="11.9394592"><ele>475.0</ele><time>2026-05-01T17:55:14.047Z</time></trkpt><trkpt lat="43.4228928" lon="11.939399"><ele>474.33333333333337</ele><time>2026-05-01T17:55:15.047Z</time></trkpt><trkpt lat="43.4227329" lon="11.9393317"><ele>473.66666666666663</ele><time>2026-05-01T17:55:16.047Z</time></trkpt><trkpt lat="43.4225728" lon="11.9392721"><ele>473.0</ele><time>2026-05-01T17:55:17.047Z</time></trkpt><trkpt lat="43.4224096" lon="11.9392087"><ele>477.66666666666663</ele><time>2026-05-01T17:55:18.047Z</time></trkpt><trkpt lat="43.422246" lon="11.9391385"><ele>482.33333333333337</ele><time>2026-05-01T17:55:19.047Z</time></trkpt><trkpt lat="43.4220835" lon="11.9390594"><ele>487.0</ele><time>2026-05-01T17:55:20.047Z</time></trkpt><trkpt lat="43.4219204" lon="11.9389818"><ele>487.0</ele><time>2026-05-01T17:55:21.047Z</time></trkpt><trkpt lat="43.4217452" lon="11.9389038"><ele>487.0</ele><time>2026-05-01T17:55:22.047Z</time></trkpt><trkpt lat="43.4215722" lon="11.9388295"><ele>487.0</ele><time>2026-05-01T17:55:23.047Z</time></trkpt><trkpt lat="43.421402" lon="11.9387511"><ele>483.6666666666667</ele><time>2026-05-01T17:55:24.048Z</time></trkpt><trkpt lat="43.4212275" lon="11.9386746"><ele>480.33333333333337</ele><time>2026-05-01T17:55:25.047Z</time></trkpt><trkpt lat="43.421056" lon="11.9385975"><ele>477.0</ele><time>2026-05-01T17:55:26.047Z</time></trkpt><trkpt lat="43.420886" lon="11.9385223"><ele>477.0</ele><time>2026-05-01T17:55:27.048Z</time></trkpt><trkpt lat="43.4207152" lon="11.9384532"><ele>477.0</ele><time>2026-05-01T17:55:28.047Z</time></trkpt><trkpt lat="43.4205453" lon="11.9383719"><ele>477.0</ele><time>2026-05-01T17:55:29.047Z</time></trkpt><trkpt lat="43.4203752" lon="11.9382841"><ele>480.66666666666663</ele><time>2026-05-01T17:55:30.047Z</time></trkpt><trkpt lat="43.4202084" lon="11.9381813"><ele>484.3333333333333</ele><time>2026-05-01T17:55:31.047Z</time></trkpt><trkpt lat="43.4200395" lon="11.9380794"><ele>488.0</ele><time>2026-05-01T17:55:32.047Z</time></trkpt><trkpt lat="43.4198729" lon="11.9379635"><ele>488.0</ele><time>2026-05-01T17:55:33.047Z</time></trkpt><trkpt lat="43.4197125" lon="11.9378425"><ele>488.0</ele><time>2026-05-01T17:55:34.047Z</time></trkpt><trkpt lat="43.4195506" lon="11.9377181"><ele>488.0</ele><time>2026-05-01T17:55:35.048Z</time></trkpt><trkpt lat="43.4193863" lon="11.9375764"><ele>492.3333333333333</ele><time>2026-05-01T17:55:36.047Z</time></trkpt><trkpt lat="43.419227" lon="11.9374316"><ele>496.66666666666663</ele><time>2026-05-01T17:55:37.047Z</time></trkpt><trkpt lat="43.4190713" lon="11.937278"><ele>501.0</ele><time>2026-05-01T17:55:38.047Z</time></trkpt><trkpt lat="43.418921" lon="11.9371167"><ele>498.33333333333337</ele><time>2026-05-01T17:55:39.047Z</time></trkpt><trkpt lat="43.4187748" lon="11.9369416"><ele>495.6666666666667</ele><time>2026-05-01T17:55:40.047Z</time></trkpt><trkpt lat="43.4186323" lon="11.9367616"><ele>493.0</ele><time>2026-05-01T17:55:41.048Z</time></trkpt><trkpt lat="43.4184967" lon="11.9365777"><ele>493.0</ele><time>2026-05-01T17:55:42.047Z</time></trkpt><trkpt lat="43.4183634" lon="11.9363969"><ele>493.0</ele><time>2026-05-01T17:55:43.048Z</time></trkpt><trkpt lat="43.4182384" lon="11.936218"><ele>493.0</ele><time>2026-05-01T17:55:44.047Z</time></trkpt><trkpt lat="43.4181081" lon="11.9360517"><ele>492.6666666666667</ele><time>2026-05-01T17:55:45.047Z</time></trkpt><trkpt lat="43.4179778" lon="11.9358771"><ele>492.33333333333337</ele><time>2026-05-01T17:55:46.048Z</time></trkpt><trkpt lat="43.4178479" lon="11.9357"><ele>492.0</ele><time>2026-05-01T17:55:47.047Z</time></trkpt><trkpt lat="43.4177186" lon="11.9355183"><ele>492.0</ele><time>2026-05-01T17:55:48.047Z</time></trkpt><trkpt lat="43.4175883" lon="11.9353348"><ele>492.0</ele><time>2026-05-01T17:55:49.047Z</time></trkpt><trkpt lat="43.417455" lon="11.9351459"><ele>492.0</ele><time>2026-05-01T17:55:50.047Z</time></trkpt><trkpt lat="43.4173252" lon="11.9349587"><ele>491.66666666666663</ele><time>2026-05-01T17:55:51.047Z</time></trkpt><trkpt lat="43.4171958" lon="11.9347569"><ele>491.3333333333333</ele><time>2026-05-01T17:55:52.047Z</time></trkpt><trkpt lat="43.4170706" lon="11.9345484"><ele>491.0</ele><time>2026-05-01T17:55:53.047Z</time></trkpt><trkpt lat="43.4169504" lon="11.9343195"><ele>494.0</ele><time>2026-05-01T17:55:54.047Z</time></trkpt><trkpt lat="43.4168496" lon="11.9340857"><ele>497.0</ele><time>2026-05-01T17:55:55.048Z</time></trkpt><trkpt lat="43.416769" lon="11.9338411"><ele>500.0</ele><time>2026-05-01T17:55:56.048Z</time></trkpt><trkpt lat="43.4166908" lon="11.9335929"><ele>503.3333333333333</ele><time>2026-05-01T17:55:57.047Z</time></trkpt><trkpt lat="43.4166248" lon="11.933347"><ele>506.66666666666663</ele><time>2026-05-01T17:55:58.047Z</time></trkpt><trkpt lat="43.4165846" lon="11.9331077"><ele>510.0</ele><time>2026-05-01T17:55:59.047Z</time></trkpt><trkpt lat="43.4165528" lon="11.9328576"><ele>510.0</ele><time>2026-05-01T17:56:00.047Z</time></trkpt><trkpt lat="43.4165296" lon="11.9326016"><ele>510.0</ele><time>2026-05-01T17:56:01.047Z</time></trkpt><trkpt lat="43.4165243" lon="11.9323535"><ele>510.0</ele><time>2026-05-01T17:56:02.047Z</time></trkpt><trkpt lat="43.4165331" lon="11.9321092"><ele>509.33333333333337</ele><time>2026-05-01T17:56:03.047Z</time></trkpt><trkpt lat="43.4165522" lon="11.931863"><ele>508.6666666666667</ele><time>2026-05-01T17:56:04.047Z</time></trkpt><trkpt lat="43.4165787" lon="11.9316186"><ele>508.0</ele><time>2026-05-01T17:56:05.048Z</time></trkpt><trkpt lat="43.4166209" lon="11.9313776"><ele>508.0</ele><time>2026-05-01T17:56:06.047Z</time></trkpt><trkpt lat="43.4166691" lon="11.9311392"><ele>508.0</ele><time>2026-05-01T17:56:07.047Z</time></trkpt><trkpt lat="43.4167165" lon="11.9309002"><ele>508.0</ele><time>2026-05-01T17:56:08.047Z</time></trkpt><trkpt lat="43.4167592" lon="11.930665"><ele>507.6666666666667</ele><time>2026-05-01T17:56:09.048Z</time></trkpt><trkpt lat="43.4167966" lon="11.9304359"><ele>507.33333333333337</ele><time>2026-05-01T17:56:10.047Z</time></trkpt><trkpt lat="43.4168336" lon="11.9302142"><ele>507.0</ele><time>2026-05-01T17:56:11.047Z</time></trkpt><trkpt lat="43.4168728" lon="11.9299858"><ele>507.0</ele><time>2026-05-01T17:56:12.048Z</time></trkpt><trkpt lat="43.4169081" lon="11.9297552"><ele>507.0</ele><time>2026-05-01T17:56:13.047Z</time></trkpt><trkpt lat="43.4169435" lon="11.9295107"><ele>507.0</ele><time>2026-05-01T17:56:14.047Z</time></trkpt><trkpt lat="43.4169861" lon="11.9292706"><ele>506.0</ele><time>2026-05-01T17:56:15.048Z</time></trkpt><trkpt lat="43.4170315" lon="11.9290209"><ele>505.0</ele><time>2026-05-01T17:56:16.047Z</time></trkpt><trkpt lat="43.4170835" lon="11.9287655"><ele>504.0</ele><time>2026-05-01T17:56:17.047Z</time></trkpt><trkpt lat="43.4171278" lon="11.9285245"><ele>494.66666666666663</ele><time>2026-05-01T17:56:18.047Z</time></trkpt><trkpt lat="43.4171801" lon="11.9282844"><ele>485.3333333333333</ele><time>2026-05-01T17:56:19.047Z</time></trkpt><trkpt lat="43.4172372" lon="11.92805"><ele>476.0</ele><time>2026-05-01T17:56:20.048Z</time></trkpt><trkpt lat="43.417295" lon="11.9278099"><ele>476.0</ele><time>2026-05-01T17:56:21.047Z</time></trkpt><trkpt lat="43.417363" lon="11.9275706"><ele>476.0</ele><time>2026-05-01T17:56:22.047Z</time></trkpt><trkpt lat="43.4174387" lon="11.9273239"><ele>476.0</ele><time>2026-05-01T17:56:23.047Z</time></trkpt><trkpt lat="43.4175316" lon="11.9270859"><ele>477.3333333333333</ele><time>2026-05-01T17:56:24.047Z</time></trkpt><trkpt lat="43.4176339" lon="11.9268508"><ele>478.66666666666663</ele><time>2026-05-01T17:56:25.047Z</time></trkpt><trkpt lat="43.4177482" lon="11.9266137"><ele>480.0</ele><time>2026-05-01T17:56:26.047Z</time></trkpt><trkpt lat="43.4178705" lon="11.9263986"><ele>478.33333333333337</ele><time>2026-05-01T17:56:27.048Z</time></trkpt><trkpt lat="43.4179939" lon="11.9262039"><ele>476.6666666666667</ele><time>2026-05-01T17:56:28.047Z</time></trkpt><trkpt lat="43.4181282" lon="11.9260196"><ele>475.0</ele><time>2026-05-01T17:56:29.047Z</time></trkpt><trkpt lat="43.4182632" lon="11.9258417"><ele>475.0</ele><time>2026-05-01T17:56:30.047Z</time></trkpt><trkpt lat="43.4184095" lon="11.9256662"><ele>475.0</ele><time>2026-05-01T17:56:31.048Z</time></trkpt><trkpt lat="43.4185638" lon="11.9254948"><ele>475.0</ele><time>2026-05-01T17:56:32.047Z</time></trkpt><trkpt lat="43.4187265" lon="11.9253247"><ele>476.33333333333337</ele><time>2026-05-01T17:56:33.047Z</time></trkpt><trkpt lat="43.4188926" lon="11.9251669"><ele>477.66666666666663</ele><time>2026-05-01T17:56:34.048Z</time></trkpt><trkpt lat="43.4190489" lon="11.9250075"><ele>479.0</ele><time>2026-05-01T17:56:35.047Z</time></trkpt><trkpt lat="43.4192" lon="11.9248686"><ele>479.0</ele><time>2026-05-01T17:56:36.048Z</time></trkpt><trkpt lat="43.419361" lon="11.9247114"><ele>479.0</ele><time>2026-05-01T17:56:37.047Z</time></trkpt><trkpt lat="43.4195303" lon="11.9245414"><ele>479.0</ele><time>2026-05-01T17:56:38.048Z</time></trkpt><trkpt lat="43.4197085" lon="11.9243486"><ele>467.0</ele><time>2026-05-01T17:56:39.047Z</time></trkpt><trkpt lat="43.4198971" lon="11.9241458"><ele>455.0</ele><time>2026-05-01T17:56:40.047Z</time></trkpt><trkpt lat="43.4200923" lon="11.9239496"><ele>455.0</ele><time>2026-05-01T17:56:41.048Z</time></trkpt><trkpt lat="43.4202915" lon="11.9237545"><ele>455.0</ele><time>2026-05-01T17:56:42.047Z</time></trkpt><trkpt lat="43.4204882" lon="11.9235707"><ele>451.5</ele><time>2026-05-01T17:56:43.047Z</time></trkpt><trkpt lat="43.4206772" lon="11.9233865"><ele>448.0</ele><time>2026-05-01T17:56:44.047Z</time></trkpt><trkpt lat="43.4208605" lon="11.9232112"><ele>448.0</ele><time>2026-05-01T17:56:45.048Z</time></trkpt><trkpt lat="43.4210355" lon="11.923039"><ele>448.0</ele><time>2026-05-01T17:56:46.047Z</time></trkpt><trkpt lat="43.4212139" lon="11.9228746"><ele>448.0</ele><time>2026-05-01T17:56:47.047Z</time></trkpt><trkpt lat="43.4213922" lon="11.9227125"><ele>451.6666666666667</ele><time>2026-05-01T17:56:48.047Z</time></trkpt><trkpt lat="43.4215716" lon="11.9225576"><ele>455.33333333333337</ele><time>2026-05-01T17:56:49.048Z</time></trkpt><trkpt lat="43.4217502" lon="11.9223993"><ele>459.0</ele><time>2026-05-01T17:56:50.048Z</time></trkpt><trkpt lat="43.421928" lon="11.9222441"><ele>459.0</ele><time>2026-05-01T17:56:51.047Z</time></trkpt><trkpt lat="43.4220998" lon="11.9221022"><ele>459.0</ele><time>2026-05-01T17:56:52.047Z</time></trkpt><trkpt lat="43.4222739" lon="11.921968"><ele>459.0</ele><time>2026-05-01T17:56:53.047Z</time></trkpt><trkpt lat="43.4224498" lon="11.9218453"><ele>456.33333333333337</ele><time>2026-05-01T17:56:54.047Z</time></trkpt><trkpt lat="43.4226233" lon="11.9217201"><ele>453.6666666666667</ele><time>2026-05-01T17:56:55.048Z</time></trkpt><trkpt lat="43.4227917" lon="11.9216058"><ele>451.0</ele><time>2026-05-01T17:56:56.047Z</time></trkpt><trkpt lat="43.4229613" lon="11.9214959"><ele>447.0</ele><time>2026-05-01T17:56:57.048Z</time></trkpt><trkpt lat="43.4231317" lon="11.9213601"><ele>443.0</ele><time>2026-05-01T17:56:58.047Z</time></trkpt><trkpt lat="43.4233143" lon="11.9212147"><ele>439.0</ele><time>2026-05-01T17:56:59.047Z</time></trkpt><trkpt lat="43.4235238" lon="11.9210662"><ele>439.0</ele><time>2026-05-01T17:57:00.047Z</time></trkpt><trkpt lat="43.4237433" lon="11.9209"><ele>439.0</ele><time>2026-05-01T17:57:01.047Z</time></trkpt><trkpt lat="43.4239662" lon="11.9207257"><ele>435.0</ele><time>2026-05-01T17:57:02.047Z</time></trkpt><trkpt lat="43.4241896" lon="11.9205617"><ele>431.0</ele><time>2026-05-01T17:57:03.047Z</time></trkpt><trkpt lat="43.4244284" lon="11.920401"><ele>431.0</ele><time>2026-05-01T17:57:04.047Z</time></trkpt><trkpt lat="43.424666" lon="11.9202342"><ele>431.0</ele><time>2026-05-01T17:57:05.047Z</time></trkpt><trkpt lat="43.4249027" lon="11.9200646"><ele>434.0</ele><time>2026-05-01T17:57:06.047Z</time></trkpt><trkpt lat="43.4251465" lon="11.919882"><ele>437.0</ele><time>2026-05-01T17:57:07.047Z</time></trkpt><trkpt lat="43.4254066" lon="11.9196939"><ele>431.5</ele><time>2026-05-01T17:57:08.048Z</time></trkpt><trkpt lat="43.4256771" lon="11.9195171"><ele>426.0</ele><time>2026-05-01T17:57:09.047Z</time></trkpt><trkpt lat="43.4259469" lon="11.9193579"><ele>423.0</ele><time>2026-05-01T17:57:10.047Z</time></trkpt><trkpt lat="43.4262181" lon="11.9192123"><ele>420.0</ele><time>2026-05-01T17:57:11.048Z</time></trkpt><trkpt lat="43.4265021" lon="11.9190851"><ele>420.0</ele><time>2026-05-01T17:57:12.047Z</time></trkpt><trkpt lat="43.4267914" lon="11.9189671"><ele>420.0</ele><time>2026-05-01T17:57:13.047Z</time></trkpt><trkpt lat="43.4270806" lon="11.9188674"><ele>412.5</ele><time>2026-05-01T17:57:14.048Z</time></trkpt><trkpt lat="43.4273704" lon="11.918772"><ele>405.0</ele><time>2026-05-01T17:57:15.047Z</time></trkpt><trkpt lat="43.4276667" lon="11.9186779"><ele>405.0</ele><time>2026-05-01T17:57:16.047Z</time></trkpt><trkpt lat="43.4279518" lon="11.9185869"><ele>405.0</ele><time>2026-05-01T17:57:17.048Z</time></trkpt><trkpt lat="43.4282198" lon="11.9184997"><ele>402.5</ele><time>2026-05-01T17:57:18.047Z</time></trkpt><trkpt lat="43.4284805" lon="11.9184088"><ele>400.0</ele><time>2026-05-01T17:57:19.048Z</time></trkpt><trkpt lat="43.4287271" lon="11.9183196"><ele>404.0</ele><time>2026-05-01T17:57:20.047Z</time></trkpt><trkpt lat="43.4289716" lon="11.9182283"><ele>408.0</ele><time>2026-05-01T17:57:21.048Z</time></trkpt><trkpt lat="43.4292075" lon="11.9181357"><ele>408.0</ele><time>2026-05-01T17:57:22.047Z</time></trkpt><trkpt lat="43.4294257" lon="11.91802"><ele>408.0</ele><time>2026-05-01T17:57:23.047Z</time></trkpt><trkpt lat="43.4296074" lon="11.9178905"><ele>408.0</ele><time>2026-05-01T17:57:24.047Z</time></trkpt><trkpt lat="43.4297789" lon="11.9177644"><ele>409.0</ele><time>2026-05-01T17:57:25.047Z</time></trkpt><trkpt lat="43.4299404" lon="11.9176236"><ele>410.0</ele><time>2026-05-01T17:57:26.047Z</time></trkpt><trkpt lat="43.4300902" lon="11.9174704"><ele>411.0</ele><time>2026-05-01T17:57:27.047Z</time></trkpt><trkpt lat="43.4302367" lon="11.9173116"><ele>411.0</ele><time>2026-05-01T17:57:28.048Z</time></trkpt><trkpt lat="43.4303721" lon="11.9171474"><ele>411.0</ele><time>2026-05-01T17:57:29.047Z</time></trkpt><trkpt lat="43.4304996" lon="11.9169881"><ele>411.0</ele><time>2026-05-01T17:57:30.048Z</time></trkpt><trkpt lat="43.4306188" lon="11.9168224"><ele>408.33333333333337</ele><time>2026-05-01T17:57:31.047Z</time></trkpt><trkpt lat="43.430732" lon="11.9166495"><ele>405.6666666666667</ele><time>2026-05-01T17:57:32.047Z</time></trkpt><trkpt lat="43.4308332" lon="11.9164619"><ele>403.0</ele><time>2026-05-01T17:57:33.047Z</time></trkpt><trkpt lat="43.4309226" lon="11.9162658"><ele>403.0</ele><time>2026-05-01T17:57:34.047Z</time></trkpt><trkpt lat="43.4310117" lon="11.9160768"><ele>403.0</ele><time>2026-05-01T17:57:35.047Z</time></trkpt><trkpt lat="43.4310977" lon="11.9158782"><ele>403.0</ele><time>2026-05-01T17:57:36.047Z</time></trkpt><trkpt lat="43.4311813" lon="11.9156716"><ele>402.33333333333337</ele><time>2026-05-01T17:57:37.047Z</time></trkpt><trkpt lat="43.4312572" lon="11.9154587"><ele>401.66666666666663</ele><time>2026-05-01T17:57:38.047Z</time></trkpt><trkpt lat="43.4313325" lon="11.9152463"><ele>401.0</ele><time>2026-05-01T17:57:39.047Z</time></trkpt><trkpt lat="43.4313965" lon="11.9150324"><ele>401.0</ele><time>2026-05-01T17:57:40.047Z</time></trkpt><trkpt lat="43.4314531" lon="11.9148094"><ele>401.0</ele><time>2026-05-01T17:57:41.047Z</time></trkpt><trkpt lat="43.4315132" lon="11.9145934"><ele>401.0</ele><time>2026-05-01T17:57:42.048Z</time></trkpt><trkpt lat="43.4315761" lon="11.9143734"><ele>403.3333333333333</ele><time>2026-05-01T17:57:43.048Z</time></trkpt><trkpt lat="43.4316368" lon="11.9141494"><ele>405.66666666666663</ele><time>2026-05-01T17:57:44.048Z</time></trkpt><trkpt lat="43.4316969" lon="11.9139239"><ele>408.0</ele><time>2026-05-01T17:57:45.047Z</time></trkpt><trkpt lat="43.4317636" lon="11.913703"><ele>408.0</ele><time>2026-05-01T17:57:46.048Z</time></trkpt><trkpt lat="43.4318188" lon="11.9134845"><ele>408.0</ele><time>2026-05-01T17:57:47.047Z</time></trkpt><trkpt lat="43.4318662" lon="11.9132551"><ele>408.0</ele><time>2026-05-01T17:57:48.047Z</time></trkpt><trkpt lat="43.4323377" lon="11.9122201"><ele>404.0</ele><time>2026-05-01T17:57:53.047Z</time></trkpt><trkpt lat="43.4324636" lon="11.9120138"><ele>400.0</ele><time>2026-05-01T17:57:54.047Z</time></trkpt><trkpt lat="43.4326066" lon="11.9117833"><ele>396.0</ele><time>2026-05-01T17:57:55.047Z</time></trkpt><trkpt lat="43.4327432" lon="11.911573"><ele>396.0</ele><time>2026-05-01T17:57:56.047Z</time></trkpt><trkpt lat="43.4328693" lon="11.9113912"><ele>396.0</ele><time>2026-05-01T17:57:57.047Z</time></trkpt><trkpt lat="43.4330026" lon="11.9112239"><ele>396.0</ele><time>2026-05-01T17:57:58.047Z</time></trkpt><trkpt lat="43.433141" lon="11.9110636"><ele>394.0</ele><time>2026-05-01T17:57:59.048Z</time></trkpt><trkpt lat="43.4332794" lon="11.9109087"><ele>392.0</ele><time>2026-05-01T17:58:00.047Z</time></trkpt><trkpt lat="43.433434" lon="11.9107653"><ele>390.0</ele><time>2026-05-01T17:58:01.047Z</time></trkpt><trkpt lat="43.4335938" lon="11.9106246"><ele>390.0</ele><time>2026-05-01T17:58:02.047Z</time></trkpt><trkpt lat="43.4337472" lon="11.9104938"><ele>390.0</ele><time>2026-05-01T17:58:03.047Z</time></trkpt><trkpt lat="43.4338921" lon="11.9103692"><ele>390.0</ele><time>2026-05-01T17:58:04.047Z</time></trkpt><trkpt lat="43.43405" lon="11.9102403"><ele>386.6666666666667</ele><time>2026-05-01T17:58:05.047Z</time></trkpt><trkpt lat="43.4342068" lon="11.9101084"><ele>383.33333333333337</ele><time>2026-05-01T17:58:06.048Z</time></trkpt><trkpt lat="43.434363" lon="11.9099786"><ele>380.0</ele><time>2026-05-01T17:58:07.048Z</time></trkpt><trkpt lat="43.4345181" lon="11.9098482"><ele>375.6666666666667</ele><time>2026-05-01T17:58:08.047Z</time></trkpt><trkpt lat="43.4346733" lon="11.9097256"><ele>371.3333333333333</ele><time>2026-05-01T17:58:09.047Z</time></trkpt><trkpt lat="43.4348262" lon="11.9096017"><ele>367.0</ele><time>2026-05-01T17:58:10.047Z</time></trkpt><trkpt lat="43.4349769" lon="11.9094785"><ele>367.0</ele><time>2026-05-01T17:58:11.047Z</time></trkpt><trkpt lat="43.4351274" lon="11.9093507"><ele>367.0</ele><time>2026-05-01T17:58:12.047Z</time></trkpt><trkpt lat="43.4352742" lon="11.9092079"><ele>367.0</ele><time>2026-05-01T17:58:13.047Z</time></trkpt><trkpt lat="43.4354179" lon="11.9090447"><ele>365.0</ele><time>2026-05-01T17:58:14.047Z</time></trkpt><trkpt lat="43.4355552" lon="11.9088729"><ele>363.0</ele><time>2026-05-01T17:58:15.048Z</time></trkpt><trkpt lat="43.435686" lon="11.9086888"><ele>361.0</ele><time>2026-05-01T17:58:16.047Z</time></trkpt><trkpt lat="43.4358059" lon="11.9084979"><ele>364.0</ele><time>2026-05-01T17:58:17.047Z</time></trkpt><trkpt lat="43.4359198" lon="11.9082838"><ele>367.0</ele><time>2026-05-01T17:58:18.047Z</time></trkpt><trkpt lat="43.436012" lon="11.9080641"><ele>370.0</ele><time>2026-05-01T17:58:19.047Z</time></trkpt><trkpt lat="43.4360934" lon="11.9078275"><ele>370.0</ele><time>2026-05-01T17:58:20.047Z</time></trkpt><trkpt lat="43.4361671" lon="11.9075941"><ele>370.0</ele><time>2026-05-01T17:58:21.047Z</time></trkpt><trkpt lat="43.4362268" lon="11.9073635"><ele>370.0</ele><time>2026-05-01T17:58:22.048Z</time></trkpt><trkpt lat="43.4362834" lon="11.9071319"><ele>370.3333333333333</ele><time>2026-05-01T17:58:23.047Z</time></trkpt><trkpt lat="43.4363378" lon="11.9068984"><ele>370.6666666666667</ele><time>2026-05-01T17:58:24.047Z</time></trkpt><trkpt lat="43.4363949" lon="11.9066641"><ele>371.0</ele><time>2026-05-01T17:58:25.048Z</time></trkpt><trkpt lat="43.4364541" lon="11.9064111"><ele>371.33333333333337</ele><time>2026-05-01T17:58:26.048Z</time></trkpt><trkpt lat="43.4365146" lon="11.9061614"><ele>371.6666666666667</ele><time>2026-05-01T17:58:27.047Z</time></trkpt><trkpt lat="43.4365763" lon="11.9059184"><ele>372.0</ele><time>2026-05-01T17:58:28.048Z</time></trkpt><trkpt lat="43.4366359" lon="11.9056743"><ele>369.6666666666667</ele><time>2026-05-01T17:58:29.048Z</time></trkpt><trkpt lat="43.4366981" lon="11.9054247"><ele>367.33333333333337</ele><time>2026-05-01T17:58:30.048Z</time></trkpt><trkpt lat="43.4367571" lon="11.9051707"><ele>365.0</ele><time>2026-05-01T17:58:31.048Z</time></trkpt><trkpt lat="43.4368027" lon="11.9049146"><ele>360.6666666666667</ele><time>2026-05-01T17:58:32.048Z</time></trkpt><trkpt lat="43.4368328" lon="11.9046494"><ele>356.3333333333333</ele><time>2026-05-01T17:58:33.048Z</time></trkpt><trkpt lat="43.436855" lon="11.9043829"><ele>352.0</ele><time>2026-05-01T17:58:34.048Z</time></trkpt><trkpt lat="43.4368588" lon="11.9041142"><ele>348.3333333333333</ele><time>2026-05-01T17:58:35.048Z</time></trkpt><trkpt lat="43.4368631" lon="11.9038526"><ele>344.6666666666667</ele><time>2026-05-01T17:58:36.048Z</time></trkpt><trkpt lat="43.436853" lon="11.9035753"><ele>341.0</ele><time>2026-05-01T17:58:37.048Z</time></trkpt><trkpt lat="43.436843" lon="11.9033093"><ele>341.0</ele><time>2026-05-01T17:58:38.048Z</time></trkpt><trkpt lat="43.4368342" lon="11.9030451"><ele>341.0</ele><time>2026-05-01T17:58:39.049Z</time></trkpt><trkpt lat="43.4368318" lon="11.9027833"><ele>341.0</ele><time>2026-05-01T17:58:40.048Z</time></trkpt><trkpt lat="43.4368443" lon="11.9025211"><ele>340.6666666666667</ele><time>2026-05-01T17:58:41.048Z</time></trkpt><trkpt lat="43.4368697" lon="11.9022536"><ele>340.3333333333333</ele><time>2026-05-01T17:58:42.049Z</time></trkpt><trkpt lat="43.4369135" lon="11.9019982"><ele>340.0</ele><time>2026-05-01T17:58:43.048Z</time></trkpt><trkpt lat="43.4369657" lon="11.9017493"><ele>337.3333333333333</ele><time>2026-05-01T17:58:44.048Z</time></trkpt><trkpt lat="43.4370313" lon="11.9015118"><ele>334.6666666666667</ele><time>2026-05-01T17:58:45.048Z</time></trkpt><trkpt lat="43.437108" lon="11.9012849"><ele>332.0</ele><time>2026-05-01T17:58:46.048Z</time></trkpt><trkpt lat="43.4371929" lon="11.9010618"><ele>334.6666666666667</ele><time>2026-05-01T17:58:47.048Z</time></trkpt><trkpt lat="43.4372918" lon="11.9008508"><ele>337.3333333333333</ele><time>2026-05-01T17:58:48.048Z</time></trkpt><trkpt lat="43.4374026" lon="11.9006438"><ele>340.0</ele><time>2026-05-01T17:58:49.048Z</time></trkpt><trkpt lat="43.4375238" lon="11.9004456"><ele>340.0</ele><time>2026-05-01T17:58:50.048Z</time></trkpt><trkpt lat="43.43765" lon="11.9002556"><ele>340.0</ele><time>2026-05-01T17:58:51.048Z</time></trkpt><trkpt lat="43.4377975" lon="11.9000824"><ele>340.0</ele><time>2026-05-01T17:58:52.049Z</time></trkpt><trkpt lat="43.4379535" lon="11.8999229"><ele>336.66666666666663</ele><time>2026-05-01T17:58:53.048Z</time></trkpt><trkpt lat="43.4381157" lon="11.8997812"><ele>333.3333333333333</ele><time>2026-05-01T17:58:54.049Z</time></trkpt><trkpt lat="43.4382852" lon="11.8996547"><ele>330.0</ele><time>2026-05-01T17:58:55.048Z</time></trkpt><trkpt lat="43.4384609" lon="11.8995375"><ele>330.0</ele><time>2026-05-01T17:58:56.048Z</time></trkpt><trkpt lat="43.4386355" lon="11.8994443"><ele>330.0</ele><time>2026-05-01T17:58:57.048Z</time></trkpt><trkpt lat="43.4388101" lon="11.8993604"><ele>330.0</ele><time>2026-05-01T17:58:58.048Z</time></trkpt><trkpt lat="43.4389936" lon="11.8993041"><ele>330.6666666666667</ele><time>2026-05-01T17:58:59.048Z</time></trkpt><trkpt lat="43.439189" lon="11.8992738"><ele>331.33333333333337</ele><time>2026-05-01T17:59:00.048Z</time></trkpt><trkpt lat="43.4393857" lon="11.8992586"><ele>332.0</ele><time>2026-05-01T17:59:01.048Z</time></trkpt><trkpt lat="43.4395863" lon="11.8992509"><ele>330.6666666666667</ele><time>2026-05-01T17:59:02.048Z</time></trkpt><trkpt lat="43.4397864" lon="11.8992461"><ele>329.3333333333333</ele><time>2026-05-01T17:59:03.048Z</time></trkpt><trkpt lat="43.4399847" lon="11.8992444"><ele>328.0</ele><time>2026-05-01T17:59:04.048Z</time></trkpt><trkpt lat="43.4401802" lon="11.8992376"><ele>328.0</ele><time>2026-05-01T17:59:05.049Z</time></trkpt><trkpt lat="43.4403698" lon="11.8992139"><ele>328.0</ele><time>2026-05-01T17:59:06.048Z</time></trkpt><trkpt lat="43.4405628" lon="11.8991855"><ele>328.0</ele><time>2026-05-01T17:59:07.048Z</time></trkpt><trkpt lat="43.4407516" lon="11.8991405"><ele>327.0</ele><time>2026-05-01T17:59:08.048Z</time></trkpt><trkpt lat="43.4409447" lon="11.8990808"><ele>326.0</ele><time>2026-05-01T17:59:09.049Z</time></trkpt><trkpt lat="43.4411317" lon="11.8990031"><ele>325.0</ele><time>2026-05-01T17:59:10.048Z</time></trkpt><trkpt lat="43.441307" lon="11.8988861"><ele>325.0</ele><time>2026-05-01T17:59:11.048Z</time></trkpt><trkpt lat="43.4414758" lon="11.8987662"><ele>325.0</ele><time>2026-05-01T17:59:12.048Z</time></trkpt><trkpt lat="43.4416359" lon="11.898628"><ele>325.0</ele><time>2026-05-01T17:59:13.048Z</time></trkpt><trkpt lat="43.4417904" lon="11.8984777"><ele>324.0</ele><time>2026-05-01T17:59:14.048Z</time></trkpt><trkpt lat="43.4419343" lon="11.8983134"><ele>323.0</ele><time>2026-05-01T17:59:15.048Z</time></trkpt><trkpt lat="43.4420693" lon="11.8981401"><ele>322.0</ele><time>2026-05-01T17:59:16.048Z</time></trkpt><trkpt lat="43.4421992" lon="11.8979593"><ele>322.0</ele><time>2026-05-01T17:59:17.049Z</time></trkpt><trkpt lat="43.4423209" lon="11.8977566"><ele>322.0</ele><time>2026-05-01T17:59:18.048Z</time></trkpt><trkpt lat="43.4424304" lon="11.8975433"><ele>322.0</ele><time>2026-05-01T17:59:19.049Z</time></trkpt><trkpt lat="43.4425254" lon="11.897316"><ele>319.66666666666663</ele><time>2026-05-01T17:59:20.048Z</time></trkpt><trkpt lat="43.4426065" lon="11.8970774"><ele>317.3333333333333</ele><time>2026-05-01T17:59:21.048Z</time></trkpt><trkpt lat="43.4426748" lon="11.8968349"><ele>315.0</ele><time>2026-05-01T17:59:22.048Z</time></trkpt><trkpt lat="43.4427366" lon="11.8965965"><ele>312.0</ele><time>2026-05-01T17:59:23.048Z</time></trkpt><trkpt lat="43.4427883" lon="11.8963352"><ele>309.0</ele><time>2026-05-01T17:59:24.049Z</time></trkpt><trkpt lat="43.4428316" lon="11.8960731"><ele>306.0</ele><time>2026-05-01T17:59:25.048Z</time></trkpt><trkpt lat="43.4428704" lon="11.8958065"><ele>304.3333333333333</ele><time>2026-05-01T17:59:26.049Z</time></trkpt><trkpt lat="43.4429045" lon="11.8955415"><ele>302.66666666666663</ele><time>2026-05-01T17:59:27.048Z</time></trkpt><trkpt lat="43.4429422" lon="11.8952775"><ele>301.0</ele><time>2026-05-01T17:59:28.048Z</time></trkpt><trkpt lat="43.4429806" lon="11.8950227"><ele>301.66666666666663</ele><time>2026-05-01T17:59:29.048Z</time></trkpt><trkpt lat="43.4430206" lon="11.8947638"><ele>302.3333333333333</ele><time>2026-05-01T17:59:30.048Z</time></trkpt><trkpt lat="43.4430621" lon="11.8945032"><ele>303.0</ele><time>2026-05-01T17:59:31.048Z</time></trkpt><trkpt lat="43.4431093" lon="11.8942397"><ele>303.0</ele><time>2026-05-01T17:59:32.048Z</time></trkpt><trkpt lat="43.4431535" lon="11.8939736"><ele>303.0</ele><time>2026-05-01T17:59:33.048Z</time></trkpt><trkpt lat="43.4431953" lon="11.8937185"><ele>303.0</ele><time>2026-05-01T17:59:34.049Z</time></trkpt><trkpt lat="43.4432321" lon="11.8934752"><ele>299.6666666666667</ele><time>2026-05-01T17:59:35.048Z</time></trkpt><trkpt lat="43.4432673" lon="11.8932491"><ele>296.33333333333337</ele><time>2026-05-01T17:59:36.049Z</time></trkpt><trkpt lat="43.4433084" lon="11.8930292"><ele>293.0</ele><time>2026-05-01T17:59:37.048Z</time></trkpt><trkpt lat="43.4433458" lon="11.8928158"><ele>293.0</ele><time>2026-05-01T17:59:38.048Z</time></trkpt><trkpt lat="43.4433766" lon="11.8926021"><ele>293.0</ele><time>2026-05-01T17:59:39.048Z</time></trkpt><trkpt lat="43.4434097" lon="11.8923852"><ele>293.0</ele><time>2026-05-01T17:59:40.048Z</time></trkpt><trkpt lat="43.4434445" lon="11.8921644"><ele>291.25</ele><time>2026-05-01T17:59:41.048Z</time></trkpt><trkpt lat="43.4434696" lon="11.8919606"><ele>289.5</ele><time>2026-05-01T17:59:42.048Z</time></trkpt><trkpt lat="43.4434942" lon="11.8917587"><ele>287.75</ele><time>2026-05-01T17:59:43.048Z</time></trkpt><trkpt lat="43.4435237" lon="11.891557"><ele>286.0</ele><time>2026-05-01T17:59:44.048Z</time></trkpt><trkpt lat="43.4435528" lon="11.891348"><ele>286.0</ele><time>2026-05-01T17:59:45.049Z</time></trkpt><trkpt lat="43.4435775" lon="11.8911239"><ele>286.0</ele><time>2026-05-01T17:59:46.049Z</time></trkpt><trkpt lat="43.4436071" lon="11.8908907"><ele>286.0</ele><time>2026-05-01T17:59:47.048Z</time></trkpt><trkpt lat="43.4436358" lon="11.8906446"><ele>286.3333333333333</ele><time>2026-05-01T17:59:48.048Z</time></trkpt><trkpt lat="43.4436657" lon="11.8903857"><ele>286.6666666666667</ele><time>2026-05-01T17:59:49.048Z</time></trkpt><trkpt lat="43.4436994" lon="11.8901277"><ele>287.0</ele><time>2026-05-01T17:59:50.048Z</time></trkpt><trkpt lat="43.4437295" lon="11.8898643"><ele>287.0</ele><time>2026-05-01T17:59:51.048Z</time></trkpt><trkpt lat="43.4437616" lon="11.8895836"><ele>287.0</ele><time>2026-05-01T17:59:52.048Z</time></trkpt><trkpt lat="43.4437932" lon="11.8892914"><ele>287.0</ele><time>2026-05-01T17:59:53.049Z</time></trkpt><trkpt lat="43.4438278" lon="11.889011"><ele>283.0</ele><time>2026-05-01T17:59:54.049Z</time></trkpt><trkpt lat="43.443861" lon="11.8887459"><ele>279.0</ele><time>2026-05-01T17:59:55.048Z</time></trkpt><trkpt lat="43.4438935" lon="11.888491"><ele>275.0</ele><time>2026-05-01T17:59:56.048Z</time></trkpt><trkpt lat="43.4439256" lon="11.8882298"><ele>275.0</ele><time>2026-05-01T17:59:57.049Z</time></trkpt><trkpt lat="43.4439583" lon="11.8879554"><ele>275.0</ele><time>2026-05-01T17:59:58.048Z</time></trkpt><trkpt lat="43.4439831" lon="11.8876825"><ele>275.0</ele><time>2026-05-01T17:59:59.048Z</time></trkpt><trkpt lat="43.444008" lon="11.8874177"><ele>275.6666666666667</ele><time>2026-05-01T18:00:00.048Z</time></trkpt><trkpt lat="43.4440314" lon="11.8871551"><ele>276.3333333333333</ele><time>2026-05-01T18:00:01.048Z</time></trkpt><trkpt lat="43.4440437" lon="11.8868959"><ele>277.0</ele><time>2026-05-01T18:00:02.048Z</time></trkpt><trkpt lat="43.444055" lon="11.8866282"><ele>277.66666666666663</ele><time>2026-05-01T18:00:03.048Z</time></trkpt><trkpt lat="43.444068" lon="11.8863486"><ele>278.3333333333333</ele><time>2026-05-01T18:00:04.048Z</time></trkpt><trkpt lat="43.4440765" lon="11.8860505"><ele>279.0</ele><time>2026-05-01T18:00:05.048Z</time></trkpt><trkpt lat="43.4440814" lon="11.8857516"><ele>280.0</ele><time>2026-05-01T18:00:06.048Z</time></trkpt><trkpt lat="43.4440801" lon="11.8854408"><ele>281.0</ele><time>2026-05-01T18:00:07.048Z</time></trkpt><trkpt lat="43.4440811" lon="11.8851178"><ele>279.5</ele><time>2026-05-01T18:00:08.048Z</time></trkpt><trkpt lat="43.4440897" lon="11.8847906"><ele>278.0</ele><time>2026-05-01T18:00:09.048Z</time></trkpt><trkpt lat="43.4441005" lon="11.8844673"><ele>277.0</ele><time>2026-05-01T18:00:10.048Z</time></trkpt><trkpt lat="43.4441079" lon="11.8841618"><ele>276.0</ele><time>2026-05-01T18:00:11.048Z</time></trkpt><trkpt lat="43.444119" lon="11.8838611"><ele>275.0</ele><time>2026-05-01T18:00:12.048Z</time></trkpt><trkpt lat="43.4441306" lon="11.8835809"><ele>272.33333333333337</ele><time>2026-05-01T18:00:13.049Z</time></trkpt><trkpt lat="43.4441442" lon="11.8833042"><ele>269.6666666666667</ele><time>2026-05-01T18:00:14.048Z</time></trkpt><trkpt lat="43.4441635" lon="11.8830281"><ele>267.0</ele><time>2026-05-01T18:00:15.048Z</time></trkpt><trkpt lat="43.4441842" lon="11.882764"><ele>266.6666666666667</ele><time>2026-05-01T18:00:16.048Z</time></trkpt><trkpt lat="43.4442116" lon="11.8825144"><ele>266.33333333333337</ele><time>2026-05-01T18:00:17.048Z</time></trkpt><trkpt lat="43.4442404" lon="11.882277"><ele>266.0</ele><time>2026-05-01T18:00:18.048Z</time></trkpt><trkpt lat="43.4442739" lon="11.882036"><ele>266.0</ele><time>2026-05-01T18:00:19.048Z</time></trkpt><trkpt lat="43.4443095" lon="11.8817906"><ele>266.0</ele><time>2026-05-01T18:00:20.048Z</time></trkpt><trkpt lat="43.4443499" lon="11.8815467"><ele>266.0</ele><time>2026-05-01T18:00:21.049Z</time></trkpt><trkpt lat="43.4443961" lon="11.8812937"><ele>265.0</ele><time>2026-05-01T18:00:22.048Z</time></trkpt><trkpt lat="43.4444466" lon="11.8810454"><ele>264.0</ele><time>2026-05-01T18:00:23.049Z</time></trkpt><trkpt lat="43.4445016" lon="11.8808002"><ele>263.0</ele><time>2026-05-01T18:00:24.048Z</time></trkpt><trkpt lat="43.4445575" lon="11.8805584"><ele>263.0</ele><time>2026-05-01T18:00:25.048Z</time></trkpt><trkpt lat="43.4446212" lon="11.8803324"><ele>263.0</ele><time>2026-05-01T18:00:26.049Z</time></trkpt><trkpt lat="43.4446885" lon="11.8801139"><ele>263.0</ele><time>2026-05-01T18:00:27.048Z</time></trkpt><trkpt lat="43.4447542" lon="11.8798925"><ele>262.6666666666667</ele><time>2026-05-01T18:00:28.048Z</time></trkpt><trkpt lat="43.4448237" lon="11.8796618"><ele>262.3333333333333</ele><time>2026-05-01T18:00:29.048Z</time></trkpt><trkpt lat="43.4448983" lon="11.8794331"><ele>262.0</ele><time>2026-05-01T18:00:30.049Z</time></trkpt><trkpt lat="43.4449819" lon="11.879201"><ele>261.66666666666663</ele><time>2026-05-01T18:00:31.049Z</time></trkpt><trkpt lat="43.445076" lon="11.8789732"><ele>261.3333333333333</ele><time>2026-05-01T18:00:32.048Z</time></trkpt><trkpt lat="43.4451686" lon="11.8787505"><ele>261.0</ele><time>2026-05-01T18:00:33.048Z</time></trkpt><trkpt lat="43.445264" lon="11.8785347"><ele>260.6666666666667</ele><time>2026-05-01T18:00:34.048Z</time></trkpt><trkpt lat="43.4453639" lon="11.8783118"><ele>260.33333333333337</ele><time>2026-05-01T18:00:35.048Z</time></trkpt><trkpt lat="43.4454641" lon="11.8780862"><ele>260.0</ele><time>2026-05-01T18:00:36.049Z</time></trkpt><trkpt lat="43.4455737" lon="11.8778496"><ele>259.6666666666667</ele><time>2026-05-01T18:00:37.048Z</time></trkpt><trkpt lat="43.4456921" lon="11.8776082"><ele>259.3333333333333</ele><time>2026-05-01T18:00:38.048Z</time></trkpt><trkpt lat="43.4458186" lon="11.8773697"><ele>259.0</ele><time>2026-05-01T18:00:39.049Z</time></trkpt><trkpt lat="43.4459561" lon="11.8771527"><ele>259.0</ele><time>2026-05-01T18:00:40.048Z</time></trkpt><trkpt lat="43.4461027" lon="11.8769215"><ele>259.0</ele><time>2026-05-01T18:00:41.048Z</time></trkpt><trkpt lat="43.446265" lon="11.8766822"><ele>259.0</ele><time>2026-05-01T18:00:42.049Z</time></trkpt><trkpt lat="43.44644" lon="11.8764423"><ele>259.0</ele><time>2026-05-01T18:00:43.048Z</time></trkpt><trkpt lat="43.4466028" lon="11.876216"><ele>259.0</ele><time>2026-05-01T18:00:44.049Z</time></trkpt><trkpt lat="43.4467728" lon="11.875984"><ele>259.0</ele><time>2026-05-01T18:00:45.048Z</time></trkpt><trkpt lat="43.4469391" lon="11.8757468"><ele>258.5</ele><time>2026-05-01T18:00:46.048Z</time></trkpt><trkpt lat="43.4470996" lon="11.8755072"><ele>258.0</ele><time>2026-05-01T18:00:47.048Z</time></trkpt><trkpt lat="43.4472523" lon="11.8752514"><ele>258.5</ele><time>2026-05-01T18:00:48.048Z</time></trkpt><trkpt lat="43.447403" lon="11.8749976"><ele>259.0</ele><time>2026-05-01T18:00:49.049Z</time></trkpt><trkpt lat="43.447557" lon="11.8747431"><ele>259.0</ele><time>2026-05-01T18:00:50.049Z</time></trkpt><trkpt lat="43.4477101" lon="11.8744924"><ele>259.0</ele><time>2026-05-01T18:00:51.048Z</time></trkpt><trkpt lat="43.4478544" lon="11.8742417"><ele>258.0</ele><time>2026-05-01T18:00:52.049Z</time></trkpt><trkpt lat="43.4479942" lon="11.8740035"><ele>257.0</ele><time>2026-05-01T18:00:53.049Z</time></trkpt><trkpt lat="43.4481412" lon="11.8737547"><ele>257.0</ele><time>2026-05-01T18:00:54.048Z</time></trkpt><trkpt lat="43.4482925" lon="11.8735028"><ele>257.0</ele><time>2026-05-01T18:00:55.048Z</time></trkpt><trkpt lat="43.4484442" lon="11.8732476"><ele>256.5</ele><time>2026-05-01T18:00:56.048Z</time></trkpt><trkpt lat="43.4486031" lon="11.87299"><ele>256.0</ele><time>2026-05-01T18:00:57.049Z</time></trkpt><trkpt lat="43.4487523" lon="11.8727204"><ele>257.0</ele><time>2026-05-01T18:00:58.049Z</time></trkpt><trkpt lat="43.4489042" lon="11.8724474"><ele>258.0</ele><time>2026-05-01T18:00:59.048Z</time></trkpt><trkpt lat="43.4490548" lon="11.8721748"><ele>258.0</ele><time>2026-05-01T18:01:00.048Z</time></trkpt><trkpt lat="43.4492104" lon="11.8718957"><ele>258.0</ele><time>2026-05-01T18:01:01.049Z</time></trkpt><trkpt lat="43.4493603" lon="11.8716227"><ele>257.5</ele><time>2026-05-01T18:01:02.048Z</time></trkpt><trkpt lat="43.4495091" lon="11.8713661"><ele>257.0</ele><time>2026-05-01T18:01:03.048Z</time></trkpt><trkpt lat="43.4496548" lon="11.8711119"><ele>256.5</ele><time>2026-05-01T18:01:04.048Z</time></trkpt><trkpt lat="43.4497981" lon="11.8708617"><ele>256.0</ele><time>2026-05-01T18:01:05.049Z</time></trkpt><trkpt lat="43.4499402" lon="11.8706004"><ele>256.0</ele><time>2026-05-01T18:01:06.048Z</time></trkpt><trkpt lat="43.4500855" lon="11.8703399"><ele>256.0</ele><time>2026-05-01T18:01:07.048Z</time></trkpt><trkpt lat="43.45023" lon="11.8700829"><ele>255.5</ele><time>2026-05-01T18:01:08.049Z</time></trkpt><trkpt lat="43.4503722" lon="11.8698305"><ele>255.0</ele><time>2026-05-01T18:01:09.049Z</time></trkpt><trkpt lat="43.4505108" lon="11.8695795"><ele>255.0</ele><time>2026-05-01T18:01:10.048Z</time></trkpt><trkpt lat="43.4506474" lon="11.8693408"><ele>255.0</ele><time>2026-05-01T18:01:11.048Z</time></trkpt><trkpt lat="43.4507776" lon="11.8691196"><ele>255.0</ele><time>2026-05-01T18:01:12.048Z</time></trkpt><trkpt lat="43.4508986" lon="11.8689115"><ele>255.0</ele><time>2026-05-01T18:01:13.048Z</time></trkpt><trkpt lat="43.4510098" lon="11.8687071"><ele>255.0</ele><time>2026-05-01T18:01:14.048Z</time></trkpt><trkpt lat="43.4511255" lon="11.8685102"><ele>255.0</ele><time>2026-05-01T18:01:15.048Z</time></trkpt><trkpt lat="43.4512301" lon="11.8683253"><ele>254.33333333333331</ele><time>2026-05-01T18:01:16.049Z</time></trkpt><trkpt lat="43.451327" lon="11.8681531"><ele>253.66666666666666</ele><time>2026-05-01T18:01:17.048Z</time></trkpt><trkpt lat="43.4514254" lon="11.8679811"><ele>253.0</ele><time>2026-05-01T18:01:18.048Z</time></trkpt><trkpt lat="43.4515239" lon="11.8678162"><ele>253.0</ele><time>2026-05-01T18:01:19.048Z</time></trkpt><trkpt lat="43.4516132" lon="11.8676665"><ele>253.0</ele><time>2026-05-01T18:01:20.049Z</time></trkpt><trkpt lat="43.4516936" lon="11.8675358"><ele>253.0</ele><time>2026-05-01T18:01:21.048Z</time></trkpt><trkpt lat="43.4517568" lon="11.8674301"><ele>253.0</ele><time>2026-05-01T18:01:22.049Z</time></trkpt><trkpt lat="43.4518181" lon="11.8673306"><ele>253.0</ele><time>2026-05-01T18:01:23.048Z</time></trkpt><trkpt lat="43.4518844" lon="11.867223"><ele>253.0</ele><time>2026-05-01T18:01:24.048Z</time></trkpt><trkpt lat="43.4519589" lon="11.8670932"><ele>253.0</ele><time>2026-05-01T18:01:25.049Z</time></trkpt><trkpt lat="43.452055" lon="11.8669669"><ele>253.0</ele><time>2026-05-01T18:01:26.048Z</time></trkpt><trkpt lat="43.452157" lon="11.8668217"><ele>252.33333333333331</ele><time>2026-05-01T18:01:27.048Z</time></trkpt><trkpt lat="43.4522732" lon="11.8666621"><ele>251.66666666666669</ele><time>2026-05-01T18:01:28.048Z</time></trkpt><trkpt lat="43.4524086" lon="11.8664858"><ele>251.0</ele><time>2026-05-01T18:01:29.048Z</time></trkpt><trkpt lat="43.4525384" lon="11.8663203"><ele>251.0</ele><time>2026-05-01T18:01:30.049Z</time></trkpt><trkpt lat="43.4526673" lon="11.8661587"><ele>251.0</ele><time>2026-05-01T18:01:31.048Z</time></trkpt><trkpt lat="43.4527916" lon="11.8659997"><ele>251.0</ele><time>2026-05-01T18:01:32.048Z</time></trkpt><trkpt lat="43.4529029" lon="11.8658824"><ele>251.16666666666669</ele><time>2026-05-01T18:01:33.048Z</time></trkpt><trkpt lat="43.452993" lon="11.8658048"><ele>251.33333333333334</ele><time>2026-05-01T18:01:34.048Z</time></trkpt><trkpt lat="43.4530497" lon="11.865753"><ele>251.5</ele><time>2026-05-01T18:01:35.048Z</time></trkpt><trkpt lat="43.4531214" lon="11.8657234"><ele>251.66666666666669</ele><time>2026-05-01T18:01:38.048Z</time></trkpt><trkpt lat="43.4532269" lon="11.8657048"><ele>251.83333333333334</ele><time>2026-05-01T18:01:40.048Z</time></trkpt><trkpt lat="43.4533038" lon="11.8656916"><ele>252.0</ele><time>2026-05-01T18:01:41.048Z</time></trkpt><trkpt lat="43.4533785" lon="11.8656573"><ele>252.0</ele><time>2026-05-01T18:01:42.048Z</time></trkpt><trkpt lat="43.4534434" lon="11.8655738"><ele>252.0</ele><time>2026-05-01T18:01:43.048Z</time></trkpt><trkpt lat="43.4535028" lon="11.8654697"><ele>252.0</ele><time>2026-05-01T18:01:44.049Z</time></trkpt><trkpt lat="43.4535387" lon="11.8653423"><ele>252.0</ele><time>2026-05-01T18:01:45.048Z</time></trkpt><trkpt lat="43.4535695" lon="11.8652205"><ele>252.0</ele><time>2026-05-01T18:01:46.049Z</time></trkpt><trkpt lat="43.4536258" lon="11.8650919"><ele>252.25</ele><time>2026-05-01T18:01:47.048Z</time></trkpt><trkpt lat="43.4537011" lon="11.8649665"><ele>252.5</ele><time>2026-05-01T18:01:48.049Z</time></trkpt><trkpt lat="43.4538013" lon="11.8648367"><ele>252.75</ele><time>2026-05-01T18:01:49.048Z</time></trkpt><trkpt lat="43.4539141" lon="11.8647095"><ele>253.0</ele><time>2026-05-01T18:01:50.048Z</time></trkpt><trkpt lat="43.4540368" lon="11.8645846"><ele>253.66666666666666</ele><time>2026-05-01T18:01:51.048Z</time></trkpt><trkpt lat="43.4541616" lon="11.8644777"><ele>254.33333333333331</ele><time>2026-05-01T18:01:52.049Z</time></trkpt><trkpt lat="43.4542942" lon="11.8643655"><ele>255.0</ele><time>2026-05-01T18:01:53.049Z</time></trkpt><trkpt lat="43.4544348" lon="11.864263"><ele>255.0</ele><time>2026-05-01T18:01:54.049Z</time></trkpt><trkpt lat="43.4545986" lon="11.8641459"><ele>255.0</ele><time>2026-05-01T18:01:55.048Z</time></trkpt><trkpt lat="43.4547646" lon="11.8640174"><ele>255.0</ele><time>2026-05-01T18:01:56.049Z</time></trkpt><trkpt lat="43.4549294" lon="11.8638916"><ele>254.33333333333331</ele><time>2026-05-01T18:01:57.049Z</time></trkpt><trkpt lat="43.4551003" lon="11.8637502"><ele>253.66666666666666</ele><time>2026-05-01T18:01:58.048Z</time></trkpt><trkpt lat="43.4552693" lon="11.8636143"><ele>253.0</ele><time>2026-05-01T18:01:59.048Z</time></trkpt><trkpt lat="43.4554146" lon="11.86351"><ele>252.5</ele><time>2026-05-01T18:02:00.048Z</time></trkpt><trkpt lat="43.4555218" lon="11.8634317"><ele>252.0</ele><time>2026-05-01T18:02:01.048Z</time></trkpt><trkpt lat="43.4556309" lon="11.8633545"><ele>251.5</ele><time>2026-05-01T18:02:02.049Z</time></trkpt><trkpt lat="43.4557429" lon="11.8632681"><ele>251.0</ele><time>2026-05-01T18:02:03.049Z</time></trkpt><trkpt lat="43.455876" lon="11.8631733"><ele>251.0</ele><time>2026-05-01T18:02:04.048Z</time></trkpt><trkpt lat="43.4560038" lon="11.8630696"><ele>251.0</ele><time>2026-05-01T18:02:05.048Z</time></trkpt><trkpt lat="43.4561469" lon="11.8629822"><ele>251.0</ele><time>2026-05-01T18:02:06.049Z</time></trkpt><trkpt lat="43.4563037" lon="11.8628997"><ele>251.0</ele><time>2026-05-01T18:02:07.049Z</time></trkpt><trkpt lat="43.4564684" lon="11.8627952"><ele>251.0</ele><time>2026-05-01T18:02:08.048Z</time></trkpt><trkpt lat="43.4566545" lon="11.8626937"><ele>251.0</ele><time>2026-05-01T18:02:09.048Z</time></trkpt><trkpt lat="43.4568363" lon="11.8626066"><ele>251.0</ele><time>2026-05-01T18:02:10.048Z</time></trkpt><trkpt lat="43.457021" lon="11.8625085"><ele>251.0</ele><time>2026-05-01T18:02:11.048Z</time></trkpt><trkpt lat="43.4572149" lon="11.8623998"><ele>251.0</ele><time>2026-05-01T18:02:12.048Z</time></trkpt><trkpt lat="43.4574237" lon="11.8622963"><ele>250.33333333333334</ele><time>2026-05-01T18:02:13.048Z</time></trkpt><trkpt lat="43.4576291" lon="11.8622093"><ele>249.66666666666669</ele><time>2026-05-01T18:02:14.049Z</time></trkpt><trkpt lat="43.4578312" lon="11.8621173"><ele>249.0</ele><time>2026-05-01T18:02:15.048Z</time></trkpt><trkpt lat="43.4580289" lon="11.8620402"><ele>248.66666666666669</ele><time>2026-05-01T18:02:16.048Z</time></trkpt><trkpt lat="43.458213" lon="11.8619702"><ele>248.33333333333334</ele><time>2026-05-01T18:02:17.048Z</time></trkpt><trkpt lat="43.4583916" lon="11.861902"><ele>248.0</ele><time>2026-05-01T18:02:18.048Z</time></trkpt><trkpt lat="43.4585481" lon="11.8618396"><ele>248.0</ele><time>2026-05-01T18:02:19.049Z</time></trkpt><trkpt lat="43.4586692" lon="11.8618016"><ele>248.0</ele><time>2026-05-01T18:02:20.048Z</time></trkpt><trkpt lat="43.4587676" lon="11.861793"><ele>248.0</ele><time>2026-05-01T18:02:21.048Z</time></trkpt><trkpt lat="43.4588612" lon="11.8618417"><ele>248.0</ele><time>2026-05-01T18:02:22.048Z</time></trkpt><trkpt lat="43.458956" lon="11.8619151"><ele>248.0</ele><time>2026-05-01T18:02:23.048Z</time></trkpt><trkpt lat="43.4590641" lon="11.8619804"><ele>248.5</ele><time>2026-05-01T18:02:24.048Z</time></trkpt><trkpt lat="43.4591822" lon="11.862047"><ele>249.0</ele><time>2026-05-01T18:02:25.048Z</time></trkpt><trkpt lat="43.459298" lon="11.8620544"><ele>249.5</ele><time>2026-05-01T18:02:26.049Z</time></trkpt><trkpt lat="43.4594116" lon="11.8620087"><ele>250.0</ele><time>2026-05-01T18:02:27.048Z</time></trkpt><trkpt lat="43.4595103" lon="11.8619111"><ele>249.0</ele><time>2026-05-01T18:02:28.048Z</time></trkpt><trkpt lat="43.4595822" lon="11.8617783"><ele>248.0</ele><time>2026-05-01T18:02:29.048Z</time></trkpt><trkpt lat="43.4596158" lon="11.8616188"><ele>247.0</ele><time>2026-05-01T18:02:30.048Z</time></trkpt><trkpt lat="43.4595957" lon="11.8614426"><ele>246.0</ele><time>2026-05-01T18:02:31.048Z</time></trkpt><trkpt lat="43.4595457" lon="11.8612712"><ele>246.0</ele><time>2026-05-01T18:02:32.048Z</time></trkpt><trkpt lat="43.4594567" lon="11.8611346"><ele>246.0</ele><time>2026-05-01T18:02:33.048Z</time></trkpt><trkpt lat="43.459348" lon="11.8610301"><ele>246.0</ele><time>2026-05-01T18:02:34.048Z</time></trkpt><trkpt lat="43.4592497" lon="11.8609323"><ele>246.0</ele><time>2026-05-01T18:02:35.048Z</time></trkpt><trkpt lat="43.4591835" lon="11.8607967"><ele>246.66666666666669</ele><time>2026-05-01T18:02:36.048Z</time></trkpt><trkpt lat="43.4591443" lon="11.8606136"><ele>247.33333333333334</ele><time>2026-05-01T18:02:37.049Z</time></trkpt><trkpt lat="43.4591021" lon="11.8603754"><ele>248.0</ele><time>2026-05-01T18:02:38.049Z</time></trkpt><trkpt lat="43.4590586" lon="11.8601439"><ele>247.75</ele><time>2026-05-01T18:02:39.049Z</time></trkpt><trkpt lat="43.4590112" lon="11.8599267"><ele>247.5</ele><time>2026-05-01T18:02:40.048Z</time></trkpt><trkpt lat="43.4589673" lon="11.8597337"><ele>247.25</ele><time>2026-05-01T18:02:41.049Z</time></trkpt><trkpt lat="43.4589265" lon="11.8595706"><ele>247.0</ele><time>2026-05-01T18:02:42.049Z</time></trkpt><trkpt lat="43.4589087" lon="11.8594281"><ele>247.0</ele><time>2026-05-01T18:02:43.048Z</time></trkpt><trkpt lat="43.4589215" lon="11.8592898"><ele>247.0</ele><time>2026-05-01T18:02:44.048Z</time></trkpt><trkpt lat="43.4589454" lon="11.8591543"><ele>247.0</ele><time>2026-05-01T18:02:45.049Z</time></trkpt><trkpt lat="43.4589521" lon="11.8590108"><ele>247.0</ele><time>2026-05-01T18:02:46.048Z</time></trkpt><trkpt lat="43.4589029" lon="11.8588602"><ele>247.0</ele><time>2026-05-01T18:02:47.049Z</time></trkpt><trkpt lat="43.4587928" lon="11.8587341"><ele>247.5</ele><time>2026-05-01T18:02:48.049Z</time></trkpt><trkpt lat="43.4587126" lon="11.8586275"><ele>248.0</ele><time>2026-05-01T18:02:49.048Z</time></trkpt><trkpt lat="43.4586497" lon="11.8584527"><ele>248.5</ele><time>2026-05-01T18:02:50.048Z</time></trkpt><trkpt lat="43.458604" lon="11.8582609"><ele>249.0</ele><time>2026-05-01T18:02:51.048Z</time></trkpt><trkpt lat="43.4585486" lon="11.8580447"><ele>249.0</ele><time>2026-05-01T18:02:52.048Z</time></trkpt><trkpt lat="43.4585061" lon="11.8577994"><ele>249.0</ele><time>2026-05-01T18:02:53.048Z</time></trkpt><trkpt lat="43.4584582" lon="11.8575404"><ele>249.0</ele><time>2026-05-01T18:02:54.048Z</time></trkpt><trkpt lat="43.4584035" lon="11.8572684"><ele>249.0</ele><time>2026-05-01T18:02:55.048Z</time></trkpt><trkpt lat="43.4583494" lon="11.8569931"><ele>249.0</ele><time>2026-05-01T18:02:56.048Z</time></trkpt><trkpt lat="43.4582942" lon="11.8567112"><ele>249.0</ele><time>2026-05-01T18:02:57.048Z</time></trkpt><trkpt lat="43.4582409" lon="11.8564299"><ele>250.66666666666669</ele><time>2026-05-01T18:02:58.048Z</time></trkpt><trkpt lat="43.4581929" lon="11.8561495"><ele>252.33333333333334</ele><time>2026-05-01T18:02:59.048Z</time></trkpt><trkpt lat="43.4581554" lon="11.8558716"><ele>254.0</ele><time>2026-05-01T18:03:00.048Z</time></trkpt><trkpt lat="43.4581388" lon="11.8555931"><ele>254.33333333333334</ele><time>2026-05-01T18:03:01.048Z</time></trkpt><trkpt lat="43.4581446" lon="11.8553213"><ele>254.66666666666669</ele><time>2026-05-01T18:03:02.048Z</time></trkpt><trkpt lat="43.4581781" lon="11.8550603"><ele>255.0</ele><time>2026-05-01T18:03:03.048Z</time></trkpt><trkpt lat="43.4582358" lon="11.8548096"><ele>253.33333333333331</ele><time>2026-05-01T18:03:04.048Z</time></trkpt><trkpt lat="43.4583069" lon="11.8545537"><ele>251.66666666666666</ele><time>2026-05-01T18:03:05.048Z</time></trkpt><trkpt lat="43.4584066" lon="11.8543047"><ele>250.0</ele><time>2026-05-01T18:03:06.048Z</time></trkpt><trkpt lat="43.4585064" lon="11.8540487"><ele>249.33333333333331</ele><time>2026-05-01T18:03:07.048Z</time></trkpt><trkpt lat="43.4586113" lon="11.8537909"><ele>248.66666666666669</ele><time>2026-05-01T18:03:08.048Z</time></trkpt><trkpt lat="43.4587197" lon="11.8535358"><ele>248.0</ele><time>2026-05-01T18:03:09.048Z</time></trkpt><trkpt lat="43.4588303" lon="11.8532807"><ele>248.0</ele><time>2026-05-01T18:03:10.048Z</time></trkpt><trkpt lat="43.45894" lon="11.853018"><ele>248.0</ele><time>2026-05-01T18:03:11.048Z</time></trkpt><trkpt lat="43.459048" lon="11.852755"><ele>248.0</ele><time>2026-05-01T18:03:12.048Z</time></trkpt><trkpt lat="43.4591567" lon="11.8524997"><ele>248.0</ele><time>2026-05-01T18:03:13.048Z</time></trkpt><trkpt lat="43.4592771" lon="11.8522496"><ele>248.0</ele><time>2026-05-01T18:03:14.048Z</time></trkpt><trkpt lat="43.4594145" lon="11.8520102"><ele>248.0</ele><time>2026-05-01T18:03:15.048Z</time></trkpt><trkpt lat="43.4595694" lon="11.8518072"><ele>248.0</ele><time>2026-05-01T18:03:16.048Z</time></trkpt><trkpt lat="43.4597356" lon="11.8516269"><ele>248.0</ele><time>2026-05-01T18:03:17.048Z</time></trkpt><trkpt lat="43.4599202" lon="11.8514649"><ele>248.0</ele><time>2026-05-01T18:03:18.048Z</time></trkpt><trkpt lat="43.4601169" lon="11.8513374"><ele>248.0</ele><time>2026-05-01T18:03:19.048Z</time></trkpt><trkpt lat="43.4603264" lon="11.8512421"><ele>248.0</ele><time>2026-05-01T18:03:20.049Z</time></trkpt><trkpt lat="43.4605365" lon="11.8511625"><ele>248.0</ele><time>2026-05-01T18:03:21.048Z</time></trkpt><trkpt lat="43.460746" lon="11.8511067"><ele>248.0</ele><time>2026-05-01T18:03:22.049Z</time></trkpt><trkpt lat="43.4609507" lon="11.8510529"><ele>248.0</ele><time>2026-05-01T18:03:23.049Z</time></trkpt><trkpt lat="43.461148" lon="11.8509997"><ele>248.0</ele><time>2026-05-01T18:03:24.048Z</time></trkpt><trkpt lat="43.4613457" lon="11.8509504"><ele>248.0</ele><time>2026-05-01T18:03:25.048Z</time></trkpt><trkpt lat="43.4615456" lon="11.8509052"><ele>248.0</ele><time>2026-05-01T18:03:26.048Z</time></trkpt><trkpt lat="43.461744" lon="11.8508539"><ele>248.0</ele><time>2026-05-01T18:03:27.049Z</time></trkpt><trkpt lat="43.4619315" lon="11.8508044"><ele>248.0</ele><time>2026-05-01T18:03:28.049Z</time></trkpt><trkpt lat="43.462111" lon="11.8507589"><ele>248.0</ele><time>2026-05-01T18:03:29.049Z</time></trkpt><trkpt lat="43.4622855" lon="11.8507156"><ele>248.0</ele><time>2026-05-01T18:03:30.048Z</time></trkpt><trkpt lat="43.4624499" lon="11.8506778"><ele>248.25</ele><time>2026-05-01T18:03:31.048Z</time></trkpt><trkpt lat="43.4626094" lon="11.8506413"><ele>248.5</ele><time>2026-05-01T18:03:32.049Z</time></trkpt><trkpt lat="43.4627556" lon="11.8506277"><ele>248.75</ele><time>2026-05-01T18:03:33.048Z</time></trkpt><trkpt lat="43.4628839" lon="11.8506499"><ele>249.0</ele><time>2026-05-01T18:03:34.048Z</time></trkpt><trkpt lat="43.4629993" lon="11.8506996"><ele>249.0</ele><time>2026-05-01T18:03:35.049Z</time></trkpt><trkpt lat="43.4631069" lon="11.8507337"><ele>248.99999999999997</ele><time>2026-05-01T18:03:36.048Z</time></trkpt><trkpt lat="43.4632122" lon="11.8507313"><ele>248.99999999999997</ele><time>2026-05-01T18:03:37.048Z</time></trkpt><trkpt lat="43.4633021" lon="11.8506773"><ele>249.0</ele><time>2026-05-01T18:03:38.048Z</time></trkpt><trkpt lat="43.463374" lon="11.8505914"><ele>249.0</ele><time>2026-05-01T18:03:39.049Z</time></trkpt><trkpt lat="43.463413" lon="11.8504566"><ele>249.0</ele><time>2026-05-01T18:03:40.048Z</time></trkpt><trkpt lat="43.4633957" lon="11.8503148"><ele>249.0</ele><time>2026-05-01T18:03:41.048Z</time></trkpt><trkpt lat="43.4633433" lon="11.8501547"><ele>249.0</ele><time>2026-05-01T18:03:42.048Z</time></trkpt><trkpt lat="43.4632773" lon="11.8499792"><ele>249.0</ele><time>2026-05-01T18:03:43.049Z</time></trkpt><trkpt lat="43.463227" lon="11.8497921"><ele>249.0</ele><time>2026-05-01T18:03:44.049Z</time></trkpt><trkpt lat="43.4631878" lon="11.8495786"><ele>249.0</ele><time>2026-05-01T18:03:45.048Z</time></trkpt><trkpt lat="43.4631495" lon="11.8493534"><ele>249.0</ele><time>2026-05-01T18:03:46.048Z</time></trkpt><trkpt lat="43.4631167" lon="11.8491143"><ele>248.66666666666669</ele><time>2026-05-01T18:03:47.048Z</time></trkpt><trkpt lat="43.4630905" lon="11.8488659"><ele>248.33333333333334</ele><time>2026-05-01T18:03:48.049Z</time></trkpt><trkpt lat="43.4630605" lon="11.8486126"><ele>248.0</ele><time>2026-05-01T18:03:49.049Z</time></trkpt><trkpt lat="43.4630319" lon="11.8483578"><ele>247.66666666666669</ele><time>2026-05-01T18:03:50.048Z</time></trkpt><trkpt lat="43.4630043" lon="11.8480965"><ele>247.33333333333331</ele><time>2026-05-01T18:03:51.048Z</time></trkpt><trkpt lat="43.4629758" lon="11.8478395"><ele>247.0</ele><time>2026-05-01T18:03:52.048Z</time></trkpt><trkpt lat="43.4629484" lon="11.8475876"><ele>247.66666666666666</ele><time>2026-05-01T18:03:53.049Z</time></trkpt><trkpt lat="43.4629263" lon="11.8473337"><ele>248.33333333333331</ele><time>2026-05-01T18:03:54.048Z</time></trkpt><trkpt lat="43.4629051" lon="11.8470856"><ele>249.0</ele><time>2026-05-01T18:03:55.048Z</time></trkpt><trkpt lat="43.4628807" lon="11.8468389"><ele>248.66666666666669</ele><time>2026-05-01T18:03:56.048Z</time></trkpt><trkpt lat="43.4628566" lon="11.8466005"><ele>248.33333333333334</ele><time>2026-05-01T18:03:57.049Z</time></trkpt><trkpt lat="43.4628362" lon="11.8463957"><ele>248.0</ele><time>2026-05-01T18:03:58.049Z</time></trkpt><trkpt lat="43.4628199" lon="11.8462152"><ele>248.0</ele><time>2026-05-01T18:03:59.048Z</time></trkpt><trkpt lat="43.4628029" lon="11.8460446"><ele>248.0</ele><time>2026-05-01T18:04:00.048Z</time></trkpt><trkpt lat="43.4627823" lon="11.8458851"><ele>248.0</ele><time>2026-05-01T18:04:01.049Z</time></trkpt><trkpt lat="43.4627657" lon="11.8457251"><ele>248.0</ele><time>2026-05-01T18:04:02.048Z</time></trkpt><trkpt lat="43.4627549" lon="11.8455325"><ele>247.66666666666669</ele><time>2026-05-01T18:04:03.048Z</time></trkpt><trkpt lat="43.462738" lon="11.845312"><ele>247.33333333333331</ele><time>2026-05-01T18:04:04.048Z</time></trkpt><trkpt lat="43.4627106" lon="11.8450762"><ele>247.0</ele><time>2026-05-01T18:04:05.048Z</time></trkpt><trkpt lat="43.4626945" lon="11.8448234"><ele>247.0</ele><time>2026-05-01T18:04:06.049Z</time></trkpt><trkpt lat="43.4626732" lon="11.8445649"><ele>247.0</ele><time>2026-05-01T18:04:07.049Z</time></trkpt><trkpt lat="43.4626494" lon="11.8442857"><ele>247.0</ele><time>2026-05-01T18:04:08.048Z</time></trkpt><trkpt lat="43.4626228" lon="11.8440055"><ele>247.0</ele><time>2026-05-01T18:04:09.049Z</time></trkpt><trkpt lat="43.4625947" lon="11.843734"><ele>247.0</ele><time>2026-05-01T18:04:10.048Z</time></trkpt><trkpt lat="43.4625662" lon="11.8434537"><ele>247.0</ele><time>2026-05-01T18:04:11.049Z</time></trkpt><trkpt lat="43.4625321" lon="11.8431582"><ele>247.0</ele><time>2026-05-01T18:04:12.048Z</time></trkpt><trkpt lat="43.462502" lon="11.8428565"><ele>247.0</ele><time>2026-05-01T18:04:13.049Z</time></trkpt><trkpt lat="43.4624791" lon="11.8425602"><ele>247.0</ele><time>2026-05-01T18:04:14.049Z</time></trkpt><trkpt lat="43.4624482" lon="11.8422546"><ele>247.5</ele><time>2026-05-01T18:04:15.048Z</time></trkpt><trkpt lat="43.46242" lon="11.8419436"><ele>248.0</ele><time>2026-05-01T18:04:16.048Z</time></trkpt><trkpt lat="43.46239" lon="11.8416388"><ele>248.0</ele><time>2026-05-01T18:04:17.048Z</time></trkpt><trkpt lat="43.4623623" lon="11.8413318"><ele>248.0</ele><time>2026-05-01T18:04:18.049Z</time></trkpt><trkpt lat="43.4623331" lon="11.8410282"><ele>248.0</ele><time>2026-05-01T18:04:19.048Z</time></trkpt><trkpt lat="43.4623022" lon="11.840724"><ele>248.0</ele><time>2026-05-01T18:04:20.048Z</time></trkpt><trkpt lat="43.4622679" lon="11.8404161"><ele>248.0</ele><time>2026-05-01T18:04:21.048Z</time></trkpt><trkpt lat="43.4622373" lon="11.8401069"><ele>248.0</ele><time>2026-05-01T18:04:22.048Z</time></trkpt><trkpt lat="43.4622116" lon="11.839798"><ele>248.0</ele><time>2026-05-01T18:04:23.048Z</time></trkpt><trkpt lat="43.4621855" lon="11.8394847"><ele>247.5</ele><time>2026-05-01T18:04:24.049Z</time></trkpt><trkpt lat="43.4621588" lon="11.8391678"><ele>247.0</ele><time>2026-05-01T18:04:25.048Z</time></trkpt><trkpt lat="43.4621285" lon="11.8388514"><ele>247.5</ele><time>2026-05-01T18:04:26.048Z</time></trkpt><trkpt lat="43.4620934" lon="11.8385321"><ele>248.0</ele><time>2026-05-01T18:04:27.048Z</time></trkpt><trkpt lat="43.4620623" lon="11.8382189"><ele>248.0</ele><time>2026-05-01T18:04:28.048Z</time></trkpt><trkpt lat="43.4620343" lon="11.8379016"><ele>248.0</ele><time>2026-05-01T18:04:29.049Z</time></trkpt><trkpt lat="43.4620032" lon="11.8375859"><ele>247.0</ele><time>2026-05-01T18:04:30.048Z</time></trkpt><trkpt lat="43.4619703" lon="11.8372687"><ele>246.0</ele><time>2026-05-01T18:04:31.048Z</time></trkpt><trkpt lat="43.4619449" lon="11.8369478"><ele>244.5</ele><time>2026-05-01T18:04:32.048Z</time></trkpt><trkpt lat="43.4619177" lon="11.8366274"><ele>243.0</ele><time>2026-05-01T18:04:33.048Z</time></trkpt><trkpt lat="43.4618907" lon="11.8363065"><ele>243.0</ele><time>2026-05-01T18:04:34.048Z</time></trkpt><trkpt lat="43.461866" lon="11.835985"><ele>243.0</ele><time>2026-05-01T18:04:35.048Z</time></trkpt><trkpt lat="43.4618369" lon="11.835662"><ele>244.0</ele><time>2026-05-01T18:04:36.048Z</time></trkpt><trkpt lat="43.4618064" lon="11.835337"><ele>245.0</ele><time>2026-05-01T18:04:37.048Z</time></trkpt><trkpt lat="43.4617772" lon="11.8350172"><ele>245.0</ele><time>2026-05-01T18:04:38.048Z</time></trkpt><trkpt lat="43.4617482" lon="11.8346935"><ele>245.0</ele><time>2026-05-01T18:04:39.048Z</time></trkpt><trkpt lat="43.461716" lon="11.8343661"><ele>244.0</ele><time>2026-05-01T18:04:40.048Z</time></trkpt><trkpt lat="43.4616815" lon="11.8340399"><ele>243.0</ele><time>2026-05-01T18:04:41.049Z</time></trkpt><trkpt lat="43.4616493" lon="11.8337136"><ele>243.0</ele><time>2026-05-01T18:04:42.049Z</time></trkpt><trkpt lat="43.4616131" lon="11.8333845"><ele>243.0</ele><time>2026-05-01T18:04:43.048Z</time></trkpt><trkpt lat="43.4615805" lon="11.8330591"><ele>243.0</ele><time>2026-05-01T18:04:44.048Z</time></trkpt><trkpt lat="43.4615509" lon="11.8327318"><ele>243.0</ele><time>2026-05-01T18:04:45.048Z</time></trkpt><trkpt lat="43.4615219" lon="11.8324033"><ele>243.5</ele><time>2026-05-01T18:04:46.048Z</time></trkpt><trkpt lat="43.4614907" lon="11.8320727"><ele>244.0</ele><time>2026-05-01T18:04:47.049Z</time></trkpt><trkpt lat="43.4614596" lon="11.8317429"><ele>244.5</ele><time>2026-05-01T18:04:48.048Z</time></trkpt><trkpt lat="43.4614242" lon="11.8314162"><ele>245.0</ele><time>2026-05-01T18:04:49.048Z</time></trkpt><trkpt lat="43.4613925" lon="11.8310948"><ele>245.5</ele><time>2026-05-01T18:04:50.048Z</time></trkpt><trkpt lat="43.4613604" lon="11.8307792"><ele>246.0</ele><time>2026-05-01T18:04:51.048Z</time></trkpt><trkpt lat="43.4613295" lon="11.8304678"><ele>246.0</ele><time>2026-05-01T18:04:52.048Z</time></trkpt><trkpt lat="43.461298" lon="11.8301629"><ele>246.0</ele><time>2026-05-01T18:04:53.049Z</time></trkpt><trkpt lat="43.4612722" lon="11.8298537"><ele>246.0</ele><time>2026-05-01T18:04:54.048Z</time></trkpt><trkpt lat="43.4612453" lon="11.8295475"><ele>245.0</ele><time>2026-05-01T18:04:55.048Z</time></trkpt><trkpt lat="43.4612186" lon="11.8292413"><ele>244.0</ele><time>2026-05-01T18:04:56.048Z</time></trkpt><trkpt lat="43.4611907" lon="11.8289399"><ele>243.0</ele><time>2026-05-01T18:04:57.048Z</time></trkpt><trkpt lat="43.4611634" lon="11.8286516"><ele>243.66666666666669</ele><time>2026-05-01T18:04:58.048Z</time></trkpt><trkpt lat="43.4611394" lon="11.8283879"><ele>244.33333333333334</ele><time>2026-05-01T18:04:59.049Z</time></trkpt><trkpt lat="43.4611133" lon="11.8281471"><ele>245.0</ele><time>2026-05-01T18:05:00.048Z</time></trkpt><trkpt lat="43.4610903" lon="11.8279113"><ele>245.0</ele><time>2026-05-01T18:05:01.048Z</time></trkpt><trkpt lat="43.4610694" lon="11.8276811"><ele>245.0</ele><time>2026-05-01T18:05:02.048Z</time></trkpt><trkpt lat="43.4610444" lon="11.8274499"><ele>245.0</ele><time>2026-05-01T18:05:03.049Z</time></trkpt><trkpt lat="43.4610203" lon="11.8272275"><ele>244.66666666666669</ele><time>2026-05-01T18:05:04.048Z</time></trkpt><trkpt lat="43.460995" lon="11.8270218"><ele>244.33333333333331</ele><time>2026-05-01T18:05:05.048Z</time></trkpt><trkpt lat="43.4609699" lon="11.8268171"><ele>244.0</ele><time>2026-05-01T18:05:06.049Z</time></trkpt><trkpt lat="43.4609393" lon="11.8266106"><ele>244.0</ele><time>2026-05-01T18:05:07.048Z</time></trkpt><trkpt lat="43.4609115" lon="11.8264021"><ele>244.0</ele><time>2026-05-01T18:05:08.048Z</time></trkpt><trkpt lat="43.4608836" lon="11.8261945"><ele>244.0</ele><time>2026-05-01T18:05:09.048Z</time></trkpt><trkpt lat="43.4608525" lon="11.8259873"><ele>244.5</ele><time>2026-05-01T18:05:10.049Z</time></trkpt><trkpt lat="43.4608239" lon="11.8257963"><ele>245.0</ele><time>2026-05-01T18:05:11.048Z</time></trkpt><trkpt lat="43.4607937" lon="11.8256184"><ele>245.5</ele><time>2026-05-01T18:05:12.048Z</time></trkpt><trkpt lat="43.4607612" lon="11.8254374"><ele>246.0</ele><time>2026-05-01T18:05:13.048Z</time></trkpt><trkpt lat="43.4607311" lon="11.8252536"><ele>246.33333333333331</ele><time>2026-05-01T18:05:14.048Z</time></trkpt><trkpt lat="43.4606967" lon="11.8250587"><ele>246.66666666666666</ele><time>2026-05-01T18:05:15.048Z</time></trkpt><trkpt lat="43.460651" lon="11.8248529"><ele>247.0</ele><time>2026-05-01T18:05:16.048Z</time></trkpt><trkpt lat="43.460594" lon="11.824636"><ele>247.0</ele><time>2026-05-01T18:05:17.048Z</time></trkpt><trkpt lat="43.4605243" lon="11.8243963"><ele>247.0</ele><time>2026-05-01T18:05:18.048Z</time></trkpt><trkpt lat="43.460452" lon="11.8241518"><ele>247.0</ele><time>2026-05-01T18:05:19.048Z</time></trkpt><trkpt lat="43.4603723" lon="11.8239015"><ele>246.33333333333331</ele><time>2026-05-01T18:05:20.049Z</time></trkpt><trkpt lat="43.4602948" lon="11.8236615"><ele>245.66666666666669</ele><time>2026-05-01T18:05:21.049Z</time></trkpt><trkpt lat="43.4602127" lon="11.8234349"><ele>245.0</ele><time>2026-05-01T18:05:22.049Z</time></trkpt><trkpt lat="43.460143" lon="11.8232192"><ele>244.66666666666669</ele><time>2026-05-01T18:05:23.048Z</time></trkpt><trkpt lat="43.4600921" lon="11.8230061"><ele>244.33333333333331</ele><time>2026-05-01T18:05:24.049Z</time></trkpt><trkpt lat="43.4600607" lon="11.8227885"><ele>244.0</ele><time>2026-05-01T18:05:25.048Z</time></trkpt><trkpt lat="43.4600443" lon="11.8225709"><ele>244.0</ele><time>2026-05-01T18:05:26.048Z</time></trkpt><trkpt lat="43.460069" lon="11.822336"><ele>244.0</ele><time>2026-05-01T18:05:27.048Z</time></trkpt><trkpt lat="43.4601383" lon="11.8221278"><ele>244.0</ele><time>2026-05-01T18:05:28.049Z</time></trkpt><trkpt lat="43.4602174" lon="11.8219508"><ele>244.0</ele><time>2026-05-01T18:05:29.049Z</time></trkpt><trkpt lat="43.4602902" lon="11.8218222"><ele>243.99999999999997</ele><time>2026-05-01T18:05:30.048Z</time></trkpt><trkpt lat="43.4603547" lon="11.8217519"><ele>243.99999999999997</ele><time>2026-05-01T18:05:31.049Z</time></trkpt><trkpt lat="43.4604703" lon="11.8217559"><ele>244.0</ele><time>2026-05-01T18:05:33.048Z</time></trkpt><trkpt lat="43.4605185" lon="11.8218143"><ele>244.0</ele><time>2026-05-01T18:05:34.048Z</time></trkpt><trkpt lat="43.4605749" lon="11.8218974"><ele>244.0</ele><time>2026-05-01T18:05:35.048Z</time></trkpt><trkpt lat="43.460638" lon="11.8219884"><ele>243.99999999999997</ele><time>2026-05-01T18:05:36.049Z</time></trkpt><trkpt lat="43.4607137" lon="11.8220522"><ele>243.99999999999997</ele><time>2026-05-01T18:05:37.049Z</time></trkpt><trkpt lat="43.4608056" lon="11.8220668"><ele>244.0</ele><time>2026-05-01T18:05:38.049Z</time></trkpt><trkpt lat="43.4609012" lon="11.8220357"><ele>244.0</ele><time>2026-05-01T18:05:39.048Z</time></trkpt><trkpt lat="43.4609676" lon="11.8219462"><ele>244.0</ele><time>2026-05-01T18:05:40.049Z</time></trkpt><trkpt lat="43.4610115" lon="11.8218165"><ele>243.99999999999997</ele><time>2026-05-01T18:05:41.048Z</time></trkpt><trkpt lat="43.4610088" lon="11.8216713"><ele>243.99999999999997</ele><time>2026-05-01T18:05:42.048Z</time></trkpt><trkpt lat="43.4609618" lon="11.8215533"><ele>244.0</ele><time>2026-05-01T18:05:43.048Z</time></trkpt><trkpt lat="43.4608758" lon="11.8214601"><ele>244.0</ele><time>2026-05-01T18:05:44.048Z</time></trkpt><trkpt lat="43.4607889" lon="11.8213861"><ele>243.79999999999998</ele><time>2026-05-01T18:05:45.049Z</time></trkpt><trkpt lat="43.4607196" lon="11.8212901"><ele>243.59999999999997</ele><time>2026-05-01T18:05:46.048Z</time></trkpt><trkpt lat="43.4606775" lon="11.8211748"><ele>243.4</ele><time>2026-05-01T18:05:47.048Z</time></trkpt><trkpt lat="43.4606637" lon="11.821046"><ele>243.2</ele><time>2026-05-01T18:05:48.048Z</time></trkpt><trkpt lat="43.4606774" lon="11.8209098"><ele>243.0</ele><time>2026-05-01T18:05:49.048Z</time></trkpt><trkpt lat="43.4607162" lon="11.8207621"><ele>242.5</ele><time>2026-05-01T18:05:50.048Z</time></trkpt><trkpt lat="43.4607736" lon="11.8206199"><ele>242.0</ele><time>2026-05-01T18:05:51.048Z</time></trkpt><trkpt lat="43.46083" lon="11.8204619"><ele>241.5</ele><time>2026-05-01T18:05:52.049Z</time></trkpt><trkpt lat="43.4608891" lon="11.8202981"><ele>241.0</ele><time>2026-05-01T18:05:53.049Z</time></trkpt><trkpt lat="43.4609659" lon="11.8201044"><ele>241.0</ele><time>2026-05-01T18:05:54.048Z</time></trkpt><trkpt lat="43.4610381" lon="11.8199376"><ele>241.0</ele><time>2026-05-01T18:05:55.049Z</time></trkpt><trkpt lat="43.4611096" lon="11.8198019"><ele>241.0</ele><time>2026-05-01T18:05:56.049Z</time></trkpt><trkpt lat="43.4611711" lon="11.8196943"><ele>241.0</ele><time>2026-05-01T18:05:57.049Z</time></trkpt><trkpt lat="43.4612566" lon="11.8196349"><ele>241.20000000000002</ele><time>2026-05-01T18:05:58.048Z</time></trkpt><trkpt lat="43.4613627" lon="11.8195918"><ele>241.40000000000003</ele><time>2026-05-01T18:05:59.048Z</time></trkpt><trkpt lat="43.4614508" lon="11.8195363"><ele>241.6</ele><time>2026-05-01T18:06:00.048Z</time></trkpt><trkpt lat="43.4615188" lon="11.8194626"><ele>241.8</ele><time>2026-05-01T18:06:01.048Z</time></trkpt><trkpt lat="43.4615374" lon="11.8193461"><ele>242.0</ele><time>2026-05-01T18:06:02.048Z</time></trkpt><trkpt lat="43.461507" lon="11.8192227"><ele>242.39999999999998</ele><time>2026-05-01T18:06:03.049Z</time></trkpt><trkpt lat="43.4614417" lon="11.8191236"><ele>242.79999999999998</ele><time>2026-05-01T18:06:04.049Z</time></trkpt><trkpt lat="43.4613402" lon="11.8190735"><ele>243.2</ele><time>2026-05-01T18:06:05.048Z</time></trkpt><trkpt lat="43.4612289" lon="11.8190532"><ele>243.6</ele><time>2026-05-01T18:06:06.049Z</time></trkpt><trkpt lat="43.4611135" lon="11.8190185"><ele>244.0</ele><time>2026-05-01T18:06:07.048Z</time></trkpt><trkpt lat="43.4609914" lon="11.8189462"><ele>244.0</ele><time>2026-05-01T18:06:08.049Z</time></trkpt><trkpt lat="43.460865" lon="11.818842"><ele>244.0</ele><time>2026-05-01T18:06:09.048Z</time></trkpt><trkpt lat="43.460741" lon="11.8187194"><ele>244.0</ele><time>2026-05-01T18:06:10.048Z</time></trkpt><trkpt lat="43.4606159" lon="11.818593"><ele>244.25</ele><time>2026-05-01T18:06:11.049Z</time></trkpt><trkpt lat="43.4604872" lon="11.8184695"><ele>244.5</ele><time>2026-05-01T18:06:12.049Z</time></trkpt><trkpt lat="43.4603685" lon="11.8183607"><ele>244.75</ele><time>2026-05-01T18:06:13.049Z</time></trkpt><trkpt lat="43.4602568" lon="11.818256"><ele>245.0</ele><time>2026-05-01T18:06:14.049Z</time></trkpt><trkpt lat="43.4601606" lon="11.8181724"><ele>245.0</ele><time>2026-05-01T18:06:15.049Z</time></trkpt><trkpt lat="43.4600811" lon="11.8180899"><ele>245.0</ele><time>2026-05-01T18:06:16.049Z</time></trkpt><trkpt lat="43.4600215" lon="11.8179994"><ele>245.0</ele><time>2026-05-01T18:06:17.049Z</time></trkpt><trkpt lat="43.4599787" lon="11.8178864"><ele>245.0</ele><time>2026-05-01T18:06:18.049Z</time></trkpt><trkpt lat="43.4599608" lon="11.8177652"><ele>245.0</ele><time>2026-05-01T18:06:19.049Z</time></trkpt><trkpt lat="43.4599449" lon="11.8176523"><ele>245.16666666666669</ele><time>2026-05-01T18:06:20.048Z</time></trkpt><trkpt lat="43.4599153" lon="11.8175565"><ele>245.33333333333334</ele><time>2026-05-01T18:06:21.048Z</time></trkpt><trkpt lat="43.4598545" lon="11.8174901"><ele>245.5</ele><time>2026-05-01T18:06:22.048Z</time></trkpt><trkpt lat="43.4597823" lon="11.8174521"><ele>245.66666666666669</ele><time>2026-05-01T18:06:23.049Z</time></trkpt><trkpt lat="43.459702" lon="11.8174515"><ele>245.83333333333334</ele><time>2026-05-01T18:06:24.048Z</time></trkpt><trkpt lat="43.4596281" lon="11.8174953"><ele>246.0</ele><time>2026-05-01T18:06:25.049Z</time></trkpt><trkpt lat="43.4595552" lon="11.817561"><ele>246.0</ele><time>2026-05-01T18:06:26.048Z</time></trkpt><trkpt lat="43.4594904" lon="11.8176319"><ele>246.0</ele><time>2026-05-01T18:06:27.048Z</time></trkpt><trkpt lat="43.4594298" lon="11.8176858"><ele>246.0</ele><time>2026-05-01T18:06:28.049Z</time></trkpt><trkpt lat="43.4593639" lon="11.8177348"><ele>246.0</ele><time>2026-05-01T18:06:29.048Z</time></trkpt><trkpt lat="43.4592836" lon="11.8177878"><ele>246.0</ele><time>2026-05-01T18:06:30.048Z</time></trkpt><trkpt lat="43.4591962" lon="11.8178368"><ele>246.0</ele><time>2026-05-01T18:06:31.048Z</time></trkpt><trkpt lat="43.4591044" lon="11.8178815"><ele>245.4</ele><time>2026-05-01T18:06:32.049Z</time></trkpt><trkpt lat="43.458998" lon="11.8179278"><ele>244.8</ele><time>2026-05-01T18:06:33.048Z</time></trkpt><trkpt lat="43.4588912" lon="11.8179629"><ele>244.20000000000002</ele><time>2026-05-01T18:06:34.048Z</time></trkpt><trkpt lat="43.4587866" lon="11.8179945"><ele>243.60000000000002</ele><time>2026-05-01T18:06:35.048Z</time></trkpt><trkpt lat="43.4586874" lon="11.8179555"><ele>243.0</ele><time>2026-05-01T18:06:36.049Z</time></trkpt><trkpt lat="43.4585901" lon="11.8178998"><ele>243.0</ele><time>2026-05-01T18:06:37.049Z</time></trkpt><trkpt lat="43.4584909" lon="11.8177845"><ele>243.0</ele><time>2026-05-01T18:06:38.048Z</time></trkpt><trkpt lat="43.4584168" lon="11.8176537"><ele>243.0</ele><time>2026-05-01T18:06:39.048Z</time></trkpt><trkpt lat="43.4583664" lon="11.8175428"><ele>243.0</ele><time>2026-05-01T18:06:40.048Z</time></trkpt><trkpt lat="43.458316" lon="11.8174516"><ele>243.0</ele><time>2026-05-01T18:06:42.049Z</time></trkpt><trkpt lat="43.4582977" lon="11.8175739"><ele>243.0</ele><time>2026-05-01T18:06:45.048Z</time></trkpt><trkpt lat="43.4583449" lon="11.8176781"><ele>243.0</ele><time>2026-05-01T18:06:46.048Z</time></trkpt><trkpt lat="43.4584113" lon="11.8177889"><ele>243.0</ele><time>2026-05-01T18:06:47.048Z</time></trkpt><trkpt lat="43.4584938" lon="11.8179144"><ele>243.0</ele><time>2026-05-01T18:06:48.049Z</time></trkpt><trkpt lat="43.4585939" lon="11.8180152"><ele>243.0</ele><time>2026-05-01T18:06:49.048Z</time></trkpt><trkpt lat="43.4587201" lon="11.8180771"><ele>243.0</ele><time>2026-05-01T18:06:50.048Z</time></trkpt><trkpt lat="43.45887" lon="11.8180628"><ele>243.0</ele><time>2026-05-01T18:06:51.048Z</time></trkpt><trkpt lat="43.4590054" lon="11.8180231"><ele>243.0</ele><time>2026-05-01T18:06:52.048Z</time></trkpt><trkpt lat="43.4591357" lon="11.817948"><ele>243.0</ele><time>2026-05-01T18:06:53.048Z</time></trkpt><trkpt lat="43.4592544" lon="11.8178914"><ele>243.0</ele><time>2026-05-01T18:06:54.048Z</time></trkpt><trkpt lat="43.4593567" lon="11.8178612"><ele>243.0</ele><time>2026-05-01T18:06:55.048Z</time></trkpt><trkpt lat="43.4594704" lon="11.8178712"><ele>243.0</ele><time>2026-05-01T18:06:56.048Z</time></trkpt><trkpt lat="43.4595714" lon="11.8179122"><ele>243.0</ele><time>2026-05-01T18:06:57.049Z</time></trkpt><trkpt lat="43.4596776" lon="11.8179711"><ele>243.0</ele><time>2026-05-01T18:06:58.048Z</time></trkpt><trkpt lat="43.459768" lon="11.8179775"><ele>243.33333333333334</ele><time>2026-05-01T18:06:59.048Z</time></trkpt><trkpt lat="43.459852" lon="11.8179296"><ele>243.66666666666669</ele><time>2026-05-01T18:07:00.048Z</time></trkpt><trkpt lat="43.4599107" lon="11.8178185"><ele>244.0</ele><time>2026-05-01T18:07:01.048Z</time></trkpt><trkpt lat="43.4599269" lon="11.8177091"><ele>244.33333333333334</ele><time>2026-05-01T18:07:02.049Z</time></trkpt><trkpt lat="43.4599122" lon="11.8176092"><ele>244.66666666666669</ele><time>2026-05-01T18:07:03.048Z</time></trkpt><trkpt lat="43.4598629" lon="11.8175156"><ele>245.0</ele><time>2026-05-01T18:07:04.049Z</time></trkpt><trkpt lat="43.4597621" lon="11.8174584"><ele>245.2</ele><time>2026-05-01T18:07:05.048Z</time></trkpt><trkpt lat="43.4596561" lon="11.8174771"><ele>245.4</ele><time>2026-05-01T18:07:06.048Z</time></trkpt><trkpt lat="43.4595558" lon="11.8175408"><ele>245.60000000000002</ele><time>2026-05-01T18:07:07.049Z</time></trkpt><trkpt lat="43.4594645" lon="11.8175806"><ele>245.8</ele><time>2026-05-01T18:07:08.048Z</time></trkpt><trkpt lat="43.4593689" lon="11.8175806"><ele>246.0</ele><time>2026-05-01T18:07:09.049Z</time></trkpt><trkpt lat="43.4592705" lon="11.8175496"><ele>246.0</ele><time>2026-05-01T18:07:10.048Z</time></trkpt><trkpt lat="43.4591779" lon="11.817441"><ele>246.0</ele><time>2026-05-01T18:07:11.048Z</time></trkpt><trkpt lat="43.4590903" lon="11.8172706"><ele>246.0</ele><time>2026-05-01T18:07:12.049Z</time></trkpt><trkpt lat="43.4590272" lon="11.817081"><ele>246.0</ele><time>2026-05-01T18:07:13.048Z</time></trkpt><trkpt lat="43.4589612" lon="11.8168741"><ele>246.66666666666669</ele><time>2026-05-01T18:07:14.048Z</time></trkpt><trkpt lat="43.458886" lon="11.8166567"><ele>247.33333333333334</ele><time>2026-05-01T18:07:15.048Z</time></trkpt><trkpt lat="43.4588022" lon="11.8164288"><ele>248.0</ele><time>2026-05-01T18:07:16.048Z</time></trkpt><trkpt lat="43.458711" lon="11.816193"><ele>247.33333333333334</ele><time>2026-05-01T18:07:17.049Z</time></trkpt><trkpt lat="43.4586294" lon="11.8159709"><ele>246.66666666666669</ele><time>2026-05-01T18:07:18.048Z</time></trkpt><trkpt lat="43.4585587" lon="11.8157709"><ele>246.0</ele><time>2026-05-01T18:07:19.048Z</time></trkpt><trkpt lat="43.4584981" lon="11.815597"><ele>246.0</ele><time>2026-05-01T18:07:20.048Z</time></trkpt><trkpt lat="43.4584288" lon="11.8154383"><ele>246.0</ele><time>2026-05-01T18:07:21.048Z</time></trkpt><trkpt lat="43.4583673" lon="11.8152701"><ele>246.0</ele><time>2026-05-01T18:07:22.048Z</time></trkpt><trkpt lat="43.4582975" lon="11.8150839"><ele>246.0</ele><time>2026-05-01T18:07:23.048Z</time></trkpt><trkpt lat="43.4582262" lon="11.814897"><ele>246.0</ele><time>2026-05-01T18:07:24.049Z</time></trkpt><trkpt lat="43.4581482" lon="11.8147043"><ele>246.0</ele><time>2026-05-01T18:07:25.048Z</time></trkpt><trkpt lat="43.4580656" lon="11.8145131"><ele>246.0</ele><time>2026-05-01T18:07:26.048Z</time></trkpt><trkpt lat="43.4579764" lon="11.8143131"><ele>245.66666666666669</ele><time>2026-05-01T18:07:27.048Z</time></trkpt><trkpt lat="43.4578758" lon="11.8141104"><ele>245.33333333333334</ele><time>2026-05-01T18:07:28.048Z</time></trkpt><trkpt lat="43.4577686" lon="11.8138984"><ele>245.0</ele><time>2026-05-01T18:07:29.048Z</time></trkpt><trkpt lat="43.4576447" lon="11.8136754"><ele>244.66666666666669</ele><time>2026-05-01T18:07:30.048Z</time></trkpt><trkpt lat="43.4575061" lon="11.8134485"><ele>244.33333333333331</ele><time>2026-05-01T18:07:31.048Z</time></trkpt><trkpt lat="43.457368" lon="11.8132272"><ele>244.0</ele><time>2026-05-01T18:07:32.049Z</time></trkpt><trkpt lat="43.4572354" lon="11.8130179"><ele>244.0</ele><time>2026-05-01T18:07:33.049Z</time></trkpt><trkpt lat="43.4571109" lon="11.8128208"><ele>244.0</ele><time>2026-05-01T18:07:34.049Z</time></trkpt><trkpt lat="43.4569847" lon="11.8126353"><ele>244.0</ele><time>2026-05-01T18:07:35.048Z</time></trkpt><trkpt lat="43.4568598" lon="11.8124535"><ele>244.0</ele><time>2026-05-01T18:07:36.048Z</time></trkpt><trkpt lat="43.4567329" lon="11.8122745"><ele>244.0</ele><time>2026-05-01T18:07:37.048Z</time></trkpt><trkpt lat="43.4566037" lon="11.8121002"><ele>244.0</ele><time>2026-05-01T18:07:38.048Z</time></trkpt><trkpt lat="43.4564793" lon="11.8119275"><ele>244.0</ele><time>2026-05-01T18:07:39.048Z</time></trkpt><trkpt lat="43.4563533" lon="11.8117581"><ele>244.0</ele><time>2026-05-01T18:07:40.048Z</time></trkpt><trkpt lat="43.4562303" lon="11.8115897"><ele>244.0</ele><time>2026-05-01T18:07:41.048Z</time></trkpt><trkpt lat="43.4561117" lon="11.8114275"><ele>244.0</ele><time>2026-05-01T18:07:42.048Z</time></trkpt><trkpt lat="43.4559931" lon="11.8112679"><ele>244.0</ele><time>2026-05-01T18:07:43.048Z</time></trkpt><trkpt lat="43.4558703" lon="11.8111045"><ele>244.0</ele><time>2026-05-01T18:07:44.048Z</time></trkpt><trkpt lat="43.4557459" lon="11.8109377"><ele>244.66666666666666</ele><time>2026-05-01T18:07:45.048Z</time></trkpt><trkpt lat="43.4556208" lon="11.8107695"><ele>245.33333333333331</ele><time>2026-05-01T18:07:46.049Z</time></trkpt><trkpt lat="43.455495" lon="11.8106105"><ele>246.0</ele><time>2026-05-01T18:07:47.048Z</time></trkpt><trkpt lat="43.4553654" lon="11.8104366"><ele>246.0</ele><time>2026-05-01T18:07:48.048Z</time></trkpt><trkpt lat="43.4552366" lon="11.8102648"><ele>246.0</ele><time>2026-05-01T18:07:49.048Z</time></trkpt><trkpt lat="43.4551097" lon="11.8100982"><ele>246.0</ele><time>2026-05-01T18:07:50.049Z</time></trkpt><trkpt lat="43.4549858" lon="11.8099289"><ele>246.0</ele><time>2026-05-01T18:07:51.049Z</time></trkpt><trkpt lat="43.4548596" lon="11.8097577"><ele>246.0</ele><time>2026-05-01T18:07:52.049Z</time></trkpt><trkpt lat="43.4547333" lon="11.8095891"><ele>246.0</ele><time>2026-05-01T18:07:53.049Z</time></trkpt><trkpt lat="43.4546039" lon="11.8094185"><ele>245.66666666666669</ele><time>2026-05-01T18:07:54.048Z</time></trkpt><trkpt lat="43.4544806" lon="11.8092433"><ele>245.33333333333334</ele><time>2026-05-01T18:07:55.048Z</time></trkpt><trkpt lat="43.4543548" lon="11.8090758"><ele>245.0</ele><time>2026-05-01T18:07:56.049Z</time></trkpt><trkpt lat="43.4542264" lon="11.8089066"><ele>245.0</ele><time>2026-05-01T18:07:57.048Z</time></trkpt><trkpt lat="43.4540947" lon="11.8087358"><ele>245.0</ele><time>2026-05-01T18:07:58.049Z</time></trkpt><trkpt lat="43.4539614" lon="11.8085589"><ele>245.0</ele><time>2026-05-01T18:07:59.048Z</time></trkpt><trkpt lat="43.4538224" lon="11.8083829"><ele>245.33333333333334</ele><time>2026-05-01T18:08:00.048Z</time></trkpt><trkpt lat="43.4536922" lon="11.8082131"><ele>245.66666666666669</ele><time>2026-05-01T18:08:01.048Z</time></trkpt><trkpt lat="43.4535654" lon="11.8080428"><ele>246.0</ele><time>2026-05-01T18:08:02.048Z</time></trkpt><trkpt lat="43.4534397" lon="11.807872"><ele>246.0</ele><time>2026-05-01T18:08:03.048Z</time></trkpt><trkpt lat="43.4533161" lon="11.807701"><ele>246.0</ele><time>2026-05-01T18:08:04.048Z</time></trkpt><trkpt lat="43.4531946" lon="11.8075326"><ele>246.0</ele><time>2026-05-01T18:08:05.048Z</time></trkpt><trkpt lat="43.453072" lon="11.8073608"><ele>245.66666666666669</ele><time>2026-05-01T18:08:06.048Z</time></trkpt><trkpt lat="43.4529441" lon="11.8071859"><ele>245.33333333333334</ele><time>2026-05-01T18:08:07.049Z</time></trkpt><trkpt lat="43.4528121" lon="11.8070085"><ele>245.0</ele><time>2026-05-01T18:08:08.048Z</time></trkpt><trkpt lat="43.4526811" lon="11.8068294"><ele>245.33333333333334</ele><time>2026-05-01T18:08:09.048Z</time></trkpt><trkpt lat="43.4525484" lon="11.806647"><ele>245.66666666666669</ele><time>2026-05-01T18:08:10.048Z</time></trkpt><trkpt lat="43.4524104" lon="11.8064603"><ele>246.0</ele><time>2026-05-01T18:08:11.048Z</time></trkpt><trkpt lat="43.4522727" lon="11.8062711"><ele>246.0</ele><time>2026-05-01T18:08:12.048Z</time></trkpt><trkpt lat="43.4521296" lon="11.8060856"><ele>246.0</ele><time>2026-05-01T18:08:13.049Z</time></trkpt><trkpt lat="43.4519835" lon="11.8058996"><ele>246.0</ele><time>2026-05-01T18:08:14.048Z</time></trkpt><trkpt lat="43.4518427" lon="11.8057104"><ele>246.33333333333331</ele><time>2026-05-01T18:08:15.048Z</time></trkpt><trkpt lat="43.4517027" lon="11.8055195"><ele>246.66666666666666</ele><time>2026-05-01T18:08:16.048Z</time></trkpt><trkpt lat="43.4515639" lon="11.8053331"><ele>247.0</ele><time>2026-05-01T18:08:17.048Z</time></trkpt><trkpt lat="43.451427" lon="11.8051409"><ele>247.33333333333331</ele><time>2026-05-01T18:08:18.048Z</time></trkpt><trkpt lat="43.4512914" lon="11.8049556"><ele>247.66666666666669</ele><time>2026-05-01T18:08:19.048Z</time></trkpt><trkpt lat="43.4511556" lon="11.8047757"><ele>248.0</ele><time>2026-05-01T18:08:20.048Z</time></trkpt><trkpt lat="43.4510307" lon="11.8046102"><ele>248.0</ele><time>2026-05-01T18:08:21.048Z</time></trkpt><trkpt lat="43.45091" lon="11.8044442"><ele>248.0</ele><time>2026-05-01T18:08:22.048Z</time></trkpt><trkpt lat="43.4507903" lon="11.8042746"><ele>248.0</ele><time>2026-05-01T18:08:23.048Z</time></trkpt><trkpt lat="43.4506706" lon="11.8041124"><ele>248.0</ele><time>2026-05-01T18:08:24.048Z</time></trkpt><trkpt lat="43.4505595" lon="11.8039525"><ele>248.0</ele><time>2026-05-01T18:08:25.048Z</time></trkpt><trkpt lat="43.4504529" lon="11.8038074"><ele>248.0</ele><time>2026-05-01T18:08:26.048Z</time></trkpt><trkpt lat="43.4503453" lon="11.8036661"><ele>247.66666666666669</ele><time>2026-05-01T18:08:27.048Z</time></trkpt><trkpt lat="43.4502414" lon="11.8035193"><ele>247.33333333333331</ele><time>2026-05-01T18:08:28.049Z</time></trkpt><trkpt lat="43.4501379" lon="11.8033728"><ele>247.0</ele><time>2026-05-01T18:08:29.048Z</time></trkpt><trkpt lat="43.4500276" lon="11.8032189"><ele>247.0</ele><time>2026-05-01T18:08:30.049Z</time></trkpt><trkpt lat="43.4499107" lon="11.8030635"><ele>247.0</ele><time>2026-05-01T18:08:31.048Z</time></trkpt><trkpt lat="43.4497878" lon="11.8029022"><ele>247.0</ele><time>2026-05-01T18:08:32.048Z</time></trkpt><trkpt lat="43.4496635" lon="11.8027404"><ele>247.33333333333331</ele><time>2026-05-01T18:08:33.049Z</time></trkpt><trkpt lat="43.4495414" lon="11.8025745"><ele>247.66666666666669</ele><time>2026-05-01T18:08:34.05Z</time></trkpt><trkpt lat="43.4494192" lon="11.8024047"><ele>248.0</ele><time>2026-05-01T18:08:35.049Z</time></trkpt><trkpt lat="43.4492954" lon="11.8022367"><ele>248.0</ele><time>2026-05-01T18:08:36.05Z</time></trkpt><trkpt lat="43.4491685" lon="11.8020691"><ele>248.0</ele><time>2026-05-01T18:08:37.049Z</time></trkpt><trkpt lat="43.4490402" lon="11.8018949"><ele>248.0</ele><time>2026-05-01T18:08:38.049Z</time></trkpt><trkpt lat="43.448914" lon="11.8017229"><ele>248.0</ele><time>2026-05-01T18:08:39.05Z</time></trkpt><trkpt lat="43.448787" lon="11.8015503"><ele>248.0</ele><time>2026-05-01T18:08:40.049Z</time></trkpt><trkpt lat="43.448655" lon="11.8013775"><ele>248.0</ele><time>2026-05-01T18:08:41.049Z</time></trkpt><trkpt lat="43.4485231" lon="11.8011987"><ele>248.0</ele><time>2026-05-01T18:08:42.049Z</time></trkpt><trkpt lat="43.4483933" lon="11.8010292"><ele>248.0</ele><time>2026-05-01T18:08:43.05Z</time></trkpt><trkpt lat="43.4482617" lon="11.8008508"><ele>248.0</ele><time>2026-05-01T18:08:44.049Z</time></trkpt><trkpt lat="43.4481297" lon="11.800675"><ele>247.66666666666669</ele><time>2026-05-01T18:08:45.05Z</time></trkpt><trkpt lat="43.4479965" lon="11.8005014"><ele>247.33333333333331</ele><time>2026-05-01T18:08:46.049Z</time></trkpt><trkpt lat="43.4478668" lon="11.8003268"><ele>247.0</ele><time>2026-05-01T18:08:47.049Z</time></trkpt><trkpt lat="43.4477385" lon="11.8001548"><ele>246.66666666666666</ele><time>2026-05-01T18:08:48.049Z</time></trkpt><trkpt lat="43.4476118" lon="11.7999862"><ele>246.33333333333331</ele><time>2026-05-01T18:08:49.049Z</time></trkpt><trkpt lat="43.4474826" lon="11.7998135"><ele>246.0</ele><time>2026-05-01T18:08:50.049Z</time></trkpt><trkpt lat="43.4473501" lon="11.7996364"><ele>246.0</ele><time>2026-05-01T18:08:51.05Z</time></trkpt><trkpt lat="43.4472127" lon="11.7994494"><ele>246.0</ele><time>2026-05-01T18:08:52.049Z</time></trkpt><trkpt lat="43.4470727" lon="11.7992554"><ele>246.0</ele><time>2026-05-01T18:08:53.049Z</time></trkpt><trkpt lat="43.4469259" lon="11.7990613"><ele>246.66666666666669</ele><time>2026-05-01T18:08:54.049Z</time></trkpt><trkpt lat="43.4467758" lon="11.7988611"><ele>247.33333333333334</ele><time>2026-05-01T18:08:55.049Z</time></trkpt><trkpt lat="43.4466232" lon="11.7986601"><ele>248.0</ele><time>2026-05-01T18:08:56.049Z</time></trkpt><trkpt lat="43.4464673" lon="11.7984536"><ele>248.0</ele><time>2026-05-01T18:08:57.049Z</time></trkpt><trkpt lat="43.4463094" lon="11.798242"><ele>248.0</ele><time>2026-05-01T18:08:58.049Z</time></trkpt><trkpt lat="43.4461498" lon="11.7980283"><ele>248.0</ele><time>2026-05-01T18:08:59.05Z</time></trkpt><trkpt lat="43.4459879" lon="11.7978118"><ele>249.0</ele><time>2026-05-01T18:09:00.05Z</time></trkpt><trkpt lat="43.445821" lon="11.7975898"><ele>250.0</ele><time>2026-05-01T18:09:01.05Z</time></trkpt><trkpt lat="43.4456552" lon="11.7973654"><ele>250.0</ele><time>2026-05-01T18:09:02.049Z</time></trkpt><trkpt lat="43.4454866" lon="11.7971424"><ele>250.0</ele><time>2026-05-01T18:09:03.049Z</time></trkpt><trkpt lat="43.4453199" lon="11.7969186"><ele>250.0</ele><time>2026-05-01T18:09:04.049Z</time></trkpt><trkpt lat="43.4451552" lon="11.7966934"><ele>250.0</ele><time>2026-05-01T18:09:05.05Z</time></trkpt><trkpt lat="43.4449882" lon="11.7964665"><ele>250.0</ele><time>2026-05-01T18:09:06.049Z</time></trkpt><trkpt lat="43.4448216" lon="11.7962366"><ele>250.0</ele><time>2026-05-01T18:09:07.049Z</time></trkpt><trkpt lat="43.4446565" lon="11.7960077"><ele>249.5</ele><time>2026-05-01T18:09:08.049Z</time></trkpt><trkpt lat="43.4444903" lon="11.7957757"><ele>249.0</ele><time>2026-05-01T18:09:09.049Z</time></trkpt><trkpt lat="43.4443349" lon="11.7955353"><ele>249.0</ele><time>2026-05-01T18:09:10.05Z</time></trkpt><trkpt lat="43.4441893" lon="11.7952868"><ele>249.0</ele><time>2026-05-01T18:09:11.05Z</time></trkpt><trkpt lat="43.4440407" lon="11.7950409"><ele>249.0</ele><time>2026-05-01T18:09:12.05Z</time></trkpt><trkpt lat="43.4438991" lon="11.7947906"><ele>249.0</ele><time>2026-05-01T18:09:13.049Z</time></trkpt><trkpt lat="43.4437612" lon="11.7945244"><ele>251.0</ele><time>2026-05-01T18:09:14.049Z</time></trkpt><trkpt lat="43.4436299" lon="11.7942612"><ele>253.0</ele><time>2026-05-01T18:09:15.049Z</time></trkpt><trkpt lat="43.4435068" lon="11.7939917"><ele>253.0</ele><time>2026-05-01T18:09:16.049Z</time></trkpt><trkpt lat="43.4433907" lon="11.793713"><ele>253.0</ele><time>2026-05-01T18:09:17.049Z</time></trkpt><trkpt lat="43.4432763" lon="11.7934349"><ele>253.0</ele><time>2026-05-01T18:09:18.049Z</time></trkpt><trkpt lat="43.4431655" lon="11.7931531"><ele>253.0</ele><time>2026-05-01T18:09:19.049Z</time></trkpt><trkpt lat="43.443053" lon="11.792877"><ele>254.5</ele><time>2026-05-01T18:09:20.05Z</time></trkpt><trkpt lat="43.4429449" lon="11.7925932"><ele>256.0</ele><time>2026-05-01T18:09:21.049Z</time></trkpt><trkpt lat="43.4428377" lon="11.7923037"><ele>256.0</ele><time>2026-05-01T18:09:22.049Z</time></trkpt><trkpt lat="43.4427292" lon="11.7920212"><ele>256.0</ele><time>2026-05-01T18:09:23.049Z</time></trkpt><trkpt lat="43.4426188" lon="11.7917408"><ele>256.0</ele><time>2026-05-01T18:09:24.05Z</time></trkpt><trkpt lat="43.4425079" lon="11.7914594"><ele>256.0</ele><time>2026-05-01T18:09:25.05Z</time></trkpt><trkpt lat="43.4424009" lon="11.7911757"><ele>256.5</ele><time>2026-05-01T18:09:26.049Z</time></trkpt><trkpt lat="43.4422916" lon="11.7908963"><ele>257.0</ele><time>2026-05-01T18:09:27.049Z</time></trkpt><trkpt lat="43.4421859" lon="11.7906128"><ele>257.5</ele><time>2026-05-01T18:09:28.049Z</time></trkpt><trkpt lat="43.4420803" lon="11.7903379"><ele>258.0</ele><time>2026-05-01T18:09:29.05Z</time></trkpt><trkpt lat="43.4419737" lon="11.7900607"><ele>259.5</ele><time>2026-05-01T18:09:30.049Z</time></trkpt><trkpt lat="43.4418685" lon="11.7897846"><ele>261.0</ele><time>2026-05-01T18:09:31.049Z</time></trkpt><trkpt lat="43.4417616" lon="11.7895088"><ele>262.6666666666667</ele><time>2026-05-01T18:09:32.049Z</time></trkpt><trkpt lat="43.4416581" lon="11.7892368"><ele>264.33333333333337</ele><time>2026-05-01T18:09:33.049Z</time></trkpt><trkpt lat="43.4415486" lon="11.7889643"><ele>266.0</ele><time>2026-05-01T18:09:34.05Z</time></trkpt><trkpt lat="43.4414468" lon="11.7886892"><ele>268.0</ele><time>2026-05-01T18:09:35.05Z</time></trkpt><trkpt lat="43.4413388" lon="11.7884147"><ele>270.0</ele><time>2026-05-01T18:09:36.05Z</time></trkpt><trkpt lat="43.441233" lon="11.7881403"><ele>270.0</ele><time>2026-05-01T18:09:37.05Z</time></trkpt><trkpt lat="43.4411321" lon="11.7878646"><ele>270.0</ele><time>2026-05-01T18:09:38.05Z</time></trkpt><trkpt lat="43.4410274" lon="11.78759"><ele>270.0</ele><time>2026-05-01T18:09:39.049Z</time></trkpt><trkpt lat="43.4409196" lon="11.7873133"><ele>272.5</ele><time>2026-05-01T18:09:40.049Z</time></trkpt><trkpt lat="43.4408174" lon="11.7870338"><ele>275.0</ele><time>2026-05-01T18:09:41.05Z</time></trkpt><trkpt lat="43.4407115" lon="11.7867587"><ele>275.0</ele><time>2026-05-01T18:09:42.05Z</time></trkpt><trkpt lat="43.4406005" lon="11.7864844"><ele>275.0</ele><time>2026-05-01T18:09:43.05Z</time></trkpt><trkpt lat="43.4404904" lon="11.7862064"><ele>273.0</ele><time>2026-05-01T18:09:44.049Z</time></trkpt><trkpt lat="43.4403789" lon="11.7859314"><ele>271.0</ele><time>2026-05-01T18:09:45.05Z</time></trkpt><trkpt lat="43.4402686" lon="11.7856533"><ele>271.0</ele><time>2026-05-01T18:09:46.049Z</time></trkpt><trkpt lat="43.4401599" lon="11.7853783"><ele>271.0</ele><time>2026-05-01T18:09:47.05Z</time></trkpt><trkpt lat="43.4400557" lon="11.7851119"><ele>271.0</ele><time>2026-05-01T18:09:48.049Z</time></trkpt><trkpt lat="43.439956" lon="11.7848549"><ele>269.3333333333333</ele><time>2026-05-01T18:09:49.049Z</time></trkpt><trkpt lat="43.4398627" lon="11.7846084"><ele>267.6666666666667</ele><time>2026-05-01T18:09:50.049Z</time></trkpt><trkpt lat="43.4397638" lon="11.7843561"><ele>266.0</ele><time>2026-05-01T18:09:51.049Z</time></trkpt><trkpt lat="43.4396631" lon="11.7841096"><ele>265.33333333333337</ele><time>2026-05-01T18:09:52.049Z</time></trkpt><trkpt lat="43.4395605" lon="11.7838572"><ele>264.6666666666667</ele><time>2026-05-01T18:09:53.049Z</time></trkpt><trkpt lat="43.4394596" lon="11.7836052"><ele>264.0</ele><time>2026-05-01T18:09:54.049Z</time></trkpt><trkpt lat="43.4393607" lon="11.7833485"><ele>263.6666666666667</ele><time>2026-05-01T18:09:55.049Z</time></trkpt><trkpt lat="43.4392625" lon="11.7830849"><ele>263.33333333333337</ele><time>2026-05-01T18:09:56.049Z</time></trkpt><trkpt lat="43.4391694" lon="11.7828286"><ele>263.0</ele><time>2026-05-01T18:09:57.049Z</time></trkpt><trkpt lat="43.439072" lon="11.7825697"><ele>263.0</ele><time>2026-05-01T18:09:58.049Z</time></trkpt><trkpt lat="43.4389812" lon="11.7822957"><ele>263.0</ele><time>2026-05-01T18:09:59.049Z</time></trkpt><trkpt lat="43.4388909" lon="11.7820276"><ele>263.0</ele><time>2026-05-01T18:10:00.049Z</time></trkpt><trkpt lat="43.4388065" lon="11.7817677"><ele>262.6666666666667</ele><time>2026-05-01T18:10:01.049Z</time></trkpt><trkpt lat="43.4387238" lon="11.7815106"><ele>262.3333333333333</ele><time>2026-05-01T18:10:02.049Z</time></trkpt><trkpt lat="43.43864" lon="11.7812528"><ele>262.0</ele><time>2026-05-01T18:10:03.05Z</time></trkpt><trkpt lat="43.4385565" lon="11.7809921"><ele>262.0</ele><time>2026-05-01T18:10:04.049Z</time></trkpt><trkpt lat="43.4384832" lon="11.7807462"><ele>262.0</ele><time>2026-05-01T18:10:05.049Z</time></trkpt><trkpt lat="43.4384112" lon="11.7805221"><ele>262.0</ele><time>2026-05-01T18:10:06.049Z</time></trkpt><trkpt lat="43.4383466" lon="11.7803044"><ele>261.66666666666663</ele><time>2026-05-01T18:10:07.049Z</time></trkpt><trkpt lat="43.4382887" lon="11.7800876"><ele>261.3333333333333</ele><time>2026-05-01T18:10:08.049Z</time></trkpt><trkpt lat="43.4382283" lon="11.7798748"><ele>261.0</ele><time>2026-05-01T18:10:09.049Z</time></trkpt><trkpt lat="43.4381774" lon="11.7796646"><ele>261.0</ele><time>2026-05-01T18:10:10.049Z</time></trkpt><trkpt lat="43.4381315" lon="11.7794717"><ele>261.0</ele><time>2026-05-01T18:10:11.049Z</time></trkpt><trkpt lat="43.4380947" lon="11.7792792"><ele>261.0</ele><time>2026-05-01T18:10:12.049Z</time></trkpt><trkpt lat="43.4380716" lon="11.7791053"><ele>261.0</ele><time>2026-05-01T18:10:13.049Z</time></trkpt><trkpt lat="43.4380554" lon="11.7789534"><ele>261.2</ele><time>2026-05-01T18:10:14.049Z</time></trkpt><trkpt lat="43.4380504" lon="11.7788144"><ele>261.40000000000003</ele><time>2026-05-01T18:10:15.049Z</time></trkpt><trkpt lat="43.4380718" lon="11.7786961"><ele>261.6</ele><time>2026-05-01T18:10:16.049Z</time></trkpt><trkpt lat="43.4381084" lon="11.778574"><ele>261.8</ele><time>2026-05-01T18:10:17.049Z</time></trkpt><trkpt lat="43.4381464" lon="11.778456"><ele>262.0</ele><time>2026-05-01T18:10:18.049Z</time></trkpt><trkpt lat="43.4381745" lon="11.7783292"><ele>262.2</ele><time>2026-05-01T18:10:19.049Z</time></trkpt><trkpt lat="43.438194" lon="11.7781869"><ele>262.4</ele><time>2026-05-01T18:10:20.05Z</time></trkpt><trkpt lat="43.4382231" lon="11.7780323"><ele>262.6</ele><time>2026-05-01T18:10:21.049Z</time></trkpt><trkpt lat="43.4382682" lon="11.7778875"><ele>262.8</ele><time>2026-05-01T18:10:22.049Z</time></trkpt><trkpt lat="43.4383215" lon="11.7777637"><ele>263.0</ele><time>2026-05-01T18:10:23.049Z</time></trkpt><trkpt lat="43.4383831" lon="11.7776564"><ele>263.2857142857143</ele><time>2026-05-01T18:10:24.049Z</time></trkpt><trkpt lat="43.4384426" lon="11.7775628"><ele>263.57142857142856</ele><time>2026-05-01T18:10:25.049Z</time></trkpt><trkpt lat="43.4384744" lon="11.7774877"><ele>263.85714285714283</ele><time>2026-05-01T18:10:26.049Z</time></trkpt><trkpt lat="43.4385146" lon="11.7774181"><ele>264.1428571428571</ele><time>2026-05-01T18:10:28.049Z</time></trkpt><trkpt lat="43.4385391" lon="11.7773244"><ele>264.42857142857144</ele><time>2026-05-01T18:10:50.049Z</time></trkpt><trkpt lat="43.438602" lon="11.7772536"><ele>264.71428571428567</ele><time>2026-05-01T18:10:52.049Z</time></trkpt><trkpt lat="43.4386513" lon="11.7771837"><ele>265.0</ele><time>2026-05-01T18:10:53.049Z</time></trkpt><trkpt lat="43.4387243" lon="11.7770764"><ele>265.0</ele><time>2026-05-01T18:10:54.049Z</time></trkpt><trkpt lat="43.4387951" lon="11.7769651"><ele>265.0</ele><time>2026-05-01T18:10:55.049Z</time></trkpt><trkpt lat="43.438879" lon="11.7768214"><ele>265.0</ele><time>2026-05-01T18:10:56.05Z</time></trkpt><trkpt lat="43.4389582" lon="11.776667"><ele>265.0</ele><time>2026-05-01T18:10:57.049Z</time></trkpt><trkpt lat="43.4390375" lon="11.7764975"><ele>265.0</ele><time>2026-05-01T18:10:58.049Z</time></trkpt><trkpt lat="43.4391168" lon="11.776316"><ele>265.0</ele><time>2026-05-01T18:10:59.05Z</time></trkpt><trkpt lat="43.4391949" lon="11.7761366"><ele>265.0</ele><time>2026-05-01T18:11:00.049Z</time></trkpt><trkpt lat="43.4392782" lon="11.7759564"><ele>265.66666666666663</ele><time>2026-05-01T18:11:01.049Z</time></trkpt><trkpt lat="43.4393613" lon="11.7757756"><ele>266.3333333333333</ele><time>2026-05-01T18:11:02.049Z</time></trkpt><trkpt lat="43.4394457" lon="11.7755861"><ele>267.0</ele><time>2026-05-01T18:11:03.049Z</time></trkpt><trkpt lat="43.439536" lon="11.7753958"><ele>267.0</ele><time>2026-05-01T18:11:04.049Z</time></trkpt><trkpt lat="43.4396419" lon="11.7752145"><ele>267.0</ele><time>2026-05-01T18:11:05.049Z</time></trkpt><trkpt lat="43.439767" lon="11.7750687"><ele>267.0</ele><time>2026-05-01T18:11:06.05Z</time></trkpt><trkpt lat="43.4398988" lon="11.7749309"><ele>267.0</ele><time>2026-05-01T18:11:07.049Z</time></trkpt><trkpt lat="43.4400425" lon="11.7748096"><ele>267.0</ele><time>2026-05-01T18:11:08.049Z</time></trkpt><trkpt lat="43.4401926" lon="11.7747012"><ele>267.0</ele><time>2026-05-01T18:11:09.049Z</time></trkpt><trkpt lat="43.4403467" lon="11.7745909"><ele>266.6666666666667</ele><time>2026-05-01T18:11:10.05Z</time></trkpt><trkpt lat="43.4405089" lon="11.7744771"><ele>266.33333333333337</ele><time>2026-05-01T18:11:11.05Z</time></trkpt><trkpt lat="43.4406748" lon="11.7743585"><ele>266.0</ele><time>2026-05-01T18:11:12.05Z</time></trkpt><trkpt lat="43.4408485" lon="11.774223"><ele>266.6666666666667</ele><time>2026-05-01T18:11:13.049Z</time></trkpt><trkpt lat="43.4410233" lon="11.7740886"><ele>267.3333333333333</ele><time>2026-05-01T18:11:14.049Z</time></trkpt><trkpt lat="43.4412032" lon="11.7739476"><ele>268.0</ele><time>2026-05-01T18:11:15.049Z</time></trkpt><trkpt lat="43.4413925" lon="11.7738037"><ele>268.0</ele><time>2026-05-01T18:11:16.049Z</time></trkpt><trkpt lat="43.4415679" lon="11.7736534"><ele>268.0</ele><time>2026-05-01T18:11:17.049Z</time></trkpt><trkpt lat="43.4417432" lon="11.7734939"><ele>268.0</ele><time>2026-05-01T18:11:18.05Z</time></trkpt><trkpt lat="43.4419202" lon="11.7733223"><ele>268.0</ele><time>2026-05-01T18:11:19.049Z</time></trkpt><trkpt lat="43.4420975" lon="11.7731518"><ele>268.0</ele><time>2026-05-01T18:11:20.049Z</time></trkpt><trkpt lat="43.4422742" lon="11.7729818"><ele>268.0</ele><time>2026-05-01T18:11:21.049Z</time></trkpt><trkpt lat="43.4424448" lon="11.7727907"><ele>268.66666666666663</ele><time>2026-05-01T18:11:22.049Z</time></trkpt><trkpt lat="43.442615" lon="11.7726006"><ele>269.3333333333333</ele><time>2026-05-01T18:11:23.049Z</time></trkpt><trkpt lat="43.4427829" lon="11.7724057"><ele>270.0</ele><time>2026-05-01T18:11:24.049Z</time></trkpt><trkpt lat="43.4429516" lon="11.7722099"><ele>270.0</ele><time>2026-05-01T18:11:25.049Z</time></trkpt><trkpt lat="43.4431147" lon="11.7720072"><ele>270.0</ele><time>2026-05-01T18:11:26.049Z</time></trkpt><trkpt lat="43.4432762" lon="11.771796"><ele>270.0</ele><time>2026-05-01T18:11:27.049Z</time></trkpt><trkpt lat="43.44343" lon="11.7715816"><ele>270.0</ele><time>2026-05-01T18:11:28.05Z</time></trkpt><trkpt lat="43.4435845" lon="11.771367"><ele>270.0</ele><time>2026-05-01T18:11:29.049Z</time></trkpt><trkpt lat="43.4437415" lon="11.771147"><ele>270.0</ele><time>2026-05-01T18:11:30.05Z</time></trkpt><trkpt lat="43.4438997" lon="11.7709197"><ele>271.0</ele><time>2026-05-01T18:11:31.049Z</time></trkpt><trkpt lat="43.44406" lon="11.770693"><ele>272.0</ele><time>2026-05-01T18:11:32.049Z</time></trkpt><trkpt lat="43.4442208" lon="11.7704678"><ele>272.0</ele><time>2026-05-01T18:11:33.05Z</time></trkpt><trkpt lat="43.4443831" lon="11.7702392"><ele>272.0</ele><time>2026-05-01T18:11:34.049Z</time></trkpt><trkpt lat="43.4445486" lon="11.7700025"><ele>271.0</ele><time>2026-05-01T18:11:35.049Z</time></trkpt><trkpt lat="43.444714" lon="11.7697715"><ele>270.0</ele><time>2026-05-01T18:11:36.049Z</time></trkpt><trkpt lat="43.4448787" lon="11.7695425"><ele>271.0</ele><time>2026-05-01T18:11:37.05Z</time></trkpt><trkpt lat="43.445048" lon="11.7693078"><ele>272.0</ele><time>2026-05-01T18:11:38.049Z</time></trkpt><trkpt lat="43.4452178" lon="11.7690746"><ele>272.0</ele><time>2026-05-01T18:11:39.049Z</time></trkpt><trkpt lat="43.4453873" lon="11.7688412"><ele>272.0</ele><time>2026-05-01T18:11:40.049Z</time></trkpt><trkpt lat="43.4455577" lon="11.7686023"><ele>274.0</ele><time>2026-05-01T18:11:41.05Z</time></trkpt><trkpt lat="43.4457252" lon="11.7683656"><ele>276.0</ele><time>2026-05-01T18:11:42.049Z</time></trkpt><trkpt lat="43.4458889" lon="11.7681277"><ele>276.0</ele><time>2026-05-01T18:11:43.05Z</time></trkpt><trkpt lat="43.4460434" lon="11.767878"><ele>276.0</ele><time>2026-05-01T18:11:44.049Z</time></trkpt><trkpt lat="43.4461977" lon="11.76763"><ele>281.0</ele><time>2026-05-01T18:11:45.049Z</time></trkpt><trkpt lat="43.4463481" lon="11.7673763"><ele>286.0</ele><time>2026-05-01T18:11:46.05Z</time></trkpt><trkpt lat="43.4464866" lon="11.7671128"><ele>283.0</ele><time>2026-05-01T18:11:47.049Z</time></trkpt><trkpt lat="43.4466201" lon="11.7668434"><ele>280.0</ele><time>2026-05-01T18:11:48.05Z</time></trkpt><trkpt lat="43.4467519" lon="11.766572"><ele>280.0</ele><time>2026-05-01T18:11:49.049Z</time></trkpt><trkpt lat="43.4468783" lon="11.7662957"><ele>280.0</ele><time>2026-05-01T18:11:50.05Z</time></trkpt><trkpt lat="43.4470017" lon="11.7660123"><ele>278.5</ele><time>2026-05-01T18:11:51.049Z</time></trkpt><trkpt lat="43.4471194" lon="11.7657278"><ele>277.0</ele><time>2026-05-01T18:11:52.05Z</time></trkpt><trkpt lat="43.4472323" lon="11.7654377"><ele>280.0</ele><time>2026-05-01T18:11:53.05Z</time></trkpt><trkpt lat="43.4473405" lon="11.7651445"><ele>283.0</ele><time>2026-05-01T18:11:54.049Z</time></trkpt><trkpt lat="43.4474383" lon="11.764846"><ele>283.0</ele><time>2026-05-01T18:11:55.049Z</time></trkpt><trkpt lat="43.4475309" lon="11.7645428"><ele>283.0</ele><time>2026-05-01T18:11:56.049Z</time></trkpt><trkpt lat="43.44762" lon="11.764234"><ele>282.0</ele><time>2026-05-01T18:11:57.049Z</time></trkpt><trkpt lat="43.4477026" lon="11.7639257"><ele>281.0</ele><time>2026-05-01T18:11:58.05Z</time></trkpt><trkpt lat="43.4477801" lon="11.7636129"><ele>282.0</ele><time>2026-05-01T18:11:59.049Z</time></trkpt><trkpt lat="43.4478531" lon="11.7632986"><ele>283.0</ele><time>2026-05-01T18:12:00.05Z</time></trkpt><trkpt lat="43.4479146" lon="11.7629812"><ele>288.5</ele><time>2026-05-01T18:12:01.049Z</time></trkpt><trkpt lat="43.4479763" lon="11.7626621"><ele>294.0</ele><time>2026-05-01T18:12:02.049Z</time></trkpt><trkpt lat="43.4480347" lon="11.7623489"><ele>294.0</ele><time>2026-05-01T18:12:03.05Z</time></trkpt><trkpt lat="43.4480941" lon="11.7620272"><ele>294.0</ele><time>2026-05-01T18:12:04.049Z</time></trkpt><trkpt lat="43.448154" lon="11.7617101"><ele>293.0</ele><time>2026-05-01T18:12:05.049Z</time></trkpt><trkpt lat="43.4482157" lon="11.7613916"><ele>292.0</ele><time>2026-05-01T18:12:06.049Z</time></trkpt><trkpt lat="43.4482749" lon="11.7610703"><ele>292.0</ele><time>2026-05-01T18:12:07.049Z</time></trkpt><trkpt lat="43.4483336" lon="11.7607449"><ele>292.0</ele><time>2026-05-01T18:12:08.049Z</time></trkpt><trkpt lat="43.4483946" lon="11.7604234"><ele>293.5</ele><time>2026-05-01T18:12:09.049Z</time></trkpt><trkpt lat="43.4484541" lon="11.7601017"><ele>295.0</ele><time>2026-05-01T18:12:10.05Z</time></trkpt><trkpt lat="43.4485138" lon="11.7597787"><ele>295.0</ele><time>2026-05-01T18:12:11.049Z</time></trkpt><trkpt lat="43.448575" lon="11.7594543"><ele>295.0</ele><time>2026-05-01T18:12:12.049Z</time></trkpt><trkpt lat="43.4486408" lon="11.7591304"><ele>295.0</ele><time>2026-05-01T18:12:13.049Z</time></trkpt><trkpt lat="43.4487085" lon="11.7588103"><ele>295.0</ele><time>2026-05-01T18:12:14.049Z</time></trkpt><trkpt lat="43.4487857" lon="11.7584957"><ele>305.5</ele><time>2026-05-01T18:12:15.049Z</time></trkpt><trkpt lat="43.4488819" lon="11.7581907"><ele>316.0</ele><time>2026-05-01T18:12:16.05Z</time></trkpt><trkpt lat="43.4489936" lon="11.7578983"><ele>313.5</ele><time>2026-05-01T18:12:17.049Z</time></trkpt><trkpt lat="43.4491185" lon="11.7576182"><ele>311.0</ele><time>2026-05-01T18:12:18.05Z</time></trkpt><trkpt lat="43.4492623" lon="11.7573439"><ele>311.0</ele><time>2026-05-01T18:12:19.049Z</time></trkpt><trkpt lat="43.4494138" lon="11.7570868"><ele>311.0</ele><time>2026-05-01T18:12:20.049Z</time></trkpt><trkpt lat="43.4495786" lon="11.7568365"><ele>316.5</ele><time>2026-05-01T18:12:21.049Z</time></trkpt><trkpt lat="43.4497503" lon="11.7565988"><ele>322.0</ele><time>2026-05-01T18:12:22.049Z</time></trkpt><trkpt lat="43.4499349" lon="11.7563821"><ele>322.0</ele><time>2026-05-01T18:12:23.05Z</time></trkpt><trkpt lat="43.4501297" lon="11.7561839"><ele>322.0</ele><time>2026-05-01T18:12:24.049Z</time></trkpt><trkpt lat="43.4503395" lon="11.7559999"><ele>319.0</ele><time>2026-05-01T18:12:25.05Z</time></trkpt><trkpt lat="43.4505542" lon="11.7558427"><ele>316.0</ele><time>2026-05-01T18:12:26.049Z</time></trkpt><trkpt lat="43.4507774" lon="11.7557149"><ele>316.0</ele><time>2026-05-01T18:12:27.05Z</time></trkpt><trkpt lat="43.4510097" lon="11.7556021"><ele>316.0</ele><time>2026-05-01T18:12:28.049Z</time></trkpt><trkpt lat="43.4512478" lon="11.7555141"><ele>319.5</ele><time>2026-05-01T18:12:29.049Z</time></trkpt><trkpt lat="43.4514914" lon="11.7554438"><ele>323.0</ele><time>2026-05-01T18:12:30.049Z</time></trkpt><trkpt lat="43.4517368" lon="11.7553806"><ele>323.0</ele><time>2026-05-01T18:12:31.049Z</time></trkpt><trkpt lat="43.4519819" lon="11.7553172"><ele>323.0</ele><time>2026-05-01T18:12:32.049Z</time></trkpt><trkpt lat="43.452222" lon="11.7552546"><ele>322.5</ele><time>2026-05-01T18:12:33.05Z</time></trkpt><trkpt lat="43.4524617" lon="11.755189"><ele>322.0</ele><time>2026-05-01T18:12:34.049Z</time></trkpt><trkpt lat="43.4527013" lon="11.7551149"><ele>322.0</ele><time>2026-05-01T18:12:35.05Z</time></trkpt><trkpt lat="43.4529449" lon="11.7550424"><ele>322.0</ele><time>2026-05-01T18:12:36.049Z</time></trkpt><trkpt lat="43.4531876" lon="11.754973"><ele>324.0</ele><time>2026-05-01T18:12:37.049Z</time></trkpt><trkpt lat="43.4534251" lon="11.7549055"><ele>326.0</ele><time>2026-05-01T18:12:38.049Z</time></trkpt><trkpt lat="43.4536686" lon="11.754836"><ele>329.5</ele><time>2026-05-01T18:12:39.049Z</time></trkpt><trkpt lat="43.453915" lon="11.7547653"><ele>333.0</ele><time>2026-05-01T18:12:40.049Z</time></trkpt><trkpt lat="43.4541587" lon="11.754692"><ele>333.0</ele><time>2026-05-01T18:12:41.05Z</time></trkpt><trkpt lat="43.4544037" lon="11.7546211"><ele>333.0</ele><time>2026-05-01T18:12:42.049Z</time></trkpt><trkpt lat="43.4546517" lon="11.7545477"><ele>340.5</ele><time>2026-05-01T18:12:43.049Z</time></trkpt><trkpt lat="43.4548984" lon="11.7544772"><ele>348.0</ele><time>2026-05-01T18:12:44.049Z</time></trkpt><trkpt lat="43.4551456" lon="11.7544041"><ele>347.5</ele><time>2026-05-01T18:12:45.05Z</time></trkpt><trkpt lat="43.4553924" lon="11.7543337"><ele>347.0</ele><time>2026-05-01T18:12:46.049Z</time></trkpt><trkpt lat="43.4556419" lon="11.7542557"><ele>345.0</ele><time>2026-05-01T18:12:47.049Z</time></trkpt><trkpt lat="43.4558855" lon="11.754175"><ele>343.0</ele><time>2026-05-01T18:12:48.05Z</time></trkpt><trkpt lat="43.4561279" lon="11.7541017"><ele>346.0</ele><time>2026-05-01T18:12:49.049Z</time></trkpt><trkpt lat="43.4576188" lon="11.7537146"><ele>346.0</ele><time>2026-05-01T18:12:55.049Z</time></trkpt><trkpt lat="43.4578653" lon="11.7536411"><ele>346.0</ele><time>2026-05-01T18:12:56.049Z</time></trkpt><trkpt lat="43.4581135" lon="11.7535757"><ele>337.0</ele><time>2026-05-01T18:12:57.05Z</time></trkpt><trkpt lat="43.4583686" lon="11.7535058"><ele>328.0</ele><time>2026-05-01T18:12:58.049Z</time></trkpt><trkpt lat="43.4586255" lon="11.7534368"><ele>326.5</ele><time>2026-05-01T18:12:59.049Z</time></trkpt><trkpt lat="43.458879" lon="11.7533589"><ele>325.0</ele><time>2026-05-01T18:13:00.049Z</time></trkpt><trkpt lat="43.4591318" lon="11.7532738"><ele>325.0</ele><time>2026-05-01T18:13:01.049Z</time></trkpt><trkpt lat="43.4593829" lon="11.7531688"><ele>325.0</ele><time>2026-05-01T18:13:02.05Z</time></trkpt><trkpt lat="43.4596292" lon="11.7530436"><ele>329.5</ele><time>2026-05-01T18:13:03.05Z</time></trkpt><trkpt lat="43.4598719" lon="11.752914"><ele>334.0</ele><time>2026-05-01T18:13:04.049Z</time></trkpt><trkpt lat="43.4601149" lon="11.7527826"><ele>334.0</ele><time>2026-05-01T18:13:05.049Z</time></trkpt><trkpt lat="43.4603562" lon="11.7526439"><ele>334.0</ele><time>2026-05-01T18:13:06.049Z</time></trkpt><trkpt lat="43.4605995" lon="11.7524914"><ele>334.0</ele><time>2026-05-01T18:13:07.049Z</time></trkpt><trkpt lat="43.4608393" lon="11.7523285"><ele>334.0</ele><time>2026-05-01T18:13:08.05Z</time></trkpt><trkpt lat="43.4610747" lon="11.752154"><ele>329.0</ele><time>2026-05-01T18:13:09.05Z</time></trkpt><trkpt lat="43.4613027" lon="11.7519711"><ele>324.0</ele><time>2026-05-01T18:13:10.049Z</time></trkpt><trkpt lat="43.4615238" lon="11.7517693"><ele>324.0</ele><time>2026-05-01T18:13:11.049Z</time></trkpt><trkpt lat="43.4617461" lon="11.7515641"><ele>324.0</ele><time>2026-05-01T18:13:12.049Z</time></trkpt><trkpt lat="43.4619647" lon="11.7513595"><ele>320.0</ele><time>2026-05-01T18:13:13.049Z</time></trkpt><trkpt lat="43.4621808" lon="11.7511406"><ele>316.0</ele><time>2026-05-01T18:13:14.05Z</time></trkpt><trkpt lat="43.4623916" lon="11.750918"><ele>316.0</ele><time>2026-05-01T18:13:15.049Z</time></trkpt><trkpt lat="43.4626014" lon="11.7506911"><ele>316.0</ele><time>2026-05-01T18:13:16.05Z</time></trkpt><trkpt lat="43.4628107" lon="11.7504582"><ele>319.5</ele><time>2026-05-01T18:13:17.049Z</time></trkpt><trkpt lat="43.4630172" lon="11.7502316"><ele>323.0</ele><time>2026-05-01T18:13:18.049Z</time></trkpt><trkpt lat="43.4632293" lon="11.750004"><ele>312.5</ele><time>2026-05-01T18:13:19.049Z</time></trkpt><trkpt lat="43.4634389" lon="11.7497809"><ele>302.0</ele><time>2026-05-01T18:13:20.049Z</time></trkpt><trkpt lat="43.4636521" lon="11.7495517"><ele>299.0</ele><time>2026-05-01T18:13:21.05Z</time></trkpt><trkpt lat="43.4638646" lon="11.7493247"><ele>296.0</ele><time>2026-05-01T18:13:22.049Z</time></trkpt><trkpt lat="43.4640768" lon="11.7490997"><ele>296.0</ele><time>2026-05-01T18:13:23.049Z</time></trkpt><trkpt lat="43.4642903" lon="11.7488775"><ele>296.0</ele><time>2026-05-01T18:13:24.05Z</time></trkpt><trkpt lat="43.4644998" lon="11.7486448"><ele>294.5</ele><time>2026-05-01T18:13:25.049Z</time></trkpt><trkpt lat="43.464714" lon="11.7484172"><ele>293.0</ele><time>2026-05-01T18:13:26.049Z</time></trkpt><trkpt lat="43.464927" lon="11.7481881"><ele>293.0</ele><time>2026-05-01T18:13:27.049Z</time></trkpt><trkpt lat="43.4651451" lon="11.7479614"><ele>293.0</ele><time>2026-05-01T18:13:28.049Z</time></trkpt><trkpt lat="43.4653654" lon="11.7477268"><ele>290.0</ele><time>2026-05-01T18:13:29.05Z</time></trkpt><trkpt lat="43.4655888" lon="11.7474924"><ele>287.0</ele><time>2026-05-01T18:13:30.05Z</time></trkpt><trkpt lat="43.4658111" lon="11.7472643"><ele>287.0</ele><time>2026-05-01T18:13:31.049Z</time></trkpt><trkpt lat="43.4660324" lon="11.7470297"><ele>287.0</ele><time>2026-05-01T18:13:32.049Z</time></trkpt><trkpt lat="43.4662535" lon="11.7467963"><ele>288.0</ele><time>2026-05-01T18:13:33.049Z</time></trkpt><trkpt lat="43.4664753" lon="11.746556"><ele>289.0</ele><time>2026-05-01T18:13:34.049Z</time></trkpt><trkpt lat="43.4666954" lon="11.7463183"><ele>289.0</ele><time>2026-05-01T18:13:35.049Z</time></trkpt><trkpt lat="43.4669142" lon="11.746084"><ele>289.0</ele><time>2026-05-01T18:13:36.049Z</time></trkpt><trkpt lat="43.46713" lon="11.7458471"><ele>286.5</ele><time>2026-05-01T18:13:37.049Z</time></trkpt><trkpt lat="43.4673434" lon="11.7456159"><ele>284.0</ele><time>2026-05-01T18:13:38.049Z</time></trkpt><trkpt lat="43.467557" lon="11.745386"><ele>283.0</ele><time>2026-05-01T18:13:39.049Z</time></trkpt><trkpt lat="43.4677732" lon="11.7451564"><ele>282.0</ele><time>2026-05-01T18:13:40.049Z</time></trkpt><trkpt lat="43.4679866" lon="11.7449253"><ele>282.0</ele><time>2026-05-01T18:13:41.049Z</time></trkpt><trkpt lat="43.4682001" lon="11.7446929"><ele>282.0</ele><time>2026-05-01T18:13:42.049Z</time></trkpt><trkpt lat="43.4684128" lon="11.7444682"><ele>282.5</ele><time>2026-05-01T18:13:43.049Z</time></trkpt><trkpt lat="43.4686252" lon="11.7442404"><ele>283.0</ele><time>2026-05-01T18:13:44.049Z</time></trkpt><trkpt lat="43.4688399" lon="11.7440191"><ele>283.0</ele><time>2026-05-01T18:13:45.049Z</time></trkpt><trkpt lat="43.4690528" lon="11.7437936"><ele>283.0</ele><time>2026-05-01T18:13:46.049Z</time></trkpt><trkpt lat="43.4692601" lon="11.7435707"><ele>283.5</ele><time>2026-05-01T18:13:47.049Z</time></trkpt><trkpt lat="43.4694735" lon="11.7433471"><ele>284.0</ele><time>2026-05-01T18:13:48.05Z</time></trkpt><trkpt lat="43.4696846" lon="11.7431197"><ele>284.0</ele><time>2026-05-01T18:13:49.049Z</time></trkpt><trkpt lat="43.4698949" lon="11.742895"><ele>284.0</ele><time>2026-05-01T18:13:50.05Z</time></trkpt><trkpt lat="43.4701095" lon="11.7426734"><ele>282.5</ele><time>2026-05-01T18:13:51.05Z</time></trkpt><trkpt lat="43.4703211" lon="11.7424646"><ele>281.0</ele><time>2026-05-01T18:13:52.049Z</time></trkpt><trkpt lat="43.4705374" lon="11.742259"><ele>281.0</ele><time>2026-05-01T18:13:53.049Z</time></trkpt><trkpt lat="43.4707612" lon="11.7420551"><ele>281.0</ele><time>2026-05-01T18:13:54.049Z</time></trkpt><trkpt lat="43.470983" lon="11.7418578"><ele>281.5</ele><time>2026-05-01T18:13:55.049Z</time></trkpt><trkpt lat="43.4712046" lon="11.7416647"><ele>282.0</ele><time>2026-05-01T18:13:56.049Z</time></trkpt><trkpt lat="43.4714297" lon="11.7414721"><ele>279.5</ele><time>2026-05-01T18:13:57.049Z</time></trkpt><trkpt lat="43.4716548" lon="11.7412854"><ele>277.0</ele><time>2026-05-01T18:13:58.049Z</time></trkpt><trkpt lat="43.4718851" lon="11.7411067"><ele>280.5</ele><time>2026-05-01T18:13:59.049Z</time></trkpt><trkpt lat="43.4721163" lon="11.7409319"><ele>284.0</ele><time>2026-05-01T18:14:00.049Z</time></trkpt><trkpt lat="43.4723471" lon="11.7407608"><ele>284.0</ele><time>2026-05-01T18:14:01.049Z</time></trkpt><trkpt lat="43.4725797" lon="11.7405976"><ele>284.0</ele><time>2026-05-01T18:14:02.05Z</time></trkpt><trkpt lat="43.4728119" lon="11.7404329"><ele>285.5</ele><time>2026-05-01T18:14:03.049Z</time></trkpt><trkpt lat="43.4730456" lon="11.7402722"><ele>287.0</ele><time>2026-05-01T18:14:04.049Z</time></trkpt><trkpt lat="43.4732803" lon="11.7401158"><ele>287.0</ele><time>2026-05-01T18:14:05.049Z</time></trkpt><trkpt lat="43.473516" lon="11.7399673"><ele>287.0</ele><time>2026-05-01T18:14:06.049Z</time></trkpt><trkpt lat="43.4737523" lon="11.7398208"><ele>282.0</ele><time>2026-05-01T18:14:07.049Z</time></trkpt><trkpt lat="43.4739911" lon="11.739673"><ele>277.0</ele><time>2026-05-01T18:14:08.049Z</time></trkpt><trkpt lat="43.4742293" lon="11.7395243"><ele>277.5</ele><time>2026-05-01T18:14:09.049Z</time></trkpt><trkpt lat="43.4744625" lon="11.7393805"><ele>278.0</ele><time>2026-05-01T18:14:10.049Z</time></trkpt><trkpt lat="43.4746947" lon="11.7392357"><ele>279.5</ele><time>2026-05-01T18:14:11.049Z</time></trkpt><trkpt lat="43.4749252" lon="11.7390765"><ele>281.0</ele><time>2026-05-01T18:14:12.049Z</time></trkpt><trkpt lat="43.475147" lon="11.7389019"><ele>281.0</ele><time>2026-05-01T18:14:13.049Z</time></trkpt><trkpt lat="43.475366" lon="11.7387223"><ele>281.0</ele><time>2026-05-01T18:14:14.049Z</time></trkpt><trkpt lat="43.4755785" lon="11.7385315"><ele>283.0</ele><time>2026-05-01T18:14:15.049Z</time></trkpt><trkpt lat="43.4757925" lon="11.7383396"><ele>285.0</ele><time>2026-05-01T18:14:16.049Z</time></trkpt><trkpt lat="43.4760036" lon="11.7381389"><ele>285.0</ele><time>2026-05-01T18:14:17.049Z</time></trkpt><trkpt lat="43.4762052" lon="11.7379329"><ele>285.0</ele><time>2026-05-01T18:14:18.049Z</time></trkpt><trkpt lat="43.4764014" lon="11.7377137"><ele>283.5</ele><time>2026-05-01T18:14:19.049Z</time></trkpt><trkpt lat="43.4765962" lon="11.7374897"><ele>282.0</ele><time>2026-05-01T18:14:20.049Z</time></trkpt><trkpt lat="43.4767929" lon="11.7372586"><ele>282.0</ele><time>2026-05-01T18:14:21.049Z</time></trkpt><trkpt lat="43.4769799" lon="11.7370227"><ele>282.0</ele><time>2026-05-01T18:14:22.049Z</time></trkpt><trkpt lat="43.4771611" lon="11.7367761"><ele>281.0</ele><time>2026-05-01T18:14:23.05Z</time></trkpt><trkpt lat="43.4773405" lon="11.7365199"><ele>280.0</ele><time>2026-05-01T18:14:24.049Z</time></trkpt><trkpt lat="43.477513" lon="11.7362636"><ele>280.0</ele><time>2026-05-01T18:14:25.05Z</time></trkpt><trkpt lat="43.4776823" lon="11.7359979"><ele>280.0</ele><time>2026-05-01T18:14:26.049Z</time></trkpt><trkpt lat="43.4778439" lon="11.7357199"><ele>277.0</ele><time>2026-05-01T18:14:27.049Z</time></trkpt><trkpt lat="43.4779999" lon="11.7354321"><ele>274.0</ele><time>2026-05-01T18:14:28.049Z</time></trkpt><trkpt lat="43.4781485" lon="11.7351444"><ele>273.0</ele><time>2026-05-01T18:14:29.05Z</time></trkpt><trkpt lat="43.4782941" lon="11.7348446"><ele>272.0</ele><time>2026-05-01T18:14:30.049Z</time></trkpt><trkpt lat="43.4784348" lon="11.7345432"><ele>272.5</ele><time>2026-05-01T18:14:31.049Z</time></trkpt><trkpt lat="43.4785677" lon="11.734235"><ele>273.0</ele><time>2026-05-01T18:14:32.05Z</time></trkpt><trkpt lat="43.4787001" lon="11.7339288"><ele>273.5</ele><time>2026-05-01T18:14:33.049Z</time></trkpt><trkpt lat="43.4788243" lon="11.7336168"><ele>274.0</ele><time>2026-05-01T18:14:34.049Z</time></trkpt><trkpt lat="43.4789428" lon="11.7332988"><ele>274.0</ele><time>2026-05-01T18:14:35.049Z</time></trkpt><trkpt lat="43.4790619" lon="11.7329815"><ele>274.0</ele><time>2026-05-01T18:14:36.05Z</time></trkpt><trkpt lat="43.4791797" lon="11.7326683"><ele>275.5</ele><time>2026-05-01T18:14:37.049Z</time></trkpt><trkpt lat="43.4792937" lon="11.7323585"><ele>277.0</ele><time>2026-05-01T18:14:38.049Z</time></trkpt><trkpt lat="43.479412" lon="11.7320451"><ele>277.0</ele><time>2026-05-01T18:14:39.049Z</time></trkpt><trkpt lat="43.4795309" lon="11.7317283"><ele>277.0</ele><time>2026-05-01T18:14:40.049Z</time></trkpt><trkpt lat="43.4796474" lon="11.7314149"><ele>277.0</ele><time>2026-05-01T18:14:41.049Z</time></trkpt><trkpt lat="43.4797623" lon="11.7311007"><ele>277.0</ele><time>2026-05-01T18:14:42.05Z</time></trkpt><trkpt lat="43.4798842" lon="11.7307773"><ele>277.0</ele><time>2026-05-01T18:14:43.049Z</time></trkpt><trkpt lat="43.4800103" lon="11.7304561"><ele>277.0</ele><time>2026-05-01T18:14:44.05Z</time></trkpt><trkpt lat="43.4801328" lon="11.730134"><ele>282.0</ele><time>2026-05-01T18:14:45.049Z</time></trkpt><trkpt lat="43.4802521" lon="11.7298051"><ele>287.0</ele><time>2026-05-01T18:14:46.049Z</time></trkpt><trkpt lat="43.4803752" lon="11.7294816"><ele>278.0</ele><time>2026-05-01T18:14:47.049Z</time></trkpt><trkpt lat="43.4804923" lon="11.7291538"><ele>269.0</ele><time>2026-05-01T18:14:48.05Z</time></trkpt><trkpt lat="43.4806133" lon="11.7288347"><ele>268.5</ele><time>2026-05-01T18:14:49.049Z</time></trkpt><trkpt lat="43.4807334" lon="11.7285167"><ele>268.0</ele><time>2026-05-01T18:14:50.049Z</time></trkpt><trkpt lat="43.4808544" lon="11.7282003"><ele>268.0</ele><time>2026-05-01T18:14:51.05Z</time></trkpt><trkpt lat="43.4809773" lon="11.7278799"><ele>268.0</ele><time>2026-05-01T18:14:52.049Z</time></trkpt><trkpt lat="43.4810935" lon="11.7275667"><ele>268.0</ele><time>2026-05-01T18:14:53.05Z</time></trkpt><trkpt lat="43.4812118" lon="11.7272482"><ele>268.0</ele><time>2026-05-01T18:14:54.049Z</time></trkpt><trkpt lat="43.4813369" lon="11.7269295"><ele>263.5</ele><time>2026-05-01T18:14:55.05Z</time></trkpt><trkpt lat="43.4814631" lon="11.7266048"><ele>259.0</ele><time>2026-05-01T18:14:56.049Z</time></trkpt><trkpt lat="43.4815832" lon="11.7262807"><ele>259.0</ele><time>2026-05-01T18:14:57.049Z</time></trkpt><trkpt lat="43.4817075" lon="11.7259572"><ele>259.0</ele><time>2026-05-01T18:14:58.049Z</time></trkpt><trkpt lat="43.481832" lon="11.7256309"><ele>259.0</ele><time>2026-05-01T18:14:59.049Z</time></trkpt><trkpt lat="43.4819558" lon="11.7252948"><ele>259.0</ele><time>2026-05-01T18:15:00.049Z</time></trkpt><trkpt lat="43.4820834" lon="11.7249608"><ele>259.5</ele><time>2026-05-01T18:15:01.049Z</time></trkpt><trkpt lat="43.482211" lon="11.7246294"><ele>260.0</ele><time>2026-05-01T18:15:02.049Z</time></trkpt><trkpt lat="43.4823374" lon="11.7242959"><ele>261.5</ele><time>2026-05-01T18:15:03.049Z</time></trkpt><trkpt lat="43.4824679" lon="11.723963"><ele>263.0</ele><time>2026-05-01T18:15:04.05Z</time></trkpt><trkpt lat="43.4826037" lon="11.7236323"><ele>262.0</ele><time>2026-05-01T18:15:05.049Z</time></trkpt><trkpt lat="43.4827441" lon="11.7233033"><ele>261.0</ele><time>2026-05-01T18:15:06.049Z</time></trkpt><trkpt lat="43.4828852" lon="11.7229682"><ele>259.0</ele><time>2026-05-01T18:15:07.05Z</time></trkpt><trkpt lat="43.4830303" lon="11.7226346"><ele>257.0</ele><time>2026-05-01T18:15:08.049Z</time></trkpt><trkpt lat="43.4831764" lon="11.7223073"><ele>257.0</ele><time>2026-05-01T18:15:09.049Z</time></trkpt><trkpt lat="43.4833181" lon="11.7219783"><ele>257.0</ele><time>2026-05-01T18:15:10.049Z</time></trkpt><trkpt lat="43.4834602" lon="11.7216517"><ele>256.0</ele><time>2026-05-01T18:15:11.049Z</time></trkpt><trkpt lat="43.4835928" lon="11.721322"><ele>255.0</ele><time>2026-05-01T18:15:12.049Z</time></trkpt><trkpt lat="43.48372" lon="11.7209801"><ele>251.5</ele><time>2026-05-01T18:15:13.05Z</time></trkpt><trkpt lat="43.4838281" lon="11.7206301"><ele>248.0</ele><time>2026-05-01T18:15:14.049Z</time></trkpt><trkpt lat="43.4839289" lon="11.7202782"><ele>249.5</ele><time>2026-05-01T18:15:15.049Z</time></trkpt><trkpt lat="43.484007" lon="11.7199098"><ele>251.0</ele><time>2026-05-01T18:15:16.049Z</time></trkpt><trkpt lat="43.4840696" lon="11.7195377"><ele>253.0</ele><time>2026-05-01T18:15:17.049Z</time></trkpt><trkpt lat="43.484114" lon="11.7191645"><ele>255.0</ele><time>2026-05-01T18:15:18.049Z</time></trkpt><trkpt lat="43.4841444" lon="11.7187882"><ele>257.0</ele><time>2026-05-01T18:15:19.049Z</time></trkpt><trkpt lat="43.4841546" lon="11.7184035"><ele>259.0</ele><time>2026-05-01T18:15:20.049Z</time></trkpt><trkpt lat="43.4841551" lon="11.7180242"><ele>257.5</ele><time>2026-05-01T18:15:21.049Z</time></trkpt><trkpt lat="43.4841455" lon="11.7176402"><ele>256.0</ele><time>2026-05-01T18:15:22.049Z</time></trkpt><trkpt lat="43.4841162" lon="11.71726"><ele>255.5</ele><time>2026-05-01T18:15:23.049Z</time></trkpt><trkpt lat="43.484086" lon="11.716882"><ele>255.0</ele><time>2026-05-01T18:15:24.049Z</time></trkpt><trkpt lat="43.4840564" lon="11.7165016"><ele>255.0</ele><time>2026-05-01T18:15:25.049Z</time></trkpt><trkpt lat="43.484029" lon="11.7161186"><ele>255.0</ele><time>2026-05-01T18:15:26.049Z</time></trkpt><trkpt lat="43.4840004" lon="11.7157335"><ele>253.0</ele><time>2026-05-01T18:15:27.05Z</time></trkpt><trkpt lat="43.4839762" lon="11.715349"><ele>251.0</ele><time>2026-05-01T18:15:28.049Z</time></trkpt><trkpt lat="43.4839516" lon="11.7149665"><ele>246.0</ele><time>2026-05-01T18:15:29.049Z</time></trkpt><trkpt lat="43.4839297" lon="11.7145823"><ele>241.0</ele><time>2026-05-01T18:15:30.049Z</time></trkpt><trkpt lat="43.4839037" lon="11.7141999"><ele>239.0</ele><time>2026-05-01T18:15:31.049Z</time></trkpt><trkpt lat="43.4838759" lon="11.7138281"><ele>237.0</ele><time>2026-05-01T18:15:32.049Z</time></trkpt><trkpt lat="43.4838477" lon="11.7134461"><ele>237.0</ele><time>2026-05-01T18:15:33.049Z</time></trkpt><trkpt lat="43.4838221" lon="11.713065"><ele>237.0</ele><time>2026-05-01T18:15:34.049Z</time></trkpt><trkpt lat="43.4837926" lon="11.7126859"><ele>240.0</ele><time>2026-05-01T18:15:35.049Z</time></trkpt><trkpt lat="43.4837753" lon="11.7123103"><ele>243.0</ele><time>2026-05-01T18:15:36.049Z</time></trkpt><trkpt lat="43.4837652" lon="11.7119276"><ele>244.5</ele><time>2026-05-01T18:15:37.049Z</time></trkpt><trkpt lat="43.4837719" lon="11.7115471"><ele>246.0</ele><time>2026-05-01T18:15:38.049Z</time></trkpt><trkpt lat="43.4837928" lon="11.7111616"><ele>247.5</ele><time>2026-05-01T18:15:39.049Z</time></trkpt><trkpt lat="43.483818" lon="11.7107847"><ele>249.0</ele><time>2026-05-01T18:15:40.049Z</time></trkpt><trkpt lat="43.4838544" lon="11.7104069"><ele>248.0</ele><time>2026-05-01T18:15:41.049Z</time></trkpt><trkpt lat="43.483892" lon="11.7100309"><ele>247.0</ele><time>2026-05-01T18:15:42.05Z</time></trkpt><trkpt lat="43.4839403" lon="11.7096569"><ele>243.0</ele><time>2026-05-01T18:15:43.049Z</time></trkpt><trkpt lat="43.4839918" lon="11.7092979"><ele>239.0</ele><time>2026-05-01T18:15:44.049Z</time></trkpt><trkpt lat="43.4840519" lon="11.7089338"><ele>239.0</ele><time>2026-05-01T18:15:45.049Z</time></trkpt><trkpt lat="43.4841204" lon="11.7085764"><ele>239.0</ele><time>2026-05-01T18:15:46.049Z</time></trkpt><trkpt lat="43.484195" lon="11.7082252"><ele>241.0</ele><time>2026-05-01T18:15:47.05Z</time></trkpt><trkpt lat="43.4842747" lon="11.7078694"><ele>243.0</ele><time>2026-05-01T18:15:48.049Z</time></trkpt><trkpt lat="43.4843595" lon="11.7075085"><ele>246.5</ele><time>2026-05-01T18:15:49.049Z</time></trkpt><trkpt lat="43.4844425" lon="11.7071462"><ele>250.0</ele><time>2026-05-01T18:15:50.05Z</time></trkpt><trkpt lat="43.4845193" lon="11.7067943"><ele>251.0</ele><time>2026-05-01T18:15:51.049Z</time></trkpt><trkpt lat="43.4846002" lon="11.7064484"><ele>252.0</ele><time>2026-05-01T18:15:52.05Z</time></trkpt><trkpt lat="43.4846817" lon="11.7061039"><ele>251.5</ele><time>2026-05-01T18:15:53.049Z</time></trkpt><trkpt lat="43.4847676" lon="11.7057507"><ele>251.0</ele><time>2026-05-01T18:15:54.05Z</time></trkpt><trkpt lat="43.4848504" lon="11.7053973"><ele>251.0</ele><time>2026-05-01T18:15:55.049Z</time></trkpt><trkpt lat="43.4849346" lon="11.7050399"><ele>251.0</ele><time>2026-05-01T18:15:56.049Z</time></trkpt><trkpt lat="43.4850133" lon="11.7046768"><ele>250.5</ele><time>2026-05-01T18:15:57.05Z</time></trkpt><trkpt lat="43.4850965" lon="11.7043223"><ele>250.0</ele><time>2026-05-01T18:15:58.049Z</time></trkpt><trkpt lat="43.4851772" lon="11.7039645"><ele>250.0</ele><time>2026-05-01T18:15:59.049Z</time></trkpt><trkpt lat="43.4852553" lon="11.7036101"><ele>250.0</ele><time>2026-05-01T18:16:00.049Z</time></trkpt><trkpt lat="43.4853387" lon="11.70325"><ele>246.5</ele><time>2026-05-01T18:16:01.049Z</time></trkpt><trkpt lat="43.4854195" lon="11.7028926"><ele>243.0</ele><time>2026-05-01T18:16:02.05Z</time></trkpt><trkpt lat="43.4855002" lon="11.7025353"><ele>241.5</ele><time>2026-05-01T18:16:03.049Z</time></trkpt><trkpt lat="43.4855784" lon="11.7021792"><ele>240.0</ele><time>2026-05-01T18:16:04.049Z</time></trkpt><trkpt lat="43.4856595" lon="11.7018256"><ele>243.0</ele><time>2026-05-01T18:16:05.049Z</time></trkpt><trkpt lat="43.4857414" lon="11.7014683"><ele>246.0</ele><time>2026-05-01T18:16:06.049Z</time></trkpt><trkpt lat="43.4858229" lon="11.7011142"><ele>246.0</ele><time>2026-05-01T18:16:07.049Z</time></trkpt><trkpt lat="43.4859047" lon="11.7007563"><ele>246.0</ele><time>2026-05-01T18:16:08.049Z</time></trkpt><trkpt lat="43.4859827" lon="11.700398"><ele>244.0</ele><time>2026-05-01T18:16:09.049Z</time></trkpt><trkpt lat="43.4860599" lon="11.700042"><ele>242.0</ele><time>2026-05-01T18:16:10.049Z</time></trkpt><trkpt lat="43.4861389" lon="11.6996803"><ele>242.0</ele><time>2026-05-01T18:16:11.049Z</time></trkpt><trkpt lat="43.4862177" lon="11.6993211"><ele>242.0</ele><time>2026-05-01T18:16:12.05Z</time></trkpt><trkpt lat="43.4862864" lon="11.6989652"><ele>242.0</ele><time>2026-05-01T18:16:13.05Z</time></trkpt><trkpt lat="43.4863624" lon="11.6986093"><ele>242.0</ele><time>2026-05-01T18:16:14.049Z</time></trkpt><trkpt lat="43.4864395" lon="11.6982493"><ele>244.0</ele><time>2026-05-01T18:16:15.049Z</time></trkpt><trkpt lat="43.4865186" lon="11.6978833"><ele>246.0</ele><time>2026-05-01T18:16:16.05Z</time></trkpt><trkpt lat="43.4865913" lon="11.6975271"><ele>245.5</ele><time>2026-05-01T18:16:17.049Z</time></trkpt><trkpt lat="43.486667" lon="11.69717"><ele>245.0</ele><time>2026-05-01T18:16:18.05Z</time></trkpt><trkpt lat="43.4867405" lon="11.6968205"><ele>245.0</ele><time>2026-05-01T18:16:19.049Z</time></trkpt><trkpt lat="43.486806" lon="11.6964868"><ele>245.0</ele><time>2026-05-01T18:16:20.049Z</time></trkpt><trkpt lat="43.4868783" lon="11.6961405"><ele>244.5</ele><time>2026-05-01T18:16:21.049Z</time></trkpt><trkpt lat="43.4869529" lon="11.695789"><ele>244.0</ele><time>2026-05-01T18:16:22.05Z</time></trkpt><trkpt lat="43.4870247" lon="11.695435"><ele>245.0</ele><time>2026-05-01T18:16:23.049Z</time></trkpt><trkpt lat="43.4870985" lon="11.6950769"><ele>246.0</ele><time>2026-05-01T18:16:24.049Z</time></trkpt><trkpt lat="43.4871732" lon="11.6947282"><ele>247.5</ele><time>2026-05-01T18:16:25.049Z</time></trkpt><trkpt lat="43.4872404" lon="11.6943831"><ele>249.0</ele><time>2026-05-01T18:16:26.049Z</time></trkpt><trkpt lat="43.4873072" lon="11.6940453"><ele>249.0</ele><time>2026-05-01T18:16:27.05Z</time></trkpt><trkpt lat="43.4873807" lon="11.6936998"><ele>249.0</ele><time>2026-05-01T18:16:28.049Z</time></trkpt><trkpt lat="43.4874541" lon="11.6933526"><ele>249.5</ele><time>2026-05-01T18:16:29.05Z</time></trkpt><trkpt lat="43.4875288" lon="11.6930097"><ele>250.0</ele><time>2026-05-01T18:16:30.049Z</time></trkpt><trkpt lat="43.4876018" lon="11.6926577"><ele>250.5</ele><time>2026-05-01T18:16:31.049Z</time></trkpt><trkpt lat="43.4876755" lon="11.6923115"><ele>251.0</ele><time>2026-05-01T18:16:32.049Z</time></trkpt><trkpt lat="43.4877457" lon="11.6919607"><ele>250.5</ele><time>2026-05-01T18:16:33.049Z</time></trkpt><trkpt lat="43.4878125" lon="11.6916036"><ele>250.0</ele><time>2026-05-01T18:16:34.049Z</time></trkpt><trkpt lat="43.4878834" lon="11.6912495"><ele>246.5</ele><time>2026-05-01T18:16:35.049Z</time></trkpt><trkpt lat="43.4879545" lon="11.6909017"><ele>243.0</ele><time>2026-05-01T18:16:36.049Z</time></trkpt><trkpt lat="43.4880272" lon="11.6905523"><ele>245.0</ele><time>2026-05-01T18:16:37.049Z</time></trkpt><trkpt lat="43.4881008" lon="11.6902036"><ele>247.0</ele><time>2026-05-01T18:16:38.05Z</time></trkpt><trkpt lat="43.4881752" lon="11.6898529"><ele>247.0</ele><time>2026-05-01T18:16:39.049Z</time></trkpt><trkpt lat="43.4882506" lon="11.6895022"><ele>247.0</ele><time>2026-05-01T18:16:40.05Z</time></trkpt><trkpt lat="43.4883244" lon="11.6891515"><ele>248.5</ele><time>2026-05-01T18:16:41.049Z</time></trkpt><trkpt lat="43.4883914" lon="11.6887977"><ele>250.0</ele><time>2026-05-01T18:16:42.05Z</time></trkpt><trkpt lat="43.4884601" lon="11.6884494"><ele>250.0</ele><time>2026-05-01T18:16:43.049Z</time></trkpt><trkpt lat="43.4885313" lon="11.6880949"><ele>250.0</ele><time>2026-05-01T18:16:44.049Z</time></trkpt><trkpt lat="43.488603" lon="11.6877389"><ele>250.0</ele><time>2026-05-01T18:16:45.049Z</time></trkpt><trkpt lat="43.4886754" lon="11.6873825"><ele>250.0</ele><time>2026-05-01T18:16:46.049Z</time></trkpt><trkpt lat="43.4887484" lon="11.6870299"><ele>249.5</ele><time>2026-05-01T18:16:47.049Z</time></trkpt><trkpt lat="43.4888218" lon="11.6866739"><ele>249.0</ele><time>2026-05-01T18:16:48.05Z</time></trkpt><trkpt lat="43.4888967" lon="11.6863164"><ele>248.0</ele><time>2026-05-01T18:16:49.049Z</time></trkpt><trkpt lat="43.4889711" lon="11.6859576"><ele>247.0</ele><time>2026-05-01T18:16:50.049Z</time></trkpt><trkpt lat="43.4890472" lon="11.6855971"><ele>246.5</ele><time>2026-05-01T18:16:51.05Z</time></trkpt><trkpt lat="43.489121" lon="11.6852405"><ele>246.0</ele><time>2026-05-01T18:16:52.049Z</time></trkpt><trkpt lat="43.4891954" lon="11.6848836"><ele>246.0</ele><time>2026-05-01T18:16:53.05Z</time></trkpt><trkpt lat="43.4892697" lon="11.6845249"><ele>246.0</ele><time>2026-05-01T18:16:54.049Z</time></trkpt><trkpt lat="43.4893422" lon="11.6841622"><ele>247.0</ele><time>2026-05-01T18:16:55.049Z</time></trkpt><trkpt lat="43.4894171" lon="11.6838051"><ele>248.0</ele><time>2026-05-01T18:16:56.049Z</time></trkpt><trkpt lat="43.4894913" lon="11.6834479"><ele>248.5</ele><time>2026-05-01T18:16:57.05Z</time></trkpt><trkpt lat="43.4895639" lon="11.6830871"><ele>249.0</ele><time>2026-05-01T18:16:58.05Z</time></trkpt><trkpt lat="43.4896406" lon="11.6827264"><ele>251.0</ele><time>2026-05-01T18:16:59.05Z</time></trkpt><trkpt lat="43.4897183" lon="11.6823662"><ele>253.0</ele><time>2026-05-01T18:17:00.049Z</time></trkpt><trkpt lat="43.4897959" lon="11.6820075"><ele>253.0</ele><time>2026-05-01T18:17:01.049Z</time></trkpt><trkpt lat="43.489873" lon="11.6816476"><ele>253.0</ele><time>2026-05-01T18:17:02.049Z</time></trkpt><trkpt lat="43.4899447" lon="11.6812844"><ele>249.0</ele><time>2026-05-01T18:17:03.05Z</time></trkpt><trkpt lat="43.4900178" lon="11.6809251"><ele>245.0</ele><time>2026-05-01T18:17:04.049Z</time></trkpt><trkpt lat="43.4900949" lon="11.680566"><ele>242.5</ele><time>2026-05-01T18:17:05.05Z</time></trkpt><trkpt lat="43.4901674" lon="11.6802058"><ele>240.0</ele><time>2026-05-01T18:17:06.049Z</time></trkpt><trkpt lat="43.4902436" lon="11.679847"><ele>240.0</ele><time>2026-05-01T18:17:07.049Z</time></trkpt><trkpt lat="43.4903173" lon="11.679486"><ele>240.0</ele><time>2026-05-01T18:17:08.049Z</time></trkpt><trkpt lat="43.4903925" lon="11.6791239"><ele>240.5</ele><time>2026-05-01T18:17:09.05Z</time></trkpt><trkpt lat="43.4904665" lon="11.6787621"><ele>241.0</ele><time>2026-05-01T18:17:10.049Z</time></trkpt><trkpt lat="43.4905382" lon="11.6784002"><ele>240.0</ele><time>2026-05-01T18:17:11.049Z</time></trkpt><trkpt lat="43.4906129" lon="11.6780353"><ele>239.0</ele><time>2026-05-01T18:17:12.049Z</time></trkpt><trkpt lat="43.4906897" lon="11.6776719"><ele>234.5</ele><time>2026-05-01T18:17:13.049Z</time></trkpt><trkpt lat="43.4907652" lon="11.6773067"><ele>230.0</ele><time>2026-05-01T18:17:14.049Z</time></trkpt><trkpt lat="43.4908458" lon="11.6769462"><ele>227.5</ele><time>2026-05-01T18:17:15.05Z</time></trkpt><trkpt lat="43.4909202" lon="11.6765775"><ele>225.0</ele><time>2026-05-01T18:17:16.049Z</time></trkpt><trkpt lat="43.4909931" lon="11.6762156"><ele>231.0</ele><time>2026-05-01T18:17:17.049Z</time></trkpt><trkpt lat="43.4910706" lon="11.6758485"><ele>237.0</ele><time>2026-05-01T18:17:18.049Z</time></trkpt><trkpt lat="43.4911484" lon="11.675477"><ele>240.5</ele><time>2026-05-01T18:17:19.049Z</time></trkpt><trkpt lat="43.4912245" lon="11.6751085"><ele>244.0</ele><time>2026-05-01T18:17:20.049Z</time></trkpt><trkpt lat="43.4912983" lon="11.6747404"><ele>245.0</ele><time>2026-05-01T18:17:21.049Z</time></trkpt><trkpt lat="43.4913715" lon="11.6743688"><ele>246.0</ele><time>2026-05-01T18:17:22.049Z</time></trkpt><trkpt lat="43.4914454" lon="11.6739978"><ele>246.0</ele><time>2026-05-01T18:17:23.05Z</time></trkpt><trkpt lat="43.4915241" lon="11.6736254"><ele>246.0</ele><time>2026-05-01T18:17:24.049Z</time></trkpt><trkpt lat="43.4916023" lon="11.6732651"><ele>246.0</ele><time>2026-05-01T18:17:25.049Z</time></trkpt><trkpt lat="43.4916932" lon="11.6729062"><ele>246.0</ele><time>2026-05-01T18:17:26.05Z</time></trkpt><trkpt lat="43.4917991" lon="11.6725565"><ele>244.5</ele><time>2026-05-01T18:17:27.049Z</time></trkpt><trkpt lat="43.4919185" lon="11.6722089"><ele>243.0</ele><time>2026-05-01T18:17:28.049Z</time></trkpt><trkpt lat="43.4920413" lon="11.6718733"><ele>241.0</ele><time>2026-05-01T18:17:29.049Z</time></trkpt><trkpt lat="43.4921711" lon="11.6715371"><ele>239.0</ele><time>2026-05-01T18:17:30.049Z</time></trkpt><trkpt lat="43.4923021" lon="11.6712028"><ele>242.0</ele><time>2026-05-01T18:17:31.05Z</time></trkpt><trkpt lat="43.4924462" lon="11.670872"><ele>245.0</ele><time>2026-05-01T18:17:32.049Z</time></trkpt><trkpt lat="43.4925999" lon="11.6705519"><ele>245.0</ele><time>2026-05-01T18:17:33.049Z</time></trkpt><trkpt lat="43.4927596" lon="11.6702426"><ele>245.0</ele><time>2026-05-01T18:17:34.049Z</time></trkpt><trkpt lat="43.4929283" lon="11.6699401"><ele>244.0</ele><time>2026-05-01T18:17:35.049Z</time></trkpt><trkpt lat="43.4930997" lon="11.6696398"><ele>243.0</ele><time>2026-05-01T18:17:36.049Z</time></trkpt><trkpt lat="43.4932779" lon="11.6693516"><ele>241.0</ele><time>2026-05-01T18:17:37.049Z</time></trkpt><trkpt lat="43.4934699" lon="11.6690833"><ele>239.0</ele><time>2026-05-01T18:17:38.049Z</time></trkpt><trkpt lat="43.4936681" lon="11.6688156"><ele>237.0</ele><time>2026-05-01T18:17:39.05Z</time></trkpt><trkpt lat="43.4938703" lon="11.6685561"><ele>235.0</ele><time>2026-05-01T18:17:40.049Z</time></trkpt><trkpt lat="43.4940766" lon="11.6683049"><ele>235.0</ele><time>2026-05-01T18:17:41.049Z</time></trkpt><trkpt lat="43.4942898" lon="11.6680681"><ele>235.0</ele><time>2026-05-01T18:17:42.049Z</time></trkpt><trkpt lat="43.4945098" lon="11.6678471"><ele>234.0</ele><time>2026-05-01T18:17:43.049Z</time></trkpt><trkpt lat="43.494732" lon="11.6676282"><ele>233.0</ele><time>2026-05-01T18:17:44.049Z</time></trkpt><trkpt lat="43.4949513" lon="11.6674155"><ele>233.0</ele><time>2026-05-01T18:17:45.049Z</time></trkpt><trkpt lat="43.4951622" lon="11.6672026"><ele>233.0</ele><time>2026-05-01T18:17:46.05Z</time></trkpt><trkpt lat="43.4953721" lon="11.6669918"><ele>233.0</ele><time>2026-05-01T18:17:47.049Z</time></trkpt><trkpt lat="43.4955809" lon="11.6667782"><ele>233.0</ele><time>2026-05-01T18:17:48.05Z</time></trkpt><trkpt lat="43.4957907" lon="11.6665713"><ele>233.0</ele><time>2026-05-01T18:17:49.049Z</time></trkpt><trkpt lat="43.4959921" lon="11.666365"><ele>233.0</ele><time>2026-05-01T18:17:50.05Z</time></trkpt><trkpt lat="43.4961882" lon="11.6661558"><ele>237.5</ele><time>2026-05-01T18:17:51.05Z</time></trkpt><trkpt lat="43.4963829" lon="11.6659244"><ele>242.0</ele><time>2026-05-01T18:17:52.049Z</time></trkpt><trkpt lat="43.4965648" lon="11.6656934"><ele>242.0</ele><time>2026-05-01T18:17:53.05Z</time></trkpt><trkpt lat="43.4967399" lon="11.6654592"><ele>242.0</ele><time>2026-05-01T18:17:54.049Z</time></trkpt><trkpt lat="43.4969151" lon="11.6652138"><ele>245.5</ele><time>2026-05-01T18:17:55.049Z</time></trkpt><trkpt lat="43.4970886" lon="11.6649598"><ele>249.0</ele><time>2026-05-01T18:17:56.049Z</time></trkpt><trkpt lat="43.497258" lon="11.6647031"><ele>249.0</ele><time>2026-05-01T18:17:57.049Z</time></trkpt><trkpt lat="43.4974228" lon="11.6644468"><ele>249.0</ele><time>2026-05-01T18:17:58.05Z</time></trkpt><trkpt lat="43.4975776" lon="11.6641878"><ele>247.0</ele><time>2026-05-01T18:17:59.049Z</time></trkpt><trkpt lat="43.4977271" lon="11.6639138"><ele>245.0</ele><time>2026-05-01T18:18:00.049Z</time></trkpt><trkpt lat="43.4978654" lon="11.6636421"><ele>245.0</ele><time>2026-05-01T18:18:01.049Z</time></trkpt><trkpt lat="43.498003" lon="11.6633676"><ele>245.0</ele><time>2026-05-01T18:18:02.049Z</time></trkpt><trkpt lat="43.498137" lon="11.6630844"><ele>245.0</ele><time>2026-05-01T18:18:03.05Z</time></trkpt><trkpt lat="43.498267" lon="11.6627915"><ele>245.0</ele><time>2026-05-01T18:18:04.049Z</time></trkpt><trkpt lat="43.4983881" lon="11.6624986"><ele>244.0</ele><time>2026-05-01T18:18:05.05Z</time></trkpt><trkpt lat="43.498504" lon="11.6622062"><ele>243.0</ele><time>2026-05-01T18:18:06.049Z</time></trkpt><trkpt lat="43.4986155" lon="11.6619125"><ele>243.0</ele><time>2026-05-01T18:18:07.049Z</time></trkpt><trkpt lat="43.4987242" lon="11.6616078"><ele>243.0</ele><time>2026-05-01T18:18:08.049Z</time></trkpt><trkpt lat="43.4988337" lon="11.6612991"><ele>244.0</ele><time>2026-05-01T18:18:09.049Z</time></trkpt><trkpt lat="43.4989438" lon="11.6609894"><ele>245.0</ele><time>2026-05-01T18:18:10.049Z</time></trkpt><trkpt lat="43.4990537" lon="11.6606796"><ele>245.0</ele><time>2026-05-01T18:18:11.05Z</time></trkpt><trkpt lat="43.4991659" lon="11.6603569"><ele>245.0</ele><time>2026-05-01T18:18:12.049Z</time></trkpt><trkpt lat="43.4992806" lon="11.660044"><ele>245.0</ele><time>2026-05-01T18:18:13.049Z</time></trkpt><trkpt lat="43.4993938" lon="11.6597308"><ele>245.0</ele><time>2026-05-01T18:18:14.049Z</time></trkpt><trkpt lat="43.4995079" lon="11.659415"><ele>241.5</ele><time>2026-05-01T18:18:15.05Z</time></trkpt><trkpt lat="43.4996211" lon="11.6591029"><ele>238.0</ele><time>2026-05-01T18:18:16.049Z</time></trkpt><trkpt lat="43.4997367" lon="11.6587889"><ele>241.5</ele><time>2026-05-01T18:18:17.049Z</time></trkpt><trkpt lat="43.499858" lon="11.658477"><ele>245.0</ele><time>2026-05-01T18:18:18.049Z</time></trkpt><trkpt lat="43.4999822" lon="11.6581644"><ele>245.0</ele><time>2026-05-01T18:18:19.05Z</time></trkpt><trkpt lat="43.5001084" lon="11.6578523"><ele>245.0</ele><time>2026-05-01T18:18:20.049Z</time></trkpt><trkpt lat="43.5002445" lon="11.6575467"><ele>246.5</ele><time>2026-05-01T18:18:21.049Z</time></trkpt><trkpt lat="43.5003861" lon="11.6572374"><ele>248.0</ele><time>2026-05-01T18:18:22.049Z</time></trkpt><trkpt lat="43.5005228" lon="11.6569321"><ele>242.5</ele><time>2026-05-01T18:18:23.049Z</time></trkpt><trkpt lat="43.5006636" lon="11.6566272"><ele>237.0</ele><time>2026-05-01T18:18:24.049Z</time></trkpt><trkpt lat="43.5008083" lon="11.6563273"><ele>239.5</ele><time>2026-05-01T18:18:25.05Z</time></trkpt><trkpt lat="43.5009553" lon="11.656031"><ele>242.0</ele><time>2026-05-01T18:18:26.05Z</time></trkpt><trkpt lat="43.5011039" lon="11.6557391"><ele>235.0</ele><time>2026-05-01T18:18:27.049Z</time></trkpt><trkpt lat="43.5012624" lon="11.6554503"><ele>228.0</ele><time>2026-05-01T18:18:28.05Z</time></trkpt><trkpt lat="43.5014243" lon="11.6551686"><ele>227.0</ele><time>2026-05-01T18:18:29.049Z</time></trkpt><trkpt lat="43.501575" lon="11.6548797"><ele>226.0</ele><time>2026-05-01T18:18:30.049Z</time></trkpt><trkpt lat="43.5017278" lon="11.6545947"><ele>229.0</ele><time>2026-05-01T18:18:31.05Z</time></trkpt><trkpt lat="43.5018809" lon="11.6543032"><ele>232.0</ele><time>2026-05-01T18:18:32.049Z</time></trkpt><trkpt lat="43.5020358" lon="11.6540142"><ele>233.0</ele><time>2026-05-01T18:18:33.049Z</time></trkpt><trkpt lat="43.5021928" lon="11.6537249"><ele>234.0</ele><time>2026-05-01T18:18:34.049Z</time></trkpt><trkpt lat="43.5023505" lon="11.6534328"><ele>238.0</ele><time>2026-05-01T18:18:35.049Z</time></trkpt><trkpt lat="43.5025074" lon="11.6531419"><ele>242.0</ele><time>2026-05-01T18:18:36.049Z</time></trkpt><trkpt lat="43.5026647" lon="11.6528537"><ele>241.5</ele><time>2026-05-01T18:18:37.049Z</time></trkpt><trkpt lat="43.5028246" lon="11.6525608"><ele>241.0</ele><time>2026-05-01T18:18:38.049Z</time></trkpt><trkpt lat="43.5029812" lon="11.652273"><ele>239.0</ele><time>2026-05-01T18:18:39.049Z</time></trkpt><trkpt lat="43.5031417" lon="11.651978"><ele>237.0</ele><time>2026-05-01T18:18:40.049Z</time></trkpt><trkpt lat="43.5033044" lon="11.6516912"><ele>237.0</ele><time>2026-05-01T18:18:41.049Z</time></trkpt><trkpt lat="43.5034761" lon="11.6514088"><ele>237.0</ele><time>2026-05-01T18:18:42.05Z</time></trkpt><trkpt lat="43.5036569" lon="11.6511328"><ele>234.5</ele><time>2026-05-01T18:18:43.049Z</time></trkpt><trkpt lat="43.5038424" lon="11.6508753"><ele>232.0</ele><time>2026-05-01T18:18:44.049Z</time></trkpt><trkpt lat="43.5040377" lon="11.650623"><ele>232.0</ele><time>2026-05-01T18:18:45.049Z</time></trkpt><trkpt lat="43.5042444" lon="11.6503846"><ele>232.0</ele><time>2026-05-01T18:18:46.049Z</time></trkpt><trkpt lat="43.5044535" lon="11.6501512"><ele>230.5</ele><time>2026-05-01T18:18:47.05Z</time></trkpt><trkpt lat="43.5046698" lon="11.6499283"><ele>229.0</ele><time>2026-05-01T18:18:48.049Z</time></trkpt><trkpt lat="43.5048925" lon="11.6497256"><ele>229.0</ele><time>2026-05-01T18:18:49.05Z</time></trkpt><trkpt lat="43.5051203" lon="11.6495275"><ele>229.0</ele><time>2026-05-01T18:18:50.049Z</time></trkpt><trkpt lat="43.5053535" lon="11.649335"><ele>226.5</ele><time>2026-05-01T18:18:51.049Z</time></trkpt><trkpt lat="43.5055925" lon="11.6491577"><ele>224.0</ele><time>2026-05-01T18:18:52.049Z</time></trkpt><trkpt lat="43.5058321" lon="11.6489877"><ele>224.0</ele><time>2026-05-01T18:18:53.049Z</time></trkpt><trkpt lat="43.5060722" lon="11.6488193"><ele>224.0</ele><time>2026-05-01T18:18:54.05Z</time></trkpt><trkpt lat="43.5063134" lon="11.6486507"><ele>216.5</ele><time>2026-05-01T18:18:55.05Z</time></trkpt><trkpt lat="43.5065539" lon="11.6484848"><ele>209.0</ele><time>2026-05-01T18:18:56.051Z</time></trkpt><trkpt lat="43.5067912" lon="11.6483137"><ele>209.0</ele><time>2026-05-01T18:18:57.051Z</time></trkpt><trkpt lat="43.507032" lon="11.6481469"><ele>209.0</ele><time>2026-05-01T18:18:58.05Z</time></trkpt><trkpt lat="43.507269" lon="11.6479762"><ele>199.5</ele><time>2026-05-01T18:18:59.05Z</time></trkpt><trkpt lat="43.5075074" lon="11.6478066"><ele>190.0</ele><time>2026-05-01T18:19:00.05Z</time></trkpt><trkpt lat="43.5077397" lon="11.6476421"><ele>187.0</ele><time>2026-05-01T18:19:01.05Z</time></trkpt><trkpt lat="43.5079765" lon="11.647477"><ele>184.0</ele><time>2026-05-01T18:19:02.05Z</time></trkpt><trkpt lat="43.5082117" lon="11.6473096"><ele>184.0</ele><time>2026-05-01T18:19:03.05Z</time></trkpt><trkpt lat="43.5084512" lon="11.6471435"><ele>184.0</ele><time>2026-05-01T18:19:04.05Z</time></trkpt><trkpt lat="43.5086913" lon="11.6469858"><ele>201.5</ele><time>2026-05-01T18:19:05.05Z</time></trkpt><trkpt lat="43.5089281" lon="11.6468269"><ele>219.0</ele><time>2026-05-01T18:19:06.051Z</time></trkpt><trkpt lat="43.5091602" lon="11.6466684"><ele>219.0</ele><time>2026-05-01T18:19:07.05Z</time></trkpt><trkpt lat="43.5093912" lon="11.6465042"><ele>219.0</ele><time>2026-05-01T18:19:08.05Z</time></trkpt><trkpt lat="43.5096186" lon="11.6463394"><ele>225.0</ele><time>2026-05-01T18:19:09.05Z</time></trkpt><trkpt lat="43.509839" lon="11.6461814"><ele>231.0</ele><time>2026-05-01T18:19:10.05Z</time></trkpt><trkpt lat="43.5100541" lon="11.6460298"><ele>234.0</ele><time>2026-05-01T18:19:11.05Z</time></trkpt><trkpt lat="43.5102735" lon="11.6458744"><ele>237.0</ele><time>2026-05-01T18:19:12.051Z</time></trkpt><trkpt lat="43.510497" lon="11.6457091"><ele>237.5</ele><time>2026-05-01T18:19:13.051Z</time></trkpt><trkpt lat="43.5107207" lon="11.6455521"><ele>238.0</ele><time>2026-05-01T18:19:14.05Z</time></trkpt><trkpt lat="43.5109456" lon="11.6453929"><ele>238.0</ele><time>2026-05-01T18:19:15.05Z</time></trkpt><trkpt lat="43.5111684" lon="11.6452311"><ele>238.0</ele><time>2026-05-01T18:19:16.05Z</time></trkpt><trkpt lat="43.5113916" lon="11.6450498"><ele>238.0</ele><time>2026-05-01T18:19:17.05Z</time></trkpt><trkpt lat="43.5116065" lon="11.6448547"><ele>238.0</ele><time>2026-05-01T18:19:18.05Z</time></trkpt><trkpt lat="43.5118142" lon="11.6446414"><ele>236.5</ele><time>2026-05-01T18:19:19.051Z</time></trkpt><trkpt lat="43.5120027" lon="11.6444001"><ele>235.0</ele><time>2026-05-01T18:19:20.05Z</time></trkpt><trkpt lat="43.5121845" lon="11.6441344"><ele>234.5</ele><time>2026-05-01T18:19:21.05Z</time></trkpt><trkpt lat="43.5123543" lon="11.6438619"><ele>234.0</ele><time>2026-05-01T18:19:22.05Z</time></trkpt><trkpt lat="43.5125096" lon="11.64357"><ele>232.5</ele><time>2026-05-01T18:19:23.05Z</time></trkpt><trkpt lat="43.512648" lon="11.6432625"><ele>231.0</ele><time>2026-05-01T18:19:24.051Z</time></trkpt><trkpt lat="43.512772" lon="11.6429411"><ele>231.5</ele><time>2026-05-01T18:19:25.05Z</time></trkpt><trkpt lat="43.5128803" lon="11.6426093"><ele>232.0</ele><time>2026-05-01T18:19:26.051Z</time></trkpt><trkpt lat="43.5129701" lon="11.6422704"><ele>230.5</ele><time>2026-05-01T18:19:27.05Z</time></trkpt><trkpt lat="43.5130387" lon="11.6419075"><ele>229.0</ele><time>2026-05-01T18:19:28.05Z</time></trkpt><trkpt lat="43.5130937" lon="11.6415474"><ele>229.0</ele><time>2026-05-01T18:19:29.051Z</time></trkpt><trkpt lat="43.5131412" lon="11.6411743"><ele>229.0</ele><time>2026-05-01T18:19:30.05Z</time></trkpt><trkpt lat="43.5131876" lon="11.6408012"><ele>226.0</ele><time>2026-05-01T18:19:31.05Z</time></trkpt><trkpt lat="43.513243" lon="11.64043"><ele>223.0</ele><time>2026-05-01T18:19:32.05Z</time></trkpt><trkpt lat="43.5133085" lon="11.6400601"><ele>222.0</ele><time>2026-05-01T18:19:33.051Z</time></trkpt><trkpt lat="43.5133897" lon="11.6396944"><ele>221.0</ele><time>2026-05-01T18:19:34.05Z</time></trkpt><trkpt lat="43.5134862" lon="11.6393356"><ele>218.5</ele><time>2026-05-01T18:19:35.05Z</time></trkpt><trkpt lat="43.5136016" lon="11.6389789"><ele>216.0</ele><time>2026-05-01T18:19:36.05Z</time></trkpt><trkpt lat="43.513727" lon="11.6386271"><ele>216.0</ele><time>2026-05-01T18:19:37.05Z</time></trkpt><trkpt lat="43.5138644" lon="11.6382871"><ele>216.0</ele><time>2026-05-01T18:19:38.05Z</time></trkpt><trkpt lat="43.5140037" lon="11.6379392"><ele>209.5</ele><time>2026-05-01T18:19:39.05Z</time></trkpt><trkpt lat="43.5141451" lon="11.6375941"><ele>203.0</ele><time>2026-05-01T18:19:40.05Z</time></trkpt><trkpt lat="43.5142785" lon="11.6372473"><ele>198.0</ele><time>2026-05-01T18:19:41.05Z</time></trkpt><trkpt lat="43.5144103" lon="11.6368998"><ele>193.0</ele><time>2026-05-01T18:19:42.05Z</time></trkpt><trkpt lat="43.5145441" lon="11.636553"><ele>195.0</ele><time>2026-05-01T18:19:43.05Z</time></trkpt><trkpt lat="43.5146758" lon="11.6362054"><ele>197.0</ele><time>2026-05-01T18:19:44.05Z</time></trkpt><trkpt lat="43.5148042" lon="11.6358538"><ele>197.0</ele><time>2026-05-01T18:19:45.05Z</time></trkpt><trkpt lat="43.5149189" lon="11.6354973"><ele>197.0</ele><time>2026-05-01T18:19:46.05Z</time></trkpt><trkpt lat="43.5150129" lon="11.6351352"><ele>193.0</ele><time>2026-05-01T18:19:47.05Z</time></trkpt><trkpt lat="43.5150917" lon="11.6347739"><ele>189.0</ele><time>2026-05-01T18:19:48.05Z</time></trkpt><trkpt lat="43.5151618" lon="11.6344147"><ele>182.5</ele><time>2026-05-01T18:19:49.051Z</time></trkpt><trkpt lat="43.5152067" lon="11.6340632"><ele>176.0</ele><time>2026-05-01T18:19:50.051Z</time></trkpt><trkpt lat="43.5152325" lon="11.6337025"><ele>171.0</ele><time>2026-05-01T18:19:51.05Z</time></trkpt><trkpt lat="43.5152345" lon="11.6333364"><ele>166.0</ele><time>2026-05-01T18:19:52.05Z</time></trkpt><trkpt lat="43.5152348" lon="11.6329745"><ele>169.5</ele><time>2026-05-01T18:19:53.05Z</time></trkpt><trkpt lat="43.5152193" lon="11.6326079"><ele>173.0</ele><time>2026-05-01T18:19:54.05Z</time></trkpt><trkpt lat="43.5151898" lon="11.6322376"><ele>178.5</ele><time>2026-05-01T18:19:55.05Z</time></trkpt><trkpt lat="43.5151318" lon="11.6318651"><ele>184.0</ele><time>2026-05-01T18:19:56.05Z</time></trkpt><trkpt lat="43.5150684" lon="11.6315037"><ele>184.0</ele><time>2026-05-01T18:19:57.051Z</time></trkpt><trkpt lat="43.5149897" lon="11.6311463"><ele>184.0</ele><time>2026-05-01T18:19:58.05Z</time></trkpt><trkpt lat="43.5148969" lon="11.6307879"><ele>187.5</ele><time>2026-05-01T18:19:59.05Z</time></trkpt><trkpt lat="43.5147963" lon="11.6304276"><ele>191.0</ele><time>2026-05-01T18:20:00.05Z</time></trkpt><trkpt lat="43.5146946" lon="11.6300646"><ele>193.0</ele><time>2026-05-01T18:20:01.05Z</time></trkpt><trkpt lat="43.5145975" lon="11.6297"><ele>195.0</ele><time>2026-05-01T18:20:02.05Z</time></trkpt><trkpt lat="43.5145056" lon="11.6293231"><ele>185.0</ele><time>2026-05-01T18:20:03.05Z</time></trkpt><trkpt lat="43.5144297" lon="11.6289405"><ele>175.0</ele><time>2026-05-01T18:20:04.051Z</time></trkpt><trkpt lat="43.5143794" lon="11.6285549"><ele>171.5</ele><time>2026-05-01T18:20:05.05Z</time></trkpt><trkpt lat="43.5143585" lon="11.6281687"><ele>168.0</ele><time>2026-05-01T18:20:06.051Z</time></trkpt><trkpt lat="43.514358" lon="11.6277793"><ele>164.0</ele><time>2026-05-01T18:20:07.05Z</time></trkpt><trkpt lat="43.5143729" lon="11.6273865"><ele>160.0</ele><time>2026-05-01T18:20:08.05Z</time></trkpt><trkpt lat="43.5143965" lon="11.6269957"><ele>155.5</ele><time>2026-05-01T18:20:09.05Z</time></trkpt><trkpt lat="43.5144162" lon="11.6266023"><ele>151.0</ele><time>2026-05-01T18:20:10.05Z</time></trkpt><trkpt lat="43.5144331" lon="11.6262103"><ele>148.5</ele><time>2026-05-01T18:20:11.05Z</time></trkpt><trkpt lat="43.5144486" lon="11.6258196"><ele>146.0</ele><time>2026-05-01T18:20:12.05Z</time></trkpt><trkpt lat="43.5144639" lon="11.6254277"><ele>146.0</ele><time>2026-05-01T18:20:13.05Z</time></trkpt><trkpt lat="43.5144768" lon="11.6250441"><ele>146.0</ele><time>2026-05-01T18:20:14.051Z</time></trkpt><trkpt lat="43.5144932" lon="11.6246653"><ele>145.5</ele><time>2026-05-01T18:20:15.05Z</time></trkpt><trkpt lat="43.514513" lon="11.6242837"><ele>145.0</ele><time>2026-05-01T18:20:16.05Z</time></trkpt><trkpt lat="43.5145326" lon="11.6239095"><ele>145.5</ele><time>2026-05-01T18:20:17.05Z</time></trkpt><trkpt lat="43.5145515" lon="11.6235392"><ele>146.0</ele><time>2026-05-01T18:20:18.05Z</time></trkpt><trkpt lat="43.5145724" lon="11.6231605"><ele>150.5</ele><time>2026-05-01T18:20:19.051Z</time></trkpt><trkpt lat="43.5145885" lon="11.6227784"><ele>155.0</ele><time>2026-05-01T18:20:20.05Z</time></trkpt><trkpt lat="43.5146066" lon="11.6223987"><ele>155.0</ele><time>2026-05-01T18:20:21.05Z</time></trkpt><trkpt lat="43.5146238" lon="11.6220157"><ele>155.0</ele><time>2026-05-01T18:20:22.05Z</time></trkpt><trkpt lat="43.5146398" lon="11.6216351"><ele>156.0</ele><time>2026-05-01T18:20:23.05Z</time></trkpt><trkpt lat="43.5146561" lon="11.6212546"><ele>157.0</ele><time>2026-05-01T18:20:24.05Z</time></trkpt><trkpt lat="43.5146738" lon="11.6208716"><ele>157.0</ele><time>2026-05-01T18:20:25.05Z</time></trkpt><trkpt lat="43.5146927" lon="11.6204902"><ele>157.0</ele><time>2026-05-01T18:20:26.05Z</time></trkpt><trkpt lat="43.5147112" lon="11.6201092"><ele>155.5</ele><time>2026-05-01T18:20:27.051Z</time></trkpt><trkpt lat="43.514728" lon="11.6197301"><ele>154.0</ele><time>2026-05-01T18:20:28.051Z</time></trkpt><trkpt lat="43.5147471" lon="11.619356"><ele>154.0</ele><time>2026-05-01T18:20:29.051Z</time></trkpt><trkpt lat="43.5147638" lon="11.618984"><ele>154.0</ele><time>2026-05-01T18:20:30.05Z</time></trkpt><trkpt lat="43.5147835" lon="11.6186165"><ele>154.5</ele><time>2026-05-01T18:20:31.051Z</time></trkpt><trkpt lat="43.5148075" lon="11.6182531"><ele>155.0</ele><time>2026-05-01T18:20:32.05Z</time></trkpt><trkpt lat="43.5148333" lon="11.6178934"><ele>154.5</ele><time>2026-05-01T18:20:33.05Z</time></trkpt><trkpt lat="43.5148651" lon="11.6175294"><ele>154.0</ele><time>2026-05-01T18:20:34.05Z</time></trkpt><trkpt lat="43.5149086" lon="11.6171691"><ele>152.0</ele><time>2026-05-01T18:20:35.05Z</time></trkpt><trkpt lat="43.5149585" lon="11.6168187"><ele>150.0</ele><time>2026-05-01T18:20:36.051Z</time></trkpt><trkpt lat="43.515014" lon="11.6164654"><ele>148.5</ele><time>2026-05-01T18:20:37.05Z</time></trkpt><trkpt lat="43.5150734" lon="11.6161148"><ele>147.0</ele><time>2026-05-01T18:20:38.05Z</time></trkpt><trkpt lat="43.5151424" lon="11.6157707"><ele>147.0</ele><time>2026-05-01T18:20:39.051Z</time></trkpt><trkpt lat="43.5152131" lon="11.6154217"><ele>147.0</ele><time>2026-05-01T18:20:40.05Z</time></trkpt><trkpt lat="43.5152829" lon="11.6150873"><ele>147.0</ele><time>2026-05-01T18:20:41.051Z</time></trkpt><trkpt lat="43.51536" lon="11.6147573"><ele>147.0</ele><time>2026-05-01T18:20:42.05Z</time></trkpt><trkpt lat="43.5154452" lon="11.6144229"><ele>151.0</ele><time>2026-05-01T18:20:43.051Z</time></trkpt><trkpt lat="43.5155367" lon="11.6140873"><ele>155.0</ele><time>2026-05-01T18:20:44.05Z</time></trkpt><trkpt lat="43.5156341" lon="11.6137536"><ele>152.5</ele><time>2026-05-01T18:20:45.051Z</time></trkpt><trkpt lat="43.515738" lon="11.6134194"><ele>150.0</ele><time>2026-05-01T18:20:46.05Z</time></trkpt><trkpt lat="43.5158466" lon="11.6130973"><ele>149.0</ele><time>2026-05-01T18:20:47.05Z</time></trkpt><trkpt lat="43.5159585" lon="11.6127826"><ele>148.0</ele><time>2026-05-01T18:20:48.051Z</time></trkpt><trkpt lat="43.5160739" lon="11.6124738"><ele>148.0</ele><time>2026-05-01T18:20:49.051Z</time></trkpt><trkpt lat="43.5161927" lon="11.612171"><ele>148.0</ele><time>2026-05-01T18:20:50.05Z</time></trkpt><trkpt lat="43.5163141" lon="11.6118693"><ele>150.5</ele><time>2026-05-01T18:20:51.05Z</time></trkpt><trkpt lat="43.5164427" lon="11.6115673"><ele>153.0</ele><time>2026-05-01T18:20:52.05Z</time></trkpt><trkpt lat="43.5165752" lon="11.6112704"><ele>152.0</ele><time>2026-05-01T18:20:53.05Z</time></trkpt><trkpt lat="43.5167156" lon="11.6109754"><ele>151.0</ele><time>2026-05-01T18:20:54.05Z</time></trkpt><trkpt lat="43.5168597" lon="11.6106798"><ele>151.0</ele><time>2026-05-01T18:20:55.051Z</time></trkpt><trkpt lat="43.5170084" lon="11.6103849"><ele>151.0</ele><time>2026-05-01T18:20:56.051Z</time></trkpt><trkpt lat="43.5171645" lon="11.6100972"><ele>152.0</ele><time>2026-05-01T18:20:57.051Z</time></trkpt><trkpt lat="43.5173268" lon="11.6098127"><ele>153.0</ele><time>2026-05-01T18:20:58.05Z</time></trkpt><trkpt lat="43.5174966" lon="11.6095322"><ele>152.0</ele><time>2026-05-01T18:20:59.051Z</time></trkpt><trkpt lat="43.5176665" lon="11.6092544"><ele>151.0</ele><time>2026-05-01T18:21:00.051Z</time></trkpt><trkpt lat="43.5178365" lon="11.6089716"><ele>150.5</ele><time>2026-05-01T18:21:01.05Z</time></trkpt><trkpt lat="43.5180014" lon="11.6086869"><ele>150.0</ele><time>2026-05-01T18:21:02.05Z</time></trkpt><trkpt lat="43.5181708" lon="11.6083958"><ele>150.0</ele><time>2026-05-01T18:21:03.05Z</time></trkpt><trkpt lat="43.5183389" lon="11.6081092"><ele>150.0</ele><time>2026-05-01T18:21:04.05Z</time></trkpt><trkpt lat="43.51851" lon="11.6078213"><ele>151.0</ele><time>2026-05-01T18:21:05.05Z</time></trkpt><trkpt lat="43.5186852" lon="11.6075321"><ele>152.0</ele><time>2026-05-01T18:21:06.051Z</time></trkpt><trkpt lat="43.5188632" lon="11.6072405"><ele>150.5</ele><time>2026-05-01T18:21:07.05Z</time></trkpt><trkpt lat="43.5190398" lon="11.6069477"><ele>149.0</ele><time>2026-05-01T18:21:08.051Z</time></trkpt><trkpt lat="43.5192122" lon="11.6066552"><ele>149.0</ele><time>2026-05-01T18:21:09.05Z</time></trkpt><trkpt lat="43.5193903" lon="11.6063626"><ele>149.0</ele><time>2026-05-01T18:21:10.05Z</time></trkpt><trkpt lat="43.5195653" lon="11.6060658"><ele>149.0</ele><time>2026-05-01T18:21:11.05Z</time></trkpt><trkpt lat="43.5197433" lon="11.6057717"><ele>149.0</ele><time>2026-05-01T18:21:12.05Z</time></trkpt><trkpt lat="43.5199216" lon="11.6054769"><ele>148.0</ele><time>2026-05-01T18:21:13.051Z</time></trkpt><trkpt lat="43.5201009" lon="11.6051843"><ele>147.0</ele><time>2026-05-01T18:21:14.05Z</time></trkpt><trkpt lat="43.5202807" lon="11.6048876"><ele>147.5</ele><time>2026-05-01T18:21:15.05Z</time></trkpt><trkpt lat="43.520461" lon="11.6045872"><ele>148.0</ele><time>2026-05-01T18:21:16.051Z</time></trkpt><trkpt lat="43.520644" lon="11.6042874"><ele>148.0</ele><time>2026-05-01T18:21:17.05Z</time></trkpt><trkpt lat="43.5208255" lon="11.6039929"><ele>148.0</ele><time>2026-05-01T18:21:18.05Z</time></trkpt><trkpt lat="43.521002" lon="11.6036963"><ele>148.0</ele><time>2026-05-01T18:21:19.05Z</time></trkpt><trkpt lat="43.5211736" lon="11.6034048"><ele>148.0</ele><time>2026-05-01T18:21:20.05Z</time></trkpt><trkpt lat="43.5213431" lon="11.603118"><ele>147.5</ele><time>2026-05-01T18:21:21.05Z</time></trkpt><trkpt lat="43.5215114" lon="11.6028317"><ele>147.0</ele><time>2026-05-01T18:21:22.05Z</time></trkpt><trkpt lat="43.521682" lon="11.6025444"><ele>146.0</ele><time>2026-05-01T18:21:23.05Z</time></trkpt><trkpt lat="43.5218468" lon="11.602257"><ele>145.0</ele><time>2026-05-01T18:21:24.051Z</time></trkpt><trkpt lat="43.5220118" lon="11.6019806"><ele>146.0</ele><time>2026-05-01T18:21:25.05Z</time></trkpt><trkpt lat="43.5221836" lon="11.6017002"><ele>147.0</ele><time>2026-05-01T18:21:26.051Z</time></trkpt><trkpt lat="43.5223518" lon="11.6014278"><ele>146.0</ele><time>2026-05-01T18:21:27.05Z</time></trkpt><trkpt lat="43.5225233" lon="11.6011492"><ele>145.0</ele><time>2026-05-01T18:21:28.05Z</time></trkpt><trkpt lat="43.5226916" lon="11.6008699"><ele>145.0</ele><time>2026-05-01T18:21:29.05Z</time></trkpt><trkpt lat="43.5228541" lon="11.6005936"><ele>145.0</ele><time>2026-05-01T18:21:30.05Z</time></trkpt><trkpt lat="43.5230127" lon="11.6003258"><ele>146.0</ele><time>2026-05-01T18:21:31.05Z</time></trkpt><trkpt lat="43.5231671" lon="11.6000577"><ele>147.0</ele><time>2026-05-01T18:21:32.05Z</time></trkpt><trkpt lat="43.5233217" lon="11.5997927"><ele>147.0</ele><time>2026-05-01T18:21:33.051Z</time></trkpt><trkpt lat="43.5234713" lon="11.5995296"><ele>147.0</ele><time>2026-05-01T18:21:34.05Z</time></trkpt><trkpt lat="43.5236228" lon="11.5992571"><ele>146.0</ele><time>2026-05-01T18:21:35.05Z</time></trkpt><trkpt lat="43.5237783" lon="11.5989839"><ele>145.0</ele><time>2026-05-01T18:21:36.05Z</time></trkpt><trkpt lat="43.5239352" lon="11.5987095"><ele>146.0</ele><time>2026-05-01T18:21:37.05Z</time></trkpt><trkpt lat="43.524087" lon="11.5984431"><ele>147.0</ele><time>2026-05-01T18:21:38.05Z</time></trkpt><trkpt lat="43.5242379" lon="11.5981776"><ele>147.0</ele><time>2026-05-01T18:21:39.05Z</time></trkpt><trkpt lat="43.5243866" lon="11.5979121"><ele>147.0</ele><time>2026-05-01T18:21:40.05Z</time></trkpt><trkpt lat="43.5245335" lon="11.5976528"><ele>144.5</ele><time>2026-05-01T18:21:41.051Z</time></trkpt><trkpt lat="43.524679" lon="11.5973895"><ele>142.0</ele><time>2026-05-01T18:21:42.05Z</time></trkpt><trkpt lat="43.5248302" lon="11.5971152"><ele>143.5</ele><time>2026-05-01T18:21:43.051Z</time></trkpt><trkpt lat="43.5249789" lon="11.5968464"><ele>145.0</ele><time>2026-05-01T18:21:44.051Z</time></trkpt><trkpt lat="43.5251262" lon="11.5965781"><ele>145.0</ele><time>2026-05-01T18:21:45.05Z</time></trkpt><trkpt lat="43.5252745" lon="11.5963091"><ele>145.0</ele><time>2026-05-01T18:21:46.05Z</time></trkpt><trkpt lat="43.5254216" lon="11.5960488"><ele>145.0</ele><time>2026-05-01T18:21:47.05Z</time></trkpt><trkpt lat="43.5255697" lon="11.5957932"><ele>145.0</ele><time>2026-05-01T18:21:48.05Z</time></trkpt><trkpt lat="43.5257188" lon="11.595529"><ele>145.0</ele><time>2026-05-01T18:21:49.05Z</time></trkpt><trkpt lat="43.5258666" lon="11.5952599"><ele>145.0</ele><time>2026-05-01T18:21:50.05Z</time></trkpt><trkpt lat="43.526013" lon="11.5949891"><ele>145.0</ele><time>2026-05-01T18:21:51.05Z</time></trkpt><trkpt lat="43.5261599" lon="11.5947203"><ele>145.0</ele><time>2026-05-01T18:21:52.051Z</time></trkpt><trkpt lat="43.5263096" lon="11.594455"><ele>145.5</ele><time>2026-05-01T18:21:53.05Z</time></trkpt><trkpt lat="43.5264576" lon="11.594188"><ele>146.0</ele><time>2026-05-01T18:21:54.05Z</time></trkpt><trkpt lat="43.526606" lon="11.5939277"><ele>145.5</ele><time>2026-05-01T18:21:55.05Z</time></trkpt><trkpt lat="43.5267577" lon="11.5936586"><ele>145.0</ele><time>2026-05-01T18:21:56.05Z</time></trkpt><trkpt lat="43.5269048" lon="11.5933803"><ele>145.0</ele><time>2026-05-01T18:21:57.05Z</time></trkpt><trkpt lat="43.5270539" lon="11.5931213"><ele>145.0</ele><time>2026-05-01T18:21:58.05Z</time></trkpt><trkpt lat="43.5271981" lon="11.592862"><ele>145.5</ele><time>2026-05-01T18:21:59.05Z</time></trkpt><trkpt lat="43.5273508" lon="11.5926059"><ele>146.0</ele><time>2026-05-01T18:22:00.05Z</time></trkpt><trkpt lat="43.5274965" lon="11.5923457"><ele>146.0</ele><time>2026-05-01T18:22:01.051Z</time></trkpt><trkpt lat="43.5276414" lon="11.5920843"><ele>146.0</ele><time>2026-05-01T18:22:02.05Z</time></trkpt><trkpt lat="43.5277902" lon="11.5918168"><ele>146.5</ele><time>2026-05-01T18:22:03.05Z</time></trkpt><trkpt lat="43.5279345" lon="11.5915449"><ele>147.0</ele><time>2026-05-01T18:22:04.05Z</time></trkpt><trkpt lat="43.528083" lon="11.5912699"><ele>145.0</ele><time>2026-05-01T18:22:05.05Z</time></trkpt><trkpt lat="43.5282329" lon="11.5909936"><ele>143.0</ele><time>2026-05-01T18:22:06.05Z</time></trkpt><trkpt lat="43.5283834" lon="11.5907211"><ele>143.0</ele><time>2026-05-01T18:22:07.051Z</time></trkpt><trkpt lat="43.528532" lon="11.5904535"><ele>143.0</ele><time>2026-05-01T18:22:08.051Z</time></trkpt><trkpt lat="43.5286794" lon="11.5901925"><ele>144.0</ele><time>2026-05-01T18:22:09.05Z</time></trkpt><trkpt lat="43.5288353" lon="11.5899153"><ele>145.0</ele><time>2026-05-01T18:22:10.05Z</time></trkpt><trkpt lat="43.5289853" lon="11.5896457"><ele>145.5</ele><time>2026-05-01T18:22:11.05Z</time></trkpt><trkpt lat="43.5291325" lon="11.5893788"><ele>146.0</ele><time>2026-05-01T18:22:12.05Z</time></trkpt><trkpt lat="43.5292827" lon="11.5891098"><ele>146.0</ele><time>2026-05-01T18:22:13.05Z</time></trkpt><trkpt lat="43.5294335" lon="11.5888379"><ele>146.0</ele><time>2026-05-01T18:22:14.051Z</time></trkpt><trkpt lat="43.5295788" lon="11.5885695"><ele>145.5</ele><time>2026-05-01T18:22:15.05Z</time></trkpt><trkpt lat="43.5297253" lon="11.5883034"><ele>145.0</ele><time>2026-05-01T18:22:16.05Z</time></trkpt><trkpt lat="43.529878" lon="11.5880337"><ele>145.0</ele><time>2026-05-01T18:22:17.05Z</time></trkpt><trkpt lat="43.5300377" lon="11.5877519"><ele>145.0</ele><time>2026-05-01T18:22:18.05Z</time></trkpt><trkpt lat="43.5301956" lon="11.5874717"><ele>145.0</ele><time>2026-05-01T18:22:19.05Z</time></trkpt><trkpt lat="43.5303526" lon="11.5871901"><ele>145.0</ele><time>2026-05-01T18:22:20.051Z</time></trkpt><trkpt lat="43.5305094" lon="11.5869032"><ele>144.0</ele><time>2026-05-01T18:22:21.05Z</time></trkpt><trkpt lat="43.530669" lon="11.5866161"><ele>143.0</ele><time>2026-05-01T18:22:22.051Z</time></trkpt><trkpt lat="43.5308268" lon="11.5863323"><ele>143.0</ele><time>2026-05-01T18:22:23.05Z</time></trkpt><trkpt lat="43.5309864" lon="11.5860455"><ele>143.0</ele><time>2026-05-01T18:22:24.051Z</time></trkpt><trkpt lat="43.5311467" lon="11.5857619"><ele>143.0</ele><time>2026-05-01T18:22:25.05Z</time></trkpt><trkpt lat="43.5313008" lon="11.5854765"><ele>143.0</ele><time>2026-05-01T18:22:26.05Z</time></trkpt><trkpt lat="43.5314562" lon="11.5851973"><ele>143.5</ele><time>2026-05-01T18:22:27.05Z</time></trkpt><trkpt lat="43.5316078" lon="11.584918"><ele>144.0</ele><time>2026-05-01T18:22:28.051Z</time></trkpt><trkpt lat="43.531768" lon="11.5846323"><ele>143.5</ele><time>2026-05-01T18:22:29.05Z</time></trkpt><trkpt lat="43.5319289" lon="11.5843453"><ele>143.0</ele><time>2026-05-01T18:22:30.05Z</time></trkpt><trkpt lat="43.5320877" lon="11.5840605"><ele>143.0</ele><time>2026-05-01T18:22:31.05Z</time></trkpt><trkpt lat="43.5322464" lon="11.5837764"><ele>143.0</ele><time>2026-05-01T18:22:32.05Z</time></trkpt><trkpt lat="43.5324027" lon="11.5834934"><ele>143.0</ele><time>2026-05-01T18:22:33.05Z</time></trkpt><trkpt lat="43.5325611" lon="11.5832047"><ele>143.0</ele><time>2026-05-01T18:22:34.05Z</time></trkpt><trkpt lat="43.5327202" lon="11.5829162"><ele>143.0</ele><time>2026-05-01T18:22:35.05Z</time></trkpt><trkpt lat="43.5328818" lon="11.5826285"><ele>143.0</ele><time>2026-05-01T18:22:36.05Z</time></trkpt><trkpt lat="43.533039" lon="11.5823404"><ele>143.0</ele><time>2026-05-01T18:22:37.05Z</time></trkpt><trkpt lat="43.5331952" lon="11.5820544"><ele>143.0</ele><time>2026-05-01T18:22:38.05Z</time></trkpt><trkpt lat="43.5333477" lon="11.5817791"><ele>142.0</ele><time>2026-05-01T18:22:39.05Z</time></trkpt><trkpt lat="43.5335009" lon="11.5815019"><ele>141.0</ele><time>2026-05-01T18:22:40.051Z</time></trkpt><trkpt lat="43.5336576" lon="11.5812219"><ele>142.0</ele><time>2026-05-01T18:22:41.05Z</time></trkpt><trkpt lat="43.53381" lon="11.5809523"><ele>143.0</ele><time>2026-05-01T18:22:42.05Z</time></trkpt><trkpt lat="43.5339582" lon="11.5806911"><ele>143.0</ele><time>2026-05-01T18:22:43.051Z</time></trkpt><trkpt lat="43.5341021" lon="11.5804289"><ele>143.0</ele><time>2026-05-01T18:22:44.051Z</time></trkpt><trkpt lat="43.5342434" lon="11.5801619"><ele>143.5</ele><time>2026-05-01T18:22:45.05Z</time></trkpt><trkpt lat="43.5343934" lon="11.5798963"><ele>144.0</ele><time>2026-05-01T18:22:46.05Z</time></trkpt><trkpt lat="43.5345404" lon="11.5796279"><ele>142.5</ele><time>2026-05-01T18:22:47.051Z</time></trkpt><trkpt lat="43.5346882" lon="11.5793615"><ele>141.0</ele><time>2026-05-01T18:22:48.05Z</time></trkpt><trkpt lat="43.534838" lon="11.5790951"><ele>141.0</ele><time>2026-05-01T18:22:49.05Z</time></trkpt><trkpt lat="43.5349866" lon="11.5788257"><ele>141.0</ele><time>2026-05-01T18:22:50.051Z</time></trkpt><trkpt lat="43.5351309" lon="11.5785586"><ele>141.0</ele><time>2026-05-01T18:22:51.05Z</time></trkpt><trkpt lat="43.5352805" lon="11.5782859"><ele>141.0</ele><time>2026-05-01T18:22:52.05Z</time></trkpt><trkpt lat="43.5354278" lon="11.578013"><ele>141.0</ele><time>2026-05-01T18:22:53.05Z</time></trkpt><trkpt lat="43.535575" lon="11.5777481"><ele>141.0</ele><time>2026-05-01T18:22:54.05Z</time></trkpt><trkpt lat="43.535729" lon="11.5774811"><ele>141.0</ele><time>2026-05-01T18:22:55.051Z</time></trkpt><trkpt lat="43.5358798" lon="11.5772125"><ele>141.0</ele><time>2026-05-01T18:22:56.05Z</time></trkpt><trkpt lat="43.5360307" lon="11.5769464"><ele>141.0</ele><time>2026-05-01T18:22:57.05Z</time></trkpt><trkpt lat="43.5361786" lon="11.5766846"><ele>141.0</ele><time>2026-05-01T18:22:58.05Z</time></trkpt><trkpt lat="43.5363263" lon="11.5764226"><ele>141.0</ele><time>2026-05-01T18:22:59.05Z</time></trkpt><trkpt lat="43.536479" lon="11.5761639"><ele>141.0</ele><time>2026-05-01T18:23:00.05Z</time></trkpt><trkpt lat="43.5366287" lon="11.5758987"><ele>141.0</ele><time>2026-05-01T18:23:01.05Z</time></trkpt><trkpt lat="43.5367703" lon="11.575634"><ele>141.0</ele><time>2026-05-01T18:23:02.051Z</time></trkpt><trkpt lat="43.5369088" lon="11.5753765"><ele>141.0</ele><time>2026-05-01T18:23:03.051Z</time></trkpt><trkpt lat="43.5370485" lon="11.5751223"><ele>141.0</ele><time>2026-05-01T18:23:04.05Z</time></trkpt><trkpt lat="43.5371888" lon="11.5748609"><ele>141.0</ele><time>2026-05-01T18:23:05.05Z</time></trkpt><trkpt lat="43.5373341" lon="11.5745987"><ele>141.0</ele><time>2026-05-01T18:23:06.05Z</time></trkpt><trkpt lat="43.537483" lon="11.5743341"><ele>142.0</ele><time>2026-05-01T18:23:07.05Z</time></trkpt><trkpt lat="43.5376358" lon="11.5740692"><ele>143.0</ele><time>2026-05-01T18:23:08.05Z</time></trkpt><trkpt lat="43.5377848" lon="11.5738001"><ele>142.5</ele><time>2026-05-01T18:23:09.05Z</time></trkpt><trkpt lat="43.5379324" lon="11.5735371"><ele>142.0</ele><time>2026-05-01T18:23:10.05Z</time></trkpt><trkpt lat="43.5380795" lon="11.5732705"><ele>142.0</ele><time>2026-05-01T18:23:11.05Z</time></trkpt><trkpt lat="43.5382299" lon="11.5730006"><ele>142.0</ele><time>2026-05-01T18:23:12.051Z</time></trkpt><trkpt lat="43.5383882" lon="11.5727386"><ele>142.0</ele><time>2026-05-01T18:23:13.05Z</time></trkpt><trkpt lat="43.5385382" lon="11.5724823"><ele>142.0</ele><time>2026-05-01T18:23:14.05Z</time></trkpt><trkpt lat="43.5386898" lon="11.5722298"><ele>140.5</ele><time>2026-05-01T18:23:15.05Z</time></trkpt><trkpt lat="43.5388443" lon="11.5719647"><ele>139.0</ele><time>2026-05-01T18:23:16.051Z</time></trkpt><trkpt lat="43.5390046" lon="11.571709"><ele>139.0</ele><time>2026-05-01T18:23:17.05Z</time></trkpt><trkpt lat="43.5391613" lon="11.5714559"><ele>139.0</ele><time>2026-05-01T18:23:18.05Z</time></trkpt><trkpt lat="43.5393176" lon="11.5712109"><ele>138.5</ele><time>2026-05-01T18:23:19.051Z</time></trkpt><trkpt lat="43.5394758" lon="11.5709563"><ele>138.0</ele><time>2026-05-01T18:23:20.05Z</time></trkpt><trkpt lat="43.5396391" lon="11.5707019"><ele>139.0</ele><time>2026-05-01T18:23:21.051Z</time></trkpt><trkpt lat="43.5398003" lon="11.5704656"><ele>140.0</ele><time>2026-05-01T18:23:22.05Z</time></trkpt><trkpt lat="43.5399622" lon="11.5702202"><ele>140.0</ele><time>2026-05-01T18:23:23.051Z</time></trkpt><trkpt lat="43.5401273" lon="11.5699756"><ele>140.0</ele><time>2026-05-01T18:23:24.05Z</time></trkpt><trkpt lat="43.5402961" lon="11.569729"><ele>140.5</ele><time>2026-05-01T18:23:25.05Z</time></trkpt><trkpt lat="43.5404654" lon="11.5694834"><ele>141.0</ele><time>2026-05-01T18:23:26.05Z</time></trkpt><trkpt lat="43.5406321" lon="11.5692407"><ele>141.0</ele><time>2026-05-01T18:23:27.051Z</time></trkpt><trkpt lat="43.5408" lon="11.5689928"><ele>141.0</ele><time>2026-05-01T18:23:28.051Z</time></trkpt><trkpt lat="43.5409701" lon="11.5687474"><ele>140.5</ele><time>2026-05-01T18:23:29.05Z</time></trkpt><trkpt lat="43.5411392" lon="11.5684989"><ele>140.0</ele><time>2026-05-01T18:23:30.05Z</time></trkpt><trkpt lat="43.5413117" lon="11.5682474"><ele>140.0</ele><time>2026-05-01T18:23:31.05Z</time></trkpt><trkpt lat="43.5414837" lon="11.5679997"><ele>140.0</ele><time>2026-05-01T18:23:32.05Z</time></trkpt><trkpt lat="43.5416552" lon="11.567752"><ele>140.5</ele><time>2026-05-01T18:23:33.051Z</time></trkpt><trkpt lat="43.5418199" lon="11.567506"><ele>141.0</ele><time>2026-05-01T18:23:34.05Z</time></trkpt><trkpt lat="43.5419849" lon="11.5672555"><ele>139.5</ele><time>2026-05-01T18:23:35.05Z</time></trkpt><trkpt lat="43.5421563" lon="11.567008"><ele>138.0</ele><time>2026-05-01T18:23:36.05Z</time></trkpt><trkpt lat="43.5423277" lon="11.5667587"><ele>138.0</ele><time>2026-05-01T18:23:37.051Z</time></trkpt><trkpt lat="43.5424977" lon="11.5665137"><ele>138.0</ele><time>2026-05-01T18:23:38.051Z</time></trkpt><trkpt lat="43.5426672" lon="11.566267"><ele>137.5</ele><time>2026-05-01T18:23:39.05Z</time></trkpt><trkpt lat="43.5428391" lon="11.5660221"><ele>137.0</ele><time>2026-05-01T18:23:40.05Z</time></trkpt><trkpt lat="43.5430088" lon="11.5657728"><ele>136.5</ele><time>2026-05-01T18:23:41.05Z</time></trkpt><trkpt lat="43.543176" lon="11.5655231"><ele>136.0</ele><time>2026-05-01T18:23:42.05Z</time></trkpt><trkpt lat="43.5433457" lon="11.5652815"><ele>137.0</ele><time>2026-05-01T18:23:43.05Z</time></trkpt><trkpt lat="43.5435149" lon="11.5650414"><ele>138.0</ele><time>2026-05-01T18:23:44.05Z</time></trkpt><trkpt lat="43.5436812" lon="11.564796"><ele>138.5</ele><time>2026-05-01T18:23:45.05Z</time></trkpt><trkpt lat="43.543846" lon="11.5645582"><ele>139.0</ele><time>2026-05-01T18:23:46.05Z</time></trkpt><trkpt lat="43.5440046" lon="11.5643239"><ele>139.5</ele><time>2026-05-01T18:23:47.05Z</time></trkpt><trkpt lat="43.5441696" lon="11.5640816"><ele>140.0</ele><time>2026-05-01T18:23:48.05Z</time></trkpt><trkpt lat="43.5443348" lon="11.5638403"><ele>139.5</ele><time>2026-05-01T18:23:49.05Z</time></trkpt><trkpt lat="43.5445017" lon="11.5635971"><ele>139.0</ele><time>2026-05-01T18:23:50.05Z</time></trkpt><trkpt lat="43.544668" lon="11.563356"><ele>139.0</ele><time>2026-05-01T18:23:51.05Z</time></trkpt><trkpt lat="43.5448384" lon="11.5631133"><ele>139.0</ele><time>2026-05-01T18:23:52.05Z</time></trkpt><trkpt lat="43.5450076" lon="11.5628702"><ele>139.0</ele><time>2026-05-01T18:23:53.05Z</time></trkpt><trkpt lat="43.5451744" lon="11.5626302"><ele>139.0</ele><time>2026-05-01T18:23:54.05Z</time></trkpt><trkpt lat="43.5453429" lon="11.5623838"><ele>138.5</ele><time>2026-05-01T18:23:55.05Z</time></trkpt><trkpt lat="43.5455117" lon="11.5621382"><ele>138.0</ele><time>2026-05-01T18:23:56.05Z</time></trkpt><trkpt lat="43.5456784" lon="11.5618951"><ele>137.5</ele><time>2026-05-01T18:23:57.05Z</time></trkpt><trkpt lat="43.5458435" lon="11.5616522"><ele>137.0</ele><time>2026-05-01T18:23:58.051Z</time></trkpt><trkpt lat="43.546006" lon="11.5614205"><ele>137.0</ele><time>2026-05-01T18:23:59.05Z</time></trkpt><trkpt lat="43.5461727" lon="11.5611911"><ele>137.0</ele><time>2026-05-01T18:24:00.05Z</time></trkpt><trkpt lat="43.5463365" lon="11.5609591"><ele>137.33333333333331</ele><time>2026-05-01T18:24:01.05Z</time></trkpt><trkpt lat="43.5464965" lon="11.5607309"><ele>137.66666666666666</ele><time>2026-05-01T18:24:02.05Z</time></trkpt><trkpt lat="43.5466452" lon="11.5605146"><ele>138.0</ele><time>2026-05-01T18:24:03.05Z</time></trkpt><trkpt lat="43.546787" lon="11.5603204"><ele>138.0</ele><time>2026-05-01T18:24:04.05Z</time></trkpt><trkpt lat="43.5469253" lon="11.5601194"><ele>138.0</ele><time>2026-05-01T18:24:05.05Z</time></trkpt><trkpt lat="43.5470635" lon="11.5599199"><ele>138.0</ele><time>2026-05-01T18:24:06.05Z</time></trkpt><trkpt lat="43.5472105" lon="11.5597215"><ele>138.33333333333334</ele><time>2026-05-01T18:24:07.051Z</time></trkpt><trkpt lat="43.5473692" lon="11.5595319"><ele>138.66666666666669</ele><time>2026-05-01T18:24:08.05Z</time></trkpt><trkpt lat="43.5475313" lon="11.5593542"><ele>139.0</ele><time>2026-05-01T18:24:09.051Z</time></trkpt><trkpt lat="43.5477023" lon="11.5591955"><ele>139.0</ele><time>2026-05-01T18:24:10.05Z</time></trkpt><trkpt lat="43.5478763" lon="11.5590536"><ele>139.0</ele><time>2026-05-01T18:24:11.051Z</time></trkpt><trkpt lat="43.5480403" lon="11.558933"><ele>139.0</ele><time>2026-05-01T18:24:12.05Z</time></trkpt><trkpt lat="43.5481954" lon="11.5588251"><ele>139.0</ele><time>2026-05-01T18:24:13.05Z</time></trkpt><trkpt lat="43.5483508" lon="11.5587286"><ele>139.0</ele><time>2026-05-01T18:24:14.05Z</time></trkpt><trkpt lat="43.5485053" lon="11.5586583"><ele>139.0</ele><time>2026-05-01T18:24:15.05Z</time></trkpt><trkpt lat="43.5486497" lon="11.5586066"><ele>139.0</ele><time>2026-05-01T18:24:16.051Z</time></trkpt><trkpt lat="43.5487884" lon="11.5585649"><ele>139.0</ele><time>2026-05-01T18:24:17.05Z</time></trkpt><trkpt lat="43.5489279" lon="11.5585239"><ele>139.0</ele><time>2026-05-01T18:24:18.05Z</time></trkpt><trkpt lat="43.5490584" lon="11.5584825"><ele>139.0</ele><time>2026-05-01T18:24:19.05Z</time></trkpt><trkpt lat="43.5491832" lon="11.5584365"><ele>139.0</ele><time>2026-05-01T18:24:20.05Z</time></trkpt><trkpt lat="43.5493038" lon="11.5583716"><ele>139.0</ele><time>2026-05-01T18:24:21.05Z</time></trkpt><trkpt lat="43.5494161" lon="11.5582587"><ele>139.0</ele><time>2026-05-01T18:24:22.05Z</time></trkpt><trkpt lat="43.5495069" lon="11.5581229"><ele>139.0</ele><time>2026-05-01T18:24:23.051Z</time></trkpt><trkpt lat="43.5495641" lon="11.5579458"><ele>138.5</ele><time>2026-05-01T18:24:24.051Z</time></trkpt><trkpt lat="43.5495863" lon="11.5577552"><ele>138.0</ele><time>2026-05-01T18:24:25.051Z</time></trkpt><trkpt lat="43.5495801" lon="11.5575739"><ele>137.5</ele><time>2026-05-01T18:24:26.05Z</time></trkpt><trkpt lat="43.5495775" lon="11.5574194"><ele>137.0</ele><time>2026-05-01T18:24:27.05Z</time></trkpt><trkpt lat="43.5495752" lon="11.5572757"><ele>137.0</ele><time>2026-05-01T18:24:28.05Z</time></trkpt><trkpt lat="43.5495979" lon="11.5571556"><ele>137.0</ele><time>2026-05-01T18:24:29.05Z</time></trkpt><trkpt lat="43.5496351" lon="11.5570496"><ele>137.0</ele><time>2026-05-01T18:24:30.05Z</time></trkpt><trkpt lat="43.5496764" lon="11.5569713"><ele>137.0</ele><time>2026-05-01T18:24:31.05Z</time></trkpt><trkpt lat="43.5497285" lon="11.5568779"><ele>137.0</ele><time>2026-05-01T18:24:33.051Z</time></trkpt><trkpt lat="43.5497626" lon="11.5567817"><ele>137.0</ele><time>2026-05-01T18:24:35.05Z</time></trkpt><trkpt lat="43.5498197" lon="11.5566772"><ele>137.0</ele><time>2026-05-01T18:25:49.051Z</time></trkpt><trkpt lat="43.5498719" lon="11.556623"><ele>137.0</ele><time>2026-05-01T18:25:50.05Z</time></trkpt><trkpt lat="43.5499798" lon="11.5565752"><ele>137.0</ele><time>2026-05-01T18:25:52.05Z</time></trkpt><trkpt lat="43.5500838" lon="11.5565659"><ele>137.0</ele><time>2026-05-01T18:25:54.05Z</time></trkpt><trkpt lat="43.5501365" lon="11.5565047"><ele>137.0</ele><time>2026-05-01T18:25:56.051Z</time></trkpt><trkpt lat="43.5501949" lon="11.5564335"><ele>137.0</ele><time>2026-05-01T18:35:58.051Z</time></trkpt><trkpt lat="43.5502685" lon="11.5564022"><ele>137.0</ele><time>2026-05-01T18:35:59.052Z</time></trkpt><trkpt lat="43.5503465" lon="11.556411"><ele>137.0</ele><time>2026-05-01T18:36:00.052Z</time></trkpt><trkpt lat="43.5504379" lon="11.5564341"><ele>137.0</ele><time>2026-05-01T18:36:01.051Z</time></trkpt><trkpt lat="43.5505327" lon="11.5564643"><ele>137.0</ele><time>2026-05-01T18:36:02.052Z</time></trkpt><trkpt lat="43.5506394" lon="11.556505"><ele>137.0</ele><time>2026-05-01T18:36:03.051Z</time></trkpt><trkpt lat="43.5507366" lon="11.5565307"><ele>137.6</ele><time>2026-05-01T18:36:04.051Z</time></trkpt><trkpt lat="43.5508197" lon="11.5565705"><ele>138.2</ele><time>2026-05-01T18:36:05.051Z</time></trkpt><trkpt lat="43.5508984" lon="11.5566423"><ele>138.8</ele><time>2026-05-01T18:36:06.051Z</time></trkpt><trkpt lat="43.5509526" lon="11.5567528"><ele>139.4</ele><time>2026-05-01T18:36:07.052Z</time></trkpt><trkpt lat="43.5509666" lon="11.5569025"><ele>140.0</ele><time>2026-05-01T18:36:08.051Z</time></trkpt><trkpt lat="43.5509497" lon="11.5570533"><ele>140.0</ele><time>2026-05-01T18:36:09.052Z</time></trkpt><trkpt lat="43.5509077" lon="11.5572299"><ele>140.0</ele><time>2026-05-01T18:36:10.051Z</time></trkpt><trkpt lat="43.5508592" lon="11.5574031"><ele>140.0</ele><time>2026-05-01T18:36:11.052Z</time></trkpt><trkpt lat="43.5508099" lon="11.5575944"><ele>140.0</ele><time>2026-05-01T18:36:12.052Z</time></trkpt><trkpt lat="43.5507658" lon="11.5577863"><ele>140.25</ele><time>2026-05-01T18:36:13.051Z</time></trkpt><trkpt lat="43.5507243" lon="11.5579769"><ele>140.5</ele><time>2026-05-01T18:36:14.051Z</time></trkpt><trkpt lat="43.5506875" lon="11.5581524"><ele>140.75</ele><time>2026-05-01T18:36:15.052Z</time></trkpt><trkpt lat="43.5506571" lon="11.5583142"><ele>141.0</ele><time>2026-05-01T18:36:16.051Z</time></trkpt><trkpt lat="43.550638" lon="11.558465"><ele>141.0</ele><time>2026-05-01T18:36:17.052Z</time></trkpt><trkpt lat="43.5506486" lon="11.5585919"><ele>141.0</ele><time>2026-05-01T18:36:18.052Z</time></trkpt><trkpt lat="43.5506943" lon="11.5586852"><ele>141.0</ele><time>2026-05-01T18:36:19.052Z</time></trkpt><trkpt lat="43.5507681" lon="11.5587399"><ele>141.0</ele><time>2026-05-01T18:36:20.052Z</time></trkpt><trkpt lat="43.5508514" lon="11.5587489"><ele>141.0</ele><time>2026-05-01T18:36:21.051Z</time></trkpt><trkpt lat="43.5509349" lon="11.5586884"><ele>141.0</ele><time>2026-05-01T18:36:22.051Z</time></trkpt><trkpt lat="43.5510147" lon="11.5585918"><ele>141.0</ele><time>2026-05-01T18:36:23.051Z</time></trkpt><trkpt lat="43.5510785" lon="11.5584561"><ele>141.0</ele><time>2026-05-01T18:36:24.051Z</time></trkpt><trkpt lat="43.5511433" lon="11.5583241"><ele>141.0</ele><time>2026-05-01T18:36:25.051Z</time></trkpt><trkpt lat="43.5512178" lon="11.5581903"><ele>141.0</ele><time>2026-05-01T18:36:26.051Z</time></trkpt><trkpt lat="43.551293" lon="11.5580495"><ele>140.75</ele><time>2026-05-01T18:36:27.052Z</time></trkpt><trkpt lat="43.5513688" lon="11.5579054"><ele>140.5</ele><time>2026-05-01T18:36:28.051Z</time></trkpt><trkpt lat="43.5514421" lon="11.5577558"><ele>140.25</ele><time>2026-05-01T18:36:29.051Z</time></trkpt><trkpt lat="43.5515067" lon="11.5576027"><ele>140.0</ele><time>2026-05-01T18:36:30.052Z</time></trkpt><trkpt lat="43.5515545" lon="11.5574416"><ele>140.0</ele><time>2026-05-01T18:36:31.051Z</time></trkpt><trkpt lat="43.551581" lon="11.5572724"><ele>140.0</ele><time>2026-05-01T18:36:32.051Z</time></trkpt><trkpt lat="43.55158" lon="11.5571098"><ele>140.0</ele><time>2026-05-01T18:36:33.051Z</time></trkpt><trkpt lat="43.5515648" lon="11.5569507"><ele>140.0</ele><time>2026-05-01T18:36:34.051Z</time></trkpt><trkpt lat="43.5515296" lon="11.5568007"><ele>140.0</ele><time>2026-05-01T18:36:35.051Z</time></trkpt><trkpt lat="43.5514852" lon="11.5566607"><ele>140.0</ele><time>2026-05-01T18:36:36.052Z</time></trkpt><trkpt lat="43.5514341" lon="11.5565219"><ele>140.0</ele><time>2026-05-01T18:36:37.051Z</time></trkpt><trkpt lat="43.5513804" lon="11.5563921"><ele>140.0</ele><time>2026-05-01T18:36:38.051Z</time></trkpt><trkpt lat="43.551334" lon="11.5562665"><ele>140.0</ele><time>2026-05-01T18:36:39.051Z</time></trkpt><trkpt lat="43.5512922" lon="11.556132"><ele>139.75</ele><time>2026-05-01T18:36:40.052Z</time></trkpt><trkpt lat="43.5512543" lon="11.5559877"><ele>139.5</ele><time>2026-05-01T18:36:41.051Z</time></trkpt><trkpt lat="43.5512261" lon="11.5558256"><ele>139.25</ele><time>2026-05-01T18:36:42.052Z</time></trkpt><trkpt lat="43.551218" lon="11.5556716"><ele>139.0</ele><time>2026-05-01T18:36:43.051Z</time></trkpt><trkpt lat="43.5512302" lon="11.5555081"><ele>139.25</ele><time>2026-05-01T18:36:44.051Z</time></trkpt><trkpt lat="43.5512535" lon="11.5553304"><ele>139.5</ele><time>2026-05-01T18:36:45.052Z</time></trkpt><trkpt lat="43.5512874" lon="11.5551378"><ele>139.75</ele><time>2026-05-01T18:36:46.052Z</time></trkpt><trkpt lat="43.5513345" lon="11.5549295"><ele>140.0</ele><time>2026-05-01T18:36:47.052Z</time></trkpt><trkpt lat="43.5513936" lon="11.5547133"><ele>140.0</ele><time>2026-05-01T18:36:48.052Z</time></trkpt><trkpt lat="43.5514513" lon="11.5544967"><ele>140.0</ele><time>2026-05-01T18:36:49.051Z</time></trkpt><trkpt lat="43.5515135" lon="11.5542671"><ele>140.0</ele><time>2026-05-01T18:36:50.051Z</time></trkpt><trkpt lat="43.5515886" lon="11.5540332"><ele>140.0</ele><time>2026-05-01T18:36:51.051Z</time></trkpt><trkpt lat="43.551679" lon="11.553807"><ele>140.0</ele><time>2026-05-01T18:36:52.051Z</time></trkpt><trkpt lat="43.5517871" lon="11.5535874"><ele>140.0</ele><time>2026-05-01T18:36:53.051Z</time></trkpt><trkpt lat="43.5519041" lon="11.553361"><ele>139.33333333333331</ele><time>2026-05-01T18:36:54.052Z</time></trkpt><trkpt lat="43.5520282" lon="11.5531508"><ele>138.66666666666666</ele><time>2026-05-01T18:36:55.051Z</time></trkpt><trkpt lat="43.552164" lon="11.5529486"><ele>138.0</ele><time>2026-05-01T18:36:56.052Z</time></trkpt><trkpt lat="43.5523018" lon="11.5527451"><ele>137.66666666666666</ele><time>2026-05-01T18:36:57.051Z</time></trkpt><trkpt lat="43.5524371" lon="11.5525332"><ele>137.33333333333331</ele><time>2026-05-01T18:36:58.051Z</time></trkpt><trkpt lat="43.5525803" lon="11.552326"><ele>137.0</ele><time>2026-05-01T18:36:59.052Z</time></trkpt><trkpt lat="43.5527225" lon="11.5521182"><ele>137.33333333333331</ele><time>2026-05-01T18:37:00.052Z</time></trkpt><trkpt lat="43.552865" lon="11.5519027"><ele>137.66666666666666</ele><time>2026-05-01T18:37:01.051Z</time></trkpt><trkpt lat="43.5530021" lon="11.5516789"><ele>138.0</ele><time>2026-05-01T18:37:02.051Z</time></trkpt><trkpt lat="43.5531424" lon="11.5514597"><ele>138.0</ele><time>2026-05-01T18:37:03.051Z</time></trkpt><trkpt lat="43.5532823" lon="11.5512308"><ele>138.0</ele><time>2026-05-01T18:37:04.052Z</time></trkpt><trkpt lat="43.5534229" lon="11.5510017"><ele>138.0</ele><time>2026-05-01T18:37:05.051Z</time></trkpt><trkpt lat="43.5535643" lon="11.5507683"><ele>137.33333333333334</ele><time>2026-05-01T18:37:06.052Z</time></trkpt><trkpt lat="43.5537033" lon="11.5505308"><ele>136.66666666666669</ele><time>2026-05-01T18:37:07.051Z</time></trkpt><trkpt lat="43.5538386" lon="11.550287"><ele>136.0</ele><time>2026-05-01T18:37:08.051Z</time></trkpt><trkpt lat="43.5539738" lon="11.5500435"><ele>136.0</ele><time>2026-05-01T18:37:09.051Z</time></trkpt><trkpt lat="43.5541097" lon="11.5497981"><ele>136.0</ele><time>2026-05-01T18:37:10.052Z</time></trkpt><trkpt lat="43.5542479" lon="11.5495617"><ele>136.0</ele><time>2026-05-01T18:37:11.051Z</time></trkpt><trkpt lat="43.5543877" lon="11.5493164"><ele>135.0</ele><time>2026-05-01T18:37:12.051Z</time></trkpt><trkpt lat="43.5545279" lon="11.5490692"><ele>134.0</ele><time>2026-05-01T18:37:13.051Z</time></trkpt><trkpt lat="43.5546672" lon="11.5488184"><ele>135.5</ele><time>2026-05-01T18:37:14.051Z</time></trkpt><trkpt lat="43.5548038" lon="11.5485594"><ele>137.0</ele><time>2026-05-01T18:37:15.052Z</time></trkpt><trkpt lat="43.5549435" lon="11.5483094"><ele>137.0</ele><time>2026-05-01T18:37:16.051Z</time></trkpt><trkpt lat="43.5550837" lon="11.5480577"><ele>137.0</ele><time>2026-05-01T18:37:17.051Z</time></trkpt><trkpt lat="43.5552212" lon="11.5478043"><ele>136.66666666666666</ele><time>2026-05-01T18:37:18.051Z</time></trkpt><trkpt lat="43.5553577" lon="11.5475496"><ele>136.33333333333334</ele><time>2026-05-01T18:37:19.052Z</time></trkpt><trkpt lat="43.5554876" lon="11.5473121"><ele>136.0</ele><time>2026-05-01T18:37:20.051Z</time></trkpt><trkpt lat="43.5556188" lon="11.5470752"><ele>138.33333333333334</ele><time>2026-05-01T18:37:21.052Z</time></trkpt><trkpt lat="43.5557508" lon="11.5468403"><ele>140.66666666666666</ele><time>2026-05-01T18:37:22.051Z</time></trkpt><trkpt lat="43.5558815" lon="11.546611"><ele>143.0</ele><time>2026-05-01T18:37:23.051Z</time></trkpt><trkpt lat="43.5560072" lon="11.5463791"><ele>144.0</ele><time>2026-05-01T18:37:24.051Z</time></trkpt><trkpt lat="43.5561334" lon="11.5461548"><ele>145.0</ele><time>2026-05-01T18:37:25.051Z</time></trkpt><trkpt lat="43.5562589" lon="11.545928"><ele>146.0</ele><time>2026-05-01T18:37:26.051Z</time></trkpt><trkpt lat="43.5563871" lon="11.545717"><ele>146.0</ele><time>2026-05-01T18:37:27.052Z</time></trkpt><trkpt lat="43.5565136" lon="11.5455124"><ele>146.0</ele><time>2026-05-01T18:37:28.051Z</time></trkpt><trkpt lat="43.5566419" lon="11.5453152"><ele>146.0</ele><time>2026-05-01T18:37:29.051Z</time></trkpt><trkpt lat="43.5567683" lon="11.5451339"><ele>144.33333333333331</ele><time>2026-05-01T18:37:30.051Z</time></trkpt><trkpt lat="43.5568888" lon="11.5449691"><ele>142.66666666666666</ele><time>2026-05-01T18:37:31.051Z</time></trkpt><trkpt lat="43.5570022" lon="11.5448152"><ele>141.0</ele><time>2026-05-01T18:37:32.051Z</time></trkpt><trkpt lat="43.5571143" lon="11.5446672"><ele>140.75</ele><time>2026-05-01T18:37:33.051Z</time></trkpt><trkpt lat="43.5572259" lon="11.5445148"><ele>140.5</ele><time>2026-05-01T18:37:34.051Z</time></trkpt><trkpt lat="43.5573344" lon="11.5443769"><ele>140.25</ele><time>2026-05-01T18:37:35.051Z</time></trkpt><trkpt lat="43.5574336" lon="11.5442542"><ele>140.0</ele><time>2026-05-01T18:37:36.051Z</time></trkpt><trkpt lat="43.5575307" lon="11.5441308"><ele>140.0</ele><time>2026-05-01T18:37:37.051Z</time></trkpt><trkpt lat="43.5576303" lon="11.5440099"><ele>140.0</ele><time>2026-05-01T18:37:38.051Z</time></trkpt><trkpt lat="43.557727" lon="11.5438923"><ele>140.0</ele><time>2026-05-01T18:37:39.051Z</time></trkpt><trkpt lat="43.5578182" lon="11.5437747"><ele>140.0</ele><time>2026-05-01T18:37:40.051Z</time></trkpt><trkpt lat="43.557909" lon="11.5436511"><ele>139.25</ele><time>2026-05-01T18:37:41.051Z</time></trkpt><trkpt lat="43.5580007" lon="11.5435339"><ele>138.5</ele><time>2026-05-01T18:37:42.051Z</time></trkpt><trkpt lat="43.558099" lon="11.5434211"><ele>137.75</ele><time>2026-05-01T18:37:43.051Z</time></trkpt><trkpt lat="43.5582102" lon="11.5432961"><ele>137.0</ele><time>2026-05-01T18:37:44.051Z</time></trkpt><trkpt lat="43.5583355" lon="11.5431785"><ele>137.0</ele><time>2026-05-01T18:37:45.052Z</time></trkpt><trkpt lat="43.5584572" lon="11.5430783"><ele>137.0</ele><time>2026-05-01T18:37:46.051Z</time></trkpt><trkpt lat="43.5585789" lon="11.5429858"><ele>137.0</ele><time>2026-05-01T18:37:47.051Z</time></trkpt><trkpt lat="43.5587135" lon="11.5428955"><ele>137.0</ele><time>2026-05-01T18:37:48.051Z</time></trkpt><trkpt lat="43.55885" lon="11.5428221"><ele>137.0</ele><time>2026-05-01T18:37:49.052Z</time></trkpt><trkpt lat="43.5589903" lon="11.542768"><ele>137.0</ele><time>2026-05-01T18:37:50.051Z</time></trkpt><trkpt lat="43.5591369" lon="11.5427108"><ele>137.0</ele><time>2026-05-01T18:37:51.051Z</time></trkpt><trkpt lat="43.5592855" lon="11.5426683"><ele>137.0</ele><time>2026-05-01T18:37:52.052Z</time></trkpt><trkpt lat="43.5594319" lon="11.5426362"><ele>137.0</ele><time>2026-05-01T18:37:53.051Z</time></trkpt><trkpt lat="43.5595808" lon="11.5426183"><ele>137.0</ele><time>2026-05-01T18:37:54.051Z</time></trkpt><trkpt lat="43.5597262" lon="11.5426117"><ele>137.0</ele><time>2026-05-01T18:37:55.051Z</time></trkpt><trkpt lat="43.5598597" lon="11.5426126"><ele>136.5</ele><time>2026-05-01T18:37:56.051Z</time></trkpt><trkpt lat="43.5599943" lon="11.5426147"><ele>136.0</ele><time>2026-05-01T18:37:57.051Z</time></trkpt><trkpt lat="43.5601365" lon="11.5426122"><ele>135.5</ele><time>2026-05-01T18:37:58.051Z</time></trkpt><trkpt lat="43.5602836" lon="11.5426128"><ele>135.0</ele><time>2026-05-01T18:37:59.052Z</time></trkpt><trkpt lat="43.5604299" lon="11.5426148"><ele>134.75</ele><time>2026-05-01T18:38:00.051Z</time></trkpt><trkpt lat="43.5605741" lon="11.5426183"><ele>134.5</ele><time>2026-05-01T18:38:01.051Z</time></trkpt><trkpt lat="43.5607171" lon="11.5426278"><ele>134.25</ele><time>2026-05-01T18:38:02.052Z</time></trkpt><trkpt lat="43.5608612" lon="11.5426377"><ele>134.0</ele><time>2026-05-01T18:38:03.051Z</time></trkpt><trkpt lat="43.5610061" lon="11.5426516"><ele>134.0</ele><time>2026-05-01T18:38:04.052Z</time></trkpt><trkpt lat="43.5611522" lon="11.5426708"><ele>134.0</ele><time>2026-05-01T18:38:05.051Z</time></trkpt><trkpt lat="43.5613007" lon="11.5426879"><ele>134.0</ele><time>2026-05-01T18:38:06.051Z</time></trkpt><trkpt lat="43.5614438" lon="11.5427076"><ele>134.0</ele><time>2026-05-01T18:38:07.051Z</time></trkpt><trkpt lat="43.5615829" lon="11.5427292"><ele>134.25</ele><time>2026-05-01T18:38:08.051Z</time></trkpt><trkpt lat="43.5617176" lon="11.54275"><ele>134.5</ele><time>2026-05-01T18:38:09.051Z</time></trkpt><trkpt lat="43.5618447" lon="11.5427707"><ele>134.75</ele><time>2026-05-01T18:38:10.051Z</time></trkpt><trkpt lat="43.5619713" lon="11.5427852"><ele>135.0</ele><time>2026-05-01T18:38:11.052Z</time></trkpt><trkpt lat="43.5620924" lon="11.5428013"><ele>135.0</ele><time>2026-05-01T18:38:12.051Z</time></trkpt><trkpt lat="43.5622047" lon="11.5428194"><ele>135.0</ele><time>2026-05-01T18:38:13.052Z</time></trkpt><trkpt lat="43.5623146" lon="11.542839"><ele>135.0</ele><time>2026-05-01T18:38:14.051Z</time></trkpt><trkpt lat="43.5624196" lon="11.5428536"><ele>135.0</ele><time>2026-05-01T18:38:15.052Z</time></trkpt><trkpt lat="43.5625276" lon="11.5428689"><ele>135.0</ele><time>2026-05-01T18:38:16.051Z</time></trkpt><trkpt lat="43.5626413" lon="11.5428909"><ele>135.16666666666666</ele><time>2026-05-01T18:38:17.051Z</time></trkpt><trkpt lat="43.5627432" lon="11.5429146"><ele>135.33333333333334</ele><time>2026-05-01T18:38:18.051Z</time></trkpt><trkpt lat="43.5628327" lon="11.5429375"><ele>135.5</ele><time>2026-05-01T18:38:19.051Z</time></trkpt><trkpt lat="43.5629103" lon="11.542964"><ele>135.66666666666669</ele><time>2026-05-01T18:38:20.052Z</time></trkpt><trkpt lat="43.5629842" lon="11.5429888"><ele>135.83333333333334</ele><time>2026-05-01T18:38:21.052Z</time></trkpt><trkpt lat="43.5630495" lon="11.5430147"><ele>136.0</ele><time>2026-05-01T18:38:22.051Z</time></trkpt><trkpt lat="43.5631074" lon="11.5430504"><ele>136.14285714285714</ele><time>2026-05-01T18:38:23.052Z</time></trkpt><trkpt lat="43.5631662" lon="11.5430918"><ele>136.28571428571428</ele><time>2026-05-01T18:38:24.052Z</time></trkpt><trkpt lat="43.5632277" lon="11.5431521"><ele>136.42857142857144</ele><time>2026-05-01T18:38:25.052Z</time></trkpt><trkpt lat="43.5632858" lon="11.5432107"><ele>136.57142857142856</ele><time>2026-05-01T18:38:26.051Z</time></trkpt><trkpt lat="43.563345" lon="11.5432572"><ele>136.71428571428572</ele><time>2026-05-01T18:38:27.052Z</time></trkpt><trkpt lat="43.5634083" lon="11.5432872"><ele>136.85714285714286</ele><time>2026-05-01T18:38:28.051Z</time></trkpt><trkpt lat="43.5634724" lon="11.5432955"><ele>137.0</ele><time>2026-05-01T18:38:29.051Z</time></trkpt><trkpt lat="43.5635432" lon="11.5432541"><ele>137.0</ele><time>2026-05-01T18:38:30.052Z</time></trkpt><trkpt lat="43.5636059" lon="11.5431985"><ele>137.0</ele><time>2026-05-01T18:38:31.051Z</time></trkpt><trkpt lat="43.5636773" lon="11.5431439"><ele>137.0</ele><time>2026-05-01T18:38:32.051Z</time></trkpt><trkpt lat="43.5637598" lon="11.5430913"><ele>137.0</ele><time>2026-05-01T18:38:33.051Z</time></trkpt><trkpt lat="43.5638598" lon="11.5430489"><ele>137.0</ele><time>2026-05-01T18:38:34.051Z</time></trkpt><trkpt lat="43.5639841" lon="11.5430227"><ele>137.0</ele><time>2026-05-01T18:38:35.051Z</time></trkpt><trkpt lat="43.5641109" lon="11.5430158"><ele>137.0</ele><time>2026-05-01T18:38:36.051Z</time></trkpt><trkpt lat="43.5642576" lon="11.5430184"><ele>137.0</ele><time>2026-05-01T18:38:37.051Z</time></trkpt><trkpt lat="43.5643974" lon="11.5430157"><ele>137.0</ele><time>2026-05-01T18:38:38.051Z</time></trkpt><trkpt lat="43.5645376" lon="11.5430234"><ele>137.25</ele><time>2026-05-01T18:38:39.051Z</time></trkpt><trkpt lat="43.5646762" lon="11.5430364"><ele>137.5</ele><time>2026-05-01T18:38:40.052Z</time></trkpt><trkpt lat="43.5648202" lon="11.5430527"><ele>137.75</ele><time>2026-05-01T18:38:41.051Z</time></trkpt><trkpt lat="43.5649711" lon="11.5430693"><ele>138.0</ele><time>2026-05-01T18:38:42.051Z</time></trkpt><trkpt lat="43.5651182" lon="11.5430789"><ele>138.0</ele><time>2026-05-01T18:38:43.051Z</time></trkpt><trkpt lat="43.5652652" lon="11.543096"><ele>138.0</ele><time>2026-05-01T18:38:44.051Z</time></trkpt><trkpt lat="43.5654145" lon="11.5431207"><ele>138.0</ele><time>2026-05-01T18:38:45.051Z</time></trkpt><trkpt lat="43.5655669" lon="11.5431392"><ele>139.66666666666666</ele><time>2026-05-01T18:38:46.051Z</time></trkpt><trkpt lat="43.5657192" lon="11.5431592"><ele>141.33333333333331</ele><time>2026-05-01T18:38:47.052Z</time></trkpt><trkpt lat="43.5658747" lon="11.543179"><ele>143.0</ele><time>2026-05-01T18:38:48.051Z</time></trkpt><trkpt lat="43.5660394" lon="11.543194"><ele>143.66666666666666</ele><time>2026-05-01T18:38:49.052Z</time></trkpt><trkpt lat="43.566203" lon="11.543215"><ele>144.33333333333334</ele><time>2026-05-01T18:38:50.051Z</time></trkpt><trkpt lat="43.5663742" lon="11.5432336"><ele>145.0</ele><time>2026-05-01T18:38:51.051Z</time></trkpt><trkpt lat="43.5665369" lon="11.543256"><ele>145.0</ele><time>2026-05-01T18:38:52.051Z</time></trkpt><trkpt lat="43.566702" lon="11.5432783"><ele>145.0</ele><time>2026-05-01T18:38:53.051Z</time></trkpt><trkpt lat="43.5668684" lon="11.5433012"><ele>145.0</ele><time>2026-05-01T18:38:54.051Z</time></trkpt><trkpt lat="43.5670354" lon="11.5433214"><ele>143.66666666666669</ele><time>2026-05-01T18:38:55.051Z</time></trkpt><trkpt lat="43.5672037" lon="11.5433363"><ele>142.33333333333334</ele><time>2026-05-01T18:38:56.051Z</time></trkpt><trkpt lat="43.5673691" lon="11.5433342"><ele>141.0</ele><time>2026-05-01T18:38:57.051Z</time></trkpt><trkpt lat="43.5675334" lon="11.543324"><ele>141.0</ele><time>2026-05-01T18:38:58.052Z</time></trkpt><trkpt lat="43.5676983" lon="11.5432977"><ele>141.0</ele><time>2026-05-01T18:38:59.052Z</time></trkpt><trkpt lat="43.5678631" lon="11.5432643"><ele>141.0</ele><time>2026-05-01T18:39:00.051Z</time></trkpt><trkpt lat="43.568024" lon="11.5432228"><ele>140.0</ele><time>2026-05-01T18:39:01.051Z</time></trkpt><trkpt lat="43.5681867" lon="11.5431698"><ele>139.0</ele><time>2026-05-01T18:39:02.051Z</time></trkpt><trkpt lat="43.5683514" lon="11.5431243"><ele>138.0</ele><time>2026-05-01T18:39:03.051Z</time></trkpt><trkpt lat="43.5685167" lon="11.5430792"><ele>138.0</ele><time>2026-05-01T18:39:04.052Z</time></trkpt><trkpt lat="43.5686735" lon="11.5430323"><ele>138.0</ele><time>2026-05-01T18:39:05.051Z</time></trkpt><trkpt lat="43.5688223" lon="11.5430031"><ele>138.0</ele><time>2026-05-01T18:39:06.051Z</time></trkpt><trkpt lat="43.5689661" lon="11.5429926"><ele>138.0</ele><time>2026-05-01T18:39:07.051Z</time></trkpt><trkpt lat="43.5691163" lon="11.5429945"><ele>138.0</ele><time>2026-05-01T18:39:08.051Z</time></trkpt><trkpt lat="43.5692679" lon="11.5430234"><ele>138.0</ele><time>2026-05-01T18:39:09.052Z</time></trkpt><trkpt lat="43.569414" lon="11.5430626"><ele>137.5</ele><time>2026-05-01T18:39:10.052Z</time></trkpt><trkpt lat="43.5695488" lon="11.5431002"><ele>137.0</ele><time>2026-05-01T18:39:11.051Z</time></trkpt><trkpt lat="43.5696811" lon="11.5431454"><ele>136.5</ele><time>2026-05-01T18:39:12.052Z</time></trkpt><trkpt lat="43.5698179" lon="11.5431919"><ele>136.0</ele><time>2026-05-01T18:39:13.051Z</time></trkpt><trkpt lat="43.569955" lon="11.5432206"><ele>136.0</ele><time>2026-05-01T18:39:14.052Z</time></trkpt><trkpt lat="43.5700919" lon="11.5432198"><ele>136.0</ele><time>2026-05-01T18:39:15.051Z</time></trkpt><trkpt lat="43.5702275" lon="11.5431844"><ele>136.0</ele><time>2026-05-01T18:39:16.051Z</time></trkpt><trkpt lat="43.5703586" lon="11.5431136"><ele>136.0</ele><time>2026-05-01T18:39:17.051Z</time></trkpt><trkpt lat="43.5704844" lon="11.543009"><ele>136.0</ele><time>2026-05-01T18:39:18.051Z</time></trkpt><trkpt lat="43.5706071" lon="11.5428832"><ele>136.0</ele><time>2026-05-01T18:39:19.051Z</time></trkpt><trkpt lat="43.5707308" lon="11.5427469"><ele>136.0</ele><time>2026-05-01T18:39:20.051Z</time></trkpt><trkpt lat="43.570855" lon="11.5426002"><ele>136.33333333333334</ele><time>2026-05-01T18:39:21.051Z</time></trkpt><trkpt lat="43.5709836" lon="11.5424541"><ele>136.66666666666666</ele><time>2026-05-01T18:39:22.051Z</time></trkpt><trkpt lat="43.5711178" lon="11.5423074"><ele>137.0</ele><time>2026-05-01T18:39:23.051Z</time></trkpt><trkpt lat="43.5712616" lon="11.5421615"><ele>137.0</ele><time>2026-05-01T18:39:24.052Z</time></trkpt><trkpt lat="43.5714085" lon="11.5420203"><ele>137.0</ele><time>2026-05-01T18:39:25.051Z</time></trkpt><trkpt lat="43.5715637" lon="11.5418863"><ele>137.0</ele><time>2026-05-01T18:39:26.051Z</time></trkpt><trkpt lat="43.5717183" lon="11.5417421"><ele>137.0</ele><time>2026-05-01T18:39:27.052Z</time></trkpt><trkpt lat="43.5718772" lon="11.5415985"><ele>137.0</ele><time>2026-05-01T18:39:28.052Z</time></trkpt><trkpt lat="43.5720321" lon="11.5414465"><ele>137.0</ele><time>2026-05-01T18:39:29.052Z</time></trkpt><trkpt lat="43.5721843" lon="11.5412753"><ele>136.33333333333331</ele><time>2026-05-01T18:39:30.051Z</time></trkpt><trkpt lat="43.5723303" lon="11.5411001"><ele>135.66666666666666</ele><time>2026-05-01T18:39:31.051Z</time></trkpt><trkpt lat="43.5724594" lon="11.5409185"><ele>135.0</ele><time>2026-05-01T18:39:32.051Z</time></trkpt><trkpt lat="43.5725894" lon="11.540731"><ele>135.0</ele><time>2026-05-01T18:39:33.052Z</time></trkpt><trkpt lat="43.5727124" lon="11.5405392"><ele>135.0</ele><time>2026-05-01T18:39:34.052Z</time></trkpt><trkpt lat="43.5728358" lon="11.5403474"><ele>135.0</ele><time>2026-05-01T18:39:35.052Z</time></trkpt><trkpt lat="43.5729579" lon="11.5401542"><ele>135.0</ele><time>2026-05-01T18:39:36.051Z</time></trkpt><trkpt lat="43.573089" lon="11.5399665"><ele>135.0</ele><time>2026-05-01T18:39:37.051Z</time></trkpt><trkpt lat="43.5732192" lon="11.539784"><ele>135.0</ele><time>2026-05-01T18:39:38.051Z</time></trkpt><trkpt lat="43.5733563" lon="11.5396145"><ele>135.0</ele><time>2026-05-01T18:39:39.051Z</time></trkpt><trkpt lat="43.5735049" lon="11.5394484"><ele>135.0</ele><time>2026-05-01T18:39:40.051Z</time></trkpt><trkpt lat="43.573651" lon="11.5392824"><ele>135.0</ele><time>2026-05-01T18:39:41.051Z</time></trkpt><trkpt lat="43.5737937" lon="11.5391108"><ele>135.33333333333334</ele><time>2026-05-01T18:39:42.051Z</time></trkpt><trkpt lat="43.5739374" lon="11.5389339"><ele>135.66666666666669</ele><time>2026-05-01T18:39:43.051Z</time></trkpt><trkpt lat="43.5740796" lon="11.5387607"><ele>136.0</ele><time>2026-05-01T18:39:44.051Z</time></trkpt><trkpt lat="43.5742221" lon="11.5385875"><ele>136.0</ele><time>2026-05-01T18:39:45.051Z</time></trkpt><trkpt lat="43.5743617" lon="11.5384113"><ele>136.0</ele><time>2026-05-01T18:39:46.051Z</time></trkpt><trkpt lat="43.574502" lon="11.5382354"><ele>136.0</ele><time>2026-05-01T18:39:47.051Z</time></trkpt><trkpt lat="43.5746467" lon="11.5380719"><ele>137.0</ele><time>2026-05-01T18:39:48.051Z</time></trkpt><trkpt lat="43.5747898" lon="11.5379066"><ele>138.0</ele><time>2026-05-01T18:39:49.051Z</time></trkpt><trkpt lat="43.5749312" lon="11.5377374"><ele>139.0</ele><time>2026-05-01T18:39:50.051Z</time></trkpt><trkpt lat="43.5750719" lon="11.5375608"><ele>139.0</ele><time>2026-05-01T18:39:51.051Z</time></trkpt><trkpt lat="43.5752159" lon="11.5373894"><ele>139.0</ele><time>2026-05-01T18:39:52.051Z</time></trkpt><trkpt lat="43.5753587" lon="11.5372245"><ele>139.0</ele><time>2026-05-01T18:39:53.051Z</time></trkpt><trkpt lat="43.5754988" lon="11.5370565"><ele>139.0</ele><time>2026-05-01T18:39:54.051Z</time></trkpt><trkpt lat="43.5756432" lon="11.5368908"><ele>139.0</ele><time>2026-05-01T18:39:55.052Z</time></trkpt><trkpt lat="43.575782" lon="11.5367258"><ele>139.0</ele><time>2026-05-01T18:39:56.051Z</time></trkpt><trkpt lat="43.5759102" lon="11.5365812"><ele>139.0</ele><time>2026-05-01T18:39:57.051Z</time></trkpt><trkpt lat="43.576035" lon="11.5364496"><ele>139.0</ele><time>2026-05-01T18:39:58.052Z</time></trkpt><trkpt lat="43.5761486" lon="11.5363215"><ele>139.0</ele><time>2026-05-01T18:39:59.051Z</time></trkpt><trkpt lat="43.5762581" lon="11.5361963"><ele>139.0</ele><time>2026-05-01T18:40:00.051Z</time></trkpt><trkpt lat="43.5763677" lon="11.5360644"><ele>138.0</ele><time>2026-05-01T18:40:01.051Z</time></trkpt><trkpt lat="43.5764799" lon="11.535933"><ele>137.0</ele><time>2026-05-01T18:40:02.052Z</time></trkpt><trkpt lat="43.5765934" lon="11.5358013"><ele>136.0</ele><time>2026-05-01T18:40:03.051Z</time></trkpt><trkpt lat="43.5766989" lon="11.5356801"><ele>135.0</ele><time>2026-05-01T18:40:04.052Z</time></trkpt><trkpt lat="43.5767995" lon="11.535557"><ele>135.0</ele><time>2026-05-01T18:40:05.052Z</time></trkpt><trkpt lat="43.5768968" lon="11.5354341"><ele>135.0</ele><time>2026-05-01T18:40:06.051Z</time></trkpt><trkpt lat="43.5769973" lon="11.5353178"><ele>135.0</ele><time>2026-05-01T18:40:07.051Z</time></trkpt><trkpt lat="43.5770973" lon="11.5352074"><ele>135.0</ele><time>2026-05-01T18:40:08.051Z</time></trkpt><trkpt lat="43.5771936" lon="11.5351026"><ele>135.2</ele><time>2026-05-01T18:40:09.051Z</time></trkpt><trkpt lat="43.5772835" lon="11.5349974"><ele>135.4</ele><time>2026-05-01T18:40:10.051Z</time></trkpt><trkpt lat="43.577369" lon="11.5349011"><ele>135.6</ele><time>2026-05-01T18:40:11.051Z</time></trkpt><trkpt lat="43.5774481" lon="11.5348106"><ele>135.8</ele><time>2026-05-01T18:40:12.052Z</time></trkpt><trkpt lat="43.5775231" lon="11.5347386"><ele>136.0</ele><time>2026-05-01T18:40:13.051Z</time></trkpt><trkpt lat="43.5776056" lon="11.5346946"><ele>136.0</ele><time>2026-05-01T18:40:14.051Z</time></trkpt><trkpt lat="43.5776894" lon="11.5346893"><ele>136.0</ele><time>2026-05-01T18:40:15.052Z</time></trkpt><trkpt lat="43.5777693" lon="11.5346815"><ele>136.0</ele><time>2026-05-01T18:40:16.051Z</time></trkpt><trkpt lat="43.5778497" lon="11.5346546"><ele>136.0</ele><time>2026-05-01T18:40:17.051Z</time></trkpt><trkpt lat="43.5779181" lon="11.534613"><ele>136.0</ele><time>2026-05-01T18:40:18.051Z</time></trkpt><trkpt lat="43.5779758" lon="11.5345152"><ele>136.0</ele><time>2026-05-01T18:40:19.051Z</time></trkpt><trkpt lat="43.5780127" lon="11.5344168"><ele>136.2</ele><time>2026-05-01T18:40:20.051Z</time></trkpt><trkpt lat="43.5780346" lon="11.5343069"><ele>136.39999999999998</ele><time>2026-05-01T18:40:21.052Z</time></trkpt><trkpt lat="43.578022" lon="11.5341559"><ele>136.6</ele><time>2026-05-01T18:40:22.051Z</time></trkpt><trkpt lat="43.5780173" lon="11.5339907"><ele>136.79999999999998</ele><time>2026-05-01T18:40:23.051Z</time></trkpt><trkpt lat="43.5780488" lon="11.5338164"><ele>137.0</ele><time>2026-05-01T18:40:24.051Z</time></trkpt><trkpt lat="43.5781072" lon="11.5336521"><ele>136.0</ele><time>2026-05-01T18:40:25.052Z</time></trkpt><trkpt lat="43.5781746" lon="11.533496"><ele>135.0</ele><time>2026-05-01T18:40:26.051Z</time></trkpt><trkpt lat="43.5782413" lon="11.5333272"><ele>134.0</ele><time>2026-05-01T18:40:27.052Z</time></trkpt><trkpt lat="43.5783221" lon="11.533157"><ele>133.0</ele><time>2026-05-01T18:40:28.051Z</time></trkpt><trkpt lat="43.57841" lon="11.5329795"><ele>133.0</ele><time>2026-05-01T18:40:29.051Z</time></trkpt><trkpt lat="43.5785036" lon="11.532793"><ele>133.0</ele><time>2026-05-01T18:40:30.051Z</time></trkpt><trkpt lat="43.5785967" lon="11.5325939"><ele>133.0</ele><time>2026-05-01T18:40:31.051Z</time></trkpt><trkpt lat="43.5786993" lon="11.5324048"><ele>132.33333333333334</ele><time>2026-05-01T18:40:32.051Z</time></trkpt><trkpt lat="43.5788003" lon="11.5322134"><ele>131.66666666666666</ele><time>2026-05-01T18:40:33.051Z</time></trkpt><trkpt lat="43.5788919" lon="11.5320354"><ele>131.0</ele><time>2026-05-01T18:40:34.052Z</time></trkpt><trkpt lat="43.5789795" lon="11.531881"><ele>131.0</ele><time>2026-05-01T18:40:35.051Z</time></trkpt><trkpt lat="43.5790709" lon="11.5317176"><ele>131.0</ele><time>2026-05-01T18:40:36.051Z</time></trkpt><trkpt lat="43.5791687" lon="11.5315547"><ele>131.0</ele><time>2026-05-01T18:40:37.051Z</time></trkpt><trkpt lat="43.5792668" lon="11.5313754"><ele>131.33333333333331</ele><time>2026-05-01T18:40:38.051Z</time></trkpt><trkpt lat="43.5793665" lon="11.5311897"><ele>131.66666666666666</ele><time>2026-05-01T18:40:39.051Z</time></trkpt><trkpt lat="43.5794641" lon="11.5310108"><ele>132.0</ele><time>2026-05-01T18:40:40.051Z</time></trkpt><trkpt lat="43.5795607" lon="11.5308189"><ele>131.0</ele><time>2026-05-01T18:40:41.052Z</time></trkpt><trkpt lat="43.5796648" lon="11.530634"><ele>130.0</ele><time>2026-05-01T18:40:42.051Z</time></trkpt><trkpt lat="43.5797694" lon="11.5304624"><ele>129.0</ele><time>2026-05-01T18:40:43.051Z</time></trkpt><trkpt lat="43.5798721" lon="11.5303108"><ele>129.0</ele><time>2026-05-01T18:40:44.051Z</time></trkpt><trkpt lat="43.5799849" lon="11.5301742"><ele>129.0</ele><time>2026-05-01T18:40:45.051Z</time></trkpt><trkpt lat="43.5801103" lon="11.5300517"><ele>129.0</ele><time>2026-05-01T18:40:46.052Z</time></trkpt><trkpt lat="43.5802463" lon="11.5299334"><ele>129.0</ele><time>2026-05-01T18:40:47.051Z</time></trkpt><trkpt lat="43.5803777" lon="11.5298214"><ele>129.0</ele><time>2026-05-01T18:40:48.051Z</time></trkpt><trkpt lat="43.5805114" lon="11.5296981"><ele>129.0</ele><time>2026-05-01T18:40:49.052Z</time></trkpt><trkpt lat="43.580636" lon="11.529551"><ele>129.0</ele><time>2026-05-01T18:40:50.051Z</time></trkpt><trkpt lat="43.5807556" lon="11.5293853"><ele>129.0</ele><time>2026-05-01T18:40:51.051Z</time></trkpt><trkpt lat="43.5808664" lon="11.5292034"><ele>129.0</ele><time>2026-05-01T18:40:52.051Z</time></trkpt><trkpt lat="43.5809603" lon="11.5289976"><ele>129.0</ele><time>2026-05-01T18:40:53.051Z</time></trkpt><trkpt lat="43.5810438" lon="11.5287753"><ele>129.0</ele><time>2026-05-01T18:40:54.051Z</time></trkpt><trkpt lat="43.5811186" lon="11.5285424"><ele>129.0</ele><time>2026-05-01T18:40:55.051Z</time></trkpt><trkpt lat="43.5811946" lon="11.5283033"><ele>130.66666666666666</ele><time>2026-05-01T18:40:56.052Z</time></trkpt><trkpt lat="43.5812774" lon="11.5280628"><ele>132.33333333333331</ele><time>2026-05-01T18:40:57.052Z</time></trkpt><trkpt lat="43.5813676" lon="11.5278223"><ele>134.0</ele><time>2026-05-01T18:40:58.051Z</time></trkpt><trkpt lat="43.5814569" lon="11.5275785"><ele>134.0</ele><time>2026-05-01T18:40:59.051Z</time></trkpt><trkpt lat="43.5815477" lon="11.5273361"><ele>134.0</ele><time>2026-05-01T18:41:00.052Z</time></trkpt><trkpt lat="43.5816414" lon="11.5270954"><ele>134.0</ele><time>2026-05-01T18:41:01.051Z</time></trkpt><trkpt lat="43.5817393" lon="11.5268518"><ele>133.66666666666666</ele><time>2026-05-01T18:41:02.052Z</time></trkpt><trkpt lat="43.581842" lon="11.5266193"><ele>133.33333333333334</ele><time>2026-05-01T18:41:03.051Z</time></trkpt><trkpt lat="43.5819485" lon="11.5263855"><ele>133.0</ele><time>2026-05-01T18:41:04.051Z</time></trkpt><trkpt lat="43.5820588" lon="11.5261538"><ele>133.66666666666669</ele><time>2026-05-01T18:41:05.051Z</time></trkpt><trkpt lat="43.582171" lon="11.525924"><ele>134.33333333333334</ele><time>2026-05-01T18:41:06.051Z</time></trkpt><trkpt lat="43.5822881" lon="11.5256915"><ele>135.0</ele><time>2026-05-01T18:41:07.052Z</time></trkpt><trkpt lat="43.5824173" lon="11.5254609"><ele>134.0</ele><time>2026-05-01T18:41:08.052Z</time></trkpt><trkpt lat="43.5825482" lon="11.5252402"><ele>133.0</ele><time>2026-05-01T18:41:09.051Z</time></trkpt><trkpt lat="43.5826804" lon="11.5250317"><ele>132.0</ele><time>2026-05-01T18:41:10.051Z</time></trkpt><trkpt lat="43.5828151" lon="11.5248122"><ele>132.33333333333334</ele><time>2026-05-01T18:41:11.052Z</time></trkpt><trkpt lat="43.582954" lon="11.5245891"><ele>132.66666666666669</ele><time>2026-05-01T18:41:12.051Z</time></trkpt><trkpt lat="43.5830926" lon="11.5243761"><ele>133.0</ele><time>2026-05-01T18:41:13.052Z</time></trkpt><trkpt lat="43.583234" lon="11.5241752"><ele>133.0</ele><time>2026-05-01T18:41:14.051Z</time></trkpt><trkpt lat="43.5833784" lon="11.5239775"><ele>133.0</ele><time>2026-05-01T18:41:15.051Z</time></trkpt><trkpt lat="43.5835223" lon="11.5237665"><ele>133.0</ele><time>2026-05-01T18:41:16.051Z</time></trkpt><trkpt lat="43.5836663" lon="11.523551"><ele>133.66666666666669</ele><time>2026-05-01T18:41:17.051Z</time></trkpt><trkpt lat="43.5838163" lon="11.5233304"><ele>134.33333333333334</ele><time>2026-05-01T18:41:18.052Z</time></trkpt><trkpt lat="43.5839695" lon="11.5231142"><ele>135.0</ele><time>2026-05-01T18:41:19.051Z</time></trkpt><trkpt lat="43.584123" lon="11.5229"><ele>133.66666666666666</ele><time>2026-05-01T18:41:20.052Z</time></trkpt><trkpt lat="43.5842744" lon="11.5226825"><ele>132.33333333333331</ele><time>2026-05-01T18:41:21.052Z</time></trkpt><trkpt lat="43.5844235" lon="11.5224655"><ele>131.0</ele><time>2026-05-01T18:41:22.052Z</time></trkpt><trkpt lat="43.584576" lon="11.5222487"><ele>131.33333333333331</ele><time>2026-05-01T18:41:23.052Z</time></trkpt><trkpt lat="43.5847312" lon="11.5220298"><ele>131.66666666666666</ele><time>2026-05-01T18:41:24.051Z</time></trkpt><trkpt lat="43.584891" lon="11.5218112"><ele>132.0</ele><time>2026-05-01T18:41:25.051Z</time></trkpt><trkpt lat="43.5850464" lon="11.5215896"><ele>132.0</ele><time>2026-05-01T18:41:26.051Z</time></trkpt><trkpt lat="43.5851939" lon="11.5213769"><ele>132.0</ele><time>2026-05-01T18:41:27.051Z</time></trkpt><trkpt lat="43.5853436" lon="11.5211645"><ele>132.0</ele><time>2026-05-01T18:41:28.051Z</time></trkpt><trkpt lat="43.585495" lon="11.5209552"><ele>132.0</ele><time>2026-05-01T18:41:29.051Z</time></trkpt><trkpt lat="43.5856452" lon="11.5207456"><ele>132.0</ele><time>2026-05-01T18:41:30.051Z</time></trkpt><trkpt lat="43.5857982" lon="11.520532"><ele>132.0</ele><time>2026-05-01T18:41:31.051Z</time></trkpt><trkpt lat="43.5859519" lon="11.5203144"><ele>132.0</ele><time>2026-05-01T18:41:32.051Z</time></trkpt><trkpt lat="43.5861072" lon="11.520093"><ele>132.0</ele><time>2026-05-01T18:41:33.052Z</time></trkpt><trkpt lat="43.5862661" lon="11.5198659"><ele>132.0</ele><time>2026-05-01T18:41:34.051Z</time></trkpt><trkpt lat="43.5864337" lon="11.519641"><ele>132.0</ele><time>2026-05-01T18:41:35.051Z</time></trkpt><trkpt lat="43.5866036" lon="11.51941"><ele>131.0</ele><time>2026-05-01T18:41:36.051Z</time></trkpt><trkpt lat="43.5867786" lon="11.5191695"><ele>130.0</ele><time>2026-05-01T18:41:37.052Z</time></trkpt><trkpt lat="43.5869514" lon="11.5189324"><ele>130.5</ele><time>2026-05-01T18:41:38.052Z</time></trkpt><trkpt lat="43.5871267" lon="11.518688"><ele>131.0</ele><time>2026-05-01T18:41:39.051Z</time></trkpt><trkpt lat="43.5873033" lon="11.5184413"><ele>131.0</ele><time>2026-05-01T18:41:40.051Z</time></trkpt><trkpt lat="43.5874792" lon="11.5181927"><ele>131.0</ele><time>2026-05-01T18:41:41.051Z</time></trkpt><trkpt lat="43.5876593" lon="11.5179397"><ele>131.0</ele><time>2026-05-01T18:41:42.051Z</time></trkpt><trkpt lat="43.5878413" lon="11.517683"><ele>131.0</ele><time>2026-05-01T18:41:43.052Z</time></trkpt><trkpt lat="43.5880172" lon="11.5174251"><ele>131.5</ele><time>2026-05-01T18:41:44.052Z</time></trkpt><trkpt lat="43.5881975" lon="11.5171666"><ele>132.0</ele><time>2026-05-01T18:41:45.051Z</time></trkpt><trkpt lat="43.5883742" lon="11.5169199"><ele>132.0</ele><time>2026-05-01T18:41:46.051Z</time></trkpt><trkpt lat="43.5885459" lon="11.5166863"><ele>132.0</ele><time>2026-05-01T18:41:47.051Z</time></trkpt><trkpt lat="43.5887165" lon="11.5164471"><ele>133.0</ele><time>2026-05-01T18:41:48.051Z</time></trkpt><trkpt lat="43.5888851" lon="11.5162129"><ele>134.0</ele><time>2026-05-01T18:41:49.052Z</time></trkpt><trkpt lat="43.5890554" lon="11.5159726"><ele>134.0</ele><time>2026-05-01T18:41:50.052Z</time></trkpt><trkpt lat="43.5892368" lon="11.51575"><ele>134.0</ele><time>2026-05-01T18:41:51.051Z</time></trkpt><trkpt lat="43.589419" lon="11.5155581"><ele>133.0</ele><time>2026-05-01T18:41:52.051Z</time></trkpt><trkpt lat="43.5896153" lon="11.5153892"><ele>132.0</ele><time>2026-05-01T18:41:53.051Z</time></trkpt><trkpt lat="43.5898132" lon="11.5152495"><ele>132.0</ele><time>2026-05-01T18:41:54.051Z</time></trkpt><trkpt lat="43.5900132" lon="11.5151489"><ele>132.0</ele><time>2026-05-01T18:41:55.052Z</time></trkpt><trkpt lat="43.5902283" lon="11.5151171"><ele>132.0</ele><time>2026-05-01T18:41:56.051Z</time></trkpt><trkpt lat="43.5904407" lon="11.5151288"><ele>131.66666666666666</ele><time>2026-05-01T18:41:57.052Z</time></trkpt><trkpt lat="43.5906452" lon="11.5151662"><ele>131.33333333333331</ele><time>2026-05-01T18:41:58.051Z</time></trkpt><trkpt lat="43.5908441" lon="11.5152417"><ele>131.0</ele><time>2026-05-01T18:41:59.051Z</time></trkpt><trkpt lat="43.591035" lon="11.515352"><ele>132.33333333333331</ele><time>2026-05-01T18:42:00.051Z</time></trkpt><trkpt lat="43.5912047" lon="11.5154951"><ele>133.66666666666666</ele><time>2026-05-01T18:42:01.052Z</time></trkpt><trkpt lat="43.5913524" lon="11.5156467"><ele>135.0</ele><time>2026-05-01T18:42:02.051Z</time></trkpt><trkpt lat="43.5914865" lon="11.5158001"><ele>135.0</ele><time>2026-05-01T18:42:03.051Z</time></trkpt><trkpt lat="43.5916166" lon="11.5159475"><ele>135.0</ele><time>2026-05-01T18:42:04.051Z</time></trkpt><trkpt lat="43.5917334" lon="11.5160947"><ele>135.0</ele><time>2026-05-01T18:42:05.051Z</time></trkpt><trkpt lat="43.5918446" lon="11.5162314"><ele>135.0</ele><time>2026-05-01T18:42:06.052Z</time></trkpt><trkpt lat="43.5919429" lon="11.5163537"><ele>135.0</ele><time>2026-05-01T18:42:07.051Z</time></trkpt><trkpt lat="43.5920329" lon="11.5164602"><ele>135.0</ele><time>2026-05-01T18:42:08.051Z</time></trkpt><trkpt lat="43.5921451" lon="11.5165378"><ele>135.0</ele><time>2026-05-01T18:42:09.051Z</time></trkpt><trkpt lat="43.5922742" lon="11.5165968"><ele>134.5</ele><time>2026-05-01T18:42:10.052Z</time></trkpt><trkpt lat="43.5924239" lon="11.5166306"><ele>134.0</ele><time>2026-05-01T18:42:11.052Z</time></trkpt><trkpt lat="43.5925726" lon="11.5166573"><ele>133.5</ele><time>2026-05-01T18:42:12.051Z</time></trkpt><trkpt lat="43.5927132" lon="11.5166461"><ele>133.0</ele><time>2026-05-01T18:42:13.051Z</time></trkpt><trkpt lat="43.5928473" lon="11.516605"><ele>132.8</ele><time>2026-05-01T18:42:14.051Z</time></trkpt><trkpt lat="43.5929551" lon="11.5165259"><ele>132.60000000000002</ele><time>2026-05-01T18:42:15.052Z</time></trkpt><trkpt lat="43.5930454" lon="11.5164377"><ele>132.39999999999998</ele><time>2026-05-01T18:42:16.051Z</time></trkpt><trkpt lat="43.5931213" lon="11.5163627"><ele>132.2</ele><time>2026-05-01T18:42:17.051Z</time></trkpt><trkpt lat="43.593215" lon="11.5162994"><ele>132.0</ele><time>2026-05-01T18:42:18.052Z</time></trkpt><trkpt lat="43.5933249" lon="11.5163025"><ele>132.0</ele><time>2026-05-01T18:42:19.051Z</time></trkpt><trkpt lat="43.5934547" lon="11.5163667"><ele>132.0</ele><time>2026-05-01T18:42:20.052Z</time></trkpt><trkpt lat="43.5935858" lon="11.5164526"><ele>132.0</ele><time>2026-05-01T18:42:21.051Z</time></trkpt><trkpt lat="43.5937073" lon="11.5165489"><ele>132.0</ele><time>2026-05-01T18:42:22.051Z</time></trkpt><trkpt lat="43.5938556" lon="11.516643"><ele>132.66666666666666</ele><time>2026-05-01T18:42:23.051Z</time></trkpt><trkpt lat="43.5940182" lon="11.5167034"><ele>133.33333333333331</ele><time>2026-05-01T18:42:24.051Z</time></trkpt><trkpt lat="43.5941859" lon="11.5167483"><ele>134.0</ele><time>2026-05-01T18:42:25.051Z</time></trkpt><trkpt lat="43.5943529" lon="11.5167833"><ele>135.0</ele><time>2026-05-01T18:42:26.051Z</time></trkpt><trkpt lat="43.5945239" lon="11.5167889"><ele>136.0</ele><time>2026-05-01T18:42:27.051Z</time></trkpt><trkpt lat="43.594702" lon="11.5167671"><ele>137.0</ele><time>2026-05-01T18:42:28.051Z</time></trkpt><trkpt lat="43.5948761" lon="11.5167369"><ele>137.0</ele><time>2026-05-01T18:42:29.051Z</time></trkpt><trkpt lat="43.5950522" lon="11.5167109"><ele>137.0</ele><time>2026-05-01T18:42:30.051Z</time></trkpt><trkpt lat="43.5952232" lon="11.5166917"><ele>137.0</ele><time>2026-05-01T18:42:31.051Z</time></trkpt><trkpt lat="43.595391" lon="11.5166788"><ele>137.66666666666666</ele><time>2026-05-01T18:42:32.051Z</time></trkpt><trkpt lat="43.5955655" lon="11.5166692"><ele>138.33333333333334</ele><time>2026-05-01T18:42:33.051Z</time></trkpt><trkpt lat="43.5957371" lon="11.5166417"><ele>139.0</ele><time>2026-05-01T18:42:34.051Z</time></trkpt><trkpt lat="43.5959112" lon="11.5165932"><ele>139.0</ele><time>2026-05-01T18:42:35.051Z</time></trkpt><trkpt lat="43.5960862" lon="11.5165078"><ele>139.0</ele><time>2026-05-01T18:42:36.051Z</time></trkpt><trkpt lat="43.5962598" lon="11.5163985"><ele>139.0</ele><time>2026-05-01T18:42:37.051Z</time></trkpt><trkpt lat="43.596433" lon="11.5162944"><ele>139.0</ele><time>2026-05-01T18:42:38.052Z</time></trkpt><trkpt lat="43.5966075" lon="11.5161751"><ele>139.0</ele><time>2026-05-01T18:42:39.051Z</time></trkpt><trkpt lat="43.5967714" lon="11.5160351"><ele>139.0</ele><time>2026-05-01T18:42:40.052Z</time></trkpt><trkpt lat="43.5969404" lon="11.5158881"><ele>139.0</ele><time>2026-05-01T18:42:41.051Z</time></trkpt><trkpt lat="43.5971012" lon="11.5157408"><ele>139.0</ele><time>2026-05-01T18:42:42.051Z</time></trkpt><trkpt lat="43.5972695" lon="11.5155889"><ele>139.0</ele><time>2026-05-01T18:42:43.051Z</time></trkpt><trkpt lat="43.5974335" lon="11.5154465"><ele>138.0</ele><time>2026-05-01T18:42:44.051Z</time></trkpt><trkpt lat="43.5975905" lon="11.5152932"><ele>137.0</ele><time>2026-05-01T18:42:45.051Z</time></trkpt><trkpt lat="43.5977504" lon="11.5151493"><ele>136.0</ele><time>2026-05-01T18:42:46.052Z</time></trkpt><trkpt lat="43.5978998" lon="11.515002"><ele>136.0</ele><time>2026-05-01T18:42:47.051Z</time></trkpt><trkpt lat="43.5980437" lon="11.5148464"><ele>136.0</ele><time>2026-05-01T18:42:48.051Z</time></trkpt><trkpt lat="43.5981847" lon="11.5146955"><ele>136.0</ele><time>2026-05-01T18:42:49.051Z</time></trkpt><trkpt lat="43.5983258" lon="11.5145493"><ele>136.33333333333334</ele><time>2026-05-01T18:42:50.051Z</time></trkpt><trkpt lat="43.5984781" lon="11.5144164"><ele>136.66666666666666</ele><time>2026-05-01T18:42:51.052Z</time></trkpt><trkpt lat="43.5986418" lon="11.5142915"><ele>137.0</ele><time>2026-05-01T18:42:52.051Z</time></trkpt><trkpt lat="43.5988143" lon="11.5141695"><ele>137.0</ele><time>2026-05-01T18:42:53.051Z</time></trkpt><trkpt lat="43.5989917" lon="11.5140558"><ele>137.0</ele><time>2026-05-01T18:42:54.051Z</time></trkpt><trkpt lat="43.5991627" lon="11.5139253"><ele>137.0</ele><time>2026-05-01T18:42:55.051Z</time></trkpt><trkpt lat="43.599328" lon="11.513776"><ele>136.33333333333331</ele><time>2026-05-01T18:42:56.051Z</time></trkpt><trkpt lat="43.5994925" lon="11.5136237"><ele>135.66666666666666</ele><time>2026-05-01T18:42:57.051Z</time></trkpt><trkpt lat="43.5996532" lon="11.5134617"><ele>135.0</ele><time>2026-05-01T18:42:58.051Z</time></trkpt><trkpt lat="43.5998133" lon="11.5132996"><ele>135.0</ele><time>2026-05-01T18:42:59.051Z</time></trkpt><trkpt lat="43.5999815" lon="11.5131365"><ele>135.0</ele><time>2026-05-01T18:43:00.051Z</time></trkpt><trkpt lat="43.6001474" lon="11.5129727"><ele>135.0</ele><time>2026-05-01T18:43:01.051Z</time></trkpt><trkpt lat="43.6003175" lon="11.5128189"><ele>134.66666666666666</ele><time>2026-05-01T18:43:02.051Z</time></trkpt><trkpt lat="43.6004889" lon="11.5126509"><ele>134.33333333333331</ele><time>2026-05-01T18:43:03.051Z</time></trkpt><trkpt lat="43.6006456" lon="11.5124694"><ele>134.0</ele><time>2026-05-01T18:43:04.051Z</time></trkpt><trkpt lat="43.6007917" lon="11.5122655"><ele>134.0</ele><time>2026-05-01T18:43:05.051Z</time></trkpt><trkpt lat="43.6009231" lon="11.5120785"><ele>134.0</ele><time>2026-05-01T18:43:06.052Z</time></trkpt><trkpt lat="43.6010585" lon="11.5118869"><ele>134.0</ele><time>2026-05-01T18:43:07.051Z</time></trkpt><trkpt lat="43.601211" lon="11.5117058"><ele>133.33333333333331</ele><time>2026-05-01T18:43:08.052Z</time></trkpt><trkpt lat="43.6013709" lon="11.5115515"><ele>132.66666666666666</ele><time>2026-05-01T18:43:09.051Z</time></trkpt><trkpt lat="43.6015423" lon="11.5114064"><ele>132.0</ele><time>2026-05-01T18:43:10.051Z</time></trkpt><trkpt lat="43.6017139" lon="11.5112635"><ele>131.66666666666666</ele><time>2026-05-01T18:43:11.051Z</time></trkpt><trkpt lat="43.6018923" lon="11.5111338"><ele>131.33333333333331</ele><time>2026-05-01T18:43:12.051Z</time></trkpt><trkpt lat="43.6020576" lon="11.5110031"><ele>131.0</ele><time>2026-05-01T18:43:13.051Z</time></trkpt><trkpt lat="43.6022188" lon="11.5108715"><ele>131.0</ele><time>2026-05-01T18:43:14.051Z</time></trkpt><trkpt lat="43.6023827" lon="11.5107471"><ele>131.0</ele><time>2026-05-01T18:43:15.051Z</time></trkpt><trkpt lat="43.6025376" lon="11.5106303"><ele>131.0</ele><time>2026-05-01T18:43:16.052Z</time></trkpt><trkpt lat="43.6026797" lon="11.5105095"><ele>130.33333333333331</ele><time>2026-05-01T18:43:17.052Z</time></trkpt><trkpt lat="43.6028054" lon="11.510365"><ele>129.66666666666666</ele><time>2026-05-01T18:43:18.051Z</time></trkpt><trkpt lat="43.6029175" lon="11.5101846"><ele>129.0</ele><time>2026-05-01T18:43:19.051Z</time></trkpt><trkpt lat="43.6030141" lon="11.5099846"><ele>129.33333333333334</ele><time>2026-05-01T18:43:20.052Z</time></trkpt><trkpt lat="43.603097" lon="11.5097682"><ele>129.66666666666669</ele><time>2026-05-01T18:43:21.051Z</time></trkpt><trkpt lat="43.60319" lon="11.5095575"><ele>130.0</ele><time>2026-05-01T18:43:22.051Z</time></trkpt><trkpt lat="43.6032945" lon="11.5093433"><ele>130.0</ele><time>2026-05-01T18:43:23.051Z</time></trkpt><trkpt lat="43.6034207" lon="11.5091496"><ele>130.0</ele><time>2026-05-01T18:43:24.051Z</time></trkpt><trkpt lat="43.6035552" lon="11.508989"><ele>130.0</ele><time>2026-05-01T18:43:25.051Z</time></trkpt><trkpt lat="43.6036878" lon="11.5088268"><ele>130.66666666666669</ele><time>2026-05-01T18:43:26.051Z</time></trkpt><trkpt lat="43.6038052" lon="11.5086465"><ele>131.33333333333334</ele><time>2026-05-01T18:43:27.051Z</time></trkpt><trkpt lat="43.6038997" lon="11.5084253"><ele>132.0</ele><time>2026-05-01T18:43:28.051Z</time></trkpt><trkpt lat="43.6039835" lon="11.5081939"><ele>132.0</ele><time>2026-05-01T18:43:29.051Z</time></trkpt><trkpt lat="43.604055" lon="11.5079459"><ele>132.0</ele><time>2026-05-01T18:43:30.052Z</time></trkpt><trkpt lat="43.6041144" lon="11.5076906"><ele>132.0</ele><time>2026-05-01T18:43:31.051Z</time></trkpt><trkpt lat="43.6041636" lon="11.5074317"><ele>131.66666666666666</ele><time>2026-05-01T18:43:32.052Z</time></trkpt><trkpt lat="43.6042062" lon="11.5071706"><ele>131.33333333333331</ele><time>2026-05-01T18:43:33.051Z</time></trkpt><trkpt lat="43.6042546" lon="11.5069078"><ele>131.0</ele><time>2026-05-01T18:43:34.052Z</time></trkpt><trkpt lat="43.6043114" lon="11.5066583"><ele>130.0</ele><time>2026-05-01T18:43:35.052Z</time></trkpt><trkpt lat="43.6043759" lon="11.5064223"><ele>129.0</ele><time>2026-05-01T18:43:36.051Z</time></trkpt><trkpt lat="43.6044594" lon="11.5062028"><ele>128.0</ele><time>2026-05-01T18:43:37.052Z</time></trkpt><trkpt lat="43.6045853" lon="11.5060094"><ele>130.33333333333331</ele><time>2026-05-01T18:43:38.051Z</time></trkpt><trkpt lat="43.6047293" lon="11.5058225"><ele>132.66666666666666</ele><time>2026-05-01T18:43:39.052Z</time></trkpt><trkpt lat="43.6048725" lon="11.505628"><ele>135.0</ele><time>2026-05-01T18:43:40.051Z</time></trkpt><trkpt lat="43.6050074" lon="11.5054255"><ele>132.66666666666666</ele><time>2026-05-01T18:43:41.052Z</time></trkpt><trkpt lat="43.6051501" lon="11.5052292"><ele>130.33333333333331</ele><time>2026-05-01T18:43:42.051Z</time></trkpt><trkpt lat="43.6052948" lon="11.5050259"><ele>128.0</ele><time>2026-05-01T18:43:43.051Z</time></trkpt><trkpt lat="43.6054437" lon="11.5048248"><ele>129.0</ele><time>2026-05-01T18:43:44.051Z</time></trkpt><trkpt lat="43.6055926" lon="11.5046312"><ele>130.0</ele><time>2026-05-01T18:43:45.051Z</time></trkpt><trkpt lat="43.6057424" lon="11.5044504"><ele>131.0</ele><time>2026-05-01T18:43:46.051Z</time></trkpt><trkpt lat="43.6058973" lon="11.5042735"><ele>131.0</ele><time>2026-05-01T18:43:47.051Z</time></trkpt><trkpt lat="43.6060643" lon="11.5041159"><ele>131.0</ele><time>2026-05-01T18:43:48.051Z</time></trkpt><trkpt lat="43.6062396" lon="11.5039691"><ele>131.0</ele><time>2026-05-01T18:43:49.052Z</time></trkpt><trkpt lat="43.6064171" lon="11.5038169"><ele>130.33333333333331</ele><time>2026-05-01T18:43:50.051Z</time></trkpt><trkpt lat="43.6065845" lon="11.5036859"><ele>129.66666666666666</ele><time>2026-05-01T18:43:51.051Z</time></trkpt><trkpt lat="43.606758" lon="11.5036007"><ele>129.0</ele><time>2026-05-01T18:43:52.051Z</time></trkpt><trkpt lat="43.6069411" lon="11.5035533"><ele>129.33333333333334</ele><time>2026-05-01T18:43:53.051Z</time></trkpt><trkpt lat="43.6071321" lon="11.5035243"><ele>129.66666666666669</ele><time>2026-05-01T18:43:54.051Z</time></trkpt><trkpt lat="43.6073153" lon="11.5035067"><ele>130.0</ele><time>2026-05-01T18:43:55.051Z</time></trkpt><trkpt lat="43.6074888" lon="11.5034963"><ele>130.0</ele><time>2026-05-01T18:43:56.051Z</time></trkpt><trkpt lat="43.6076525" lon="11.5034786"><ele>130.0</ele><time>2026-05-01T18:43:57.051Z</time></trkpt><trkpt lat="43.6078108" lon="11.5034476"><ele>130.0</ele><time>2026-05-01T18:43:58.052Z</time></trkpt><trkpt lat="43.6079757" lon="11.5033782"><ele>129.0</ele><time>2026-05-01T18:43:59.052Z</time></trkpt><trkpt lat="43.6081343" lon="11.503275"><ele>128.0</ele><time>2026-05-01T18:44:00.051Z</time></trkpt><trkpt lat="43.6082943" lon="11.5031422"><ele>127.0</ele><time>2026-05-01T18:44:01.052Z</time></trkpt><trkpt lat="43.6084536" lon="11.5030022"><ele>127.0</ele><time>2026-05-01T18:44:02.051Z</time></trkpt><trkpt lat="43.6086171" lon="11.5028549"><ele>127.0</ele><time>2026-05-01T18:44:03.051Z</time></trkpt><trkpt lat="43.6087782" lon="11.5026987"><ele>127.0</ele><time>2026-05-01T18:44:04.051Z</time></trkpt><trkpt lat="43.6089304" lon="11.5025306"><ele>127.0</ele><time>2026-05-01T18:44:05.051Z</time></trkpt><trkpt lat="43.6090842" lon="11.502349"><ele>127.0</ele><time>2026-05-01T18:44:06.051Z</time></trkpt><trkpt lat="43.609256" lon="11.5021887"><ele>127.0</ele><time>2026-05-01T18:44:07.051Z</time></trkpt><trkpt lat="43.6094503" lon="11.5020655"><ele>126.66666666666667</ele><time>2026-05-01T18:44:08.051Z</time></trkpt><trkpt lat="43.6096426" lon="11.5019662"><ele>126.33333333333334</ele><time>2026-05-01T18:44:09.051Z</time></trkpt><trkpt lat="43.6098451" lon="11.5018655"><ele>126.0</ele><time>2026-05-01T18:44:10.051Z</time></trkpt><trkpt lat="43.6100578" lon="11.5017623"><ele>126.0</ele><time>2026-05-01T18:44:11.052Z</time></trkpt><trkpt lat="43.6102672" lon="11.50165"><ele>126.0</ele><time>2026-05-01T18:44:12.051Z</time></trkpt><trkpt lat="43.6104803" lon="11.5015469"><ele>126.5</ele><time>2026-05-01T18:44:13.051Z</time></trkpt><trkpt lat="43.610693" lon="11.5014452"><ele>127.0</ele><time>2026-05-01T18:44:14.051Z</time></trkpt><trkpt lat="43.610908" lon="11.5013435"><ele>126.0</ele><time>2026-05-01T18:44:15.051Z</time></trkpt><trkpt lat="43.6111193" lon="11.5012427"><ele>125.0</ele><time>2026-05-01T18:44:16.051Z</time></trkpt><trkpt lat="43.6113349" lon="11.5011481"><ele>124.5</ele><time>2026-05-01T18:44:17.052Z</time></trkpt><trkpt lat="43.6115541" lon="11.5010628"><ele>124.0</ele><time>2026-05-01T18:44:18.051Z</time></trkpt><trkpt lat="43.6117733" lon="11.5009861"><ele>124.66666666666667</ele><time>2026-05-01T18:44:19.051Z</time></trkpt><trkpt lat="43.6119945" lon="11.500915"><ele>125.33333333333334</ele><time>2026-05-01T18:44:20.051Z</time></trkpt><trkpt lat="43.6122113" lon="11.5008486"><ele>126.0</ele><time>2026-05-01T18:44:21.052Z</time></trkpt><trkpt lat="43.6124204" lon="11.5007912"><ele>126.0</ele><time>2026-05-01T18:44:22.052Z</time></trkpt><trkpt lat="43.612627" lon="11.5007352"><ele>126.0</ele><time>2026-05-01T18:44:23.051Z</time></trkpt><trkpt lat="43.6128316" lon="11.5006715"><ele>126.0</ele><time>2026-05-01T18:44:24.051Z</time></trkpt><trkpt lat="43.6130371" lon="11.5006142"><ele>126.0</ele><time>2026-05-01T18:44:25.051Z</time></trkpt><trkpt lat="43.6132372" lon="11.5005517"><ele>126.0</ele><time>2026-05-01T18:44:26.051Z</time></trkpt><trkpt lat="43.613434" lon="11.5004914"><ele>126.0</ele><time>2026-05-01T18:44:27.052Z</time></trkpt><trkpt lat="43.6136203" lon="11.5004227"><ele>125.33333333333334</ele><time>2026-05-01T18:44:28.051Z</time></trkpt><trkpt lat="43.6138014" lon="11.5003506"><ele>124.66666666666667</ele><time>2026-05-01T18:44:29.051Z</time></trkpt><trkpt lat="43.6139821" lon="11.5002649"><ele>124.0</ele><time>2026-05-01T18:44:30.051Z</time></trkpt><trkpt lat="43.6141655" lon="11.5001639"><ele>124.0</ele><time>2026-05-01T18:44:31.051Z</time></trkpt><trkpt lat="43.6143459" lon="11.5000656"><ele>124.0</ele><time>2026-05-01T18:44:32.051Z</time></trkpt><trkpt lat="43.6145255" lon="11.4999712"><ele>124.0</ele><time>2026-05-01T18:44:33.052Z</time></trkpt><trkpt lat="43.6146934" lon="11.4998761"><ele>124.25</ele><time>2026-05-01T18:44:34.051Z</time></trkpt><trkpt lat="43.6148331" lon="11.4998026"><ele>124.5</ele><time>2026-05-01T18:44:35.052Z</time></trkpt><trkpt lat="43.6149538" lon="11.4997248"><ele>124.75</ele><time>2026-05-01T18:44:36.051Z</time></trkpt><trkpt lat="43.6150517" lon="11.4996659"><ele>125.0</ele><time>2026-05-01T18:44:37.051Z</time></trkpt><trkpt lat="43.6151327" lon="11.4996235"><ele>125.0</ele><time>2026-05-01T18:44:38.051Z</time></trkpt><trkpt lat="43.6152004" lon="11.4996047"><ele>125.0</ele><time>2026-05-01T18:44:39.051Z</time></trkpt><trkpt lat="43.6152802" lon="11.4995842"><ele>125.0</ele><time>2026-05-01T18:44:41.051Z</time></trkpt><trkpt lat="43.6153513" lon="11.4995772"><ele>125.0</ele><time>2026-05-01T18:44:43.052Z</time></trkpt><trkpt lat="43.6154154" lon="11.499537"><ele>125.0</ele><time>2026-05-01T18:44:44.051Z</time></trkpt><trkpt lat="43.6154686" lon="11.499479"><ele>125.0</ele><time>2026-05-01T18:44:45.051Z</time></trkpt><trkpt lat="43.615528" lon="11.499406"><ele>125.0</ele><time>2026-05-01T18:44:46.051Z</time></trkpt><trkpt lat="43.6155908" lon="11.4993198"><ele>125.0</ele><time>2026-05-01T18:44:47.051Z</time></trkpt><trkpt lat="43.6156535" lon="11.4992348"><ele>125.0</ele><time>2026-05-01T18:44:48.052Z</time></trkpt><trkpt lat="43.6157289" lon="11.499133"><ele>125.0</ele><time>2026-05-01T18:44:49.052Z</time></trkpt><trkpt lat="43.6158234" lon="11.4990049"><ele>125.0</ele><time>2026-05-01T18:44:50.051Z</time></trkpt><trkpt lat="43.6159315" lon="11.498874"><ele>125.0</ele><time>2026-05-01T18:44:51.051Z</time></trkpt><trkpt lat="43.6160458" lon="11.4987309"><ele>125.0</ele><time>2026-05-01T18:44:52.051Z</time></trkpt><trkpt lat="43.6161736" lon="11.4985886"><ele>125.0</ele><time>2026-05-01T18:44:53.052Z</time></trkpt><trkpt lat="43.6163055" lon="11.498434"><ele>125.0</ele><time>2026-05-01T18:44:54.051Z</time></trkpt><trkpt lat="43.6164467" lon="11.4982747"><ele>125.0</ele><time>2026-05-01T18:44:55.051Z</time></trkpt><trkpt lat="43.6165901" lon="11.4981104"><ele>125.0</ele><time>2026-05-01T18:44:56.051Z</time></trkpt><trkpt lat="43.6167346" lon="11.4979441"><ele>125.33333333333333</ele><time>2026-05-01T18:44:57.052Z</time></trkpt><trkpt lat="43.6168784" lon="11.4977743"><ele>125.66666666666666</ele><time>2026-05-01T18:44:58.051Z</time></trkpt><trkpt lat="43.6170279" lon="11.4976004"><ele>126.0</ele><time>2026-05-01T18:44:59.051Z</time></trkpt><trkpt lat="43.6171752" lon="11.4974231"><ele>126.0</ele><time>2026-05-01T18:45:00.052Z</time></trkpt><trkpt lat="43.6173216" lon="11.4972492"><ele>126.0</ele><time>2026-05-01T18:45:01.052Z</time></trkpt><trkpt lat="43.6174733" lon="11.4970831"><ele>126.0</ele><time>2026-05-01T18:45:02.051Z</time></trkpt><trkpt lat="43.6176282" lon="11.4969243"><ele>125.66666666666666</ele><time>2026-05-01T18:45:03.051Z</time></trkpt><trkpt lat="43.6177887" lon="11.496781"><ele>125.33333333333333</ele><time>2026-05-01T18:45:04.052Z</time></trkpt><trkpt lat="43.6179586" lon="11.496667"><ele>125.0</ele><time>2026-05-01T18:45:05.051Z</time></trkpt><trkpt lat="43.6181418" lon="11.4965647"><ele>125.0</ele><time>2026-05-01T18:45:06.051Z</time></trkpt><trkpt lat="43.6183291" lon="11.496488"><ele>125.0</ele><time>2026-05-01T18:45:07.051Z</time></trkpt><trkpt lat="43.6185246" lon="11.4964326"><ele>125.0</ele><time>2026-05-01T18:45:08.051Z</time></trkpt><trkpt lat="43.6187179" lon="11.4963886"><ele>126.66666666666666</ele><time>2026-05-01T18:45:09.051Z</time></trkpt><trkpt lat="43.618913" lon="11.4963574"><ele>128.33333333333334</ele><time>2026-05-01T18:45:10.051Z</time></trkpt><trkpt lat="43.6191114" lon="11.4963429"><ele>130.0</ele><time>2026-05-01T18:45:11.051Z</time></trkpt><trkpt lat="43.6193081" lon="11.4963201"><ele>129.66666666666669</ele><time>2026-05-01T18:45:12.051Z</time></trkpt><trkpt lat="43.6194994" lon="11.4963001"><ele>129.33333333333334</ele><time>2026-05-01T18:45:13.051Z</time></trkpt><trkpt lat="43.6196888" lon="11.4962766"><ele>129.0</ele><time>2026-05-01T18:45:14.051Z</time></trkpt><trkpt lat="43.6198808" lon="11.4962513"><ele>127.66666666666666</ele><time>2026-05-01T18:45:15.051Z</time></trkpt><trkpt lat="43.6200697" lon="11.4962321"><ele>126.33333333333333</ele><time>2026-05-01T18:45:16.051Z</time></trkpt><trkpt lat="43.6202583" lon="11.4962099"><ele>125.0</ele><time>2026-05-01T18:45:17.052Z</time></trkpt><trkpt lat="43.6204454" lon="11.4961889"><ele>125.0</ele><time>2026-05-01T18:45:18.051Z</time></trkpt><trkpt lat="43.6206282" lon="11.4961606"><ele>125.0</ele><time>2026-05-01T18:45:19.051Z</time></trkpt><trkpt lat="43.6208045" lon="11.4961063"><ele>125.0</ele><time>2026-05-01T18:45:20.051Z</time></trkpt><trkpt lat="43.6209831" lon="11.4960396"><ele>125.0</ele><time>2026-05-01T18:45:21.051Z</time></trkpt><trkpt lat="43.6211491" lon="11.4959422"><ele>125.0</ele><time>2026-05-01T18:45:22.051Z</time></trkpt><trkpt lat="43.621303" lon="11.4958395"><ele>125.0</ele><time>2026-05-01T18:45:23.051Z</time></trkpt><trkpt lat="43.6214581" lon="11.49573"><ele>125.66666666666666</ele><time>2026-05-01T18:45:24.051Z</time></trkpt><trkpt lat="43.6216083" lon="11.4956166"><ele>126.33333333333334</ele><time>2026-05-01T18:45:25.051Z</time></trkpt><trkpt lat="43.6217599" lon="11.4955061"><ele>127.0</ele><time>2026-05-01T18:45:26.052Z</time></trkpt><trkpt lat="43.6219163" lon="11.4953857"><ele>127.0</ele><time>2026-05-01T18:45:27.052Z</time></trkpt><trkpt lat="43.6220608" lon="11.4952481"><ele>127.0</ele><time>2026-05-01T18:45:28.051Z</time></trkpt><trkpt lat="43.6221942" lon="11.4950913"><ele>127.0</ele><time>2026-05-01T18:45:29.051Z</time></trkpt><trkpt lat="43.6223185" lon="11.4949183"><ele>127.0</ele><time>2026-05-01T18:45:30.052Z</time></trkpt><trkpt lat="43.6224224" lon="11.4947178"><ele>127.0</ele><time>2026-05-01T18:45:31.051Z</time></trkpt><trkpt lat="43.6225089" lon="11.4944975"><ele>127.0</ele><time>2026-05-01T18:45:32.051Z</time></trkpt><trkpt lat="43.6225402" lon="11.4856464"><ele>124.0</ele><time>2026-05-01T18:46:11.79Z</time></trkpt><trkpt lat="43.6232416" lon="11.4842702"><ele>125.0</ele><time>2026-05-01T18:46:20.957Z</time></trkpt><trkpt lat="43.6238644" lon="11.4838122"><ele>125.0</ele><time>2026-05-01T18:46:30.005Z</time></trkpt><trkpt lat="43.6239319" lon="11.4837266"><ele>125.0</ele><time>2026-05-01T18:46:38.747Z</time></trkpt><trkpt lat="43.6219634" lon="11.4784706"><ele>124.0</ele><time>2026-05-01T18:47:05.237Z</time></trkpt><trkpt lat="43.6223975" lon="11.474832"><ele>124.0</ele><time>2026-05-01T18:47:16.371Z</time></trkpt><trkpt lat="43.6243085" lon="11.4732124"><ele>122.0</ele><time>2026-05-01T18:47:26.251Z</time></trkpt><trkpt lat="43.6242223" lon="11.468973"><ele>122.0</ele><time>2026-05-01T18:47:35.387Z</time></trkpt><trkpt lat="43.6256396" lon="11.4658006"><ele>121.0</ele><time>2026-05-01T18:47:44.106Z</time></trkpt><trkpt lat="43.6278727" lon="11.4651487"><ele>122.0</ele><time>2026-05-01T18:48:11.534Z</time></trkpt><trkpt lat="43.6288269" lon="11.46412"><ele>125.0</ele><time>2026-05-01T18:48:21.412Z</time></trkpt><trkpt lat="43.6293287" lon="11.4632483"><ele>122.0</ele><time>2026-05-01T18:48:33.71Z</time></trkpt><trkpt lat="43.6318273" lon="11.461861"><ele>121.0</ele><time>2026-05-01T18:48:43.746Z</time></trkpt><trkpt lat="43.6326643" lon="11.4610402"><ele>121.0</ele><time>2026-05-01T18:48:53.361Z</time></trkpt><trkpt lat="43.6342184" lon="11.4594924"><ele>120.0</ele><time>2026-05-01T18:49:03.289Z</time></trkpt><trkpt lat="43.6346654" lon="11.458717"><ele>120.0</ele><time>2026-05-01T18:49:12.506Z</time></trkpt><trkpt lat="43.6353035" lon="11.4572271"><ele>120.0</ele><time>2026-05-01T18:49:22.604Z</time></trkpt><trkpt lat="43.6374086" lon="11.4559099"><ele>121.0</ele><time>2026-05-01T18:49:32.639Z</time></trkpt><trkpt lat="43.6386366" lon="11.4544273"><ele>121.0</ele><time>2026-05-01T18:49:42.254Z</time></trkpt><trkpt lat="43.6401785" lon="11.4536849"><ele>121.0</ele><time>2026-05-01T18:49:50.052Z</time></trkpt><trkpt lat="43.6402619" lon="11.4535072"><ele>121.0</ele><time>2026-05-01T18:49:51.049Z</time></trkpt><trkpt lat="43.6403901" lon="11.4533589"><ele>121.0</ele><time>2026-05-01T18:49:52.044Z</time></trkpt><trkpt lat="43.6404959" lon="11.4532432"><ele>121.0</ele><time>2026-05-01T18:49:53.05Z</time></trkpt><trkpt lat="43.6406173" lon="11.4531278"><ele>121.0</ele><time>2026-05-01T18:49:54.049Z</time></trkpt><trkpt lat="43.640725" lon="11.4530394"><ele>121.0</ele><time>2026-05-01T18:49:55.049Z</time></trkpt><trkpt lat="43.6409306" lon="11.4528591"><ele>121.0</ele><time>2026-05-01T18:49:57.052Z</time></trkpt><trkpt lat="43.6410499" lon="11.4528105"><ele>121.0</ele><time>2026-05-01T18:49:58.052Z</time></trkpt><trkpt lat="43.6411609" lon="11.4527919"><ele>121.0</ele><time>2026-05-01T18:49:59.052Z</time></trkpt><trkpt lat="43.6412652" lon="11.4527685"><ele>121.0</ele><time>2026-05-01T18:50:00.053Z</time></trkpt><trkpt lat="43.6413663" lon="11.4527627"><ele>121.0</ele><time>2026-05-01T18:50:01.052Z</time></trkpt><trkpt lat="43.6414657" lon="11.452765"><ele>121.0</ele><time>2026-05-01T18:50:02.052Z</time></trkpt><trkpt lat="43.6415627" lon="11.4527735"><ele>121.0</ele><time>2026-05-01T18:50:03.052Z</time></trkpt><trkpt lat="43.6416635" lon="11.4527739"><ele>121.0</ele><time>2026-05-01T18:50:04.053Z</time></trkpt><trkpt lat="43.6417737" lon="11.4527586"><ele>121.0</ele><time>2026-05-01T18:50:05.052Z</time></trkpt><trkpt lat="43.6418837" lon="11.4526924"><ele>121.0</ele><time>2026-05-01T18:50:06.052Z</time></trkpt><trkpt lat="43.6420017" lon="11.4526033"><ele>121.25</ele><time>2026-05-01T18:50:07.052Z</time></trkpt><trkpt lat="43.6421168" lon="11.4525132"><ele>121.5</ele><time>2026-05-01T18:50:08.052Z</time></trkpt><trkpt lat="43.6422563" lon="11.4524451"><ele>121.75</ele><time>2026-05-01T18:50:09.052Z</time></trkpt><trkpt lat="43.6424051" lon="11.4524183"><ele>122.0</ele><time>2026-05-01T18:50:10.053Z</time></trkpt><trkpt lat="43.6425643" lon="11.4524076"><ele>122.0</ele><time>2026-05-01T18:50:11.052Z</time></trkpt><trkpt lat="43.6427257" lon="11.452405"><ele>122.0</ele><time>2026-05-01T18:50:12.053Z</time></trkpt><trkpt lat="43.64289" lon="11.4523976"><ele>122.0</ele><time>2026-05-01T18:50:13.053Z</time></trkpt><trkpt lat="43.6430628" lon="11.4523811"><ele>121.66666666666666</ele><time>2026-05-01T18:50:14.052Z</time></trkpt><trkpt lat="43.6432289" lon="11.4523508"><ele>121.33333333333334</ele><time>2026-05-01T18:50:15.052Z</time></trkpt><trkpt lat="43.6433987" lon="11.4523138"><ele>121.0</ele><time>2026-05-01T18:50:16.052Z</time></trkpt><trkpt lat="43.6435624" lon="11.4522629"><ele>120.5</ele><time>2026-05-01T18:50:17.052Z</time></trkpt><trkpt lat="43.6437301" lon="11.4522064"><ele>120.0</ele><time>2026-05-01T18:50:18.053Z</time></trkpt><trkpt lat="43.6468538" lon="11.4510471"><ele>120.66666666666666</ele><time>2026-05-01T18:50:35.692Z</time></trkpt><trkpt lat="43.6471438" lon="11.450939"><ele>121.33333333333333</ele><time>2026-05-01T18:50:37.053Z</time></trkpt><trkpt lat="43.6472813" lon="11.4509338"><ele>122.0</ele><time>2026-05-01T18:50:38.053Z</time></trkpt><trkpt lat="43.6474885" lon="11.4508995"><ele>122.0</ele><time>2026-05-01T18:50:39.052Z</time></trkpt><trkpt lat="43.6476777" lon="11.4508865"><ele>122.0</ele><time>2026-05-01T18:50:40.052Z</time></trkpt><trkpt lat="43.6478795" lon="11.4508629"><ele>122.0</ele><time>2026-05-01T18:50:41.052Z</time></trkpt><trkpt lat="43.6480757" lon="11.4508478"><ele>122.0</ele><time>2026-05-01T18:50:42.053Z</time></trkpt><trkpt lat="43.6482658" lon="11.4508531"><ele>122.0</ele><time>2026-05-01T18:50:43.052Z</time></trkpt><trkpt lat="43.6484596" lon="11.4508818"><ele>122.0</ele><time>2026-05-01T18:50:44.053Z</time></trkpt><trkpt lat="43.6486435" lon="11.4509304"><ele>121.66666666666666</ele><time>2026-05-01T18:50:45.052Z</time></trkpt><trkpt lat="43.6488276" lon="11.4509792"><ele>121.33333333333334</ele><time>2026-05-01T18:50:46.052Z</time></trkpt><trkpt lat="43.6489973" lon="11.4510179"><ele>121.0</ele><time>2026-05-01T18:50:47.053Z</time></trkpt><trkpt lat="43.6491604" lon="11.4510601"><ele>121.0</ele><time>2026-05-01T18:50:48.053Z</time></trkpt><trkpt lat="43.6493225" lon="11.4510985"><ele>121.0</ele><time>2026-05-01T18:50:49.053Z</time></trkpt><trkpt lat="43.6494838" lon="11.4511305"><ele>121.0</ele><time>2026-05-01T18:50:50.052Z</time></trkpt><trkpt lat="43.6496429" lon="11.4511385"><ele>121.33333333333334</ele><time>2026-05-01T18:50:51.053Z</time></trkpt><trkpt lat="43.6498033" lon="11.4511327"><ele>121.66666666666666</ele><time>2026-05-01T18:50:52.052Z</time></trkpt><trkpt lat="43.6499608" lon="11.4511212"><ele>122.0</ele><time>2026-05-01T18:50:53.052Z</time></trkpt><trkpt lat="43.6501205" lon="11.4511092"><ele>122.0</ele><time>2026-05-01T18:50:54.052Z</time></trkpt><trkpt lat="43.6502767" lon="11.4511053"><ele>122.0</ele><time>2026-05-01T18:50:55.052Z</time></trkpt><trkpt lat="43.6504343" lon="11.4510964"><ele>122.0</ele><time>2026-05-01T18:50:56.052Z</time></trkpt><trkpt lat="43.6505783" lon="11.4510943"><ele>122.75</ele><time>2026-05-01T18:50:57.052Z</time></trkpt><trkpt lat="43.6507113" lon="11.4510916"><ele>123.5</ele><time>2026-05-01T18:50:58.052Z</time></trkpt><trkpt lat="43.6508375" lon="11.4510934"><ele>124.25</ele><time>2026-05-01T18:50:59.052Z</time></trkpt><trkpt lat="43.6509763" lon="11.4511516"><ele>125.0</ele><time>2026-05-01T18:51:00.052Z</time></trkpt><trkpt lat="43.6511121" lon="11.4512203"><ele>124.5</ele><time>2026-05-01T18:51:01.053Z</time></trkpt><trkpt lat="43.6512406" lon="11.4512968"><ele>124.0</ele><time>2026-05-01T18:51:02.052Z</time></trkpt><trkpt lat="43.651366" lon="11.4513685"><ele>123.5</ele><time>2026-05-01T18:51:03.052Z</time></trkpt><trkpt lat="43.6514873" lon="11.4514253"><ele>123.0</ele><time>2026-05-01T18:51:04.053Z</time></trkpt><trkpt lat="43.6516029" lon="11.4514486"><ele>123.0</ele><time>2026-05-01T18:51:05.052Z</time></trkpt><trkpt lat="43.6517196" lon="11.451457"><ele>123.0</ele><time>2026-05-01T18:51:06.052Z</time></trkpt><trkpt lat="43.6518411" lon="11.4514631"><ele>123.0</ele><time>2026-05-01T18:51:07.052Z</time></trkpt><trkpt lat="43.6519691" lon="11.451464"><ele>123.0</ele><time>2026-05-01T18:51:08.052Z</time></trkpt><trkpt lat="43.6520933" lon="11.4514579"><ele>122.60000000000001</ele><time>2026-05-01T18:51:09.052Z</time></trkpt><trkpt lat="43.6522075" lon="11.451444"><ele>122.20000000000002</ele><time>2026-05-01T18:51:10.052Z</time></trkpt><trkpt lat="43.6523109" lon="11.4514331"><ele>121.8</ele><time>2026-05-01T18:51:11.053Z</time></trkpt><trkpt lat="43.652402" lon="11.4514181"><ele>121.4</ele><time>2026-05-01T18:51:12.052Z</time></trkpt><trkpt lat="43.6524708" lon="11.4514226"><ele>121.0</ele><time>2026-05-01T18:51:13.052Z</time></trkpt><trkpt lat="43.6525754" lon="11.4514497"><ele>121.00000000000001</ele><time>2026-05-01T18:51:15.052Z</time></trkpt><trkpt lat="43.6526665" lon="11.4514994"><ele>121.0</ele><time>2026-05-01T18:51:17.052Z</time></trkpt><trkpt lat="43.6527469" lon="11.4514818"><ele>121.0</ele><time>2026-05-01T18:51:19.052Z</time></trkpt><trkpt lat="43.6528065" lon="11.451414"><ele>121.0</ele><time>2026-05-01T18:54:47.053Z</time></trkpt><trkpt lat="43.6528795" lon="11.4513969"><ele>121.00000000000001</ele><time>2026-05-01T18:54:49.054Z</time></trkpt><trkpt lat="43.6529512" lon="11.4513642"><ele>121.0</ele><time>2026-05-01T18:54:52.054Z</time></trkpt><trkpt lat="43.6528823" lon="11.4512676"><ele>121.0</ele><time>2026-05-01T18:54:56.053Z</time></trkpt><trkpt lat="43.652798" lon="11.4512791"><ele>121.0</ele><time>2026-05-01T18:54:57.053Z</time></trkpt><trkpt lat="43.652715" lon="11.4513088"><ele>121.0</ele><time>2026-05-01T18:54:58.053Z</time></trkpt><trkpt lat="43.6526214" lon="11.4513209"><ele>121.0</ele><time>2026-05-01T18:54:59.053Z</time></trkpt><trkpt lat="43.6525122" lon="11.4513476"><ele>121.0</ele><time>2026-05-01T18:55:00.053Z</time></trkpt><trkpt lat="43.6523913" lon="11.4513655"><ele>121.0</ele><time>2026-05-01T18:55:01.054Z</time></trkpt><trkpt lat="43.6522728" lon="11.4513742"><ele>121.0</ele><time>2026-05-01T18:55:02.054Z</time></trkpt><trkpt lat="43.6521477" lon="11.4513809"><ele>121.0</ele><time>2026-05-01T18:55:03.053Z</time></trkpt><trkpt lat="43.6520088" lon="11.4513965"><ele>121.0</ele><time>2026-05-01T18:55:04.053Z</time></trkpt><trkpt lat="43.6518471" lon="11.4514202"><ele>121.66666666666667</ele><time>2026-05-01T18:55:05.054Z</time></trkpt><trkpt lat="43.651686" lon="11.4514117"><ele>122.33333333333334</ele><time>2026-05-01T18:55:06.053Z</time></trkpt><trkpt lat="43.6515276" lon="11.4513917"><ele>123.0</ele><time>2026-05-01T18:55:07.054Z</time></trkpt><trkpt lat="43.6513729" lon="11.451348"><ele>123.66666666666666</ele><time>2026-05-01T18:55:08.053Z</time></trkpt><trkpt lat="43.6512211" lon="11.4512695"><ele>124.33333333333333</ele><time>2026-05-01T18:55:09.053Z</time></trkpt><trkpt lat="43.651077" lon="11.4511965"><ele>125.0</ele><time>2026-05-01T18:55:10.053Z</time></trkpt><trkpt lat="43.6509349" lon="11.4511327"><ele>125.0</ele><time>2026-05-01T18:55:11.053Z</time></trkpt><trkpt lat="43.6507963" lon="11.4510883"><ele>125.0</ele><time>2026-05-01T18:55:12.053Z</time></trkpt><trkpt lat="43.6506621" lon="11.4510549"><ele>125.0</ele><time>2026-05-01T18:55:13.053Z</time></trkpt><trkpt lat="43.6505287" lon="11.4510395"><ele>125.0</ele><time>2026-05-01T18:55:14.053Z</time></trkpt><trkpt lat="43.6503935" lon="11.4510506"><ele>124.25</ele><time>2026-05-01T18:55:15.054Z</time></trkpt><trkpt lat="43.6502674" lon="11.451067"><ele>123.5</ele><time>2026-05-01T18:55:16.053Z</time></trkpt><trkpt lat="43.6501396" lon="11.4510747"><ele>122.75</ele><time>2026-05-01T18:55:17.053Z</time></trkpt><trkpt lat="43.6500132" lon="11.4510806"><ele>122.0</ele><time>2026-05-01T18:55:18.053Z</time></trkpt><trkpt lat="43.6498842" lon="11.4510834"><ele>122.0</ele><time>2026-05-01T18:55:19.054Z</time></trkpt><trkpt lat="43.6497574" lon="11.451086"><ele>122.0</ele><time>2026-05-01T18:55:20.053Z</time></trkpt><trkpt lat="43.649628" lon="11.4510842"><ele>122.0</ele><time>2026-05-01T18:55:21.053Z</time></trkpt><trkpt lat="43.6494969" lon="11.4510674"><ele>122.0</ele><time>2026-05-01T18:55:22.053Z</time></trkpt><trkpt lat="43.6493643" lon="11.4510399"><ele>121.75</ele><time>2026-05-01T18:55:23.054Z</time></trkpt><trkpt lat="43.6492336" lon="11.4510124"><ele>121.5</ele><time>2026-05-01T18:55:24.054Z</time></trkpt><trkpt lat="43.6490953" lon="11.4509792"><ele>121.25</ele><time>2026-05-01T18:55:25.053Z</time></trkpt><trkpt lat="43.6489613" lon="11.4509407"><ele>121.0</ele><time>2026-05-01T18:55:26.054Z</time></trkpt><trkpt lat="43.6488286" lon="11.450909"><ele>121.0</ele><time>2026-05-01T18:55:27.053Z</time></trkpt><trkpt lat="43.6486947" lon="11.4508773"><ele>121.0</ele><time>2026-05-01T18:55:28.053Z</time></trkpt><trkpt lat="43.6485583" lon="11.4508524"><ele>121.0</ele><time>2026-05-01T18:55:29.053Z</time></trkpt><trkpt lat="43.6484157" lon="11.4508281"><ele>121.0</ele><time>2026-05-01T18:55:30.053Z</time></trkpt><trkpt lat="43.6482718" lon="11.450811"><ele>121.33333333333334</ele><time>2026-05-01T18:55:31.053Z</time></trkpt><trkpt lat="43.6481292" lon="11.4508116"><ele>121.66666666666666</ele><time>2026-05-01T18:55:32.053Z</time></trkpt><trkpt lat="43.6479785" lon="11.450814"><ele>122.0</ele><time>2026-05-01T18:55:33.053Z</time></trkpt><trkpt lat="43.6478222" lon="11.4508298"><ele>122.0</ele><time>2026-05-01T18:55:34.053Z</time></trkpt><trkpt lat="43.6476574" lon="11.4508454"><ele>122.0</ele><time>2026-05-01T18:55:35.053Z</time></trkpt><trkpt lat="43.6474917" lon="11.4508672"><ele>122.0</ele><time>2026-05-01T18:55:36.054Z</time></trkpt><trkpt lat="43.6473336" lon="11.4508809"><ele>122.0</ele><time>2026-05-01T18:55:37.053Z</time></trkpt><trkpt lat="43.6471772" lon="11.4509063"><ele>122.0</ele><time>2026-05-01T18:55:38.054Z</time></trkpt><trkpt lat="43.6470249" lon="11.450932"><ele>122.0</ele><time>2026-05-01T18:55:39.053Z</time></trkpt><trkpt lat="43.6468725" lon="11.4509626"><ele>122.0</ele><time>2026-05-01T18:55:40.053Z</time></trkpt><trkpt lat="43.6467258" lon="11.4510053"><ele>122.0</ele><time>2026-05-01T18:55:41.053Z</time></trkpt><trkpt lat="43.6465832" lon="11.4510412"><ele>122.0</ele><time>2026-05-01T18:55:42.053Z</time></trkpt><trkpt lat="43.6464398" lon="11.451073"><ele>122.0</ele><time>2026-05-01T18:55:43.054Z</time></trkpt><trkpt lat="43.6462963" lon="11.4511036"><ele>122.0</ele><time>2026-05-01T18:55:44.053Z</time></trkpt><trkpt lat="43.6461685" lon="11.4511394"><ele>121.99999999999999</ele><time>2026-05-01T18:55:45.053Z</time></trkpt><trkpt lat="43.6460449" lon="11.4511792"><ele>121.99999999999999</ele><time>2026-05-01T18:55:46.053Z</time></trkpt><trkpt lat="43.6459407" lon="11.4512083"><ele>122.0</ele><time>2026-05-01T18:55:47.053Z</time></trkpt><trkpt lat="43.6458636" lon="11.4512259"><ele>122.0</ele><time>2026-05-01T18:55:48.053Z</time></trkpt><trkpt lat="43.6457932" lon="11.4512373"><ele>122.33333333333333</ele><time>2026-05-01T18:55:49.054Z</time></trkpt><trkpt lat="43.6457188" lon="11.4511596"><ele>122.66666666666666</ele><time>2026-05-01T18:55:51.053Z</time></trkpt><trkpt lat="43.6456937" lon="11.4510672"><ele>123.0</ele><time>2026-05-01T18:55:52.053Z</time></trkpt><trkpt lat="43.6456695" lon="11.4509693"><ele>123.33333333333334</ele><time>2026-05-01T18:55:53.053Z</time></trkpt><trkpt lat="43.6456574" lon="11.4508502"><ele>123.66666666666667</ele><time>2026-05-01T18:55:54.053Z</time></trkpt><trkpt lat="43.6456454" lon="11.4507411"><ele>124.0</ele><time>2026-05-01T18:55:55.054Z</time></trkpt><trkpt lat="43.645633" lon="11.4506347"><ele>124.0</ele><time>2026-05-01T18:55:56.054Z</time></trkpt><trkpt lat="43.6456141" lon="11.4505278"><ele>124.00000000000001</ele><time>2026-05-01T18:55:57.053Z</time></trkpt><trkpt lat="43.6455981" lon="11.4504297"><ele>124.0</ele><time>2026-05-01T18:55:58.053Z</time></trkpt><trkpt lat="43.6455728" lon="11.4503494"><ele>124.0</ele><time>2026-05-01T18:55:59.053Z</time></trkpt><trkpt lat="43.6455277" lon="11.4502846"><ele>124.00000000000001</ele><time>2026-05-01T18:56:00.053Z</time></trkpt><trkpt lat="43.6454576" lon="11.4502523"><ele>124.0</ele><time>2026-05-01T18:56:01.053Z</time></trkpt><trkpt lat="43.6453764" lon="11.4502343"><ele>124.0</ele><time>2026-05-01T18:56:02.054Z</time></trkpt><trkpt lat="43.6452853" lon="11.4502313"><ele>124.6</ele><time>2026-05-01T18:56:03.053Z</time></trkpt><trkpt lat="43.6451793" lon="11.4502388"><ele>125.2</ele><time>2026-05-01T18:56:04.053Z</time></trkpt><trkpt lat="43.645073" lon="11.450243"><ele>125.79999999999998</ele><time>2026-05-01T18:56:05.053Z</time></trkpt><trkpt lat="43.644969" lon="11.45025"><ele>126.39999999999999</ele><time>2026-05-01T18:56:06.054Z</time></trkpt><trkpt lat="43.644871" lon="11.4502588"><ele>127.0</ele><time>2026-05-01T18:56:07.054Z</time></trkpt><trkpt lat="43.644779" lon="11.4502659"><ele>127.00000000000001</ele><time>2026-05-01T18:56:08.053Z</time></trkpt><trkpt lat="43.6446984" lon="11.4502891"><ele>127.0</ele><time>2026-05-01T18:56:09.053Z</time></trkpt><trkpt lat="43.6446359" lon="11.4503135"><ele>127.0</ele><time>2026-05-01T18:56:10.053Z</time></trkpt><trkpt lat="43.6445702" lon="11.4503704"><ele>127.0</ele><time>2026-05-01T18:56:12.053Z</time></trkpt><trkpt lat="43.6445016" lon="11.4503795"><ele>127.00000000000001</ele><time>2026-05-01T18:56:14.053Z</time></trkpt><trkpt lat="43.6444709" lon="11.4502778"><ele>127.0</ele><time>2026-05-01T18:56:16.053Z</time></trkpt><trkpt lat="43.6444237" lon="11.4501479"><ele>127.0</ele><time>2026-05-01T18:56:18.054Z</time></trkpt><trkpt lat="43.6443021" lon="11.4501075"><ele>126.99999999999999</ele><time>2026-05-01T18:56:20.054Z</time></trkpt><trkpt lat="43.6442127" lon="11.450137"><ele>126.99999999999999</ele><time>2026-05-01T18:56:21.053Z</time></trkpt><trkpt lat="43.644127" lon="11.4501612"><ele>127.0</ele><time>2026-05-01T18:56:22.053Z</time></trkpt><trkpt lat="43.644035" lon="11.4501692"><ele>127.0</ele><time>2026-05-01T18:56:23.053Z</time></trkpt><trkpt lat="43.64394" lon="11.4501839"><ele>127.00000000000001</ele><time>2026-05-01T18:56:24.053Z</time></trkpt><trkpt lat="43.6438413" lon="11.450188"><ele>127.0</ele><time>2026-05-01T18:56:25.053Z</time></trkpt><trkpt lat="43.6437429" lon="11.4501993"><ele>127.0</ele><time>2026-05-01T18:56:26.054Z</time></trkpt><trkpt lat="43.6436486" lon="11.4502163"><ele>127.0</ele><time>2026-05-01T18:56:27.053Z</time></trkpt><trkpt lat="43.6435706" lon="11.450228"><ele>127.00000000000001</ele><time>2026-05-01T18:56:28.053Z</time></trkpt><trkpt lat="43.6435037" lon="11.4502355"><ele>127.0</ele><time>2026-05-01T18:56:29.053Z</time></trkpt><trkpt lat="43.6434202" lon="11.4502521"><ele>127.0</ele><time>2026-05-01T18:56:31.053Z</time></trkpt><trkpt lat="43.6433599" lon="11.4502018"><ele>126.99999999999999</ele><time>2026-05-01T18:56:33.053Z</time></trkpt><trkpt lat="43.643369" lon="11.4500997"><ele>126.99999999999999</ele><time>2026-05-01T18:56:35.053Z</time></trkpt><trkpt lat="43.64349" lon="11.4500664"><ele>127.0</ele><time>2026-05-01T18:56:37.054Z</time></trkpt><trkpt lat="43.6436037" lon="11.4500707"><ele>127.0</ele><time>2026-05-01T18:56:39.053Z</time></trkpt><trkpt lat="43.6436981" lon="11.4500166"><ele>127.00000000000001</ele><time>2026-05-01T18:56:41.053Z</time></trkpt><trkpt lat="43.6437455" lon="11.4498689"><ele>127.0</ele><time>2026-05-01T18:56:43.054Z</time></trkpt><trkpt lat="43.6438255" lon="11.4497662"><ele>127.0</ele><time>2026-05-01T18:56:45.053Z</time></trkpt><trkpt lat="43.6439004" lon="11.4497544"><ele>127.0</ele><time>2026-05-01T18:56:46.053Z</time></trkpt><trkpt lat="43.6439778" lon="11.4497508"><ele>127.00000000000001</ele><time>2026-05-01T18:56:47.053Z</time></trkpt><trkpt lat="43.6440423" lon="11.4497524"><ele>127.0</ele><time>2026-05-01T18:56:48.053Z</time></trkpt><trkpt lat="43.644141" lon="11.4497397"><ele>127.0</ele><time>2026-05-01T18:56:50.053Z</time></trkpt><trkpt lat="43.644214" lon="11.4497454"><ele>127.0</ele><time>2026-05-01T18:56:53.053Z</time></trkpt><trkpt lat="43.6442504" lon="11.4498244"><ele>127.0</ele><time>2026-05-01T18:58:05.08Z</time></trkpt></trkseg></trk></gpx>